<?xml version='1.0' encoding='UTF-8'?><gpx version="1.1" creator="JPX - https://github.com/jenetics/jpx" xmlns="http://www.topografix.com/GPX/1/1"><trk><trkseg><trkpt lat="43.56517737206988" lon="1.5206210325908889"><ele>151.0</ele><time>2026-03-22T07:53:39Z</time></trkpt><trkpt lat="43.56505219560446" lon="1.520618460212138"><ele>151.0</ele><time>2026-03-22T08:01:53Z</time></trkpt><trkpt lat="43.565165414354375" lon="1.520606960727758"><ele>151.0</ele><time>2026-03-22T08:01:56Z</time></trkpt><trkpt lat="43.56522797688898" lon="1.520588264251757"><ele>151.0</ele><time>2026-03-22T08:06:34Z</time></trkpt><trkpt lat="43.56518546183552" lon="1.5206626902987455"><ele>151.0</ele><time>2026-03-22T08:07:07Z</time></trkpt><trkpt lat="43.56512276112983" lon="1.5206793503643776"><ele>151.0</ele><time>2026-03-22T08:07:10Z</time></trkpt><trkpt lat="43.56505617215128" lon="1.5206531657551228"><ele>151.0</ele><time>2026-03-22T08:07:16.999Z</time></trkpt><trkpt lat="43.56506268342447" lon="1.5205444990369499"><ele>151.0</ele><time>2026-03-22T08:07:19.999Z</time></trkpt><trkpt lat="43.56509104476232" lon="1.5204375783885908"><ele>151.0</ele><time>2026-03-22T08:07:22.999Z</time></trkpt><trkpt lat="43.56511803863965" lon="1.52035446081535"><ele>151.0</ele><time>2026-03-22T08:07:25.999Z</time></trkpt><trkpt lat="43.56516499372021" lon="1.5202460539718383"><ele>151.0</ele><time>2026-03-22T08:07:28.999Z</time></trkpt><trkpt lat="43.56520446440626" lon="1.520159036557006"><ele>151.0</ele><time>2026-03-22T08:07:30.999Z</time></trkpt><trkpt lat="43.56523843701486" lon="1.5200364061421672"><ele>150.83333333333334</ele><time>2026-03-22T08:07:32.999Z</time></trkpt><trkpt lat="43.56526112578589" lon="1.5199212046161719"><ele>150.66666666666669</ele><time>2026-03-22T08:07:34.999Z</time></trkpt><trkpt lat="43.565279837480055" lon="1.5197977712392199"><ele>150.5</ele><time>2026-03-22T08:07:36.999Z</time></trkpt><trkpt lat="43.56532394061774" lon="1.5196631963246634"><ele>150.33333333333334</ele><time>2026-03-22T08:07:38.999Z</time></trkpt><trkpt lat="43.56537654177084" lon="1.519602035724015"><ele>150.16666666666666</ele><time>2026-03-22T08:07:39.999Z</time></trkpt><trkpt lat="43.565454263211215" lon="1.5195545428515884"><ele>150.0</ele><time>2026-03-22T08:07:40.999Z</time></trkpt><trkpt lat="43.56553866321377" lon="1.5195159013745736"><ele>149.66666666666666</ele><time>2026-03-22T08:07:41.999Z</time></trkpt><trkpt lat="43.565617704947854" lon="1.5194969555887703"><ele>149.33333333333334</ele><time>2026-03-22T08:07:42.999Z</time></trkpt><trkpt lat="43.56567823375924" lon="1.519533195769172"><ele>149.0</ele><time>2026-03-22T08:07:43.999Z</time></trkpt><trkpt lat="43.56574670039004" lon="1.5195580375847706"><ele>148.66666666666669</ele><time>2026-03-22T08:07:44.999Z</time></trkpt><trkpt lat="43.56582724699245" lon="1.5195642266574307"><ele>148.33333333333334</ele><time>2026-03-22T08:07:45.999Z</time></trkpt><trkpt lat="43.56593164977071" lon="1.5196248253240598"><ele>148.0</ele><time>2026-03-22T08:07:46.999Z</time></trkpt><trkpt lat="43.56601202904714" lon="1.5196903749919215"><ele>148.0</ele><time>2026-03-22T08:07:47.999Z</time></trkpt><trkpt lat="43.566079517476865" lon="1.519702520991824"><ele>148.0</ele><time>2026-03-22T08:07:49Z</time></trkpt><trkpt lat="43.566152151561305" lon="1.5197566457161846"><ele>148.0</ele><time>2026-03-22T08:07:50Z</time></trkpt><trkpt lat="43.566230443845484" lon="1.519793847497427"><ele>148.0</ele><time>2026-03-22T08:07:51Z</time></trkpt><trkpt lat="43.56630931978116" lon="1.5198313266021377"><ele>148.0</ele><time>2026-03-22T08:07:52Z</time></trkpt><trkpt lat="43.566418054196696" lon="1.5198771175066401"><ele>148.0</ele><time>2026-03-22T08:07:53Z</time></trkpt><trkpt lat="43.56651673377886" lon="1.5199113144041843"><ele>148.0</ele><time>2026-03-22T08:07:54Z</time></trkpt><trkpt lat="43.566607142301166" lon="1.51996855433577"><ele>148.0</ele><time>2026-03-22T08:07:55Z</time></trkpt><trkpt lat="43.56668795795462" lon="1.5200147000974784"><ele>148.0</ele><time>2026-03-22T08:07:56Z</time></trkpt><trkpt lat="43.566780869557284" lon="1.5200533399526102"><ele>148.0</ele><time>2026-03-22T08:07:57Z</time></trkpt><trkpt lat="43.566867860381045" lon="1.5200900563846123"><ele>148.0</ele><time>2026-03-22T08:07:58Z</time></trkpt><trkpt lat="43.56696150121379" lon="1.5201317211315761"><ele>147.66666666666669</ele><time>2026-03-22T08:07:59Z</time></trkpt><trkpt lat="43.567050798935895" lon="1.5201807146365338"><ele>147.33333333333334</ele><time>2026-03-22T08:08:00Z</time></trkpt><trkpt lat="43.56712309549256" lon="1.520219742603012"><ele>147.0</ele><time>2026-03-22T08:08:01Z</time></trkpt><trkpt lat="43.567193673034566" lon="1.5202536176359533"><ele>146.66666666666666</ele><time>2026-03-22T08:08:02Z</time></trkpt><trkpt lat="43.56725964281094" lon="1.520281599530424"><ele>146.33333333333331</ele><time>2026-03-22T08:08:03Z</time></trkpt><trkpt lat="43.56732516517092" lon="1.5203126687278348"><ele>146.0</ele><time>2026-03-22T08:08:04Z</time></trkpt><trkpt lat="43.567394869774866" lon="1.520349404532797"><ele>146.0</ele><time>2026-03-22T08:08:05Z</time></trkpt><trkpt lat="43.567476225095206" lon="1.5203888196900617"><ele>146.0</ele><time>2026-03-22T08:08:06Z</time></trkpt><trkpt lat="43.56756707598245" lon="1.5204315687990728"><ele>146.0</ele><time>2026-03-22T08:08:07Z</time></trkpt><trkpt lat="43.56767916391426" lon="1.520478559989392"><ele>146.0</ele><time>2026-03-22T08:08:08Z</time></trkpt><trkpt lat="43.56778559144604" lon="1.520540204004827"><ele>146.0</ele><time>2026-03-22T08:08:09Z</time></trkpt><trkpt lat="43.56788974229345" lon="1.5205875596991936"><ele>146.33333333333331</ele><time>2026-03-22T08:08:10Z</time></trkpt><trkpt lat="43.56798730862293" lon="1.5206281211401997"><ele>146.66666666666666</ele><time>2026-03-22T08:08:11Z</time></trkpt><trkpt lat="43.56805719217427" lon="1.52066327671274"><ele>147.0</ele><time>2026-03-22T08:08:12Z</time></trkpt><trkpt lat="43.56815294417193" lon="1.5206961218063393"><ele>147.33333333333334</ele><time>2026-03-22T08:08:13Z</time></trkpt><trkpt lat="43.56824964299669" lon="1.5207329152244566"><ele>147.66666666666669</ele><time>2026-03-22T08:08:14Z</time></trkpt><trkpt lat="43.56831997828401" lon="1.5207647138670346"><ele>148.0</ele><time>2026-03-22T08:08:15Z</time></trkpt><trkpt lat="43.56838565962559" lon="1.5208014364076838"><ele>148.0</ele><time>2026-03-22T08:08:16Z</time></trkpt><trkpt lat="43.568435301443934" lon="1.5208557782388434"><ele>148.0</ele><time>2026-03-22T08:08:17Z</time></trkpt><trkpt lat="43.56849324364028" lon="1.5209417419662108"><ele>148.0</ele><time>2026-03-22T08:08:18Z</time></trkpt><trkpt lat="43.568524730823185" lon="1.5210385637717316"><ele>148.0</ele><time>2026-03-22T08:08:19Z</time></trkpt><trkpt lat="43.568449011472154" lon="1.5212436111031373"><ele>148.0</ele><time>2026-03-22T08:08:20Z</time></trkpt><trkpt lat="43.56841202241541" lon="1.5214120233200188"><ele>148.25</ele><time>2026-03-22T08:08:21Z</time></trkpt><trkpt lat="43.56838015545261" lon="1.5215763020869137"><ele>148.5</ele><time>2026-03-22T08:08:22Z</time></trkpt><trkpt lat="43.568341202244135" lon="1.521745097501713"><ele>148.75</ele><time>2026-03-22T08:08:23Z</time></trkpt><trkpt lat="43.568314638574954" lon="1.5219180395178271"><ele>149.0</ele><time>2026-03-22T08:08:24Z</time></trkpt><trkpt lat="43.56829265560797" lon="1.522095493634409"><ele>149.0</ele><time>2026-03-22T08:08:25Z</time></trkpt><trkpt lat="43.568262524431965" lon="1.52224743611226"><ele>149.0</ele><time>2026-03-22T08:08:26Z</time></trkpt><trkpt lat="43.56823558463288" lon="1.5224139299926494"><ele>149.0</ele><time>2026-03-22T08:08:27Z</time></trkpt><trkpt lat="43.568212938698615" lon="1.5225879463516376"><ele>149.0</ele><time>2026-03-22T08:08:28Z</time></trkpt><trkpt lat="43.56818011401865" lon="1.5227663139006187"><ele>149.75</ele><time>2026-03-22T08:08:29Z</time></trkpt><trkpt lat="43.568159562392054" lon="1.5229480565642597"><ele>150.5</ele><time>2026-03-22T08:08:30Z</time></trkpt><trkpt lat="43.56812477952708" lon="1.5231209325277717"><ele>151.25</ele><time>2026-03-22T08:08:31Z</time></trkpt><trkpt lat="43.56809825363985" lon="1.5232934885536427"><ele>152.0</ele><time>2026-03-22T08:08:32Z</time></trkpt><trkpt lat="43.56806038983197" lon="1.5234870036708348"><ele>152.0</ele><time>2026-03-22T08:08:33Z</time></trkpt><trkpt lat="43.56802086106401" lon="1.52369500660528"><ele>152.0</ele><time>2026-03-22T08:08:34Z</time></trkpt><trkpt lat="43.56797766304319" lon="1.5239148052710072"><ele>152.0</ele><time>2026-03-22T08:08:35Z</time></trkpt><trkpt lat="43.56792969672979" lon="1.5241421042274061"><ele>152.66666666666666</ele><time>2026-03-22T08:08:36Z</time></trkpt><trkpt lat="43.56789443586554" lon="1.5243575721078646"><ele>153.33333333333334</ele><time>2026-03-22T08:08:37Z</time></trkpt><trkpt lat="43.567860037955164" lon="1.5245688621895155"><ele>154.0</ele><time>2026-03-22T08:08:38Z</time></trkpt><trkpt lat="43.56782942455305" lon="1.5247789840656871"><ele>153.33333333333334</ele><time>2026-03-22T08:08:39Z</time></trkpt><trkpt lat="43.56781817615951" lon="1.5249914694349644"><ele>152.66666666666666</ele><time>2026-03-22T08:08:40Z</time></trkpt><trkpt lat="43.56781252699685" lon="1.5252105807844951"><ele>152.0</ele><time>2026-03-22T08:08:41Z</time></trkpt><trkpt lat="43.567821510247384" lon="1.5254353129498897"><ele>152.0</ele><time>2026-03-22T08:08:42Z</time></trkpt><trkpt lat="43.56784462193337" lon="1.5256596388706354"><ele>152.0</ele><time>2026-03-22T08:08:43Z</time></trkpt><trkpt lat="43.56786393982148" lon="1.5258916935369407"><ele>152.0</ele><time>2026-03-22T08:08:44Z</time></trkpt><trkpt lat="43.56787318597135" lon="1.5260976854713035"><ele>152.25</ele><time>2026-03-22T08:08:45Z</time></trkpt><trkpt lat="43.56786251445685" lon="1.5262802497849897"><ele>152.5</ele><time>2026-03-22T08:08:46Z</time></trkpt><trkpt lat="43.56785412031814" lon="1.5264493890022597"><ele>152.75</ele><time>2026-03-22T08:08:47Z</time></trkpt><trkpt lat="43.567827170665296" lon="1.526628424778707"><ele>153.0</ele><time>2026-03-22T08:08:48Z</time></trkpt><trkpt lat="43.56777630771642" lon="1.5268261277494861"><ele>153.0</ele><time>2026-03-22T08:08:49Z</time></trkpt><trkpt lat="43.5677161566554" lon="1.5270310560935683"><ele>153.0</ele><time>2026-03-22T08:08:50Z</time></trkpt><trkpt lat="43.567659758682524" lon="1.527249823409714"><ele>153.0</ele><time>2026-03-22T08:08:51Z</time></trkpt><trkpt lat="43.56760168763341" lon="1.5274735490170124"><ele>153.33333333333334</ele><time>2026-03-22T08:08:52Z</time></trkpt><trkpt lat="43.56755082907407" lon="1.527706552248485"><ele>153.66666666666669</ele><time>2026-03-22T08:08:53Z</time></trkpt><trkpt lat="43.56750621123458" lon="1.5279523845829903"><ele>154.0</ele><time>2026-03-22T08:08:54Z</time></trkpt><trkpt lat="43.56749734711723" lon="1.528200970356514"><ele>154.66666666666669</ele><time>2026-03-22T08:08:55Z</time></trkpt><trkpt lat="43.56750340758932" lon="1.5284600037987486"><ele>155.33333333333334</ele><time>2026-03-22T08:08:56Z</time></trkpt><trkpt lat="43.56751733748437" lon="1.5287267154261854"><ele>156.0</ele><time>2026-03-22T08:08:57Z</time></trkpt><trkpt lat="43.567519263651" lon="1.5289824170264639"><ele>157.33333333333334</ele><time>2026-03-22T08:08:58Z</time></trkpt><trkpt lat="43.56752609213222" lon="1.5292144081534738"><ele>158.66666666666669</ele><time>2026-03-22T08:08:59Z</time></trkpt><trkpt lat="43.56752301772706" lon="1.529435886742438"><ele>160.0</ele><time>2026-03-22T08:09:00Z</time></trkpt><trkpt lat="43.56752532274363" lon="1.529649186611632"><ele>160.33333333333334</ele><time>2026-03-22T08:09:01Z</time></trkpt><trkpt lat="43.56752980929149" lon="1.529883825445027"><ele>160.66666666666666</ele><time>2026-03-22T08:09:02Z</time></trkpt><trkpt lat="43.56751812057505" lon="1.5301264509134513"><ele>161.0</ele><time>2026-03-22T08:09:03Z</time></trkpt><trkpt lat="43.56749029856049" lon="1.5303592959027346"><ele>162.66666666666666</ele><time>2026-03-22T08:09:03.999Z</time></trkpt><trkpt lat="43.567414559117495" lon="1.5305722688345436"><ele>164.33333333333334</ele><time>2026-03-22T08:09:04.999Z</time></trkpt><trkpt lat="43.567347188121886" lon="1.5308107244834432"><ele>166.0</ele><time>2026-03-22T08:09:05.999Z</time></trkpt><trkpt lat="43.56725302774536" lon="1.5310521891438602"><ele>167.33333333333334</ele><time>2026-03-22T08:09:06.999Z</time></trkpt><trkpt lat="43.56715451865831" lon="1.531288059373185"><ele>168.66666666666666</ele><time>2026-03-22T08:09:07.999Z</time></trkpt><trkpt lat="43.567076418396276" lon="1.5315244216667077"><ele>170.0</ele><time>2026-03-22T08:09:08.999Z</time></trkpt><trkpt lat="43.567016173640454" lon="1.531770064001882"><ele>168.0</ele><time>2026-03-22T08:09:09.999Z</time></trkpt><trkpt lat="43.56695218845016" lon="1.5319986226087245"><ele>166.0</ele><time>2026-03-22T08:09:10.999Z</time></trkpt><trkpt lat="43.56688911974203" lon="1.5322116261584495"><ele>164.0</ele><time>2026-03-22T08:09:11.999Z</time></trkpt><trkpt lat="43.56683772195312" lon="1.5324025396683405"><ele>164.0</ele><time>2026-03-22T08:09:12.999Z</time></trkpt><trkpt lat="43.56679157795441" lon="1.5325592993683537"><ele>164.0</ele><time>2026-03-22T08:09:13.999Z</time></trkpt><trkpt lat="43.56676662766516" lon="1.5327092870403274"><ele>164.0</ele><time>2026-03-22T08:09:14.999Z</time></trkpt><trkpt lat="43.56676098917027" lon="1.5328465123099346"><ele>164.0</ele><time>2026-03-22T08:09:15.999Z</time></trkpt><trkpt lat="43.56677070556433" lon="1.5329918488416845"><ele>164.0</ele><time>2026-03-22T08:09:16.999Z</time></trkpt><trkpt lat="43.5668058065827" lon="1.5331601534631705"><ele>165.0</ele><time>2026-03-22T08:09:17.999Z</time></trkpt><trkpt lat="43.566852974926285" lon="1.5333252355499813"><ele>166.0</ele><time>2026-03-22T08:09:18.999Z</time></trkpt><trkpt lat="43.56691921046352" lon="1.53349268114815"><ele>167.0</ele><time>2026-03-22T08:09:19.999Z</time></trkpt><trkpt lat="43.56698701020552" lon="1.5336778415031245"><ele>168.0</ele><time>2026-03-22T08:09:20.999Z</time></trkpt><trkpt lat="43.56700426255982" lon="1.5338812082010573"><ele>168.0</ele><time>2026-03-22T08:09:21.999Z</time></trkpt><trkpt lat="43.56700880359382" lon="1.5340523072244459"><ele>168.0</ele><time>2026-03-22T08:09:22.999Z</time></trkpt><trkpt lat="43.56698633416748" lon="1.5342327906524231"><ele>168.0</ele><time>2026-03-22T08:09:23.999Z</time></trkpt><trkpt lat="43.56695745856356" lon="1.5344544302929004"><ele>168.0</ele><time>2026-03-22T08:09:24.999Z</time></trkpt><trkpt lat="43.56693815344038" lon="1.534659523993138"><ele>169.25</ele><time>2026-03-22T08:09:25.999Z</time></trkpt><trkpt lat="43.56693257685863" lon="1.534852512983543"><ele>170.5</ele><time>2026-03-22T08:09:26.999Z</time></trkpt><trkpt lat="43.56693482437715" lon="1.5350256375393563"><ele>171.75</ele><time>2026-03-22T08:09:27.999Z</time></trkpt><trkpt lat="43.566934889769044" lon="1.5352006453104514"><ele>173.0</ele><time>2026-03-22T08:09:28.999Z</time></trkpt><trkpt lat="43.566897348040115" lon="1.535364996188022"><ele>174.33333333333331</ele><time>2026-03-22T08:09:29.999Z</time></trkpt><trkpt lat="43.566875446115155" lon="1.5355551245676706"><ele>175.66666666666666</ele><time>2026-03-22T08:09:30.999Z</time></trkpt><trkpt lat="43.56684355493098" lon="1.5357628724008192"><ele>177.0</ele><time>2026-03-22T08:09:31.999Z</time></trkpt><trkpt lat="43.56679965366147" lon="1.5359837890562855"><ele>177.0</ele><time>2026-03-22T08:09:32.999Z</time></trkpt><trkpt lat="43.566781374936234" lon="1.53620353638983"><ele>177.0</ele><time>2026-03-22T08:09:33.999Z</time></trkpt><trkpt lat="43.56680230431691" lon="1.5364327659654358"><ele>177.0</ele><time>2026-03-22T08:09:34.999Z</time></trkpt><trkpt lat="43.566802508770685" lon="1.5366583392307198"><ele>177.0</ele><time>2026-03-22T08:09:35.999Z</time></trkpt><trkpt lat="43.56681664240002" lon="1.536878109255803"><ele>177.0</ele><time>2026-03-22T08:09:36.999Z</time></trkpt><trkpt lat="43.566820647682235" lon="1.537097071444522"><ele>177.0</ele><time>2026-03-22T08:09:37.999Z</time></trkpt><trkpt lat="43.56682578789689" lon="1.5373156310328684"><ele>177.0</ele><time>2026-03-22T08:09:38.999Z</time></trkpt><trkpt lat="43.566836863094785" lon="1.5375142387782486"><ele>177.0</ele><time>2026-03-22T08:09:39.999Z</time></trkpt><trkpt lat="43.566843351351864" lon="1.5376808414918164"><ele>177.0</ele><time>2026-03-22T08:09:40.999Z</time></trkpt><trkpt lat="43.56685121918395" lon="1.5378437036856387"><ele>177.0</ele><time>2026-03-22T08:09:41.999Z</time></trkpt><trkpt lat="43.56686094430859" lon="1.5379895046748184"><ele>176.6</ele><time>2026-03-22T08:09:42.999Z</time></trkpt><trkpt lat="43.56687362110792" lon="1.5381311036664067"><ele>176.2</ele><time>2026-03-22T08:09:43.999Z</time></trkpt><trkpt lat="43.56688521817832" lon="1.5382730309403168"><ele>175.8</ele><time>2026-03-22T08:09:44.999Z</time></trkpt><trkpt lat="43.56690008169928" lon="1.5384059187731365"><ele>175.4</ele><time>2026-03-22T08:09:45.999Z</time></trkpt><trkpt lat="43.56692702129733" lon="1.5385142783884795"><ele>175.0</ele><time>2026-03-22T08:09:46.999Z</time></trkpt><trkpt lat="43.56693826932187" lon="1.5386216019450092"><ele>175.66666666666669</ele><time>2026-03-22T08:09:47.999Z</time></trkpt><trkpt lat="43.566952447443434" lon="1.5387375859059589"><ele>176.33333333333334</ele><time>2026-03-22T08:09:49.999Z</time></trkpt><trkpt lat="43.5669593442468" lon="1.538846673190579"><ele>177.0</ele><time>2026-03-22T08:09:57Z</time></trkpt><trkpt lat="43.56698754105955" lon="1.5389392052578355"><ele>177.66666666666666</ele><time>2026-03-22T08:09:59Z</time></trkpt><trkpt lat="43.567089951706606" lon="1.5389620535320325"><ele>178.33333333333331</ele><time>2026-03-22T08:10:01Z</time></trkpt><trkpt lat="43.567163929136946" lon="1.53894087840551"><ele>179.0</ele><time>2026-03-22T08:10:02Z</time></trkpt><trkpt lat="43.56725841099728" lon="1.5389649498690585"><ele>180.5</ele><time>2026-03-22T08:10:03Z</time></trkpt><trkpt lat="43.567392966199314" lon="1.5390256233922694"><ele>182.0</ele><time>2026-03-22T08:10:04Z</time></trkpt><trkpt lat="43.56752952073344" lon="1.5390845827185624"><ele>183.5</ele><time>2026-03-22T08:10:05Z</time></trkpt><trkpt lat="43.56766010484509" lon="1.5391756949521966"><ele>185.0</ele><time>2026-03-22T08:10:06Z</time></trkpt><trkpt lat="43.56777744026477" lon="1.5392307513164896"><ele>184.5</ele><time>2026-03-22T08:10:07Z</time></trkpt><trkpt lat="43.56790594161325" lon="1.5393128068760127"><ele>184.0</ele><time>2026-03-22T08:10:08Z</time></trkpt><trkpt lat="43.568026154387226" lon="1.5393884753897147"><ele>183.5</ele><time>2026-03-22T08:10:09Z</time></trkpt><trkpt lat="43.56814319171173" lon="1.539469379180258"><ele>183.0</ele><time>2026-03-22T08:10:10Z</time></trkpt><trkpt lat="43.56825526571081" lon="1.5395427929814123"><ele>183.0</ele><time>2026-03-22T08:10:11Z</time></trkpt><trkpt lat="43.56836853773765" lon="1.5396180546792038"><ele>183.0</ele><time>2026-03-22T08:10:12Z</time></trkpt><trkpt lat="43.56847664728594" lon="1.5396825502750096"><ele>183.0</ele><time>2026-03-22T08:10:13Z</time></trkpt><trkpt lat="43.56858220407458" lon="1.5397487548152187"><ele>183.0</ele><time>2026-03-22T08:10:14Z</time></trkpt><trkpt lat="43.56870915899811" lon="1.5398261087582288"><ele>183.0</ele><time>2026-03-22T08:10:15Z</time></trkpt><trkpt lat="43.568854980600285" lon="1.5399196742448926"><ele>183.0</ele><time>2026-03-22T08:10:16Z</time></trkpt><trkpt lat="43.568988821531306" lon="1.5400003999211151"><ele>183.0</ele><time>2026-03-22T08:10:17Z</time></trkpt><trkpt lat="43.569134337654866" lon="1.5400776457990062"><ele>183.0</ele><time>2026-03-22T08:10:18Z</time></trkpt><trkpt lat="43.569278525543695" lon="1.5401603759894043"><ele>183.0</ele><time>2026-03-22T08:10:19Z</time></trkpt><trkpt lat="43.5694218904907" lon="1.5402349108601736"><ele>183.0</ele><time>2026-03-22T08:10:20Z</time></trkpt><trkpt lat="43.56956200558039" lon="1.5403073358563972"><ele>180.75</ele><time>2026-03-22T08:10:21Z</time></trkpt><trkpt lat="43.56969901162512" lon="1.5403769075920397"><ele>178.5</ele><time>2026-03-22T08:10:22Z</time></trkpt><trkpt lat="43.569831106386445" lon="1.540445234198595"><ele>176.25</ele><time>2026-03-22T08:10:23Z</time></trkpt><trkpt lat="43.56995540560182" lon="1.540513710850243"><ele>174.0</ele><time>2026-03-22T08:10:24Z</time></trkpt><trkpt lat="43.57007115019107" lon="1.5405783436581995"><ele>173.79999999999998</ele><time>2026-03-22T08:10:25Z</time></trkpt><trkpt lat="43.57018338009966" lon="1.5406360141356197"><ele>173.6</ele><time>2026-03-22T08:10:26Z</time></trkpt><trkpt lat="43.57029019776321" lon="1.5407014167400561"><ele>173.4</ele><time>2026-03-22T08:10:27Z</time></trkpt><trkpt lat="43.570373691172854" lon="1.5407831066340683"><ele>173.2</ele><time>2026-03-22T08:10:28Z</time></trkpt><trkpt lat="43.57044378912161" lon="1.540896489904827"><ele>173.0</ele><time>2026-03-22T08:10:29Z</time></trkpt><trkpt lat="43.57048469174345" lon="1.5410299617431673"><ele>171.5</ele><time>2026-03-22T08:10:30Z</time></trkpt><trkpt lat="43.570510228627164" lon="1.5411859972925324"><ele>170.0</ele><time>2026-03-22T08:10:31Z</time></trkpt><trkpt lat="43.57051017795876" lon="1.5413434532840158"><ele>168.5</ele><time>2026-03-22T08:10:32Z</time></trkpt><trkpt lat="43.57048401375671" lon="1.5415165971562688"><ele>167.0</ele><time>2026-03-22T08:10:33Z</time></trkpt><trkpt lat="43.57043815587175" lon="1.5417131596215945"><ele>166.66666666666666</ele><time>2026-03-22T08:10:34Z</time></trkpt><trkpt lat="43.570382111779686" lon="1.5419406567080767"><ele>166.33333333333334</ele><time>2026-03-22T08:10:35Z</time></trkpt><trkpt lat="43.570333364145796" lon="1.542160475903583"><ele>166.0</ele><time>2026-03-22T08:10:36Z</time></trkpt><trkpt lat="43.57028275376691" lon="1.5423951041388164"><ele>166.0</ele><time>2026-03-22T08:10:37Z</time></trkpt><trkpt lat="43.57022716105748" lon="1.5426303795459957"><ele>166.0</ele><time>2026-03-22T08:10:38Z</time></trkpt><trkpt lat="43.570174344044545" lon="1.5428744717433198"><ele>166.0</ele><time>2026-03-22T08:10:39Z</time></trkpt><trkpt lat="43.57012163794599" lon="1.5431161869889092"><ele>165.33333333333334</ele><time>2026-03-22T08:10:40Z</time></trkpt><trkpt lat="43.5700743346964" lon="1.5433387321602292"><ele>164.66666666666666</ele><time>2026-03-22T08:10:41Z</time></trkpt><trkpt lat="43.570026457431354" lon="1.5435563507564893"><ele>164.0</ele><time>2026-03-22T08:10:42Z</time></trkpt><trkpt lat="43.56998071038804" lon="1.5437691559013669"><ele>163.0</ele><time>2026-03-22T08:10:43Z</time></trkpt><trkpt lat="43.56993654831888" lon="1.543986950338872"><ele>162.0</ele><time>2026-03-22T08:10:44Z</time></trkpt><trkpt lat="43.569891005812416" lon="1.5442027988688445"><ele>161.0</ele><time>2026-03-22T08:10:45Z</time></trkpt><trkpt lat="43.56984377814308" lon="1.5444228372602955"><ele>160.0</ele><time>2026-03-22T08:10:46Z</time></trkpt><trkpt lat="43.56979420691351" lon="1.5446479296747628"><ele>159.0</ele><time>2026-03-22T08:10:47Z</time></trkpt><trkpt lat="43.56974892472995" lon="1.544867007847124"><ele>158.0</ele><time>2026-03-22T08:10:48Z</time></trkpt><trkpt lat="43.569705720290436" lon="1.5450663886459646"><ele>158.0</ele><time>2026-03-22T08:10:49Z</time></trkpt><trkpt lat="43.569674305557655" lon="1.5452510376043394"><ele>158.0</ele><time>2026-03-22T08:10:50Z</time></trkpt><trkpt lat="43.56964065238018" lon="1.5454186633745668"><ele>158.0</ele><time>2026-03-22T08:10:51Z</time></trkpt><trkpt lat="43.56961430100212" lon="1.5455713099419082"><ele>158.0</ele><time>2026-03-22T08:10:52Z</time></trkpt><trkpt lat="43.56960498144168" lon="1.5457179923225661"><ele>157.75</ele><time>2026-03-22T08:10:53Z</time></trkpt><trkpt lat="43.569633551851084" lon="1.5458738473043476"><ele>157.5</ele><time>2026-03-22T08:10:54Z</time></trkpt><trkpt lat="43.569693977421885" lon="1.5460208439499212"><ele>157.25</ele><time>2026-03-22T08:10:55Z</time></trkpt><trkpt lat="43.569772142538326" lon="1.5461351157281018"><ele>157.0</ele><time>2026-03-22T08:10:56Z</time></trkpt><trkpt lat="43.5698879284285" lon="1.5462463005925653"><ele>157.0</ele><time>2026-03-22T08:10:57Z</time></trkpt><trkpt lat="43.57003224260331" lon="1.5463493982769323"><ele>157.0</ele><time>2026-03-22T08:10:58Z</time></trkpt><trkpt lat="43.57019646541071" lon="1.5464604685639043"><ele>157.0</ele><time>2026-03-22T08:10:59Z</time></trkpt><trkpt lat="43.57038344633039" lon="1.546585167864107"><ele>155.66666666666669</ele><time>2026-03-22T08:11:00Z</time></trkpt><trkpt lat="43.570560827715276" lon="1.546711378001682"><ele>154.33333333333334</ele><time>2026-03-22T08:11:01Z</time></trkpt><trkpt lat="43.57071584627735" lon="1.5468279641117044"><ele>153.0</ele><time>2026-03-22T08:11:02Z</time></trkpt><trkpt lat="43.570877652655625" lon="1.5469458368557107"><ele>153.33333333333334</ele><time>2026-03-22T08:11:03Z</time></trkpt><trkpt lat="43.57104137911176" lon="1.5470653934071303"><ele>153.66666666666669</ele><time>2026-03-22T08:11:04Z</time></trkpt><trkpt lat="43.57119829374712" lon="1.5471794287013676"><ele>154.0</ele><time>2026-03-22T08:11:05Z</time></trkpt><trkpt lat="43.57134610713196" lon="1.5472864629792813"><ele>152.33333333333334</ele><time>2026-03-22T08:11:06Z</time></trkpt><trkpt lat="43.57149496830673" lon="1.5473939153375507"><ele>150.66666666666666</ele><time>2026-03-22T08:11:07Z</time></trkpt><trkpt lat="43.57163803613766" lon="1.5475069091158367"><ele>149.0</ele><time>2026-03-22T08:11:08Z</time></trkpt><trkpt lat="43.5717797042179" lon="1.547619278491954"><ele>149.0</ele><time>2026-03-22T08:11:09Z</time></trkpt><trkpt lat="43.571924692431004" lon="1.5477302969944369"><ele>149.0</ele><time>2026-03-22T08:11:10Z</time></trkpt><trkpt lat="43.572061195943306" lon="1.5478422322785776"><ele>149.0</ele><time>2026-03-22T08:11:11Z</time></trkpt><trkpt lat="43.57218949186555" lon="1.547953959864704"><ele>149.0</ele><time>2026-03-22T08:11:12Z</time></trkpt><trkpt lat="43.57230540837928" lon="1.5480645894752523"><ele>149.0</ele><time>2026-03-22T08:11:12.999Z</time></trkpt><trkpt lat="43.57241421593667" lon="1.548165974549236"><ele>149.0</ele><time>2026-03-22T08:11:13.999Z</time></trkpt><trkpt lat="43.572532431542825" lon="1.548254549301172"><ele>149.0</ele><time>2026-03-22T08:11:14.999Z</time></trkpt><trkpt lat="43.572667639012934" lon="1.548317715759568"><ele>149.0</ele><time>2026-03-22T08:11:15.999Z</time></trkpt><trkpt lat="43.57280991153541" lon="1.5483432479568098"><ele>149.0</ele><time>2026-03-22T08:11:16.999Z</time></trkpt><trkpt lat="43.572964580100155" lon="1.548360088665246"><ele>149.0</ele><time>2026-03-22T08:11:17.999Z</time></trkpt><trkpt lat="43.573115921579515" lon="1.5483637446615657"><ele>148.66666666666666</ele><time>2026-03-22T08:11:18.999Z</time></trkpt><trkpt lat="43.57328445092947" lon="1.5483642069028145"><ele>148.33333333333334</ele><time>2026-03-22T08:11:19.999Z</time></trkpt><trkpt lat="43.573470628177496" lon="1.5483666589681546"><ele>148.0</ele><time>2026-03-22T08:11:20.999Z</time></trkpt><trkpt lat="43.57364884638504" lon="1.5483724521150721"><ele>147.75</ele><time>2026-03-22T08:11:21.999Z</time></trkpt><trkpt lat="43.5737997471639" lon="1.548366746598869"><ele>147.5</ele><time>2026-03-22T08:11:22.999Z</time></trkpt><trkpt lat="43.573949379720986" lon="1.5483569548551048"><ele>147.25</ele><time>2026-03-22T08:11:23.999Z</time></trkpt><trkpt lat="43.57408730032916" lon="1.5483503183679796"><ele>147.0</ele><time>2026-03-22T08:11:24.999Z</time></trkpt><trkpt lat="43.574211488704975" lon="1.548344362181262"><ele>147.0</ele><time>2026-03-22T08:11:25.999Z</time></trkpt><trkpt lat="43.5743284106772" lon="1.5483445671957732"><ele>147.0</ele><time>2026-03-22T08:11:26.999Z</time></trkpt><trkpt lat="43.574432071545814" lon="1.5483687600997929"><ele>147.0</ele><time>2026-03-22T08:11:27.999Z</time></trkpt><trkpt lat="43.57454250681749" lon="1.5484238515429078"><ele>147.0</ele><time>2026-03-22T08:11:28.999Z</time></trkpt><trkpt lat="43.574651349620886" lon="1.5485050521861639"><ele>147.0</ele><time>2026-03-22T08:11:29.999Z</time></trkpt><trkpt lat="43.5747704476291" lon="1.5486128936064056"><ele>147.0</ele><time>2026-03-22T08:11:30.999Z</time></trkpt><trkpt lat="43.57490631104414" lon="1.5487082543417992"><ele>147.0</ele><time>2026-03-22T08:11:31.999Z</time></trkpt><trkpt lat="43.57506630827425" lon="1.5488240696699045"><ele>147.0</ele><time>2026-03-22T08:11:32.999Z</time></trkpt><trkpt lat="43.57522028783185" lon="1.5489451918770725"><ele>147.0</ele><time>2026-03-22T08:11:33.999Z</time></trkpt><trkpt lat="43.575359065653196" lon="1.5490542727188052"><ele>147.0</ele><time>2026-03-22T08:11:34.999Z</time></trkpt><trkpt lat="43.57548947540079" lon="1.5491550895869328"><ele>147.5</ele><time>2026-03-22T08:11:35.999Z</time></trkpt><trkpt lat="43.57561623063381" lon="1.549259023804782"><ele>148.0</ele><time>2026-03-22T08:11:36.999Z</time></trkpt><trkpt lat="43.57574165087236" lon="1.5493660599532542"><ele>148.5</ele><time>2026-03-22T08:11:37.999Z</time></trkpt><trkpt lat="43.575870836589104" lon="1.5494817762526578"><ele>149.0</ele><time>2026-03-22T08:11:38.999Z</time></trkpt><trkpt lat="43.575994985536646" lon="1.5496017076084552"><ele>149.75</ele><time>2026-03-22T08:11:39.999Z</time></trkpt><trkpt lat="43.57610362219273" lon="1.549701396639674"><ele>150.5</ele><time>2026-03-22T08:11:40.999Z</time></trkpt><trkpt lat="43.5762031900574" lon="1.549791446856116"><ele>151.25</ele><time>2026-03-22T08:11:41.999Z</time></trkpt><trkpt lat="43.576297433894666" lon="1.5498709493920635"><ele>152.0</ele><time>2026-03-22T08:11:42.999Z</time></trkpt><trkpt lat="43.57638114696792" lon="1.549938309057335"><ele>152.33333333333331</ele><time>2026-03-22T08:11:43.999Z</time></trkpt><trkpt lat="43.576451363250136" lon="1.5499951452241683"><ele>152.66666666666666</ele><time>2026-03-22T08:11:44.999Z</time></trkpt><trkpt lat="43.576509893876086" lon="1.5500436805838282"><ele>153.0</ele><time>2026-03-22T08:11:45.999Z</time></trkpt><trkpt lat="43.57657691250731" lon="1.550083497055671"><ele>153.33333333333334</ele><time>2026-03-22T08:11:47.999Z</time></trkpt><trkpt lat="43.57662688456267" lon="1.5501392443180444"><ele>153.66666666666669</ele><time>2026-03-22T08:11:49.999Z</time></trkpt><trkpt lat="43.57669188258512" lon="1.5502618484914124"><ele>154.0</ele><time>2026-03-22T08:11:51.999Z</time></trkpt><trkpt lat="43.57673083129809" lon="1.5503685385708321"><ele>154.4</ele><time>2026-03-22T08:11:52.999Z</time></trkpt><trkpt lat="43.576708906277005" lon="1.5505031661885746"><ele>154.8</ele><time>2026-03-22T08:11:53.999Z</time></trkpt><trkpt lat="43.576677642855444" lon="1.5506192955970584"><ele>155.2</ele><time>2026-03-22T08:11:54.999Z</time></trkpt><trkpt lat="43.576627137459944" lon="1.5507270857846631"><ele>155.6</ele><time>2026-03-22T08:11:55.999Z</time></trkpt><trkpt lat="43.576584070117114" lon="1.5508468000240205"><ele>156.0</ele><time>2026-03-22T08:11:56.999Z</time></trkpt><trkpt lat="43.57654035470329" lon="1.5509886090595175"><ele>156.0</ele><time>2026-03-22T08:11:57.999Z</time></trkpt><trkpt lat="43.576495007113564" lon="1.5511312777310662"><ele>156.0</ele><time>2026-03-22T08:11:58.999Z</time></trkpt><trkpt lat="43.57644324899326" lon="1.551286232610372"><ele>156.0</ele><time>2026-03-22T08:11:59.999Z</time></trkpt><trkpt lat="43.576396016070895" lon="1.5514383784008505"><ele>156.0</ele><time>2026-03-22T08:12:01Z</time></trkpt><trkpt lat="43.57636153500711" lon="1.5515736577108379"><ele>155.83333333333334</ele><time>2026-03-22T08:12:02Z</time></trkpt><trkpt lat="43.576338524237144" lon="1.5516925016241239"><ele>155.66666666666666</ele><time>2026-03-22T08:12:03Z</time></trkpt><trkpt lat="43.57630972862367" lon="1.5518148249027093"><ele>155.5</ele><time>2026-03-22T08:12:04Z</time></trkpt><trkpt lat="43.57626621457704" lon="1.5519371288213548"><ele>155.33333333333331</ele><time>2026-03-22T08:12:05Z</time></trkpt><trkpt lat="43.576238302692715" lon="1.5520519698177366"><ele>155.16666666666666</ele><time>2026-03-22T08:12:06Z</time></trkpt><trkpt lat="43.57621616415263" lon="1.5521515844333005"><ele>155.0</ele><time>2026-03-22T08:12:07Z</time></trkpt><trkpt lat="43.57619749994387" lon="1.5522366874453608"><ele>154.4</ele><time>2026-03-22T08:12:08Z</time></trkpt><trkpt lat="43.57617268802071" lon="1.552337592272946"><ele>153.8</ele><time>2026-03-22T08:12:09Z</time></trkpt><trkpt lat="43.57615871802365" lon="1.552466260683543"><ele>153.2</ele><time>2026-03-22T08:12:10Z</time></trkpt><trkpt lat="43.57613745643716" lon="1.5525969479277133"><ele>152.6</ele><time>2026-03-22T08:12:11Z</time></trkpt><trkpt lat="43.5761114825777" lon="1.552728108019231"><ele>152.0</ele><time>2026-03-22T08:12:12Z</time></trkpt><trkpt lat="43.576087354436154" lon="1.5528488186883338"><ele>152.2</ele><time>2026-03-22T08:12:13Z</time></trkpt><trkpt lat="43.57606114855827" lon="1.5529643099712447"><ele>152.39999999999998</ele><time>2026-03-22T08:12:14Z</time></trkpt><trkpt lat="43.5760286503406" lon="1.553086239586699"><ele>152.60000000000002</ele><time>2026-03-22T08:12:15Z</time></trkpt><trkpt lat="43.575998006063635" lon="1.553201912781013"><ele>152.8</ele><time>2026-03-22T08:12:16Z</time></trkpt><trkpt lat="43.5759490756116" lon="1.5533280961442548"><ele>153.0</ele><time>2026-03-22T08:12:17Z</time></trkpt><trkpt lat="43.575899681589654" lon="1.5534652750657738"><ele>153.0</ele><time>2026-03-22T08:12:18Z</time></trkpt><trkpt lat="43.57584430345519" lon="1.5536177147544896"><ele>153.0</ele><time>2026-03-22T08:12:19Z</time></trkpt><trkpt lat="43.57578330315023" lon="1.55378129526417"><ele>153.0</ele><time>2026-03-22T08:12:20Z</time></trkpt><trkpt lat="43.57571029720762" lon="1.553960280559564"><ele>153.0</ele><time>2026-03-22T08:12:21Z</time></trkpt><trkpt lat="43.57562159637251" lon="1.5541696990697205"><ele>152.66666666666666</ele><time>2026-03-22T08:12:22Z</time></trkpt><trkpt lat="43.57552898202866" lon="1.554378425806821"><ele>152.33333333333331</ele><time>2026-03-22T08:12:23Z</time></trkpt><trkpt lat="43.575442317483684" lon="1.5545594147717379"><ele>152.0</ele><time>2026-03-22T08:12:24Z</time></trkpt><trkpt lat="43.575352820556226" lon="1.5547405645052128"><ele>152.0</ele><time>2026-03-22T08:12:25Z</time></trkpt><trkpt lat="43.57526249681331" lon="1.5549199975515442"><ele>152.0</ele><time>2026-03-22T08:12:26Z</time></trkpt><trkpt lat="43.57516911599732" lon="1.555103668672882"><ele>152.0</ele><time>2026-03-22T08:12:27Z</time></trkpt><trkpt lat="43.575072769448724" lon="1.5552918356915593"><ele>153.33333333333331</ele><time>2026-03-22T08:12:28Z</time></trkpt><trkpt lat="43.57497823777568" lon="1.5554862864837136"><ele>154.66666666666666</ele><time>2026-03-22T08:12:29Z</time></trkpt><trkpt lat="43.57487970830081" lon="1.5556907143847258"><ele>156.0</ele><time>2026-03-22T08:12:30Z</time></trkpt><trkpt lat="43.57477689727982" lon="1.5559029370514819"><ele>156.0</ele><time>2026-03-22T08:12:31Z</time></trkpt><trkpt lat="43.57467606044759" lon="1.5561219537918387"><ele>156.0</ele><time>2026-03-22T08:12:32Z</time></trkpt><trkpt lat="43.57457698528355" lon="1.5563503053222125"><ele>156.0</ele><time>2026-03-22T08:12:33Z</time></trkpt><trkpt lat="43.57448076796301" lon="1.5565720470408966"><ele>156.33333333333334</ele><time>2026-03-22T08:12:34Z</time></trkpt><trkpt lat="43.57437461028224" lon="1.556823308769361"><ele>156.66666666666669</ele><time>2026-03-22T08:12:35Z</time></trkpt><trkpt lat="43.57427498836681" lon="1.5570716138295104"><ele>157.0</ele><time>2026-03-22T08:12:36Z</time></trkpt><trkpt lat="43.574176650655176" lon="1.557318289572121"><ele>157.0</ele><time>2026-03-22T08:12:37Z</time></trkpt><trkpt lat="43.57408154368747" lon="1.5575729938149425"><ele>157.0</ele><time>2026-03-22T08:12:38Z</time></trkpt><trkpt lat="43.57398952749104" lon="1.5578147564052551"><ele>157.0</ele><time>2026-03-22T08:12:39Z</time></trkpt><trkpt lat="43.57389302148865" lon="1.558048779001587"><ele>157.0</ele><time>2026-03-22T08:12:40Z</time></trkpt><trkpt lat="43.57379923731054" lon="1.5582775254523478"><ele>157.0</ele><time>2026-03-22T08:12:41Z</time></trkpt><trkpt lat="43.573701263007806" lon="1.5585032653581004"><ele>157.0</ele><time>2026-03-22T08:12:42Z</time></trkpt><trkpt lat="43.57360209394304" lon="1.558735146298581"><ele>156.66666666666669</ele><time>2026-03-22T08:12:43Z</time></trkpt><trkpt lat="43.57350362396889" lon="1.5589646626829317"><ele>156.33333333333334</ele><time>2026-03-22T08:12:44Z</time></trkpt><trkpt lat="43.573401323651616" lon="1.559206072220225"><ele>156.0</ele><time>2026-03-22T08:12:45Z</time></trkpt><trkpt lat="43.57329783529907" lon="1.5594492095113275"><ele>157.0</ele><time>2026-03-22T08:12:46Z</time></trkpt><trkpt lat="43.5731964960228" lon="1.5596923766295405"><ele>158.0</ele><time>2026-03-22T08:12:47Z</time></trkpt><trkpt lat="43.57310140968656" lon="1.5599399853885958"><ele>159.0</ele><time>2026-03-22T08:12:48Z</time></trkpt><trkpt lat="43.573011854936375" lon="1.5601986054883958"><ele>159.33333333333334</ele><time>2026-03-22T08:12:49Z</time></trkpt><trkpt lat="43.572932251083486" lon="1.5604619185125619"><ele>159.66666666666669</ele><time>2026-03-22T08:12:50Z</time></trkpt><trkpt lat="43.57286358794175" lon="1.5607304600583016"><ele>160.0</ele><time>2026-03-22T08:12:51Z</time></trkpt><trkpt lat="43.57279843546789" lon="1.5609982001438676"><ele>158.66666666666669</ele><time>2026-03-22T08:12:52Z</time></trkpt><trkpt lat="43.57273020610417" lon="1.5612661611716794"><ele>157.33333333333334</ele><time>2026-03-22T08:12:53Z</time></trkpt><trkpt lat="43.572657927620476" lon="1.5615361671140964"><ele>156.0</ele><time>2026-03-22T08:12:54Z</time></trkpt><trkpt lat="43.57258738935022" lon="1.5618037083247216"><ele>157.33333333333334</ele><time>2026-03-22T08:12:55Z</time></trkpt><trkpt lat="43.572519184834995" lon="1.5620599850270172"><ele>158.66666666666669</ele><time>2026-03-22T08:12:56Z</time></trkpt><trkpt lat="43.57244858001301" lon="1.5622976740176309"><ele>160.0</ele><time>2026-03-22T08:12:57Z</time></trkpt><trkpt lat="43.57236714850039" lon="1.562539638737687"><ele>160.0</ele><time>2026-03-22T08:12:58Z</time></trkpt><trkpt lat="43.57226490500654" lon="1.5628021611336236"><ele>160.0</ele><time>2026-03-22T08:12:59Z</time></trkpt><trkpt lat="43.57215208876597" lon="1.5630703880284957"><ele>160.0</ele><time>2026-03-22T08:13:00Z</time></trkpt><trkpt lat="43.57204661206896" lon="1.563327916600157"><ele>159.33333333333334</ele><time>2026-03-22T08:13:01Z</time></trkpt><trkpt lat="43.57194373598199" lon="1.5635854547445607"><ele>158.66666666666666</ele><time>2026-03-22T08:13:02Z</time></trkpt><trkpt lat="43.57184624235592" lon="1.5638312619983634"><ele>158.0</ele><time>2026-03-22T08:13:03Z</time></trkpt><trkpt lat="43.57175337063233" lon="1.5640787849701008"><ele>158.0</ele><time>2026-03-22T08:13:04Z</time></trkpt><trkpt lat="43.57166397242338" lon="1.5643209502711373"><ele>158.0</ele><time>2026-03-22T08:13:05Z</time></trkpt><trkpt lat="43.571576808608576" lon="1.564564721890619"><ele>158.0</ele><time>2026-03-22T08:13:06Z</time></trkpt><trkpt lat="43.57147940075883" lon="1.5648090677876725"><ele>157.66666666666666</ele><time>2026-03-22T08:13:07Z</time></trkpt><trkpt lat="43.571372127860556" lon="1.5650532478198744"><ele>157.33333333333334</ele><time>2026-03-22T08:13:08Z</time></trkpt><trkpt lat="43.571250931769725" lon="1.5653012750633535"><ele>157.0</ele><time>2026-03-22T08:13:09Z</time></trkpt><trkpt lat="43.5711237929028" lon="1.5655559159843278"><ele>157.0</ele><time>2026-03-22T08:13:10Z</time></trkpt><trkpt lat="43.57099282210769" lon="1.565811572821736"><ele>157.0</ele><time>2026-03-22T08:13:11Z</time></trkpt><trkpt lat="43.570867720749774" lon="1.5660639144399815"><ele>157.0</ele><time>2026-03-22T08:13:12Z</time></trkpt><trkpt lat="43.5707391678588" lon="1.5663168058143897"><ele>157.0</ele><time>2026-03-22T08:13:13Z</time></trkpt><trkpt lat="43.57061336506944" lon="1.566570248440098"><ele>157.0</ele><time>2026-03-22T08:13:14Z</time></trkpt><trkpt lat="43.57048967881646" lon="1.5668230495632227"><ele>157.0</ele><time>2026-03-22T08:13:15Z</time></trkpt><trkpt lat="43.57037006328827" lon="1.5670799027456335"><ele>155.66666666666669</ele><time>2026-03-22T08:13:16Z</time></trkpt><trkpt lat="43.57025494295072" lon="1.5673425979867128"><ele>154.33333333333334</ele><time>2026-03-22T08:13:17Z</time></trkpt><trkpt lat="43.57015171453996" lon="1.5676156218227304"><ele>153.0</ele><time>2026-03-22T08:13:18Z</time></trkpt><trkpt lat="43.570055055982145" lon="1.5679009520496143"><ele>153.0</ele><time>2026-03-22T08:13:19Z</time></trkpt><trkpt lat="43.56996699851341" lon="1.5681954950834698"><ele>153.0</ele><time>2026-03-22T08:13:20Z</time></trkpt><trkpt lat="43.569884143285" lon="1.5684882966020732"><ele>153.33333333333334</ele><time>2026-03-22T08:13:21Z</time></trkpt><trkpt lat="43.569811381134194" lon="1.5687758802042062"><ele>153.66666666666669</ele><time>2026-03-22T08:13:22Z</time></trkpt><trkpt lat="43.56974273895396" lon="1.5690514951314622"><ele>154.0</ele><time>2026-03-22T08:13:23Z</time></trkpt><trkpt lat="43.5696744393568" lon="1.5693224687719982"><ele>154.33333333333334</ele><time>2026-03-22T08:13:24Z</time></trkpt><trkpt lat="43.569608573008935" lon="1.5695866654841626"><ele>154.66666666666666</ele><time>2026-03-22T08:13:25Z</time></trkpt><trkpt lat="43.56955343263367" lon="1.5698551012727497"><ele>155.0</ele><time>2026-03-22T08:13:26Z</time></trkpt><trkpt lat="43.569497243835606" lon="1.5701239817187507"><ele>154.33333333333331</ele><time>2026-03-22T08:13:27Z</time></trkpt><trkpt lat="43.56943069689732" lon="1.5703884394116816"><ele>153.66666666666666</ele><time>2026-03-22T08:13:27.999Z</time></trkpt><trkpt lat="43.569353016262355" lon="1.5706423535074068"><ele>153.0</ele><time>2026-03-22T08:13:28.999Z</time></trkpt><trkpt lat="43.569260776196415" lon="1.5708992281303849"><ele>153.0</ele><time>2026-03-22T08:13:29.999Z</time></trkpt><trkpt lat="43.56916172278551" lon="1.5711658279845455"><ele>153.0</ele><time>2026-03-22T08:13:30.999Z</time></trkpt><trkpt lat="43.56905943986296" lon="1.5714325238926146"><ele>153.0</ele><time>2026-03-22T08:13:31.999Z</time></trkpt><trkpt lat="43.56895263650799" lon="1.5716960420502746"><ele>154.0</ele><time>2026-03-22T08:13:32.999Z</time></trkpt><trkpt lat="43.568840654068076" lon="1.5719573630765271"><ele>155.0</ele><time>2026-03-22T08:13:33.999Z</time></trkpt><trkpt lat="43.56872359285948" lon="1.5722175791762918"><ele>156.0</ele><time>2026-03-22T08:13:34.999Z</time></trkpt><trkpt lat="43.568595715407916" lon="1.5724694027513504"><ele>156.0</ele><time>2026-03-22T08:13:35.999Z</time></trkpt><trkpt lat="43.56845503506581" lon="1.5727121712659744"><ele>156.0</ele><time>2026-03-22T08:13:36.999Z</time></trkpt><trkpt lat="43.568301255281476" lon="1.572939613031841"><ele>157.5</ele><time>2026-03-22T08:13:37.999Z</time></trkpt><trkpt lat="43.568133679273316" lon="1.5731516682649367"><ele>159.0</ele><time>2026-03-22T08:13:38.999Z</time></trkpt><trkpt lat="43.56795922689461" lon="1.573361550224861"><ele>157.0</ele><time>2026-03-22T08:13:39.999Z</time></trkpt><trkpt lat="43.567786950115135" lon="1.5735793736552774"><ele>155.0</ele><time>2026-03-22T08:13:40.999Z</time></trkpt><trkpt lat="43.567621286899595" lon="1.57378899964346"><ele>155.0</ele><time>2026-03-22T08:13:41.999Z</time></trkpt><trkpt lat="43.56746073434891" lon="1.5739903674598918"><ele>155.0</ele><time>2026-03-22T08:13:42.999Z</time></trkpt><trkpt lat="43.56729997005999" lon="1.574189732745671"><ele>155.0</ele><time>2026-03-22T08:13:43.999Z</time></trkpt><trkpt lat="43.56714157379378" lon="1.5743846473869068"><ele>155.33333333333331</ele><time>2026-03-22T08:13:44.999Z</time></trkpt><trkpt lat="43.56698161340373" lon="1.574585921373873"><ele>155.66666666666666</ele><time>2026-03-22T08:13:45.999Z</time></trkpt><trkpt lat="43.56682346975429" lon="1.574799103195268"><ele>156.0</ele><time>2026-03-22T08:13:46.999Z</time></trkpt><trkpt lat="43.56667327342727" lon="1.5750175621405926"><ele>156.0</ele><time>2026-03-22T08:13:47.999Z</time></trkpt><trkpt lat="43.566525062605045" lon="1.5752502167765634"><ele>156.0</ele><time>2026-03-22T08:13:48.999Z</time></trkpt><trkpt lat="43.56638851922759" lon="1.575494597869135"><ele>156.0</ele><time>2026-03-22T08:13:49.999Z</time></trkpt><trkpt lat="43.56628239624315" lon="1.5757391411818142"><ele>155.5</ele><time>2026-03-22T08:13:50.999Z</time></trkpt><trkpt lat="43.566177767960276" lon="1.5760232593486918"><ele>155.0</ele><time>2026-03-22T08:13:51.999Z</time></trkpt><trkpt lat="43.56606742298822" lon="1.576328749928674"><ele>155.0</ele><time>2026-03-22T08:13:52.999Z</time></trkpt><trkpt lat="43.56595851702438" lon="1.5766303236039967"><ele>155.0</ele><time>2026-03-22T08:13:53.999Z</time></trkpt><trkpt lat="43.565856021295" lon="1.5769167623501774"><ele>156.5</ele><time>2026-03-22T08:13:54.999Z</time></trkpt><trkpt lat="43.565755023458536" lon="1.577201492237524"><ele>158.0</ele><time>2026-03-22T08:13:55.999Z</time></trkpt><trkpt lat="43.565655954624134" lon="1.5774835762352384"><ele>158.0</ele><time>2026-03-22T08:13:56.999Z</time></trkpt><trkpt lat="43.565556532405594" lon="1.5777700913228039"><ele>158.0</ele><time>2026-03-22T08:13:57.999Z</time></trkpt><trkpt lat="43.5654555495323" lon="1.5780588657745456"><ele>157.0</ele><time>2026-03-22T08:13:58.999Z</time></trkpt><trkpt lat="43.56535285572207" lon="1.5783374649694475"><ele>156.0</ele><time>2026-03-22T08:13:59.999Z</time></trkpt><trkpt lat="43.5652438240347" lon="1.5786156750398368"><ele>157.5</ele><time>2026-03-22T08:14:00.999Z</time></trkpt><trkpt lat="43.5651239423918" lon="1.5788859629810452"><ele>159.0</ele><time>2026-03-22T08:14:01.999Z</time></trkpt><trkpt lat="43.564998585187546" lon="1.5791478883883774"><ele>159.0</ele><time>2026-03-22T08:14:02.999Z</time></trkpt><trkpt lat="43.56487418254016" lon="1.579407324118179"><ele>159.0</ele><time>2026-03-22T08:14:03.999Z</time></trkpt><trkpt lat="43.564754438267975" lon="1.5796647609589933"><ele>159.0</ele><time>2026-03-22T08:14:04.999Z</time></trkpt><trkpt lat="43.56463633600278" lon="1.5799176301348974"><ele>158.66666666666666</ele><time>2026-03-22T08:14:05.999Z</time></trkpt><trkpt lat="43.56451645307742" lon="1.5801514600775899"><ele>158.33333333333331</ele><time>2026-03-22T08:14:07Z</time></trkpt><trkpt lat="43.564385215860526" lon="1.580378760827481"><ele>158.0</ele><time>2026-03-22T08:14:08Z</time></trkpt><trkpt lat="43.564232648517745" lon="1.5805939928875838"><ele>158.0</ele><time>2026-03-22T08:14:09Z</time></trkpt><trkpt lat="43.56406903496378" lon="1.580789039799632"><ele>158.0</ele><time>2026-03-22T08:14:10Z</time></trkpt><trkpt lat="43.5639016835412" lon="1.5809729728790154"><ele>158.0</ele><time>2026-03-22T08:14:11Z</time></trkpt><trkpt lat="43.56374512544737" lon="1.5811591130435623"><ele>157.33333333333331</ele><time>2026-03-22T08:14:12Z</time></trkpt><trkpt lat="43.56359918639652" lon="1.5813639160458572"><ele>156.66666666666666</ele><time>2026-03-22T08:14:13Z</time></trkpt><trkpt lat="43.56346551335355" lon="1.5815851749405934"><ele>156.0</ele><time>2026-03-22T08:14:14Z</time></trkpt><trkpt lat="43.563336360653686" lon="1.5818177164513054"><ele>156.33333333333334</ele><time>2026-03-22T08:14:15Z</time></trkpt><trkpt lat="43.5632147867643" lon="1.5820616103444094"><ele>156.66666666666669</ele><time>2026-03-22T08:14:16Z</time></trkpt><trkpt lat="43.56310403407288" lon="1.5823183854010225"><ele>157.0</ele><time>2026-03-22T08:14:17Z</time></trkpt><trkpt lat="43.56300318986786" lon="1.5825883988322498"><ele>157.5</ele><time>2026-03-22T08:14:18Z</time></trkpt><trkpt lat="43.5629034479171" lon="1.582881212915066"><ele>158.0</ele><time>2026-03-22T08:14:19Z</time></trkpt><trkpt lat="43.56279846519969" lon="1.5831831583653575"><ele>158.5</ele><time>2026-03-22T08:14:20Z</time></trkpt><trkpt lat="43.562685129538735" lon="1.5834989523480945"><ele>159.0</ele><time>2026-03-22T08:14:21Z</time></trkpt><trkpt lat="43.5625708339919" lon="1.583816973396283"><ele>159.0</ele><time>2026-03-22T08:14:22Z</time></trkpt><trkpt lat="43.562459113013944" lon="1.5841290485652926"><ele>159.0</ele><time>2026-03-22T08:14:23Z</time></trkpt><trkpt lat="43.56234645057752" lon="1.5844328029754444"><ele>159.0</ele><time>2026-03-22T08:14:24Z</time></trkpt><trkpt lat="43.562235358556045" lon="1.584708166084086"><ele>159.0</ele><time>2026-03-22T08:14:25Z</time></trkpt><trkpt lat="43.56213175288702" lon="1.5849725590455461"><ele>159.0</ele><time>2026-03-22T08:14:26Z</time></trkpt><trkpt lat="43.56203009086757" lon="1.5852257977517374"><ele>158.33333333333334</ele><time>2026-03-22T08:14:27Z</time></trkpt><trkpt lat="43.56193644168122" lon="1.585474403475944"><ele>157.66666666666669</ele><time>2026-03-22T08:14:28Z</time></trkpt><trkpt lat="43.56185754336065" lon="1.5857144007501782"><ele>157.0</ele><time>2026-03-22T08:14:29Z</time></trkpt><trkpt lat="43.56177057943646" lon="1.585962491596987"><ele>158.0</ele><time>2026-03-22T08:14:30Z</time></trkpt><trkpt lat="43.561673877673286" lon="1.5862241608348242"><ele>159.0</ele><time>2026-03-22T08:14:31Z</time></trkpt><trkpt lat="43.56156181086764" lon="1.5865034284169828"><ele>160.0</ele><time>2026-03-22T08:14:32Z</time></trkpt><trkpt lat="43.56144449162068" lon="1.586774668208237"><ele>161.0</ele><time>2026-03-22T08:14:33Z</time></trkpt><trkpt lat="43.56132491319448" lon="1.5870421915138053"><ele>162.0</ele><time>2026-03-22T08:14:34Z</time></trkpt><trkpt lat="43.56120876864804" lon="1.5873083818658587"><ele>161.66666666666666</ele><time>2026-03-22T08:14:35Z</time></trkpt><trkpt lat="43.56109671496583" lon="1.5875684399144496"><ele>161.33333333333331</ele><time>2026-03-22T08:14:36Z</time></trkpt><trkpt lat="43.56098842033458" lon="1.5878181769671877"><ele>161.0</ele><time>2026-03-22T08:14:37Z</time></trkpt><trkpt lat="43.56088235313265" lon="1.588061981048474"><ele>161.0</ele><time>2026-03-22T08:14:38Z</time></trkpt><trkpt lat="43.56077796039783" lon="1.588305077331046"><ele>161.0</ele><time>2026-03-22T08:14:39Z</time></trkpt><trkpt lat="43.56067045747226" lon="1.5885467363745558"><ele>161.0</ele><time>2026-03-22T08:14:40Z</time></trkpt><trkpt lat="43.56056848194381" lon="1.5887815786270028"><ele>162.0</ele><time>2026-03-22T08:14:41Z</time></trkpt><trkpt lat="43.56047301098742" lon="1.5890012691369566"><ele>163.0</ele><time>2026-03-22T08:14:42Z</time></trkpt><trkpt lat="43.560376955569076" lon="1.5892065504282034"><ele>164.0</ele><time>2026-03-22T08:14:43Z</time></trkpt><trkpt lat="43.56028963779465" lon="1.5894000497463627"><ele>162.33333333333331</ele><time>2026-03-22T08:14:44Z</time></trkpt><trkpt lat="43.56020033840981" lon="1.5895945515203966"><ele>160.66666666666666</ele><time>2026-03-22T08:14:45Z</time></trkpt><trkpt lat="43.560105234720076" lon="1.589794025704619"><ele>159.0</ele><time>2026-03-22T08:14:46Z</time></trkpt><trkpt lat="43.56001142872145" lon="1.5900008823216767"><ele>159.0</ele><time>2026-03-22T08:14:47Z</time></trkpt><trkpt lat="43.55991468176014" lon="1.590206631645194"><ele>159.0</ele><time>2026-03-22T08:14:48Z</time></trkpt><trkpt lat="43.55981994343837" lon="1.5904148840818322"><ele>159.0</ele><time>2026-03-22T08:14:49Z</time></trkpt><trkpt lat="43.55972361341011" lon="1.5906296551011558"><ele>158.66666666666666</ele><time>2026-03-22T08:14:50Z</time></trkpt><trkpt lat="43.55962705797176" lon="1.5908476246611618"><ele>158.33333333333331</ele><time>2026-03-22T08:14:51Z</time></trkpt><trkpt lat="43.55953822264642" lon="1.5910531808408432"><ele>158.0</ele><time>2026-03-22T08:14:52Z</time></trkpt><trkpt lat="43.55944602737734" lon="1.5912539672360204"><ele>158.0</ele><time>2026-03-22T08:14:53Z</time></trkpt><trkpt lat="43.55936885050721" lon="1.5914615124790958"><ele>158.0</ele><time>2026-03-22T08:14:54Z</time></trkpt><trkpt lat="43.559302301394276" lon="1.5916748289619829"><ele>158.0</ele><time>2026-03-22T08:14:55Z</time></trkpt><trkpt lat="43.55925115893505" lon="1.5919114846293625"><ele>159.0</ele><time>2026-03-22T08:14:56Z</time></trkpt><trkpt lat="43.55920490618942" lon="1.5921691926733075"><ele>160.0</ele><time>2026-03-22T08:14:57Z</time></trkpt><trkpt lat="43.55917165937385" lon="1.5924270105502227"><ele>161.0</ele><time>2026-03-22T08:14:58Z</time></trkpt><trkpt lat="43.55914694855877" lon="1.5926962959802673"><ele>161.33333333333331</ele><time>2026-03-22T08:14:59Z</time></trkpt><trkpt lat="43.5591216458667" lon="1.592967229846332"><ele>161.66666666666666</ele><time>2026-03-22T08:15:00Z</time></trkpt><trkpt lat="43.559092868558594" lon="1.5932318931602563"><ele>162.0</ele><time>2026-03-22T08:15:01Z</time></trkpt><trkpt lat="43.55906686430083" lon="1.5934917814010199"><ele>161.66666666666666</ele><time>2026-03-22T08:15:02Z</time></trkpt><trkpt lat="43.55904257131741" lon="1.5937390758639864"><ele>161.33333333333331</ele><time>2026-03-22T08:15:03Z</time></trkpt><trkpt lat="43.55902658347304" lon="1.5939723779688433"><ele>161.0</ele><time>2026-03-22T08:15:04Z</time></trkpt><trkpt lat="43.559005151547936" lon="1.5942149924357898"><ele>161.0</ele><time>2026-03-22T08:15:05Z</time></trkpt><trkpt lat="43.55898205126575" lon="1.5944825155218367"><ele>161.0</ele><time>2026-03-22T08:15:06Z</time></trkpt><trkpt lat="43.558948195347696" lon="1.5947629566546584"><ele>161.0</ele><time>2026-03-22T08:15:07Z</time></trkpt><trkpt lat="43.558898681408536" lon="1.5950402609137821"><ele>161.0</ele><time>2026-03-22T08:15:08Z</time></trkpt><trkpt lat="43.55883698463107" lon="1.5953127882003473"><ele>161.0</ele><time>2026-03-22T08:15:09Z</time></trkpt><trkpt lat="43.558758671766064" lon="1.5955788057999758"><ele>161.0</ele><time>2026-03-22T08:15:10Z</time></trkpt><trkpt lat="43.55867162457045" lon="1.595819051165566"><ele>160.66666666666666</ele><time>2026-03-22T08:15:11Z</time></trkpt><trkpt lat="43.55857991407858" lon="1.5960637773605792"><ele>160.33333333333334</ele><time>2026-03-22T08:15:12Z</time></trkpt><trkpt lat="43.55848995494393" lon="1.5962963125782967"><ele>160.0</ele><time>2026-03-22T08:15:13Z</time></trkpt><trkpt lat="43.558393981694486" lon="1.5965188302472735"><ele>160.0</ele><time>2026-03-22T08:15:14Z</time></trkpt><trkpt lat="43.558286439608935" lon="1.596732732893457"><ele>160.0</ele><time>2026-03-22T08:15:15Z</time></trkpt><trkpt lat="43.558163175125294" lon="1.5969421318273702"><ele>160.0</ele><time>2026-03-22T08:15:16Z</time></trkpt><trkpt lat="43.558029413949036" lon="1.597144813459388"><ele>160.0</ele><time>2026-03-22T08:15:17Z</time></trkpt><trkpt lat="43.557898910624836" lon="1.5973591016297752"><ele>160.0</ele><time>2026-03-22T08:15:18Z</time></trkpt><trkpt lat="43.5577645489832" lon="1.5975862175974092"><ele>160.0</ele><time>2026-03-22T08:15:19Z</time></trkpt><trkpt lat="43.557634163188204" lon="1.5978019990264516"><ele>161.0</ele><time>2026-03-22T08:15:20Z</time></trkpt><trkpt lat="43.557504394373076" lon="1.5980075843290762"><ele>162.0</ele><time>2026-03-22T08:15:21Z</time></trkpt><trkpt lat="43.557375350000136" lon="1.5982155841356749"><ele>163.0</ele><time>2026-03-22T08:15:22Z</time></trkpt><trkpt lat="43.557250001996884" lon="1.5984279601818512"><ele>163.0</ele><time>2026-03-22T08:15:23Z</time></trkpt><trkpt lat="43.55712278101537" lon="1.5986470113879117"><ele>163.0</ele><time>2026-03-22T08:15:24Z</time></trkpt><trkpt lat="43.55698442695863" lon="1.5988679637064096"><ele>163.0</ele><time>2026-03-22T08:15:25Z</time></trkpt><trkpt lat="43.55683738773493" lon="1.5990896081915296"><ele>162.66666666666669</ele><time>2026-03-22T08:15:26Z</time></trkpt><trkpt lat="43.55668308684896" lon="1.5993071093650608"><ele>162.33333333333334</ele><time>2026-03-22T08:15:27Z</time></trkpt><trkpt lat="43.5565252682609" lon="1.5995192988738764"><ele>162.0</ele><time>2026-03-22T08:15:28Z</time></trkpt><trkpt lat="43.55637723923205" lon="1.5997204877340059"><ele>162.0</ele><time>2026-03-22T08:15:29Z</time></trkpt><trkpt lat="43.55623702030056" lon="1.5999110879252543"><ele>162.0</ele><time>2026-03-22T08:15:30Z</time></trkpt><trkpt lat="43.55609623496415" lon="1.6001100605269616"><ele>162.0</ele><time>2026-03-22T08:15:31Z</time></trkpt><trkpt lat="43.55596109000787" lon="1.6003088032984514"><ele>162.33333333333334</ele><time>2026-03-22T08:15:32Z</time></trkpt><trkpt lat="43.55583137828632" lon="1.600508935850551"><ele>162.66666666666669</ele><time>2026-03-22T08:15:33Z</time></trkpt><trkpt lat="43.55570213259889" lon="1.6007112240582189"><ele>163.0</ele><time>2026-03-22T08:15:34Z</time></trkpt><trkpt lat="43.55557393600954" lon="1.6009196719666714"><ele>163.0</ele><time>2026-03-22T08:15:35Z</time></trkpt><trkpt lat="43.55544089075263" lon="1.6011346019696058"><ele>163.0</ele><time>2026-03-22T08:15:36Z</time></trkpt><trkpt lat="43.555304465086834" lon="1.6013554119692262"><ele>163.0</ele><time>2026-03-22T08:15:37Z</time></trkpt><trkpt lat="43.555166892169616" lon="1.6015806057123798"><ele>162.66666666666669</ele><time>2026-03-22T08:15:38Z</time></trkpt><trkpt lat="43.555025906364335" lon="1.6018065534550885"><ele>162.33333333333334</ele><time>2026-03-22T08:15:39Z</time></trkpt><trkpt lat="43.55488315743177" lon="1.6020317900792553"><ele>162.0</ele><time>2026-03-22T08:15:40Z</time></trkpt><trkpt lat="43.5547371848899" lon="1.6022610929428007"><ele>162.0</ele><time>2026-03-22T08:15:41Z</time></trkpt><trkpt lat="43.55459335475602" lon="1.6024905092060906"><ele>162.0</ele><time>2026-03-22T08:15:42Z</time></trkpt><trkpt lat="43.55445027536988" lon="1.6027205026131885"><ele>162.0</ele><time>2026-03-22T08:15:43Z</time></trkpt><trkpt lat="43.55430668330251" lon="1.6029542497578702"><ele>162.66666666666666</ele><time>2026-03-22T08:15:44Z</time></trkpt><trkpt lat="43.55416309415591" lon="1.603186366872312"><ele>163.33333333333331</ele><time>2026-03-22T08:15:45Z</time></trkpt><trkpt lat="43.554020160849646" lon="1.6034216772858672"><ele>164.0</ele><time>2026-03-22T08:15:46Z</time></trkpt><trkpt lat="43.553884807793175" lon="1.6036604500180145"><ele>163.0</ele><time>2026-03-22T08:15:47Z</time></trkpt><trkpt lat="43.55374745906522" lon="1.6039003213955352"><ele>162.0</ele><time>2026-03-22T08:15:48Z</time></trkpt><trkpt lat="43.55360614459385" lon="1.6041411614501293"><ele>161.0</ele><time>2026-03-22T08:15:49Z</time></trkpt><trkpt lat="43.55346700036601" lon="1.6043791858393033"><ele>162.0</ele><time>2026-03-22T08:15:50Z</time></trkpt><trkpt lat="43.55332435559991" lon="1.6046182747633075"><ele>163.0</ele><time>2026-03-22T08:15:51Z</time></trkpt><trkpt lat="43.553184025304844" lon="1.6048537977655397"><ele>164.0</ele><time>2026-03-22T08:15:51.999Z</time></trkpt><trkpt lat="43.55304466745303" lon="1.605092389532141"><ele>164.0</ele><time>2026-03-22T08:15:52.999Z</time></trkpt><trkpt lat="43.552905382923484" lon="1.605328071473673"><ele>164.0</ele><time>2026-03-22T08:15:53.999Z</time></trkpt><trkpt lat="43.55276943354089" lon="1.6055610649765402"><ele>164.0</ele><time>2026-03-22T08:15:54.999Z</time></trkpt><trkpt lat="43.55263242164784" lon="1.6057942239602028"><ele>164.33333333333331</ele><time>2026-03-22T08:15:55.999Z</time></trkpt><trkpt lat="43.55249214623295" lon="1.6060294177828376"><ele>164.66666666666666</ele><time>2026-03-22T08:15:56.999Z</time></trkpt><trkpt lat="43.55235312854479" lon="1.6062638661408004"><ele>165.0</ele><time>2026-03-22T08:15:57.999Z</time></trkpt><trkpt lat="43.55221448668232" lon="1.606503032756273"><ele>165.0</ele><time>2026-03-22T08:15:58.999Z</time></trkpt><trkpt lat="43.5520794515102" lon="1.6067439254159905"><ele>165.0</ele><time>2026-03-22T08:15:59.999Z</time></trkpt><trkpt lat="43.55194567271378" lon="1.6069890723612905"><ele>165.0</ele><time>2026-03-22T08:16:00.999Z</time></trkpt><trkpt lat="43.55181643584154" lon="1.6072380544288665"><ele>164.5</ele><time>2026-03-22T08:16:01.999Z</time></trkpt><trkpt lat="43.55168596204063" lon="1.607491943276071"><ele>164.0</ele><time>2026-03-22T08:16:02.999Z</time></trkpt><trkpt lat="43.551559009007065" lon="1.607746654387915"><ele>164.33333333333331</ele><time>2026-03-22T08:16:03.999Z</time></trkpt><trkpt lat="43.55143093577411" lon="1.6080001104462063"><ele>164.66666666666666</ele><time>2026-03-22T08:16:04.999Z</time></trkpt><trkpt lat="43.551303817592164" lon="1.6082508806377638"><ele>165.0</ele><time>2026-03-22T08:16:05.999Z</time></trkpt><trkpt lat="43.551179348454944" lon="1.6085022594540663"><ele>164.0</ele><time>2026-03-22T08:16:06.999Z</time></trkpt><trkpt lat="43.55106353955809" lon="1.6087499528053366"><ele>163.0</ele><time>2026-03-22T08:16:07.999Z</time></trkpt><trkpt lat="43.5509561038927" lon="1.6089980336528857"><ele>162.0</ele><time>2026-03-22T08:16:08.999Z</time></trkpt><trkpt lat="43.55085162839257" lon="1.6092734604320174"><ele>163.66666666666666</ele><time>2026-03-22T08:16:09.999Z</time></trkpt><trkpt lat="43.550750191728504" lon="1.6095513922354838"><ele>165.33333333333331</ele><time>2026-03-22T08:16:10.999Z</time></trkpt><trkpt lat="43.550647279905725" lon="1.6098252543209133"><ele>167.0</ele><time>2026-03-22T08:16:11.999Z</time></trkpt><trkpt lat="43.550546683048715" lon="1.6101016732573243"><ele>168.0</ele><time>2026-03-22T08:16:13Z</time></trkpt><trkpt lat="43.550452050183104" lon="1.6103815961705745"><ele>169.0</ele><time>2026-03-22T08:16:14Z</time></trkpt><trkpt lat="43.5503647170412" lon="1.610663412903219"><ele>170.0</ele><time>2026-03-22T08:16:15Z</time></trkpt><trkpt lat="43.55027974659503" lon="1.6109499625087176"><ele>168.33333333333331</ele><time>2026-03-22T08:16:16Z</time></trkpt><trkpt lat="43.550196420011574" lon="1.611236689227647"><ele>166.66666666666666</ele><time>2026-03-22T08:16:17Z</time></trkpt><trkpt lat="43.5501134493982" lon="1.6115236466888623"><ele>165.0</ele><time>2026-03-22T08:16:18Z</time></trkpt><trkpt lat="43.55003217352476" lon="1.611810766612711"><ele>166.0</ele><time>2026-03-22T08:16:19Z</time></trkpt><trkpt lat="43.54995037489395" lon="1.6120886144513837"><ele>167.0</ele><time>2026-03-22T08:16:20Z</time></trkpt><trkpt lat="43.549864452498966" lon="1.6123571473598493"><ele>168.0</ele><time>2026-03-22T08:16:21Z</time></trkpt><trkpt lat="43.54976978449979" lon="1.6126205517481376"><ele>167.0</ele><time>2026-03-22T08:16:22Z</time></trkpt><trkpt lat="43.54967242340028" lon="1.6128772220234606"><ele>166.0</ele><time>2026-03-22T08:16:23Z</time></trkpt><trkpt lat="43.54956755549076" lon="1.6131317362324613"><ele>165.0</ele><time>2026-03-22T08:16:24Z</time></trkpt><trkpt lat="43.54945850261471" lon="1.613386561633188"><ele>165.0</ele><time>2026-03-22T08:16:25Z</time></trkpt><trkpt lat="43.549347345323135" lon="1.6136441295184545"><ele>165.0</ele><time>2026-03-22T08:16:26Z</time></trkpt><trkpt lat="43.54923543663483" lon="1.6139023669090773"><ele>165.0</ele><time>2026-03-22T08:16:27Z</time></trkpt><trkpt lat="43.549121784657736" lon="1.6141559035762518"><ele>166.33333333333334</ele><time>2026-03-22T08:16:28Z</time></trkpt><trkpt lat="43.54900792580903" lon="1.614402814728429"><ele>167.66666666666669</ele><time>2026-03-22T08:16:29Z</time></trkpt><trkpt lat="43.54889241504993" lon="1.61464949233095"><ele>169.0</ele><time>2026-03-22T08:16:30Z</time></trkpt><trkpt lat="43.54877533095285" lon="1.6148944142494672"><ele>168.0</ele><time>2026-03-22T08:16:31Z</time></trkpt><trkpt lat="43.54865708805395" lon="1.6151410594860276"><ele>167.0</ele><time>2026-03-22T08:16:32Z</time></trkpt><trkpt lat="43.548542080654876" lon="1.6153733586644468"><ele>166.0</ele><time>2026-03-22T08:16:33Z</time></trkpt><trkpt lat="43.54843236398594" lon="1.6156050815527943"><ele>166.0</ele><time>2026-03-22T08:16:34Z</time></trkpt><trkpt lat="43.548334630961676" lon="1.6158420831471645"><ele>166.0</ele><time>2026-03-22T08:16:35Z</time></trkpt><trkpt lat="43.548248559651945" lon="1.6160777484214057"><ele>166.0</ele><time>2026-03-22T08:16:36Z</time></trkpt><trkpt lat="43.54817678670582" lon="1.616324438826009"><ele>166.66666666666669</ele><time>2026-03-22T08:16:37Z</time></trkpt><trkpt lat="43.54811038989344" lon="1.616566006087853"><ele>167.33333333333334</ele><time>2026-03-22T08:16:38Z</time></trkpt><trkpt lat="43.5480534594035" lon="1.616793197533673"><ele>168.0</ele><time>2026-03-22T08:16:39Z</time></trkpt><trkpt lat="43.54800736796211" lon="1.6170133603483436"><ele>168.0</ele><time>2026-03-22T08:16:40Z</time></trkpt><trkpt lat="43.54796422654515" lon="1.617223289135931"><ele>168.0</ele><time>2026-03-22T08:16:41Z</time></trkpt><trkpt lat="43.547926266813185" lon="1.6174216230921057"><ele>168.0</ele><time>2026-03-22T08:16:42Z</time></trkpt><trkpt lat="43.547891851807826" lon="1.6176154945183603"><ele>167.75</ele><time>2026-03-22T08:16:43Z</time></trkpt><trkpt lat="43.54785996430514" lon="1.6177966167584472"><ele>167.5</ele><time>2026-03-22T08:16:44Z</time></trkpt><trkpt lat="43.54783430856108" lon="1.6179574975973894"><ele>167.25</ele><time>2026-03-22T08:16:45Z</time></trkpt><trkpt lat="43.54782174448835" lon="1.618109834485063"><ele>167.0</ele><time>2026-03-22T08:16:46Z</time></trkpt><trkpt lat="43.54781065295316" lon="1.61826029003421"><ele>167.0</ele><time>2026-03-22T08:16:47Z</time></trkpt><trkpt lat="43.54779828495735" lon="1.6183855292347635"><ele>167.0</ele><time>2026-03-22T08:16:48Z</time></trkpt><trkpt lat="43.54778925738568" lon="1.6184918599609996"><ele>167.0</ele><time>2026-03-22T08:16:49Z</time></trkpt><trkpt lat="43.54777507533545" lon="1.6185932751105983"><ele>167.0</ele><time>2026-03-22T08:16:50Z</time></trkpt><trkpt lat="43.54775231389526" lon="1.6187093623889008"><ele>167.0</ele><time>2026-03-22T08:16:51Z</time></trkpt><trkpt lat="43.547693842066934" lon="1.6188221866514785"><ele>167.0</ele><time>2026-03-22T08:16:52Z</time></trkpt><trkpt lat="43.54761138821055" lon="1.6189201471091916"><ele>167.2</ele><time>2026-03-22T08:16:53Z</time></trkpt><trkpt lat="43.54758630791429" lon="1.6190266239740139"><ele>167.39999999999998</ele><time>2026-03-22T08:16:54Z</time></trkpt><trkpt lat="43.54758487849406" lon="1.6191648366566227"><ele>167.60000000000002</ele><time>2026-03-22T08:16:55Z</time></trkpt><trkpt lat="43.54759296711907" lon="1.619323111570461"><ele>167.8</ele><time>2026-03-22T08:16:56Z</time></trkpt><trkpt lat="43.547552811706005" lon="1.6195019675053688"><ele>168.0</ele><time>2026-03-22T08:16:57Z</time></trkpt><trkpt lat="43.54747901687985" lon="1.6197091379816912"><ele>168.75</ele><time>2026-03-22T08:16:58Z</time></trkpt><trkpt lat="43.547401982358075" lon="1.6199105034873555"><ele>169.5</ele><time>2026-03-22T08:16:59Z</time></trkpt><trkpt lat="43.54733815919991" lon="1.6200934951162422"><ele>170.25</ele><time>2026-03-22T08:17:00Z</time></trkpt><trkpt lat="43.54729559565746" lon="1.6202635935526801"><ele>171.0</ele><time>2026-03-22T08:17:01Z</time></trkpt><trkpt lat="43.54725261938826" lon="1.6204178715160324"><ele>171.4</ele><time>2026-03-22T08:17:02Z</time></trkpt><trkpt lat="43.54721155968295" lon="1.620557345085193"><ele>171.8</ele><time>2026-03-22T08:17:03Z</time></trkpt><trkpt lat="43.547165220450424" lon="1.620686083922171"><ele>172.20000000000002</ele><time>2026-03-22T08:17:04Z</time></trkpt><trkpt lat="43.54711321012827" lon="1.6208221512246368"><ele>172.60000000000002</ele><time>2026-03-22T08:17:05Z</time></trkpt><trkpt lat="43.547070201586536" lon="1.6209671429135362"><ele>173.0</ele><time>2026-03-22T08:17:06Z</time></trkpt><trkpt lat="43.547039370040274" lon="1.6211024341961433"><ele>172.2</ele><time>2026-03-22T08:17:07Z</time></trkpt><trkpt lat="43.54700737121129" lon="1.6212159871882084"><ele>171.4</ele><time>2026-03-22T08:17:08Z</time></trkpt><trkpt lat="43.5469737898745" lon="1.6213239504303785"><ele>170.6</ele><time>2026-03-22T08:17:09Z</time></trkpt><trkpt lat="43.54692776961615" lon="1.6214609333430978"><ele>169.79999999999998</ele><time>2026-03-22T08:17:10Z</time></trkpt><trkpt lat="43.54687332300395" lon="1.6216396322408093"><ele>169.0</ele><time>2026-03-22T08:17:11Z</time></trkpt><trkpt lat="43.54681832765169" lon="1.6218605083607613"><ele>169.66666666666669</ele><time>2026-03-22T08:17:12Z</time></trkpt><trkpt lat="43.54675866626805" lon="1.622088849266015"><ele>170.33333333333334</ele><time>2026-03-22T08:17:13Z</time></trkpt><trkpt lat="43.54669270518638" lon="1.622326600600652"><ele>171.0</ele><time>2026-03-22T08:17:14Z</time></trkpt><trkpt lat="43.54662356756827" lon="1.622571872613833"><ele>171.66666666666666</ele><time>2026-03-22T08:17:15Z</time></trkpt><trkpt lat="43.54655103880827" lon="1.6228223685865935"><ele>172.33333333333331</ele><time>2026-03-22T08:17:16Z</time></trkpt><trkpt lat="43.54647622214694" lon="1.6230678578071962"><ele>173.0</ele><time>2026-03-22T08:17:17Z</time></trkpt><trkpt lat="43.54640371396402" lon="1.6233014973614004"><ele>173.0</ele><time>2026-03-22T08:17:18Z</time></trkpt><trkpt lat="43.54633121836367" lon="1.623546396297116"><ele>173.0</ele><time>2026-03-22T08:17:19Z</time></trkpt><trkpt lat="43.54625348894776" lon="1.6238112749916185"><ele>173.0</ele><time>2026-03-22T08:17:20Z</time></trkpt><trkpt lat="43.546168757834344" lon="1.6240781778567075"><ele>171.66666666666666</ele><time>2026-03-22T08:17:21Z</time></trkpt><trkpt lat="43.54609213854592" lon="1.6243395988212481"><ele>170.33333333333334</ele><time>2026-03-22T08:17:22Z</time></trkpt><trkpt lat="43.54601419870026" lon="1.6245897224069181"><ele>169.0</ele><time>2026-03-22T08:17:23Z</time></trkpt><trkpt lat="43.545943876198514" lon="1.624828101523219"><ele>169.0</ele><time>2026-03-22T08:17:24Z</time></trkpt><trkpt lat="43.54587395169843" lon="1.6250835415482416"><ele>169.0</ele><time>2026-03-22T08:17:25Z</time></trkpt><trkpt lat="43.54580031644949" lon="1.6253368712066336"><ele>169.0</ele><time>2026-03-22T08:17:26Z</time></trkpt><trkpt lat="43.545731643616016" lon="1.6255915607830373"><ele>169.33333333333334</ele><time>2026-03-22T08:17:27Z</time></trkpt><trkpt lat="43.545663175341794" lon="1.6258437184253838"><ele>169.66666666666666</ele><time>2026-03-22T08:17:28Z</time></trkpt><trkpt lat="43.5455956191855" lon="1.6260970405195516"><ele>170.0</ele><time>2026-03-22T08:17:29Z</time></trkpt><trkpt lat="43.545527192934685" lon="1.6263477855161073"><ele>170.33333333333331</ele><time>2026-03-22T08:17:30Z</time></trkpt><trkpt lat="43.54546893942705" lon="1.6265992986968043"><ele>170.66666666666666</ele><time>2026-03-22T08:17:31Z</time></trkpt><trkpt lat="43.5454050767025" lon="1.626859429349182"><ele>171.0</ele><time>2026-03-22T08:17:32Z</time></trkpt><trkpt lat="43.545350297686085" lon="1.6271286662376228"><ele>170.0</ele><time>2026-03-22T08:17:33Z</time></trkpt><trkpt lat="43.54530349506945" lon="1.6274049747063277"><ele>169.0</ele><time>2026-03-22T08:17:34Z</time></trkpt><trkpt lat="43.545259730261655" lon="1.627678807201807"><ele>168.0</ele><time>2026-03-22T08:17:35Z</time></trkpt><trkpt lat="43.54521497164264" lon="1.6279590136075812"><ele>167.66666666666666</ele><time>2026-03-22T08:17:36Z</time></trkpt><trkpt lat="43.54516311349936" lon="1.628248005147364"><ele>167.33333333333331</ele><time>2026-03-22T08:17:37Z</time></trkpt><trkpt lat="43.54510477368918" lon="1.6285579969878032"><ele>167.0</ele><time>2026-03-22T08:17:38Z</time></trkpt><trkpt lat="43.54503695175647" lon="1.6288846405394488"><ele>167.0</ele><time>2026-03-22T08:17:39Z</time></trkpt><trkpt lat="43.54497800185984" lon="1.6291979340850857"><ele>167.0</ele><time>2026-03-22T08:17:40Z</time></trkpt><trkpt lat="43.544921543643596" lon="1.6295002955192102"><ele>166.0</ele><time>2026-03-22T08:17:41Z</time></trkpt><trkpt lat="43.544858315519214" lon="1.6298017720047793"><ele>165.0</ele><time>2026-03-22T08:17:42Z</time></trkpt><trkpt lat="43.54480198234776" lon="1.630104290078278"><ele>165.33333333333334</ele><time>2026-03-22T08:17:43Z</time></trkpt><trkpt lat="43.54474593031566" lon="1.630401779943646"><ele>165.66666666666669</ele><time>2026-03-22T08:17:44Z</time></trkpt><trkpt lat="43.54469262257996" lon="1.6307033935446202"><ele>166.0</ele><time>2026-03-22T08:17:45Z</time></trkpt><trkpt lat="43.54463377226385" lon="1.6310013775973295"><ele>165.66666666666669</ele><time>2026-03-22T08:17:46Z</time></trkpt><trkpt lat="43.54457730527097" lon="1.6313002099271026"><ele>165.33333333333334</ele><time>2026-03-22T08:17:47Z</time></trkpt><trkpt lat="43.544522704227646" lon="1.6315984747976313"><ele>165.0</ele><time>2026-03-22T08:17:48Z</time></trkpt><trkpt lat="43.54446619979048" lon="1.6319005574328613"><ele>165.0</ele><time>2026-03-22T08:17:49Z</time></trkpt><trkpt lat="43.54440586669027" lon="1.632209182397939"><ele>165.0</ele><time>2026-03-22T08:17:49.999Z</time></trkpt><trkpt lat="43.544348230833826" lon="1.632524867937613"><ele>164.5</ele><time>2026-03-22T08:17:50.999Z</time></trkpt><trkpt lat="43.54429037093627" lon="1.6328393497134792"><ele>164.0</ele><time>2026-03-22T08:17:51.999Z</time></trkpt><trkpt lat="43.544229590845475" lon="1.633150671023698"><ele>164.0</ele><time>2026-03-22T08:17:52.999Z</time></trkpt><trkpt lat="43.54417026693134" lon="1.6334583346831129"><ele>164.0</ele><time>2026-03-22T08:17:53.999Z</time></trkpt><trkpt lat="43.54410632419168" lon="1.6337681965984459"><ele>165.0</ele><time>2026-03-22T08:17:54.999Z</time></trkpt><trkpt lat="43.54405140792847" lon="1.634074548445057"><ele>166.0</ele><time>2026-03-22T08:17:55.999Z</time></trkpt><trkpt lat="43.54399069973428" lon="1.634377037899628"><ele>167.0</ele><time>2026-03-22T08:17:56.999Z</time></trkpt><trkpt lat="43.54393372530351" lon="1.6346774517944802"><ele>168.0</ele><time>2026-03-22T08:17:57.999Z</time></trkpt><trkpt lat="43.543873474837035" lon="1.6349783941234557"><ele>168.0</ele><time>2026-03-22T08:17:58.999Z</time></trkpt><trkpt lat="43.543816498910374" lon="1.6352748244433912"><ele>168.0</ele><time>2026-03-22T08:17:59.999Z</time></trkpt><trkpt lat="43.54376226939782" lon="1.6355669673150417"><ele>168.0</ele><time>2026-03-22T08:18:00.999Z</time></trkpt><trkpt lat="43.54371050830355" lon="1.6358589200563274"><ele>169.5</ele><time>2026-03-22T08:18:01.999Z</time></trkpt><trkpt lat="43.54365887527515" lon="1.636158020464663"><ele>171.0</ele><time>2026-03-22T08:18:02.999Z</time></trkpt><trkpt lat="43.543594763217506" lon="1.6364753357146917"><ele>171.0</ele><time>2026-03-22T08:18:03.999Z</time></trkpt><trkpt lat="43.54353535735817" lon="1.6367891835944155"><ele>171.0</ele><time>2026-03-22T08:18:04.999Z</time></trkpt><trkpt lat="43.54347837816977" lon="1.6371018447783185"><ele>172.0</ele><time>2026-03-22T08:18:05.999Z</time></trkpt><trkpt lat="43.54342335316049" lon="1.6374095662271335"><ele>173.0</ele><time>2026-03-22T08:18:06.999Z</time></trkpt><trkpt lat="43.543367792850226" lon="1.6377291389136317"><ele>173.0</ele><time>2026-03-22T08:18:07.999Z</time></trkpt><trkpt lat="43.543316220264145" lon="1.6380210942280067"><ele>173.0</ele><time>2026-03-22T08:18:08.999Z</time></trkpt><trkpt lat="43.543265880433445" lon="1.6382971350917552"><ele>173.0</ele><time>2026-03-22T08:18:09.999Z</time></trkpt><trkpt lat="43.543214485904414" lon="1.638553717555787"><ele>173.33333333333331</ele><time>2026-03-22T08:18:10.999Z</time></trkpt><trkpt lat="43.54316654089154" lon="1.6387985165704986"><ele>173.66666666666666</ele><time>2026-03-22T08:18:11.999Z</time></trkpt><trkpt lat="43.543121230072785" lon="1.6390513888185063"><ele>174.0</ele><time>2026-03-22T08:18:12.999Z</time></trkpt><trkpt lat="43.543075206451114" lon="1.6392934362713256"><ele>174.66666666666666</ele><time>2026-03-22T08:18:13.999Z</time></trkpt><trkpt lat="43.54303087657928" lon="1.6395166956008471"><ele>175.33333333333331</ele><time>2026-03-22T08:18:14.999Z</time></trkpt><trkpt lat="43.54299338564121" lon="1.6397208319054475"><ele>176.0</ele><time>2026-03-22T08:18:15.999Z</time></trkpt><trkpt lat="43.54295647763201" lon="1.6399073262385355"><ele>176.0</ele><time>2026-03-22T08:18:16.999Z</time></trkpt><trkpt lat="43.54292131181156" lon="1.6400791338397958"><ele>176.0</ele><time>2026-03-22T08:18:17.999Z</time></trkpt><trkpt lat="43.542891549258826" lon="1.6402346904536484"><ele>176.0</ele><time>2026-03-22T08:18:19Z</time></trkpt><trkpt lat="43.5428604184084" lon="1.6403828068049138"><ele>176.0</ele><time>2026-03-22T08:18:20Z</time></trkpt><trkpt lat="43.54283123873919" lon="1.6405125720551725"><ele>175.4</ele><time>2026-03-22T08:18:21Z</time></trkpt><trkpt lat="43.54279842555211" lon="1.6406298425965653"><ele>174.8</ele><time>2026-03-22T08:18:22Z</time></trkpt><trkpt lat="43.54275820938121" lon="1.6407442341299254"><ele>174.20000000000002</ele><time>2026-03-22T08:18:23Z</time></trkpt><trkpt lat="43.54269307100627" lon="1.6408512313811172"><ele>173.60000000000002</ele><time>2026-03-22T08:18:24Z</time></trkpt><trkpt lat="43.54263014869837" lon="1.640944951011184"><ele>173.0</ele><time>2026-03-22T08:18:25Z</time></trkpt><trkpt lat="43.542612754440626" lon="1.641047720491361"><ele>173.0</ele><time>2026-03-22T08:18:26Z</time></trkpt><trkpt lat="43.54263513137339" lon="1.6411600508680413"><ele>173.0</ele><time>2026-03-22T08:18:27Z</time></trkpt><trkpt lat="43.54265875564644" lon="1.6413203920477912"><ele>173.0</ele><time>2026-03-22T08:18:28Z</time></trkpt><trkpt lat="43.54265214968798" lon="1.6415109736041704"><ele>173.0</ele><time>2026-03-22T08:18:29Z</time></trkpt><trkpt lat="43.542624535958076" lon="1.6417132388991784"><ele>173.0</ele><time>2026-03-22T08:18:30Z</time></trkpt><trkpt lat="43.54258374689582" lon="1.6419263049971582"><ele>173.0</ele><time>2026-03-22T08:18:31Z</time></trkpt><trkpt lat="43.5425202300759" lon="1.642177550018051"><ele>173.0</ele><time>2026-03-22T08:18:32Z</time></trkpt><trkpt lat="43.54244883861534" lon="1.6424283189180593"><ele>174.0</ele><time>2026-03-22T08:18:33Z</time></trkpt><trkpt lat="43.542370641437046" lon="1.6426816991932902"><ele>175.0</ele><time>2026-03-22T08:18:34Z</time></trkpt><trkpt lat="43.5422767360636" lon="1.6429544395959081"><ele>176.0</ele><time>2026-03-22T08:18:35Z</time></trkpt><trkpt lat="43.54218449405933" lon="1.64320985922107"><ele>176.0</ele><time>2026-03-22T08:18:36Z</time></trkpt><trkpt lat="43.54209841310277" lon="1.6434424073643648"><ele>176.0</ele><time>2026-03-22T08:18:37Z</time></trkpt><trkpt lat="43.5420167293948" lon="1.6436603852721465"><ele>176.0</ele><time>2026-03-22T08:18:38Z</time></trkpt><trkpt lat="43.541940267977814" lon="1.6438630873708096"><ele>176.33333333333331</ele><time>2026-03-22T08:18:39Z</time></trkpt><trkpt lat="43.54186210597944" lon="1.644068692585169"><ele>176.66666666666666</ele><time>2026-03-22T08:18:40Z</time></trkpt><trkpt lat="43.54177885713435" lon="1.6442851623982662"><ele>177.0</ele><time>2026-03-22T08:18:41Z</time></trkpt><trkpt lat="43.54169630362272" lon="1.6445039043590859"><ele>177.0</ele><time>2026-03-22T08:18:42Z</time></trkpt><trkpt lat="43.54161419732435" lon="1.644722601651643"><ele>177.0</ele><time>2026-03-22T08:18:43Z</time></trkpt><trkpt lat="43.541531662204285" lon="1.644944099591767"><ele>177.0</ele><time>2026-03-22T08:18:44Z</time></trkpt><trkpt lat="43.541447533089304" lon="1.6451644103870124"><ele>177.66666666666666</ele><time>2026-03-22T08:18:45Z</time></trkpt><trkpt lat="43.54136449407399" lon="1.6453861326204233"><ele>178.33333333333331</ele><time>2026-03-22T08:18:46Z</time></trkpt><trkpt lat="43.54127943409956" lon="1.6456115255478534"><ele>179.0</ele><time>2026-03-22T08:18:47Z</time></trkpt><trkpt lat="43.54119228891101" lon="1.6458467776023962"><ele>178.0</ele><time>2026-03-22T08:18:48Z</time></trkpt><trkpt lat="43.54109795642054" lon="1.6460932413182912"><ele>177.0</ele><time>2026-03-22T08:18:49Z</time></trkpt><trkpt lat="43.54100082505416" lon="1.646349922457382"><ele>176.0</ele><time>2026-03-22T08:18:50Z</time></trkpt><trkpt lat="43.54089117111728" lon="1.6466361528964857"><ele>176.0</ele><time>2026-03-22T08:18:51Z</time></trkpt><trkpt lat="43.54078475789508" lon="1.6469189165435343"><ele>176.0</ele><time>2026-03-22T08:18:52Z</time></trkpt><trkpt lat="43.54067775386285" lon="1.6472006369601924"><ele>177.0</ele><time>2026-03-22T08:18:53Z</time></trkpt><trkpt lat="43.54057108779302" lon="1.6474818950390957"><ele>178.0</ele><time>2026-03-22T08:18:54Z</time></trkpt><trkpt lat="43.54046537776234" lon="1.6477587862026162"><ele>177.0</ele><time>2026-03-22T08:18:55Z</time></trkpt><trkpt lat="43.54036222861476" lon="1.6480364203512141"><ele>176.0</ele><time>2026-03-22T08:18:56Z</time></trkpt><trkpt lat="43.540258326190354" lon="1.6483070775912971"><ele>175.0</ele><time>2026-03-22T08:18:57Z</time></trkpt><trkpt lat="43.540157864742035" lon="1.6485740644792408"><ele>175.33333333333334</ele><time>2026-03-22T08:18:58Z</time></trkpt><trkpt lat="43.5400572687028" lon="1.648831867282864"><ele>175.66666666666666</ele><time>2026-03-22T08:18:59Z</time></trkpt><trkpt lat="43.53994552694617" lon="1.6490756310837829"><ele>176.0</ele><time>2026-03-22T08:19:00Z</time></trkpt><trkpt lat="43.5398202262485" lon="1.6493198734757937"><ele>175.66666666666666</ele><time>2026-03-22T08:19:01Z</time></trkpt><trkpt lat="43.5396827772324" lon="1.649558997897358"><ele>175.33333333333334</ele><time>2026-03-22T08:19:02Z</time></trkpt><trkpt lat="43.53955821110789" lon="1.6497837928292423"><ele>175.0</ele><time>2026-03-22T08:19:03Z</time></trkpt><trkpt lat="43.53944087931874" lon="1.6499913118387917"><ele>175.0</ele><time>2026-03-22T08:19:04Z</time></trkpt><trkpt lat="43.53932159320395" lon="1.6501800062175025"><ele>175.0</ele><time>2026-03-22T08:19:05Z</time></trkpt><trkpt lat="43.5391916589288" lon="1.6503789853868536"><ele>175.0</ele><time>2026-03-22T08:19:06Z</time></trkpt><trkpt lat="43.53904578311971" lon="1.6506035896580056"><ele>174.66666666666669</ele><time>2026-03-22T08:19:07Z</time></trkpt><trkpt lat="43.53890140605324" lon="1.6508280150352836"><ele>174.33333333333334</ele><time>2026-03-22T08:19:08Z</time></trkpt><trkpt lat="43.53876791587596" lon="1.6510417470161496"><ele>174.0</ele><time>2026-03-22T08:19:09Z</time></trkpt><trkpt lat="43.538635518137895" lon="1.6512578230787776"><ele>173.66666666666666</ele><time>2026-03-22T08:19:10Z</time></trkpt><trkpt lat="43.53850942687659" lon="1.6514856315954647"><ele>173.33333333333331</ele><time>2026-03-22T08:19:11Z</time></trkpt><trkpt lat="43.53837946817261" lon="1.6517437299669855"><ele>173.0</ele><time>2026-03-22T08:19:12Z</time></trkpt><trkpt lat="43.53826085818322" lon="1.652020469859038"><ele>173.0</ele><time>2026-03-22T08:19:13Z</time></trkpt><trkpt lat="43.53815315020173" lon="1.6523221796992695"><ele>173.0</ele><time>2026-03-22T08:19:14Z</time></trkpt><trkpt lat="43.538016976459126" lon="1.6526130335485605"><ele>175.0</ele><time>2026-03-22T08:19:15Z</time></trkpt><trkpt lat="43.53790646892481" lon="1.6529091842968349"><ele>177.0</ele><time>2026-03-22T08:19:16Z</time></trkpt><trkpt lat="43.53780688519368" lon="1.653196861135897"><ele>175.33333333333334</ele><time>2026-03-22T08:19:17Z</time></trkpt><trkpt lat="43.53769829802294" lon="1.6534620795472095"><ele>173.66666666666669</ele><time>2026-03-22T08:19:18Z</time></trkpt><trkpt lat="43.537593015687" lon="1.6537252253908332"><ele>172.0</ele><time>2026-03-22T08:19:19Z</time></trkpt><trkpt lat="43.537485940346556" lon="1.6539772382053157"><ele>172.0</ele><time>2026-03-22T08:19:20Z</time></trkpt><trkpt lat="43.53737698975686" lon="1.6542257299321577"><ele>172.0</ele><time>2026-03-22T08:19:21Z</time></trkpt><trkpt lat="43.537268945957365" lon="1.6544773857323367"><ele>172.0</ele><time>2026-03-22T08:19:22Z</time></trkpt><trkpt lat="43.53715557658707" lon="1.6547302725908999"><ele>171.33333333333334</ele><time>2026-03-22T08:19:23Z</time></trkpt><trkpt lat="43.537047052922055" lon="1.654979560952193"><ele>170.66666666666666</ele><time>2026-03-22T08:19:24Z</time></trkpt><trkpt lat="43.53693779580828" lon="1.6552276273901856"><ele>170.0</ele><time>2026-03-22T08:19:25Z</time></trkpt><trkpt lat="43.53682887684648" lon="1.6554789950575137"><ele>170.0</ele><time>2026-03-22T08:19:26Z</time></trkpt><trkpt lat="43.53672838134205" lon="1.6557237698692013"><ele>170.0</ele><time>2026-03-22T08:19:27Z</time></trkpt><trkpt lat="43.53662739545322" lon="1.6559745636786432"><ele>170.0</ele><time>2026-03-22T08:19:28Z</time></trkpt><trkpt lat="43.53653502003471" lon="1.6562293240755606"><ele>171.0</ele><time>2026-03-22T08:19:29Z</time></trkpt><trkpt lat="43.53645303858019" lon="1.6564942600008348"><ele>172.0</ele><time>2026-03-22T08:19:30Z</time></trkpt><trkpt lat="43.5363829633222" lon="1.6567720972372737"><ele>173.0</ele><time>2026-03-22T08:19:31Z</time></trkpt><trkpt lat="43.53632052758312" lon="1.6570636877364942"><ele>173.0</ele><time>2026-03-22T08:19:32Z</time></trkpt><trkpt lat="43.53625589308889" lon="1.657358509514686"><ele>173.0</ele><time>2026-03-22T08:19:33Z</time></trkpt><trkpt lat="43.536176664499635" lon="1.6576357205036025"><ele>173.0</ele><time>2026-03-22T08:19:34Z</time></trkpt><trkpt lat="43.536073497098414" lon="1.6579052743265845"><ele>171.5</ele><time>2026-03-22T08:19:35Z</time></trkpt><trkpt lat="43.53596270063212" lon="1.6581826436660847"><ele>170.0</ele><time>2026-03-22T08:19:36Z</time></trkpt><trkpt lat="43.53584948882497" lon="1.658481729743028"><ele>169.0</ele><time>2026-03-22T08:19:37Z</time></trkpt><trkpt lat="43.53574154563164" lon="1.658774683837762"><ele>168.0</ele><time>2026-03-22T08:19:38Z</time></trkpt><trkpt lat="43.535631734675704" lon="1.6590617904774467"><ele>168.0</ele><time>2026-03-22T08:19:39Z</time></trkpt><trkpt lat="43.535518147530524" lon="1.6593530830921464"><ele>168.0</ele><time>2026-03-22T08:19:40Z</time></trkpt><trkpt lat="43.535402035983935" lon="1.6596494788820786"><ele>168.5</ele><time>2026-03-22T08:19:41Z</time></trkpt><trkpt lat="43.535285908359356" lon="1.6599512395483262"><ele>169.0</ele><time>2026-03-22T08:19:42Z</time></trkpt><trkpt lat="43.53517197530841" lon="1.6602484743248034"><ele>169.0</ele><time>2026-03-22T08:19:43Z</time></trkpt><trkpt lat="43.53505664986603" lon="1.6605383407769387"><ele>169.0</ele><time>2026-03-22T08:19:44Z</time></trkpt><trkpt lat="43.53494177000195" lon="1.6608231962233742"><ele>169.0</ele><time>2026-03-22T08:19:45Z</time></trkpt><trkpt lat="43.53482425446715" lon="1.6610967285597935"><ele>169.0</ele><time>2026-03-22T08:19:46Z</time></trkpt><trkpt lat="43.534704099320706" lon="1.6613595722562766"><ele>168.66666666666669</ele><time>2026-03-22T08:19:46.999Z</time></trkpt><trkpt lat="43.53458755483966" lon="1.661600389670089"><ele>168.33333333333334</ele><time>2026-03-22T08:19:47.999Z</time></trkpt><trkpt lat="43.534473495411646" lon="1.6618255205885482"><ele>168.0</ele><time>2026-03-22T08:19:48.999Z</time></trkpt><trkpt lat="43.53436913235373" lon="1.662033101079151"><ele>169.0</ele><time>2026-03-22T08:19:49.999Z</time></trkpt><trkpt lat="43.53426944068594" lon="1.6622281025130237"><ele>170.0</ele><time>2026-03-22T08:19:50.999Z</time></trkpt><trkpt lat="43.5341750155225" lon="1.6624175133699552"><ele>171.0</ele><time>2026-03-22T08:19:51.999Z</time></trkpt><trkpt lat="43.53408443889758" lon="1.6626133775741379"><ele>172.33333333333334</ele><time>2026-03-22T08:19:52.999Z</time></trkpt><trkpt lat="43.53399713771973" lon="1.6628019327702204"><ele>173.66666666666669</ele><time>2026-03-22T08:19:53.999Z</time></trkpt><trkpt lat="43.53390892928102" lon="1.663008486349879"><ele>175.0</ele><time>2026-03-22T08:19:54.999Z</time></trkpt><trkpt lat="43.53382661529606" lon="1.6632065493022803"><ele>175.0</ele><time>2026-03-22T08:19:55.999Z</time></trkpt><trkpt lat="43.53374445345978" lon="1.6634021034400905"><ele>175.0</ele><time>2026-03-22T08:19:56.999Z</time></trkpt><trkpt lat="43.53367198450711" lon="1.6635841328065752"><ele>175.0</ele><time>2026-03-22T08:19:57.999Z</time></trkpt><trkpt lat="43.53359510142796" lon="1.663768288198315"><ele>173.66666666666669</ele><time>2026-03-22T08:19:58.999Z</time></trkpt><trkpt lat="43.533509604854515" lon="1.6639599062183557"><ele>172.33333333333334</ele><time>2026-03-22T08:19:59.999Z</time></trkpt><trkpt lat="43.53342010974378" lon="1.6641556540515832"><ele>171.0</ele><time>2026-03-22T08:20:00.999Z</time></trkpt><trkpt lat="43.53332849359878" lon="1.6643515854335613"><ele>171.66666666666666</ele><time>2026-03-22T08:20:01.999Z</time></trkpt><trkpt lat="43.53323461173867" lon="1.6645482482520562"><ele>172.33333333333331</ele><time>2026-03-22T08:20:02.999Z</time></trkpt><trkpt lat="43.53313324388278" lon="1.6647476633464426"><ele>173.0</ele><time>2026-03-22T08:20:03.999Z</time></trkpt><trkpt lat="43.53301606822836" lon="1.6649564486111519"><ele>173.0</ele><time>2026-03-22T08:20:04.999Z</time></trkpt><trkpt lat="43.532896805133774" lon="1.6651642322621687"><ele>173.0</ele><time>2026-03-22T08:20:05.999Z</time></trkpt><trkpt lat="43.53278002261109" lon="1.6653694770650918"><ele>173.0</ele><time>2026-03-22T08:20:06.999Z</time></trkpt><trkpt lat="43.53266495357419" lon="1.6655790509472894"><ele>173.33333333333331</ele><time>2026-03-22T08:20:07.999Z</time></trkpt><trkpt lat="43.532544086599444" lon="1.6657937929218187"><ele>173.66666666666666</ele><time>2026-03-22T08:20:08.999Z</time></trkpt><trkpt lat="43.532422738693455" lon="1.666014731187954"><ele>174.0</ele><time>2026-03-22T08:20:09.999Z</time></trkpt><trkpt lat="43.532300246022245" lon="1.6662387043538671"><ele>174.0</ele><time>2026-03-22T08:20:10.999Z</time></trkpt><trkpt lat="43.532179569018034" lon="1.6664649141779435"><ele>174.0</ele><time>2026-03-22T08:20:11.999Z</time></trkpt><trkpt lat="43.53206069929175" lon="1.6666952352894369"><ele>174.0</ele><time>2026-03-22T08:20:12.999Z</time></trkpt><trkpt lat="43.53194495947237" lon="1.6669416272936386"><ele>172.5</ele><time>2026-03-22T08:20:13.999Z</time></trkpt><trkpt lat="43.53182547959631" lon="1.6672062476168619"><ele>171.0</ele><time>2026-03-22T08:20:14.999Z</time></trkpt><trkpt lat="43.53170070666548" lon="1.6674736444822738"><ele>171.0</ele><time>2026-03-22T08:20:15.999Z</time></trkpt><trkpt lat="43.53155111428648" lon="1.6677356002428412"><ele>171.0</ele><time>2026-03-22T08:20:16.999Z</time></trkpt><trkpt lat="43.531383142330625" lon="1.6679367759702433"><ele>170.0</ele><time>2026-03-22T08:20:17.999Z</time></trkpt><trkpt lat="43.53121700643631" lon="1.668161716836378"><ele>169.0</ele><time>2026-03-22T08:20:18.999Z</time></trkpt><trkpt lat="43.53103482188306" lon="1.6683641579572392"><ele>169.0</ele><time>2026-03-22T08:20:19.999Z</time></trkpt><trkpt lat="43.530860027450906" lon="1.6685656999993228"><ele>169.0</ele><time>2026-03-22T08:20:20.999Z</time></trkpt><trkpt lat="43.530679627149716" lon="1.6687772769774896"><ele>169.0</ele><time>2026-03-22T08:20:21.999Z</time></trkpt><trkpt lat="43.53049669861958" lon="1.6689954015248578"><ele>169.0</ele><time>2026-03-22T08:20:22.999Z</time></trkpt><trkpt lat="43.53031476696486" lon="1.6692256045545768"><ele>170.5</ele><time>2026-03-22T08:20:23.999Z</time></trkpt><trkpt lat="43.53014799786862" lon="1.6694517363313446"><ele>172.0</ele><time>2026-03-22T08:20:25Z</time></trkpt><trkpt lat="43.52999555564357" lon="1.669689674474946"><ele>172.0</ele><time>2026-03-22T08:20:26Z</time></trkpt><trkpt lat="43.529846019587254" lon="1.6699561178940767"><ele>172.0</ele><time>2026-03-22T08:20:27Z</time></trkpt><trkpt lat="43.52971003030044" lon="1.6702284388367439"><ele>173.5</ele><time>2026-03-22T08:20:28Z</time></trkpt><trkpt lat="43.52958356465107" lon="1.6705122445319074"><ele>175.0</ele><time>2026-03-22T08:20:29Z</time></trkpt><trkpt lat="43.52947474223523" lon="1.670796385903716"><ele>172.0</ele><time>2026-03-22T08:20:30Z</time></trkpt><trkpt lat="43.52937334701939" lon="1.6710898854407115"><ele>169.0</ele><time>2026-03-22T08:20:31Z</time></trkpt><trkpt lat="43.529283614398985" lon="1.6713925373740754"><ele>169.0</ele><time>2026-03-22T08:20:32Z</time></trkpt><trkpt lat="43.52920366457656" lon="1.6716985357965013"><ele>169.0</ele><time>2026-03-22T08:20:33Z</time></trkpt><trkpt lat="43.529127732803936" lon="1.6720117778331576"><ele>169.5</ele><time>2026-03-22T08:20:34Z</time></trkpt><trkpt lat="43.529056824186256" lon="1.672327210490275"><ele>170.0</ele><time>2026-03-22T08:20:35Z</time></trkpt><trkpt lat="43.52898166826376" lon="1.672643335995216"><ele>171.0</ele><time>2026-03-22T08:20:36Z</time></trkpt><trkpt lat="43.52891234679802" lon="1.6729566827364017"><ele>172.0</ele><time>2026-03-22T08:20:37Z</time></trkpt><trkpt lat="43.52884382142158" lon="1.6732714651761031"><ele>172.0</ele><time>2026-03-22T08:20:38Z</time></trkpt><trkpt lat="43.52877349510181" lon="1.6735921134095988"><ele>172.0</ele><time>2026-03-22T08:20:39Z</time></trkpt><trkpt lat="43.528701122246254" lon="1.673929182035425"><ele>171.5</ele><time>2026-03-22T08:20:40Z</time></trkpt><trkpt lat="43.52862993742259" lon="1.6742563516078348"><ele>171.0</ele><time>2026-03-22T08:20:41Z</time></trkpt><trkpt lat="43.52856211946341" lon="1.6745528671078913"><ele>170.66666666666666</ele><time>2026-03-22T08:20:42Z</time></trkpt><trkpt lat="43.52848402217837" lon="1.6748306266863753"><ele>170.33333333333331</ele><time>2026-03-22T08:20:43Z</time></trkpt><trkpt lat="43.5283834928223" lon="1.6750796294446133"><ele>170.0</ele><time>2026-03-22T08:20:44Z</time></trkpt><trkpt lat="43.528256147630465" lon="1.6753429767424541"><ele>171.0</ele><time>2026-03-22T08:20:45Z</time></trkpt><trkpt lat="43.52811821125598" lon="1.675622041210214"><ele>172.0</ele><time>2026-03-22T08:20:46Z</time></trkpt><trkpt lat="43.527982151389864" lon="1.675913452945119"><ele>171.5</ele><time>2026-03-22T08:20:47Z</time></trkpt><trkpt lat="43.52785424640355" lon="1.6761891043534434"><ele>171.0</ele><time>2026-03-22T08:20:48Z</time></trkpt><trkpt lat="43.52772624301232" lon="1.6764693452384312"><ele>171.0</ele><time>2026-03-22T08:20:49Z</time></trkpt><trkpt lat="43.527601176838026" lon="1.6767452178378772"><ele>171.0</ele><time>2026-03-22T08:20:50Z</time></trkpt><trkpt lat="43.52747528757968" lon="1.6770211094611942"><ele>172.0</ele><time>2026-03-22T08:20:51Z</time></trkpt><trkpt lat="43.52736097812587" lon="1.6773108323463555"><ele>173.0</ele><time>2026-03-22T08:20:52Z</time></trkpt><trkpt lat="43.52725000357438" lon="1.6776177573593734"><ele>173.5</ele><time>2026-03-22T08:20:53Z</time></trkpt><trkpt lat="43.527138631956774" lon="1.6779448627445257"><ele>174.0</ele><time>2026-03-22T08:20:54Z</time></trkpt><trkpt lat="43.527029710243205" lon="1.6782698133198404"><ele>173.0</ele><time>2026-03-22T08:20:55Z</time></trkpt><trkpt lat="43.52693214817034" lon="1.6785892608329984"><ele>172.0</ele><time>2026-03-22T08:20:56Z</time></trkpt><trkpt lat="43.52683904450278" lon="1.6788816139863976"><ele>172.0</ele><time>2026-03-22T08:20:57Z</time></trkpt><trkpt lat="43.526735174108886" lon="1.6791657248912448"><ele>172.0</ele><time>2026-03-22T08:20:58Z</time></trkpt><trkpt lat="43.52661480337283" lon="1.6794421071412948"><ele>173.0</ele><time>2026-03-22T08:20:59Z</time></trkpt><trkpt lat="43.52647765311148" lon="1.6797260187503373"><ele>174.0</ele><time>2026-03-22T08:21:00Z</time></trkpt><trkpt lat="43.52635249111462" lon="1.6800099594094882"><ele>174.0</ele><time>2026-03-22T08:21:01Z</time></trkpt><trkpt lat="43.52622862331891" lon="1.6802887882016442"><ele>174.0</ele><time>2026-03-22T08:21:02Z</time></trkpt><trkpt lat="43.52611705714817" lon="1.6805441981275862"><ele>174.0</ele><time>2026-03-22T08:21:03Z</time></trkpt><trkpt lat="43.526009418595436" lon="1.680785681748231"><ele>174.0</ele><time>2026-03-22T08:21:04Z</time></trkpt><trkpt lat="43.525898343420394" lon="1.6810205492889119"><ele>174.0</ele><time>2026-03-22T08:21:05Z</time></trkpt><trkpt lat="43.525775938356674" lon="1.6812572401800916"><ele>174.5</ele><time>2026-03-22T08:21:06Z</time></trkpt><trkpt lat="43.52563978567588" lon="1.6814973824407895"><ele>175.0</ele><time>2026-03-22T08:21:07Z</time></trkpt><trkpt lat="43.52549423911218" lon="1.6817513991383333"><ele>174.5</ele><time>2026-03-22T08:21:08Z</time></trkpt><trkpt lat="43.52534369905588" lon="1.6820077386255161"><ele>174.0</ele><time>2026-03-22T08:21:09Z</time></trkpt><trkpt lat="43.5251988394368" lon="1.682257684283819"><ele>174.0</ele><time>2026-03-22T08:21:10Z</time></trkpt><trkpt lat="43.52505832347421" lon="1.6825014997414707"><ele>174.0</ele><time>2026-03-22T08:21:11Z</time></trkpt><trkpt lat="43.52492547262556" lon="1.682725739798116"><ele>174.0</ele><time>2026-03-22T08:21:12Z</time></trkpt><trkpt lat="43.52479839734803" lon="1.682942949146009"><ele>173.66666666666666</ele><time>2026-03-22T08:21:13Z</time></trkpt><trkpt lat="43.524681323485005" lon="1.6831444675942908"><ele>173.33333333333331</ele><time>2026-03-22T08:21:14Z</time></trkpt><trkpt lat="43.52457104510018" lon="1.6833311057366966"><ele>173.0</ele><time>2026-03-22T08:21:15Z</time></trkpt><trkpt lat="43.52445510859958" lon="1.6835187100095945"><ele>173.33333333333331</ele><time>2026-03-22T08:21:16Z</time></trkpt><trkpt lat="43.52434361225326" lon="1.6837166329833835"><ele>173.66666666666666</ele><time>2026-03-22T08:21:17Z</time></trkpt><trkpt lat="43.524249657941276" lon="1.6839161044566118"><ele>174.0</ele><time>2026-03-22T08:21:18Z</time></trkpt><trkpt lat="43.52416474426992" lon="1.684148472895899"><ele>174.0</ele><time>2026-03-22T08:21:19Z</time></trkpt><trkpt lat="43.52410220535687" lon="1.6844215736422663"><ele>174.0</ele><time>2026-03-22T08:21:20Z</time></trkpt><trkpt lat="43.52406045014556" lon="1.6847244453989279"><ele>174.0</ele><time>2026-03-22T08:21:21Z</time></trkpt><trkpt lat="43.524030342576694" lon="1.6850471948715435"><ele>174.0</ele><time>2026-03-22T08:21:22Z</time></trkpt><trkpt lat="43.52400008309565" lon="1.6853900971478109"><ele>174.0</ele><time>2026-03-22T08:21:23Z</time></trkpt><trkpt lat="43.523961614982284" lon="1.6857325825648732"><ele>174.0</ele><time>2026-03-22T08:21:24Z</time></trkpt><trkpt lat="43.52391101452113" lon="1.6860553323168754"><ele>174.0</ele><time>2026-03-22T08:21:25Z</time></trkpt><trkpt lat="43.52383959406513" lon="1.686374587985722"><ele>174.5</ele><time>2026-03-22T08:21:26Z</time></trkpt><trkpt lat="43.52374288203538" lon="1.6866850434544325"><ele>175.0</ele><time>2026-03-22T08:21:27Z</time></trkpt><trkpt lat="43.52363797738267" lon="1.686996950226448"><ele>175.5</ele><time>2026-03-22T08:21:28Z</time></trkpt><trkpt lat="43.52353077987604" lon="1.6872879642739076"><ele>176.0</ele><time>2026-03-22T08:21:29Z</time></trkpt><trkpt lat="43.523416727711705" lon="1.6875722476699107"><ele>176.5</ele><time>2026-03-22T08:21:30Z</time></trkpt><trkpt lat="43.523276058592174" lon="1.6878633409081116"><ele>177.0</ele><time>2026-03-22T08:21:31Z</time></trkpt><trkpt lat="43.52313301986874" lon="1.688134727672911"><ele>177.0</ele><time>2026-03-22T08:21:32Z</time></trkpt><trkpt lat="43.523011610676306" lon="1.6883702043346756"><ele>177.0</ele><time>2026-03-22T08:21:33Z</time></trkpt><trkpt lat="43.5228926997934" lon="1.6886113706895594"><ele>177.0</ele><time>2026-03-22T08:21:34Z</time></trkpt><trkpt lat="43.52278922981138" lon="1.6888393296694713"><ele>176.66666666666666</ele><time>2026-03-22T08:21:35Z</time></trkpt><trkpt lat="43.5227053523595" lon="1.6890534711053538"><ele>176.33333333333331</ele><time>2026-03-22T08:21:36Z</time></trkpt><trkpt lat="43.52261795774128" lon="1.6892798736297607"><ele>176.0</ele><time>2026-03-22T08:21:37Z</time></trkpt><trkpt lat="43.52252288356311" lon="1.6895053638413426"><ele>176.0</ele><time>2026-03-22T08:21:38Z</time></trkpt><trkpt lat="43.522182169318384" lon="1.6900026424295933"><ele>175.66666666666666</ele><time>2026-03-22T08:21:39Z</time></trkpt><trkpt lat="43.52206326867324" lon="1.6902390413658068"><ele>175.33333333333334</ele><time>2026-03-22T08:21:40Z</time></trkpt><trkpt lat="43.52197103884029" lon="1.6904424942313452"><ele>175.0</ele><time>2026-03-22T08:21:41Z</time></trkpt><trkpt lat="43.521840453224236" lon="1.690690751400567"><ele>175.0</ele><time>2026-03-22T08:21:42Z</time></trkpt><trkpt lat="43.52172119878951" lon="1.6909345151553252"><ele>175.0</ele><time>2026-03-22T08:21:43Z</time></trkpt><trkpt lat="43.52158738641351" lon="1.691193933118285"><ele>175.0</ele><time>2026-03-22T08:21:44Z</time></trkpt><trkpt lat="43.52146242564796" lon="1.6914616748067148"><ele>175.0</ele><time>2026-03-22T08:21:45Z</time></trkpt><trkpt lat="43.52133947842248" lon="1.6917176450473026"><ele>175.0</ele><time>2026-03-22T08:21:46Z</time></trkpt><trkpt lat="43.52121305690578" lon="1.6919756501735628"><ele>175.0</ele><time>2026-03-22T08:21:47Z</time></trkpt><trkpt lat="43.52109947882887" lon="1.6922283342318258"><ele>175.0</ele><time>2026-03-22T08:21:48Z</time></trkpt><trkpt lat="43.52098926155578" lon="1.6924890380817639"><ele>175.0</ele><time>2026-03-22T08:21:49Z</time></trkpt><trkpt lat="43.52088384640123" lon="1.6927462454910691"><ele>175.0</ele><time>2026-03-22T08:21:50Z</time></trkpt><trkpt lat="43.52077933944706" lon="1.6930223190396707"><ele>175.5</ele><time>2026-03-22T08:21:51Z</time></trkpt><trkpt lat="43.52068008026613" lon="1.6933068458441698"><ele>176.0</ele><time>2026-03-22T08:21:51.999Z</time></trkpt><trkpt lat="43.520579438667376" lon="1.6935972292785908"><ele>176.0</ele><time>2026-03-22T08:21:52.999Z</time></trkpt><trkpt lat="43.52047872413624" lon="1.6938803216706646"><ele>176.0</ele><time>2026-03-22T08:21:53.999Z</time></trkpt><trkpt lat="43.52038176978464" lon="1.694151717780592"><ele>176.0</ele><time>2026-03-22T08:21:54.999Z</time></trkpt><trkpt lat="43.52029505483391" lon="1.6944203123644446"><ele>175.66666666666666</ele><time>2026-03-22T08:21:55.999Z</time></trkpt><trkpt lat="43.52020780272376" lon="1.6946712892591282"><ele>175.33333333333334</ele><time>2026-03-22T08:21:56.999Z</time></trkpt><trkpt lat="43.520119563082034" lon="1.6949212259177977"><ele>175.0</ele><time>2026-03-22T08:21:57.999Z</time></trkpt><trkpt lat="43.520040403872166" lon="1.695200913039053"><ele>174.33333333333334</ele><time>2026-03-22T08:21:58.999Z</time></trkpt><trkpt lat="43.51998047988053" lon="1.6955024129675007"><ele>173.66666666666666</ele><time>2026-03-22T08:21:59.999Z</time></trkpt><trkpt lat="43.5199318780757" lon="1.6957804130813658"><ele>173.0</ele><time>2026-03-22T08:22:00.999Z</time></trkpt><trkpt lat="43.51990332170915" lon="1.6960578871834988"><ele>173.33333333333331</ele><time>2026-03-22T08:22:01.999Z</time></trkpt><trkpt lat="43.51985064727067" lon="1.696342967130584"><ele>173.66666666666666</ele><time>2026-03-22T08:22:02.999Z</time></trkpt><trkpt lat="43.51980049526698" lon="1.6966048352118304"><ele>174.0</ele><time>2026-03-22T08:22:03.999Z</time></trkpt><trkpt lat="43.51973074426507" lon="1.6968749288182132"><ele>174.33333333333334</ele><time>2026-03-22T08:22:04.999Z</time></trkpt><trkpt lat="43.51963218756679" lon="1.6971381965303562"><ele>174.66666666666669</ele><time>2026-03-22T08:22:05.999Z</time></trkpt><trkpt lat="43.519510921119995" lon="1.697380491000231"><ele>175.0</ele><time>2026-03-22T08:22:06.999Z</time></trkpt><trkpt lat="43.519368277887516" lon="1.6976151105577255"><ele>176.5</ele><time>2026-03-22T08:22:07.999Z</time></trkpt><trkpt lat="43.51921519534987" lon="1.6978527039882965"><ele>178.0</ele><time>2026-03-22T08:22:08.999Z</time></trkpt><trkpt lat="43.519060576260216" lon="1.6981090313991385"><ele>178.0</ele><time>2026-03-22T08:22:09.999Z</time></trkpt><trkpt lat="43.5189020020622" lon="1.6983818856938924"><ele>178.0</ele><time>2026-03-22T08:22:10.999Z</time></trkpt><trkpt lat="43.51874904431478" lon="1.6986588738866881"><ele>176.0</ele><time>2026-03-22T08:22:11.999Z</time></trkpt><trkpt lat="43.51860554373556" lon="1.6989482930236544"><ele>174.0</ele><time>2026-03-22T08:22:12.999Z</time></trkpt><trkpt lat="43.518469244886084" lon="1.6992500962300339"><ele>175.0</ele><time>2026-03-22T08:22:13.999Z</time></trkpt><trkpt lat="43.51833104198685" lon="1.6995473356694215"><ele>176.0</ele><time>2026-03-22T08:22:14.999Z</time></trkpt><trkpt lat="43.5181997683851" lon="1.6998253714376474"><ele>176.0</ele><time>2026-03-22T08:22:15.999Z</time></trkpt><trkpt lat="43.51807500266194" lon="1.7000954209304868"><ele>176.0</ele><time>2026-03-22T08:22:16.999Z</time></trkpt><trkpt lat="43.51796241880406" lon="1.7003426079528172"><ele>176.0</ele><time>2026-03-22T08:22:17.999Z</time></trkpt><trkpt lat="43.517849549910125" lon="1.7005887148943142"><ele>175.66666666666666</ele><time>2026-03-22T08:22:18.999Z</time></trkpt><trkpt lat="43.51773309652971" lon="1.700840196278772"><ele>175.33333333333334</ele><time>2026-03-22T08:22:19.999Z</time></trkpt><trkpt lat="43.51761222745039" lon="1.7011011286211324"><ele>175.0</ele><time>2026-03-22T08:22:20.999Z</time></trkpt><trkpt lat="43.517489053316325" lon="1.7013654245403498"><ele>177.0</ele><time>2026-03-22T08:22:21.999Z</time></trkpt><trkpt lat="43.51736163583282" lon="1.701639003436407"><ele>179.0</ele><time>2026-03-22T08:22:22.999Z</time></trkpt><trkpt lat="43.51723689995321" lon="1.7019117604816292"><ele>180.0</ele><time>2026-03-22T08:22:23.999Z</time></trkpt><trkpt lat="43.517115479778525" lon="1.702170869066822"><ele>181.0</ele><time>2026-03-22T08:22:24.999Z</time></trkpt><trkpt lat="43.5169999805952" lon="1.7024206742733639"><ele>182.0</ele><time>2026-03-22T08:22:25.999Z</time></trkpt><trkpt lat="43.51688241591113" lon="1.7026726221525312"><ele>180.33333333333331</ele><time>2026-03-22T08:22:26.999Z</time></trkpt><trkpt lat="43.51677040602157" lon="1.7029261055581721"><ele>178.66666666666666</ele><time>2026-03-22T08:22:27.999Z</time></trkpt><trkpt lat="43.516659910691885" lon="1.7031913575804143"><ele>177.0</ele><time>2026-03-22T08:22:28.999Z</time></trkpt><trkpt lat="43.516546223760194" lon="1.7034578242404024"><ele>179.0</ele><time>2026-03-22T08:22:29.999Z</time></trkpt><trkpt lat="43.5164333113981" lon="1.7037309845506143"><ele>181.0</ele><time>2026-03-22T08:22:31Z</time></trkpt><trkpt lat="43.516319278102316" lon="1.7040030502045231"><ele>179.0</ele><time>2026-03-22T08:22:32Z</time></trkpt><trkpt lat="43.51620535013727" lon="1.7042764722222719"><ele>177.0</ele><time>2026-03-22T08:22:33Z</time></trkpt><trkpt lat="43.516091854025454" lon="1.704550170831423"><ele>177.0</ele><time>2026-03-22T08:22:34Z</time></trkpt><trkpt lat="43.5159769095715" lon="1.7048211720969053"><ele>177.0</ele><time>2026-03-22T08:22:35Z</time></trkpt><trkpt lat="43.515860517024706" lon="1.7050836892821315"><ele>178.33333333333334</ele><time>2026-03-22T08:22:36Z</time></trkpt><trkpt lat="43.515743312910104" lon="1.7053427852109384"><ele>179.66666666666669</ele><time>2026-03-22T08:22:37Z</time></trkpt><trkpt lat="43.51562329695691" lon="1.7055884125383818"><ele>181.0</ele><time>2026-03-22T08:22:38Z</time></trkpt><trkpt lat="43.515492983741574" lon="1.7058141124500086"><ele>179.66666666666669</ele><time>2026-03-22T08:22:39Z</time></trkpt><trkpt lat="43.51535294657348" lon="1.706038521411115"><ele>178.33333333333334</ele><time>2026-03-22T08:22:40Z</time></trkpt><trkpt lat="43.515224033931" lon="1.7062659563081108"><ele>177.0</ele><time>2026-03-22T08:22:41Z</time></trkpt><trkpt lat="43.51509515610461" lon="1.7064924359549887"><ele>177.0</ele><time>2026-03-22T08:22:42Z</time></trkpt><trkpt lat="43.514963796367745" lon="1.7067187124512708"><ele>177.0</ele><time>2026-03-22T08:22:43Z</time></trkpt><trkpt lat="43.514834233446315" lon="1.7069471804740062"><ele>177.0</ele><time>2026-03-22T08:22:44Z</time></trkpt><trkpt lat="43.514706142423115" lon="1.7071807506206205"><ele>176.66666666666666</ele><time>2026-03-22T08:22:45Z</time></trkpt><trkpt lat="43.51458274024983" lon="1.7074151708474246"><ele>176.33333333333331</ele><time>2026-03-22T08:22:46Z</time></trkpt><trkpt lat="43.5144631213296" lon="1.7076566196416514"><ele>176.0</ele><time>2026-03-22T08:22:47Z</time></trkpt><trkpt lat="43.514347004288716" lon="1.7079035523350212"><ele>177.0</ele><time>2026-03-22T08:22:48Z</time></trkpt><trkpt lat="43.51423196326753" lon="1.7081601056056686"><ele>178.0</ele><time>2026-03-22T08:22:49Z</time></trkpt><trkpt lat="43.51411781657628" lon="1.7084176789171848"><ele>179.0</ele><time>2026-03-22T08:22:50Z</time></trkpt><trkpt lat="43.514011734892534" lon="1.7086934842038297"><ele>181.5</ele><time>2026-03-22T08:22:51Z</time></trkpt><trkpt lat="43.51391259119955" lon="1.7089858741905701"><ele>184.0</ele><time>2026-03-22T08:22:52Z</time></trkpt><trkpt lat="43.513820231172424" lon="1.7092748444950345"><ele>182.33333333333334</ele><time>2026-03-22T08:22:53Z</time></trkpt><trkpt lat="43.51372070482222" lon="1.7095473125883982"><ele>180.66666666666666</ele><time>2026-03-22T08:22:54Z</time></trkpt><trkpt lat="43.5136130833153" lon="1.7098133211927413"><ele>179.0</ele><time>2026-03-22T08:22:55Z</time></trkpt><trkpt lat="43.51348290444471" lon="1.7100774698835628"><ele>181.5</ele><time>2026-03-22T08:22:56Z</time></trkpt><trkpt lat="43.51334092065364" lon="1.7103554599777475"><ele>184.0</ele><time>2026-03-22T08:22:57Z</time></trkpt><trkpt lat="43.513210169544124" lon="1.7106220949406168"><ele>184.0</ele><time>2026-03-22T08:22:58Z</time></trkpt><trkpt lat="43.51308311724161" lon="1.710885249609712"><ele>184.0</ele><time>2026-03-22T08:22:59Z</time></trkpt><trkpt lat="43.512961825728794" lon="1.7111475800773297"><ele>182.0</ele><time>2026-03-22T08:23:00Z</time></trkpt><trkpt lat="43.51283816269107" lon="1.711404160210237"><ele>180.0</ele><time>2026-03-22T08:23:01Z</time></trkpt><trkpt lat="43.512712524424686" lon="1.711663532169184"><ele>180.66666666666666</ele><time>2026-03-22T08:23:02Z</time></trkpt><trkpt lat="43.512585274312706" lon="1.711920347606505"><ele>181.33333333333331</ele><time>2026-03-22T08:23:03Z</time></trkpt><trkpt lat="43.51246463492831" lon="1.7121768692977666"><ele>182.0</ele><time>2026-03-22T08:23:04Z</time></trkpt><trkpt lat="43.51234203006743" lon="1.7124323966857793"><ele>182.0</ele><time>2026-03-22T08:23:05Z</time></trkpt><trkpt lat="43.51222020719152" lon="1.712688195965462"><ele>182.0</ele><time>2026-03-22T08:23:06Z</time></trkpt><trkpt lat="43.5120944577483" lon="1.7129482142164567"><ele>182.0</ele><time>2026-03-22T08:23:07Z</time></trkpt><trkpt lat="43.51196884902588" lon="1.713215137878662"><ele>181.66666666666666</ele><time>2026-03-22T08:23:08Z</time></trkpt><trkpt lat="43.51184737075473" lon="1.7134723592170067"><ele>181.33333333333334</ele><time>2026-03-22T08:23:09Z</time></trkpt><trkpt lat="43.51172484555912" lon="1.7137343691197013"><ele>181.0</ele><time>2026-03-22T08:23:10Z</time></trkpt><trkpt lat="43.51160194792784" lon="1.7139935641748418"><ele>181.0</ele><time>2026-03-22T08:23:11Z</time></trkpt><trkpt lat="43.51147630585459" lon="1.714246451021318"><ele>181.0</ele><time>2026-03-22T08:23:12Z</time></trkpt><trkpt lat="43.51135198478001" lon="1.7145004124284107"><ele>181.0</ele><time>2026-03-22T08:23:13Z</time></trkpt><trkpt lat="43.511231189841475" lon="1.714750128752709"><ele>181.0</ele><time>2026-03-22T08:23:14Z</time></trkpt><trkpt lat="43.511112957764574" lon="1.7149992185225318"><ele>181.0</ele><time>2026-03-22T08:23:15Z</time></trkpt><trkpt lat="43.51099485315759" lon="1.7152515666755033"><ele>181.0</ele><time>2026-03-22T08:23:16Z</time></trkpt><trkpt lat="43.51087494738283" lon="1.71550143726801"><ele>181.0</ele><time>2026-03-22T08:23:17Z</time></trkpt><trkpt lat="43.5107537264963" lon="1.7157566023573325"><ele>181.0</ele><time>2026-03-22T08:23:18Z</time></trkpt><trkpt lat="43.510634344955015" lon="1.7160059608762799"><ele>181.0</ele><time>2026-03-22T08:23:19Z</time></trkpt><trkpt lat="43.51051096893399" lon="1.7162585368031267"><ele>180.66666666666669</ele><time>2026-03-22T08:23:20Z</time></trkpt><trkpt lat="43.51038866522383" lon="1.7165089688860038"><ele>180.33333333333334</ele><time>2026-03-22T08:23:21Z</time></trkpt><trkpt lat="43.51026753908934" lon="1.7167557829174818"><ele>180.0</ele><time>2026-03-22T08:23:22Z</time></trkpt><trkpt lat="43.5101501605503" lon="1.716998101713506"><ele>180.0</ele><time>2026-03-22T08:23:23Z</time></trkpt><trkpt lat="43.51003622553955" lon="1.7172347129980157"><ele>180.0</ele><time>2026-03-22T08:23:24Z</time></trkpt><trkpt lat="43.50992809485072" lon="1.717479091037202"><ele>180.0</ele><time>2026-03-22T08:23:25Z</time></trkpt><trkpt lat="43.50982794340745" lon="1.717723080526403"><ele>181.0</ele><time>2026-03-22T08:23:26Z</time></trkpt><trkpt lat="43.50974156629401" lon="1.7179671835900607"><ele>182.0</ele><time>2026-03-22T08:23:27Z</time></trkpt><trkpt lat="43.509657341058876" lon="1.7182206068215573"><ele>183.0</ele><time>2026-03-22T08:23:28Z</time></trkpt><trkpt lat="43.50957724539079" lon="1.7184852758771056"><ele>182.33333333333334</ele><time>2026-03-22T08:23:29Z</time></trkpt><trkpt lat="43.50948582664667" lon="1.7187484923176266"><ele>181.66666666666669</ele><time>2026-03-22T08:23:30Z</time></trkpt><trkpt lat="43.509402317409936" lon="1.7190008529486709"><ele>181.0</ele><time>2026-03-22T08:23:31Z</time></trkpt><trkpt lat="43.50933108672926" lon="1.7192236510570948"><ele>181.5</ele><time>2026-03-22T08:23:32Z</time></trkpt><trkpt lat="43.50926076709985" lon="1.719406644168106"><ele>182.0</ele><time>2026-03-22T08:23:33Z</time></trkpt><trkpt lat="43.50920228598369" lon="1.719580297665863"><ele>182.5</ele><time>2026-03-22T08:23:34Z</time></trkpt><trkpt lat="43.5091484299063" lon="1.719736429407141"><ele>183.0</ele><time>2026-03-22T08:23:35Z</time></trkpt><trkpt lat="43.50910067067401" lon="1.7198686568751262"><ele>183.0</ele><time>2026-03-22T08:23:36Z</time></trkpt><trkpt lat="43.509057295993216" lon="1.7199961559450676"><ele>183.0</ele><time>2026-03-22T08:23:37Z</time></trkpt><trkpt lat="43.50902347423553" lon="1.7201027206427872"><ele>183.0</ele><time>2026-03-22T08:23:38Z</time></trkpt><trkpt lat="43.50899321045558" lon="1.7201984024932058"><ele>183.0</ele><time>2026-03-22T08:23:39Z</time></trkpt><trkpt lat="43.508972702456774" lon="1.7202837978174426"><ele>183.0</ele><time>2026-03-22T08:23:40Z</time></trkpt><trkpt lat="43.50895547620324" lon="1.7203803711627892"><ele>183.0</ele><time>2026-03-22T08:23:41Z</time></trkpt><trkpt lat="43.508960992732426" lon="1.7204756701989887"><ele>183.4</ele><time>2026-03-22T08:23:42Z</time></trkpt><trkpt lat="43.509008479066345" lon="1.7205739023025184"><ele>183.8</ele><time>2026-03-22T08:23:43Z</time></trkpt><trkpt lat="43.509053341749826" lon="1.7206994323512614"><ele>184.2</ele><time>2026-03-22T08:23:44Z</time></trkpt><trkpt lat="43.5090601475265" lon="1.7208496501646677"><ele>184.6</ele><time>2026-03-22T08:23:45Z</time></trkpt><trkpt lat="43.50902184810329" lon="1.7210118147087337"><ele>185.0</ele><time>2026-03-22T08:23:46Z</time></trkpt><trkpt lat="43.50894910679322" lon="1.7211985365898483"><ele>185.6</ele><time>2026-03-22T08:23:47Z</time></trkpt><trkpt lat="43.50889848246808" lon="1.721381938673301"><ele>186.2</ele><time>2026-03-22T08:23:48Z</time></trkpt><trkpt lat="43.50886346105048" lon="1.7215249196240743"><ele>186.8</ele><time>2026-03-22T08:23:49Z</time></trkpt><trkpt lat="43.508836540144486" lon="1.7216600282451529"><ele>187.4</ele><time>2026-03-22T08:23:50Z</time></trkpt><trkpt lat="43.50880999635572" lon="1.7217869360370226"><ele>188.0</ele><time>2026-03-22T08:23:51Z</time></trkpt><trkpt lat="43.50878643176264" lon="1.7219248188951657"><ele>187.0</ele><time>2026-03-22T08:23:52Z</time></trkpt><trkpt lat="43.50875956556686" lon="1.7220839634496465"><ele>186.0</ele><time>2026-03-22T08:23:53Z</time></trkpt><trkpt lat="43.50873336947803" lon="1.7222636518075254"><ele>185.0</ele><time>2026-03-22T08:23:54Z</time></trkpt><trkpt lat="43.508706706888006" lon="1.7224541539586948"><ele>184.0</ele><time>2026-03-22T08:23:55Z</time></trkpt><trkpt lat="43.508684264749625" lon="1.7226474343559668"><ele>184.66666666666669</ele><time>2026-03-22T08:23:56Z</time></trkpt><trkpt lat="43.50865535421956" lon="1.722845731711613"><ele>185.33333333333334</ele><time>2026-03-22T08:23:57Z</time></trkpt><trkpt lat="43.50862661295577" lon="1.7230554623332142"><ele>186.0</ele><time>2026-03-22T08:23:58Z</time></trkpt><trkpt lat="43.50859021620905" lon="1.7232685777509724"><ele>186.0</ele><time>2026-03-22T08:23:59Z</time></trkpt><trkpt lat="43.50856328422885" lon="1.72346048312112"><ele>186.0</ele><time>2026-03-22T08:23:59.999Z</time></trkpt><trkpt lat="43.50853238334211" lon="1.7236499602228443"><ele>186.0</ele><time>2026-03-22T08:24:00.999Z</time></trkpt><trkpt lat="43.50850355339016" lon="1.723856163724147"><ele>186.0</ele><time>2026-03-22T08:24:01.999Z</time></trkpt><trkpt lat="43.50847699378219" lon="1.7240764326985152"><ele>188.0</ele><time>2026-03-22T08:24:02.999Z</time></trkpt><trkpt lat="43.50846008058964" lon="1.7242873413055013"><ele>190.0</ele><time>2026-03-22T08:24:03.999Z</time></trkpt><trkpt lat="43.508449120733545" lon="1.724498467297856"><ele>192.0</ele><time>2026-03-22T08:24:04.999Z</time></trkpt><trkpt lat="43.50845641854292" lon="1.7247055048501378"><ele>193.0</ele><time>2026-03-22T08:24:05.999Z</time></trkpt><trkpt lat="43.50848093852444" lon="1.7249108881955466"><ele>194.0</ele><time>2026-03-22T08:24:06.999Z</time></trkpt><trkpt lat="43.508524896289245" lon="1.7250962587118939"><ele>195.0</ele><time>2026-03-22T08:24:07.999Z</time></trkpt><trkpt lat="43.508586372575145" lon="1.7252576672431206"><ele>196.0</ele><time>2026-03-22T08:24:08.999Z</time></trkpt><trkpt lat="43.50867582685807" lon="1.7254151176762715"><ele>197.33333333333331</ele><time>2026-03-22T08:24:09.999Z</time></trkpt><trkpt lat="43.50878334470403" lon="1.7255707733709407"><ele>198.66666666666669</ele><time>2026-03-22T08:24:10.999Z</time></trkpt><trkpt lat="43.508902603707746" lon="1.7257238182901316"><ele>200.0</ele><time>2026-03-22T08:24:11.999Z</time></trkpt><trkpt lat="43.509045079992234" lon="1.7258772642826092"><ele>200.0</ele><time>2026-03-22T08:24:12.999Z</time></trkpt><trkpt lat="43.50921571310537" lon="1.7260525627677212"><ele>200.0</ele><time>2026-03-22T08:24:13.999Z</time></trkpt><trkpt lat="43.50938635928906" lon="1.7262305402302154"><ele>200.0</ele><time>2026-03-22T08:24:14.999Z</time></trkpt><trkpt lat="43.50955218728298" lon="1.726405198334682"><ele>200.33333333333334</ele><time>2026-03-22T08:24:15.999Z</time></trkpt><trkpt lat="43.50971430136955" lon="1.7265724744789543"><ele>200.66666666666669</ele><time>2026-03-22T08:24:16.999Z</time></trkpt><trkpt lat="43.50987201587808" lon="1.7267347865520057"><ele>201.0</ele><time>2026-03-22T08:24:17.999Z</time></trkpt><trkpt lat="43.51002437808458" lon="1.7269017790322012"><ele>200.0</ele><time>2026-03-22T08:24:18.999Z</time></trkpt><trkpt lat="43.51017474122628" lon="1.727068057783708"><ele>199.0</ele><time>2026-03-22T08:24:19.999Z</time></trkpt><trkpt lat="43.51032417907592" lon="1.7272247608843443"><ele>198.0</ele><time>2026-03-22T08:24:20.999Z</time></trkpt><trkpt lat="43.510471641834144" lon="1.727380695636768"><ele>198.0</ele><time>2026-03-22T08:24:21.999Z</time></trkpt><trkpt lat="43.510623109379665" lon="1.7275402688591013"><ele>198.0</ele><time>2026-03-22T08:24:22.999Z</time></trkpt><trkpt lat="43.51079705953155" lon="1.7277178310735182"><ele>198.0</ele><time>2026-03-22T08:24:23.999Z</time></trkpt><trkpt lat="43.51097619634053" lon="1.7279095394656512"><ele>197.0</ele><time>2026-03-22T08:24:24.999Z</time></trkpt><trkpt lat="43.511156079399875" lon="1.7281071492275188"><ele>196.0</ele><time>2026-03-22T08:24:25.999Z</time></trkpt><trkpt lat="43.511337877298644" lon="1.7283067553964433"><ele>195.66666666666666</ele><time>2026-03-22T08:24:26.999Z</time></trkpt><trkpt lat="43.511495033348915" lon="1.7284846094261834"><ele>195.33333333333331</ele><time>2026-03-22T08:24:27.999Z</time></trkpt><trkpt lat="43.51165810447921" lon="1.7286612419981322"><ele>195.0</ele><time>2026-03-22T08:24:28.999Z</time></trkpt><trkpt lat="43.51182111991783" lon="1.7288394747654254"><ele>194.66666666666669</ele><time>2026-03-22T08:24:29.999Z</time></trkpt><trkpt lat="43.511989692605155" lon="1.729022869251721"><ele>194.33333333333334</ele><time>2026-03-22T08:24:30.999Z</time></trkpt><trkpt lat="43.5121491804561" lon="1.729206105827996"><ele>194.0</ele><time>2026-03-22T08:24:31.999Z</time></trkpt><trkpt lat="43.51230812752851" lon="1.7293814213152825"><ele>194.0</ele><time>2026-03-22T08:24:32.999Z</time></trkpt><trkpt lat="43.512462846401604" lon="1.7295455916129934"><ele>194.0</ele><time>2026-03-22T08:24:33.999Z</time></trkpt><trkpt lat="43.51261748427693" lon="1.7297305870756505"><ele>194.0</ele><time>2026-03-22T08:24:34.999Z</time></trkpt><trkpt lat="43.512791507328586" lon="1.7299212920767395"><ele>194.33333333333334</ele><time>2026-03-22T08:24:35.999Z</time></trkpt><trkpt lat="43.512937559012805" lon="1.7300821258484438"><ele>194.66666666666669</ele><time>2026-03-22T08:24:37Z</time></trkpt><trkpt lat="43.51308510325637" lon="1.7302446028204679"><ele>195.0</ele><time>2026-03-22T08:24:38Z</time></trkpt><trkpt lat="43.51323923103751" lon="1.730414329928898"><ele>195.0</ele><time>2026-03-22T08:24:39Z</time></trkpt><trkpt lat="43.51340475864497" lon="1.730596611075726"><ele>195.0</ele><time>2026-03-22T08:24:40Z</time></trkpt><trkpt lat="43.51357370034191" lon="1.730760055475512"><ele>195.0</ele><time>2026-03-22T08:24:41Z</time></trkpt><trkpt lat="43.5137203622147" lon="1.7309331626440945"><ele>194.66666666666669</ele><time>2026-03-22T08:24:42Z</time></trkpt><trkpt lat="43.513867140473266" lon="1.7310941962915247"><ele>194.33333333333334</ele><time>2026-03-22T08:24:43Z</time></trkpt><trkpt lat="43.514014529719226" lon="1.7312522634901772"><ele>194.0</ele><time>2026-03-22T08:24:44Z</time></trkpt><trkpt lat="43.51415632316739" lon="1.7314084204325018"><ele>194.0</ele><time>2026-03-22T08:24:45Z</time></trkpt><trkpt lat="43.51430406873207" lon="1.7315706602599215"><ele>194.0</ele><time>2026-03-22T08:24:46Z</time></trkpt><trkpt lat="43.51445340256473" lon="1.7317337682523277"><ele>194.0</ele><time>2026-03-22T08:24:47Z</time></trkpt><trkpt lat="43.51460283778719" lon="1.731899132012577"><ele>193.66666666666669</ele><time>2026-03-22T08:24:48Z</time></trkpt><trkpt lat="43.514753875226184" lon="1.7320659998753292"><ele>193.33333333333331</ele><time>2026-03-22T08:24:49Z</time></trkpt><trkpt lat="43.5149027284637" lon="1.7322338804640665"><ele>193.0</ele><time>2026-03-22T08:24:50Z</time></trkpt><trkpt lat="43.51505218545294" lon="1.7323960570390444"><ele>193.0</ele><time>2026-03-22T08:24:51Z</time></trkpt><trkpt lat="43.51519537411862" lon="1.7325573035909332"><ele>193.0</ele><time>2026-03-22T08:24:52Z</time></trkpt><trkpt lat="43.51534428039476" lon="1.732722230140069"><ele>193.0</ele><time>2026-03-22T08:24:53Z</time></trkpt><trkpt lat="43.51549465808163" lon="1.7328932943156208"><ele>194.0</ele><time>2026-03-22T08:24:54Z</time></trkpt><trkpt lat="43.515646961192054" lon="1.7330625182266335"><ele>195.0</ele><time>2026-03-22T08:24:55Z</time></trkpt><trkpt lat="43.515803437362905" lon="1.733234351176763"><ele>196.0</ele><time>2026-03-22T08:24:56Z</time></trkpt><trkpt lat="43.5159453903785" lon="1.733398768579884"><ele>196.33333333333331</ele><time>2026-03-22T08:24:57Z</time></trkpt><trkpt lat="43.516088906975114" lon="1.7335639669640213"><ele>196.66666666666669</ele><time>2026-03-22T08:24:58Z</time></trkpt><trkpt lat="43.51623641228358" lon="1.7337290426725886"><ele>197.0</ele><time>2026-03-22T08:24:59Z</time></trkpt><trkpt lat="43.516385821262624" lon="1.7338861932354745"><ele>198.66666666666669</ele><time>2026-03-22T08:25:00Z</time></trkpt><trkpt lat="43.516532786406536" lon="1.7340442737566606"><ele>200.33333333333331</ele><time>2026-03-22T08:25:01Z</time></trkpt><trkpt lat="43.51668122154776" lon="1.734204354958882"><ele>202.0</ele><time>2026-03-22T08:25:02Z</time></trkpt><trkpt lat="43.51682606883949" lon="1.7343629122718385"><ele>203.0</ele><time>2026-03-22T08:25:03Z</time></trkpt><trkpt lat="43.51697230841724" lon="1.7345268376481335"><ele>204.0</ele><time>2026-03-22T08:25:04Z</time></trkpt><trkpt lat="43.51712433361044" lon="1.7346904157694756"><ele>205.0</ele><time>2026-03-22T08:25:05Z</time></trkpt><trkpt lat="43.517278684928264" lon="1.734855217283701"><ele>206.66666666666666</ele><time>2026-03-22T08:25:06Z</time></trkpt><trkpt lat="43.51743597295835" lon="1.7350305331461984"><ele>208.33333333333331</ele><time>2026-03-22T08:25:07Z</time></trkpt><trkpt lat="43.51759805678487" lon="1.7352082428782156"><ele>210.0</ele><time>2026-03-22T08:25:08Z</time></trkpt><trkpt lat="43.51775611630548" lon="1.7353788892701985"><ele>209.66666666666669</ele><time>2026-03-22T08:25:09Z</time></trkpt><trkpt lat="43.51791541480102" lon="1.7355540231832693"><ele>209.33333333333334</ele><time>2026-03-22T08:25:10Z</time></trkpt><trkpt lat="43.51807845138841" lon="1.7357330203854708"><ele>209.0</ele><time>2026-03-22T08:25:11Z</time></trkpt><trkpt lat="43.51824202064722" lon="1.7359148835085596"><ele>209.33333333333334</ele><time>2026-03-22T08:25:12Z</time></trkpt><trkpt lat="43.51840556038285" lon="1.7360916155484618"><ele>209.66666666666669</ele><time>2026-03-22T08:25:13Z</time></trkpt><trkpt lat="43.51855698411008" lon="1.7362570912928257"><ele>210.0</ele><time>2026-03-22T08:25:14Z</time></trkpt><trkpt lat="43.51870627919321" lon="1.7364199820097963"><ele>210.66666666666669</ele><time>2026-03-22T08:25:15Z</time></trkpt><trkpt lat="43.51885123443728" lon="1.7365806509842927"><ele>211.33333333333334</ele><time>2026-03-22T08:25:16Z</time></trkpt><trkpt lat="43.519005758998055" lon="1.7367519995420677"><ele>212.0</ele><time>2026-03-22T08:25:17Z</time></trkpt><trkpt lat="43.51916202886695" lon="1.7369285966457138"><ele>212.33333333333334</ele><time>2026-03-22T08:25:18Z</time></trkpt><trkpt lat="43.51932039234999" lon="1.7371076785670339"><ele>212.66666666666669</ele><time>2026-03-22T08:25:19Z</time></trkpt><trkpt lat="43.519488070217754" lon="1.7372863454569956"><ele>213.0</ele><time>2026-03-22T08:25:20Z</time></trkpt><trkpt lat="43.519658977334466" lon="1.737476401476926"><ele>213.0</ele><time>2026-03-22T08:25:21Z</time></trkpt><trkpt lat="43.51983457050111" lon="1.7376686250329518"><ele>213.0</ele><time>2026-03-22T08:25:22Z</time></trkpt><trkpt lat="43.52000058471163" lon="1.7378583579475135"><ele>213.0</ele><time>2026-03-22T08:25:23Z</time></trkpt><trkpt lat="43.52016186577817" lon="1.7380370148467679"><ele>213.0</ele><time>2026-03-22T08:25:24Z</time></trkpt><trkpt lat="43.52031579120891" lon="1.7382084757545344"><ele>213.0</ele><time>2026-03-22T08:25:25Z</time></trkpt><trkpt lat="43.52046991635747" lon="1.7383799248760314"><ele>213.0</ele><time>2026-03-22T08:25:26Z</time></trkpt><trkpt lat="43.52062033082533" lon="1.7385483325455864"><ele>214.33333333333331</ele><time>2026-03-22T08:25:27Z</time></trkpt><trkpt lat="43.52076995710348" lon="1.7387128209041844"><ele>215.66666666666666</ele><time>2026-03-22T08:25:28Z</time></trkpt><trkpt lat="43.52091601252222" lon="1.7388749217768944"><ele>217.0</ele><time>2026-03-22T08:25:29Z</time></trkpt><trkpt lat="43.52106075827863" lon="1.7390318270879035"><ele>217.0</ele><time>2026-03-22T08:25:30Z</time></trkpt><trkpt lat="43.521189716030406" lon="1.7391764154115223"><ele>217.0</ele><time>2026-03-22T08:25:31Z</time></trkpt><trkpt lat="43.52131470566957" lon="1.7393133750961423"><ele>217.0</ele><time>2026-03-22T08:25:32Z</time></trkpt><trkpt lat="43.52143112294234" lon="1.739435304847971"><ele>217.33333333333331</ele><time>2026-03-22T08:25:33Z</time></trkpt><trkpt lat="43.52155068255874" lon="1.7395506797050642"><ele>217.66666666666669</ele><time>2026-03-22T08:25:34Z</time></trkpt><trkpt lat="43.52168385587042" lon="1.7396421391742236"><ele>218.0</ele><time>2026-03-22T08:25:35Z</time></trkpt><trkpt lat="43.521831121816675" lon="1.7397103379877799"><ele>218.0</ele><time>2026-03-22T08:25:36Z</time></trkpt><trkpt lat="43.52200084113057" lon="1.7397571125236055"><ele>218.0</ele><time>2026-03-22T08:25:37Z</time></trkpt><trkpt lat="43.52218768083768" lon="1.73979311924768"><ele>218.0</ele><time>2026-03-22T08:25:38Z</time></trkpt><trkpt lat="43.52236114338084" lon="1.7398189625211875"><ele>217.66666666666669</ele><time>2026-03-22T08:25:39Z</time></trkpt><trkpt lat="43.522516866097305" lon="1.739843686733908"><ele>217.33333333333331</ele><time>2026-03-22T08:25:40Z</time></trkpt><trkpt lat="43.52266467007352" lon="1.7398623139286324"><ele>217.0</ele><time>2026-03-22T08:25:41Z</time></trkpt><trkpt lat="43.52281979371468" lon="1.739883611120669"><ele>217.75</ele><time>2026-03-22T08:25:42Z</time></trkpt><trkpt lat="43.522959006742305" lon="1.7398988796595538"><ele>218.5</ele><time>2026-03-22T08:25:43Z</time></trkpt><trkpt lat="43.52309870407713" lon="1.739932177806427"><ele>219.25</ele><time>2026-03-22T08:25:44Z</time></trkpt><trkpt lat="43.523207302782495" lon="1.739963124203427"><ele>220.0</ele><time>2026-03-22T08:25:45Z</time></trkpt><trkpt lat="43.523326797152734" lon="1.7400023277774201"><ele>220.0</ele><time>2026-03-22T08:25:46Z</time></trkpt><trkpt lat="43.5234305980838" lon="1.740083756741528"><ele>220.0</ele><time>2026-03-22T08:25:47Z</time></trkpt><trkpt lat="43.52351864720151" lon="1.7401862810759123"><ele>220.0</ele><time>2026-03-22T08:25:48Z</time></trkpt><trkpt lat="43.523592273821755" lon="1.740304093594582"><ele>220.0</ele><time>2026-03-22T08:25:49Z</time></trkpt><trkpt lat="43.52364921060823" lon="1.7404311209305237"><ele>221.0</ele><time>2026-03-22T08:25:50Z</time></trkpt><trkpt lat="43.52368006775741" lon="1.7405716872744992"><ele>222.0</ele><time>2026-03-22T08:25:51Z</time></trkpt><trkpt lat="43.52368135951485" lon="1.7407325515017447"><ele>223.0</ele><time>2026-03-22T08:25:52Z</time></trkpt><trkpt lat="43.52366796582368" lon="1.7409297362259093"><ele>224.0</ele><time>2026-03-22T08:25:53Z</time></trkpt><trkpt lat="43.523662315325005" lon="1.74114507667989"><ele>225.66666666666669</ele><time>2026-03-22T08:25:54Z</time></trkpt><trkpt lat="43.523661742174376" lon="1.7413841838673496"><ele>227.33333333333331</ele><time>2026-03-22T08:25:55Z</time></trkpt><trkpt lat="43.523651975038284" lon="1.741628128762212"><ele>229.0</ele><time>2026-03-22T08:25:56Z</time></trkpt><trkpt lat="43.52364370119162" lon="1.741876241819325"><ele>229.33333333333331</ele><time>2026-03-22T08:25:57Z</time></trkpt><trkpt lat="43.523639515825614" lon="1.7421205528569144"><ele>229.66666666666669</ele><time>2026-03-22T08:25:57.999Z</time></trkpt><trkpt lat="43.52363443485577" lon="1.7423633450389133"><ele>230.0</ele><time>2026-03-22T08:25:58.999Z</time></trkpt><trkpt lat="43.52362007977171" lon="1.7425869061283683"><ele>229.33333333333334</ele><time>2026-03-22T08:25:59.999Z</time></trkpt><trkpt lat="43.52361817115571" lon="1.7428181379879855"><ele>228.66666666666669</ele><time>2026-03-22T08:26:00.999Z</time></trkpt><trkpt lat="43.5236135441459" lon="1.7430411919854898"><ele>228.0</ele><time>2026-03-22T08:26:01.999Z</time></trkpt><trkpt lat="43.5236200241316" lon="1.7432584202651162"><ele>228.0</ele><time>2026-03-22T08:26:02.999Z</time></trkpt><trkpt lat="43.52361698132118" lon="1.7434896729810085"><ele>228.0</ele><time>2026-03-22T08:26:03.999Z</time></trkpt><trkpt lat="43.523604141431285" lon="1.743717050603686"><ele>228.0</ele><time>2026-03-22T08:26:04.999Z</time></trkpt><trkpt lat="43.5235970793424" lon="1.743937798259042"><ele>227.66666666666669</ele><time>2026-03-22T08:26:05.999Z</time></trkpt><trkpt lat="43.52358783806604" lon="1.7441703579636934"><ele>227.33333333333334</ele><time>2026-03-22T08:26:06.999Z</time></trkpt><trkpt lat="43.52358338353763" lon="1.7443969627468494"><ele>227.0</ele><time>2026-03-22T08:26:07.999Z</time></trkpt><trkpt lat="43.52357832001893" lon="1.7446161149713666"><ele>227.0</ele><time>2026-03-22T08:26:08.999Z</time></trkpt><trkpt lat="43.52357070692999" lon="1.7448376874599425"><ele>227.0</ele><time>2026-03-22T08:26:09.999Z</time></trkpt><trkpt lat="43.5235653250631" lon="1.745060231610909"><ele>227.0</ele><time>2026-03-22T08:26:10.999Z</time></trkpt><trkpt lat="43.52356060705501" lon="1.7452715193998518"><ele>227.0</ele><time>2026-03-22T08:26:11.999Z</time></trkpt><trkpt lat="43.52355623163118" lon="1.7454672799083526"><ele>227.0</ele><time>2026-03-22T08:26:12.999Z</time></trkpt><trkpt lat="43.52355266874446" lon="1.745666894285176"><ele>227.0</ele><time>2026-03-22T08:26:13.999Z</time></trkpt><trkpt lat="43.523555282634454" lon="1.7458626054959547"><ele>227.0</ele><time>2026-03-22T08:26:14.999Z</time></trkpt><trkpt lat="43.523570129804995" lon="1.7460480732546302"><ele>227.0</ele><time>2026-03-22T08:26:15.999Z</time></trkpt><trkpt lat="43.523609345506244" lon="1.7462355832655339"><ele>227.0</ele><time>2026-03-22T08:26:16.999Z</time></trkpt><trkpt lat="43.52367694951848" lon="1.746412347966607"><ele>227.0</ele><time>2026-03-22T08:26:17.999Z</time></trkpt><trkpt lat="43.52377530677664" lon="1.7465624185778874"><ele>227.0</ele><time>2026-03-22T08:26:18.999Z</time></trkpt><trkpt lat="43.52389507741349" lon="1.7466901722847235"><ele>227.0</ele><time>2026-03-22T08:26:19.999Z</time></trkpt><trkpt lat="43.524033429450164" lon="1.7467692515438997"><ele>227.0</ele><time>2026-03-22T08:26:20.999Z</time></trkpt><trkpt lat="43.52419774135381" lon="1.7468263641920247"><ele>227.0</ele><time>2026-03-22T08:26:21.999Z</time></trkpt><trkpt lat="43.52439419749772" lon="1.7468516806041754"><ele>228.33333333333334</ele><time>2026-03-22T08:26:22.999Z</time></trkpt><trkpt lat="43.52457524349166" lon="1.7468676883742953"><ele>229.66666666666669</ele><time>2026-03-22T08:26:23.999Z</time></trkpt><trkpt lat="43.524766264027065" lon="1.7469213614843107"><ele>231.0</ele><time>2026-03-22T08:26:24.999Z</time></trkpt><trkpt lat="43.52497543599838" lon="1.7469686487512965"><ele>231.66666666666669</ele><time>2026-03-22T08:26:25.999Z</time></trkpt><trkpt lat="43.525162174946885" lon="1.7470170655693533"><ele>232.33333333333334</ele><time>2026-03-22T08:26:26.999Z</time></trkpt><trkpt lat="43.525344968530035" lon="1.7470499246285685"><ele>233.0</ele><time>2026-03-22T08:26:27.999Z</time></trkpt><trkpt lat="43.525517376822016" lon="1.7470856834141983"><ele>234.66666666666669</ele><time>2026-03-22T08:26:28.999Z</time></trkpt><trkpt lat="43.5256957386138" lon="1.7471202840731959"><ele>236.33333333333331</ele><time>2026-03-22T08:26:29.999Z</time></trkpt><trkpt lat="43.52586757624778" lon="1.747159659240106"><ele>238.0</ele><time>2026-03-22T08:26:30.999Z</time></trkpt><trkpt lat="43.52602302742363" lon="1.7471923137327399"><ele>238.0</ele><time>2026-03-22T08:26:31.999Z</time></trkpt><trkpt lat="43.52616321156416" lon="1.7472247767335642"><ele>238.0</ele><time>2026-03-22T08:26:32.999Z</time></trkpt><trkpt lat="43.52630681881168" lon="1.7472609002602741"><ele>238.0</ele><time>2026-03-22T08:26:33.999Z</time></trkpt><trkpt lat="43.526432140237944" lon="1.7473238631568428"><ele>238.0</ele><time>2026-03-22T08:26:34.999Z</time></trkpt><trkpt lat="43.52654824289281" lon="1.747416966282126"><ele>238.66666666666666</ele><time>2026-03-22T08:26:35.999Z</time></trkpt><trkpt lat="43.52665302004745" lon="1.7475483531800597"><ele>239.33333333333331</ele><time>2026-03-22T08:26:36.999Z</time></trkpt><trkpt lat="43.52674927672184" lon="1.747712503350064"><ele>240.0</ele><time>2026-03-22T08:26:37.999Z</time></trkpt><trkpt lat="43.526830392017395" lon="1.747898309197662"><ele>241.0</ele><time>2026-03-22T08:26:38.999Z</time></trkpt><trkpt lat="43.5268746364011" lon="1.748074958058874"><ele>242.0</ele><time>2026-03-22T08:26:39.999Z</time></trkpt><trkpt lat="43.526896592139714" lon="1.7482595368191214"><ele>243.0</ele><time>2026-03-22T08:26:40.999Z</time></trkpt><trkpt lat="43.52689310486143" lon="1.7484526747651872"><ele>244.0</ele><time>2026-03-22T08:26:41.999Z</time></trkpt><trkpt lat="43.5268704025368" lon="1.7486179889420677"><ele>244.0</ele><time>2026-03-22T08:26:43Z</time></trkpt><trkpt lat="43.52682898643732" lon="1.7487904778292065"><ele>244.0</ele><time>2026-03-22T08:26:44Z</time></trkpt><trkpt lat="43.526770527181526" lon="1.7489596976462398"><ele>244.0</ele><time>2026-03-22T08:26:45Z</time></trkpt><trkpt lat="43.52668618035396" lon="1.749134182356929"><ele>244.0</ele><time>2026-03-22T08:26:46Z</time></trkpt><trkpt lat="43.52657532832407" lon="1.7493412304089044"><ele>243.33333333333331</ele><time>2026-03-22T08:26:47Z</time></trkpt><trkpt lat="43.52647313904869" lon="1.7495345989298958"><ele>242.66666666666669</ele><time>2026-03-22T08:26:48Z</time></trkpt><trkpt lat="43.52636970349563" lon="1.7497447804713293"><ele>242.0</ele><time>2026-03-22T08:26:49Z</time></trkpt><trkpt lat="43.526269349218076" lon="1.749947247303272"><ele>244.66666666666669</ele><time>2026-03-22T08:26:50Z</time></trkpt><trkpt lat="43.52617752021717" lon="1.7501302792179956"><ele>247.33333333333331</ele><time>2026-03-22T08:26:51Z</time></trkpt><trkpt lat="43.526093458067336" lon="1.7503096470106465"><ele>250.0</ele><time>2026-03-22T08:26:52Z</time></trkpt><trkpt lat="43.526008582469686" lon="1.7504819285705429"><ele>250.0</ele><time>2026-03-22T08:26:53Z</time></trkpt><trkpt lat="43.52592437139586" lon="1.7506569402547532"><ele>250.0</ele><time>2026-03-22T08:26:54Z</time></trkpt><trkpt lat="43.52584213105651" lon="1.750833412542644"><ele>250.0</ele><time>2026-03-22T08:26:55Z</time></trkpt><trkpt lat="43.52575495294172" lon="1.751016951662308"><ele>249.0</ele><time>2026-03-22T08:26:56Z</time></trkpt><trkpt lat="43.52566690954258" lon="1.7511958984439464"><ele>248.0</ele><time>2026-03-22T08:26:57Z</time></trkpt><trkpt lat="43.525579267884964" lon="1.7513772912892585"><ele>247.0</ele><time>2026-03-22T08:26:58Z</time></trkpt><trkpt lat="43.52549176817999" lon="1.7515552928354794"><ele>247.0</ele><time>2026-03-22T08:26:59Z</time></trkpt><trkpt lat="43.525413143451516" lon="1.7517146512143584"><ele>247.0</ele><time>2026-03-22T08:27:00Z</time></trkpt><trkpt lat="43.5253406227173" lon="1.751863145075808"><ele>247.0</ele><time>2026-03-22T08:27:01Z</time></trkpt><trkpt lat="43.52527056096408" lon="1.7520058394789155"><ele>247.0</ele><time>2026-03-22T08:27:02Z</time></trkpt><trkpt lat="43.5252082314522" lon="1.7521328357002923"><ele>248.33333333333331</ele><time>2026-03-22T08:27:03Z</time></trkpt><trkpt lat="43.525151293402104" lon="1.7522528459912188"><ele>249.66666666666666</ele><time>2026-03-22T08:27:04Z</time></trkpt><trkpt lat="43.52507593351665" lon="1.752333384340504"><ele>251.0</ele><time>2026-03-22T08:27:05Z</time></trkpt><trkpt lat="43.52503210354802" lon="1.7524087114893023"><ele>252.33333333333331</ele><time>2026-03-22T08:27:06Z</time></trkpt><trkpt lat="43.52493149820001" lon="1.7524734720046315"><ele>253.66666666666666</ele><time>2026-03-22T08:27:08Z</time></trkpt><trkpt lat="43.52486741072273" lon="1.7525014840079005"><ele>255.0</ele><time>2026-03-22T08:27:09Z</time></trkpt><trkpt lat="43.52477578204876" lon="1.7524981096727437"><ele>255.0</ele><time>2026-03-22T08:27:10Z</time></trkpt><trkpt lat="43.52470291228601" lon="1.752475512475963"><ele>255.0</ele><time>2026-03-22T08:27:11Z</time></trkpt><trkpt lat="43.52463564508651" lon="1.7524712543825265"><ele>255.0</ele><time>2026-03-22T08:27:12Z</time></trkpt><trkpt lat="43.52457294520812" lon="1.752514254528239"><ele>255.0</ele><time>2026-03-22T08:27:13Z</time></trkpt><trkpt lat="43.52452523076944" lon="1.7527019732157383"><ele>255.0</ele><time>2026-03-22T08:27:15Z</time></trkpt><trkpt lat="43.52455025794455" lon="1.7528485900442239"><ele>256.5</ele><time>2026-03-22T08:27:16Z</time></trkpt><trkpt lat="43.52455935247239" lon="1.752989389546754"><ele>258.0</ele><time>2026-03-22T08:27:17Z</time></trkpt><trkpt lat="43.524553598333306" lon="1.753144601793302"><ele>259.5</ele><time>2026-03-22T08:27:18Z</time></trkpt><trkpt lat="43.52450258335257" lon="1.753317389643717"><ele>261.0</ele><time>2026-03-22T08:27:19Z</time></trkpt><trkpt lat="43.52446732934722" lon="1.7535016636928882"><ele>261.0</ele><time>2026-03-22T08:27:20Z</time></trkpt><trkpt lat="43.52444434137586" lon="1.753693055658315"><ele>261.0</ele><time>2026-03-22T08:27:21Z</time></trkpt><trkpt lat="43.52443674688478" lon="1.7539087610357402"><ele>261.0</ele><time>2026-03-22T08:27:22Z</time></trkpt><trkpt lat="43.524433356387355" lon="1.754099339794813"><ele>261.0</ele><time>2026-03-22T08:27:23Z</time></trkpt><trkpt lat="43.52443160609893" lon="1.7542850910366448"><ele>261.25</ele><time>2026-03-22T08:27:24Z</time></trkpt><trkpt lat="43.52443024945786" lon="1.7544795625486749"><ele>261.5</ele><time>2026-03-22T08:27:25Z</time></trkpt><trkpt lat="43.52443063995736" lon="1.7546727128772763"><ele>261.75</ele><time>2026-03-22T08:27:26Z</time></trkpt><trkpt lat="43.52443804233099" lon="1.754855988099858"><ele>262.0</ele><time>2026-03-22T08:27:27Z</time></trkpt><trkpt lat="43.52445381097263" lon="1.755016462388095"><ele>262.0</ele><time>2026-03-22T08:27:28Z</time></trkpt><trkpt lat="43.52447435112572" lon="1.7551654344214858"><ele>262.0</ele><time>2026-03-22T08:27:29Z</time></trkpt><trkpt lat="43.52449418095746" lon="1.755295639302829"><ele>262.0</ele><time>2026-03-22T08:27:30Z</time></trkpt><trkpt lat="43.524513083344786" lon="1.7554068826302789"><ele>262.0</ele><time>2026-03-22T08:27:31Z</time></trkpt><trkpt lat="43.52454716371989" lon="1.755509532533345"><ele>262.0</ele><time>2026-03-22T08:27:32Z</time></trkpt><trkpt lat="43.52455331778513" lon="1.7556083133232792"><ele>262.0</ele><time>2026-03-22T08:27:33Z</time></trkpt><trkpt lat="43.52456318928478" lon="1.7557132337893167"><ele>261.6</ele><time>2026-03-22T08:27:34Z</time></trkpt><trkpt lat="43.52457491903162" lon="1.7558098312626575"><ele>261.2</ele><time>2026-03-22T08:27:35Z</time></trkpt><trkpt lat="43.524592415112366" lon="1.7559151536968478"><ele>260.8</ele><time>2026-03-22T08:27:36Z</time></trkpt><trkpt lat="43.52461131422269" lon="1.756042144769065"><ele>260.4</ele><time>2026-03-22T08:27:37Z</time></trkpt><trkpt lat="43.52463829708173" lon="1.7561818819741974"><ele>260.0</ele><time>2026-03-22T08:27:38Z</time></trkpt><trkpt lat="43.52466906164767" lon="1.7563335169581633"><ele>260.0</ele><time>2026-03-22T08:27:39Z</time></trkpt><trkpt lat="43.524709954255826" lon="1.7564822293616913"><ele>260.0</ele><time>2026-03-22T08:27:40Z</time></trkpt><trkpt lat="43.52478506916388" lon="1.7566193371429575"><ele>260.0</ele><time>2026-03-22T08:27:41Z</time></trkpt><trkpt lat="43.52485710288999" lon="1.7567297851718844"><ele>260.0</ele><time>2026-03-22T08:27:42Z</time></trkpt><trkpt lat="43.52495188744695" lon="1.7568444211596344"><ele>260.6666666666667</ele><time>2026-03-22T08:27:43Z</time></trkpt><trkpt lat="43.52507622564797" lon="1.756949642625362"><ele>261.3333333333333</ele><time>2026-03-22T08:27:44Z</time></trkpt><trkpt lat="43.52523406589843" lon="1.75702780541898"><ele>262.0</ele><time>2026-03-22T08:27:45Z</time></trkpt><trkpt lat="43.52539764325851" lon="1.7570883094693475"><ele>262.5</ele><time>2026-03-22T08:27:46Z</time></trkpt><trkpt lat="43.52553103227253" lon="1.757149522404478"><ele>263.0</ele><time>2026-03-22T08:27:47Z</time></trkpt><trkpt lat="43.5256577334209" lon="1.75719999182694"><ele>263.5</ele><time>2026-03-22T08:27:48Z</time></trkpt><trkpt lat="43.52579563864976" lon="1.7572484834708846"><ele>264.0</ele><time>2026-03-22T08:27:49Z</time></trkpt><trkpt lat="43.52593410005947" lon="1.7572980045067694"><ele>264.0</ele><time>2026-03-22T08:27:50Z</time></trkpt><trkpt lat="43.5260664042598" lon="1.7573470604991561"><ele>264.0</ele><time>2026-03-22T08:27:51Z</time></trkpt><trkpt lat="43.526197117323406" lon="1.7573932724966008"><ele>264.0</ele><time>2026-03-22T08:27:52Z</time></trkpt><trkpt lat="43.52632425307388" lon="1.75744052090884"><ele>264.0</ele><time>2026-03-22T08:27:53Z</time></trkpt><trkpt lat="43.52644630439604" lon="1.7574858429826787"><ele>264.75</ele><time>2026-03-22T08:27:54Z</time></trkpt><trkpt lat="43.52656588890038" lon="1.757526226356777"><ele>265.5</ele><time>2026-03-22T08:27:55Z</time></trkpt><trkpt lat="43.52668695683068" lon="1.7575709535057675"><ele>266.25</ele><time>2026-03-22T08:27:56Z</time></trkpt><trkpt lat="43.526801537447795" lon="1.7576152133375214"><ele>267.0</ele><time>2026-03-22T08:27:57Z</time></trkpt><trkpt lat="43.52691088558918" lon="1.7576544568007268"><ele>267.0</ele><time>2026-03-22T08:27:58Z</time></trkpt><trkpt lat="43.52701517488708" lon="1.757685981831367"><ele>267.0</ele><time>2026-03-22T08:27:59Z</time></trkpt><trkpt lat="43.527114400520404" lon="1.7577115174798084"><ele>267.0</ele><time>2026-03-22T08:28:00Z</time></trkpt><trkpt lat="43.52719672148359" lon="1.7577566944290486"><ele>267.0</ele><time>2026-03-22T08:28:01Z</time></trkpt><trkpt lat="43.52727686970394" lon="1.7577654055118912"><ele>267.0</ele><time>2026-03-22T08:28:02Z</time></trkpt><trkpt lat="43.52734394307799" lon="1.7577987796916525"><ele>267.0</ele><time>2026-03-22T08:28:03Z</time></trkpt><trkpt lat="43.52741530039379" lon="1.7578301171298845"><ele>268.8</ele><time>2026-03-22T08:28:04Z</time></trkpt><trkpt lat="43.52754080901854" lon="1.7578729326554179"><ele>270.6</ele><time>2026-03-22T08:28:06Z</time></trkpt><trkpt lat="43.52761723685509" lon="1.7578996366312514"><ele>272.40000000000003</ele><time>2026-03-22T08:28:07Z</time></trkpt><trkpt lat="43.52770311449303" lon="1.7579331634980775"><ele>274.2</ele><time>2026-03-22T08:28:07.999Z</time></trkpt><trkpt lat="43.527795202589054" lon="1.757967473568057"><ele>276.0</ele><time>2026-03-22T08:28:08.999Z</time></trkpt><trkpt lat="43.52789257273494" lon="1.75799987890628"><ele>276.6666666666667</ele><time>2026-03-22T08:28:09.999Z</time></trkpt><trkpt lat="43.52799362146453" lon="1.7580336050808225"><ele>277.3333333333333</ele><time>2026-03-22T08:28:10.999Z</time></trkpt><trkpt lat="43.52809571749143" lon="1.7580721901666811"><ele>278.0</ele><time>2026-03-22T08:28:11.999Z</time></trkpt><trkpt lat="43.52818462558473" lon="1.7581120580098046"><ele>278.66666666666663</ele><time>2026-03-22T08:28:12.999Z</time></trkpt><trkpt lat="43.52825781632421" lon="1.7581564042073776"><ele>279.3333333333333</ele><time>2026-03-22T08:28:13.999Z</time></trkpt><trkpt lat="43.52831161001178" lon="1.7582067528357"><ele>280.0</ele><time>2026-03-22T08:28:14.999Z</time></trkpt><trkpt lat="43.52840278503258" lon="1.7582719566297014"><ele>278.8</ele><time>2026-03-22T08:28:16.999Z</time></trkpt><trkpt lat="43.52837290398901" lon="1.7585379691681302"><ele>277.6</ele><time>2026-03-22T08:28:18.999Z</time></trkpt><trkpt lat="43.528400768225644" lon="1.7586326549224047"><ele>276.4</ele><time>2026-03-22T08:28:19.999Z</time></trkpt><trkpt lat="43.52845389509138" lon="1.7586943368996801"><ele>275.2</ele><time>2026-03-22T08:28:20.999Z</time></trkpt><trkpt lat="43.528520406841615" lon="1.758757268163321"><ele>274.0</ele><time>2026-03-22T08:28:21.999Z</time></trkpt><trkpt lat="43.528587389303" lon="1.758832467431159"><ele>274.0</ele><time>2026-03-22T08:28:22.999Z</time></trkpt><trkpt lat="43.528662132939935" lon="1.7589096186417619"><ele>274.0</ele><time>2026-03-22T08:28:23.999Z</time></trkpt><trkpt lat="43.52874600806492" lon="1.7589840024676842"><ele>274.0</ele><time>2026-03-22T08:28:24.999Z</time></trkpt><trkpt lat="43.52883511147497" lon="1.7590548462121438"><ele>274.0</ele><time>2026-03-22T08:28:25.999Z</time></trkpt><trkpt lat="43.52892046147409" lon="1.7591106971866923"><ele>274.0</ele><time>2026-03-22T08:28:26.999Z</time></trkpt><trkpt lat="43.529001473549094" lon="1.7591578782466006"><ele>273.8333333333333</ele><time>2026-03-22T08:28:27.999Z</time></trkpt><trkpt lat="43.5290577293785" lon="1.7592229787052314"><ele>273.66666666666663</ele><time>2026-03-22T08:28:28.999Z</time></trkpt><trkpt lat="43.52913839325712" lon="1.7592605015057168"><ele>273.5</ele><time>2026-03-22T08:28:29.999Z</time></trkpt><trkpt lat="43.5292134511075" lon="1.7593166228288728"><ele>273.3333333333333</ele><time>2026-03-22T08:28:30.999Z</time></trkpt><trkpt lat="43.52928947786355" lon="1.759381380914721"><ele>273.1666666666667</ele><time>2026-03-22T08:28:31.999Z</time></trkpt><trkpt lat="43.529357927044806" lon="1.759463570679571"><ele>273.0</ele><time>2026-03-22T08:28:32.999Z</time></trkpt><trkpt lat="43.52942200342412" lon="1.759543839453495"><ele>273.0</ele><time>2026-03-22T08:28:33.999Z</time></trkpt><trkpt lat="43.52947871260257" lon="1.7596180361924083"><ele>273.0</ele><time>2026-03-22T08:28:34.999Z</time></trkpt><trkpt lat="43.52953122419058" lon="1.7596909567405594"><ele>273.0</ele><time>2026-03-22T08:28:35.999Z</time></trkpt><trkpt lat="43.529579604314655" lon="1.759755810485717"><ele>273.0</ele><time>2026-03-22T08:28:36.999Z</time></trkpt><trkpt lat="43.529645300850625" lon="1.7598553273073356"><ele>273.0</ele><time>2026-03-22T08:28:38.999Z</time></trkpt><trkpt lat="43.52969749520241" lon="1.7599235114035336"><ele>273.0</ele><time>2026-03-22T08:28:40.999Z</time></trkpt><trkpt lat="43.52976030802468" lon="1.7599916538817664"><ele>273.2</ele><time>2026-03-22T08:28:43.999Z</time></trkpt><trkpt lat="43.52978617120599" lon="1.7600744237934163"><ele>273.4</ele><time>2026-03-22T08:28:45.999Z</time></trkpt><trkpt lat="43.52976645110191" lon="1.7601747984866798"><ele>273.59999999999997</ele><time>2026-03-22T08:28:46.999Z</time></trkpt><trkpt lat="43.529706152779866" lon="1.7602787724307567"><ele>273.8</ele><time>2026-03-22T08:28:47.999Z</time></trkpt><trkpt lat="43.52964641777003" lon="1.7604133670571762"><ele>274.0</ele><time>2026-03-22T08:28:49Z</time></trkpt><trkpt lat="43.52958561408604" lon="1.7605381908515965"><ele>273.8</ele><time>2026-03-22T08:28:50Z</time></trkpt><trkpt lat="43.529525842164674" lon="1.7606663410946655"><ele>273.59999999999997</ele><time>2026-03-22T08:28:51Z</time></trkpt><trkpt lat="43.52946561527764" lon="1.7607927278029036"><ele>273.4</ele><time>2026-03-22T08:28:52Z</time></trkpt><trkpt lat="43.52940928719668" lon="1.760903021363312"><ele>273.2</ele><time>2026-03-22T08:28:53Z</time></trkpt><trkpt lat="43.52936121418638" lon="1.7609977984039102"><ele>273.0</ele><time>2026-03-22T08:28:54Z</time></trkpt><trkpt lat="43.52932572849635" lon="1.7610697802741717"><ele>273.6</ele><time>2026-03-22T08:28:55Z</time></trkpt><trkpt lat="43.52925548982386" lon="1.7611954361509259"><ele>274.20000000000005</ele><time>2026-03-22T08:28:57Z</time></trkpt><trkpt lat="43.52921479514519" lon="1.7612645167223009"><ele>274.8</ele><time>2026-03-22T08:28:58Z</time></trkpt><trkpt lat="43.52917286914627" lon="1.7613594103489338"><ele>275.40000000000003</ele><time>2026-03-22T08:28:59Z</time></trkpt><trkpt lat="43.529122011952765" lon="1.7614733398476115"><ele>276.0</ele><time>2026-03-22T08:29:00Z</time></trkpt><trkpt lat="43.529065470647595" lon="1.7615996843504111"><ele>276.0</ele><time>2026-03-22T08:29:01Z</time></trkpt><trkpt lat="43.52900169627061" lon="1.7617297737613076"><ele>276.0</ele><time>2026-03-22T08:29:02Z</time></trkpt><trkpt lat="43.52892446840733" lon="1.7618403993374394"><ele>276.0</ele><time>2026-03-22T08:29:03Z</time></trkpt><trkpt lat="43.52886623972482" lon="1.7619913197232404"><ele>276.0</ele><time>2026-03-22T08:29:04Z</time></trkpt><trkpt lat="43.528788976593354" lon="1.762132654591287"><ele>276.0</ele><time>2026-03-22T08:29:05Z</time></trkpt><trkpt lat="43.528704029211085" lon="1.7622736486531747"><ele>276.0</ele><time>2026-03-22T08:29:06Z</time></trkpt><trkpt lat="43.52862503355154" lon="1.7624235655413887"><ele>276.0</ele><time>2026-03-22T08:29:07Z</time></trkpt><trkpt lat="43.52854880569041" lon="1.7625750770877127"><ele>276.0</ele><time>2026-03-22T08:29:08Z</time></trkpt><trkpt lat="43.52847564840022" lon="1.762710260690984"><ele>276.3333333333333</ele><time>2026-03-22T08:29:09Z</time></trkpt><trkpt lat="43.52840915789378" lon="1.7628236367846861"><ele>276.6666666666667</ele><time>2026-03-22T08:29:10Z</time></trkpt><trkpt lat="43.528350261361254" lon="1.7629188405740386"><ele>277.0</ele><time>2026-03-22T08:29:11Z</time></trkpt><trkpt lat="43.52829533189471" lon="1.7629964109339737"><ele>277.33333333333337</ele><time>2026-03-22T08:29:12Z</time></trkpt><trkpt lat="43.52824103031093" lon="1.7630620970389441"><ele>277.6666666666667</ele><time>2026-03-22T08:29:13Z</time></trkpt><trkpt lat="43.5281778557168" lon="1.7631280560993452"><ele>278.0</ele><time>2026-03-22T08:29:14Z</time></trkpt><trkpt lat="43.52811638767916" lon="1.7631980361498008"><ele>278.0</ele><time>2026-03-22T08:29:15Z</time></trkpt><trkpt lat="43.5280615005315" lon="1.7632688818477202"><ele>278.0</ele><time>2026-03-22T08:29:16Z</time></trkpt><trkpt lat="43.527999616015734" lon="1.7633344410232683"><ele>278.0</ele><time>2026-03-22T08:29:17Z</time></trkpt><trkpt lat="43.527924441382915" lon="1.7634105787336"><ele>278.0</ele><time>2026-03-22T08:29:18Z</time></trkpt><trkpt lat="43.527842502517565" lon="1.763502346092903"><ele>278.0</ele><time>2026-03-22T08:29:19Z</time></trkpt><trkpt lat="43.527764282733045" lon="1.763611915181081"><ele>278.5</ele><time>2026-03-22T08:29:20Z</time></trkpt><trkpt lat="43.52768229880497" lon="1.763720776762792"><ele>279.0</ele><time>2026-03-22T08:29:21Z</time></trkpt><trkpt lat="43.527595016525446" lon="1.7638254076839626"><ele>279.5</ele><time>2026-03-22T08:29:22Z</time></trkpt><trkpt lat="43.52749915032683" lon="1.7639277117128902"><ele>280.0</ele><time>2026-03-22T08:29:23Z</time></trkpt><trkpt lat="43.52740658390134" lon="1.7640271809910226"><ele>280.0</ele><time>2026-03-22T08:29:24Z</time></trkpt><trkpt lat="43.527315756824315" lon="1.7641213965989375"><ele>280.0</ele><time>2026-03-22T08:29:25Z</time></trkpt><trkpt lat="43.527225011526" lon="1.7642130606972015"><ele>280.0</ele><time>2026-03-22T08:29:26Z</time></trkpt><trkpt lat="43.52713002812619" lon="1.764308226539246"><ele>280.0</ele><time>2026-03-22T08:29:27Z</time></trkpt><trkpt lat="43.52703124170566" lon="1.7644021779988655"><ele>278.0</ele><time>2026-03-22T08:29:28Z</time></trkpt><trkpt lat="43.52693679246625" lon="1.7645020228924417"><ele>276.0</ele><time>2026-03-22T08:29:29Z</time></trkpt><trkpt lat="43.52684327092073" lon="1.7646094932479874"><ele>274.0</ele><time>2026-03-22T08:29:30Z</time></trkpt><trkpt lat="43.526758463970175" lon="1.7647215864384493"><ele>272.0</ele><time>2026-03-22T08:29:31Z</time></trkpt><trkpt lat="43.52667758444812" lon="1.7648506435461984"><ele>272.0</ele><time>2026-03-22T08:29:32Z</time></trkpt><trkpt lat="43.52660434182358" lon="1.764997787085154"><ele>272.0</ele><time>2026-03-22T08:29:33Z</time></trkpt><trkpt lat="43.52653847164834" lon="1.765155021288918"><ele>272.0</ele><time>2026-03-22T08:29:34Z</time></trkpt><trkpt lat="43.52649315318125" lon="1.7653215758974312"><ele>272.0</ele><time>2026-03-22T08:29:35Z</time></trkpt><trkpt lat="43.52645981382243" lon="1.7655034913457437"><ele>270.6666666666667</ele><time>2026-03-22T08:29:36Z</time></trkpt><trkpt lat="43.5264366271396" lon="1.765715796078651"><ele>269.3333333333333</ele><time>2026-03-22T08:29:37Z</time></trkpt><trkpt lat="43.526409174261055" lon="1.765936490391082"><ele>268.0</ele><time>2026-03-22T08:29:38Z</time></trkpt><trkpt lat="43.52638941339653" lon="1.766172292233409"><ele>266.66666666666663</ele><time>2026-03-22T08:29:39Z</time></trkpt><trkpt lat="43.52637565045358" lon="1.7664075853950512"><ele>265.3333333333333</ele><time>2026-03-22T08:29:40Z</time></trkpt><trkpt lat="43.52635829708409" lon="1.7666614762234771"><ele>264.0</ele><time>2026-03-22T08:29:41Z</time></trkpt><trkpt lat="43.52634114775547" lon="1.7669135864063328"><ele>263.3333333333333</ele><time>2026-03-22T08:29:42Z</time></trkpt><trkpt lat="43.52632325958061" lon="1.7671611187631828"><ele>262.66666666666663</ele><time>2026-03-22T08:29:43Z</time></trkpt><trkpt lat="43.526309032629584" lon="1.7673937404255697"><ele>262.0</ele><time>2026-03-22T08:29:44Z</time></trkpt><trkpt lat="43.52629242203697" lon="1.767610093281685"><ele>261.0</ele><time>2026-03-22T08:29:45Z</time></trkpt><trkpt lat="43.526274757853315" lon="1.767830876691631"><ele>260.0</ele><time>2026-03-22T08:29:46Z</time></trkpt><trkpt lat="43.526260846569144" lon="1.768051347506204"><ele>259.0</ele><time>2026-03-22T08:29:47Z</time></trkpt><trkpt lat="43.52623890960079" lon="1.7682974133491023"><ele>259.66666666666663</ele><time>2026-03-22T08:29:48Z</time></trkpt><trkpt lat="43.5262220102789" lon="1.7685285780231967"><ele>260.3333333333333</ele><time>2026-03-22T08:29:49Z</time></trkpt><trkpt lat="43.52620226860166" lon="1.7687481765720403"><ele>261.0</ele><time>2026-03-22T08:29:50Z</time></trkpt><trkpt lat="43.52618389285472" lon="1.768970136131033"><ele>261.0</ele><time>2026-03-22T08:29:51Z</time></trkpt><trkpt lat="43.52615973873788" lon="1.7691942263725136"><ele>261.0</ele><time>2026-03-22T08:29:52Z</time></trkpt><trkpt lat="43.52611064182931" lon="1.7694312775679188"><ele>261.0</ele><time>2026-03-22T08:29:53Z</time></trkpt><trkpt lat="43.526046552119105" lon="1.7696520671450449"><ele>260.6666666666667</ele><time>2026-03-22T08:29:54Z</time></trkpt><trkpt lat="43.52596215305855" lon="1.7698607753454256"><ele>260.33333333333337</ele><time>2026-03-22T08:29:55Z</time></trkpt><trkpt lat="43.52585507652381" lon="1.770064105375914"><ele>260.0</ele><time>2026-03-22T08:29:56Z</time></trkpt><trkpt lat="43.52573972740185" lon="1.7702422716641892"><ele>258.33333333333337</ele><time>2026-03-22T08:29:57Z</time></trkpt><trkpt lat="43.52562389632897" lon="1.7704188129419742"><ele>256.6666666666667</ele><time>2026-03-22T08:29:58Z</time></trkpt><trkpt lat="43.525515465187475" lon="1.7705898158749431"><ele>255.0</ele><time>2026-03-22T08:29:59Z</time></trkpt><trkpt lat="43.52541236308479" lon="1.7707575985096617"><ele>255.66666666666669</ele><time>2026-03-22T08:30:00Z</time></trkpt><trkpt lat="43.52530448467971" lon="1.7709349331658237"><ele>256.33333333333337</ele><time>2026-03-22T08:30:01Z</time></trkpt><trkpt lat="43.52520103415973" lon="1.7711091432876755"><ele>257.0</ele><time>2026-03-22T08:30:02Z</time></trkpt><trkpt lat="43.52510770523506" lon="1.7712734172198747"><ele>257.0</ele><time>2026-03-22T08:30:03Z</time></trkpt><trkpt lat="43.52501633911803" lon="1.7714365884022805"><ele>257.0</ele><time>2026-03-22T08:30:04Z</time></trkpt><trkpt lat="43.52493373059415" lon="1.771592842802893"><ele>257.0</ele><time>2026-03-22T08:30:05Z</time></trkpt><trkpt lat="43.5248619788886" lon="1.771746110059528"><ele>257.0</ele><time>2026-03-22T08:30:06Z</time></trkpt><trkpt lat="43.52479276009224" lon="1.7718892774089536"><ele>257.25</ele><time>2026-03-22T08:30:07Z</time></trkpt><trkpt lat="43.524714928010184" lon="1.772043452640419"><ele>257.5</ele><time>2026-03-22T08:30:08Z</time></trkpt><trkpt lat="43.52463331363839" lon="1.77222140039193"><ele>257.75</ele><time>2026-03-22T08:30:09Z</time></trkpt><trkpt lat="43.52457970215629" lon="1.7724074167785713"><ele>258.0</ele><time>2026-03-22T08:30:10Z</time></trkpt><trkpt lat="43.524554101928594" lon="1.772596313853194"><ele>257.6666666666667</ele><time>2026-03-22T08:30:11Z</time></trkpt><trkpt lat="43.52453411690093" lon="1.7728173135884102"><ele>257.33333333333337</ele><time>2026-03-22T08:30:12Z</time></trkpt><trkpt lat="43.52450999914479" lon="1.7730608164990418"><ele>257.0</ele><time>2026-03-22T08:30:12.999Z</time></trkpt><trkpt lat="43.52448736629946" lon="1.7733168563539032"><ele>255.66666666666669</ele><time>2026-03-22T08:30:13.999Z</time></trkpt><trkpt lat="43.52446966215715" lon="1.7735728757718205"><ele>254.33333333333331</ele><time>2026-03-22T08:30:14.999Z</time></trkpt><trkpt lat="43.52445023651707" lon="1.773840095437243"><ele>253.0</ele><time>2026-03-22T08:30:15.999Z</time></trkpt><trkpt lat="43.524437342078684" lon="1.7740983502653875"><ele>251.66666666666666</ele><time>2026-03-22T08:30:16.999Z</time></trkpt><trkpt lat="43.52443026642416" lon="1.7743617365404212"><ele>250.33333333333331</ele><time>2026-03-22T08:30:17.999Z</time></trkpt><trkpt lat="43.52444052544349" lon="1.7746473983404643"><ele>249.0</ele><time>2026-03-22T08:30:18.999Z</time></trkpt><trkpt lat="43.524468554531325" lon="1.7749372517388955"><ele>249.33333333333331</ele><time>2026-03-22T08:30:19.999Z</time></trkpt><trkpt lat="43.524504147724336" lon="1.7752207311145642"><ele>249.66666666666666</ele><time>2026-03-22T08:30:20.999Z</time></trkpt><trkpt lat="43.52454413821922" lon="1.7754868932901393"><ele>250.0</ele><time>2026-03-22T08:30:21.999Z</time></trkpt><trkpt lat="43.52458895739852" lon="1.775736852964831"><ele>248.66666666666666</ele><time>2026-03-22T08:30:22.999Z</time></trkpt><trkpt lat="43.524638491923874" lon="1.7759790620792544"><ele>247.33333333333331</ele><time>2026-03-22T08:30:23.999Z</time></trkpt><trkpt lat="43.52469554574495" lon="1.7762236801117162"><ele>246.0</ele><time>2026-03-22T08:30:24.999Z</time></trkpt><trkpt lat="43.52476107621792" lon="1.7764546111649122"><ele>246.0</ele><time>2026-03-22T08:30:25.999Z</time></trkpt><trkpt lat="43.524831731783664" lon="1.7766705737706998"><ele>246.0</ele><time>2026-03-22T08:30:26.999Z</time></trkpt><trkpt lat="43.524909023172086" lon="1.7768644212599407"><ele>246.0</ele><time>2026-03-22T08:30:27.999Z</time></trkpt><trkpt lat="43.52498924356488" lon="1.7770518849357475"><ele>246.33333333333331</ele><time>2026-03-22T08:30:28.999Z</time></trkpt><trkpt lat="43.525072693017876" lon="1.777247852268687"><ele>246.66666666666666</ele><time>2026-03-22T08:30:29.999Z</time></trkpt><trkpt lat="43.52513443813679" lon="1.7774316080906905"><ele>247.0</ele><time>2026-03-22T08:30:30.999Z</time></trkpt><trkpt lat="43.52516195249977" lon="1.7776219818742653"><ele>245.33333333333331</ele><time>2026-03-22T08:30:31.999Z</time></trkpt><trkpt lat="43.525158420167514" lon="1.7778276125741062"><ele>243.66666666666669</ele><time>2026-03-22T08:30:32.999Z</time></trkpt><trkpt lat="43.525129536126244" lon="1.77806737679043"><ele>242.0</ele><time>2026-03-22T08:30:33.999Z</time></trkpt><trkpt lat="43.52509994509669" lon="1.7783110342339792"><ele>240.0</ele><time>2026-03-22T08:30:34.999Z</time></trkpt><trkpt lat="43.525062538448616" lon="1.7785405167031856"><ele>238.0</ele><time>2026-03-22T08:30:35.999Z</time></trkpt><trkpt lat="43.525024781497414" lon="1.7787814836719598"><ele>236.0</ele><time>2026-03-22T08:30:36.999Z</time></trkpt><trkpt lat="43.52498800760151" lon="1.7790221300410722"><ele>236.0</ele><time>2026-03-22T08:30:37.999Z</time></trkpt><trkpt lat="43.52495486432067" lon="1.7792524190970314"><ele>236.0</ele><time>2026-03-22T08:30:38.999Z</time></trkpt><trkpt lat="43.52492315464787" lon="1.779486907993911"><ele>236.0</ele><time>2026-03-22T08:30:39.999Z</time></trkpt><trkpt lat="43.524902267074864" lon="1.7797204500396853"><ele>234.0</ele><time>2026-03-22T08:30:40.999Z</time></trkpt><trkpt lat="43.52490669668132" lon="1.7799597061802697"><ele>232.0</ele><time>2026-03-22T08:30:41.999Z</time></trkpt><trkpt lat="43.52494881752042" lon="1.7802321923478168"><ele>230.0</ele><time>2026-03-22T08:30:42.999Z</time></trkpt><trkpt lat="43.52500209913202" lon="1.7805185497396572"><ele>228.0</ele><time>2026-03-22T08:30:43.999Z</time></trkpt><trkpt lat="43.525047252220986" lon="1.7807828373789831"><ele>226.0</ele><time>2026-03-22T08:30:44.999Z</time></trkpt><trkpt lat="43.52508433435585" lon="1.7810693470096204"><ele>224.0</ele><time>2026-03-22T08:30:45.999Z</time></trkpt><trkpt lat="43.525108379914975" lon="1.7813758895810037"><ele>222.5</ele><time>2026-03-22T08:30:46.999Z</time></trkpt><trkpt lat="43.52511639151842" lon="1.7817023183813563"><ele>221.0</ele><time>2026-03-22T08:30:47.999Z</time></trkpt><trkpt lat="43.52508615398994" lon="1.7820450768265745"><ele>220.33333333333334</ele><time>2026-03-22T08:30:48.999Z</time></trkpt><trkpt lat="43.525060465670364" lon="1.782281602937505"><ele>219.66666666666669</ele><time>2026-03-22T08:30:49.999Z</time></trkpt><trkpt lat="43.52502243585012" lon="1.7825815765534807"><ele>219.0</ele><time>2026-03-22T08:30:50.999Z</time></trkpt><trkpt lat="43.52497458131517" lon="1.7828652435092442"><ele>218.66666666666669</ele><time>2026-03-22T08:30:51.999Z</time></trkpt><trkpt lat="43.52490911461155" lon="1.7831370894325156"><ele>218.33333333333334</ele><time>2026-03-22T08:30:52.999Z</time></trkpt><trkpt lat="43.524842224986166" lon="1.7833894954304454"><ele>218.0</ele><time>2026-03-22T08:30:53.999Z</time></trkpt><trkpt lat="43.52476951869614" lon="1.7836391449041982"><ele>218.0</ele><time>2026-03-22T08:30:55Z</time></trkpt><trkpt lat="43.52469536174576" lon="1.783865877430301"><ele>218.0</ele><time>2026-03-22T08:30:56Z</time></trkpt><trkpt lat="43.524614866539736" lon="1.784080856886375"><ele>218.0</ele><time>2026-03-22T08:30:57Z</time></trkpt><trkpt lat="43.52451663335585" lon="1.7842986414576956"><ele>219.33333333333334</ele><time>2026-03-22T08:30:58Z</time></trkpt><trkpt lat="43.524416778490696" lon="1.7845002511832218"><ele>220.66666666666669</ele><time>2026-03-22T08:30:59Z</time></trkpt><trkpt lat="43.524344962967085" lon="1.7846889242380306"><ele>222.0</ele><time>2026-03-22T08:31:00Z</time></trkpt><trkpt lat="43.52427615705477" lon="1.7848433942703716"><ele>222.0</ele><time>2026-03-22T08:31:01Z</time></trkpt><trkpt lat="43.5242450579923" lon="1.7850298295379277"><ele>222.0</ele><time>2026-03-22T08:31:02Z</time></trkpt><trkpt lat="43.52424480555842" lon="1.785226379018409"><ele>222.0</ele><time>2026-03-22T08:31:03Z</time></trkpt><trkpt lat="43.52427068443807" lon="1.7854255152809413"><ele>222.0</ele><time>2026-03-22T08:31:04Z</time></trkpt><trkpt lat="43.52432491108031" lon="1.785633093146695"><ele>223.33333333333331</ele><time>2026-03-22T08:31:05Z</time></trkpt><trkpt lat="43.524390936787476" lon="1.7858610864431128"><ele>224.66666666666666</ele><time>2026-03-22T08:31:06Z</time></trkpt><trkpt lat="43.52445681590683" lon="1.7860979095826977"><ele>226.0</ele><time>2026-03-22T08:31:07Z</time></trkpt><trkpt lat="43.52452960316784" lon="1.786360333749442"><ele>225.0</ele><time>2026-03-22T08:31:08Z</time></trkpt><trkpt lat="43.52461183224114" lon="1.7866282113343555"><ele>224.0</ele><time>2026-03-22T08:31:09Z</time></trkpt><trkpt lat="43.52468693624379" lon="1.7868846746030813"><ele>223.0</ele><time>2026-03-22T08:31:10Z</time></trkpt><trkpt lat="43.52475786809389" lon="1.7871224235320358"><ele>222.33333333333331</ele><time>2026-03-22T08:31:11Z</time></trkpt><trkpt lat="43.52481939281077" lon="1.7873481014041348"><ele>221.66666666666669</ele><time>2026-03-22T08:31:12Z</time></trkpt><trkpt lat="43.524895525492866" lon="1.787540033800953"><ele>221.0</ele><time>2026-03-22T08:31:13Z</time></trkpt><trkpt lat="43.52500342683219" lon="1.7877372343571356"><ele>220.66666666666669</ele><time>2026-03-22T08:31:14Z</time></trkpt><trkpt lat="43.52514083235223" lon="1.7879453631966937"><ele>220.33333333333331</ele><time>2026-03-22T08:31:15Z</time></trkpt><trkpt lat="43.52523826878504" lon="1.7881572189507307"><ele>220.0</ele><time>2026-03-22T08:31:16Z</time></trkpt><trkpt lat="43.52531414386579" lon="1.7883701050099003"><ele>218.33333333333331</ele><time>2026-03-22T08:31:17Z</time></trkpt><trkpt lat="43.52537048636414" lon="1.7886081342750948"><ele>216.66666666666669</ele><time>2026-03-22T08:31:18Z</time></trkpt><trkpt lat="43.52542154596964" lon="1.7888722208851708"><ele>215.0</ele><time>2026-03-22T08:31:19Z</time></trkpt><trkpt lat="43.525474922328684" lon="1.7891138752005753"><ele>212.66666666666669</ele><time>2026-03-22T08:31:20Z</time></trkpt><trkpt lat="43.52550915492428" lon="1.7893645211237534"><ele>210.33333333333331</ele><time>2026-03-22T08:31:21Z</time></trkpt><trkpt lat="43.525535463482214" lon="1.7896320511349346"><ele>208.0</ele><time>2026-03-22T08:31:22Z</time></trkpt><trkpt lat="43.52552344743929" lon="1.789915884956067"><ele>210.66666666666666</ele><time>2026-03-22T08:31:23Z</time></trkpt><trkpt lat="43.5254960913163" lon="1.7901880019049168"><ele>213.33333333333331</ele><time>2026-03-22T08:31:24Z</time></trkpt><trkpt lat="43.52545038660622" lon="1.7904499981657798"><ele>216.0</ele><time>2026-03-22T08:31:25Z</time></trkpt><trkpt lat="43.52539793172993" lon="1.7907243898631253"><ele>215.66666666666669</ele><time>2026-03-22T08:31:26Z</time></trkpt><trkpt lat="43.525359768600744" lon="1.7909578817953347"><ele>215.33333333333334</ele><time>2026-03-22T08:31:27Z</time></trkpt><trkpt lat="43.52534249325223" lon="1.791187260126745"><ele>215.0</ele><time>2026-03-22T08:31:28Z</time></trkpt><trkpt lat="43.525351370446316" lon="1.7914606672557731"><ele>215.0</ele><time>2026-03-22T08:31:29Z</time></trkpt><trkpt lat="43.52537378374293" lon="1.791756035666496"><ele>215.0</ele><time>2026-03-22T08:31:30Z</time></trkpt><trkpt lat="43.525399306207106" lon="1.7920373576467192"><ele>215.0</ele><time>2026-03-22T08:31:31Z</time></trkpt><trkpt lat="43.525422235502376" lon="1.7923193845899839"><ele>216.66666666666669</ele><time>2026-03-22T08:31:32Z</time></trkpt><trkpt lat="43.525437367420444" lon="1.7925985695537483"><ele>218.33333333333331</ele><time>2026-03-22T08:31:33Z</time></trkpt><trkpt lat="43.52541490732971" lon="1.7928696076434376"><ele>220.0</ele><time>2026-03-22T08:31:34Z</time></trkpt><trkpt lat="43.525397464620774" lon="1.7931427199275922"><ele>219.33333333333331</ele><time>2026-03-22T08:31:35Z</time></trkpt><trkpt lat="43.52533982109642" lon="1.7934158767084145"><ele>218.66666666666669</ele><time>2026-03-22T08:31:36Z</time></trkpt><trkpt lat="43.52525550298375" lon="1.7936778679859047"><ele>218.0</ele><time>2026-03-22T08:31:37Z</time></trkpt><trkpt lat="43.52517896561622" lon="1.7939504820233374"><ele>219.33333333333334</ele><time>2026-03-22T08:31:38Z</time></trkpt><trkpt lat="43.52508265344169" lon="1.7941985271199195"><ele>220.66666666666669</ele><time>2026-03-22T08:31:39Z</time></trkpt><trkpt lat="43.52498674221676" lon="1.794444179514071"><ele>222.0</ele><time>2026-03-22T08:31:40Z</time></trkpt><trkpt lat="43.52489932704969" lon="1.7946935062403573"><ele>224.33333333333331</ele><time>2026-03-22T08:31:41Z</time></trkpt><trkpt lat="43.52481090982844" lon="1.7949438604783403"><ele>226.66666666666666</ele><time>2026-03-22T08:31:42Z</time></trkpt><trkpt lat="43.52471901454963" lon="1.7951895292920597"><ele>229.0</ele><time>2026-03-22T08:31:43Z</time></trkpt><trkpt lat="43.52462668446278" lon="1.7954342296475614"><ele>228.33333333333331</ele><time>2026-03-22T08:31:44Z</time></trkpt><trkpt lat="43.524536932507274" lon="1.795676113584368"><ele>227.66666666666669</ele><time>2026-03-22T08:31:45Z</time></trkpt><trkpt lat="43.52443049937753" lon="1.795904573255031"><ele>227.0</ele><time>2026-03-22T08:31:46Z</time></trkpt><trkpt lat="43.52434048619909" lon="1.796138795763162"><ele>228.66666666666669</ele><time>2026-03-22T08:31:47Z</time></trkpt><trkpt lat="43.524253664369716" lon="1.7963707730389233"><ele>230.33333333333331</ele><time>2026-03-22T08:31:48Z</time></trkpt><trkpt lat="43.52416363195593" lon="1.7966210689434339"><ele>232.0</ele><time>2026-03-22T08:31:49Z</time></trkpt><trkpt lat="43.52409214299609" lon="1.7968832958151908"><ele>232.0</ele><time>2026-03-22T08:31:50Z</time></trkpt><trkpt lat="43.52400614222961" lon="1.797141860510598"><ele>232.0</ele><time>2026-03-22T08:31:51Z</time></trkpt><trkpt lat="43.523920353214145" lon="1.7974066411487448"><ele>232.0</ele><time>2026-03-22T08:31:52Z</time></trkpt><trkpt lat="43.52383805376834" lon="1.7976761105895784"><ele>232.0</ele><time>2026-03-22T08:31:53Z</time></trkpt><trkpt lat="43.52374989540794" lon="1.7979429207822524"><ele>232.0</ele><time>2026-03-22T08:31:54Z</time></trkpt><trkpt lat="43.523661946397546" lon="1.7982172803037224"><ele>232.0</ele><time>2026-03-22T08:31:55Z</time></trkpt><trkpt lat="43.52357393916043" lon="1.7984933080608134"><ele>232.33333333333331</ele><time>2026-03-22T08:31:56Z</time></trkpt><trkpt lat="43.52348466925796" lon="1.7987663478445106"><ele>232.66666666666669</ele><time>2026-03-22T08:31:57Z</time></trkpt><trkpt lat="43.52339908853264" lon="1.7990345924694877"><ele>233.0</ele><time>2026-03-22T08:31:58Z</time></trkpt><trkpt lat="43.52331866260715" lon="1.7993012144767935"><ele>233.66666666666669</ele><time>2026-03-22T08:31:59Z</time></trkpt><trkpt lat="43.52324411298763" lon="1.7995718018347087"><ele>234.33333333333331</ele><time>2026-03-22T08:32:00Z</time></trkpt><trkpt lat="43.52317300905572" lon="1.7998390024217579"><ele>235.0</ele><time>2026-03-22T08:32:01Z</time></trkpt><trkpt lat="43.523108295356536" lon="1.8001105399852024"><ele>235.66666666666666</ele><time>2026-03-22T08:32:02Z</time></trkpt><trkpt lat="43.52305346087716" lon="1.8003759606599299"><ele>236.33333333333331</ele><time>2026-03-22T08:32:03Z</time></trkpt><trkpt lat="43.52303038911125" lon="1.8006443020649645"><ele>237.0</ele><time>2026-03-22T08:32:04Z</time></trkpt><trkpt lat="43.52303853547714" lon="1.8009207893905124"><ele>238.0</ele><time>2026-03-22T08:32:05Z</time></trkpt><trkpt lat="43.52308219037416" lon="1.8011982248641183"><ele>239.0</ele><time>2026-03-22T08:32:06Z</time></trkpt><trkpt lat="43.52312154176994" lon="1.8014950398163938"><ele>240.0</ele><time>2026-03-22T08:32:07Z</time></trkpt><trkpt lat="43.52314096185171" lon="1.8018006863420024"><ele>241.0</ele><time>2026-03-22T08:32:08Z</time></trkpt><trkpt lat="43.523165660469566" lon="1.8021211508293076"><ele>242.0</ele><time>2026-03-22T08:32:09Z</time></trkpt><trkpt lat="43.52316922550312" lon="1.8024597961301325"><ele>244.0</ele><time>2026-03-22T08:32:10Z</time></trkpt><trkpt lat="43.52317887326" lon="1.802799075433769"><ele>246.0</ele><time>2026-03-22T08:32:11Z</time></trkpt><trkpt lat="43.523192587211206" lon="1.8031242175294833"><ele>246.0</ele><time>2026-03-22T08:32:12Z</time></trkpt><trkpt lat="43.5232140005124" lon="1.8034392395927985"><ele>246.0</ele><time>2026-03-22T08:32:13Z</time></trkpt><trkpt lat="43.52323698531114" lon="1.8037461052414614"><ele>246.33333333333331</ele><time>2026-03-22T08:32:14Z</time></trkpt><trkpt lat="43.52324744547858" lon="1.8040509718575293"><ele>246.66666666666666</ele><time>2026-03-22T08:32:15Z</time></trkpt><trkpt lat="43.52328484864701" lon="1.8043578153087323"><ele>247.0</ele><time>2026-03-22T08:32:16Z</time></trkpt><trkpt lat="43.52329173095028" lon="1.804651443357049"><ele>247.0</ele><time>2026-03-22T08:32:17Z</time></trkpt><trkpt lat="43.52331200855703" lon="1.8049430625215386"><ele>247.0</ele><time>2026-03-22T08:32:18Z</time></trkpt><trkpt lat="43.52332499325866" lon="1.805233702816521"><ele>247.0</ele><time>2026-03-22T08:32:19Z</time></trkpt><trkpt lat="43.52331814665778" lon="1.8055170495831592"><ele>247.5</ele><time>2026-03-22T08:32:20Z</time></trkpt><trkpt lat="43.52329819446307" lon="1.8058322070185693"><ele>248.0</ele><time>2026-03-22T08:32:21Z</time></trkpt><trkpt lat="43.52327303186397" lon="1.8061482520665193"><ele>248.0</ele><time>2026-03-22T08:32:22Z</time></trkpt><trkpt lat="43.52325031811093" lon="1.8064365458725142"><ele>248.0</ele><time>2026-03-22T08:32:23Z</time></trkpt><trkpt lat="43.52323018119186" lon="1.806726603955911"><ele>248.0</ele><time>2026-03-22T08:32:24Z</time></trkpt><trkpt lat="43.52323136535212" lon="1.8070259764105614"><ele>247.33333333333334</ele><time>2026-03-22T08:32:25Z</time></trkpt><trkpt lat="43.523214215217365" lon="1.8073281096049079"><ele>246.66666666666669</ele><time>2026-03-22T08:32:26Z</time></trkpt><trkpt lat="43.523198159121726" lon="1.8076236420927316"><ele>246.0</ele><time>2026-03-22T08:32:26.999Z</time></trkpt><trkpt lat="43.52318731335315" lon="1.8079263976718305"><ele>245.33333333333331</ele><time>2026-03-22T08:32:27.999Z</time></trkpt><trkpt lat="43.523172181164625" lon="1.8082297938246796"><ele>244.66666666666666</ele><time>2026-03-22T08:32:28.999Z</time></trkpt><trkpt lat="43.52315712538902" lon="1.8085241597203"><ele>244.0</ele><time>2026-03-22T08:32:29.999Z</time></trkpt><trkpt lat="43.52314207695043" lon="1.8088164099428026"><ele>243.0</ele><time>2026-03-22T08:32:30.999Z</time></trkpt><trkpt lat="43.52312507460922" lon="1.8091096890092826"><ele>242.0</ele><time>2026-03-22T08:32:31.999Z</time></trkpt><trkpt lat="43.52310912903836" lon="1.8094128942235772"><ele>241.0</ele><time>2026-03-22T08:32:32.999Z</time></trkpt><trkpt lat="43.52308749112977" lon="1.8097177517555159"><ele>239.5</ele><time>2026-03-22T08:32:33.999Z</time></trkpt><trkpt lat="43.52307134866486" lon="1.8100289443983326"><ele>238.0</ele><time>2026-03-22T08:32:34.999Z</time></trkpt><trkpt lat="43.52305638649877" lon="1.8103380371326585"><ele>237.33333333333331</ele><time>2026-03-22T08:32:35.999Z</time></trkpt><trkpt lat="43.5230415180088" lon="1.810645861390141"><ele>236.66666666666669</ele><time>2026-03-22T08:32:36.999Z</time></trkpt><trkpt lat="43.523022982622635" lon="1.8109492814636856"><ele>236.0</ele><time>2026-03-22T08:32:37.999Z</time></trkpt><trkpt lat="43.523008313068466" lon="1.8112317968266567"><ele>237.33333333333334</ele><time>2026-03-22T08:32:38.999Z</time></trkpt><trkpt lat="43.52299035010148" lon="1.8115111700088569"><ele>238.66666666666669</ele><time>2026-03-22T08:32:39.999Z</time></trkpt><trkpt lat="43.522973793194225" lon="1.81178857314311"><ele>240.0</ele><time>2026-03-22T08:32:40.999Z</time></trkpt><trkpt lat="43.52296297742428" lon="1.8120565360948813"><ele>240.33333333333331</ele><time>2026-03-22T08:32:41.999Z</time></trkpt><trkpt lat="43.52295889853561" lon="1.812312541443685"><ele>240.66666666666666</ele><time>2026-03-22T08:32:42.999Z</time></trkpt><trkpt lat="43.5229697072794" lon="1.812561396892069"><ele>241.0</ele><time>2026-03-22T08:32:43.999Z</time></trkpt><trkpt lat="43.52298963102797" lon="1.8128093088307176"><ele>240.33333333333331</ele><time>2026-03-22T08:32:44.999Z</time></trkpt><trkpt lat="43.5229975817638" lon="1.8130609148266181"><ele>239.66666666666669</ele><time>2026-03-22T08:32:45.999Z</time></trkpt><trkpt lat="43.52297569339803" lon="1.8133052820965958"><ele>239.0</ele><time>2026-03-22T08:32:46.999Z</time></trkpt><trkpt lat="43.522921392298706" lon="1.813582094325906"><ele>238.66666666666669</ele><time>2026-03-22T08:32:47.999Z</time></trkpt><trkpt lat="43.52285117860458" lon="1.8138689963455552"><ele>238.33333333333331</ele><time>2026-03-22T08:32:48.999Z</time></trkpt><trkpt lat="43.52279127167252" lon="1.8141315998591614"><ele>238.0</ele><time>2026-03-22T08:32:49.999Z</time></trkpt><trkpt lat="43.52273960734504" lon="1.8143823034211624"><ele>236.0</ele><time>2026-03-22T08:32:50.999Z</time></trkpt><trkpt lat="43.522690048515386" lon="1.8146294300885428"><ele>234.0</ele><time>2026-03-22T08:32:51.999Z</time></trkpt><trkpt lat="43.52263941298171" lon="1.8148837048206807"><ele>232.0</ele><time>2026-03-22T08:32:52.999Z</time></trkpt><trkpt lat="43.522592225765806" lon="1.815138685611782"><ele>230.66666666666666</ele><time>2026-03-22T08:32:53.999Z</time></trkpt><trkpt lat="43.52254482392882" lon="1.8153939470046705"><ele>229.33333333333331</ele><time>2026-03-22T08:32:54.999Z</time></trkpt><trkpt lat="43.52250993204759" lon="1.815654253284226"><ele>228.0</ele><time>2026-03-22T08:32:55.999Z</time></trkpt><trkpt lat="43.5224852321829" lon="1.81592007849547"><ele>227.33333333333331</ele><time>2026-03-22T08:32:56.999Z</time></trkpt><trkpt lat="43.522487187238504" lon="1.8161997203870262"><ele>226.66666666666666</ele><time>2026-03-22T08:32:57.999Z</time></trkpt><trkpt lat="43.52250103607728" lon="1.8165224277745255"><ele>226.0</ele><time>2026-03-22T08:32:58.999Z</time></trkpt><trkpt lat="43.52252960058709" lon="1.816869024122292"><ele>224.66666666666666</ele><time>2026-03-22T08:32:59.999Z</time></trkpt><trkpt lat="43.52255742057323" lon="1.817183393357344"><ele>223.33333333333331</ele><time>2026-03-22T08:33:01Z</time></trkpt><trkpt lat="43.52258686192004" lon="1.8174682825694763"><ele>222.0</ele><time>2026-03-22T08:33:02Z</time></trkpt><trkpt lat="43.52261499161108" lon="1.817736023820214"><ele>220.33333333333331</ele><time>2026-03-22T08:33:03Z</time></trkpt><trkpt lat="43.52264593428916" lon="1.8179862152204371"><ele>218.66666666666666</ele><time>2026-03-22T08:33:04Z</time></trkpt><trkpt lat="43.52268000125051" lon="1.818218616565981"><ele>217.0</ele><time>2026-03-22T08:33:05Z</time></trkpt><trkpt lat="43.52271285222956" lon="1.8184308599985348"><ele>215.33333333333331</ele><time>2026-03-22T08:33:06Z</time></trkpt><trkpt lat="43.52276068719517" lon="1.818625681805143"><ele>213.66666666666669</ele><time>2026-03-22T08:33:07Z</time></trkpt><trkpt lat="43.52283503344345" lon="1.8188114550331338"><ele>212.0</ele><time>2026-03-22T08:33:08Z</time></trkpt><trkpt lat="43.52294675904859" lon="1.8189522620574705"><ele>215.0</ele><time>2026-03-22T08:33:09Z</time></trkpt><trkpt lat="43.523095324475726" lon="1.8190888026652685"><ele>218.0</ele><time>2026-03-22T08:33:10Z</time></trkpt><trkpt lat="43.523279763367455" lon="1.8192453780645774"><ele>221.0</ele><time>2026-03-22T08:33:11Z</time></trkpt><trkpt lat="43.52344779771552" lon="1.8194269687462026"><ele>221.0</ele><time>2026-03-22T08:33:12Z</time></trkpt><trkpt lat="43.5235940207049" lon="1.819626771769525"><ele>221.0</ele><time>2026-03-22T08:33:13Z</time></trkpt><trkpt lat="43.523724478109266" lon="1.8198366957105145"><ele>221.0</ele><time>2026-03-22T08:33:14Z</time></trkpt><trkpt lat="43.523835946221645" lon="1.8200620090868462"><ele>220.0</ele><time>2026-03-22T08:33:15Z</time></trkpt><trkpt lat="43.52393260163165" lon="1.8202953030098492"><ele>219.0</ele><time>2026-03-22T08:33:16Z</time></trkpt><trkpt lat="43.524011639914306" lon="1.8205291283057066"><ele>218.0</ele><time>2026-03-22T08:33:17Z</time></trkpt><trkpt lat="43.52408787886503" lon="1.8207438117941395"><ele>218.0</ele><time>2026-03-22T08:33:18Z</time></trkpt><trkpt lat="43.52416523006666" lon="1.820956124748795"><ele>218.0</ele><time>2026-03-22T08:33:19Z</time></trkpt><trkpt lat="43.5242329741838" lon="1.821180744659316"><ele>218.0</ele><time>2026-03-22T08:33:20Z</time></trkpt><trkpt lat="43.524286908048985" lon="1.821420238904034"><ele>216.66666666666669</ele><time>2026-03-22T08:33:21Z</time></trkpt><trkpt lat="43.52432123282303" lon="1.821664148250214"><ele>215.33333333333331</ele><time>2026-03-22T08:33:22Z</time></trkpt><trkpt lat="43.52434961126528" lon="1.8219112266846877"><ele>214.0</ele><time>2026-03-22T08:33:23Z</time></trkpt><trkpt lat="43.524384338089924" lon="1.8221353357519945"><ele>212.0</ele><time>2026-03-22T08:33:24Z</time></trkpt><trkpt lat="43.52441765802618" lon="1.8223533253985638"><ele>210.0</ele><time>2026-03-22T08:33:25Z</time></trkpt><trkpt lat="43.52444470819818" lon="1.8225654764304167"><ele>208.0</ele><time>2026-03-22T08:33:26Z</time></trkpt><trkpt lat="43.524471126572195" lon="1.8227730389361039"><ele>205.66666666666666</ele><time>2026-03-22T08:33:27Z</time></trkpt><trkpt lat="43.52448894441568" lon="1.8229961471009712"><ele>203.33333333333331</ele><time>2026-03-22T08:33:28Z</time></trkpt><trkpt lat="43.52449707067526" lon="1.8232080303162037"><ele>201.0</ele><time>2026-03-22T08:33:29Z</time></trkpt><trkpt lat="43.524505895483976" lon="1.823410232248352"><ele>200.5</ele><time>2026-03-22T08:33:30Z</time></trkpt><trkpt lat="43.524516465479145" lon="1.823606356852881"><ele>200.0</ele><time>2026-03-22T08:33:31Z</time></trkpt><trkpt lat="43.524527998086086" lon="1.823794256937138"><ele>199.5</ele><time>2026-03-22T08:33:32Z</time></trkpt><trkpt lat="43.52453547339095" lon="1.8239663382056799"><ele>199.0</ele><time>2026-03-22T08:33:33Z</time></trkpt><trkpt lat="43.52454902054218" lon="1.8241228441703385"><ele>198.75</ele><time>2026-03-22T08:33:34Z</time></trkpt><trkpt lat="43.52456969592035" lon="1.8242731459081767"><ele>198.5</ele><time>2026-03-22T08:33:35Z</time></trkpt><trkpt lat="43.52462063770258" lon="1.8244283145716034"><ele>198.25</ele><time>2026-03-22T08:33:36Z</time></trkpt><trkpt lat="43.52469367750393" lon="1.8245675773183159"><ele>198.0</ele><time>2026-03-22T08:33:37Z</time></trkpt><trkpt lat="43.524771537227785" lon="1.8246942097816279"><ele>198.0</ele><time>2026-03-22T08:33:38Z</time></trkpt><trkpt lat="43.524848190873996" lon="1.8248153788640489"><ele>198.0</ele><time>2026-03-22T08:33:39Z</time></trkpt><trkpt lat="43.52491487940062" lon="1.8249427475726396"><ele>198.0</ele><time>2026-03-22T08:33:40Z</time></trkpt><trkpt lat="43.524972453228635" lon="1.825062740766211"><ele>198.0</ele><time>2026-03-22T08:33:41Z</time></trkpt><trkpt lat="43.525014140898634" lon="1.8251599792547315"><ele>198.0</ele><time>2026-03-22T08:33:42Z</time></trkpt><trkpt lat="43.52505611152878" lon="1.8252534494344028"><ele>197.33333333333334</ele><time>2026-03-22T08:33:43Z</time></trkpt><trkpt lat="43.525085148365655" lon="1.8253457013273373"><ele>196.66666666666669</ele><time>2026-03-22T08:33:44Z</time></trkpt><trkpt lat="43.52509880904019" lon="1.8254389353516485"><ele>196.0</ele><time>2026-03-22T08:33:45Z</time></trkpt><trkpt lat="43.525119239448166" lon="1.8255433668435996"><ele>195.33333333333334</ele><time>2026-03-22T08:33:46Z</time></trkpt><trkpt lat="43.52516152980241" lon="1.8256531825208009"><ele>194.66666666666669</ele><time>2026-03-22T08:33:47Z</time></trkpt><trkpt lat="43.525232235518935" lon="1.825734296125974"><ele>194.0</ele><time>2026-03-22T08:33:48Z</time></trkpt><trkpt lat="43.525292918620615" lon="1.8258507642527475"><ele>194.0</ele><time>2026-03-22T08:33:49Z</time></trkpt><trkpt lat="43.52534613989977" lon="1.8259744195556535"><ele>194.0</ele><time>2026-03-22T08:33:50Z</time></trkpt><trkpt lat="43.52540378662764" lon="1.8260834269370176"><ele>194.0</ele><time>2026-03-22T08:33:51Z</time></trkpt><trkpt lat="43.52545182812319" lon="1.8261867795009659"><ele>194.0</ele><time>2026-03-22T08:33:52Z</time></trkpt><trkpt lat="43.52550679820326" lon="1.8263063801436248"><ele>194.0</ele><time>2026-03-22T08:33:53Z</time></trkpt><trkpt lat="43.52557066662086" lon="1.8264225634092401"><ele>193.83333333333334</ele><time>2026-03-22T08:33:54Z</time></trkpt><trkpt lat="43.52561718836932" lon="1.8265381881604896"><ele>193.66666666666669</ele><time>2026-03-22T08:33:55Z</time></trkpt><trkpt lat="43.525670220016316" lon="1.8266483337823023"><ele>193.5</ele><time>2026-03-22T08:33:56Z</time></trkpt><trkpt lat="43.525704754311604" lon="1.8267491985392899"><ele>193.33333333333331</ele><time>2026-03-22T08:33:57Z</time></trkpt><trkpt lat="43.52573763033095" lon="1.826833431460954"><ele>193.16666666666666</ele><time>2026-03-22T08:33:58Z</time></trkpt><trkpt lat="43.52576740774516" lon="1.826912048691613"><ele>193.0</ele><time>2026-03-22T08:33:59Z</time></trkpt><trkpt lat="43.52580045980434" lon="1.8269940721926328"><ele>192.99999999999997</ele><time>2026-03-22T08:34:00Z</time></trkpt><trkpt lat="43.5258497841347" lon="1.8270813969611022"><ele>193.0</ele><time>2026-03-22T08:34:01Z</time></trkpt><trkpt lat="43.525881196110944" lon="1.8271651990952524"><ele>193.0</ele><time>2026-03-22T08:34:02Z</time></trkpt><trkpt lat="43.52591416301654" lon="1.8272530674918956"><ele>193.0</ele><time>2026-03-22T08:34:03Z</time></trkpt><trkpt lat="43.52596111958061" lon="1.8273497507719747"><ele>192.99999999999997</ele><time>2026-03-22T08:34:04Z</time></trkpt><trkpt lat="43.52601381151179" lon="1.8274703086364363"><ele>193.0</ele><time>2026-03-22T08:34:05Z</time></trkpt><trkpt lat="43.52607080524098" lon="1.8275996804651153"><ele>193.75</ele><time>2026-03-22T08:34:06Z</time></trkpt><trkpt lat="43.526128738053515" lon="1.8277379284990005"><ele>194.5</ele><time>2026-03-22T08:34:07Z</time></trkpt><trkpt lat="43.52618812214472" lon="1.8278860177014693"><ele>195.25</ele><time>2026-03-22T08:34:08Z</time></trkpt><trkpt lat="43.52625725588488" lon="1.828032396540452"><ele>196.0</ele><time>2026-03-22T08:34:09Z</time></trkpt><trkpt lat="43.52631375226481" lon="1.8281625805611088"><ele>198.0</ele><time>2026-03-22T08:34:10Z</time></trkpt><trkpt lat="43.52636966842387" lon="1.8282964726246842"><ele>200.0</ele><time>2026-03-22T08:34:11Z</time></trkpt><trkpt lat="43.526428390413486" lon="1.8284397138944413"><ele>202.0</ele><time>2026-03-22T08:34:12Z</time></trkpt><trkpt lat="43.526495302476576" lon="1.8285815517287465"><ele>204.0</ele><time>2026-03-22T08:34:13Z</time></trkpt><trkpt lat="43.5265733685512" lon="1.8287476291282652"><ele>205.0</ele><time>2026-03-22T08:34:14Z</time></trkpt><trkpt lat="43.52664428920785" lon="1.828906771540351"><ele>206.0</ele><time>2026-03-22T08:34:15Z</time></trkpt><trkpt lat="43.52671387875038" lon="1.8290671147610111"><ele>207.0</ele><time>2026-03-22T08:34:16Z</time></trkpt><trkpt lat="43.52677963554799" lon="1.8292364459167472"><ele>208.0</ele><time>2026-03-22T08:34:17Z</time></trkpt><trkpt lat="43.52683361664737" lon="1.8294240705943243"><ele>209.0</ele><time>2026-03-22T08:34:18Z</time></trkpt><trkpt lat="43.52687141542216" lon="1.8296389877122774"><ele>210.0</ele><time>2026-03-22T08:34:19Z</time></trkpt><trkpt lat="43.52688672877936" lon="1.8298671142072176"><ele>211.0</ele><time>2026-03-22T08:34:20Z</time></trkpt><trkpt lat="43.52688327653348" lon="1.8300655390974991"><ele>212.0</ele><time>2026-03-22T08:34:21Z</time></trkpt><trkpt lat="43.52686058550106" lon="1.830257503941235"><ele>213.0</ele><time>2026-03-22T08:34:22Z</time></trkpt><trkpt lat="43.52681750186037" lon="1.830439449200614"><ele>214.0</ele><time>2026-03-22T08:34:23Z</time></trkpt><trkpt lat="43.52676328065123" lon="1.8306359103307488"><ele>215.0</ele><time>2026-03-22T08:34:24Z</time></trkpt><trkpt lat="43.52670701268027" lon="1.8308527466031141"><ele>217.33333333333334</ele><time>2026-03-22T08:34:25Z</time></trkpt><trkpt lat="43.5266462114827" lon="1.8310775526034275"><ele>219.66666666666669</ele><time>2026-03-22T08:34:26Z</time></trkpt><trkpt lat="43.526583327938546" lon="1.8313061811460087"><ele>222.0</ele><time>2026-03-22T08:34:27Z</time></trkpt><trkpt lat="43.52652081833716" lon="1.831541677584538"><ele>222.0</ele><time>2026-03-22T08:34:28Z</time></trkpt><trkpt lat="43.52645181166583" lon="1.8317999399768705"><ele>222.0</ele><time>2026-03-22T08:34:29Z</time></trkpt><trkpt lat="43.52638480294527" lon="1.832060433772139"><ele>222.0</ele><time>2026-03-22T08:34:30Z</time></trkpt><trkpt lat="43.526318564437254" lon="1.8323066639549634"><ele>224.0</ele><time>2026-03-22T08:34:31Z</time></trkpt><trkpt lat="43.52626234403353" lon="1.8325148437825256"><ele>226.0</ele><time>2026-03-22T08:34:32Z</time></trkpt><trkpt lat="43.52621327897378" lon="1.8327113045554213"><ele>228.0</ele><time>2026-03-22T08:34:33Z</time></trkpt><trkpt lat="43.52615501804091" lon="1.8329121773211312"><ele>228.66666666666669</ele><time>2026-03-22T08:34:33.999Z</time></trkpt><trkpt lat="43.52609853695313" lon="1.833115953705717"><ele>229.33333333333334</ele><time>2026-03-22T08:34:34.999Z</time></trkpt><trkpt lat="43.52604099958718" lon="1.8333217873930296"><ele>230.0</ele><time>2026-03-22T08:34:35.999Z</time></trkpt><trkpt lat="43.52598607101951" lon="1.8335369093654865"><ele>231.66666666666669</ele><time>2026-03-22T08:34:36.999Z</time></trkpt><trkpt lat="43.52592514333958" lon="1.833751273534372"><ele>233.33333333333331</ele><time>2026-03-22T08:34:37.999Z</time></trkpt><trkpt lat="43.52586110491082" lon="1.8339679870062044"><ele>235.0</ele><time>2026-03-22T08:34:38.999Z</time></trkpt><trkpt lat="43.52580032535928" lon="1.8341840581171789"><ele>236.33333333333331</ele><time>2026-03-22T08:34:39.999Z</time></trkpt><trkpt lat="43.52573929432016" lon="1.834407025086268"><ele>237.66666666666669</ele><time>2026-03-22T08:34:40.999Z</time></trkpt><trkpt lat="43.525673293004886" lon="1.8346300098822994"><ele>239.0</ele><time>2026-03-22T08:34:41.999Z</time></trkpt><trkpt lat="43.52560497612628" lon="1.834850861282163"><ele>239.0</ele><time>2026-03-22T08:34:42.999Z</time></trkpt><trkpt lat="43.52554184895113" lon="1.8350780792102575"><ele>239.0</ele><time>2026-03-22T08:34:43.999Z</time></trkpt><trkpt lat="43.525475407236385" lon="1.8353089764553083"><ele>239.0</ele><time>2026-03-22T08:34:44.999Z</time></trkpt><trkpt lat="43.52540620309202" lon="1.835542239865009"><ele>240.33333333333334</ele><time>2026-03-22T08:34:45.999Z</time></trkpt><trkpt lat="43.525336293578846" lon="1.835781429030089"><ele>241.66666666666669</ele><time>2026-03-22T08:34:46.999Z</time></trkpt><trkpt lat="43.52526534572394" lon="1.8360199166226354"><ele>243.0</ele><time>2026-03-22T08:34:47.999Z</time></trkpt><trkpt lat="43.52519125066041" lon="1.8362666906068854"><ele>243.33333333333331</ele><time>2026-03-22T08:34:48.999Z</time></trkpt><trkpt lat="43.525118083550005" lon="1.8365260944119755"><ele>243.66666666666666</ele><time>2026-03-22T08:34:49.999Z</time></trkpt><trkpt lat="43.52504043948671" lon="1.836805259556734"><ele>244.0</ele><time>2026-03-22T08:34:50.999Z</time></trkpt><trkpt lat="43.52495761038596" lon="1.837084019327353"><ele>244.0</ele><time>2026-03-22T08:34:51.999Z</time></trkpt><trkpt lat="43.52487753035841" lon="1.837373920386632"><ele>244.0</ele><time>2026-03-22T08:34:52.999Z</time></trkpt><trkpt lat="43.52479117100501" lon="1.8376573901362103"><ele>244.0</ele><time>2026-03-22T08:34:53.999Z</time></trkpt><trkpt lat="43.524710464230594" lon="1.8379498417003928"><ele>244.0</ele><time>2026-03-22T08:34:54.999Z</time></trkpt><trkpt lat="43.524611266781875" lon="1.8382544255228705"><ele>244.0</ele><time>2026-03-22T08:34:55.999Z</time></trkpt><trkpt lat="43.52452632243369" lon="1.8385519345353007"><ele>246.0</ele><time>2026-03-22T08:34:56.999Z</time></trkpt><trkpt lat="43.52444233335008" lon="1.838848294603978"><ele>248.0</ele><time>2026-03-22T08:34:57.999Z</time></trkpt><trkpt lat="43.52436389400331" lon="1.8391263825112123"><ele>250.0</ele><time>2026-03-22T08:34:58.999Z</time></trkpt><trkpt lat="43.524303691840394" lon="1.839402239003074"><ele>250.66666666666666</ele><time>2026-03-22T08:34:59.999Z</time></trkpt><trkpt lat="43.52422558111611" lon="1.8396731933127832"><ele>251.33333333333331</ele><time>2026-03-22T08:35:00.999Z</time></trkpt><trkpt lat="43.52415005512183" lon="1.8399413950536097"><ele>252.0</ele><time>2026-03-22T08:35:01.999Z</time></trkpt><trkpt lat="43.52407150990268" lon="1.840217972132075"><ele>253.33333333333331</ele><time>2026-03-22T08:35:02.999Z</time></trkpt><trkpt lat="43.52399177619782" lon="1.8404967952222768"><ele>254.66666666666666</ele><time>2026-03-22T08:35:03.999Z</time></trkpt><trkpt lat="43.52391433042287" lon="1.8407736245612771"><ele>256.0</ele><time>2026-03-22T08:35:04.999Z</time></trkpt><trkpt lat="43.523839370946774" lon="1.8410453094257138"><ele>256.66666666666663</ele><time>2026-03-22T08:35:05.999Z</time></trkpt><trkpt lat="43.52376441155659" lon="1.841318950607876"><ele>257.3333333333333</ele><time>2026-03-22T08:35:07Z</time></trkpt><trkpt lat="43.52368864211998" lon="1.84158821775348"><ele>258.0</ele><time>2026-03-22T08:35:08Z</time></trkpt><trkpt lat="43.523618424293474" lon="1.8418553910831088"><ele>259.6666666666667</ele><time>2026-03-22T08:35:09Z</time></trkpt><trkpt lat="43.52354438249173" lon="1.842119503162477"><ele>261.33333333333337</ele><time>2026-03-22T08:35:10Z</time></trkpt><trkpt lat="43.52347333548255" lon="1.8423832201465908"><ele>263.0</ele><time>2026-03-22T08:35:11Z</time></trkpt><trkpt lat="43.52339829498133" lon="1.8426527640929804"><ele>263.6666666666667</ele><time>2026-03-22T08:35:12Z</time></trkpt><trkpt lat="43.523322303440956" lon="1.8429217196650753"><ele>264.3333333333333</ele><time>2026-03-22T08:35:13Z</time></trkpt><trkpt lat="43.523243726359546" lon="1.843196467657334"><ele>265.0</ele><time>2026-03-22T08:35:14Z</time></trkpt><trkpt lat="43.523162013496986" lon="1.8434847670461811"><ele>265.0</ele><time>2026-03-22T08:35:15Z</time></trkpt><trkpt lat="43.523080478130176" lon="1.8437748374164977"><ele>265.0</ele><time>2026-03-22T08:35:16Z</time></trkpt><trkpt lat="43.52299510506122" lon="1.8440710559233044"><ele>265.3333333333333</ele><time>2026-03-22T08:35:17Z</time></trkpt><trkpt lat="43.52289910129436" lon="1.8443403354575711"><ele>265.6666666666667</ele><time>2026-03-22T08:35:18Z</time></trkpt><trkpt lat="43.52281972543057" lon="1.8446139296922848"><ele>266.0</ele><time>2026-03-22T08:35:19Z</time></trkpt><trkpt lat="43.52275249305794" lon="1.844903117505499"><ele>265.0</ele><time>2026-03-22T08:35:20Z</time></trkpt><trkpt lat="43.522671435892384" lon="1.845188481932543"><ele>264.0</ele><time>2026-03-22T08:35:21Z</time></trkpt><trkpt lat="43.52258904874688" lon="1.84547139539987"><ele>263.0</ele><time>2026-03-22T08:35:22Z</time></trkpt><trkpt lat="43.52250665428" lon="1.8457590948130176"><ele>262.0</ele><time>2026-03-22T08:35:23Z</time></trkpt><trkpt lat="43.52242392801556" lon="1.8460474242651588"><ele>261.0</ele><time>2026-03-22T08:35:24Z</time></trkpt><trkpt lat="43.52233830447388" lon="1.8463387726022717"><ele>261.0</ele><time>2026-03-22T08:35:25Z</time></trkpt><trkpt lat="43.522255121653565" lon="1.8466230493106852"><ele>261.0</ele><time>2026-03-22T08:35:26Z</time></trkpt><trkpt lat="43.522174533761834" lon="1.8469018533472685"><ele>261.0</ele><time>2026-03-22T08:35:27Z</time></trkpt><trkpt lat="43.5220947639098" lon="1.8471852955928079"><ele>261.3333333333333</ele><time>2026-03-22T08:35:28Z</time></trkpt><trkpt lat="43.52201001842327" lon="1.8474665865023412"><ele>261.66666666666663</ele><time>2026-03-22T08:35:29Z</time></trkpt><trkpt lat="43.52192911290113" lon="1.8477463786282253"><ele>262.0</ele><time>2026-03-22T08:35:30Z</time></trkpt><trkpt lat="43.52184797957337" lon="1.8480258208236362"><ele>261.3333333333333</ele><time>2026-03-22T08:35:31Z</time></trkpt><trkpt lat="43.52177026610099" lon="1.8483084040675857"><ele>260.6666666666667</ele><time>2026-03-22T08:35:32Z</time></trkpt><trkpt lat="43.52169176743893" lon="1.8485875395115918"><ele>260.0</ele><time>2026-03-22T08:35:33Z</time></trkpt><trkpt lat="43.52161086935885" lon="1.8488666895371004"><ele>259.6666666666667</ele><time>2026-03-22T08:35:34Z</time></trkpt><trkpt lat="43.52153366640202" lon="1.849139764007787"><ele>259.3333333333333</ele><time>2026-03-22T08:35:35Z</time></trkpt><trkpt lat="43.521460228820274" lon="1.8494048149407558"><ele>259.0</ele><time>2026-03-22T08:35:36Z</time></trkpt><trkpt lat="43.521383883897165" lon="1.8496611051940384"><ele>258.3333333333333</ele><time>2026-03-22T08:35:37Z</time></trkpt><trkpt lat="43.52130745250102" lon="1.8499205730437494"><ele>257.6666666666667</ele><time>2026-03-22T08:35:38Z</time></trkpt><trkpt lat="43.52123597869902" lon="1.850179795273254"><ele>257.0</ele><time>2026-03-22T08:35:39Z</time></trkpt><trkpt lat="43.521154598609" lon="1.8504591815404354"><ele>257.0</ele><time>2026-03-22T08:35:40Z</time></trkpt><trkpt lat="43.521077121838346" lon="1.8507571863245367"><ele>257.0</ele><time>2026-03-22T08:35:41Z</time></trkpt><trkpt lat="43.52100039935982" lon="1.8510597404027893"><ele>255.0</ele><time>2026-03-22T08:35:42Z</time></trkpt><trkpt lat="43.52089438048891" lon="1.8513479333200407"><ele>253.0</ele><time>2026-03-22T08:35:43Z</time></trkpt><trkpt lat="43.52079547115569" lon="1.8516466570187136"><ele>251.5</ele><time>2026-03-22T08:35:44Z</time></trkpt><trkpt lat="43.52065446255088" lon="1.8519322023729905"><ele>250.0</ele><time>2026-03-22T08:35:45Z</time></trkpt><trkpt lat="43.52050607639071" lon="1.852204306077538"><ele>249.0</ele><time>2026-03-22T08:35:46Z</time></trkpt><trkpt lat="43.52036916358675" lon="1.8524611558709223"><ele>248.0</ele><time>2026-03-22T08:35:47Z</time></trkpt><trkpt lat="43.52024688391991" lon="1.8527170943727018"><ele>248.0</ele><time>2026-03-22T08:35:48Z</time></trkpt><trkpt lat="43.520126202783224" lon="1.8529598371441642"><ele>248.0</ele><time>2026-03-22T08:35:49Z</time></trkpt><trkpt lat="43.520007733560966" lon="1.8531903171242923"><ele>248.0</ele><time>2026-03-22T08:35:50Z</time></trkpt><trkpt lat="43.51989740046143" lon="1.853411996823453"><ele>247.33333333333334</ele><time>2026-03-22T08:35:51Z</time></trkpt><trkpt lat="43.519787397688795" lon="1.853624418067525"><ele>246.66666666666669</ele><time>2026-03-22T08:35:52Z</time></trkpt><trkpt lat="43.51967231474105" lon="1.8538380222142357"><ele>246.0</ele><time>2026-03-22T08:35:53Z</time></trkpt><trkpt lat="43.5195445015095" lon="1.8540456123452531"><ele>246.0</ele><time>2026-03-22T08:35:54Z</time></trkpt><trkpt lat="43.519398096063284" lon="1.8542575159052554"><ele>246.0</ele><time>2026-03-22T08:35:55Z</time></trkpt><trkpt lat="43.51923108484993" lon="1.854477261168498"><ele>246.0</ele><time>2026-03-22T08:35:56Z</time></trkpt><trkpt lat="43.519062390424104" lon="1.8546975969967385"><ele>246.0</ele><time>2026-03-22T08:35:57Z</time></trkpt><trkpt lat="43.51890986216588" lon="1.854905102389684"><ele>246.0</ele><time>2026-03-22T08:35:58Z</time></trkpt><trkpt lat="43.51875712419356" lon="1.8551107472665869"><ele>246.0</ele><time>2026-03-22T08:35:59Z</time></trkpt><trkpt lat="43.51859737287647" lon="1.8553122635629695"><ele>246.66666666666669</ele><time>2026-03-22T08:36:00Z</time></trkpt><trkpt lat="43.518428917912004" lon="1.8554935866333446"><ele>247.33333333333334</ele><time>2026-03-22T08:36:01Z</time></trkpt><trkpt lat="43.51824584805657" lon="1.8556527239260785"><ele>248.0</ele><time>2026-03-22T08:36:02Z</time></trkpt><trkpt lat="43.518057936641206" lon="1.8557955079856223"><ele>248.0</ele><time>2026-03-22T08:36:03Z</time></trkpt><trkpt lat="43.51786886063655" lon="1.855932228478455"><ele>248.0</ele><time>2026-03-22T08:36:04Z</time></trkpt><trkpt lat="43.51768138466287" lon="1.8560673238789829"><ele>248.0</ele><time>2026-03-22T08:36:05Z</time></trkpt><trkpt lat="43.517489470995585" lon="1.856202910708937"><ele>248.0</ele><time>2026-03-22T08:36:06Z</time></trkpt><trkpt lat="43.51729069233799" lon="1.856341546982926"><ele>248.0</ele><time>2026-03-22T08:36:07Z</time></trkpt><trkpt lat="43.51709478192354" lon="1.8564782516244587"><ele>248.0</ele><time>2026-03-22T08:36:08Z</time></trkpt><trkpt lat="43.516909445738214" lon="1.8566046321867091"><ele>248.33333333333334</ele><time>2026-03-22T08:36:09Z</time></trkpt><trkpt lat="43.51672530509898" lon="1.8567318692218204"><ele>248.66666666666669</ele><time>2026-03-22T08:36:10Z</time></trkpt><trkpt lat="43.51653914412445" lon="1.8568582198404693"><ele>249.0</ele><time>2026-03-22T08:36:11Z</time></trkpt><trkpt lat="43.516356351823305" lon="1.8569790784694802"><ele>248.0</ele><time>2026-03-22T08:36:12Z</time></trkpt><trkpt lat="43.516174907760714" lon="1.857103073777925"><ele>247.0</ele><time>2026-03-22T08:36:13Z</time></trkpt><trkpt lat="43.515995232743904" lon="1.8572234776001642"><ele>246.0</ele><time>2026-03-22T08:36:14Z</time></trkpt><trkpt lat="43.515815298241115" lon="1.857345554868264"><ele>246.0</ele><time>2026-03-22T08:36:15Z</time></trkpt><trkpt lat="43.51563804665595" lon="1.8574640416388473"><ele>246.0</ele><time>2026-03-22T08:36:16Z</time></trkpt><trkpt lat="43.5154598141083" lon="1.8575832985255099"><ele>246.0</ele><time>2026-03-22T08:36:17Z</time></trkpt><trkpt lat="43.51527897510222" lon="1.8577012280786664"><ele>245.66666666666669</ele><time>2026-03-22T08:36:18Z</time></trkpt><trkpt lat="43.51509833662197" lon="1.8578207103374313"><ele>245.33333333333334</ele><time>2026-03-22T08:36:19Z</time></trkpt><trkpt lat="43.51491758765699" lon="1.857940847167067"><ele>245.0</ele><time>2026-03-22T08:36:20Z</time></trkpt><trkpt lat="43.51473838757837" lon="1.8580663014801548"><ele>246.66666666666669</ele><time>2026-03-22T08:36:21Z</time></trkpt><trkpt lat="43.51455923622971" lon="1.8581883365603595"><ele>248.33333333333331</ele><time>2026-03-22T08:36:22Z</time></trkpt><trkpt lat="43.51437614699805" lon="1.858312792149471"><ele>250.0</ele><time>2026-03-22T08:36:23Z</time></trkpt><trkpt lat="43.51419586885662" lon="1.8584351291802839"><ele>250.33333333333331</ele><time>2026-03-22T08:36:24Z</time></trkpt><trkpt lat="43.514020832246516" lon="1.858553833220016"><ele>250.66666666666669</ele><time>2026-03-22T08:36:25Z</time></trkpt><trkpt lat="43.513848708875074" lon="1.858670101501643"><ele>251.0</ele><time>2026-03-22T08:36:26Z</time></trkpt><trkpt lat="43.51367827617603" lon="1.8587907068686993"><ele>251.0</ele><time>2026-03-22T08:36:27Z</time></trkpt><trkpt lat="43.51351138079143" lon="1.8589208773291157"><ele>251.0</ele><time>2026-03-22T08:36:28Z</time></trkpt><trkpt lat="43.51334160427808" lon="1.8590554366182015"><ele>251.0</ele><time>2026-03-22T08:36:29Z</time></trkpt><trkpt lat="43.513172615302736" lon="1.859189988685976"><ele>250.66666666666669</ele><time>2026-03-22T08:36:30Z</time></trkpt><trkpt lat="43.513017368964015" lon="1.8593190477636612"><ele>250.33333333333331</ele><time>2026-03-22T08:36:31Z</time></trkpt><trkpt lat="43.51286241744029" lon="1.859451084534446"><ele>250.0</ele><time>2026-03-22T08:36:32Z</time></trkpt><trkpt lat="43.512708819378915" lon="1.8595894244403899"><ele>250.0</ele><time>2026-03-22T08:36:33Z</time></trkpt><trkpt lat="43.51255639994939" lon="1.8597319941388555"><ele>250.0</ele><time>2026-03-22T08:36:34Z</time></trkpt><trkpt lat="43.51240506530772" lon="1.8598813421403586"><ele>250.0</ele><time>2026-03-22T08:36:35Z</time></trkpt><trkpt lat="43.51225645030831" lon="1.8600341397428797"><ele>249.66666666666666</ele><time>2026-03-22T08:36:36Z</time></trkpt><trkpt lat="43.512108276438" lon="1.860188725247973"><ele>249.33333333333331</ele><time>2026-03-22T08:36:37Z</time></trkpt><trkpt lat="43.511968551829035" lon="1.860343842694608"><ele>249.0</ele><time>2026-03-22T08:36:38Z</time></trkpt><trkpt lat="43.51181859985848" lon="1.860500361588039"><ele>250.33333333333331</ele><time>2026-03-22T08:36:38.999Z</time></trkpt><trkpt lat="43.51166985321976" lon="1.8606581648098397"><ele>251.66666666666666</ele><time>2026-03-22T08:36:39.999Z</time></trkpt><trkpt lat="43.51152287466988" lon="1.8608214054762768"><ele>253.0</ele><time>2026-03-22T08:36:40.999Z</time></trkpt><trkpt lat="43.51137498281154" lon="1.86098745860798"><ele>253.66666666666666</ele><time>2026-03-22T08:36:41.999Z</time></trkpt><trkpt lat="43.51122702934645" lon="1.861159000633884"><ele>254.33333333333331</ele><time>2026-03-22T08:36:42.999Z</time></trkpt><trkpt lat="43.51107677909175" lon="1.8613323674246542"><ele>255.0</ele><time>2026-03-22T08:36:43.999Z</time></trkpt><trkpt lat="43.510931147445625" lon="1.8615178255395042"><ele>255.0</ele><time>2026-03-22T08:36:44.999Z</time></trkpt><trkpt lat="43.510784717271996" lon="1.8617037674411452"><ele>255.0</ele><time>2026-03-22T08:36:45.999Z</time></trkpt><trkpt lat="43.51063905329799" lon="1.8618937377620666"><ele>255.0</ele><time>2026-03-22T08:36:46.999Z</time></trkpt><trkpt lat="43.51049473742601" lon="1.8620837303667739"><ele>255.33333333333331</ele><time>2026-03-22T08:36:47.999Z</time></trkpt><trkpt lat="43.5103532862178" lon="1.8622832000355398"><ele>255.66666666666666</ele><time>2026-03-22T08:36:48.999Z</time></trkpt><trkpt lat="43.510218551678605" lon="1.862483325581461"><ele>256.0</ele><time>2026-03-22T08:36:49.999Z</time></trkpt><trkpt lat="43.51008412699702" lon="1.862683555216446"><ele>256.0</ele><time>2026-03-22T08:36:50.999Z</time></trkpt><trkpt lat="43.50994906321994" lon="1.8628861752598487"><ele>256.0</ele><time>2026-03-22T08:36:51.999Z</time></trkpt><trkpt lat="43.50981868038349" lon="1.8630824957866563"><ele>256.0</ele><time>2026-03-22T08:36:52.999Z</time></trkpt><trkpt lat="43.50969023257981" lon="1.8632797378803743"><ele>256.66666666666663</ele><time>2026-03-22T08:36:53.999Z</time></trkpt><trkpt lat="43.50956203610382" lon="1.863479457883068"><ele>257.3333333333333</ele><time>2026-03-22T08:36:54.999Z</time></trkpt><trkpt lat="43.5094351951706" lon="1.8636806925670495"><ele>258.0</ele><time>2026-03-22T08:36:55.999Z</time></trkpt><trkpt lat="43.50930588001972" lon="1.8638828832219072"><ele>258.0</ele><time>2026-03-22T08:36:56.999Z</time></trkpt><trkpt lat="43.50917597073121" lon="1.8640873934734272"><ele>258.0</ele><time>2026-03-22T08:36:57.999Z</time></trkpt><trkpt lat="43.50904178319753" lon="1.864293641252027"><ele>258.0</ele><time>2026-03-22T08:36:58.999Z</time></trkpt><trkpt lat="43.50890914549925" lon="1.864502048718225"><ele>258.0</ele><time>2026-03-22T08:36:59.999Z</time></trkpt><trkpt lat="43.508778737038995" lon="1.8647068814970669"><ele>258.0</ele><time>2026-03-22T08:37:00.999Z</time></trkpt><trkpt lat="43.50864749329694" lon="1.8649075313842869"><ele>258.0</ele><time>2026-03-22T08:37:01.999Z</time></trkpt><trkpt lat="43.50851800103168" lon="1.8651106044203523"><ele>258.3333333333333</ele><time>2026-03-22T08:37:02.999Z</time></trkpt><trkpt lat="43.50838755873893" lon="1.865312790468682"><ele>258.66666666666663</ele><time>2026-03-22T08:37:03.999Z</time></trkpt><trkpt lat="43.508258813743225" lon="1.8655132392758835"><ele>259.0</ele><time>2026-03-22T08:37:04.999Z</time></trkpt><trkpt lat="43.50813274916123" lon="1.8657124760657353"><ele>259.0</ele><time>2026-03-22T08:37:05.999Z</time></trkpt><trkpt lat="43.50800639523088" lon="1.8659063983648538"><ele>259.0</ele><time>2026-03-22T08:37:06.999Z</time></trkpt><trkpt lat="43.507876492307396" lon="1.8661048166471292"><ele>259.0</ele><time>2026-03-22T08:37:07.999Z</time></trkpt><trkpt lat="43.50775015801167" lon="1.8663025903043704"><ele>259.0</ele><time>2026-03-22T08:37:08.999Z</time></trkpt><trkpt lat="43.507618285246856" lon="1.8665011409661696"><ele>259.0</ele><time>2026-03-22T08:37:09.999Z</time></trkpt><trkpt lat="43.50748059442415" lon="1.8667079720880293"><ele>259.0</ele><time>2026-03-22T08:37:10.999Z</time></trkpt><trkpt lat="43.507349233531286" lon="1.8669083187194837"><ele>258.3333333333333</ele><time>2026-03-22T08:37:11.999Z</time></trkpt><trkpt lat="43.50721452764809" lon="1.8671140108787159"><ele>257.6666666666667</ele><time>2026-03-22T08:37:13Z</time></trkpt><trkpt lat="43.50708249143445" lon="1.8673187789614754"><ele>257.0</ele><time>2026-03-22T08:37:14Z</time></trkpt><trkpt lat="43.506950532764876" lon="1.867524669184602"><ele>257.0</ele><time>2026-03-22T08:37:15Z</time></trkpt><trkpt lat="43.50681528769464" lon="1.8677324042590133"><ele>257.0</ele><time>2026-03-22T08:37:16Z</time></trkpt><trkpt lat="43.50667944248662" lon="1.8679420671135294"><ele>257.0</ele><time>2026-03-22T08:37:17Z</time></trkpt><trkpt lat="43.50654365657996" lon="1.86815031709492"><ele>257.0</ele><time>2026-03-22T08:37:18Z</time></trkpt><trkpt lat="43.50640903349037" lon="1.8683600387709867"><ele>257.0</ele><time>2026-03-22T08:37:19Z</time></trkpt><trkpt lat="43.50627390694515" lon="1.868569932555549"><ele>257.0</ele><time>2026-03-22T08:37:20Z</time></trkpt><trkpt lat="43.50613192361352" lon="1.8687795313389857"><ele>257.33333333333337</ele><time>2026-03-22T08:37:21Z</time></trkpt><trkpt lat="43.50599528970419" lon="1.86899122567771"><ele>257.6666666666667</ele><time>2026-03-22T08:37:22Z</time></trkpt><trkpt lat="43.50585799567616" lon="1.8692040147579398"><ele>258.0</ele><time>2026-03-22T08:37:23Z</time></trkpt><trkpt lat="43.50572367848549" lon="1.8694176329272802"><ele>258.0</ele><time>2026-03-22T08:37:24Z</time></trkpt><trkpt lat="43.50558805357223" lon="1.8696332859858305"><ele>258.0</ele><time>2026-03-22T08:37:25Z</time></trkpt><trkpt lat="43.50545074530311" lon="1.8698479176653864"><ele>258.0</ele><time>2026-03-22T08:37:26Z</time></trkpt><trkpt lat="43.505317680327856" lon="1.870060024506371"><ele>260.0</ele><time>2026-03-22T08:37:27Z</time></trkpt><trkpt lat="43.50518598619333" lon="1.8702830666138743"><ele>262.0</ele><time>2026-03-22T08:37:28Z</time></trkpt><trkpt lat="43.50505047680938" lon="1.870513494397202"><ele>264.0</ele><time>2026-03-22T08:37:29Z</time></trkpt><trkpt lat="43.50492267168684" lon="1.8707494263095625"><ele>264.3333333333333</ele><time>2026-03-22T08:37:30Z</time></trkpt><trkpt lat="43.50480131717966" lon="1.8709919562712787"><ele>264.66666666666663</ele><time>2026-03-22T08:37:31Z</time></trkpt><trkpt lat="43.50468551755429" lon="1.8712455297497053"><ele>265.0</ele><time>2026-03-22T08:37:32Z</time></trkpt><trkpt lat="43.50456905049208" lon="1.8715022965997021"><ele>265.5</ele><time>2026-03-22T08:37:33Z</time></trkpt><trkpt lat="43.504450012940865" lon="1.87176458714935"><ele>266.0</ele><time>2026-03-22T08:37:34Z</time></trkpt><trkpt lat="43.50433190886367" lon="1.8720287989051654"><ele>266.0</ele><time>2026-03-22T08:37:35Z</time></trkpt><trkpt lat="43.50421718034176" lon="1.8722889919032937"><ele>266.0</ele><time>2026-03-22T08:37:36Z</time></trkpt><trkpt lat="43.50410708109417" lon="1.8725467761143748"><ele>266.0</ele><time>2026-03-22T08:37:37Z</time></trkpt><trkpt lat="43.50400097512231" lon="1.872802672888664"><ele>266.0</ele><time>2026-03-22T08:37:38Z</time></trkpt><trkpt lat="43.50389088628263" lon="1.8730619417758259"><ele>266.0</ele><time>2026-03-22T08:37:39Z</time></trkpt><trkpt lat="43.503787782555804" lon="1.87331908957447"><ele>266.0</ele><time>2026-03-22T08:37:40Z</time></trkpt><trkpt lat="43.50368401887273" lon="1.8735735358676473"><ele>267.0</ele><time>2026-03-22T08:37:41Z</time></trkpt><trkpt lat="43.50357703240193" lon="1.8738248256087786"><ele>268.0</ele><time>2026-03-22T08:37:42Z</time></trkpt><trkpt lat="43.503471887844" lon="1.8740794583246023"><ele>269.0</ele><time>2026-03-22T08:37:43Z</time></trkpt><trkpt lat="43.5033670926255" lon="1.8743333634689168"><ele>269.0</ele><time>2026-03-22T08:37:44Z</time></trkpt><trkpt lat="43.50326121400709" lon="1.8745858401140327"><ele>269.0</ele><time>2026-03-22T08:37:45Z</time></trkpt><trkpt lat="43.50315903098595" lon="1.8748356560091748"><ele>269.0</ele><time>2026-03-22T08:37:46Z</time></trkpt><trkpt lat="43.50305422895893" lon="1.8750863986236421"><ele>268.6666666666667</ele><time>2026-03-22T08:37:47Z</time></trkpt><trkpt lat="43.50294891696046" lon="1.8753407311433157"><ele>268.3333333333333</ele><time>2026-03-22T08:37:48Z</time></trkpt><trkpt lat="43.50284369561636" lon="1.875598392629721"><ele>268.0</ele><time>2026-03-22T08:37:49Z</time></trkpt><trkpt lat="43.50273739789044" lon="1.8758553498784973"><ele>269.3333333333333</ele><time>2026-03-22T08:37:50Z</time></trkpt><trkpt lat="43.50263091545265" lon="1.8761147754122711"><ele>270.6666666666667</ele><time>2026-03-22T08:37:51Z</time></trkpt><trkpt lat="43.50252405380306" lon="1.876375127594409"><ele>272.0</ele><time>2026-03-22T08:37:52Z</time></trkpt><trkpt lat="43.50241906384073" lon="1.8766357296049987"><ele>271.6666666666667</ele><time>2026-03-22T08:37:53Z</time></trkpt><trkpt lat="43.50231119257376" lon="1.8768999348545785"><ele>271.3333333333333</ele><time>2026-03-22T08:37:54Z</time></trkpt><trkpt lat="43.50220304844771" lon="1.8771656122262188"><ele>271.0</ele><time>2026-03-22T08:37:55Z</time></trkpt><trkpt lat="43.502093990839036" lon="1.8774295383575035"><ele>271.3333333333333</ele><time>2026-03-22T08:37:56Z</time></trkpt><trkpt lat="43.501986213989696" lon="1.8776937482323535"><ele>271.6666666666667</ele><time>2026-03-22T08:37:57Z</time></trkpt><trkpt lat="43.50187879216071" lon="1.8779587139556193"><ele>272.0</ele><time>2026-03-22T08:37:58Z</time></trkpt><trkpt lat="43.50177043349213" lon="1.8782223473840765"><ele>272.0</ele><time>2026-03-22T08:37:59Z</time></trkpt><trkpt lat="43.50166505836524" lon="1.8784859544817134"><ele>272.0</ele><time>2026-03-22T08:38:00Z</time></trkpt><trkpt lat="43.50155784324055" lon="1.8787502722332097"><ele>272.0</ele><time>2026-03-22T08:38:01Z</time></trkpt><trkpt lat="43.50144941218046" lon="1.879007755848071"><ele>272.33333333333337</ele><time>2026-03-22T08:38:02Z</time></trkpt><trkpt lat="43.50134247471288" lon="1.879267464395914"><ele>272.6666666666667</ele><time>2026-03-22T08:38:03Z</time></trkpt><trkpt lat="43.50123548326498" lon="1.879524445816473"><ele>273.0</ele><time>2026-03-22T08:38:04Z</time></trkpt><trkpt lat="43.50113087619348" lon="1.8797851282813596"><ele>273.3333333333333</ele><time>2026-03-22T08:38:05Z</time></trkpt><trkpt lat="43.50102742508743" lon="1.8800450419192711"><ele>273.66666666666663</ele><time>2026-03-22T08:38:06Z</time></trkpt><trkpt lat="43.50091933174171" lon="1.8803038172006536"><ele>274.0</ele><time>2026-03-22T08:38:07Z</time></trkpt><trkpt lat="43.50081485887077" lon="1.880563679151708"><ele>274.3333333333333</ele><time>2026-03-22T08:38:08Z</time></trkpt><trkpt lat="43.50070837322789" lon="1.8808217124303521"><ele>274.6666666666667</ele><time>2026-03-22T08:38:09Z</time></trkpt><trkpt lat="43.500603632798054" lon="1.8810812839622382"><ele>275.0</ele><time>2026-03-22T08:38:10Z</time></trkpt><trkpt lat="43.50049762374885" lon="1.8813396804401488"><ele>275.6666666666667</ele><time>2026-03-22T08:38:11Z</time></trkpt><trkpt lat="43.50039018211529" lon="1.8815973685003113"><ele>276.3333333333333</ele><time>2026-03-22T08:38:12Z</time></trkpt><trkpt lat="43.500284573641615" lon="1.8818565412481512"><ele>277.0</ele><time>2026-03-22T08:38:13Z</time></trkpt><trkpt lat="43.500179000523495" lon="1.8821182382846884"><ele>277.0</ele><time>2026-03-22T08:38:14Z</time></trkpt><trkpt lat="43.500070014990925" lon="1.8823777996702635"><ele>277.0</ele><time>2026-03-22T08:38:15Z</time></trkpt><trkpt lat="43.49995833560288" lon="1.8826416459559159"><ele>277.0</ele><time>2026-03-22T08:38:16Z</time></trkpt><trkpt lat="43.499849418256964" lon="1.8829087343739275"><ele>275.5</ele><time>2026-03-22T08:38:17Z</time></trkpt><trkpt lat="43.499737712327" lon="1.8831775513181876"><ele>274.0</ele><time>2026-03-22T08:38:18Z</time></trkpt><trkpt lat="43.49962651508873" lon="1.8834512675042367"><ele>276.0</ele><time>2026-03-22T08:38:19Z</time></trkpt><trkpt lat="43.49951502892077" lon="1.8837284762434818"><ele>278.0</ele><time>2026-03-22T08:38:20Z</time></trkpt><trkpt lat="43.499407523447516" lon="1.8840032786376146"><ele>278.0</ele><time>2026-03-22T08:38:21Z</time></trkpt><trkpt lat="43.499300790505025" lon="1.8842809550478794"><ele>278.0</ele><time>2026-03-22T08:38:22Z</time></trkpt><trkpt lat="43.49919547991522" lon="1.8845569344773454"><ele>278.0</ele><time>2026-03-22T08:38:23Z</time></trkpt><trkpt lat="43.49909084758671" lon="1.884824686055159"><ele>278.0</ele><time>2026-03-22T08:38:24Z</time></trkpt><trkpt lat="43.498988015562915" lon="1.8850887249593387"><ele>278.0</ele><time>2026-03-22T08:38:25Z</time></trkpt><trkpt lat="43.498888992781815" lon="1.8853480576429489"><ele>278.0</ele><time>2026-03-22T08:38:26Z</time></trkpt><trkpt lat="43.49879192804212" lon="1.885599626070016"><ele>278.0</ele><time>2026-03-22T08:38:27Z</time></trkpt><trkpt lat="43.498698023891286" lon="1.8858450255708048"><ele>278.0</ele><time>2026-03-22T08:38:28Z</time></trkpt><trkpt lat="43.49860494931144" lon="1.8860956251526155"><ele>278.0</ele><time>2026-03-22T08:38:29Z</time></trkpt><trkpt lat="43.49851454583046" lon="1.8863545269690285"><ele>278.0</ele><time>2026-03-22T08:38:29.999Z</time></trkpt><trkpt lat="43.49843265469668" lon="1.8866174862355938"><ele>278.0</ele><time>2026-03-22T08:38:30.999Z</time></trkpt><trkpt lat="43.498355981612704" lon="1.886886150270683"><ele>277.33333333333337</ele><time>2026-03-22T08:38:31.999Z</time></trkpt><trkpt lat="43.49828052732448" lon="1.88716465008812"><ele>276.6666666666667</ele><time>2026-03-22T08:38:32.999Z</time></trkpt><trkpt lat="43.49820645316561" lon="1.887453057437955"><ele>276.0</ele><time>2026-03-22T08:38:33.999Z</time></trkpt><trkpt lat="43.49813757100912" lon="1.8877357724913713"><ele>274.3333333333333</ele><time>2026-03-22T08:38:34.999Z</time></trkpt><trkpt lat="43.49807803346937" lon="1.8880042189692572"><ele>272.66666666666663</ele><time>2026-03-22T08:38:35.999Z</time></trkpt><trkpt lat="43.4980280063252" lon="1.888257481468952"><ele>271.0</ele><time>2026-03-22T08:38:36.999Z</time></trkpt><trkpt lat="43.49798858305336" lon="1.8884927806783387"><ele>272.3333333333333</ele><time>2026-03-22T08:38:37.999Z</time></trkpt><trkpt lat="43.497954276027585" lon="1.8887226619795376"><ele>273.6666666666667</ele><time>2026-03-22T08:38:38.999Z</time></trkpt><trkpt lat="43.49792258668796" lon="1.8889366273227304"><ele>275.0</ele><time>2026-03-22T08:38:39.999Z</time></trkpt><trkpt lat="43.497875818798406" lon="1.8891666185292804"><ele>273.0</ele><time>2026-03-22T08:38:40.999Z</time></trkpt><trkpt lat="43.49780484786049" lon="1.8893945487368322"><ele>271.0</ele><time>2026-03-22T08:38:41.999Z</time></trkpt><trkpt lat="43.49771341804745" lon="1.8896053076752213"><ele>269.0</ele><time>2026-03-22T08:38:42.999Z</time></trkpt><trkpt lat="43.4975925086489" lon="1.889831843639137"><ele>269.0</ele><time>2026-03-22T08:38:43.999Z</time></trkpt><trkpt lat="43.497472086888735" lon="1.8900527095902155"><ele>269.0</ele><time>2026-03-22T08:38:44.999Z</time></trkpt><trkpt lat="43.49736521339045" lon="1.8902639680397513"><ele>269.0</ele><time>2026-03-22T08:38:45.999Z</time></trkpt><trkpt lat="43.497263481739076" lon="1.8905089808458229"><ele>266.0</ele><time>2026-03-22T08:38:46.999Z</time></trkpt><trkpt lat="43.49717197060063" lon="1.8907921398985568"><ele>263.0</ele><time>2026-03-22T08:38:47.999Z</time></trkpt><trkpt lat="43.49708730998184" lon="1.8910929831108474"><ele>262.33333333333337</ele><time>2026-03-22T08:38:48.999Z</time></trkpt><trkpt lat="43.49701200857555" lon="1.8913629606629239"><ele>261.6666666666667</ele><time>2026-03-22T08:38:49.999Z</time></trkpt><trkpt lat="43.49694949121671" lon="1.8916332723697604"><ele>261.0</ele><time>2026-03-22T08:38:50.999Z</time></trkpt><trkpt lat="43.49689890128537" lon="1.8919163221942625"><ele>261.0</ele><time>2026-03-22T08:38:51.999Z</time></trkpt><trkpt lat="43.49684033570744" lon="1.8921954238128829"><ele>261.0</ele><time>2026-03-22T08:38:52.999Z</time></trkpt><trkpt lat="43.49676820904702" lon="1.8924535768937787"><ele>261.0</ele><time>2026-03-22T08:38:53.999Z</time></trkpt><trkpt lat="43.496680663800326" lon="1.8927192877651873"><ele>260.6666666666667</ele><time>2026-03-22T08:38:54.999Z</time></trkpt><trkpt lat="43.4965747048493" lon="1.8929769489675452"><ele>260.33333333333337</ele><time>2026-03-22T08:38:55.999Z</time></trkpt><trkpt lat="43.496450824046086" lon="1.8932201174999896"><ele>260.0</ele><time>2026-03-22T08:38:56.999Z</time></trkpt><trkpt lat="43.49632200886306" lon="1.8934641729971682"><ele>260.6666666666667</ele><time>2026-03-22T08:38:57.999Z</time></trkpt><trkpt lat="43.49619559182914" lon="1.893701018471665"><ele>261.3333333333333</ele><time>2026-03-22T08:38:58.999Z</time></trkpt><trkpt lat="43.49606824074966" lon="1.8939206836213371"><ele>262.0</ele><time>2026-03-22T08:38:59.999Z</time></trkpt><trkpt lat="43.49593715692076" lon="1.8941288708415698"><ele>261.66666666666663</ele><time>2026-03-22T08:39:00.999Z</time></trkpt><trkpt lat="43.49579775787516" lon="1.8943375941982792"><ele>261.3333333333333</ele><time>2026-03-22T08:39:01.999Z</time></trkpt><trkpt lat="43.49565837964443" lon="1.894548199153891"><ele>261.0</ele><time>2026-03-22T08:39:02.999Z</time></trkpt><trkpt lat="43.49552367397412" lon="1.894754132343337"><ele>261.3333333333333</ele><time>2026-03-22T08:39:03.999Z</time></trkpt><trkpt lat="43.49539917843271" lon="1.894946106076833"><ele>261.66666666666663</ele><time>2026-03-22T08:39:04.999Z</time></trkpt><trkpt lat="43.4952764915556" lon="1.8951269113445428"><ele>262.0</ele><time>2026-03-22T08:39:05.999Z</time></trkpt><trkpt lat="43.49515660669195" lon="1.8952991360006792"><ele>262.0</ele><time>2026-03-22T08:39:06.999Z</time></trkpt><trkpt lat="43.49504364526654" lon="1.8954784820117196"><ele>262.0</ele><time>2026-03-22T08:39:07.999Z</time></trkpt><trkpt lat="43.49493267189047" lon="1.8956411682388103"><ele>262.0</ele><time>2026-03-22T08:39:08.999Z</time></trkpt><trkpt lat="43.49482303197033" lon="1.8958006356240809"><ele>260.75</ele><time>2026-03-22T08:39:09.999Z</time></trkpt><trkpt lat="43.49472177881062" lon="1.8959644329324754"><ele>259.5</ele><time>2026-03-22T08:39:10.999Z</time></trkpt><trkpt lat="43.494632428367076" lon="1.8961193424072067"><ele>258.25</ele><time>2026-03-22T08:39:11.999Z</time></trkpt><trkpt lat="43.49454280096531" lon="1.896284335661909"><ele>257.0</ele><time>2026-03-22T08:39:12.999Z</time></trkpt><trkpt lat="43.49445902742036" lon="1.896455861492811"><ele>259.6666666666667</ele><time>2026-03-22T08:39:13.999Z</time></trkpt><trkpt lat="43.49439089478998" lon="1.896656970993507"><ele>262.3333333333333</ele><time>2026-03-22T08:39:14.999Z</time></trkpt><trkpt lat="43.4943438823751" lon="1.8968737972072678"><ele>265.0</ele><time>2026-03-22T08:39:15.999Z</time></trkpt><trkpt lat="43.494309367909594" lon="1.8971014578493957"><ele>265.0</ele><time>2026-03-22T08:39:16.999Z</time></trkpt><trkpt lat="43.49427625123277" lon="1.8973347102088634"><ele>265.0</ele><time>2026-03-22T08:39:17.999Z</time></trkpt><trkpt lat="43.49423995356503" lon="1.8975916914950475"><ele>265.0</ele><time>2026-03-22T08:39:19Z</time></trkpt><trkpt lat="43.49420486155649" lon="1.8978487521266272"><ele>264.0</ele><time>2026-03-22T08:39:20Z</time></trkpt><trkpt lat="43.49416795498828" lon="1.8980945761600834"><ele>263.0</ele><time>2026-03-22T08:39:21Z</time></trkpt><trkpt lat="43.49412602070769" lon="1.8983319298750254"><ele>262.0</ele><time>2026-03-22T08:39:22Z</time></trkpt><trkpt lat="43.494090755252614" lon="1.8985589238108354"><ele>258.3333333333333</ele><time>2026-03-22T08:39:23Z</time></trkpt><trkpt lat="43.49405346684016" lon="1.898774581925979"><ele>254.66666666666669</ele><time>2026-03-22T08:39:24Z</time></trkpt><trkpt lat="43.49401260133076" lon="1.8989755909263304"><ele>251.0</ele><time>2026-03-22T08:39:25Z</time></trkpt><trkpt lat="43.493952381533745" lon="1.899169499345214"><ele>251.66666666666669</ele><time>2026-03-22T08:39:26Z</time></trkpt><trkpt lat="43.49386551337434" lon="1.899356184109337"><ele>252.33333333333331</ele><time>2026-03-22T08:39:27Z</time></trkpt><trkpt lat="43.49374802168721" lon="1.8995309008769683"><ele>253.0</ele><time>2026-03-22T08:39:28Z</time></trkpt><trkpt lat="43.49361220877809" lon="1.8997205634075132"><ele>253.0</ele><time>2026-03-22T08:39:29Z</time></trkpt><trkpt lat="43.493472511436" lon="1.8999133126212477"><ele>253.0</ele><time>2026-03-22T08:39:30Z</time></trkpt><trkpt lat="43.49332044095982" lon="1.900100004041045"><ele>253.0</ele><time>2026-03-22T08:39:31Z</time></trkpt><trkpt lat="43.49316778863766" lon="1.9003036822954207"><ele>252.0</ele><time>2026-03-22T08:39:32Z</time></trkpt><trkpt lat="43.49302370093545" lon="1.9004923788048873"><ele>251.0</ele><time>2026-03-22T08:39:33Z</time></trkpt><trkpt lat="43.492873274893235" lon="1.900691477398454"><ele>250.0</ele><time>2026-03-22T08:39:34Z</time></trkpt><trkpt lat="43.492718142131665" lon="1.9009179366357196"><ele>245.0</ele><time>2026-03-22T08:39:35Z</time></trkpt><trkpt lat="43.49254875370486" lon="1.9011308462100411"><ele>240.0</ele><time>2026-03-22T08:39:36Z</time></trkpt><trkpt lat="43.492377076073815" lon="1.9013518906051625"><ele>240.0</ele><time>2026-03-22T08:39:37Z</time></trkpt><trkpt lat="43.49220413591828" lon="1.901582486332692"><ele>240.0</ele><time>2026-03-22T08:39:38Z</time></trkpt><trkpt lat="43.492031742799014" lon="1.9018066608581339"><ele>239.33333333333331</ele><time>2026-03-22T08:39:39Z</time></trkpt><trkpt lat="43.49187158812115" lon="1.9020179445103047"><ele>238.66666666666666</ele><time>2026-03-22T08:39:40Z</time></trkpt><trkpt lat="43.49171260868774" lon="1.9022292624489188"><ele>238.0</ele><time>2026-03-22T08:39:41Z</time></trkpt><trkpt lat="43.49155118061232" lon="1.9024338862112384"><ele>237.66666666666666</ele><time>2026-03-22T08:39:42Z</time></trkpt><trkpt lat="43.49138973203436" lon="1.902635855690333"><ele>237.33333333333331</ele><time>2026-03-22T08:39:43Z</time></trkpt><trkpt lat="43.49123872848845" lon="1.9028419484991945"><ele>237.0</ele><time>2026-03-22T08:39:44Z</time></trkpt><trkpt lat="43.491083172263615" lon="1.9030522837310906"><ele>237.0</ele><time>2026-03-22T08:39:45Z</time></trkpt><trkpt lat="43.490925640248726" lon="1.9032613280331412"><ele>237.0</ele><time>2026-03-22T08:39:46Z</time></trkpt><trkpt lat="43.49076644155359" lon="1.9034693244417809"><ele>237.0</ele><time>2026-03-22T08:39:47Z</time></trkpt><trkpt lat="43.490605686371524" lon="1.9036809410507136"><ele>237.0</ele><time>2026-03-22T08:39:48Z</time></trkpt><trkpt lat="43.49044826608068" lon="1.9038976896189548"><ele>237.0</ele><time>2026-03-22T08:39:49Z</time></trkpt><trkpt lat="43.490288608860695" lon="1.9041127082722862"><ele>237.0</ele><time>2026-03-22T08:39:50Z</time></trkpt><trkpt lat="43.49013383912102" lon="1.9043190130866356"><ele>237.66666666666669</ele><time>2026-03-22T08:39:51Z</time></trkpt><trkpt lat="43.4899821824126" lon="1.9045156826078664"><ele>238.33333333333334</ele><time>2026-03-22T08:39:52Z</time></trkpt><trkpt lat="43.48983850207814" lon="1.9047115917842696"><ele>239.0</ele><time>2026-03-22T08:39:53Z</time></trkpt><trkpt lat="43.48969072599883" lon="1.9049060309924257"><ele>238.33333333333334</ele><time>2026-03-22T08:39:54Z</time></trkpt><trkpt lat="43.48955018109509" lon="1.9050995000376834"><ele>237.66666666666669</ele><time>2026-03-22T08:39:55Z</time></trkpt><trkpt lat="43.48939373252538" lon="1.9052774873939435"><ele>237.0</ele><time>2026-03-22T08:39:56Z</time></trkpt><trkpt lat="43.4892505673348" lon="1.9054663192103412"><ele>237.0</ele><time>2026-03-22T08:39:57Z</time></trkpt><trkpt lat="43.48911891959387" lon="1.9056738101632191"><ele>237.0</ele><time>2026-03-22T08:39:58Z</time></trkpt><trkpt lat="43.48896994448922" lon="1.905869307946366"><ele>237.0</ele><time>2026-03-22T08:39:59Z</time></trkpt><trkpt lat="43.488820201209656" lon="1.9060651713444376"><ele>237.33333333333331</ele><time>2026-03-22T08:40:00Z</time></trkpt><trkpt lat="43.488667085149245" lon="1.906265397003652"><ele>237.66666666666666</ele><time>2026-03-22T08:40:01Z</time></trkpt><trkpt lat="43.488513699347735" lon="1.906460995000685"><ele>238.0</ele><time>2026-03-22T08:40:02Z</time></trkpt><trkpt lat="43.488361297563564" lon="1.9066612997964851"><ele>237.33333333333331</ele><time>2026-03-22T08:40:03Z</time></trkpt><trkpt lat="43.48821041297161" lon="1.9068639104202134"><ele>236.66666666666669</ele><time>2026-03-22T08:40:04Z</time></trkpt><trkpt lat="43.48805809290365" lon="1.9070628829212697"><ele>236.0</ele><time>2026-03-22T08:40:05Z</time></trkpt><trkpt lat="43.487910034366145" lon="1.9072580433187556"><ele>236.0</ele><time>2026-03-22T08:40:06Z</time></trkpt><trkpt lat="43.48776268234431" lon="1.9074538806451211"><ele>236.0</ele><time>2026-03-22T08:40:07Z</time></trkpt><trkpt lat="43.48761482603106" lon="1.9076543771360748"><ele>236.0</ele><time>2026-03-22T08:40:08Z</time></trkpt><trkpt lat="43.487466906470154" lon="1.907853385501874"><ele>234.33333333333334</ele><time>2026-03-22T08:40:09Z</time></trkpt><trkpt lat="43.48731870869415" lon="1.9080531050544942"><ele>232.66666666666669</ele><time>2026-03-22T08:40:10Z</time></trkpt><trkpt lat="43.487165687430256" lon="1.9082546096286805"><ele>231.0</ele><time>2026-03-22T08:40:11Z</time></trkpt><trkpt lat="43.4870105452831" lon="1.9084563135317936"><ele>231.0</ele><time>2026-03-22T08:40:12Z</time></trkpt><trkpt lat="43.486852724229095" lon="1.908660295614978"><ele>231.0</ele><time>2026-03-22T08:40:13Z</time></trkpt><trkpt lat="43.48669654730714" lon="1.9088648482325754"><ele>231.0</ele><time>2026-03-22T08:40:14Z</time></trkpt><trkpt lat="43.48653897929849" lon="1.9090701175362146"><ele>231.33333333333331</ele><time>2026-03-22T08:40:15Z</time></trkpt><trkpt lat="43.4863825377498" lon="1.909276288301528"><ele>231.66666666666666</ele><time>2026-03-22T08:40:16Z</time></trkpt><trkpt lat="43.48622313071977" lon="1.909483442003207"><ele>232.0</ele><time>2026-03-22T08:40:17Z</time></trkpt><trkpt lat="43.48606759378095" lon="1.9096903126983351"><ele>232.0</ele><time>2026-03-22T08:40:18Z</time></trkpt><trkpt lat="43.48591264758916" lon="1.9098952667672897"><ele>232.0</ele><time>2026-03-22T08:40:19Z</time></trkpt><trkpt lat="43.485754288663124" lon="1.9101015710963338"><ele>232.0</ele><time>2026-03-22T08:40:20Z</time></trkpt><trkpt lat="43.48559315005212" lon="1.9103105192568024"><ele>232.0</ele><time>2026-03-22T08:40:21Z</time></trkpt><trkpt lat="43.48543092351743" lon="1.9105223240875426"><ele>232.0</ele><time>2026-03-22T08:40:22Z</time></trkpt><trkpt lat="43.48526790911996" lon="1.9107358315891234"><ele>232.0</ele><time>2026-03-22T08:40:23Z</time></trkpt><trkpt lat="43.485104457389276" lon="1.910951109488152"><ele>232.0</ele><time>2026-03-22T08:40:24Z</time></trkpt><trkpt lat="43.48494018457095" lon="1.9111692951137993"><ele>232.0</ele><time>2026-03-22T08:40:25Z</time></trkpt><trkpt lat="43.48477587674286" lon="1.9113885987846901"><ele>232.0</ele><time>2026-03-22T08:40:26Z</time></trkpt><trkpt lat="43.484608945835895" lon="1.9116081254269055"><ele>232.0</ele><time>2026-03-22T08:40:27Z</time></trkpt><trkpt lat="43.484444004401574" lon="1.9118243414244334"><ele>232.5</ele><time>2026-03-22T08:40:28Z</time></trkpt><trkpt lat="43.484280221031646" lon="1.9120425684432263"><ele>233.0</ele><time>2026-03-22T08:40:29Z</time></trkpt><trkpt lat="43.4841174120518" lon="1.912259706476602"><ele>233.0</ele><time>2026-03-22T08:40:30Z</time></trkpt><trkpt lat="43.483959445148514" lon="1.9124694040427548"><ele>233.0</ele><time>2026-03-22T08:40:31Z</time></trkpt><trkpt lat="43.48380398226669" lon="1.9126746190340764"><ele>233.0</ele><time>2026-03-22T08:40:32Z</time></trkpt><trkpt lat="43.483649558026265" lon="1.9128808010440785"><ele>234.33333333333334</ele><time>2026-03-22T08:40:33Z</time></trkpt><trkpt lat="43.483493397971785" lon="1.913088566111422"><ele>235.66666666666669</ele><time>2026-03-22T08:40:34Z</time></trkpt><trkpt lat="43.483338215632436" lon="1.9132899796663532"><ele>237.0</ele><time>2026-03-22T08:40:35Z</time></trkpt><trkpt lat="43.48318809826928" lon="1.9134845850577584"><ele>237.0</ele><time>2026-03-22T08:40:36Z</time></trkpt><trkpt lat="43.48303860976164" lon="1.9136791470908656"><ele>237.0</ele><time>2026-03-22T08:40:37Z</time></trkpt><trkpt lat="43.48289090454908" lon="1.913873820247121"><ele>237.0</ele><time>2026-03-22T08:40:38Z</time></trkpt><trkpt lat="43.4827407767306" lon="1.914065493747933"><ele>236.66666666666669</ele><time>2026-03-22T08:40:39Z</time></trkpt><trkpt lat="43.48260344740635" lon="1.9142496283269697"><ele>236.33333333333334</ele><time>2026-03-22T08:40:40Z</time></trkpt><trkpt lat="43.482475624434336" lon="1.914422763124486"><ele>236.0</ele><time>2026-03-22T08:40:41Z</time></trkpt><trkpt lat="43.48235371376986" lon="1.914580508742841"><ele>236.0</ele><time>2026-03-22T08:40:42Z</time></trkpt><trkpt lat="43.482237686792395" lon="1.9147287470840093"><ele>236.0</ele><time>2026-03-22T08:40:43Z</time></trkpt><trkpt lat="43.4821292422472" lon="1.9148672340847537"><ele>236.0</ele><time>2026-03-22T08:40:44Z</time></trkpt><trkpt lat="43.48201862363502" lon="1.9150060561169935"><ele>236.25</ele><time>2026-03-22T08:40:45Z</time></trkpt><trkpt lat="43.48191345366762" lon="1.9151518904127338"><ele>236.5</ele><time>2026-03-22T08:40:46Z</time></trkpt><trkpt lat="43.4818141014789" lon="1.9152883325730048"><ele>236.75</ele><time>2026-03-22T08:40:47Z</time></trkpt><trkpt lat="43.481720700993" lon="1.9154132175199705"><ele>237.0</ele><time>2026-03-22T08:40:48Z</time></trkpt><trkpt lat="43.48162994037451" lon="1.9155278005600254"><ele>237.0</ele><time>2026-03-22T08:40:49Z</time></trkpt><trkpt lat="43.481546284521585" lon="1.9156359675094339"><ele>237.0</ele><time>2026-03-22T08:40:50Z</time></trkpt><trkpt lat="43.481457342099084" lon="1.9157464873088392"><ele>237.0</ele><time>2026-03-22T08:40:50.999Z</time></trkpt><trkpt lat="43.48137600724987" lon="1.9158560898341976"><ele>237.0</ele><time>2026-03-22T08:40:51.999Z</time></trkpt><trkpt lat="43.481302691780506" lon="1.9159575393775223"><ele>237.0</ele><time>2026-03-22T08:40:52.999Z</time></trkpt><trkpt lat="43.48123323496148" lon="1.9160521473410252"><ele>237.0</ele><time>2026-03-22T08:40:53.999Z</time></trkpt><trkpt lat="43.48117141652596" lon="1.916122899275178"><ele>237.0</ele><time>2026-03-22T08:40:54.999Z</time></trkpt><trkpt lat="43.48109514990245" lon="1.91617599252847"><ele>237.0</ele><time>2026-03-22T08:40:55.999Z</time></trkpt><trkpt lat="43.48102358192305" lon="1.916225798546528"><ele>237.0</ele><time>2026-03-22T08:40:56.999Z</time></trkpt><trkpt lat="43.48096899050673" lon="1.916302209830994"><ele>237.0</ele><time>2026-03-22T08:40:57.999Z</time></trkpt><trkpt lat="43.480947658075664" lon="1.9163907110398026"><ele>237.0</ele><time>2026-03-22T08:40:58.999Z</time></trkpt><trkpt lat="43.48093484188868" lon="1.9165169520794654"><ele>237.0</ele><time>2026-03-22T08:40:59.999Z</time></trkpt><trkpt lat="43.480889013928284" lon="1.9166563706057218"><ele>237.0</ele><time>2026-03-22T08:41:00.999Z</time></trkpt><trkpt lat="43.48082587771846" lon="1.9168101231899757"><ele>237.0</ele><time>2026-03-22T08:41:01.999Z</time></trkpt><trkpt lat="43.48075828249814" lon="1.916992797737947"><ele>236.75</ele><time>2026-03-22T08:41:02.999Z</time></trkpt><trkpt lat="43.4806963619298" lon="1.917174026342345"><ele>236.5</ele><time>2026-03-22T08:41:03.999Z</time></trkpt><trkpt lat="43.48063113030319" lon="1.9173522934505258"><ele>236.25</ele><time>2026-03-22T08:41:04.999Z</time></trkpt><trkpt lat="43.48055622822319" lon="1.9175432628871556"><ele>236.0</ele><time>2026-03-22T08:41:05.999Z</time></trkpt><trkpt lat="43.48048631505469" lon="1.9177413743901301"><ele>233.0</ele><time>2026-03-22T08:41:06.999Z</time></trkpt><trkpt lat="43.480414349346404" lon="1.91794251605629"><ele>230.0</ele><time>2026-03-22T08:41:07.999Z</time></trkpt><trkpt lat="43.4803444874162" lon="1.9181409317942766"><ele>227.0</ele><time>2026-03-22T08:41:08.999Z</time></trkpt><trkpt lat="43.480275670738074" lon="1.9183280633033661"><ele>227.25</ele><time>2026-03-22T08:41:09.999Z</time></trkpt><trkpt lat="43.48021499911834" lon="1.9185133594078903"><ele>227.5</ele><time>2026-03-22T08:41:10.999Z</time></trkpt><trkpt lat="43.4801520126207" lon="1.9186928114334407"><ele>227.75</ele><time>2026-03-22T08:41:11.999Z</time></trkpt><trkpt lat="43.48008436497247" lon="1.91887662654767"><ele>228.0</ele><time>2026-03-22T08:41:12.999Z</time></trkpt><trkpt lat="43.48001922042437" lon="1.919067137568858"><ele>229.0</ele><time>2026-03-22T08:41:13.999Z</time></trkpt><trkpt lat="43.479950417150114" lon="1.919261581067499"><ele>230.0</ele><time>2026-03-22T08:41:14.999Z</time></trkpt><trkpt lat="43.479887476285974" lon="1.919450835074601"><ele>231.0</ele><time>2026-03-22T08:41:15.999Z</time></trkpt><trkpt lat="43.47982636881123" lon="1.9196306408690273"><ele>231.0</ele><time>2026-03-22T08:41:16.999Z</time></trkpt><trkpt lat="43.479763752120746" lon="1.9198075710020932"><ele>231.0</ele><time>2026-03-22T08:41:17.999Z</time></trkpt><trkpt lat="43.47970094197581" lon="1.9199932608875911"><ele>231.0</ele><time>2026-03-22T08:41:18.999Z</time></trkpt><trkpt lat="43.47963728902391" lon="1.9201805598620494"><ele>231.0</ele><time>2026-03-22T08:41:19.999Z</time></trkpt><trkpt lat="43.479571790008976" lon="1.9203680608043616"><ele>230.25</ele><time>2026-03-22T08:41:20.999Z</time></trkpt><trkpt lat="43.479505577116086" lon="1.9205525320938555"><ele>229.5</ele><time>2026-03-22T08:41:21.999Z</time></trkpt><trkpt lat="43.47944400622111" lon="1.9207346833657706"><ele>228.75</ele><time>2026-03-22T08:41:22.999Z</time></trkpt><trkpt lat="43.479381183769966" lon="1.9209118871805593"><ele>228.0</ele><time>2026-03-22T08:41:23.999Z</time></trkpt><trkpt lat="43.479323264815264" lon="1.9210770467259914"><ele>228.0</ele><time>2026-03-22T08:41:25Z</time></trkpt><trkpt lat="43.47926640739506" lon="1.921233417318074"><ele>228.0</ele><time>2026-03-22T08:41:26Z</time></trkpt><trkpt lat="43.47920894081339" lon="1.921404131686611"><ele>228.0</ele><time>2026-03-22T08:41:27Z</time></trkpt><trkpt lat="43.47915077115855" lon="1.92157167800108"><ele>228.0</ele><time>2026-03-22T08:41:28Z</time></trkpt><trkpt lat="43.479100344373094" lon="1.921723413508063"><ele>228.4</ele><time>2026-03-22T08:41:29Z</time></trkpt><trkpt lat="43.47905671532795" lon="1.9218548518200385"><ele>228.8</ele><time>2026-03-22T08:41:30Z</time></trkpt><trkpt lat="43.47901485866806" lon="1.921987905184435"><ele>229.2</ele><time>2026-03-22T08:41:31Z</time></trkpt><trkpt lat="43.47897542452989" lon="1.922115239563928"><ele>229.6</ele><time>2026-03-22T08:41:32Z</time></trkpt><trkpt lat="43.47893439244904" lon="1.9222361951214373"><ele>230.0</ele><time>2026-03-22T08:41:33Z</time></trkpt><trkpt lat="43.47889123182604" lon="1.9223472603552603"><ele>230.00000000000003</ele><time>2026-03-22T08:41:34Z</time></trkpt><trkpt lat="43.47886201711857" lon="1.9224555978151248"><ele>230.0</ele><time>2026-03-22T08:41:35Z</time></trkpt><trkpt lat="43.47882743557161" lon="1.9225494269708783"><ele>230.0</ele><time>2026-03-22T08:41:36Z</time></trkpt><trkpt lat="43.47879233105872" lon="1.9226315978717663"><ele>230.0</ele><time>2026-03-22T08:41:37Z</time></trkpt><trkpt lat="43.478755666339396" lon="1.9227334094246769"><ele>230.00000000000003</ele><time>2026-03-22T08:41:38Z</time></trkpt><trkpt lat="43.478711121147974" lon="1.9228539667459574"><ele>230.0</ele><time>2026-03-22T08:41:39Z</time></trkpt><trkpt lat="43.47866605469685" lon="1.9229883087683513"><ele>228.5</ele><time>2026-03-22T08:41:40Z</time></trkpt><trkpt lat="43.47861824217066" lon="1.923126440310132"><ele>227.0</ele><time>2026-03-22T08:41:41Z</time></trkpt><trkpt lat="43.4785692975683" lon="1.9232658821652586"><ele>225.5</ele><time>2026-03-22T08:41:42Z</time></trkpt><trkpt lat="43.47851858439499" lon="1.9233988897397578"><ele>224.0</ele><time>2026-03-22T08:41:43Z</time></trkpt><trkpt lat="43.4784602949476" lon="1.9235502326358414"><ele>224.0</ele><time>2026-03-22T08:41:44Z</time></trkpt><trkpt lat="43.47840106145548" lon="1.9237159483838626"><ele>224.0</ele><time>2026-03-22T08:41:45Z</time></trkpt><trkpt lat="43.478345264723785" lon="1.9238762322524527"><ele>224.0</ele><time>2026-03-22T08:41:46Z</time></trkpt><trkpt lat="43.478290268257545" lon="1.9240453452294164"><ele>224.0</ele><time>2026-03-22T08:41:47Z</time></trkpt><trkpt lat="43.47823605657206" lon="1.924207272532092"><ele>224.0</ele><time>2026-03-22T08:41:48Z</time></trkpt><trkpt lat="43.47818074515551" lon="1.9243577519424107"><ele>223.99999999999997</ele><time>2026-03-22T08:41:49Z</time></trkpt><trkpt lat="43.47813810720373" lon="1.9245015449299567"><ele>223.99999999999997</ele><time>2026-03-22T08:41:50Z</time></trkpt><trkpt lat="43.478087527843485" lon="1.9246357645449128"><ele>224.0</ele><time>2026-03-22T08:41:51Z</time></trkpt><trkpt lat="43.47804655468006" lon="1.9247625854533075"><ele>224.0</ele><time>2026-03-22T08:41:52Z</time></trkpt><trkpt lat="43.478005557219646" lon="1.9248866594568208"><ele>224.00000000000003</ele><time>2026-03-22T08:41:53Z</time></trkpt><trkpt lat="43.47796590657848" lon="1.9250029556215518"><ele>224.0</ele><time>2026-03-22T08:41:54Z</time></trkpt><trkpt lat="43.47793061604406" lon="1.9251041402097537"><ele>224.0</ele><time>2026-03-22T08:41:55Z</time></trkpt><trkpt lat="43.47789460738266" lon="1.9252024903097873"><ele>224.0</ele><time>2026-03-22T08:41:56Z</time></trkpt><trkpt lat="43.477863241266185" lon="1.925290078757483"><ele>224.00000000000003</ele><time>2026-03-22T08:41:57Z</time></trkpt><trkpt lat="43.47783056639051" lon="1.9253800952926001"><ele>224.0</ele><time>2026-03-22T08:41:58Z</time></trkpt><trkpt lat="43.47777564587074" lon="1.9254907968889055"><ele>221.0</ele><time>2026-03-22T08:41:59Z</time></trkpt><trkpt lat="43.477717563600294" lon="1.9256382098291807"><ele>218.0</ele><time>2026-03-22T08:42:00Z</time></trkpt><trkpt lat="43.4776545991556" lon="1.9258196098438265"><ele>215.0</ele><time>2026-03-22T08:42:01Z</time></trkpt><trkpt lat="43.477572970668696" lon="1.925962365079291"><ele>212.0</ele><time>2026-03-22T08:42:02Z</time></trkpt><trkpt lat="43.47750339707639" lon="1.9261020296149944"><ele>211.75</ele><time>2026-03-22T08:42:03Z</time></trkpt><trkpt lat="43.477438277756974" lon="1.926238315639195"><ele>211.5</ele><time>2026-03-22T08:42:04Z</time></trkpt><trkpt lat="43.47737343006741" lon="1.9263680762243167"><ele>211.25</ele><time>2026-03-22T08:42:05Z</time></trkpt><trkpt lat="43.477315382259874" lon="1.926505171606846"><ele>211.0</ele><time>2026-03-22T08:42:06Z</time></trkpt><trkpt lat="43.47725649629314" lon="1.9266509584142537"><ele>210.25</ele><time>2026-03-22T08:42:07Z</time></trkpt><trkpt lat="43.47719955499799" lon="1.9268070673567976"><ele>209.5</ele><time>2026-03-22T08:42:08Z</time></trkpt><trkpt lat="43.47714838256941" lon="1.9269696201825115"><ele>208.75</ele><time>2026-03-22T08:42:09Z</time></trkpt><trkpt lat="43.47709182308311" lon="1.9271382022059367"><ele>208.0</ele><time>2026-03-22T08:42:10Z</time></trkpt><trkpt lat="43.477033277515055" lon="1.92731714694117"><ele>207.75</ele><time>2026-03-22T08:42:11Z</time></trkpt><trkpt lat="43.47695679670299" lon="1.9274844324124822"><ele>207.5</ele><time>2026-03-22T08:42:12Z</time></trkpt><trkpt lat="43.47689460818317" lon="1.9276580532910086"><ele>207.25</ele><time>2026-03-22T08:42:13Z</time></trkpt><trkpt lat="43.47683106360306" lon="1.9278354600846994"><ele>207.0</ele><time>2026-03-22T08:42:14Z</time></trkpt><trkpt lat="43.47677447566752" lon="1.9280210048004545"><ele>207.0</ele><time>2026-03-22T08:42:15Z</time></trkpt><trkpt lat="43.476696961338355" lon="1.9281837062310283"><ele>207.0</ele><time>2026-03-22T08:42:16Z</time></trkpt><trkpt lat="43.476626312958274" lon="1.9283374043673227"><ele>207.0</ele><time>2026-03-22T08:42:17Z</time></trkpt><trkpt lat="43.47656681754509" lon="1.9284727408603466"><ele>207.0</ele><time>2026-03-22T08:42:18Z</time></trkpt><trkpt lat="43.47651275407711" lon="1.9285935055426051"><ele>206.6</ele><time>2026-03-22T08:42:19Z</time></trkpt><trkpt lat="43.47645821058355" lon="1.9287099499569182"><ele>206.2</ele><time>2026-03-22T08:42:20Z</time></trkpt><trkpt lat="43.47640824010035" lon="1.928816797546806"><ele>205.8</ele><time>2026-03-22T08:42:21Z</time></trkpt><trkpt lat="43.47636086128963" lon="1.9289153092541984"><ele>205.4</ele><time>2026-03-22T08:42:22Z</time></trkpt><trkpt lat="43.47631594107242" lon="1.9290056741521153"><ele>205.0</ele><time>2026-03-22T08:42:23Z</time></trkpt><trkpt lat="43.47626567791832" lon="1.9291158069145378"><ele>204.5</ele><time>2026-03-22T08:42:24Z</time></trkpt><trkpt lat="43.47621472600457" lon="1.9292394249902975"><ele>204.0</ele><time>2026-03-22T08:42:25Z</time></trkpt><trkpt lat="43.476149811915384" lon="1.9293830511793462"><ele>203.5</ele><time>2026-03-22T08:42:26Z</time></trkpt><trkpt lat="43.476076387533936" lon="1.929539148854229"><ele>203.0</ele><time>2026-03-22T08:42:27Z</time></trkpt><trkpt lat="43.4759927089574" lon="1.9297140454807427"><ele>203.0</ele><time>2026-03-22T08:42:28Z</time></trkpt><trkpt lat="43.4759055187372" lon="1.9299042847200314"><ele>203.0</ele><time>2026-03-22T08:42:29Z</time></trkpt><trkpt lat="43.475819661557516" lon="1.9300968678024542"><ele>203.0</ele><time>2026-03-22T08:42:30Z</time></trkpt><trkpt lat="43.4757349595807" lon="1.9303023957666567"><ele>203.0</ele><time>2026-03-22T08:42:31Z</time></trkpt><trkpt lat="43.47563482628059" lon="1.9305102821494"><ele>203.0</ele><time>2026-03-22T08:42:32Z</time></trkpt><trkpt lat="43.475545506765485" lon="1.93073834103804"><ele>203.0</ele><time>2026-03-22T08:42:33Z</time></trkpt><trkpt lat="43.47545630466089" lon="1.9309494737566177"><ele>203.0</ele><time>2026-03-22T08:42:34Z</time></trkpt><trkpt lat="43.47537161640529" lon="1.9311535552311077"><ele>203.0</ele><time>2026-03-22T08:42:35Z</time></trkpt><trkpt lat="43.47528639370549" lon="1.9313696901641113"><ele>203.0</ele><time>2026-03-22T08:42:36Z</time></trkpt><trkpt lat="43.47520066868294" lon="1.9315864407750096"><ele>203.33333333333334</ele><time>2026-03-22T08:42:37Z</time></trkpt><trkpt lat="43.4751242278454" lon="1.9317949512958152"><ele>203.66666666666669</ele><time>2026-03-22T08:42:38Z</time></trkpt><trkpt lat="43.475059682460085" lon="1.9320105937153773"><ele>204.0</ele><time>2026-03-22T08:42:39Z</time></trkpt><trkpt lat="43.47500276919563" lon="1.9322354088210145"><ele>204.0</ele><time>2026-03-22T08:42:40Z</time></trkpt><trkpt lat="43.47495014508263" lon="1.9324664111528531"><ele>204.0</ele><time>2026-03-22T08:42:40.999Z</time></trkpt><trkpt lat="43.474898329287505" lon="1.932728022364002"><ele>204.0</ele><time>2026-03-22T08:42:41.999Z</time></trkpt><trkpt lat="43.47484985961958" lon="1.9330247313671485"><ele>203.0</ele><time>2026-03-22T08:42:42.999Z</time></trkpt><trkpt lat="43.47479188064495" lon="1.9333461563053982"><ele>202.0</ele><time>2026-03-22T08:42:43.999Z</time></trkpt><trkpt lat="43.474736535067045" lon="1.9336643981896902"><ele>202.0</ele><time>2026-03-22T08:42:44.999Z</time></trkpt><trkpt lat="43.47467907725458" lon="1.93398640500645"><ele>202.0</ele><time>2026-03-22T08:42:45.999Z</time></trkpt><trkpt lat="43.47462061545729" lon="1.934305327787496"><ele>201.0</ele><time>2026-03-22T08:42:46.999Z</time></trkpt><trkpt lat="43.47456712941244" lon="1.9346214415501348"><ele>200.0</ele><time>2026-03-22T08:42:47.999Z</time></trkpt><trkpt lat="43.47451352847309" lon="1.9349156006475838"><ele>200.33333333333334</ele><time>2026-03-22T08:42:48.999Z</time></trkpt><trkpt lat="43.474461388312335" lon="1.9352169122980578"><ele>200.66666666666669</ele><time>2026-03-22T08:42:49.999Z</time></trkpt><trkpt lat="43.474402974055444" lon="1.935511703302388"><ele>201.0</ele><time>2026-03-22T08:42:50.999Z</time></trkpt><trkpt lat="43.47434390465547" lon="1.935816968790829"><ele>200.66666666666669</ele><time>2026-03-22T08:42:51.999Z</time></trkpt><trkpt lat="43.47429018288594" lon="1.9361193757996897"><ele>200.33333333333334</ele><time>2026-03-22T08:42:52.999Z</time></trkpt><trkpt lat="43.47423721270592" lon="1.9364175520268283"><ele>200.0</ele><time>2026-03-22T08:42:53.999Z</time></trkpt><trkpt lat="43.474185307483886" lon="1.936709733463532"><ele>200.0</ele><time>2026-03-22T08:42:54.999Z</time></trkpt><trkpt lat="43.474148603544755" lon="1.93700885167386"><ele>200.0</ele><time>2026-03-22T08:42:55.999Z</time></trkpt><trkpt lat="43.47409496808439" lon="1.9373042003398246"><ele>200.0</ele><time>2026-03-22T08:42:56.999Z</time></trkpt><trkpt lat="43.47404620613024" lon="1.9375867823044075"><ele>198.66666666666669</ele><time>2026-03-22T08:42:57.999Z</time></trkpt><trkpt lat="43.473994454654246" lon="1.9378672334414222"><ele>197.33333333333331</ele><time>2026-03-22T08:42:58.999Z</time></trkpt><trkpt lat="43.4739470174081" lon="1.9381530594517937"><ele>196.0</ele><time>2026-03-22T08:42:59.999Z</time></trkpt><trkpt lat="43.47389412656637" lon="1.9384473908610342"><ele>196.0</ele><time>2026-03-22T08:43:00.999Z</time></trkpt><trkpt lat="43.473840058828586" lon="1.9387497182736806"><ele>196.0</ele><time>2026-03-22T08:43:01.999Z</time></trkpt><trkpt lat="43.47378905500166" lon="1.9390490192381926"><ele>196.0</ele><time>2026-03-22T08:43:02.999Z</time></trkpt><trkpt lat="43.47372306090587" lon="1.9393330867900864"><ele>196.0</ele><time>2026-03-22T08:43:03.999Z</time></trkpt><trkpt lat="43.47369072703105" lon="1.939611725206322"><ele>196.0</ele><time>2026-03-22T08:43:04.999Z</time></trkpt><trkpt lat="43.47362661531077" lon="1.9398766560374836"><ele>196.0</ele><time>2026-03-22T08:43:05.999Z</time></trkpt><trkpt lat="43.473579525226825" lon="1.9401420566672765"><ele>196.0</ele><time>2026-03-22T08:43:06.999Z</time></trkpt><trkpt lat="43.473535181437" lon="1.9403918698483524"><ele>196.0</ele><time>2026-03-22T08:43:07.999Z</time></trkpt><trkpt lat="43.47349051799676" lon="1.9406430480312062"><ele>196.0</ele><time>2026-03-22T08:43:08.999Z</time></trkpt><trkpt lat="43.473444567818454" lon="1.9409014625690508"><ele>196.0</ele><time>2026-03-22T08:43:09.999Z</time></trkpt><trkpt lat="43.47339782019523" lon="1.9411643617948127"><ele>196.0</ele><time>2026-03-22T08:43:10.999Z</time></trkpt><trkpt lat="43.47334909730507" lon="1.941438369514586"><ele>196.0</ele><time>2026-03-22T08:43:11.999Z</time></trkpt><trkpt lat="43.47329945987448" lon="1.9417175204426766"><ele>196.33333333333331</ele><time>2026-03-22T08:43:12.999Z</time></trkpt><trkpt lat="43.47326376465113" lon="1.9420103692587198"><ele>196.66666666666669</ele><time>2026-03-22T08:43:13.999Z</time></trkpt><trkpt lat="43.473210385919636" lon="1.942298491502401"><ele>197.0</ele><time>2026-03-22T08:43:14.999Z</time></trkpt><trkpt lat="43.473155753898624" lon="1.9425889186845515"><ele>197.0</ele><time>2026-03-22T08:43:15.999Z</time></trkpt><trkpt lat="43.47310192164811" lon="1.942883735345152"><ele>197.0</ele><time>2026-03-22T08:43:16.999Z</time></trkpt><trkpt lat="43.47304801473387" lon="1.9431843393168837"><ele>197.0</ele><time>2026-03-22T08:43:17.999Z</time></trkpt><trkpt lat="43.47299688048828" lon="1.9434801400980453"><ele>197.0</ele><time>2026-03-22T08:43:18.999Z</time></trkpt><trkpt lat="43.47294416613938" lon="1.9437807200958148"><ele>197.0</ele><time>2026-03-22T08:43:19.999Z</time></trkpt><trkpt lat="43.472889283433865" lon="1.9440805310448017"><ele>197.0</ele><time>2026-03-22T08:43:20.999Z</time></trkpt><trkpt lat="43.47283597426179" lon="1.9443840827622443"><ele>197.33333333333334</ele><time>2026-03-22T08:43:21.999Z</time></trkpt><trkpt lat="43.47278756080666" lon="1.9446827975303393"><ele>197.66666666666669</ele><time>2026-03-22T08:43:22.999Z</time></trkpt><trkpt lat="43.47273496814454" lon="1.9449867758439998"><ele>198.0</ele><time>2026-03-22T08:43:23.999Z</time></trkpt><trkpt lat="43.472681592684346" lon="1.9452898833093417"><ele>198.0</ele><time>2026-03-22T08:43:24.999Z</time></trkpt><trkpt lat="43.472629801440235" lon="1.9455837383672243"><ele>198.0</ele><time>2026-03-22T08:43:25.999Z</time></trkpt><trkpt lat="43.47257850904313" lon="1.945860399215087"><ele>198.0</ele><time>2026-03-22T08:43:26.999Z</time></trkpt><trkpt lat="43.472528362437586" lon="1.9461260134316174"><ele>198.0</ele><time>2026-03-22T08:43:27.999Z</time></trkpt><trkpt lat="43.472475890113934" lon="1.9464044900033672"><ele>198.0</ele><time>2026-03-22T08:43:28.999Z</time></trkpt><trkpt lat="43.472421851002984" lon="1.9466993528467276"><ele>198.0</ele><time>2026-03-22T08:43:29.999Z</time></trkpt><trkpt lat="43.47236705764179" lon="1.947004045899501"><ele>198.0</ele><time>2026-03-22T08:43:31Z</time></trkpt><trkpt lat="43.47231114501531" lon="1.9473196185933392"><ele>198.0</ele><time>2026-03-22T08:43:32Z</time></trkpt><trkpt lat="43.47225574803934" lon="1.9476400243236147"><ele>198.0</ele><time>2026-03-22T08:43:33Z</time></trkpt><trkpt lat="43.47220117382099" lon="1.94794368730375"><ele>198.0</ele><time>2026-03-22T08:43:34Z</time></trkpt><trkpt lat="43.472150707247046" lon="1.9482366303680836"><ele>198.0</ele><time>2026-03-22T08:43:35Z</time></trkpt><trkpt lat="43.47209940622265" lon="1.9485316778287358"><ele>197.0</ele><time>2026-03-22T08:43:36Z</time></trkpt><trkpt lat="43.472043281165575" lon="1.9488335610675804"><ele>196.0</ele><time>2026-03-22T08:43:37Z</time></trkpt><trkpt lat="43.47198948346811" lon="1.9491332875554488"><ele>196.0</ele><time>2026-03-22T08:43:38Z</time></trkpt><trkpt lat="43.47193515403176" lon="1.9494315343542505"><ele>196.0</ele><time>2026-03-22T08:43:39Z</time></trkpt><trkpt lat="43.47188236958924" lon="1.9497384259426478"><ele>196.5</ele><time>2026-03-22T08:43:40Z</time></trkpt><trkpt lat="43.47182864436943" lon="1.950044709446196"><ele>197.0</ele><time>2026-03-22T08:43:41Z</time></trkpt><trkpt lat="43.471773939532056" lon="1.9503468519621188"><ele>197.0</ele><time>2026-03-22T08:43:42Z</time></trkpt><trkpt lat="43.47171872110774" lon="1.950643493733443"><ele>197.0</ele><time>2026-03-22T08:43:43Z</time></trkpt><trkpt lat="43.47166478392081" lon="1.9509443683749061"><ele>197.0</ele><time>2026-03-22T08:43:44Z</time></trkpt><trkpt lat="43.47161020212316" lon="1.951238715506812"><ele>197.0</ele><time>2026-03-22T08:43:45Z</time></trkpt><trkpt lat="43.471559441902286" lon="1.9515254405290616"><ele>197.0</ele><time>2026-03-22T08:43:46Z</time></trkpt><trkpt lat="43.47150907080479" lon="1.951809773548847"><ele>197.0</ele><time>2026-03-22T08:43:47Z</time></trkpt><trkpt lat="43.471459024076395" lon="1.9520870906129184"><ele>196.66666666666669</ele><time>2026-03-22T08:43:48Z</time></trkpt><trkpt lat="43.47141045959591" lon="1.9523647558936428"><ele>196.33333333333331</ele><time>2026-03-22T08:43:49Z</time></trkpt><trkpt lat="43.47136379794934" lon="1.9526420546779923"><ele>196.0</ele><time>2026-03-22T08:43:50Z</time></trkpt><trkpt lat="43.4713147209262" lon="1.952921851489411"><ele>196.0</ele><time>2026-03-22T08:43:51Z</time></trkpt><trkpt lat="43.47126523467599" lon="1.9532017729929723"><ele>196.0</ele><time>2026-03-22T08:43:52Z</time></trkpt><trkpt lat="43.471213899001874" lon="1.9534855891796366"><ele>196.0</ele><time>2026-03-22T08:43:53Z</time></trkpt><trkpt lat="43.471164739861166" lon="1.9537725054540376"><ele>195.66666666666666</ele><time>2026-03-22T08:43:54Z</time></trkpt><trkpt lat="43.47111252951756" lon="1.954059755144615"><ele>195.33333333333331</ele><time>2026-03-22T08:43:55Z</time></trkpt><trkpt lat="43.47106027485925" lon="1.954347756419094"><ele>195.0</ele><time>2026-03-22T08:43:56Z</time></trkpt><trkpt lat="43.4710087523075" lon="1.9546393202023973"><ele>195.0</ele><time>2026-03-22T08:43:57Z</time></trkpt><trkpt lat="43.47095522034018" lon="1.9549313387302552"><ele>195.0</ele><time>2026-03-22T08:43:58Z</time></trkpt><trkpt lat="43.47090495935163" lon="1.9552213791977886"><ele>195.0</ele><time>2026-03-22T08:43:59Z</time></trkpt><trkpt lat="43.4708541402513" lon="1.955513529987954"><ele>194.66666666666669</ele><time>2026-03-22T08:44:00Z</time></trkpt><trkpt lat="43.47080618306717" lon="1.955798798524196"><ele>194.33333333333334</ele><time>2026-03-22T08:44:01Z</time></trkpt><trkpt lat="43.47075835729732" lon="1.9560814366680737"><ele>194.0</ele><time>2026-03-22T08:44:02Z</time></trkpt><trkpt lat="43.47070914633304" lon="1.9563647692513584"><ele>193.66666666666669</ele><time>2026-03-22T08:44:03Z</time></trkpt><trkpt lat="43.47065968194252" lon="1.9566496914728395"><ele>193.33333333333331</ele><time>2026-03-22T08:44:04Z</time></trkpt><trkpt lat="43.47060765427934" lon="1.9569332153358534"><ele>193.0</ele><time>2026-03-22T08:44:05Z</time></trkpt><trkpt lat="43.47055819898615" lon="1.9572166201156427"><ele>193.0</ele><time>2026-03-22T08:44:06Z</time></trkpt><trkpt lat="43.4705033806849" lon="1.9574937284356808"><ele>193.0</ele><time>2026-03-22T08:44:07Z</time></trkpt><trkpt lat="43.470451584019834" lon="1.9577764725527378"><ele>193.0</ele><time>2026-03-22T08:44:08Z</time></trkpt><trkpt lat="43.47040343952929" lon="1.9580634595819095"><ele>193.0</ele><time>2026-03-22T08:44:09Z</time></trkpt><trkpt lat="43.47035218279368" lon="1.958349035865844"><ele>193.0</ele><time>2026-03-22T08:44:10Z</time></trkpt><trkpt lat="43.47030052213105" lon="1.9586419161265787"><ele>193.0</ele><time>2026-03-22T08:44:11Z</time></trkpt><trkpt lat="43.470251621904616" lon="1.9589281703498522"><ele>193.33333333333331</ele><time>2026-03-22T08:44:12Z</time></trkpt><trkpt lat="43.47020269493424" lon="1.9592163254476473"><ele>193.66666666666669</ele><time>2026-03-22T08:44:13Z</time></trkpt><trkpt lat="43.47014814792002" lon="1.9595114398953495"><ele>194.0</ele><time>2026-03-22T08:44:14Z</time></trkpt><trkpt lat="43.470093426926034" lon="1.9598184993979442"><ele>194.0</ele><time>2026-03-22T08:44:15Z</time></trkpt><trkpt lat="43.47004041656472" lon="1.9601162980328468"><ele>194.0</ele><time>2026-03-22T08:44:16Z</time></trkpt><trkpt lat="43.46998357249471" lon="1.9604102902239935"><ele>194.0</ele><time>2026-03-22T08:44:17Z</time></trkpt><trkpt lat="43.46992815009419" lon="1.960711459420512"><ele>194.0</ele><time>2026-03-22T08:44:18Z</time></trkpt><trkpt lat="43.46987536099385" lon="1.9610161025833632"><ele>194.0</ele><time>2026-03-22T08:44:19Z</time></trkpt><trkpt lat="43.46982403860511" lon="1.961319458202927"><ele>194.0</ele><time>2026-03-22T08:44:20Z</time></trkpt><trkpt lat="43.469769725220544" lon="1.9616288638753248"><ele>194.0</ele><time>2026-03-22T08:44:21Z</time></trkpt><trkpt lat="43.4697271815699" lon="1.961929774969215"><ele>194.0</ele><time>2026-03-22T08:44:22Z</time></trkpt><trkpt lat="43.46967237760733" lon="1.9622316040181738"><ele>194.0</ele><time>2026-03-22T08:44:23Z</time></trkpt><trkpt lat="43.46961456377453" lon="1.9625399418953413"><ele>194.5</ele><time>2026-03-22T08:44:24Z</time></trkpt><trkpt lat="43.46955673382018" lon="1.9628509509387175"><ele>195.0</ele><time>2026-03-22T08:44:25Z</time></trkpt><trkpt lat="43.469501723728484" lon="1.9631562747259452"><ele>196.0</ele><time>2026-03-22T08:44:26Z</time></trkpt><trkpt lat="43.46944455832701" lon="1.9634595436476594"><ele>197.0</ele><time>2026-03-22T08:44:27Z</time></trkpt><trkpt lat="43.46938995748027" lon="1.9637610571453543"><ele>197.0</ele><time>2026-03-22T08:44:28Z</time></trkpt><trkpt lat="43.46933307571246" lon="1.9640597663357364"><ele>197.0</ele><time>2026-03-22T08:44:29Z</time></trkpt><trkpt lat="43.46927585179151" lon="1.964358510787077"><ele>197.0</ele><time>2026-03-22T08:44:30Z</time></trkpt><trkpt lat="43.46921993788678" lon="1.9646591736687724"><ele>197.5</ele><time>2026-03-22T08:44:31Z</time></trkpt><trkpt lat="43.469166988797994" lon="1.9649609063078153"><ele>198.0</ele><time>2026-03-22T08:44:32Z</time></trkpt><trkpt lat="43.46911541697155" lon="1.9652658616444134"><ele>198.0</ele><time>2026-03-22T08:44:33Z</time></trkpt><trkpt lat="43.469061309333455" lon="1.9655660143549667"><ele>198.0</ele><time>2026-03-22T08:44:34Z</time></trkpt><trkpt lat="43.469008053479165" lon="1.9658620435605914"><ele>198.0</ele><time>2026-03-22T08:44:35Z</time></trkpt><trkpt lat="43.46895382582507" lon="1.9661600799030967"><ele>198.0</ele><time>2026-03-22T08:44:36Z</time></trkpt><trkpt lat="43.46890020620047" lon="1.9664642658457767"><ele>198.0</ele><time>2026-03-22T08:44:37Z</time></trkpt><trkpt lat="43.4688463999397" lon="1.9667703400118068"><ele>198.0</ele><time>2026-03-22T08:44:38Z</time></trkpt><trkpt lat="43.46879513530101" lon="1.9670725600384502"><ele>198.0</ele><time>2026-03-22T08:44:39Z</time></trkpt><trkpt lat="43.46873268378175" lon="1.9673775386645609"><ele>198.0</ele><time>2026-03-22T08:44:40Z</time></trkpt><trkpt lat="43.468676485887386" lon="1.967693006868223"><ele>198.0</ele><time>2026-03-22T08:44:41Z</time></trkpt><trkpt lat="43.46863526253694" lon="1.9680106657373004"><ele>198.0</ele><time>2026-03-22T08:44:42Z</time></trkpt><trkpt lat="43.46857814256277" lon="1.9683291932861366"><ele>198.0</ele><time>2026-03-22T08:44:43Z</time></trkpt><trkpt lat="43.46852312009543" lon="1.9686471576167879"><ele>198.5</ele><time>2026-03-22T08:44:44Z</time></trkpt><trkpt lat="43.468464850433435" lon="1.9689622594766722"><ele>199.0</ele><time>2026-03-22T08:44:45Z</time></trkpt><trkpt lat="43.468408607191876" lon="1.9692748979555164"><ele>200.5</ele><time>2026-03-22T08:44:46Z</time></trkpt><trkpt lat="43.46835091756178" lon="1.969590022063801"><ele>202.0</ele><time>2026-03-22T08:44:47Z</time></trkpt><trkpt lat="43.468291768853554" lon="1.9699020069041506"><ele>201.5</ele><time>2026-03-22T08:44:48Z</time></trkpt><trkpt lat="43.4682369063808" lon="1.9702191395035322"><ele>201.0</ele><time>2026-03-22T08:44:49Z</time></trkpt><trkpt lat="43.46817981634115" lon="1.9705253652791193"><ele>201.0</ele><time>2026-03-22T08:44:50Z</time></trkpt><trkpt lat="43.468118849174154" lon="1.9708279065946288"><ele>201.0</ele><time>2026-03-22T08:44:51Z</time></trkpt><trkpt lat="43.46806754608399" lon="1.9711319705722243"><ele>201.0</ele><time>2026-03-22T08:44:51.999Z</time></trkpt><trkpt lat="43.46801796231489" lon="1.9714330898713393"><ele>201.0</ele><time>2026-03-22T08:44:52.999Z</time></trkpt><trkpt lat="43.46796711088978" lon="1.9717314694964125"><ele>201.0</ele><time>2026-03-22T08:44:53.999Z</time></trkpt><trkpt lat="43.4679135814049" lon="1.972027315661337"><ele>201.0</ele><time>2026-03-22T08:44:54.999Z</time></trkpt><trkpt lat="43.46785695870261" lon="1.97232812171449"><ele>201.0</ele><time>2026-03-22T08:44:55.999Z</time></trkpt><trkpt lat="43.46780374301563" lon="1.9726242807867969"><ele>201.0</ele><time>2026-03-22T08:44:56.999Z</time></trkpt><trkpt lat="43.467751401023165" lon="1.9729279746727553"><ele>201.0</ele><time>2026-03-22T08:44:57.999Z</time></trkpt><trkpt lat="43.46769279266511" lon="1.9732335610984857"><ele>201.0</ele><time>2026-03-22T08:44:58.999Z</time></trkpt><trkpt lat="43.46763924025483" lon="1.9735357502643973"><ele>202.0</ele><time>2026-03-22T08:44:59.999Z</time></trkpt><trkpt lat="43.467586948886165" lon="1.973835986032491"><ele>203.0</ele><time>2026-03-22T08:45:00.999Z</time></trkpt><trkpt lat="43.467535130417744" lon="1.9741391729327884"><ele>203.0</ele><time>2026-03-22T08:45:01.999Z</time></trkpt><trkpt lat="43.46748499323385" lon="1.9744374778343037"><ele>203.0</ele><time>2026-03-22T08:45:02.999Z</time></trkpt><trkpt lat="43.46743213407354" lon="1.9747332666596398"><ele>203.0</ele><time>2026-03-22T08:45:03.999Z</time></trkpt><trkpt lat="43.46737935287683" lon="1.97503255028651"><ele>203.0</ele><time>2026-03-22T08:45:04.999Z</time></trkpt><trkpt lat="43.46732146695709" lon="1.9753345068207833"><ele>203.0</ele><time>2026-03-22T08:45:05.999Z</time></trkpt><trkpt lat="43.46726948763721" lon="1.975630612329217"><ele>203.0</ele><time>2026-03-22T08:45:06.999Z</time></trkpt><trkpt lat="43.4672170757474" lon="1.9759260795126323"><ele>203.0</ele><time>2026-03-22T08:45:07.999Z</time></trkpt><trkpt lat="43.46716504788513" lon="1.9762206022940911"><ele>203.0</ele><time>2026-03-22T08:45:08.999Z</time></trkpt><trkpt lat="43.46711675669857" lon="1.9765107926425463"><ele>203.0</ele><time>2026-03-22T08:45:09.999Z</time></trkpt><trkpt lat="43.4670646404498" lon="1.9768014584345657"><ele>203.0</ele><time>2026-03-22T08:45:10.999Z</time></trkpt><trkpt lat="43.46701176614021" lon="1.977092125158753"><ele>203.0</ele><time>2026-03-22T08:45:11.999Z</time></trkpt><trkpt lat="43.46696026535615" lon="1.977382738658133"><ele>203.0</ele><time>2026-03-22T08:45:12.999Z</time></trkpt><trkpt lat="43.466907257032155" lon="1.9776738968235723"><ele>202.66666666666669</ele><time>2026-03-22T08:45:13.999Z</time></trkpt><trkpt lat="43.466855198007984" lon="1.977965094845879"><ele>202.33333333333331</ele><time>2026-03-22T08:45:14.999Z</time></trkpt><trkpt lat="43.4668012318938" lon="1.9782541709784398"><ele>202.0</ele><time>2026-03-22T08:45:15.999Z</time></trkpt><trkpt lat="43.466747027460954" lon="1.9785417002868617"><ele>201.66666666666666</ele><time>2026-03-22T08:45:16.999Z</time></trkpt><trkpt lat="43.46669643183655" lon="1.9788296115078987"><ele>201.33333333333331</ele><time>2026-03-22T08:45:17.999Z</time></trkpt><trkpt lat="43.466644766218714" lon="1.9791166331692924"><ele>201.0</ele><time>2026-03-22T08:45:18.999Z</time></trkpt><trkpt lat="43.4665932305276" lon="1.9794086272727587"><ele>201.0</ele><time>2026-03-22T08:45:19.999Z</time></trkpt><trkpt lat="43.4665388316911" lon="1.9797005615989067"><ele>201.0</ele><time>2026-03-22T08:45:20.999Z</time></trkpt><trkpt lat="43.46648773935083" lon="1.979996919969686"><ele>201.0</ele><time>2026-03-22T08:45:21.999Z</time></trkpt><trkpt lat="43.46643546902856" lon="1.9802979260426563"><ele>201.33333333333331</ele><time>2026-03-22T08:45:22.999Z</time></trkpt><trkpt lat="43.46638378523187" lon="1.9806023214196575"><ele>201.66666666666666</ele><time>2026-03-22T08:45:23.999Z</time></trkpt><trkpt lat="43.46632744607322" lon="1.9808982507903257"><ele>202.0</ele><time>2026-03-22T08:45:24.999Z</time></trkpt><trkpt lat="43.46627345652431" lon="1.9811969307228554"><ele>202.0</ele><time>2026-03-22T08:45:25.999Z</time></trkpt><trkpt lat="43.46621919369428" lon="1.9814947223579409"><ele>202.0</ele><time>2026-03-22T08:45:26.999Z</time></trkpt><trkpt lat="43.466165946171024" lon="1.9817932805174225"><ele>202.0</ele><time>2026-03-22T08:45:27.999Z</time></trkpt><trkpt lat="43.46611320223056" lon="1.982086801411508"><ele>202.0</ele><time>2026-03-22T08:45:28.999Z</time></trkpt><trkpt lat="43.466061812733386" lon="1.9823760271836255"><ele>202.0</ele><time>2026-03-22T08:45:29.999Z</time></trkpt><trkpt lat="43.46601428605577" lon="1.9826466010924755"><ele>202.0</ele><time>2026-03-22T08:45:30.999Z</time></trkpt><trkpt lat="43.465966958677164" lon="1.982903101692606"><ele>202.0</ele><time>2026-03-22T08:45:31.999Z</time></trkpt><trkpt lat="43.46592243958422" lon="1.983143785929799"><ele>202.0</ele><time>2026-03-22T08:45:32.999Z</time></trkpt><trkpt lat="43.465881591627436" lon="1.9833689669061867"><ele>202.0</ele><time>2026-03-22T08:45:33.999Z</time></trkpt><trkpt lat="43.46584373475545" lon="1.9835854706735785"><ele>202.33333333333331</ele><time>2026-03-22T08:45:34.999Z</time></trkpt><trkpt lat="43.46580573994439" lon="1.9837976061738243"><ele>202.66666666666669</ele><time>2026-03-22T08:45:35.999Z</time></trkpt><trkpt lat="43.465766837440974" lon="1.9840081341798417"><ele>203.0</ele><time>2026-03-22T08:45:37Z</time></trkpt><trkpt lat="43.465729973159114" lon="1.984233493065515"><ele>203.33333333333334</ele><time>2026-03-22T08:45:38Z</time></trkpt><trkpt lat="43.46568905563216" lon="1.984457062035951"><ele>203.66666666666669</ele><time>2026-03-22T08:45:39Z</time></trkpt><trkpt lat="43.46564551518088" lon="1.98467805387595"><ele>204.0</ele><time>2026-03-22T08:45:40Z</time></trkpt><trkpt lat="43.4656009021175" lon="1.9848986769363623"><ele>203.66666666666669</ele><time>2026-03-22T08:45:41Z</time></trkpt><trkpt lat="43.465556202296646" lon="1.9851169537174167"><ele>203.33333333333334</ele><time>2026-03-22T08:45:42Z</time></trkpt><trkpt lat="43.465509932384954" lon="1.9853329050733781"><ele>203.0</ele><time>2026-03-22T08:45:43Z</time></trkpt><trkpt lat="43.46547782486552" lon="1.9855425032313194"><ele>203.0</ele><time>2026-03-22T08:45:44Z</time></trkpt><trkpt lat="43.46544785729711" lon="1.9857582274760368"><ele>203.0</ele><time>2026-03-22T08:45:45Z</time></trkpt><trkpt lat="43.46540840982404" lon="1.9859777672800552"><ele>203.0</ele><time>2026-03-22T08:45:46Z</time></trkpt><trkpt lat="43.46537361154104" lon="1.9862011308886673"><ele>203.0</ele><time>2026-03-22T08:45:47Z</time></trkpt><trkpt lat="43.465334581449795" lon="1.98642587548645"><ele>203.0</ele><time>2026-03-22T08:45:48Z</time></trkpt><trkpt lat="43.46529924398692" lon="1.9866433084888653"><ele>203.0</ele><time>2026-03-22T08:45:49Z</time></trkpt><trkpt lat="43.465264903678815" lon="1.9868597375732864"><ele>203.33333333333334</ele><time>2026-03-22T08:45:50Z</time></trkpt><trkpt lat="43.465229012946466" lon="1.987075404830081"><ele>203.66666666666669</ele><time>2026-03-22T08:45:51Z</time></trkpt><trkpt lat="43.465191201872905" lon="1.987293209732069"><ele>204.0</ele><time>2026-03-22T08:45:52Z</time></trkpt><trkpt lat="43.465151844118786" lon="1.9874993260541767"><ele>204.0</ele><time>2026-03-22T08:45:53Z</time></trkpt><trkpt lat="43.46511424858371" lon="1.9876979796321501"><ele>204.0</ele><time>2026-03-22T08:45:54Z</time></trkpt><trkpt lat="43.465077483659215" lon="1.987882714800868"><ele>204.0</ele><time>2026-03-22T08:45:55Z</time></trkpt><trkpt lat="43.465036081711624" lon="1.9880563292854883"><ele>204.0</ele><time>2026-03-22T08:45:56Z</time></trkpt><trkpt lat="43.46499579934374" lon="1.988216674103607"><ele>204.16666666666666</ele><time>2026-03-22T08:45:57Z</time></trkpt><trkpt lat="43.46495223551414" lon="1.9883589556280699"><ele>204.33333333333331</ele><time>2026-03-22T08:45:58Z</time></trkpt><trkpt lat="43.46491030793437" lon="1.9884742035460403"><ele>204.5</ele><time>2026-03-22T08:45:59Z</time></trkpt><trkpt lat="43.46487550871587" lon="1.9885749576401663"><ele>204.66666666666666</ele><time>2026-03-22T08:46:00Z</time></trkpt><trkpt lat="43.46483641589713" lon="1.9886659561267002"><ele>204.83333333333331</ele><time>2026-03-22T08:46:01Z</time></trkpt><trkpt lat="43.46479759397398" lon="1.9887575706237948"><ele>205.0</ele><time>2026-03-22T08:46:02Z</time></trkpt><trkpt lat="43.46475910415479" lon="1.9888360485871426"><ele>204.99999999999997</ele><time>2026-03-22T08:46:03Z</time></trkpt><trkpt lat="43.46469806328719" lon="1.9889004604528415"><ele>205.0</ele><time>2026-03-22T08:46:04Z</time></trkpt><trkpt lat="43.46464818139412" lon="1.9889672397049196"><ele>205.0</ele><time>2026-03-22T08:46:05Z</time></trkpt><trkpt lat="43.46462042655596" lon="1.9890530350230649"><ele>205.0</ele><time>2026-03-22T08:46:06Z</time></trkpt><trkpt lat="43.46462419410988" lon="1.9891731830799362"><ele>204.99999999999997</ele><time>2026-03-22T08:46:07Z</time></trkpt><trkpt lat="43.46460137778875" lon="1.9893246716472412"><ele>205.0</ele><time>2026-03-22T08:46:08Z</time></trkpt><trkpt lat="43.464548377803226" lon="1.989482279227731"><ele>205.25</ele><time>2026-03-22T08:46:09Z</time></trkpt><trkpt lat="43.46448214777786" lon="1.9896590160630618"><ele>205.5</ele><time>2026-03-22T08:46:10Z</time></trkpt><trkpt lat="43.46442435242056" lon="1.9898227049374706"><ele>205.75</ele><time>2026-03-22T08:46:11Z</time></trkpt><trkpt lat="43.4643678336997" lon="1.98997417112146"><ele>206.0</ele><time>2026-03-22T08:46:12Z</time></trkpt><trkpt lat="43.4643027270581" lon="1.9901356290047896"><ele>206.25</ele><time>2026-03-22T08:46:13Z</time></trkpt><trkpt lat="43.46423212115852" lon="1.9903097754431296"><ele>206.5</ele><time>2026-03-22T08:46:14Z</time></trkpt><trkpt lat="43.464166795599894" lon="1.9904863965421211"><ele>206.75</ele><time>2026-03-22T08:46:15Z</time></trkpt><trkpt lat="43.464102318284034" lon="1.99066284794291"><ele>207.0</ele><time>2026-03-22T08:46:16Z</time></trkpt><trkpt lat="43.46403844672425" lon="1.9908389548820045"><ele>207.25</ele><time>2026-03-22T08:46:17Z</time></trkpt><trkpt lat="43.463970308790934" lon="1.9910147047475792"><ele>207.5</ele><time>2026-03-22T08:46:18Z</time></trkpt><trkpt lat="43.46390318195273" lon="1.9911957558022886"><ele>207.75</ele><time>2026-03-22T08:46:19Z</time></trkpt><trkpt lat="43.46383700559582" lon="1.9913770836341689"><ele>208.0</ele><time>2026-03-22T08:46:20Z</time></trkpt><trkpt lat="43.46377225695535" lon="1.991559795662071"><ele>208.0</ele><time>2026-03-22T08:46:21Z</time></trkpt><trkpt lat="43.46371048040432" lon="1.991725843841272"><ele>208.0</ele><time>2026-03-22T08:46:22Z</time></trkpt><trkpt lat="43.46365376748877" lon="1.9918791186146318"><ele>208.0</ele><time>2026-03-22T08:46:23Z</time></trkpt><trkpt lat="43.46360241794559" lon="1.9920208144528855"><ele>208.0</ele><time>2026-03-22T08:46:24Z</time></trkpt><trkpt lat="43.4635479056276" lon="1.9921698488616784"><ele>208.0</ele><time>2026-03-22T08:46:25Z</time></trkpt><trkpt lat="43.46349192798491" lon="1.992322530058063"><ele>208.0</ele><time>2026-03-22T08:46:26Z</time></trkpt><trkpt lat="43.46343787840007" lon="1.9924690888576855"><ele>208.0</ele><time>2026-03-22T08:46:27Z</time></trkpt><trkpt lat="43.46338684239365" lon="1.992601484443387"><ele>208.0</ele><time>2026-03-22T08:46:28Z</time></trkpt><trkpt lat="43.46333461709333" lon="1.9927432335834347"><ele>208.0</ele><time>2026-03-22T08:46:29Z</time></trkpt><trkpt lat="43.46328552076503" lon="1.992882510879"><ele>208.0</ele><time>2026-03-22T08:46:30Z</time></trkpt><trkpt lat="43.463234303764025" lon="1.9930199203892858"><ele>208.0</ele><time>2026-03-22T08:46:31Z</time></trkpt><trkpt lat="43.46318524500597" lon="1.9931586559136556"><ele>208.0</ele><time>2026-03-22T08:46:32Z</time></trkpt><trkpt lat="43.46313666407321" lon="1.9932980752951517"><ele>208.0</ele><time>2026-03-22T08:46:33Z</time></trkpt><trkpt lat="43.463086215022855" lon="1.9934359139927396"><ele>208.0</ele><time>2026-03-22T08:46:34Z</time></trkpt><trkpt lat="43.463032266785326" lon="1.993580330478858"><ele>208.0</ele><time>2026-03-22T08:46:35Z</time></trkpt><trkpt lat="43.46297438588652" lon="1.9937290657755924"><ele>208.0</ele><time>2026-03-22T08:46:36Z</time></trkpt><trkpt lat="43.46292235677938" lon="1.9938689076506366"><ele>208.0</ele><time>2026-03-22T08:46:37Z</time></trkpt><trkpt lat="43.46287377287752" lon="1.9939860851102764"><ele>208.16666666666666</ele><time>2026-03-22T08:46:38Z</time></trkpt><trkpt lat="43.462842959495674" lon="1.9940881494216152"><ele>208.33333333333331</ele><time>2026-03-22T08:46:39Z</time></trkpt><trkpt lat="43.462811707584926" lon="1.9941746065294925"><ele>208.5</ele><time>2026-03-22T08:46:40Z</time></trkpt><trkpt lat="43.46275877400818" lon="1.9943274703776572"><ele>208.66666666666669</ele><time>2026-03-22T08:46:42Z</time></trkpt><trkpt lat="43.46271030648168" lon="1.994450400005714"><ele>208.83333333333334</ele><time>2026-03-22T08:46:44Z</time></trkpt><trkpt lat="43.46268019458453" lon="1.994531318524836"><ele>209.0</ele><time>2026-03-22T08:46:46Z</time></trkpt><trkpt lat="43.46264591060346" lon="1.9946288191686938"><ele>209.0</ele><time>2026-03-22T08:46:51Z</time></trkpt><trkpt lat="43.46258603255758" lon="1.9947743073536113"><ele>209.0</ele><time>2026-03-22T08:46:53Z</time></trkpt><trkpt lat="43.46254732570712" lon="1.99487607498761"><ele>209.0</ele><time>2026-03-22T08:46:54Z</time></trkpt><trkpt lat="43.46251068975372" lon="1.994977440987795"><ele>209.0</ele><time>2026-03-22T08:46:55Z</time></trkpt><trkpt lat="43.462472051618754" lon="1.9950848230776297"><ele>209.0</ele><time>2026-03-22T08:46:56Z</time></trkpt><trkpt lat="43.462426049423556" lon="1.995201818260802"><ele>209.0</ele><time>2026-03-22T08:46:57Z</time></trkpt><trkpt lat="43.46237740128224" lon="1.9953304393472826"><ele>209.0</ele><time>2026-03-22T08:46:58Z</time></trkpt><trkpt lat="43.46232922326361" lon="1.9954645959852526"><ele>209.0</ele><time>2026-03-22T08:46:59Z</time></trkpt><trkpt lat="43.46227828176595" lon="1.9955979053122421"><ele>209.0</ele><time>2026-03-22T08:47:00Z</time></trkpt><trkpt lat="43.46222812255267" lon="1.9957343255861393"><ele>209.0</ele><time>2026-03-22T08:47:01Z</time></trkpt><trkpt lat="43.46217496216155" lon="1.9958737228520407"><ele>209.25</ele><time>2026-03-22T08:47:01.999Z</time></trkpt><trkpt lat="43.462124677813755" lon="1.9960173773594712"><ele>209.5</ele><time>2026-03-22T08:47:02.999Z</time></trkpt><trkpt lat="43.46207428187463" lon="1.996157850774439"><ele>209.75</ele><time>2026-03-22T08:47:03.999Z</time></trkpt><trkpt lat="43.46201722578225" lon="1.9963054959353725"><ele>210.0</ele><time>2026-03-22T08:47:04.999Z</time></trkpt><trkpt lat="43.461961715878765" lon="1.9964545704641492"><ele>210.0</ele><time>2026-03-22T08:47:05.999Z</time></trkpt><trkpt lat="43.46190764769998" lon="1.9965981148316228"><ele>210.0</ele><time>2026-03-22T08:47:06.999Z</time></trkpt><trkpt lat="43.461857811335854" lon="1.996741830354801"><ele>210.0</ele><time>2026-03-22T08:47:07.999Z</time></trkpt><trkpt lat="43.46180292528389" lon="1.9968801897018364"><ele>210.0</ele><time>2026-03-22T08:47:08.999Z</time></trkpt><trkpt lat="43.46175204620057" lon="1.997018348804416"><ele>209.8</ele><time>2026-03-22T08:47:09.999Z</time></trkpt><trkpt lat="43.461703268135835" lon="1.9971437639376588"><ele>209.6</ele><time>2026-03-22T08:47:10.999Z</time></trkpt><trkpt lat="43.46165832998626" lon="1.9972659955025478"><ele>209.39999999999998</ele><time>2026-03-22T08:47:11.999Z</time></trkpt><trkpt lat="43.461613600583334" lon="1.9973927467813402"><ele>209.2</ele><time>2026-03-22T08:47:12.999Z</time></trkpt><trkpt lat="43.46156632621782" lon="1.9975197721723825"><ele>209.0</ele><time>2026-03-22T08:47:13.999Z</time></trkpt><trkpt lat="43.461516294777454" lon="1.997649089205096"><ele>209.33333333333334</ele><time>2026-03-22T08:47:14.999Z</time></trkpt><trkpt lat="43.461470704395914" lon="1.9977636446616158"><ele>209.66666666666669</ele><time>2026-03-22T08:47:15.999Z</time></trkpt><trkpt lat="43.46143362104758" lon="1.9978724315649692"><ele>210.0</ele><time>2026-03-22T08:47:16.999Z</time></trkpt><trkpt lat="43.46139356257227" lon="1.9979772629824473"><ele>210.33333333333331</ele><time>2026-03-22T08:47:17.999Z</time></trkpt><trkpt lat="43.4613573429485" lon="1.99807066928102"><ele>210.66666666666666</ele><time>2026-03-22T08:47:18.999Z</time></trkpt><trkpt lat="43.46132336962418" lon="1.998160866264388"><ele>211.0</ele><time>2026-03-22T08:47:19.999Z</time></trkpt><trkpt lat="43.46129133054983" lon="1.9982466849775247"><ele>211.0</ele><time>2026-03-22T08:47:20.999Z</time></trkpt><trkpt lat="43.4612604556799" lon="1.9983283879842073"><ele>211.0</ele><time>2026-03-22T08:47:21.999Z</time></trkpt><trkpt lat="43.4612035343653" lon="1.9984752209125698"><ele>211.0</ele><time>2026-03-22T08:47:23.999Z</time></trkpt><trkpt lat="43.46113806316417" lon="1.9986439990954805"><ele>211.0</ele><time>2026-03-22T08:47:25.999Z</time></trkpt><trkpt lat="43.46109836772653" lon="1.9987561454932365"><ele>211.0</ele><time>2026-03-22T08:47:26.999Z</time></trkpt><trkpt lat="43.46106331774129" lon="1.9988661525511235"><ele>211.0</ele><time>2026-03-22T08:47:27.999Z</time></trkpt><trkpt lat="43.461028687008955" lon="1.9989729024221727"><ele>211.0</ele><time>2026-03-22T08:47:28.999Z</time></trkpt><trkpt lat="43.46098691621585" lon="1.9990855784937713"><ele>211.0</ele><time>2026-03-22T08:47:29.999Z</time></trkpt><trkpt lat="43.46094186347526" lon="1.9992100091459204"><ele>211.0</ele><time>2026-03-22T08:47:30.999Z</time></trkpt><trkpt lat="43.46090255400234" lon="1.999333103990169"><ele>211.0</ele><time>2026-03-22T08:47:31.999Z</time></trkpt><trkpt lat="43.46086342526249" lon="1.999457091206238"><ele>211.20000000000002</ele><time>2026-03-22T08:47:32.999Z</time></trkpt><trkpt lat="43.460814734488345" lon="1.9995742738014335"><ele>211.4</ele><time>2026-03-22T08:47:33.999Z</time></trkpt><trkpt lat="43.460762885549435" lon="1.9996801814991816"><ele>211.6</ele><time>2026-03-22T08:47:34.999Z</time></trkpt><trkpt lat="43.46072183135933" lon="1.9997907523257004"><ele>211.8</ele><time>2026-03-22T08:47:35.999Z</time></trkpt><trkpt lat="43.46069415346732" lon="1.99990749657494"><ele>212.0</ele><time>2026-03-22T08:47:36.999Z</time></trkpt><trkpt lat="43.46065179962983" lon="2.0000270798408724"><ele>212.0</ele><time>2026-03-22T08:47:37.999Z</time></trkpt><trkpt lat="43.46059915778567" lon="2.000152215782955"><ele>212.0</ele><time>2026-03-22T08:47:38.999Z</time></trkpt><trkpt lat="43.46055216618198" lon="2.000277829999401"><ele>212.0</ele><time>2026-03-22T08:47:39.999Z</time></trkpt><trkpt lat="43.46050885656903" lon="2.000402970583688"><ele>212.0</ele><time>2026-03-22T08:47:40.999Z</time></trkpt><trkpt lat="43.460462526195265" lon="2.000521447169189"><ele>212.0</ele><time>2026-03-22T08:47:41.999Z</time></trkpt><trkpt lat="43.46041824665811" lon="2.000641093779924"><ele>211.8</ele><time>2026-03-22T08:47:43Z</time></trkpt><trkpt lat="43.460367051164305" lon="2.0007587122242034"><ele>211.6</ele><time>2026-03-22T08:47:44Z</time></trkpt><trkpt lat="43.460328303926545" lon="2.0008724728996112"><ele>211.4</ele><time>2026-03-22T08:47:45Z</time></trkpt><trkpt lat="43.460286036519044" lon="2.000990663479588"><ele>211.20000000000002</ele><time>2026-03-22T08:47:46Z</time></trkpt><trkpt lat="43.460240355428745" lon="2.00110542822067"><ele>211.0</ele><time>2026-03-22T08:47:47Z</time></trkpt><trkpt lat="43.460198820601086" lon="2.001216775099471"><ele>210.99999999999997</ele><time>2026-03-22T08:47:48Z</time></trkpt><trkpt lat="43.46016025938348" lon="2.0013275078753416"><ele>211.0</ele><time>2026-03-22T08:47:49Z</time></trkpt><trkpt lat="43.46011806737099" lon="2.0014261399033697"><ele>211.0</ele><time>2026-03-22T08:47:50Z</time></trkpt><trkpt lat="43.46006627230077" lon="2.001512174718299"><ele>211.0</ele><time>2026-03-22T08:47:51Z</time></trkpt><trkpt lat="43.46002259986287" lon="2.001585416328235"><ele>210.99999999999997</ele><time>2026-03-22T08:47:52Z</time></trkpt><trkpt lat="43.459978633361935" lon="2.0017323585149067"><ele>211.0</ele><time>2026-03-22T08:47:54Z</time></trkpt><trkpt lat="43.45994782885281" lon="2.001829732915122"><ele>211.49999999999997</ele><time>2026-03-22T08:47:56Z</time></trkpt><trkpt lat="43.45992205860953" lon="2.0019379652098377"><ele>212.0</ele><time>2026-03-22T08:47:58Z</time></trkpt><trkpt lat="43.45989288678145" lon="2.0020274546078167"><ele>212.5</ele><time>2026-03-22T08:48:00Z</time></trkpt><trkpt lat="43.45986112322168" lon="2.002122519459737"><ele>213.0</ele><time>2026-03-22T08:48:03Z</time></trkpt><trkpt lat="43.45983213466295" lon="2.0022504652329713"><ele>213.49999999999997</ele><time>2026-03-22T08:48:36Z</time></trkpt><trkpt lat="43.45979366190198" lon="2.0023578546236402"><ele>214.0</ele><time>2026-03-22T08:48:38Z</time></trkpt><trkpt lat="43.45974429639805" lon="2.002460304154898"><ele>213.99999999999997</ele><time>2026-03-22T08:48:40Z</time></trkpt><trkpt lat="43.45966847175013" lon="2.0024603977707947"><ele>214.0</ele><time>2026-03-22T08:48:42Z</time></trkpt><trkpt lat="43.4595487127717" lon="2.0023639992395426"><ele>214.0</ele><time>2026-03-22T08:48:44Z</time></trkpt><trkpt lat="43.45947668430219" lon="2.002309563524313"><ele>214.0</ele><time>2026-03-22T08:48:45Z</time></trkpt><trkpt lat="43.45941487570443" lon="2.002251210518747"><ele>213.99999999999997</ele><time>2026-03-22T08:48:46Z</time></trkpt><trkpt lat="43.45935094782412" lon="2.002191757071304"><ele>214.0</ele><time>2026-03-22T08:48:47Z</time></trkpt><trkpt lat="43.459292616800234" lon="2.0021431916894183"><ele>214.0</ele><time>2026-03-22T08:48:48Z</time></trkpt><trkpt lat="43.45922209904244" lon="2.002076162933929"><ele>213.99999999999997</ele><time>2026-03-22T08:48:49Z</time></trkpt><trkpt lat="43.45913749141335" lon="2.0020047544184822"><ele>213.99999999999997</ele><time>2026-03-22T08:48:50Z</time></trkpt><trkpt lat="43.45904146744905" lon="2.0019264168206408"><ele>214.0</ele><time>2026-03-22T08:48:51Z</time></trkpt><trkpt lat="43.45894068148606" lon="2.0018468765486115"><ele>214.0</ele><time>2026-03-22T08:48:52Z</time></trkpt><trkpt lat="43.458848360982834" lon="2.001764838895178"><ele>213.6</ele><time>2026-03-22T08:48:53Z</time></trkpt><trkpt lat="43.45875511183361" lon="2.0016869078648836"><ele>213.2</ele><time>2026-03-22T08:48:54Z</time></trkpt><trkpt lat="43.458657154146955" lon="2.0016064038385517"><ele>212.79999999999998</ele><time>2026-03-22T08:48:55Z</time></trkpt><trkpt lat="43.45855889362031" lon="2.0015351940040436"><ele>212.39999999999998</ele><time>2026-03-22T08:48:56Z</time></trkpt><trkpt lat="43.45845263811146" lon="2.0014892434699796"><ele>212.0</ele><time>2026-03-22T08:48:57Z</time></trkpt><trkpt lat="43.45833941453022" lon="2.001482626051267"><ele>211.75</ele><time>2026-03-22T08:48:58Z</time></trkpt><trkpt lat="43.45822956425627" lon="2.001513086451216"><ele>211.5</ele><time>2026-03-22T08:48:59Z</time></trkpt><trkpt lat="43.45811602938395" lon="2.0015499805255557"><ele>211.25</ele><time>2026-03-22T08:49:00Z</time></trkpt><trkpt lat="43.45799490190145" lon="2.001600105304628"><ele>211.0</ele><time>2026-03-22T08:49:01Z</time></trkpt><trkpt lat="43.45788736318361" lon="2.0016620125745472"><ele>211.20000000000002</ele><time>2026-03-22T08:49:02Z</time></trkpt><trkpt lat="43.45778960048321" lon="2.001715638398493"><ele>211.4</ele><time>2026-03-22T08:49:03Z</time></trkpt><trkpt lat="43.4576908988951" lon="2.0017748290776027"><ele>211.6</ele><time>2026-03-22T08:49:04Z</time></trkpt><trkpt lat="43.45758264175808" lon="2.00183711564488"><ele>211.8</ele><time>2026-03-22T08:49:05Z</time></trkpt><trkpt lat="43.457477608256816" lon="2.0018989740924416"><ele>212.0</ele><time>2026-03-22T08:49:06Z</time></trkpt><trkpt lat="43.45737590189597" lon="2.001953547321676"><ele>212.0</ele><time>2026-03-22T08:49:07Z</time></trkpt><trkpt lat="43.45727753511418" lon="2.0020070342550706"><ele>212.0</ele><time>2026-03-22T08:49:08Z</time></trkpt><trkpt lat="43.45718278517638" lon="2.0020579659552062"><ele>212.0</ele><time>2026-03-22T08:49:08.999Z</time></trkpt><trkpt lat="43.45709154221331" lon="2.002105570918942"><ele>212.0</ele><time>2026-03-22T08:49:09.999Z</time></trkpt><trkpt lat="43.45701155209165" lon="2.002144401354714"><ele>212.0</ele><time>2026-03-22T08:49:10.999Z</time></trkpt><trkpt lat="43.45693108609925" lon="2.0021872846431723"><ele>212.16666666666669</ele><time>2026-03-22T08:49:11.999Z</time></trkpt><trkpt lat="43.45685740245788" lon="2.0022288121391236"><ele>212.33333333333334</ele><time>2026-03-22T08:49:12.999Z</time></trkpt><trkpt lat="43.45679915960127" lon="2.0022647526214383"><ele>212.5</ele><time>2026-03-22T08:49:13.999Z</time></trkpt><trkpt lat="43.45668447753404" lon="2.0023265780685833"><ele>212.66666666666669</ele><time>2026-03-22T08:49:15.999Z</time></trkpt><trkpt lat="43.456623057604" lon="2.0023567436944187"><ele>212.83333333333334</ele><time>2026-03-22T08:49:16.999Z</time></trkpt><trkpt lat="43.45656187973978" lon="2.0023773078421154"><ele>213.0</ele><time>2026-03-22T08:49:17.999Z</time></trkpt><trkpt lat="43.45642578291543" lon="2.002365113300738"><ele>213.0</ele><time>2026-03-22T08:49:19.999Z</time></trkpt><trkpt lat="43.4563593764044" lon="2.0023984639342376"><ele>213.0</ele><time>2026-03-22T08:49:20.999Z</time></trkpt><trkpt lat="43.456319130236366" lon="2.0024716375237586"><ele>213.0</ele><time>2026-03-22T08:49:21.999Z</time></trkpt><trkpt lat="43.456275874632354" lon="2.0025437784493096"><ele>213.0</ele><time>2026-03-22T08:49:22.999Z</time></trkpt><trkpt lat="43.45619023991429" lon="2.0026054362638694"><ele>213.0</ele><time>2026-03-22T08:49:23.999Z</time></trkpt><trkpt lat="43.456083559567325" lon="2.0026605640828627"><ele>213.0</ele><time>2026-03-22T08:49:24.999Z</time></trkpt><trkpt lat="43.45597424215732" lon="2.0027055383510532"><ele>213.25</ele><time>2026-03-22T08:49:25.999Z</time></trkpt><trkpt lat="43.45587162336856" lon="2.002754886343711"><ele>213.5</ele><time>2026-03-22T08:49:26.999Z</time></trkpt><trkpt lat="43.45576457024136" lon="2.002812491906549"><ele>213.75</ele><time>2026-03-22T08:49:27.999Z</time></trkpt><trkpt lat="43.455647372428324" lon="2.00287271681934"><ele>214.0</ele><time>2026-03-22T08:49:28.999Z</time></trkpt><trkpt lat="43.45552732585371" lon="2.0029336609214563"><ele>214.75</ele><time>2026-03-22T08:49:29.999Z</time></trkpt><trkpt lat="43.45541285679423" lon="2.003001071469526"><ele>215.5</ele><time>2026-03-22T08:49:30.999Z</time></trkpt><trkpt lat="43.45529808633018" lon="2.0030718539611634"><ele>216.25</ele><time>2026-03-22T08:49:31.999Z</time></trkpt><trkpt lat="43.45516714642531" lon="2.003143510589103"><ele>217.0</ele><time>2026-03-22T08:49:32.999Z</time></trkpt><trkpt lat="43.455041612710055" lon="2.003209171440692"><ele>217.0</ele><time>2026-03-22T08:49:33.999Z</time></trkpt><trkpt lat="43.454923284487165" lon="2.003273840990186"><ele>217.0</ele><time>2026-03-22T08:49:34.999Z</time></trkpt><trkpt lat="43.45479719069206" lon="2.003344821085778"><ele>217.0</ele><time>2026-03-22T08:49:35.999Z</time></trkpt><trkpt lat="43.45466251557646" lon="2.0034160263591376"><ele>217.0</ele><time>2026-03-22T08:49:36.999Z</time></trkpt><trkpt lat="43.45452034954358" lon="2.0034804998355624"><ele>217.25</ele><time>2026-03-22T08:49:37.999Z</time></trkpt><trkpt lat="43.45439215262803" lon="2.0035583810516764"><ele>217.5</ele><time>2026-03-22T08:49:38.999Z</time></trkpt><trkpt lat="43.454263440092475" lon="2.0036250070997186"><ele>217.75</ele><time>2026-03-22T08:49:39.999Z</time></trkpt><trkpt lat="43.45413816468327" lon="2.0036880368864494"><ele>218.0</ele><time>2026-03-22T08:49:40.999Z</time></trkpt><trkpt lat="43.45402260604989" lon="2.0037490895572563"><ele>218.0</ele><time>2026-03-22T08:49:41.999Z</time></trkpt><trkpt lat="43.45389985523015" lon="2.003815806382673"><ele>218.0</ele><time>2026-03-22T08:49:42.999Z</time></trkpt><trkpt lat="43.45376903073248" lon="2.0038909689178053"><ele>218.0</ele><time>2026-03-22T08:49:43.999Z</time></trkpt><trkpt lat="43.45363481620295" lon="2.003965893563538"><ele>218.0</ele><time>2026-03-22T08:49:44.999Z</time></trkpt><trkpt lat="43.453497215834936" lon="2.0040415459347467"><ele>218.5</ele><time>2026-03-22T08:49:45.999Z</time></trkpt><trkpt lat="43.45335888934406" lon="2.0041123682790394"><ele>219.0</ele><time>2026-03-22T08:49:46.999Z</time></trkpt><trkpt lat="43.453221437821284" lon="2.004188856163306"><ele>219.5</ele><time>2026-03-22T08:49:47.999Z</time></trkpt><trkpt lat="43.4530811948726" lon="2.0042602024748475"><ele>220.0</ele><time>2026-03-22T08:49:49Z</time></trkpt><trkpt lat="43.45294403056516" lon="2.0043326659470253"><ele>221.33333333333331</ele><time>2026-03-22T08:49:50Z</time></trkpt><trkpt lat="43.45279786147106" lon="2.0043923353567807"><ele>222.66666666666669</ele><time>2026-03-22T08:49:51Z</time></trkpt><trkpt lat="43.452651619361426" lon="2.0044761428421167"><ele>224.0</ele><time>2026-03-22T08:49:52Z</time></trkpt><trkpt lat="43.452501097461074" lon="2.0045560135388003"><ele>224.0</ele><time>2026-03-22T08:49:53Z</time></trkpt><trkpt lat="43.452351081748226" lon="2.0046251342696246"><ele>224.0</ele><time>2026-03-22T08:49:54Z</time></trkpt><trkpt lat="43.45220917350296" lon="2.0046792253117545"><ele>224.0</ele><time>2026-03-22T08:49:55Z</time></trkpt><trkpt lat="43.452084149934734" lon="2.0047559260337913"><ele>224.0</ele><time>2026-03-22T08:49:56Z</time></trkpt><trkpt lat="43.451984728326885" lon="2.0048289905983725"><ele>224.79999999999998</ele><time>2026-03-22T08:49:57Z</time></trkpt><trkpt lat="43.451884891597416" lon="2.0048905643734733"><ele>225.59999999999997</ele><time>2026-03-22T08:49:58Z</time></trkpt><trkpt lat="43.45178140620793" lon="2.004953758823021"><ele>226.4</ele><time>2026-03-22T08:49:59Z</time></trkpt><trkpt lat="43.451690114309734" lon="2.0050100040499657"><ele>227.2</ele><time>2026-03-22T08:50:00Z</time></trkpt><trkpt lat="43.4516066071352" lon="2.0050633340939528"><ele>228.0</ele><time>2026-03-22T08:50:01Z</time></trkpt><trkpt lat="43.4515312256565" lon="2.005110714176402"><ele>228.0</ele><time>2026-03-22T08:50:02Z</time></trkpt><trkpt lat="43.451450396177876" lon="2.005144954598872"><ele>228.0</ele><time>2026-03-22T08:50:03Z</time></trkpt><trkpt lat="43.45138297771201" lon="2.005178913144439"><ele>228.0</ele><time>2026-03-22T08:50:04Z</time></trkpt><trkpt lat="43.45132186612431" lon="2.005210770609396"><ele>228.0</ele><time>2026-03-22T08:50:05Z</time></trkpt><trkpt lat="43.451247379513866" lon="2.0052222318944986"><ele>228.0</ele><time>2026-03-22T08:50:06Z</time></trkpt><trkpt lat="43.451174928447834" lon="2.0052678381664806"><ele>228.0</ele><time>2026-03-22T08:50:07Z</time></trkpt><trkpt lat="43.45110775231286" lon="2.00533008609002"><ele>228.25</ele><time>2026-03-22T08:50:08Z</time></trkpt><trkpt lat="43.45100030812262" lon="2.005387381489684"><ele>228.5</ele><time>2026-03-22T08:50:09Z</time></trkpt><trkpt lat="43.45086529918956" lon="2.0054652208032477"><ele>228.75</ele><time>2026-03-22T08:50:10Z</time></trkpt><trkpt lat="43.45071641741478" lon="2.0055407423572196"><ele>229.0</ele><time>2026-03-22T08:50:11Z</time></trkpt><trkpt lat="43.450553277121315" lon="2.005633675681253"><ele>230.33333333333331</ele><time>2026-03-22T08:50:12Z</time></trkpt><trkpt lat="43.45038642474569" lon="2.0056994082399364"><ele>231.66666666666669</ele><time>2026-03-22T08:50:13Z</time></trkpt><trkpt lat="43.450238057550976" lon="2.0057786923946694"><ele>233.0</ele><time>2026-03-22T08:50:14Z</time></trkpt><trkpt lat="43.45009835055883" lon="2.005855375200883"><ele>233.5</ele><time>2026-03-22T08:50:15Z</time></trkpt><trkpt lat="43.449970815815284" lon="2.0059253767401137"><ele>234.0</ele><time>2026-03-22T08:50:16Z</time></trkpt><trkpt lat="43.44983342302811" lon="2.0059978714140407"><ele>234.5</ele><time>2026-03-22T08:50:17Z</time></trkpt><trkpt lat="43.449695263089076" lon="2.006071171529492"><ele>235.0</ele><time>2026-03-22T08:50:18Z</time></trkpt><trkpt lat="43.449561858878994" lon="2.006168207481513"><ele>235.33333333333331</ele><time>2026-03-22T08:50:19Z</time></trkpt><trkpt lat="43.44940422933336" lon="2.0062282907538385"><ele>235.66666666666669</ele><time>2026-03-22T08:50:20Z</time></trkpt><trkpt lat="43.44925541476739" lon="2.0063055569494446"><ele>236.0</ele><time>2026-03-22T08:50:21Z</time></trkpt><trkpt lat="43.449112143019384" lon="2.0063855900963277"><ele>236.0</ele><time>2026-03-22T08:50:22Z</time></trkpt><trkpt lat="43.448966561005484" lon="2.0064636634457074"><ele>236.0</ele><time>2026-03-22T08:50:23Z</time></trkpt><trkpt lat="43.44882244322699" lon="2.006542289588099"><ele>236.0</ele><time>2026-03-22T08:50:24Z</time></trkpt><trkpt lat="43.44868995282871" lon="2.0066222690977678"><ele>237.75</ele><time>2026-03-22T08:50:25Z</time></trkpt><trkpt lat="43.44856143804854" lon="2.0066953730966843"><ele>239.5</ele><time>2026-03-22T08:50:26Z</time></trkpt><trkpt lat="43.44843127389303" lon="2.006772435217698"><ele>241.25</ele><time>2026-03-22T08:50:27Z</time></trkpt><trkpt lat="43.44832260246336" lon="2.0068492783179406"><ele>243.0</ele><time>2026-03-22T08:50:28Z</time></trkpt><trkpt lat="43.44821525477937" lon="2.006925903650859"><ele>243.0</ele><time>2026-03-22T08:50:29Z</time></trkpt><trkpt lat="43.448125137538845" lon="2.007051053081838"><ele>243.0</ele><time>2026-03-22T08:50:30Z</time></trkpt><trkpt lat="43.44803265875353" lon="2.0072115836956264"><ele>243.0</ele><time>2026-03-22T08:50:31Z</time></trkpt><trkpt lat="43.44796805767229" lon="2.0074222770679095"><ele>243.0</ele><time>2026-03-22T08:50:32Z</time></trkpt><trkpt lat="43.447905496211405" lon="2.0076548086094816"><ele>248.33333333333331</ele><time>2026-03-22T08:50:33Z</time></trkpt><trkpt lat="43.44784011920742" lon="2.0079015042465818"><ele>253.66666666666666</ele><time>2026-03-22T08:50:34Z</time></trkpt><trkpt lat="43.447789312591276" lon="2.0081600365174026"><ele>259.0</ele><time>2026-03-22T08:50:35Z</time></trkpt><trkpt lat="43.4477194209939" lon="2.008413071989511"><ele>259.66666666666663</ele><time>2026-03-22T08:50:36Z</time></trkpt><trkpt lat="43.44764976099871" lon="2.0086485393807263"><ele>260.3333333333333</ele><time>2026-03-22T08:50:37Z</time></trkpt><trkpt lat="43.44759115475232" lon="2.008880870764127"><ele>261.0</ele><time>2026-03-22T08:50:38Z</time></trkpt><trkpt lat="43.447527671134914" lon="2.0091049304045456"><ele>260.6666666666667</ele><time>2026-03-22T08:50:39Z</time></trkpt><trkpt lat="43.447454131376226" lon="2.009330462588949"><ele>260.33333333333337</ele><time>2026-03-22T08:50:40Z</time></trkpt><trkpt lat="43.44739686183918" lon="2.0095617252061437"><ele>260.0</ele><time>2026-03-22T08:50:41Z</time></trkpt><trkpt lat="43.447344354467084" lon="2.009795529744533"><ele>260.0</ele><time>2026-03-22T08:50:42Z</time></trkpt><trkpt lat="43.44727199482122" lon="2.0100366731461414"><ele>260.0</ele><time>2026-03-22T08:50:43Z</time></trkpt><trkpt lat="43.447206816842524" lon="2.010281890791335"><ele>260.0</ele><time>2026-03-22T08:50:44Z</time></trkpt><trkpt lat="43.44713916351502" lon="2.0105364542255098"><ele>267.0</ele><time>2026-03-22T08:50:45Z</time></trkpt><trkpt lat="43.447071746590275" lon="2.010790275387267"><ele>274.0</ele><time>2026-03-22T08:50:46Z</time></trkpt><trkpt lat="43.44701490064016" lon="2.011046727431418"><ele>281.0</ele><time>2026-03-22T08:50:47Z</time></trkpt><trkpt lat="43.446952164879754" lon="2.011293296470789"><ele>282.6666666666667</ele><time>2026-03-22T08:50:48Z</time></trkpt><trkpt lat="43.4468804353025" lon="2.0115308678922363"><ele>284.3333333333333</ele><time>2026-03-22T08:50:49Z</time></trkpt><trkpt lat="43.44682690556516" lon="2.0117547037598484"><ele>286.0</ele><time>2026-03-22T08:50:50Z</time></trkpt><trkpt lat="43.446772051505704" lon="2.011969282745391"><ele>286.0</ele><time>2026-03-22T08:50:51Z</time></trkpt><trkpt lat="43.44671784309927" lon="2.012167688534635"><ele>286.0</ele><time>2026-03-22T08:50:52Z</time></trkpt><trkpt lat="43.446663146298185" lon="2.012369784389525"><ele>286.0</ele><time>2026-03-22T08:50:53Z</time></trkpt><trkpt lat="43.44659847891764" lon="2.0125668141426027"><ele>285.0</ele><time>2026-03-22T08:50:54Z</time></trkpt><trkpt lat="43.446541057846005" lon="2.0127788986865647"><ele>284.0</ele><time>2026-03-22T08:50:55Z</time></trkpt><trkpt lat="43.44649703973175" lon="2.0129929074776998"><ele>283.0</ele><time>2026-03-22T08:50:56Z</time></trkpt><trkpt lat="43.44643438743136" lon="2.013191993076012"><ele>282.0</ele><time>2026-03-22T08:50:57Z</time></trkpt><trkpt lat="43.44634297820457" lon="2.0133765254748965"><ele>281.0</ele><time>2026-03-22T08:50:58Z</time></trkpt><trkpt lat="43.44623019525492" lon="2.013549917564712"><ele>280.0</ele><time>2026-03-22T08:50:59Z</time></trkpt><trkpt lat="43.446093148886746" lon="2.0137002367528303"><ele>287.0</ele><time>2026-03-22T08:51:00Z</time></trkpt><trkpt lat="43.44595024867838" lon="2.0138419794735833"><ele>294.0</ele><time>2026-03-22T08:51:01Z</time></trkpt><trkpt lat="43.4458383188564" lon="2.0139641370930312"><ele>301.0</ele><time>2026-03-22T08:51:02Z</time></trkpt><trkpt lat="43.44573698676058" lon="2.014062246298259"><ele>308.0</ele><time>2026-03-22T08:51:03Z</time></trkpt><trkpt lat="43.44564671756827" lon="2.0141499555997213"><ele>305.0</ele><time>2026-03-22T08:51:04Z</time></trkpt><trkpt lat="43.4455774063651" lon="2.0142309408761383"><ele>302.0</ele><time>2026-03-22T08:51:05Z</time></trkpt><trkpt lat="43.445520921783434" lon="2.014333325274231"><ele>299.0</ele><time>2026-03-22T08:51:06Z</time></trkpt><trkpt lat="43.44550923599783" lon="2.014455114031638"><ele>296.0</ele><time>2026-03-22T08:51:06.999Z</time></trkpt><trkpt lat="43.445528975299794" lon="2.014609512050629"><ele>293.0</ele><time>2026-03-22T08:51:07.999Z</time></trkpt><trkpt lat="43.44557643208583" lon="2.0148080985512435"><ele>292.0</ele><time>2026-03-22T08:51:08.999Z</time></trkpt><trkpt lat="43.44561265361594" lon="2.015032251912285"><ele>291.0</ele><time>2026-03-22T08:51:09.999Z</time></trkpt><trkpt lat="43.44564537907897" lon="2.015250520501425"><ele>290.0</ele><time>2026-03-22T08:51:10.999Z</time></trkpt><trkpt lat="43.445679877349505" lon="2.0154538005935314"><ele>290.0</ele><time>2026-03-22T08:51:11.999Z</time></trkpt><trkpt lat="43.44569989994209" lon="2.0156398770640385"><ele>290.0</ele><time>2026-03-22T08:51:12.999Z</time></trkpt><trkpt lat="43.44571107863461" lon="2.015831852489062"><ele>290.0</ele><time>2026-03-22T08:51:13.999Z</time></trkpt><trkpt lat="43.44568637434431" lon="2.0160349682970558"><ele>290.0</ele><time>2026-03-22T08:51:14.999Z</time></trkpt><trkpt lat="43.44562220453135" lon="2.01624402887551"><ele>293.0</ele><time>2026-03-22T08:51:15.999Z</time></trkpt><trkpt lat="43.44556696755112" lon="2.0164469324996395"><ele>296.0</ele><time>2026-03-22T08:51:16.999Z</time></trkpt><trkpt lat="43.44551024494982" lon="2.016648039001353"><ele>299.0</ele><time>2026-03-22T08:51:17.999Z</time></trkpt><trkpt lat="43.4454615601266" lon="2.0168476269739837"><ele>304.25</ele><time>2026-03-22T08:51:18.999Z</time></trkpt><trkpt lat="43.445412567304416" lon="2.017022578214089"><ele>309.5</ele><time>2026-03-22T08:51:19.999Z</time></trkpt><trkpt lat="43.445362030414344" lon="2.0171926605786124"><ele>314.75</ele><time>2026-03-22T08:51:20.999Z</time></trkpt><trkpt lat="43.445314462474755" lon="2.0173450226757117"><ele>320.0</ele><time>2026-03-22T08:51:21.999Z</time></trkpt><trkpt lat="43.44527380189012" lon="2.0174902600138593"><ele>320.0</ele><time>2026-03-22T08:51:22.999Z</time></trkpt><trkpt lat="43.44522864431047" lon="2.0176374330337254"><ele>320.0</ele><time>2026-03-22T08:51:23.999Z</time></trkpt><trkpt lat="43.44518363210791" lon="2.0177835199853904"><ele>320.0</ele><time>2026-03-22T08:51:24.999Z</time></trkpt><trkpt lat="43.445142944372215" lon="2.0179324153592013"><ele>320.0</ele><time>2026-03-22T08:51:25.999Z</time></trkpt><trkpt lat="43.44510541875118" lon="2.018089058150433"><ele>320.0</ele><time>2026-03-22T08:51:26.999Z</time></trkpt><trkpt lat="43.44506486457301" lon="2.0182438442764985"><ele>320.0</ele><time>2026-03-22T08:51:27.999Z</time></trkpt><trkpt lat="43.444997972399605" lon="2.0183890603006645"><ele>320.0</ele><time>2026-03-22T08:51:28.999Z</time></trkpt><trkpt lat="43.444920673249335" lon="2.0185298993507885"><ele>320.0</ele><time>2026-03-22T08:51:29.999Z</time></trkpt><trkpt lat="43.444825103724966" lon="2.0186601396638246"><ele>318.75</ele><time>2026-03-22T08:51:30.999Z</time></trkpt><trkpt lat="43.44471540488298" lon="2.0187768109228776"><ele>317.5</ele><time>2026-03-22T08:51:31.999Z</time></trkpt><trkpt lat="43.44459367550864" lon="2.0188932084478926"><ele>316.25</ele><time>2026-03-22T08:51:32.999Z</time></trkpt><trkpt lat="43.44447649719102" lon="2.0190130578384884"><ele>315.0</ele><time>2026-03-22T08:51:33.999Z</time></trkpt><trkpt lat="43.444367507168806" lon="2.019149813773437"><ele>317.5</ele><time>2026-03-22T08:51:34.999Z</time></trkpt><trkpt lat="43.44427343587745" lon="2.019308643333991"><ele>320.0</ele><time>2026-03-22T08:51:35.999Z</time></trkpt><trkpt lat="43.44417634034741" lon="2.0194648374430804"><ele>322.5</ele><time>2026-03-22T08:51:36.999Z</time></trkpt><trkpt lat="43.4440911896606" lon="2.0196043118483984"><ele>325.0</ele><time>2026-03-22T08:51:37.999Z</time></trkpt><trkpt lat="43.44400338792077" lon="2.0197433796258295"><ele>325.0</ele><time>2026-03-22T08:51:38.999Z</time></trkpt><trkpt lat="43.443919857590586" lon="2.0198821837220944"><ele>325.0</ele><time>2026-03-22T08:51:39.999Z</time></trkpt><trkpt lat="43.44383718177157" lon="2.0200213778832357"><ele>325.0</ele><time>2026-03-22T08:51:40.999Z</time></trkpt><trkpt lat="43.443749143968034" lon="2.020163382939545"><ele>325.0</ele><time>2026-03-22T08:51:41.999Z</time></trkpt><trkpt lat="43.443656867440595" lon="2.0203113977332516"><ele>332.3333333333333</ele><time>2026-03-22T08:51:42.999Z</time></trkpt><trkpt lat="43.443563261798516" lon="2.020462626539783"><ele>339.6666666666667</ele><time>2026-03-22T08:51:43.999Z</time></trkpt><trkpt lat="43.443459699909255" lon="2.0206161874608073"><ele>347.0</ele><time>2026-03-22T08:51:44.999Z</time></trkpt><trkpt lat="43.44334495798038" lon="2.020763565648046"><ele>348.0</ele><time>2026-03-22T08:51:45.999Z</time></trkpt><trkpt lat="43.44321160995639" lon="2.0208862276097275"><ele>349.0</ele><time>2026-03-22T08:51:46.999Z</time></trkpt><trkpt lat="43.44307719524092" lon="2.0209931624414166"><ele>350.0</ele><time>2026-03-22T08:51:47.999Z</time></trkpt><trkpt lat="43.44295524604703" lon="2.0210659354639278"><ele>351.0</ele><time>2026-03-22T08:51:48.999Z</time></trkpt><trkpt lat="43.44283739442559" lon="2.021111346283077"><ele>351.0</ele><time>2026-03-22T08:51:49.999Z</time></trkpt><trkpt lat="43.44271311582748" lon="2.0211668989199554"><ele>351.0</ele><time>2026-03-22T08:51:50.999Z</time></trkpt><trkpt lat="43.44259955419641" lon="2.0212398536823772"><ele>351.0</ele><time>2026-03-22T08:51:51.999Z</time></trkpt><trkpt lat="43.442508869812144" lon="2.0213257545148466"><ele>351.0</ele><time>2026-03-22T08:51:52.999Z</time></trkpt><trkpt lat="43.44243597706583" lon="2.0214035594854227"><ele>351.0</ele><time>2026-03-22T08:51:53.999Z</time></trkpt><trkpt lat="43.44235398346601" lon="2.021496104405429"><ele>351.0</ele><time>2026-03-22T08:51:55Z</time></trkpt><trkpt lat="43.44226575288514" lon="2.0216067390536994"><ele>351.0</ele><time>2026-03-22T08:51:56Z</time></trkpt><trkpt lat="43.44218721261765" lon="2.021735001852078"><ele>351.0</ele><time>2026-03-22T08:51:57Z</time></trkpt><trkpt lat="43.44210562876641" lon="2.0218723725753858"><ele>351.8</ele><time>2026-03-22T08:51:58Z</time></trkpt><trkpt lat="43.442037700433424" lon="2.021992176318897"><ele>352.6</ele><time>2026-03-22T08:51:59Z</time></trkpt><trkpt lat="43.441965388833" lon="2.0221041237359945"><ele>353.4</ele><time>2026-03-22T08:52:00Z</time></trkpt><trkpt lat="43.44190072177795" lon="2.0222156481456994"><ele>354.2</ele><time>2026-03-22T08:52:01Z</time></trkpt><trkpt lat="43.44183440825956" lon="2.0223273801704704"><ele>355.0</ele><time>2026-03-22T08:52:02Z</time></trkpt><trkpt lat="43.44177521503216" lon="2.0224424866714514"><ele>353.6</ele><time>2026-03-22T08:52:03Z</time></trkpt><trkpt lat="43.44170527482574" lon="2.022556303445724"><ele>352.2</ele><time>2026-03-22T08:52:04Z</time></trkpt><trkpt lat="43.44163835957819" lon="2.022658926785959"><ele>350.79999999999995</ele><time>2026-03-22T08:52:05Z</time></trkpt><trkpt lat="43.44156889677201" lon="2.0227602599592687"><ele>349.4</ele><time>2026-03-22T08:52:06Z</time></trkpt><trkpt lat="43.44150420658559" lon="2.022865036617935"><ele>348.0</ele><time>2026-03-22T08:52:07Z</time></trkpt><trkpt lat="43.441435799208826" lon="2.0229680612878447"><ele>348.0</ele><time>2026-03-22T08:52:08Z</time></trkpt><trkpt lat="43.44138117022832" lon="2.023068932186039"><ele>348.0</ele><time>2026-03-22T08:52:09Z</time></trkpt><trkpt lat="43.44133635972895" lon="2.023151899220242"><ele>348.0</ele><time>2026-03-22T08:52:10Z</time></trkpt><trkpt lat="43.44125220975377" lon="2.0233089085621185"><ele>348.0</ele><time>2026-03-22T08:52:12Z</time></trkpt><trkpt lat="43.44120178988911" lon="2.023390074811532"><ele>348.0</ele><time>2026-03-22T08:52:13Z</time></trkpt><trkpt lat="43.44115989499507" lon="2.0234628700955164"><ele>350.2</ele><time>2026-03-22T08:52:14Z</time></trkpt><trkpt lat="43.44110200282204" lon="2.023576173089016"><ele>352.4</ele><time>2026-03-22T08:52:16Z</time></trkpt><trkpt lat="43.44102281276578" lon="2.02370517363965"><ele>354.59999999999997</ele><time>2026-03-22T08:52:18Z</time></trkpt><trkpt lat="43.44097578567841" lon="2.0237889728124228"><ele>356.79999999999995</ele><time>2026-03-22T08:52:19Z</time></trkpt><trkpt lat="43.44095206473988" lon="2.023883520129586"><ele>359.0</ele><time>2026-03-22T08:52:20Z</time></trkpt><trkpt lat="43.44092798593541" lon="2.024045291913757"><ele>359.5</ele><time>2026-03-22T08:52:21Z</time></trkpt><trkpt lat="43.440907162498306" lon="2.02421441262914"><ele>360.0</ele><time>2026-03-22T08:52:22Z</time></trkpt><trkpt lat="43.44089076142632" lon="2.0243628752346385"><ele>360.5</ele><time>2026-03-22T08:52:23Z</time></trkpt><trkpt lat="43.44085718307012" lon="2.024544132939732"><ele>361.0</ele><time>2026-03-22T08:52:24Z</time></trkpt><trkpt lat="43.44084591453756" lon="2.024740821734366"><ele>361.0</ele><time>2026-03-22T08:52:25Z</time></trkpt><trkpt lat="43.440838151386544" lon="2.02494060670492"><ele>361.0</ele><time>2026-03-22T08:52:26Z</time></trkpt><trkpt lat="43.440830833664755" lon="2.02512892875342"><ele>361.0</ele><time>2026-03-22T08:52:27Z</time></trkpt><trkpt lat="43.44082341786509" lon="2.0253165364916157"><ele>361.0</ele><time>2026-03-22T08:52:28Z</time></trkpt><trkpt lat="43.44081588410518" lon="2.025498557788482"><ele>360.8</ele><time>2026-03-22T08:52:29Z</time></trkpt><trkpt lat="43.44080859056831" lon="2.0256747747241577"><ele>360.6</ele><time>2026-03-22T08:52:30Z</time></trkpt><trkpt lat="43.44080212678147" lon="2.0258309440165823"><ele>360.4</ele><time>2026-03-22T08:52:31Z</time></trkpt><trkpt lat="43.440796337552676" lon="2.0259708162198224"><ele>360.2</ele><time>2026-03-22T08:52:32Z</time></trkpt><trkpt lat="43.44079061166837" lon="2.026109157589574"><ele>360.0</ele><time>2026-03-22T08:52:33Z</time></trkpt><trkpt lat="43.44078440010773" lon="2.026259233283876"><ele>360.0</ele><time>2026-03-22T08:52:34Z</time></trkpt><trkpt lat="43.44077756298274" lon="2.0264244193912893"><ele>360.0</ele><time>2026-03-22T08:52:35Z</time></trkpt><trkpt lat="43.44078655984766" lon="2.0265971779830325"><ele>360.0</ele><time>2026-03-22T08:52:36Z</time></trkpt><trkpt lat="43.440776559626926" lon="2.0267733132364905"><ele>360.0</ele><time>2026-03-22T08:52:37Z</time></trkpt><trkpt lat="43.440765671311624" lon="2.0269596141866812"><ele>359.5</ele><time>2026-03-22T08:52:38Z</time></trkpt><trkpt lat="43.44075988864835" lon="2.0271530730469527"><ele>359.0</ele><time>2026-03-22T08:52:39Z</time></trkpt><trkpt lat="43.44075184933019" lon="2.027338291418162"><ele>358.5</ele><time>2026-03-22T08:52:40Z</time></trkpt><trkpt lat="43.44074491525039" lon="2.0275064730234322"><ele>358.0</ele><time>2026-03-22T08:52:41Z</time></trkpt><trkpt lat="43.44073175591529" lon="2.027673389052117"><ele>357.75</ele><time>2026-03-22T08:52:42Z</time></trkpt><trkpt lat="43.44071947087478" lon="2.027849109973345"><ele>357.5</ele><time>2026-03-22T08:52:43Z</time></trkpt><trkpt lat="43.440711663754435" lon="2.028012411686512"><ele>357.25</ele><time>2026-03-22T08:52:44Z</time></trkpt><trkpt lat="43.440709204471965" lon="2.028180177051835"><ele>357.0</ele><time>2026-03-22T08:52:45Z</time></trkpt><trkpt lat="43.44070152813227" lon="2.028349983672865"><ele>356.6</ele><time>2026-03-22T08:52:46Z</time></trkpt><trkpt lat="43.44069898729893" lon="2.0285044441946014"><ele>356.20000000000005</ele><time>2026-03-22T08:52:47Z</time></trkpt><trkpt lat="43.44069691071238" lon="2.0286473200532122"><ele>355.8</ele><time>2026-03-22T08:52:48Z</time></trkpt><trkpt lat="43.44069844409904" lon="2.028777611490788"><ele>355.4</ele><time>2026-03-22T08:52:49Z</time></trkpt><trkpt lat="43.44070144254906" lon="2.028897231547516"><ele>355.0</ele><time>2026-03-22T08:52:50Z</time></trkpt><trkpt lat="43.44070614588315" lon="2.0290219284301134"><ele>355.66666666666663</ele><time>2026-03-22T08:52:51Z</time></trkpt><trkpt lat="43.44071138915579" lon="2.0291550186210774"><ele>356.3333333333333</ele><time>2026-03-22T08:52:52Z</time></trkpt><trkpt lat="43.440731766718294" lon="2.029280671574261"><ele>357.0</ele><time>2026-03-22T08:52:53Z</time></trkpt><trkpt lat="43.44075030754225" lon="2.029390680242316"><ele>357.6666666666667</ele><time>2026-03-22T08:52:54Z</time></trkpt><trkpt lat="43.440772500385926" lon="2.0294856871274303"><ele>358.33333333333337</ele><time>2026-03-22T08:52:55Z</time></trkpt><trkpt lat="43.44080000744031" lon="2.029567266340683"><ele>359.0</ele><time>2026-03-22T08:52:56Z</time></trkpt><trkpt lat="43.44082871452322" lon="2.029659734901742"><ele>359.0</ele><time>2026-03-22T08:52:57Z</time></trkpt><trkpt lat="43.440851719871766" lon="2.029807631553356"><ele>359.0</ele><time>2026-03-22T08:52:59Z</time></trkpt><trkpt lat="43.440871033349964" lon="2.0298990893874915"><ele>359.0</ele><time>2026-03-22T08:53:00Z</time></trkpt><trkpt lat="43.440893184603304" lon="2.030001014160376"><ele>359.0</ele><time>2026-03-22T08:53:01Z</time></trkpt><trkpt lat="43.44091543202522" lon="2.030103381912024"><ele>359.0</ele><time>2026-03-22T08:53:02Z</time></trkpt><trkpt lat="43.44094129271017" lon="2.0302223750051844"><ele>359.0</ele><time>2026-03-22T08:53:03Z</time></trkpt><trkpt lat="43.44096918762145" lon="2.0303501254990857"><ele>359.83333333333337</ele><time>2026-03-22T08:53:04Z</time></trkpt><trkpt lat="43.44100179222905" lon="2.030489507756441"><ele>360.6666666666667</ele><time>2026-03-22T08:53:05Z</time></trkpt><trkpt lat="43.44102882979526" lon="2.0306050913356963"><ele>361.5</ele><time>2026-03-22T08:53:06Z</time></trkpt><trkpt lat="43.44105222675082" lon="2.03071392345838"><ele>362.3333333333333</ele><time>2026-03-22T08:53:07Z</time></trkpt><trkpt lat="43.441072569640326" lon="2.030824364962834"><ele>363.16666666666663</ele><time>2026-03-22T08:53:08Z</time></trkpt><trkpt lat="43.44108623661883" lon="2.0309215329044488"><ele>364.0</ele><time>2026-03-22T08:53:09Z</time></trkpt><trkpt lat="43.441094417308925" lon="2.0310193885341676"><ele>365.16666666666663</ele><time>2026-03-22T08:53:10Z</time></trkpt><trkpt lat="43.441102002694535" lon="2.0311164195865863"><ele>366.3333333333333</ele><time>2026-03-22T08:53:11Z</time></trkpt><trkpt lat="43.4410810098315" lon="2.0312100711935424"><ele>367.5</ele><time>2026-03-22T08:53:12Z</time></trkpt><trkpt lat="43.44104723343632" lon="2.0313058206508905"><ele>368.6666666666667</ele><time>2026-03-22T08:53:13Z</time></trkpt><trkpt lat="43.441020424223" lon="2.0314074768737815"><ele>369.83333333333337</ele><time>2026-03-22T08:53:14Z</time></trkpt><trkpt lat="43.44099822281788" lon="2.031515198230072"><ele>371.0</ele><time>2026-03-22T08:53:15Z</time></trkpt><trkpt lat="43.44096128974717" lon="2.031624128817646"><ele>371.75</ele><time>2026-03-22T08:53:16Z</time></trkpt><trkpt lat="43.44089639963225" lon="2.0317579058855637"><ele>372.5</ele><time>2026-03-22T08:53:17Z</time></trkpt><trkpt lat="43.44081442658066" lon="2.0319412675152146"><ele>373.25</ele><time>2026-03-22T08:53:18Z</time></trkpt><trkpt lat="43.44073361909017" lon="2.032136612208767"><ele>374.0</ele><time>2026-03-22T08:53:19Z</time></trkpt><trkpt lat="43.44063918023009" lon="2.032348534720579"><ele>370.33333333333337</ele><time>2026-03-22T08:53:20Z</time></trkpt><trkpt lat="43.44054374922785" lon="2.032557571643914"><ele>366.6666666666667</ele><time>2026-03-22T08:53:21Z</time></trkpt><trkpt lat="43.44045896612183" lon="2.0327570168768303"><ele>363.0</ele><time>2026-03-22T08:53:22Z</time></trkpt><trkpt lat="43.440367506668764" lon="2.0329593911256714"><ele>369.3333333333333</ele><time>2026-03-22T08:53:23Z</time></trkpt><trkpt lat="43.440277302601956" lon="2.0331549295793714"><ele>375.66666666666663</ele><time>2026-03-22T08:53:24Z</time></trkpt><trkpt lat="43.44019042057671" lon="2.0333465756208042"><ele>382.0</ele><time>2026-03-22T08:53:24.999Z</time></trkpt><trkpt lat="43.440101402128214" lon="2.033532247975677"><ele>382.0</ele><time>2026-03-22T08:53:25.999Z</time></trkpt><trkpt lat="43.43999963220924" lon="2.0337329979862546"><ele>382.0</ele><time>2026-03-22T08:53:26.999Z</time></trkpt><trkpt lat="43.439888039624364" lon="2.033970488902163"><ele>382.0</ele><time>2026-03-22T08:53:27.999Z</time></trkpt><trkpt lat="43.439763328608144" lon="2.0342160124818096"><ele>379.66666666666663</ele><time>2026-03-22T08:53:28.999Z</time></trkpt><trkpt lat="43.43961148732724" lon="2.0344611088987805"><ele>377.3333333333333</ele><time>2026-03-22T08:53:29.999Z</time></trkpt><trkpt lat="43.43946057764284" lon="2.0346692645337137"><ele>375.0</ele><time>2026-03-22T08:53:30.999Z</time></trkpt><trkpt lat="43.439308643202935" lon="2.034875080867406"><ele>374.6666666666667</ele><time>2026-03-22T08:53:31.999Z</time></trkpt><trkpt lat="43.4391727200274" lon="2.035068922595112"><ele>374.33333333333337</ele><time>2026-03-22T08:53:32.999Z</time></trkpt><trkpt lat="43.43903422937469" lon="2.0352666135311974"><ele>374.0</ele><time>2026-03-22T08:53:33.999Z</time></trkpt><trkpt lat="43.43889453149886" lon="2.0354701188285573"><ele>374.0</ele><time>2026-03-22T08:53:34.999Z</time></trkpt><trkpt lat="43.438755910077646" lon="2.0356722795936615"><ele>374.0</ele><time>2026-03-22T08:53:35.999Z</time></trkpt><trkpt lat="43.43861745279086" lon="2.0358724051399246"><ele>374.0</ele><time>2026-03-22T08:53:36.999Z</time></trkpt><trkpt lat="43.43849356356399" lon="2.036062653772557"><ele>374.0</ele><time>2026-03-22T08:53:37.999Z</time></trkpt><trkpt lat="43.43836853800402" lon="2.036246969170122"><ele>374.0</ele><time>2026-03-22T08:53:38.999Z</time></trkpt><trkpt lat="43.438257229036566" lon="2.036437656761284"><ele>374.0</ele><time>2026-03-22T08:53:39.999Z</time></trkpt><trkpt lat="43.43814461927481" lon="2.036659656998371"><ele>375.0</ele><time>2026-03-22T08:53:40.999Z</time></trkpt><trkpt lat="43.43803292890133" lon="2.0369107452105535"><ele>376.0</ele><time>2026-03-22T08:53:41.999Z</time></trkpt><trkpt lat="43.437933514485024" lon="2.0371832778381203"><ele>377.0</ele><time>2026-03-22T08:53:42.999Z</time></trkpt><trkpt lat="43.43783873539201" lon="2.037428449840843"><ele>377.6666666666667</ele><time>2026-03-22T08:53:43.999Z</time></trkpt><trkpt lat="43.4377501976618" lon="2.03767285891846"><ele>378.3333333333333</ele><time>2026-03-22T08:53:44.999Z</time></trkpt><trkpt lat="43.43766452149998" lon="2.0379181911900712"><ele>379.0</ele><time>2026-03-22T08:53:45.999Z</time></trkpt><trkpt lat="43.43757660385798" lon="2.038157040874089"><ele>381.0</ele><time>2026-03-22T08:53:46.999Z</time></trkpt><trkpt lat="43.43747689242414" lon="2.038390561200963"><ele>383.0</ele><time>2026-03-22T08:53:47.999Z</time></trkpt><trkpt lat="43.43736996838392" lon="2.038621614232901"><ele>385.0</ele><time>2026-03-22T08:53:48.999Z</time></trkpt><trkpt lat="43.43724956787293" lon="2.0388418347207304"><ele>382.33333333333337</ele><time>2026-03-22T08:53:49.999Z</time></trkpt><trkpt lat="43.43711027932766" lon="2.039060384933362"><ele>379.6666666666667</ele><time>2026-03-22T08:53:50.999Z</time></trkpt><trkpt lat="43.43696980802732" lon="2.0392810309261495"><ele>377.0</ele><time>2026-03-22T08:53:51.999Z</time></trkpt><trkpt lat="43.43684216821523" lon="2.039497098436067"><ele>377.0</ele><time>2026-03-22T08:53:52.999Z</time></trkpt><trkpt lat="43.43671858929569" lon="2.039705319774024"><ele>377.0</ele><time>2026-03-22T08:53:53.999Z</time></trkpt><trkpt lat="43.43659847758081" lon="2.0399132718486896"><ele>377.0</ele><time>2026-03-22T08:53:54.999Z</time></trkpt><trkpt lat="43.43647869873322" lon="2.040122671565797"><ele>375.6666666666667</ele><time>2026-03-22T08:53:55.999Z</time></trkpt><trkpt lat="43.436363011550476" lon="2.040319814051909"><ele>374.3333333333333</ele><time>2026-03-22T08:53:56.999Z</time></trkpt><trkpt lat="43.4362383608686" lon="2.0405202059171517"><ele>373.0</ele><time>2026-03-22T08:53:57.999Z</time></trkpt><trkpt lat="43.436116955891876" lon="2.040717526146272"><ele>377.66666666666663</ele><time>2026-03-22T08:53:58.999Z</time></trkpt><trkpt lat="43.43600851926652" lon="2.0409029724301764"><ele>382.3333333333333</ele><time>2026-03-22T08:53:59.999Z</time></trkpt><trkpt lat="43.43590456384675" lon="2.041084778843216"><ele>387.0</ele><time>2026-03-22T08:54:01Z</time></trkpt><trkpt lat="43.435806736219185" lon="2.0412493761202484"><ele>387.0</ele><time>2026-03-22T08:54:02Z</time></trkpt><trkpt lat="43.43571144086646" lon="2.041413271743115"><ele>387.0</ele><time>2026-03-22T08:54:03Z</time></trkpt><trkpt lat="43.43563406202476" lon="2.041576413497192"><ele>387.0</ele><time>2026-03-22T08:54:04Z</time></trkpt><trkpt lat="43.43556144122102" lon="2.041777036317992"><ele>392.0</ele><time>2026-03-22T08:54:05Z</time></trkpt><trkpt lat="43.43551993127041" lon="2.0419828889958502"><ele>397.0</ele><time>2026-03-22T08:54:06Z</time></trkpt><trkpt lat="43.43550445174798" lon="2.042205408047874"><ele>402.0</ele><time>2026-03-22T08:54:07Z</time></trkpt><trkpt lat="43.43551165126234" lon="2.0424686126265454"><ele>404.66666666666663</ele><time>2026-03-22T08:54:08Z</time></trkpt><trkpt lat="43.43550710167386" lon="2.0427594947151335"><ele>407.3333333333333</ele><time>2026-03-22T08:54:09Z</time></trkpt><trkpt lat="43.4354919542287" lon="2.043065586599728"><ele>410.0</ele><time>2026-03-22T08:54:10Z</time></trkpt><trkpt lat="43.435466554262945" lon="2.0433575401292643"><ele>400.66666666666663</ele><time>2026-03-22T08:54:11Z</time></trkpt><trkpt lat="43.4354362523145" lon="2.0436194168765134"><ele>391.3333333333333</ele><time>2026-03-22T08:54:12Z</time></trkpt><trkpt lat="43.43541922550009" lon="2.0438614355272002"><ele>382.0</ele><time>2026-03-22T08:54:13Z</time></trkpt><trkpt lat="43.43543416499452" lon="2.044094708362058"><ele>383.3333333333333</ele><time>2026-03-22T08:54:14Z</time></trkpt><trkpt lat="43.435465758550315" lon="2.0443704146939723"><ele>384.66666666666663</ele><time>2026-03-22T08:54:15Z</time></trkpt><trkpt lat="43.435481589379165" lon="2.0446617378506424"><ele>386.0</ele><time>2026-03-22T08:54:16Z</time></trkpt><trkpt lat="43.435465027134974" lon="2.0449398165409445"><ele>387.3333333333333</ele><time>2026-03-22T08:54:17Z</time></trkpt><trkpt lat="43.43544408228747" lon="2.045184134769614"><ele>388.66666666666663</ele><time>2026-03-22T08:54:18Z</time></trkpt><trkpt lat="43.435424662022854" lon="2.0454048037713752"><ele>390.0</ele><time>2026-03-22T08:54:19Z</time></trkpt><trkpt lat="43.435387251245686" lon="2.045634194911544"><ele>390.66666666666663</ele><time>2026-03-22T08:54:20Z</time></trkpt><trkpt lat="43.4353468640037" lon="2.045889742871147"><ele>391.3333333333333</ele><time>2026-03-22T08:54:21Z</time></trkpt><trkpt lat="43.43530702610473" lon="2.046150802261065"><ele>392.0</ele><time>2026-03-22T08:54:22Z</time></trkpt><trkpt lat="43.43526881963066" lon="2.046388531170203"><ele>392.0</ele><time>2026-03-22T08:54:23Z</time></trkpt><trkpt lat="43.43523257495482" lon="2.046614482253199"><ele>392.0</ele><time>2026-03-22T08:54:24Z</time></trkpt><trkpt lat="43.43519026326482" lon="2.046822829557373"><ele>392.0</ele><time>2026-03-22T08:54:25Z</time></trkpt><trkpt lat="43.43513840998455" lon="2.0470176166201663"><ele>395.0</ele><time>2026-03-22T08:54:26Z</time></trkpt><trkpt lat="43.43508414267544" lon="2.0472059675090004"><ele>398.0</ele><time>2026-03-22T08:54:27Z</time></trkpt><trkpt lat="43.435035400989726" lon="2.047403668098537"><ele>401.0</ele><time>2026-03-22T08:54:28Z</time></trkpt><trkpt lat="43.43497965933698" lon="2.047568241159776"><ele>404.0</ele><time>2026-03-22T08:54:29Z</time></trkpt><trkpt lat="43.434913839672525" lon="2.0477131848584493"><ele>402.3333333333333</ele><time>2026-03-22T08:54:30Z</time></trkpt><trkpt lat="43.4348075589775" lon="2.047851301696214"><ele>400.66666666666663</ele><time>2026-03-22T08:54:31Z</time></trkpt><trkpt lat="43.434671871550734" lon="2.047980145650155"><ele>399.0</ele><time>2026-03-22T08:54:32Z</time></trkpt><trkpt lat="43.43452927822915" lon="2.0480925510009285"><ele>399.0</ele><time>2026-03-22T08:54:33Z</time></trkpt><trkpt lat="43.4343601171604" lon="2.048204922886539"><ele>399.0</ele><time>2026-03-22T08:54:34Z</time></trkpt><trkpt lat="43.43418421886139" lon="2.0483307120474206"><ele>399.0</ele><time>2026-03-22T08:54:35Z</time></trkpt><trkpt lat="43.43401981137608" lon="2.0484821183609414"><ele>398.66666666666663</ele><time>2026-03-22T08:54:36Z</time></trkpt><trkpt lat="43.433847900154475" lon="2.048658210182914"><ele>398.3333333333333</ele><time>2026-03-22T08:54:37Z</time></trkpt><trkpt lat="43.433693262236666" lon="2.048843041574705"><ele>398.0</ele><time>2026-03-22T08:54:38Z</time></trkpt><trkpt lat="43.43353975382855" lon="2.0490176899349763"><ele>405.66666666666663</ele><time>2026-03-22T08:54:39Z</time></trkpt><trkpt lat="43.43338738475257" lon="2.0491782580462488"><ele>413.33333333333337</ele><time>2026-03-22T08:54:40Z</time></trkpt><trkpt lat="43.4332518439015" lon="2.049325909231335"><ele>421.0</ele><time>2026-03-22T08:54:41Z</time></trkpt><trkpt lat="43.433098808170826" lon="2.0494701970626164"><ele>414.6666666666667</ele><time>2026-03-22T08:54:42Z</time></trkpt><trkpt lat="43.43295606474108" lon="2.0496212769313407"><ele>408.33333333333337</ele><time>2026-03-22T08:54:43Z</time></trkpt><trkpt lat="43.43281894638229" lon="2.0497697415047913"><ele>402.0</ele><time>2026-03-22T08:54:44Z</time></trkpt><trkpt lat="43.43269757391212" lon="2.0499009847145233"><ele>408.66666666666663</ele><time>2026-03-22T08:54:45Z</time></trkpt><trkpt lat="43.432578398575906" lon="2.050040388602904"><ele>415.3333333333333</ele><time>2026-03-22T08:54:46Z</time></trkpt><trkpt lat="43.432464127260985" lon="2.050202031470268"><ele>422.0</ele><time>2026-03-22T08:54:47Z</time></trkpt><trkpt lat="43.43235408579265" lon="2.050399058122632"><ele>422.0</ele><time>2026-03-22T08:54:48Z</time></trkpt><trkpt lat="43.43223540943966" lon="2.050627068218495"><ele>422.0</ele><time>2026-03-22T08:54:49Z</time></trkpt><trkpt lat="43.432125408694084" lon="2.050840712646073"><ele>422.0</ele><time>2026-03-22T08:54:50Z</time></trkpt><trkpt lat="43.432031088071845" lon="2.0510401308398936"><ele>423.3333333333333</ele><time>2026-03-22T08:54:51Z</time></trkpt><trkpt lat="43.43194058969947" lon="2.051248709164391"><ele>424.66666666666663</ele><time>2026-03-22T08:54:52Z</time></trkpt><trkpt lat="43.43184396456466" lon="2.0514572722587414"><ele>426.0</ele><time>2026-03-22T08:54:53Z</time></trkpt><trkpt lat="43.431747771997266" lon="2.05166654334666"><ele>426.0</ele><time>2026-03-22T08:54:54Z</time></trkpt><trkpt lat="43.43164277329629" lon="2.0518664701532594"><ele>426.0</ele><time>2026-03-22T08:54:55Z</time></trkpt><trkpt lat="43.431552937714024" lon="2.052055997971146"><ele>426.0</ele><time>2026-03-22T08:54:56Z</time></trkpt><trkpt lat="43.43146228755514" lon="2.052244243162404"><ele>426.0</ele><time>2026-03-22T08:54:57Z</time></trkpt><trkpt lat="43.43138098417359" lon="2.0524269030023237"><ele>426.0</ele><time>2026-03-22T08:54:58Z</time></trkpt><trkpt lat="43.431328539824804" lon="2.0526233606953386"><ele>426.0</ele><time>2026-03-22T08:54:59Z</time></trkpt><trkpt lat="43.4312674845321" lon="2.0528661927540575"><ele>425.75</ele><time>2026-03-22T08:55:00Z</time></trkpt><trkpt lat="43.431214929810196" lon="2.053093277828445"><ele>425.5</ele><time>2026-03-22T08:55:01Z</time></trkpt><trkpt lat="43.43117181798363" lon="2.053275739377425"><ele>425.25</ele><time>2026-03-22T08:55:02Z</time></trkpt><trkpt lat="43.43113710989324" lon="2.0534263869256106"><ele>425.0</ele><time>2026-03-22T08:55:03Z</time></trkpt><trkpt lat="43.43111438332007" lon="2.053580770907185"><ele>425.0</ele><time>2026-03-22T08:55:04Z</time></trkpt><trkpt lat="43.431134042139576" lon="2.053750691723457"><ele>425.0</ele><time>2026-03-22T08:55:05Z</time></trkpt><trkpt lat="43.43119988932053" lon="2.0539226423959613"><ele>425.0</ele><time>2026-03-22T08:55:06Z</time></trkpt><trkpt lat="43.4312780428442" lon="2.0541344391301615"><ele>425.0</ele><time>2026-03-22T08:55:07Z</time></trkpt><trkpt lat="43.431351835185716" lon="2.0543137395301825"><ele>433.75</ele><time>2026-03-22T08:55:08Z</time></trkpt><trkpt lat="43.43141543146462" lon="2.0544794614964528"><ele>442.5</ele><time>2026-03-22T08:55:09Z</time></trkpt><trkpt lat="43.43147550320931" lon="2.0546285167055514"><ele>451.25</ele><time>2026-03-22T08:55:10Z</time></trkpt><trkpt lat="43.43152282501117" lon="2.054770762590506"><ele>460.0</ele><time>2026-03-22T08:55:11Z</time></trkpt><trkpt lat="43.43154653147693" lon="2.0548930868779793"><ele>459.83333333333337</ele><time>2026-03-22T08:55:12Z</time></trkpt><trkpt lat="43.43155374926116" lon="2.0550016135520397"><ele>459.6666666666667</ele><time>2026-03-22T08:55:13Z</time></trkpt><trkpt lat="43.43153374542124" lon="2.055113334935095"><ele>459.5</ele><time>2026-03-22T08:55:14Z</time></trkpt><trkpt lat="43.43149525831097" lon="2.0552093541666703"><ele>459.33333333333337</ele><time>2026-03-22T08:55:15Z</time></trkpt><trkpt lat="43.431430916622816" lon="2.0552878022155228"><ele>459.1666666666667</ele><time>2026-03-22T08:55:16Z</time></trkpt><trkpt lat="43.43133833634453" lon="2.0553393744517647"><ele>459.0</ele><time>2026-03-22T08:55:17Z</time></trkpt><trkpt lat="43.43124549908059" lon="2.055348282584732"><ele>460.0</ele><time>2026-03-22T08:55:18Z</time></trkpt><trkpt lat="43.43116297887039" lon="2.0553007889543373"><ele>461.0</ele><time>2026-03-22T08:55:19Z</time></trkpt><trkpt lat="43.43109169710748" lon="2.0552087276606055"><ele>462.0</ele><time>2026-03-22T08:55:20Z</time></trkpt><trkpt lat="43.43100865738078" lon="2.055088168360759"><ele>463.0</ele><time>2026-03-22T08:55:21Z</time></trkpt><trkpt lat="43.4308959510978" lon="2.0549718166321864"><ele>464.0</ele><time>2026-03-22T08:55:22Z</time></trkpt><trkpt lat="43.43076929076348" lon="2.0548631310164636"><ele>458.25</ele><time>2026-03-22T08:55:23Z</time></trkpt><trkpt lat="43.43063682846942" lon="2.0547313861168863"><ele>452.5</ele><time>2026-03-22T08:55:24Z</time></trkpt><trkpt lat="43.430541216457485" lon="2.0546312518240812"><ele>446.75</ele><time>2026-03-22T08:55:25Z</time></trkpt><trkpt lat="43.43042155570104" lon="2.0545568799735356"><ele>441.0</ele><time>2026-03-22T08:55:26Z</time></trkpt><trkpt lat="43.43030832741198" lon="2.0544809939556035"><ele>440.25</ele><time>2026-03-22T08:55:27Z</time></trkpt><trkpt lat="43.43020212620739" lon="2.0545042087208842"><ele>439.5</ele><time>2026-03-22T08:55:28Z</time></trkpt><trkpt lat="43.43007666121972" lon="2.0545409197231654"><ele>438.75</ele><time>2026-03-22T08:55:29Z</time></trkpt><trkpt lat="43.4299446648257" lon="2.054580612259254"><ele>438.0</ele><time>2026-03-22T08:55:30Z</time></trkpt><trkpt lat="43.42980611040096" lon="2.054634074342775"><ele>438.0</ele><time>2026-03-22T08:55:31Z</time></trkpt><trkpt lat="43.42968229040519" lon="2.0546885526061573"><ele>438.0</ele><time>2026-03-22T08:55:32Z</time></trkpt><trkpt lat="43.42957134413729" lon="2.054819799661532"><ele>438.0</ele><time>2026-03-22T08:55:33Z</time></trkpt><trkpt lat="43.429456870428396" lon="2.054969696352127"><ele>438.0</ele><time>2026-03-22T08:55:34Z</time></trkpt><trkpt lat="43.429341597332616" lon="2.055167911386385"><ele>442.66666666666663</ele><time>2026-03-22T08:55:35Z</time></trkpt><trkpt lat="43.42923210724747" lon="2.0553460445525635"><ele>447.3333333333333</ele><time>2026-03-22T08:55:36Z</time></trkpt><trkpt lat="43.429103837025046" lon="2.0555295381360037"><ele>452.0</ele><time>2026-03-22T08:55:37Z</time></trkpt><trkpt lat="43.42895767853863" lon="2.0556995879152753"><ele>454.3333333333333</ele><time>2026-03-22T08:55:38Z</time></trkpt><trkpt lat="43.42881832693071" lon="2.055851324036078"><ele>456.66666666666663</ele><time>2026-03-22T08:55:39Z</time></trkpt><trkpt lat="43.42866758530899" lon="2.055978718037101"><ele>459.0</ele><time>2026-03-22T08:55:40Z</time></trkpt><trkpt lat="43.4285141148383" lon="2.056068862212072"><ele>459.0</ele><time>2026-03-22T08:55:41Z</time></trkpt><trkpt lat="43.42836160622644" lon="2.056143576198136"><ele>459.0</ele><time>2026-03-22T08:55:42Z</time></trkpt><trkpt lat="43.428223035739535" lon="2.0562369435445076"><ele>459.0</ele><time>2026-03-22T08:55:43Z</time></trkpt><trkpt lat="43.4280952766057" lon="2.0563579394576195"><ele>460.66666666666663</ele><time>2026-03-22T08:55:44Z</time></trkpt><trkpt lat="43.42797339505865" lon="2.0564944587656866"><ele>462.3333333333333</ele><time>2026-03-22T08:55:44.999Z</time></trkpt><trkpt lat="43.42785886493983" lon="2.0566469039490416"><ele>464.0</ele><time>2026-03-22T08:55:45.999Z</time></trkpt><trkpt lat="43.427761692827744" lon="2.056813173591657"><ele>464.0</ele><time>2026-03-22T08:55:46.999Z</time></trkpt><trkpt lat="43.427666035294536" lon="2.057010076445626"><ele>464.0</ele><time>2026-03-22T08:55:47.999Z</time></trkpt><trkpt lat="43.42757453693057" lon="2.0572182053416017"><ele>464.0</ele><time>2026-03-22T08:55:48.999Z</time></trkpt><trkpt lat="43.42748608116981" lon="2.0574312604382166"><ele>468.3333333333333</ele><time>2026-03-22T08:55:49.999Z</time></trkpt><trkpt lat="43.427396297738035" lon="2.0576491297333703"><ele>472.66666666666663</ele><time>2026-03-22T08:55:50.999Z</time></trkpt><trkpt lat="43.42730771757937" lon="2.0578559143283717"><ele>477.0</ele><time>2026-03-22T08:55:51.999Z</time></trkpt><trkpt lat="43.427226104689844" lon="2.0580604578432196"><ele>477.66666666666663</ele><time>2026-03-22T08:55:52.999Z</time></trkpt><trkpt lat="43.42713781913115" lon="2.058262445822173"><ele>478.3333333333333</ele><time>2026-03-22T08:55:53.999Z</time></trkpt><trkpt lat="43.42705301238405" lon="2.058482923650045"><ele>479.0</ele><time>2026-03-22T08:55:54.999Z</time></trkpt><trkpt lat="43.42698440044555" lon="2.0586998302269257"><ele>479.25</ele><time>2026-03-22T08:55:55.999Z</time></trkpt><trkpt lat="43.42691891674222" lon="2.0588904436923756"><ele>479.5</ele><time>2026-03-22T08:55:56.999Z</time></trkpt><trkpt lat="43.4268591788973" lon="2.0590600548798292"><ele>479.75</ele><time>2026-03-22T08:55:57.999Z</time></trkpt><trkpt lat="43.42680331485722" lon="2.0592116460545298"><ele>480.0</ele><time>2026-03-22T08:55:58.999Z</time></trkpt><trkpt lat="43.4267535914873" lon="2.0593525599478397"><ele>481.4</ele><time>2026-03-22T08:55:59.999Z</time></trkpt><trkpt lat="43.42668337035945" lon="2.0594412247042024"><ele>482.8</ele><time>2026-03-22T08:56:00.999Z</time></trkpt><trkpt lat="43.42661617887093" lon="2.0595252973219873"><ele>484.20000000000005</ele><time>2026-03-22T08:56:01.999Z</time></trkpt><trkpt lat="43.42653625344288" lon="2.0596026579697897"><ele>485.6</ele><time>2026-03-22T08:56:02.999Z</time></trkpt><trkpt lat="43.4264400590653" lon="2.0596096809973443"><ele>487.0</ele><time>2026-03-22T08:56:03.999Z</time></trkpt><trkpt lat="43.42633243349946" lon="2.059564177549876"><ele>491.20000000000005</ele><time>2026-03-22T08:56:04.999Z</time></trkpt><trkpt lat="43.42626253886036" lon="2.0595046412644358"><ele>495.40000000000003</ele><time>2026-03-22T08:56:05.999Z</time></trkpt><trkpt lat="43.42621067676611" lon="2.059425028764863"><ele>499.59999999999997</ele><time>2026-03-22T08:56:07Z</time></trkpt><trkpt lat="43.426172521928464" lon="2.0593153532801822"><ele>503.79999999999995</ele><time>2026-03-22T08:56:08Z</time></trkpt><trkpt lat="43.426163184985896" lon="2.059198042702742"><ele>508.0</ele><time>2026-03-22T08:56:09Z</time></trkpt><trkpt lat="43.42614950304172" lon="2.0590378592307133"><ele>511.0</ele><time>2026-03-22T08:56:10Z</time></trkpt><trkpt lat="43.42615906789521" lon="2.058842322737913"><ele>514.0</ele><time>2026-03-22T08:56:11Z</time></trkpt><trkpt lat="43.42617367478912" lon="2.058612024280603"><ele>517.0</ele><time>2026-03-22T08:56:12Z</time></trkpt><trkpt lat="43.42618798853611" lon="2.0583949637927006"><ele>516.6666666666667</ele><time>2026-03-22T08:56:13Z</time></trkpt><trkpt lat="43.42621403800163" lon="2.0581667153922285"><ele>516.3333333333334</ele><time>2026-03-22T08:56:14Z</time></trkpt><trkpt lat="43.426249068641326" lon="2.0579338748618423"><ele>516.0</ele><time>2026-03-22T08:56:15Z</time></trkpt><trkpt lat="43.42627231642395" lon="2.0576957858978475"><ele>516.0</ele><time>2026-03-22T08:56:16Z</time></trkpt><trkpt lat="43.42628914185066" lon="2.0574571164203"><ele>516.0</ele><time>2026-03-22T08:56:17Z</time></trkpt><trkpt lat="43.42630840373538" lon="2.057235375092766"><ele>516.0</ele><time>2026-03-22T08:56:18Z</time></trkpt><trkpt lat="43.426306861517844" lon="2.0570371413660093"><ele>512.0</ele><time>2026-03-22T08:56:19Z</time></trkpt><trkpt lat="43.4262766696641" lon="2.056871082272359"><ele>508.0</ele><time>2026-03-22T08:56:20Z</time></trkpt><trkpt lat="43.42626356221341" lon="2.0567337991365298"><ele>504.0</ele><time>2026-03-22T08:56:21Z</time></trkpt><trkpt lat="43.42621806091171" lon="2.056623232524138"><ele>500.0</ele><time>2026-03-22T08:56:22Z</time></trkpt><trkpt lat="43.426154078571834" lon="2.056553362395312"><ele>496.0</ele><time>2026-03-22T08:56:23Z</time></trkpt><trkpt lat="43.42605335681467" lon="2.056534348111207"><ele>496.0</ele><time>2026-03-22T08:56:25Z</time></trkpt><trkpt lat="43.42593414464869" lon="2.0566044203897356"><ele>496.0</ele><time>2026-03-22T08:56:27Z</time></trkpt><trkpt lat="43.425822820211394" lon="2.056695651861471"><ele>496.0</ele><time>2026-03-22T08:56:28Z</time></trkpt><trkpt lat="43.42569013740449" lon="2.0567910172260873"><ele>496.0</ele><time>2026-03-22T08:56:29Z</time></trkpt><trkpt lat="43.42554365794513" lon="2.056838043729677"><ele>496.33333333333337</ele><time>2026-03-22T08:56:30Z</time></trkpt><trkpt lat="43.425367864532255" lon="2.0569008204596626"><ele>496.66666666666663</ele><time>2026-03-22T08:56:31Z</time></trkpt><trkpt lat="43.425187664711075" lon="2.056939569951867"><ele>497.0</ele><time>2026-03-22T08:56:32Z</time></trkpt><trkpt lat="43.42502656515582" lon="2.0569447554588094"><ele>497.0</ele><time>2026-03-22T08:56:33Z</time></trkpt><trkpt lat="43.42487420514588" lon="2.0569447554616693"><ele>497.0</ele><time>2026-03-22T08:56:34Z</time></trkpt><trkpt lat="43.424715201237554" lon="2.0569474847086098"><ele>497.0</ele><time>2026-03-22T08:56:35Z</time></trkpt><trkpt lat="43.424562780708875" lon="2.0569754233303965"><ele>495.66666666666663</ele><time>2026-03-22T08:56:36Z</time></trkpt><trkpt lat="43.424408608384375" lon="2.0570339555759642"><ele>494.33333333333337</ele><time>2026-03-22T08:56:37Z</time></trkpt><trkpt lat="43.42424054857383" lon="2.057130681402986"><ele>493.0</ele><time>2026-03-22T08:56:38Z</time></trkpt><trkpt lat="43.42407027181546" lon="2.0572456358779134"><ele>493.0</ele><time>2026-03-22T08:56:39Z</time></trkpt><trkpt lat="43.42390433998825" lon="2.0573805279220143"><ele>493.0</ele><time>2026-03-22T08:56:40Z</time></trkpt><trkpt lat="43.42373869113699" lon="2.057520709308721"><ele>493.0</ele><time>2026-03-22T08:56:41Z</time></trkpt><trkpt lat="43.42357078346258" lon="2.0576590905930243"><ele>497.0</ele><time>2026-03-22T08:56:42Z</time></trkpt><trkpt lat="43.42341176483741" lon="2.0577872557087966"><ele>501.0</ele><time>2026-03-22T08:56:43Z</time></trkpt><trkpt lat="43.42326251921118" lon="2.0579066027151294"><ele>505.0</ele><time>2026-03-22T08:56:44Z</time></trkpt><trkpt lat="43.423129070703524" lon="2.0580365975790706"><ele>505.0</ele><time>2026-03-22T08:56:45Z</time></trkpt><trkpt lat="43.42298246696895" lon="2.0581289605215707"><ele>505.0</ele><time>2026-03-22T08:56:46Z</time></trkpt><trkpt lat="43.42285194115757" lon="2.0582622229285685"><ele>505.0</ele><time>2026-03-22T08:56:47Z</time></trkpt><trkpt lat="43.42271970867382" lon="2.058391318991346"><ele>507.33333333333337</ele><time>2026-03-22T08:56:48Z</time></trkpt><trkpt lat="43.422593952519115" lon="2.058536292210791"><ele>509.66666666666663</ele><time>2026-03-22T08:56:49Z</time></trkpt><trkpt lat="43.42246397443977" lon="2.058696816496363"><ele>512.0</ele><time>2026-03-22T08:56:50Z</time></trkpt><trkpt lat="43.42233874054702" lon="2.0588660772647835"><ele>512.0</ele><time>2026-03-22T08:56:51Z</time></trkpt><trkpt lat="43.42221447135479" lon="2.059045315241499"><ele>512.0</ele><time>2026-03-22T08:56:52Z</time></trkpt><trkpt lat="43.42208221467502" lon="2.0592104603864416"><ele>512.0</ele><time>2026-03-22T08:56:53Z</time></trkpt><trkpt lat="43.42194691802009" lon="2.0593405325029766"><ele>514.5</ele><time>2026-03-22T08:56:54Z</time></trkpt><trkpt lat="43.42182599714709" lon="2.0594527923682326"><ele>517.0</ele><time>2026-03-22T08:56:55Z</time></trkpt><trkpt lat="43.42169700037244" lon="2.059559854511984"><ele>519.5</ele><time>2026-03-22T08:56:56Z</time></trkpt><trkpt lat="43.42155822707304" lon="2.059644797832011"><ele>522.0</ele><time>2026-03-22T08:56:57Z</time></trkpt><trkpt lat="43.421405474962285" lon="2.059699506304161"><ele>524.0</ele><time>2026-03-22T08:56:58Z</time></trkpt><trkpt lat="43.421242968698074" lon="2.059706697840178"><ele>526.0</ele><time>2026-03-22T08:56:59Z</time></trkpt><trkpt lat="43.421091290402295" lon="2.0596826852722634"><ele>528.0</ele><time>2026-03-22T08:57:00Z</time></trkpt><trkpt lat="43.420945499396446" lon="2.0596627783401282"><ele>528.0</ele><time>2026-03-22T08:57:01Z</time></trkpt><trkpt lat="43.42078816743083" lon="2.059661311470636"><ele>528.0</ele><time>2026-03-22T08:57:02Z</time></trkpt><trkpt lat="43.42061811024908" lon="2.0596698222981003"><ele>528.0</ele><time>2026-03-22T08:57:03Z</time></trkpt><trkpt lat="43.42044823386546" lon="2.0597087778428387"><ele>531.0</ele><time>2026-03-22T08:57:04Z</time></trkpt><trkpt lat="43.42027666981473" lon="2.059757024949342"><ele>534.0</ele><time>2026-03-22T08:57:05Z</time></trkpt><trkpt lat="43.42012377709998" lon="2.059816672724055"><ele>537.0</ele><time>2026-03-22T08:57:06Z</time></trkpt><trkpt lat="43.41999125249191" lon="2.0598873475339214"><ele>537.6666666666666</ele><time>2026-03-22T08:57:07Z</time></trkpt><trkpt lat="43.41986331033155" lon="2.059966902448837"><ele>538.3333333333333</ele><time>2026-03-22T08:57:08Z</time></trkpt><trkpt lat="43.41973256520262" lon="2.0600767140607945"><ele>539.0</ele><time>2026-03-22T08:57:09Z</time></trkpt><trkpt lat="43.41961145438199" lon="2.060221709782317"><ele>541.3333333333333</ele><time>2026-03-22T08:57:10Z</time></trkpt><trkpt lat="43.419508720360206" lon="2.060385291960854"><ele>543.6666666666666</ele><time>2026-03-22T08:57:11Z</time></trkpt><trkpt lat="43.41942095175666" lon="2.0605723753642167"><ele>546.0</ele><time>2026-03-22T08:57:12Z</time></trkpt><trkpt lat="43.419348386789125" lon="2.060763597821787"><ele>545.25</ele><time>2026-03-22T08:57:13Z</time></trkpt><trkpt lat="43.41929447910529" lon="2.060943007424707"><ele>544.5</ele><time>2026-03-22T08:57:14Z</time></trkpt><trkpt lat="43.419236856264966" lon="2.0611063962605907"><ele>543.75</ele><time>2026-03-22T08:57:15Z</time></trkpt><trkpt lat="43.41916123794436" lon="2.061259957424563"><ele>543.0</ele><time>2026-03-22T08:57:16Z</time></trkpt><trkpt lat="43.4190550465088" lon="2.061396788337556"><ele>543.0</ele><time>2026-03-22T08:57:17Z</time></trkpt><trkpt lat="43.4189289532769" lon="2.0615007770534004"><ele>543.0</ele><time>2026-03-22T08:57:18Z</time></trkpt><trkpt lat="43.41877744633971" lon="2.0615693994721855"><ele>543.0</ele><time>2026-03-22T08:57:19Z</time></trkpt><trkpt lat="43.41862190348231" lon="2.0616173197794803"><ele>543.0</ele><time>2026-03-22T08:57:20Z</time></trkpt><trkpt lat="43.418495065139844" lon="2.0616517857001972"><ele>543.0</ele><time>2026-03-22T08:57:21Z</time></trkpt><trkpt lat="43.41836692703539" lon="2.0616651518461446"><ele>543.0</ele><time>2026-03-22T08:57:22Z</time></trkpt><trkpt lat="43.418221787767855" lon="2.061635379113015"><ele>543.0</ele><time>2026-03-22T08:57:23Z</time></trkpt><trkpt lat="43.41806698261072" lon="2.061568964494523"><ele>544.0</ele><time>2026-03-22T08:57:24Z</time></trkpt><trkpt lat="43.41790090029362" lon="2.061470495227699"><ele>545.0</ele><time>2026-03-22T08:57:25Z</time></trkpt><trkpt lat="43.417746941153815" lon="2.0613864382176934"><ele>546.0</ele><time>2026-03-22T08:57:26Z</time></trkpt><trkpt lat="43.417587049915106" lon="2.061335525152569"><ele>546.0</ele><time>2026-03-22T08:57:27Z</time></trkpt><trkpt lat="43.41739670672414" lon="2.061321901459808"><ele>546.0</ele><time>2026-03-22T08:57:28Z</time></trkpt><trkpt lat="43.41719979050684" lon="2.0613336614942783"><ele>546.0</ele><time>2026-03-22T08:57:29Z</time></trkpt><trkpt lat="43.417005357894155" lon="2.0613629957810695"><ele>546.6666666666666</ele><time>2026-03-22T08:57:30Z</time></trkpt><trkpt lat="43.416806914896696" lon="2.0613885029510395"><ele>547.3333333333333</ele><time>2026-03-22T08:57:31Z</time></trkpt><trkpt lat="43.41662280744275" lon="2.0614098388501274"><ele>548.0</ele><time>2026-03-22T08:57:32Z</time></trkpt><trkpt lat="43.41644574785657" lon="2.0614378277521825"><ele>551.3333333333333</ele><time>2026-03-22T08:57:33Z</time></trkpt><trkpt lat="43.416281408488366" lon="2.0614749544253748"><ele>554.6666666666666</ele><time>2026-03-22T08:57:34Z</time></trkpt><trkpt lat="43.416108529916436" lon="2.0615034370566114"><ele>558.0</ele><time>2026-03-22T08:57:35Z</time></trkpt><trkpt lat="43.4159396106235" lon="2.061525539747622"><ele>558.0</ele><time>2026-03-22T08:57:36Z</time></trkpt><trkpt lat="43.41579201109312" lon="2.0615506141131736"><ele>558.0</ele><time>2026-03-22T08:57:37Z</time></trkpt><trkpt lat="43.41565269205425" lon="2.0615697206349597"><ele>558.0</ele><time>2026-03-22T08:57:38Z</time></trkpt><trkpt lat="43.41553769318683" lon="2.0615916968947547"><ele>558.0</ele><time>2026-03-22T08:57:38.999Z</time></trkpt><trkpt lat="43.41543622369162" lon="2.061608869411759"><ele>558.0</ele><time>2026-03-22T08:57:39.999Z</time></trkpt><trkpt lat="43.41534440432858" lon="2.0616281862272823"><ele>558.0</ele><time>2026-03-22T08:57:40.999Z</time></trkpt><trkpt lat="43.415241184998195" lon="2.061677505087219"><ele>558.0</ele><time>2026-03-22T08:57:41.999Z</time></trkpt><trkpt lat="43.41513998847301" lon="2.0617862823334634"><ele>558.0</ele><time>2026-03-22T08:57:42.999Z</time></trkpt><trkpt lat="43.415031272531834" lon="2.0619409898078476"><ele>558.0</ele><time>2026-03-22T08:57:43.999Z</time></trkpt><trkpt lat="43.414926649157806" lon="2.062113384351253"><ele>558.0</ele><time>2026-03-22T08:57:44.999Z</time></trkpt><trkpt lat="43.41481241205416" lon="2.062283906592744"><ele>558.0</ele><time>2026-03-22T08:57:45.999Z</time></trkpt><trkpt lat="43.41469700852209" lon="2.0624428918570086"><ele>558.3333333333334</ele><time>2026-03-22T08:57:46.999Z</time></trkpt><trkpt lat="43.41456880049583" lon="2.0626002971750963"><ele>558.6666666666667</ele><time>2026-03-22T08:57:47.999Z</time></trkpt><trkpt lat="43.414438363804166" lon="2.062747275656439"><ele>559.0</ele><time>2026-03-22T08:57:48.999Z</time></trkpt><trkpt lat="43.41431089534355" lon="2.062900144700854"><ele>559.0</ele><time>2026-03-22T08:57:49.999Z</time></trkpt><trkpt lat="43.41419565980513" lon="2.0630756864465116"><ele>559.0</ele><time>2026-03-22T08:57:50.999Z</time></trkpt><trkpt lat="43.41409711580028" lon="2.063266345436107"><ele>559.0</ele><time>2026-03-22T08:57:51.999Z</time></trkpt><trkpt lat="43.41400388643336" lon="2.063474608225114"><ele>559.0</ele><time>2026-03-22T08:57:52.999Z</time></trkpt><trkpt lat="43.413921708679275" lon="2.0636856368042515"><ele>559.0</ele><time>2026-03-22T08:57:53.999Z</time></trkpt><trkpt lat="43.41385217425524" lon="2.0638752935710767"><ele>559.0</ele><time>2026-03-22T08:57:54.999Z</time></trkpt><trkpt lat="43.413772249906486" lon="2.0640548380560313"><ele>561.6666666666667</ele><time>2026-03-22T08:57:55.999Z</time></trkpt><trkpt lat="43.41367557567583" lon="2.0642128809634586"><ele>564.3333333333334</ele><time>2026-03-22T08:57:56.999Z</time></trkpt><trkpt lat="43.41353937926428" lon="2.064345451172919"><ele>567.0</ele><time>2026-03-22T08:57:57.999Z</time></trkpt><trkpt lat="43.41339702502303" lon="2.0644791694381706"><ele>567.0</ele><time>2026-03-22T08:57:58.999Z</time></trkpt><trkpt lat="43.41326248306776" lon="2.0646134554424846"><ele>567.0</ele><time>2026-03-22T08:57:59.999Z</time></trkpt><trkpt lat="43.41313458808127" lon="2.064768658453832"><ele>567.0</ele><time>2026-03-22T08:58:00.999Z</time></trkpt><trkpt lat="43.413023291939425" lon="2.0649512651155693"><ele>566.3333333333334</ele><time>2026-03-22T08:58:01.999Z</time></trkpt><trkpt lat="43.41292248881472" lon="2.0651461054150326"><ele>565.6666666666667</ele><time>2026-03-22T08:58:02.999Z</time></trkpt><trkpt lat="43.41284394069013" lon="2.065359451902798"><ele>565.0</ele><time>2026-03-22T08:58:03.999Z</time></trkpt><trkpt lat="43.412774158282716" lon="2.065590516815238"><ele>568.0</ele><time>2026-03-22T08:58:04.999Z</time></trkpt><trkpt lat="43.412720480613736" lon="2.0658287709264496"><ele>571.0</ele><time>2026-03-22T08:58:05.999Z</time></trkpt><trkpt lat="43.412662787677085" lon="2.0660653839273855"><ele>574.0</ele><time>2026-03-22T08:58:06.999Z</time></trkpt><trkpt lat="43.41260883478597" lon="2.0663008768715283"><ele>574.0</ele><time>2026-03-22T08:58:07.999Z</time></trkpt><trkpt lat="43.41255934188107" lon="2.06654246884057"><ele>574.0</ele><time>2026-03-22T08:58:08.999Z</time></trkpt><trkpt lat="43.41251665003636" lon="2.066783876106137"><ele>574.0</ele><time>2026-03-22T08:58:09.999Z</time></trkpt><trkpt lat="43.412477389799015" lon="2.0670267024106055"><ele>576.3333333333334</ele><time>2026-03-22T08:58:10.999Z</time></trkpt><trkpt lat="43.412447056961035" lon="2.0672491364840204"><ele>578.6666666666666</ele><time>2026-03-22T08:58:11.999Z</time></trkpt><trkpt lat="43.41241553930866" lon="2.0674545922589176"><ele>581.0</ele><time>2026-03-22T08:58:13Z</time></trkpt><trkpt lat="43.41239608431698" lon="2.067666053953558"><ele>583.5</ele><time>2026-03-22T08:58:14Z</time></trkpt><trkpt lat="43.41238544422902" lon="2.0678744593092624"><ele>586.0</ele><time>2026-03-22T08:58:15Z</time></trkpt><trkpt lat="43.412393957464964" lon="2.068079352644317"><ele>588.5</ele><time>2026-03-22T08:58:16Z</time></trkpt><trkpt lat="43.41241243996954" lon="2.068254777568903"><ele>591.0</ele><time>2026-03-22T08:58:17Z</time></trkpt><trkpt lat="43.412453724488074" lon="2.068411120349633"><ele>591.75</ele><time>2026-03-22T08:58:18Z</time></trkpt><trkpt lat="43.4125205479002" lon="2.0685634601526335"><ele>592.5</ele><time>2026-03-22T08:58:19Z</time></trkpt><trkpt lat="43.41260933775542" lon="2.0687061469954076"><ele>593.25</ele><time>2026-03-22T08:58:20Z</time></trkpt><trkpt lat="43.4127354044622" lon="2.068826909433443"><ele>594.0</ele><time>2026-03-22T08:58:21Z</time></trkpt><trkpt lat="43.412866637826966" lon="2.068941009020005"><ele>594.0</ele><time>2026-03-22T08:58:22Z</time></trkpt><trkpt lat="43.412981179643694" lon="2.0690392483652396"><ele>594.0</ele><time>2026-03-22T08:58:23Z</time></trkpt><trkpt lat="43.413097291803304" lon="2.069142536508985"><ele>594.0</ele><time>2026-03-22T08:58:24Z</time></trkpt><trkpt lat="43.41319477779335" lon="2.069226392253919"><ele>594.0</ele><time>2026-03-22T08:58:25Z</time></trkpt><trkpt lat="43.41328790236969" lon="2.0693222938760973"><ele>595.75</ele><time>2026-03-22T08:58:26Z</time></trkpt><trkpt lat="43.41336306709215" lon="2.0694031549551966"><ele>597.5</ele><time>2026-03-22T08:58:27Z</time></trkpt><trkpt lat="43.41342014200889" lon="2.069527476061448"><ele>599.25</ele><time>2026-03-22T08:58:28Z</time></trkpt><trkpt lat="43.413455677910456" lon="2.069685520346003"><ele>601.0</ele><time>2026-03-22T08:58:29Z</time></trkpt><trkpt lat="43.413452177546354" lon="2.0698613930614354"><ele>599.3333333333334</ele><time>2026-03-22T08:58:30Z</time></trkpt><trkpt lat="43.41341515221696" lon="2.0700438022744483"><ele>597.6666666666666</ele><time>2026-03-22T08:58:31Z</time></trkpt><trkpt lat="43.41335215667597" lon="2.07025190381185"><ele>596.0</ele><time>2026-03-22T08:58:32Z</time></trkpt><trkpt lat="43.41329164728657" lon="2.0704720966330994"><ele>596.0</ele><time>2026-03-22T08:58:33Z</time></trkpt><trkpt lat="43.41323207108849" lon="2.0706981732894234"><ele>596.0</ele><time>2026-03-22T08:58:34Z</time></trkpt><trkpt lat="43.413173456131695" lon="2.070929228227824"><ele>596.0</ele><time>2026-03-22T08:58:35Z</time></trkpt><trkpt lat="43.413121225557234" lon="2.071161782419163"><ele>596.3333333333333</ele><time>2026-03-22T08:58:36Z</time></trkpt><trkpt lat="43.413059145604926" lon="2.0713912241991346"><ele>596.6666666666666</ele><time>2026-03-22T08:58:37Z</time></trkpt><trkpt lat="43.412997752098526" lon="2.0716237364774184"><ele>597.0</ele><time>2026-03-22T08:58:38Z</time></trkpt><trkpt lat="43.41294251422299" lon="2.0718409142713394"><ele>597.0</ele><time>2026-03-22T08:58:39Z</time></trkpt><trkpt lat="43.412875063136916" lon="2.072045699567998"><ele>597.0</ele><time>2026-03-22T08:58:40Z</time></trkpt><trkpt lat="43.41278889383211" lon="2.0722482947440413"><ele>597.0</ele><time>2026-03-22T08:58:41Z</time></trkpt><trkpt lat="43.4126997964275" lon="2.0724312346809053"><ele>598.0</ele><time>2026-03-22T08:58:42Z</time></trkpt><trkpt lat="43.41261993486571" lon="2.0726294967743417"><ele>599.0</ele><time>2026-03-22T08:58:43Z</time></trkpt><trkpt lat="43.41254683879137" lon="2.072814410033688"><ele>600.0</ele><time>2026-03-22T08:58:44Z</time></trkpt><trkpt lat="43.412467304378566" lon="2.073005766342577"><ele>600.0</ele><time>2026-03-22T08:58:45Z</time></trkpt><trkpt lat="43.412397395202404" lon="2.073210030345866"><ele>600.0</ele><time>2026-03-22T08:58:46Z</time></trkpt><trkpt lat="43.41233196782812" lon="2.073422552034031"><ele>600.0</ele><time>2026-03-22T08:58:47Z</time></trkpt><trkpt lat="43.412269594701485" lon="2.073642712756133"><ele>600.0</ele><time>2026-03-22T08:58:48Z</time></trkpt><trkpt lat="43.41221265818029" lon="2.0738504876771553"><ele>600.0</ele><time>2026-03-22T08:58:49Z</time></trkpt><trkpt lat="43.4121706955202" lon="2.074045623063951"><ele>600.0</ele><time>2026-03-22T08:58:50Z</time></trkpt><trkpt lat="43.41213115085629" lon="2.0742320101529286"><ele>600.0</ele><time>2026-03-22T08:58:51Z</time></trkpt><trkpt lat="43.412103203195066" lon="2.07441860009562"><ele>600.0</ele><time>2026-03-22T08:58:52Z</time></trkpt><trkpt lat="43.4120828870718" lon="2.074582060668019"><ele>600.0</ele><time>2026-03-22T08:58:53Z</time></trkpt><trkpt lat="43.41206992312101" lon="2.074735696060755"><ele>600.0</ele><time>2026-03-22T08:58:54Z</time></trkpt><trkpt lat="43.41206497285639" lon="2.0748833501613753"><ele>601.0</ele><time>2026-03-22T08:58:55Z</time></trkpt><trkpt lat="43.412078742779805" lon="2.075019529871344"><ele>602.0</ele><time>2026-03-22T08:58:56Z</time></trkpt><trkpt lat="43.41209728852794" lon="2.0751573832299117"><ele>603.0</ele><time>2026-03-22T08:58:57Z</time></trkpt><trkpt lat="43.41212145322874" lon="2.0752822749954305"><ele>604.0</ele><time>2026-03-22T08:58:58Z</time></trkpt><trkpt lat="43.41214788498652" lon="2.075399585347886"><ele>605.0</ele><time>2026-03-22T08:58:59Z</time></trkpt><trkpt lat="43.41217309295226" lon="2.075519772070678"><ele>607.6666666666666</ele><time>2026-03-22T08:59:00Z</time></trkpt><trkpt lat="43.41220697362987" lon="2.0756315482126126"><ele>610.3333333333333</ele><time>2026-03-22T08:59:01Z</time></trkpt><trkpt lat="43.41223927559867" lon="2.07573575427946"><ele>613.0</ele><time>2026-03-22T08:59:02Z</time></trkpt><trkpt lat="43.41227499245826" lon="2.0758419159832813"><ele>615.6666666666666</ele><time>2026-03-22T08:59:03Z</time></trkpt><trkpt lat="43.412311355026354" lon="2.0759479468872484"><ele>618.3333333333334</ele><time>2026-03-22T08:59:04Z</time></trkpt><trkpt lat="43.412356203314836" lon="2.0760609142152036"><ele>621.0</ele><time>2026-03-22T08:59:05Z</time></trkpt><trkpt lat="43.41239490810016" lon="2.0761695486098355"><ele>621.0</ele><time>2026-03-22T08:59:06Z</time></trkpt><trkpt lat="43.41243070257989" lon="2.0762836455743128"><ele>621.0</ele><time>2026-03-22T08:59:07Z</time></trkpt><trkpt lat="43.41246511485199" lon="2.076398618387638"><ele>621.0</ele><time>2026-03-22T08:59:08Z</time></trkpt><trkpt lat="43.41249133098551" lon="2.0765145815476083"><ele>621.0</ele><time>2026-03-22T08:59:09Z</time></trkpt><trkpt lat="43.41250914706478" lon="2.076653076891537"><ele>621.0</ele><time>2026-03-22T08:59:10Z</time></trkpt><trkpt lat="43.41251986524463" lon="2.076794635370919"><ele>620.0</ele><time>2026-03-22T08:59:11Z</time></trkpt><trkpt lat="43.41250415175156" lon="2.076940214424548"><ele>619.0</ele><time>2026-03-22T08:59:12Z</time></trkpt><trkpt lat="43.41247632529731" lon="2.077051672026836"><ele>618.0</ele><time>2026-03-22T08:59:13Z</time></trkpt><trkpt lat="43.41246717718237" lon="2.0771513384914386"><ele>617.0</ele><time>2026-03-22T08:59:14Z</time></trkpt><trkpt lat="43.412440340525805" lon="2.0772406386546978"><ele>616.0</ele><time>2026-03-22T08:59:15Z</time></trkpt><trkpt lat="43.41243128419126" lon="2.0773421261302873"><ele>615.0</ele><time>2026-03-22T08:59:16Z</time></trkpt><trkpt lat="43.41241238203516" lon="2.077462281420304"><ele>614.8</ele><time>2026-03-22T08:59:17Z</time></trkpt><trkpt lat="43.41239189850996" lon="2.0776024118977965"><ele>614.6</ele><time>2026-03-22T08:59:18Z</time></trkpt><trkpt lat="43.41236761522117" lon="2.077732660004746"><ele>614.4</ele><time>2026-03-22T08:59:19Z</time></trkpt><trkpt lat="43.41233526430015" lon="2.077862854141164"><ele>614.2</ele><time>2026-03-22T08:59:20Z</time></trkpt><trkpt lat="43.412301640682344" lon="2.077981698483441"><ele>614.0</ele><time>2026-03-22T08:59:21Z</time></trkpt><trkpt lat="43.41225978432075" lon="2.0780951398821363"><ele>614.0</ele><time>2026-03-22T08:59:22Z</time></trkpt><trkpt lat="43.41221977804486" lon="2.0782077060186395"><ele>614.0</ele><time>2026-03-22T08:59:23Z</time></trkpt><trkpt lat="43.41216165327873" lon="2.0782905238275093"><ele>614.0</ele><time>2026-03-22T08:59:24Z</time></trkpt><trkpt lat="43.4121144072078" lon="2.078384476675825"><ele>614.0</ele><time>2026-03-22T08:59:25Z</time></trkpt><trkpt lat="43.41206305158944" lon="2.0784680335262045"><ele>614.0</ele><time>2026-03-22T08:59:26Z</time></trkpt><trkpt lat="43.411997024519735" lon="2.0785030960531774"><ele>614.0</ele><time>2026-03-22T08:59:27Z</time></trkpt><trkpt lat="43.41193961765614" lon="2.078554228564255"><ele>613.1666666666666</ele><time>2026-03-22T08:59:28Z</time></trkpt><trkpt lat="43.41188232161653" lon="2.0786052621477196"><ele>612.3333333333333</ele><time>2026-03-22T08:59:29Z</time></trkpt><trkpt lat="43.41182982982315" lon="2.0786748035745526"><ele>611.5</ele><time>2026-03-22T08:59:30Z</time></trkpt><trkpt lat="43.41175061874111" lon="2.0787191254301653"><ele>610.6666666666666</ele><time>2026-03-22T08:59:32Z</time></trkpt><trkpt lat="43.41169504660434" lon="2.078766273856989"><ele>609.8333333333334</ele><time>2026-03-22T08:59:34Z</time></trkpt><trkpt lat="43.41160607947072" lon="2.0788417554048984"><ele>609.0</ele><time>2026-03-22T08:59:37Z</time></trkpt><trkpt lat="43.41149745457418" lon="2.0789326065279368"><ele>609.0</ele><time>2026-03-22T08:59:39Z</time></trkpt><trkpt lat="43.41143624979512" lon="2.078982407294632"><ele>609.0</ele><time>2026-03-22T08:59:40Z</time></trkpt><trkpt lat="43.4113648611717" lon="2.0790395706375806"><ele>609.0</ele><time>2026-03-22T08:59:41Z</time></trkpt><trkpt lat="43.411288000598056" lon="2.079100957215036"><ele>609.0</ele><time>2026-03-22T08:59:42Z</time></trkpt><trkpt lat="43.41120699258279" lon="2.0791677437897067"><ele>609.0</ele><time>2026-03-22T08:59:43Z</time></trkpt><trkpt lat="43.41112616586064" lon="2.079234380768825"><ele>609.0</ele><time>2026-03-22T08:59:44Z</time></trkpt><trkpt lat="43.41104108638616" lon="2.079304523940592"><ele>609.5</ele><time>2026-03-22T08:59:45Z</time></trkpt><trkpt lat="43.41095561249145" lon="2.0793754379514207"><ele>610.0</ele><time>2026-03-22T08:59:46Z</time></trkpt><trkpt lat="43.410880456215324" lon="2.079438050690641"><ele>610.5</ele><time>2026-03-22T08:59:47Z</time></trkpt><trkpt lat="43.41081735947076" lon="2.079514708796744"><ele>611.0</ele><time>2026-03-22T08:59:48Z</time></trkpt><trkpt lat="43.41074262082067" lon="2.0795458027661597"><ele>611.5</ele><time>2026-03-22T08:59:49Z</time></trkpt><trkpt lat="43.41068274584052" lon="2.079586718877044"><ele>612.0</ele><time>2026-03-22T08:59:50Z</time></trkpt><trkpt lat="43.41062567753481" lon="2.0796281655542126"><ele>612.0</ele><time>2026-03-22T08:59:51Z</time></trkpt><trkpt lat="43.41053581815555" lon="2.0797474700946075"><ele>612.0</ele><time>2026-03-22T08:59:53Z</time></trkpt><trkpt lat="43.41046857440342" lon="2.0798212241749114"><ele>612.0</ele><time>2026-03-22T08:59:54Z</time></trkpt><trkpt lat="43.41039292506194" lon="2.0799043092226595"><ele>612.0</ele><time>2026-03-22T08:59:55Z</time></trkpt><trkpt lat="43.41030522961103" lon="2.079992811184652"><ele>612.0</ele><time>2026-03-22T08:59:56Z</time></trkpt><trkpt lat="43.41021412689509" lon="2.0800851953607764"><ele>612.5</ele><time>2026-03-22T08:59:57Z</time></trkpt><trkpt lat="43.410117789358345" lon="2.080174490856602"><ele>613.0</ele><time>2026-03-22T08:59:57.999Z</time></trkpt><trkpt lat="43.41001462229358" lon="2.0802540822824063"><ele>613.5</ele><time>2026-03-22T08:59:58.999Z</time></trkpt><trkpt lat="43.40992088687671" lon="2.0803363137014523"><ele>614.0</ele><time>2026-03-22T08:59:59.999Z</time></trkpt><trkpt lat="43.409834258447795" lon="2.080427759550038"><ele>614.0</ele><time>2026-03-22T09:00:00.999Z</time></trkpt><trkpt lat="43.40974245786256" lon="2.08052181210763"><ele>614.0</ele><time>2026-03-22T09:00:01.999Z</time></trkpt><trkpt lat="43.40964423675679" lon="2.0806101397525123"><ele>614.0</ele><time>2026-03-22T09:00:02.999Z</time></trkpt><trkpt lat="43.40954443654602" lon="2.0806999881741284"><ele>614.0</ele><time>2026-03-22T09:00:03.999Z</time></trkpt><trkpt lat="43.409445020408576" lon="2.0807979283698117"><ele>614.3333333333333</ele><time>2026-03-22T09:00:04.999Z</time></trkpt><trkpt lat="43.40935627408821" lon="2.0808886760982834"><ele>614.6666666666666</ele><time>2026-03-22T09:00:05.999Z</time></trkpt><trkpt lat="43.40927837116618" lon="2.0809661098104604"><ele>615.0</ele><time>2026-03-22T09:00:06.999Z</time></trkpt><trkpt lat="43.40921283878556" lon="2.081034542268529"><ele>615.3333333333334</ele><time>2026-03-22T09:00:07.999Z</time></trkpt><trkpt lat="43.40915436517168" lon="2.081092726769042"><ele>615.6666666666667</ele><time>2026-03-22T09:00:08.999Z</time></trkpt><trkpt lat="43.409098501840205" lon="2.081144090987761"><ele>616.0</ele><time>2026-03-22T09:00:09.999Z</time></trkpt><trkpt lat="43.40903294437804" lon="2.0812016978303567"><ele>616.0</ele><time>2026-03-22T09:00:10.999Z</time></trkpt><trkpt lat="43.408972557119306" lon="2.0812374521742116"><ele>616.0</ele><time>2026-03-22T09:00:11.999Z</time></trkpt><trkpt lat="43.40883124653225" lon="2.0812922321136953"><ele>616.0</ele><time>2026-03-22T09:00:13.999Z</time></trkpt><trkpt lat="43.40874457374939" lon="2.0813084846481815"><ele>616.0</ele><time>2026-03-22T09:00:14.999Z</time></trkpt><trkpt lat="43.40864885099568" lon="2.0813556508327693"><ele>616.0</ele><time>2026-03-22T09:00:15.999Z</time></trkpt><trkpt lat="43.40851972841936" lon="2.08134648402668"><ele>616.6666666666667</ele><time>2026-03-22T09:00:16.999Z</time></trkpt><trkpt lat="43.408369038128015" lon="2.0813083579065257"><ele>617.3333333333334</ele><time>2026-03-22T09:00:17.999Z</time></trkpt><trkpt lat="43.40820808540882" lon="2.081248174085414"><ele>618.0</ele><time>2026-03-22T09:00:19Z</time></trkpt><trkpt lat="43.408056652861625" lon="2.0812206597818723"><ele>619.75</ele><time>2026-03-22T09:00:20Z</time></trkpt><trkpt lat="43.40793072140461" lon="2.081204162528198"><ele>621.5</ele><time>2026-03-22T09:00:21Z</time></trkpt><trkpt lat="43.407809991341466" lon="2.0812075586897256"><ele>623.25</ele><time>2026-03-22T09:00:22Z</time></trkpt><trkpt lat="43.40768081218093" lon="2.0812399448856596"><ele>625.0</ele><time>2026-03-22T09:00:23Z</time></trkpt><trkpt lat="43.40756692865787" lon="2.081295300981348"><ele>625.0</ele><time>2026-03-22T09:00:24Z</time></trkpt><trkpt lat="43.40747220235076" lon="2.0813910703166814"><ele>625.0</ele><time>2026-03-22T09:00:25Z</time></trkpt><trkpt lat="43.4073751832051" lon="2.0815153753737934"><ele>625.0</ele><time>2026-03-22T09:00:26Z</time></trkpt><trkpt lat="43.40727534817897" lon="2.0816820666362137"><ele>625.0</ele><time>2026-03-22T09:00:27Z</time></trkpt><trkpt lat="43.40719652750704" lon="2.081892108750493"><ele>626.3333333333334</ele><time>2026-03-22T09:00:28Z</time></trkpt><trkpt lat="43.40708776326993" lon="2.082116440099976"><ele>627.6666666666666</ele><time>2026-03-22T09:00:29Z</time></trkpt><trkpt lat="43.407022487318784" lon="2.0823107711442184"><ele>629.0</ele><time>2026-03-22T09:00:30Z</time></trkpt><trkpt lat="43.40693997656738" lon="2.0824956559085694"><ele>631.0</ele><time>2026-03-22T09:00:31Z</time></trkpt><trkpt lat="43.406829006197796" lon="2.082672085440059"><ele>633.0</ele><time>2026-03-22T09:00:32Z</time></trkpt><trkpt lat="43.40674175929161" lon="2.0828602087754686"><ele>635.0</ele><time>2026-03-22T09:00:33Z</time></trkpt><trkpt lat="43.406653982614785" lon="2.0830483752634925"><ele>635.0</ele><time>2026-03-22T09:00:34Z</time></trkpt><trkpt lat="43.406568803786804" lon="2.083230972531643"><ele>635.0</ele><time>2026-03-22T09:00:35Z</time></trkpt><trkpt lat="43.40648367637256" lon="2.0834134606627956"><ele>635.0</ele><time>2026-03-22T09:00:36Z</time></trkpt><trkpt lat="43.406395245799125" lon="2.083608142456814"><ele>634.6666666666666</ele><time>2026-03-22T09:00:37Z</time></trkpt><trkpt lat="43.40630708418237" lon="2.083799301699981"><ele>634.3333333333334</ele><time>2026-03-22T09:00:38Z</time></trkpt><trkpt lat="43.4062151493757" lon="2.0839988855163445"><ele>634.0</ele><time>2026-03-22T09:00:39Z</time></trkpt><trkpt lat="43.40612089451832" lon="2.084206509321889"><ele>635.6666666666667</ele><time>2026-03-22T09:00:40Z</time></trkpt><trkpt lat="43.406021125540114" lon="2.0844212984465957"><ele>637.3333333333334</ele><time>2026-03-22T09:00:41Z</time></trkpt><trkpt lat="43.40593904490797" lon="2.084637488308708"><ele>639.0</ele><time>2026-03-22T09:00:42Z</time></trkpt><trkpt lat="43.40582689381843" lon="2.0848421109817217"><ele>639.6666666666666</ele><time>2026-03-22T09:00:43Z</time></trkpt><trkpt lat="43.405724949437946" lon="2.0850628903187998"><ele>640.3333333333333</ele><time>2026-03-22T09:00:44Z</time></trkpt><trkpt lat="43.40562494655823" lon="2.085274670495374"><ele>641.0</ele><time>2026-03-22T09:00:45Z</time></trkpt><trkpt lat="43.405535647448886" lon="2.085486659387622"><ele>641.3333333333333</ele><time>2026-03-22T09:00:46Z</time></trkpt><trkpt lat="43.405439165722846" lon="2.085682213882737"><ele>641.6666666666666</ele><time>2026-03-22T09:00:47Z</time></trkpt><trkpt lat="43.40534857779434" lon="2.0858864409349245"><ele>642.0</ele><time>2026-03-22T09:00:48Z</time></trkpt><trkpt lat="43.405236631990356" lon="2.0860897713102986"><ele>642.0</ele><time>2026-03-22T09:00:49Z</time></trkpt><trkpt lat="43.40512993007445" lon="2.0863103855421294"><ele>642.0</ele><time>2026-03-22T09:00:50Z</time></trkpt><trkpt lat="43.40501461311367" lon="2.0865357213149367"><ele>642.0</ele><time>2026-03-22T09:00:51Z</time></trkpt><trkpt lat="43.40489112356302" lon="2.0867620385998147"><ele>642.0</ele><time>2026-03-22T09:00:52Z</time></trkpt><trkpt lat="43.404760125721765" lon="2.086982936359752"><ele>642.0</ele><time>2026-03-22T09:00:53Z</time></trkpt><trkpt lat="43.40464190687527" lon="2.0871977115063602"><ele>642.0</ele><time>2026-03-22T09:00:54Z</time></trkpt><trkpt lat="43.404500723322606" lon="2.087396445331653"><ele>640.3333333333334</ele><time>2026-03-22T09:00:55Z</time></trkpt><trkpt lat="43.40435549035026" lon="2.0875820197297403"><ele>638.6666666666667</ele><time>2026-03-22T09:00:56Z</time></trkpt><trkpt lat="43.40419657383213" lon="2.0877506731984883"><ele>637.0</ele><time>2026-03-22T09:00:57Z</time></trkpt><trkpt lat="43.40404289701759" lon="2.0879212621930434"><ele>637.0</ele><time>2026-03-22T09:00:58Z</time></trkpt><trkpt lat="43.40389652345116" lon="2.0881024427373953"><ele>637.0</ele><time>2026-03-22T09:00:59Z</time></trkpt><trkpt lat="43.40376217014807" lon="2.088308542758652"><ele>637.0</ele><time>2026-03-22T09:01:00Z</time></trkpt><trkpt lat="43.40361548287032" lon="2.088487926423035"><ele>633.6666666666667</ele><time>2026-03-22T09:01:01Z</time></trkpt><trkpt lat="43.4034922874043" lon="2.08868130444579"><ele>630.3333333333334</ele><time>2026-03-22T09:01:02Z</time></trkpt><trkpt lat="43.403364696320374" lon="2.0888789459556247"><ele>627.0</ele><time>2026-03-22T09:01:03Z</time></trkpt><trkpt lat="43.403229569069055" lon="2.08908775532932"><ele>629.3333333333334</ele><time>2026-03-22T09:01:04Z</time></trkpt><trkpt lat="43.403099799763815" lon="2.089302049650556"><ele>631.6666666666667</ele><time>2026-03-22T09:01:05Z</time></trkpt><trkpt lat="43.40296740209772" lon="2.08952731734895"><ele>634.0</ele><time>2026-03-22T09:01:06Z</time></trkpt><trkpt lat="43.40285438432621" lon="2.08974606112918"><ele>631.6666666666667</ele><time>2026-03-22T09:01:07Z</time></trkpt><trkpt lat="43.40274788958946" lon="2.0899682855562793"><ele>629.3333333333334</ele><time>2026-03-22T09:01:08Z</time></trkpt><trkpt lat="43.40264207348137" lon="2.0902003086702137"><ele>627.0</ele><time>2026-03-22T09:01:09Z</time></trkpt><trkpt lat="43.40252692137622" lon="2.0904270933325964"><ele>627.0</ele><time>2026-03-22T09:01:10Z</time></trkpt><trkpt lat="43.40238769504184" lon="2.0906256593233654"><ele>627.0</ele><time>2026-03-22T09:01:11Z</time></trkpt><trkpt lat="43.402242319166454" lon="2.0908068119993963"><ele>627.0</ele><time>2026-03-22T09:01:12Z</time></trkpt><trkpt lat="43.40208800172531" lon="2.090990519335251"><ele>625.0</ele><time>2026-03-22T09:01:13Z</time></trkpt><trkpt lat="43.40196316814232" lon="2.091184101769939"><ele>623.0</ele><time>2026-03-22T09:01:14Z</time></trkpt><trkpt lat="43.401833547699944" lon="2.09136059529296"><ele>621.0</ele><time>2026-03-22T09:01:15Z</time></trkpt><trkpt lat="43.40170700227653" lon="2.091572159452067"><ele>623.6666666666666</ele><time>2026-03-22T09:01:16Z</time></trkpt><trkpt lat="43.40158158155977" lon="2.091808703446178"><ele>626.3333333333333</ele><time>2026-03-22T09:01:17Z</time></trkpt><trkpt lat="43.40147042817795" lon="2.0920259835392896"><ele>629.0</ele><time>2026-03-22T09:01:18Z</time></trkpt><trkpt lat="43.40135978215229" lon="2.092243003813338"><ele>625.6666666666666</ele><time>2026-03-22T09:01:19Z</time></trkpt><trkpt lat="43.4012526057545" lon="2.092449931012465"><ele>622.3333333333334</ele><time>2026-03-22T09:01:20Z</time></trkpt><trkpt lat="43.40112471593909" lon="2.092609897877602"><ele>619.0</ele><time>2026-03-22T09:01:21Z</time></trkpt><trkpt lat="43.40099957716681" lon="2.092753778097669"><ele>619.0</ele><time>2026-03-22T09:01:22Z</time></trkpt><trkpt lat="43.400871856167534" lon="2.0928349238180197"><ele>619.0</ele><time>2026-03-22T09:01:23Z</time></trkpt><trkpt lat="43.400714801276955" lon="2.092906582629061"><ele>619.0</ele><time>2026-03-22T09:01:24Z</time></trkpt><trkpt lat="43.400543507354364" lon="2.09294915543725"><ele>618.6666666666667</ele><time>2026-03-22T09:01:25Z</time></trkpt><trkpt lat="43.40038741431071" lon="2.092944858231962"><ele>618.3333333333334</ele><time>2026-03-22T09:01:26Z</time></trkpt><trkpt lat="43.40023754544108" lon="2.092907928359256"><ele>618.0</ele><time>2026-03-22T09:01:27Z</time></trkpt><trkpt lat="43.4000905983128" lon="2.092830343031178"><ele>618.0</ele><time>2026-03-22T09:01:28Z</time></trkpt><trkpt lat="43.39994271948368" lon="2.0927092203984765"><ele>618.0</ele><time>2026-03-22T09:01:29Z</time></trkpt><trkpt lat="43.39979485991212" lon="2.0925639937904137"><ele>618.0</ele><time>2026-03-22T09:01:30Z</time></trkpt><trkpt lat="43.3996400693923" lon="2.0924242554051737"><ele>618.3333333333334</ele><time>2026-03-22T09:01:31Z</time></trkpt><trkpt lat="43.399514773782315" lon="2.092290327427568"><ele>618.6666666666667</ele><time>2026-03-22T09:01:32Z</time></trkpt><trkpt lat="43.39937683396162" lon="2.0921568628587885"><ele>619.0</ele><time>2026-03-22T09:01:33Z</time></trkpt><trkpt lat="43.399239843087685" lon="2.0920252135771253"><ele>619.0</ele><time>2026-03-22T09:01:34Z</time></trkpt><trkpt lat="43.39910510687386" lon="2.091888130874635"><ele>619.0</ele><time>2026-03-22T09:01:35Z</time></trkpt><trkpt lat="43.39898302417845" lon="2.0917596328924306"><ele>619.0</ele><time>2026-03-22T09:01:36Z</time></trkpt><trkpt lat="43.39887554471706" lon="2.091652155515028"><ele>618.4</ele><time>2026-03-22T09:01:37Z</time></trkpt><trkpt lat="43.3987816756773" lon="2.091556841343519"><ele>617.8</ele><time>2026-03-22T09:01:38Z</time></trkpt><trkpt lat="43.39869909910255" lon="2.0914746378740428"><ele>617.2</ele><time>2026-03-22T09:01:39Z</time></trkpt><trkpt lat="43.39862130258541" lon="2.0914102745347436"><ele>616.6</ele><time>2026-03-22T09:01:40Z</time></trkpt><trkpt lat="43.398540350273166" lon="2.091375711806329"><ele>616.0</ele><time>2026-03-22T09:01:41Z</time></trkpt><trkpt lat="43.398447222810596" lon="2.0913626261143685"><ele>616.0</ele><time>2026-03-22T09:01:42Z</time></trkpt><trkpt lat="43.39835198482149" lon="2.0914021866402828"><ele>616.0</ele><time>2026-03-22T09:01:43Z</time></trkpt><trkpt lat="43.398271499947036" lon="2.0914897911232257"><ele>616.0</ele><time>2026-03-22T09:01:44Z</time></trkpt><trkpt lat="43.398206791781476" lon="2.0916226706060965"><ele>616.0</ele><time>2026-03-22T09:01:45Z</time></trkpt><trkpt lat="43.39814994255047" lon="2.091779463557293"><ele>616.0</ele><time>2026-03-22T09:01:46Z</time></trkpt><trkpt lat="43.398106699825746" lon="2.0919450356737253"><ele>616.75</ele><time>2026-03-22T09:01:47Z</time></trkpt><trkpt lat="43.398057446712514" lon="2.092110361196178"><ele>617.5</ele><time>2026-03-22T09:01:48Z</time></trkpt><trkpt lat="43.39800791001823" lon="2.0922695974707906"><ele>618.25</ele><time>2026-03-22T09:01:49Z</time></trkpt><trkpt lat="43.39796101171255" lon="2.092434468777952"><ele>619.0</ele><time>2026-03-22T09:01:50Z</time></trkpt><trkpt lat="43.3979522935955" lon="2.0925904434383233"><ele>619.0</ele><time>2026-03-22T09:01:51Z</time></trkpt><trkpt lat="43.397949201213954" lon="2.092770232960177"><ele>619.0</ele><time>2026-03-22T09:01:52Z</time></trkpt><trkpt lat="43.397989166313266" lon="2.092971774016611"><ele>619.0</ele><time>2026-03-22T09:01:53Z</time></trkpt><trkpt lat="43.39802414444696" lon="2.093154839572449"><ele>619.0</ele><time>2026-03-22T09:01:54Z</time></trkpt><trkpt lat="43.39805042922276" lon="2.093328076848938"><ele>619.25</ele><time>2026-03-22T09:01:55Z</time></trkpt><trkpt lat="43.3980667380695" lon="2.093501062061036"><ele>619.5</ele><time>2026-03-22T09:01:56Z</time></trkpt><trkpt lat="43.39805761025025" lon="2.093675760349507"><ele>619.75</ele><time>2026-03-22T09:01:57Z</time></trkpt><trkpt lat="43.39801648026858" lon="2.0938602005685425"><ele>620.0</ele><time>2026-03-22T09:01:58Z</time></trkpt><trkpt lat="43.39797208531134" lon="2.094048915178446"><ele>615.5</ele><time>2026-03-22T09:01:59Z</time></trkpt><trkpt lat="43.39790943549513" lon="2.0942188307681295"><ele>611.0</ele><time>2026-03-22T09:02:00Z</time></trkpt><trkpt lat="43.39783632770679" lon="2.094397567105316"><ele>606.5</ele><time>2026-03-22T09:02:00.999Z</time></trkpt><trkpt lat="43.397760082024085" lon="2.0945799199959314"><ele>602.0</ele><time>2026-03-22T09:02:01.999Z</time></trkpt><trkpt lat="43.397650098479865" lon="2.094707677047605"><ele>602.0</ele><time>2026-03-22T09:02:02.999Z</time></trkpt><trkpt lat="43.397541377912034" lon="2.094812002806175"><ele>602.0</ele><time>2026-03-22T09:02:03.999Z</time></trkpt><trkpt lat="43.3974196703769" lon="2.094895059604044"><ele>602.0</ele><time>2026-03-22T09:02:04.999Z</time></trkpt><trkpt lat="43.397283332395396" lon="2.0949723182189666"><ele>602.0</ele><time>2026-03-22T09:02:05.999Z</time></trkpt><trkpt lat="43.39714271817508" lon="2.095066608697256"><ele>602.3333333333333</ele><time>2026-03-22T09:02:06.999Z</time></trkpt><trkpt lat="43.39699963422111" lon="2.0951431371427383"><ele>602.6666666666666</ele><time>2026-03-22T09:02:07.999Z</time></trkpt><trkpt lat="43.39685514455034" lon="2.0952266550066123"><ele>603.0</ele><time>2026-03-22T09:02:08.999Z</time></trkpt><trkpt lat="43.39671135811833" lon="2.0953091675380704"><ele>603.0</ele><time>2026-03-22T09:02:09.999Z</time></trkpt><trkpt lat="43.39656416932251" lon="2.095370382730488"><ele>603.0</ele><time>2026-03-22T09:02:10.999Z</time></trkpt><trkpt lat="43.39644749176712" lon="2.095457788656616"><ele>603.0</ele><time>2026-03-22T09:02:11.999Z</time></trkpt><trkpt lat="43.39634066484674" lon="2.095549829873618"><ele>603.0</ele><time>2026-03-22T09:02:12.999Z</time></trkpt><trkpt lat="43.396256724796665" lon="2.0956459532723657"><ele>606.0</ele><time>2026-03-22T09:02:13.999Z</time></trkpt><trkpt lat="43.39617235705482" lon="2.0958060334452924"><ele>609.0</ele><time>2026-03-22T09:02:14.999Z</time></trkpt><trkpt lat="43.39611278822887" lon="2.09599999127336"><ele>612.0</ele><time>2026-03-22T09:02:15.999Z</time></trkpt><trkpt lat="43.39605230911986" lon="2.0962272872728067"><ele>612.0</ele><time>2026-03-22T09:02:16.999Z</time></trkpt><trkpt lat="43.39602292084742" lon="2.0964364145210115"><ele>612.0</ele><time>2026-03-22T09:02:17.999Z</time></trkpt><trkpt lat="43.39599880604999" lon="2.09663579367246"><ele>612.0</ele><time>2026-03-22T09:02:18.999Z</time></trkpt><trkpt lat="43.39597349494235" lon="2.096840738171346"><ele>613.5</ele><time>2026-03-22T09:02:19.999Z</time></trkpt><trkpt lat="43.39594986245387" lon="2.0970401271961157"><ele>615.0</ele><time>2026-03-22T09:02:20.999Z</time></trkpt><trkpt lat="43.395926991274905" lon="2.097229900125904"><ele>616.5</ele><time>2026-03-22T09:02:21.999Z</time></trkpt><trkpt lat="43.39590681095618" lon="2.097432626958184"><ele>618.0</ele><time>2026-03-22T09:02:22.999Z</time></trkpt><trkpt lat="43.39588909832592" lon="2.097629879479396"><ele>619.0</ele><time>2026-03-22T09:02:23.999Z</time></trkpt><trkpt lat="43.39587813681091" lon="2.0978363556922215"><ele>620.0</ele><time>2026-03-22T09:02:25Z</time></trkpt><trkpt lat="43.39586213202966" lon="2.09804845706171"><ele>621.0</ele><time>2026-03-22T09:02:26Z</time></trkpt><trkpt lat="43.39583587211181" lon="2.0982776239270744"><ele>621.3333333333334</ele><time>2026-03-22T09:02:27Z</time></trkpt><trkpt lat="43.39581794037808" lon="2.0985068425388773"><ele>621.6666666666667</ele><time>2026-03-22T09:02:28Z</time></trkpt><trkpt lat="43.3958067594389" lon="2.098722567400005"><ele>622.0</ele><time>2026-03-22T09:02:29Z</time></trkpt><trkpt lat="43.39579533289716" lon="2.098941061000831"><ele>621.6666666666667</ele><time>2026-03-22T09:02:30Z</time></trkpt><trkpt lat="43.3957761095337" lon="2.0991668009636526"><ele>621.3333333333334</ele><time>2026-03-22T09:02:31Z</time></trkpt><trkpt lat="43.39576084116816" lon="2.099407103502225"><ele>621.0</ele><time>2026-03-22T09:02:32Z</time></trkpt><trkpt lat="43.395748467190536" lon="2.0996474279942148"><ele>621.0</ele><time>2026-03-22T09:02:33Z</time></trkpt><trkpt lat="43.395745570844404" lon="2.0998658795127954"><ele>621.0</ele><time>2026-03-22T09:02:34Z</time></trkpt><trkpt lat="43.395750608489045" lon="2.100085680164415"><ele>621.0</ele><time>2026-03-22T09:02:35Z</time></trkpt><trkpt lat="43.39575048699052" lon="2.1003105798548685"><ele>621.6666666666666</ele><time>2026-03-22T09:02:36Z</time></trkpt><trkpt lat="43.395714487298676" lon="2.100538246287485"><ele>622.3333333333333</ele><time>2026-03-22T09:02:37Z</time></trkpt><trkpt lat="43.395679178107315" lon="2.100765823093075"><ele>623.0</ele><time>2026-03-22T09:02:38Z</time></trkpt><trkpt lat="43.39564255496084" lon="2.1009929835275845"><ele>623.0</ele><time>2026-03-22T09:02:39Z</time></trkpt><trkpt lat="43.3956049499715" lon="2.1012218252732984"><ele>623.0</ele><time>2026-03-22T09:02:40Z</time></trkpt><trkpt lat="43.395565183024566" lon="2.101463823455306"><ele>623.0</ele><time>2026-03-22T09:02:41Z</time></trkpt><trkpt lat="43.3955264642659" lon="2.101699442919026"><ele>626.3333333333333</ele><time>2026-03-22T09:02:42Z</time></trkpt><trkpt lat="43.39549016935575" lon="2.1019203677801888"><ele>629.6666666666666</ele><time>2026-03-22T09:02:43Z</time></trkpt><trkpt lat="43.39545403473572" lon="2.102141101794613"><ele>633.0</ele><time>2026-03-22T09:02:44Z</time></trkpt><trkpt lat="43.395418453376635" lon="2.1023584561799464"><ele>632.0</ele><time>2026-03-22T09:02:45Z</time></trkpt><trkpt lat="43.39538409724271" lon="2.1025683261124706"><ele>631.0</ele><time>2026-03-22T09:02:46Z</time></trkpt><trkpt lat="43.39534767733747" lon="2.1027908028163926"><ele>630.0</ele><time>2026-03-22T09:02:47Z</time></trkpt><trkpt lat="43.39531333938673" lon="2.1030005616525376"><ele>630.0</ele><time>2026-03-22T09:02:48Z</time></trkpt><trkpt lat="43.39529229363293" lon="2.1032108536140455"><ele>630.0</ele><time>2026-03-22T09:02:49Z</time></trkpt><trkpt lat="43.39525682130173" lon="2.103392540622039"><ele>630.0</ele><time>2026-03-22T09:02:50Z</time></trkpt><trkpt lat="43.395229262201624" lon="2.1035500860528376"><ele>630.0</ele><time>2026-03-22T09:02:51Z</time></trkpt><trkpt lat="43.39519630697518" lon="2.103725981040615"><ele>630.0</ele><time>2026-03-22T09:02:52Z</time></trkpt><trkpt lat="43.395160083281496" lon="2.103938169283013"><ele>630.0</ele><time>2026-03-22T09:02:53Z</time></trkpt><trkpt lat="43.395094795453815" lon="2.1041561391958448"><ele>630.0</ele><time>2026-03-22T09:02:54Z</time></trkpt><trkpt lat="43.39501844979022" lon="2.1043516815432124"><ele>630.0</ele><time>2026-03-22T09:02:55Z</time></trkpt><trkpt lat="43.394946630385476" lon="2.104557021603679"><ele>630.0</ele><time>2026-03-22T09:02:56Z</time></trkpt><trkpt lat="43.39486668716025" lon="2.1047791812015175"><ele>630.0</ele><time>2026-03-22T09:02:57Z</time></trkpt><trkpt lat="43.3947879350579" lon="2.105012661637462"><ele>629.0</ele><time>2026-03-22T09:02:58Z</time></trkpt><trkpt lat="43.394703869719876" lon="2.1052464367949377"><ele>628.0</ele><time>2026-03-22T09:02:59Z</time></trkpt><trkpt lat="43.3946323562927" lon="2.105491041474626"><ele>627.0</ele><time>2026-03-22T09:03:00Z</time></trkpt><trkpt lat="43.39453236336104" lon="2.1057162720201434"><ele>628.0</ele><time>2026-03-22T09:03:01Z</time></trkpt><trkpt lat="43.39445375986429" lon="2.1059586017046366"><ele>629.0</ele><time>2026-03-22T09:03:02Z</time></trkpt><trkpt lat="43.394354754664036" lon="2.1061778721507514"><ele>630.0</ele><time>2026-03-22T09:03:03Z</time></trkpt><trkpt lat="43.394256364603564" lon="2.1063807163658534"><ele>630.0</ele><time>2026-03-22T09:03:04Z</time></trkpt><trkpt lat="43.39416878908678" lon="2.106568887842787"><ele>630.0</ele><time>2026-03-22T09:03:05Z</time></trkpt><trkpt lat="43.39408334772961" lon="2.106749612372038"><ele>630.0</ele><time>2026-03-22T09:03:06Z</time></trkpt><trkpt lat="43.39398581862356" lon="2.106921410153136"><ele>630.3333333333334</ele><time>2026-03-22T09:03:07Z</time></trkpt><trkpt lat="43.39389675221644" lon="2.107093689184059"><ele>630.6666666666667</ele><time>2026-03-22T09:03:08Z</time></trkpt><trkpt lat="43.39381261859471" lon="2.107281715125807"><ele>631.0</ele><time>2026-03-22T09:03:09Z</time></trkpt><trkpt lat="43.393713431531" lon="2.107449704295599"><ele>628.6666666666667</ele><time>2026-03-22T09:03:10Z</time></trkpt><trkpt lat="43.3936223084192" lon="2.1076290876143067"><ele>626.3333333333334</ele><time>2026-03-22T09:03:11Z</time></trkpt><trkpt lat="43.393527078160766" lon="2.107804614511355"><ele>624.0</ele><time>2026-03-22T09:03:12Z</time></trkpt><trkpt lat="43.39342535943521" lon="2.1079793343716853"><ele>624.0</ele><time>2026-03-22T09:03:13Z</time></trkpt><trkpt lat="43.39330534980634" lon="2.1081538402070583"><ele>624.0</ele><time>2026-03-22T09:03:14Z</time></trkpt><trkpt lat="43.39317299494" lon="2.1083368324675"><ele>624.0</ele><time>2026-03-22T09:03:15Z</time></trkpt><trkpt lat="43.393030767954556" lon="2.1085178985340884"><ele>623.6666666666666</ele><time>2026-03-22T09:03:16Z</time></trkpt><trkpt lat="43.39287701514144" lon="2.1086962696756504"><ele>623.3333333333333</ele><time>2026-03-22T09:03:17Z</time></trkpt><trkpt lat="43.39272109228236" lon="2.1088641646478528"><ele>623.0</ele><time>2026-03-22T09:03:18Z</time></trkpt><trkpt lat="43.392593440409826" lon="2.1090400299078795"><ele>625.6666666666666</ele><time>2026-03-22T09:03:19Z</time></trkpt><trkpt lat="43.39246804506092" lon="2.1091967682829678"><ele>628.3333333333334</ele><time>2026-03-22T09:03:20Z</time></trkpt><trkpt lat="43.392361569170816" lon="2.1093552104042383"><ele>631.0</ele><time>2026-03-22T09:03:21Z</time></trkpt><trkpt lat="43.392277885884724" lon="2.10952985936538"><ele>631.0</ele><time>2026-03-22T09:03:22Z</time></trkpt><trkpt lat="43.39219919458291" lon="2.1097142056876947"><ele>631.0</ele><time>2026-03-22T09:03:23Z</time></trkpt><trkpt lat="43.39215311625103" lon="2.1099008013024267"><ele>631.0</ele><time>2026-03-22T09:03:24Z</time></trkpt><trkpt lat="43.39212318938779" lon="2.1100751728649874"><ele>631.0</ele><time>2026-03-22T09:03:25Z</time></trkpt><trkpt lat="43.39213368824435" lon="2.1102712260088343"><ele>633.6666666666667</ele><time>2026-03-22T09:03:26Z</time></trkpt><trkpt lat="43.392178369223075" lon="2.110488560547645"><ele>636.3333333333334</ele><time>2026-03-22T09:03:27Z</time></trkpt><trkpt lat="43.392260669072066" lon="2.110726716831618"><ele>639.0</ele><time>2026-03-22T09:03:28Z</time></trkpt><trkpt lat="43.392336018892856" lon="2.110961905437593"><ele>640.0</ele><time>2026-03-22T09:03:29Z</time></trkpt><trkpt lat="43.39239223256456" lon="2.1111500234172906"><ele>641.0</ele><time>2026-03-22T09:03:30Z</time></trkpt><trkpt lat="43.39242658660248" lon="2.1115037543601582"><ele>642.0</ele><time>2026-03-22T09:03:31Z</time></trkpt><trkpt lat="43.3924410056998" lon="2.111859406949789"><ele>642.3333333333334</ele><time>2026-03-22T09:03:32Z</time></trkpt><trkpt lat="43.392462800224635" lon="2.112138239390456"><ele>642.6666666666667</ele><time>2026-03-22T09:03:33Z</time></trkpt><trkpt lat="43.39246121405132" lon="2.112400018680094"><ele>643.0</ele><time>2026-03-22T09:03:34Z</time></trkpt><trkpt lat="43.392472741114126" lon="2.112665409004297"><ele>643.6666666666667</ele><time>2026-03-22T09:03:35Z</time></trkpt><trkpt lat="43.392491706227496" lon="2.112931488667921"><ele>644.3333333333334</ele><time>2026-03-22T09:03:36Z</time></trkpt><trkpt lat="43.39250397253611" lon="2.1131884018779235"><ele>645.0</ele><time>2026-03-22T09:03:37Z</time></trkpt><trkpt lat="43.392519043228155" lon="2.1134158083864016"><ele>645.3333333333334</ele><time>2026-03-22T09:03:38Z</time></trkpt><trkpt lat="43.392532121419585" lon="2.1136370901500503"><ele>645.6666666666667</ele><time>2026-03-22T09:03:39Z</time></trkpt><trkpt lat="43.39254596363287" lon="2.113869264920231"><ele>646.0</ele><time>2026-03-22T09:03:40Z</time></trkpt><trkpt lat="43.39256295466402" lon="2.1141010613686264"><ele>646.3333333333334</ele><time>2026-03-22T09:03:41Z</time></trkpt><trkpt lat="43.39258013764802" lon="2.114328612251276"><ele>646.6666666666666</ele><time>2026-03-22T09:03:42Z</time></trkpt><trkpt lat="43.392605790462355" lon="2.1145513525470103"><ele>647.0</ele><time>2026-03-22T09:03:43Z</time></trkpt><trkpt lat="43.39263738955918" lon="2.114757159694213"><ele>647.0</ele><time>2026-03-22T09:03:44Z</time></trkpt><trkpt lat="43.39268188446801" lon="2.1149433115487706"><ele>647.0</ele><time>2026-03-22T09:03:45Z</time></trkpt><trkpt lat="43.39274111689275" lon="2.1151315244543505"><ele>647.0</ele><time>2026-03-22T09:03:46Z</time></trkpt><trkpt lat="43.392814475627155" lon="2.1152965915825916"><ele>647.0</ele><time>2026-03-22T09:03:47Z</time></trkpt><trkpt lat="43.39290755128406" lon="2.115448867615845"><ele>650.3333333333333</ele><time>2026-03-22T09:03:48Z</time></trkpt><trkpt lat="43.393017463170416" lon="2.11560417645041"><ele>653.6666666666666</ele><time>2026-03-22T09:03:49Z</time></trkpt><trkpt lat="43.39317735497448" lon="2.115776321275726"><ele>657.0</ele><time>2026-03-22T09:03:50Z</time></trkpt><trkpt lat="43.393336858976326" lon="2.115983174071127"><ele>657.0</ele><time>2026-03-22T09:03:51Z</time></trkpt><trkpt lat="43.39351181274528" lon="2.116185731756811"><ele>657.0</ele><time>2026-03-22T09:03:52Z</time></trkpt><trkpt lat="43.39367778425416" lon="2.1163671408325433"><ele>657.0</ele><time>2026-03-22T09:03:53Z</time></trkpt><trkpt lat="43.39385283914616" lon="2.116542614633081"><ele>659.0</ele><time>2026-03-22T09:03:54Z</time></trkpt><trkpt lat="43.39399344514395" lon="2.1166741019758626"><ele>661.0</ele><time>2026-03-22T09:03:55Z</time></trkpt><trkpt lat="43.394133670082354" lon="2.116805076455619"><ele>663.0</ele><time>2026-03-22T09:03:56Z</time></trkpt><trkpt lat="43.39425505925517" lon="2.1169177526030616"><ele>663.0</ele><time>2026-03-22T09:03:57Z</time></trkpt><trkpt lat="43.39437752449474" lon="2.11702662958545"><ele>663.0</ele><time>2026-03-22T09:03:58Z</time></trkpt><trkpt lat="43.394487849893274" lon="2.117149778243636"><ele>663.0</ele><time>2026-03-22T09:03:59Z</time></trkpt><trkpt lat="43.39458150592473" lon="2.117290299652994"><ele>663.0</ele><time>2026-03-22T09:03:59.999Z</time></trkpt><trkpt lat="43.39467333305693" lon="2.1174521290370727"><ele>664.25</ele><time>2026-03-22T09:04:00.999Z</time></trkpt><trkpt lat="43.39470001037794" lon="2.1176400077992845"><ele>665.5</ele><time>2026-03-22T09:04:01.999Z</time></trkpt><trkpt lat="43.39472234534727" lon="2.117827691859963"><ele>666.75</ele><time>2026-03-22T09:04:02.999Z</time></trkpt><trkpt lat="43.39473449593282" lon="2.118018470683485"><ele>668.0</ele><time>2026-03-22T09:04:03.999Z</time></trkpt><trkpt lat="43.39471338561713" lon="2.1182283635398385"><ele>668.0</ele><time>2026-03-22T09:04:04.999Z</time></trkpt><trkpt lat="43.394675219905565" lon="2.11843917877734"><ele>668.0</ele><time>2026-03-22T09:04:05.999Z</time></trkpt><trkpt lat="43.3946185387917" lon="2.1186353983038115"><ele>668.0</ele><time>2026-03-22T09:04:06.999Z</time></trkpt><trkpt lat="43.39453946366133" lon="2.11881219849038"><ele>666.75</ele><time>2026-03-22T09:04:07.999Z</time></trkpt><trkpt lat="43.39444510386116" lon="2.118957182507545"><ele>665.5</ele><time>2026-03-22T09:04:08.999Z</time></trkpt><trkpt lat="43.394334813820514" lon="2.119064298563462"><ele>664.25</ele><time>2026-03-22T09:04:09.999Z</time></trkpt><trkpt lat="43.39420767394411" lon="2.1191300690670514"><ele>663.0</ele><time>2026-03-22T09:04:10.999Z</time></trkpt><trkpt lat="43.39406066820882" lon="2.119123268650663"><ele>663.0</ele><time>2026-03-22T09:04:11.999Z</time></trkpt><trkpt lat="43.39392735469163" lon="2.1191036663507394"><ele>663.0</ele><time>2026-03-22T09:04:12.999Z</time></trkpt><trkpt lat="43.393802167767205" lon="2.119077143576332"><ele>663.0</ele><time>2026-03-22T09:04:13.999Z</time></trkpt><trkpt lat="43.39365224273398" lon="2.119020985669408"><ele>663.0</ele><time>2026-03-22T09:04:14.999Z</time></trkpt><trkpt lat="43.39352353208799" lon="2.118974281163368"><ele>661.0</ele><time>2026-03-22T09:04:15.999Z</time></trkpt><trkpt lat="43.393372060428206" lon="2.118955388863604"><ele>659.0</ele><time>2026-03-22T09:04:16.999Z</time></trkpt><trkpt lat="43.39323046371808" lon="2.118929514640944"><ele>657.0</ele><time>2026-03-22T09:04:17.999Z</time></trkpt><trkpt lat="43.393101932711765" lon="2.1189486016307635"><ele>655.0</ele><time>2026-03-22T09:04:18.999Z</time></trkpt><trkpt lat="43.392990455359936" lon="2.119006976884672"><ele>655.0</ele><time>2026-03-22T09:04:19.999Z</time></trkpt><trkpt lat="43.39290258612741" lon="2.1191042701309857"><ele>655.0</ele><time>2026-03-22T09:04:20.999Z</time></trkpt><trkpt lat="43.39282349357418" lon="2.1192367551400166"><ele>655.0</ele><time>2026-03-22T09:04:21.999Z</time></trkpt><trkpt lat="43.39277481454688" lon="2.119386291220492"><ele>655.0</ele><time>2026-03-22T09:04:22.999Z</time></trkpt><trkpt lat="43.392728464294045" lon="2.1195788314976665"><ele>655.0</ele><time>2026-03-22T09:04:23.999Z</time></trkpt><trkpt lat="43.392703726125276" lon="2.119814244286577"><ele>655.0</ele><time>2026-03-22T09:04:24.999Z</time></trkpt><trkpt lat="43.39269084245311" lon="2.120040661398008"><ele>655.0</ele><time>2026-03-22T09:04:25.999Z</time></trkpt><trkpt lat="43.392693363304346" lon="2.120259364040387"><ele>654.3333333333334</ele><time>2026-03-22T09:04:26.999Z</time></trkpt><trkpt lat="43.39270882304648" lon="2.120479587062553"><ele>653.6666666666666</ele><time>2026-03-22T09:04:27.999Z</time></trkpt><trkpt lat="43.39274549117561" lon="2.12076451268706"><ele>653.0</ele><time>2026-03-22T09:04:28.999Z</time></trkpt><trkpt lat="43.39279447992657" lon="2.1210213036188055"><ele>652.0</ele><time>2026-03-22T09:04:29.999Z</time></trkpt><trkpt lat="43.39284350631641" lon="2.1212350631763566"><ele>651.0</ele><time>2026-03-22T09:04:31Z</time></trkpt><trkpt lat="43.392920855362554" lon="2.121442064458984"><ele>650.0</ele><time>2026-03-22T09:04:32Z</time></trkpt><trkpt lat="43.39301652531651" lon="2.1216383866988764"><ele>651.5</ele><time>2026-03-22T09:04:33Z</time></trkpt><trkpt lat="43.39312162391372" lon="2.121817315375602"><ele>653.0</ele><time>2026-03-22T09:04:34Z</time></trkpt><trkpt lat="43.39322842552545" lon="2.121954556512611"><ele>654.5</ele><time>2026-03-22T09:04:35Z</time></trkpt><trkpt lat="43.39333336831796" lon="2.1220682578761503"><ele>656.0</ele><time>2026-03-22T09:04:36Z</time></trkpt><trkpt lat="43.39343771852518" lon="2.122159251325868"><ele>656.0</ele><time>2026-03-22T09:04:37Z</time></trkpt><trkpt lat="43.393543620697415" lon="2.1222403692917053"><ele>656.0</ele><time>2026-03-22T09:04:38Z</time></trkpt><trkpt lat="43.39363810777126" lon="2.122312441401973"><ele>656.0</ele><time>2026-03-22T09:04:39Z</time></trkpt><trkpt lat="43.39373325688221" lon="2.1223899287411734"><ele>656.0</ele><time>2026-03-22T09:04:40Z</time></trkpt><trkpt lat="43.39382980910603" lon="2.122507484193363"><ele>657.0</ele><time>2026-03-22T09:04:41Z</time></trkpt><trkpt lat="43.39390932080763" lon="2.1226611750432145"><ele>658.0</ele><time>2026-03-22T09:04:42Z</time></trkpt><trkpt lat="43.39396072903964" lon="2.1228602454634595"><ele>659.0</ele><time>2026-03-22T09:04:43Z</time></trkpt><trkpt lat="43.39399528226089" lon="2.1230825024334856"><ele>657.3333333333333</ele><time>2026-03-22T09:04:44Z</time></trkpt><trkpt lat="43.39400088295321" lon="2.1233126965996325"><ele>655.6666666666666</ele><time>2026-03-22T09:04:45Z</time></trkpt><trkpt lat="43.39401603475646" lon="2.123503777353536"><ele>654.0</ele><time>2026-03-22T09:04:46Z</time></trkpt><trkpt lat="43.39407173812776" lon="2.1237058315226323"><ele>654.0</ele><time>2026-03-22T09:04:47Z</time></trkpt><trkpt lat="43.394140013594914" lon="2.1239448139897132"><ele>654.0</ele><time>2026-03-22T09:04:48Z</time></trkpt><trkpt lat="43.394246366203696" lon="2.124153020030766"><ele>654.0</ele><time>2026-03-22T09:04:49Z</time></trkpt><trkpt lat="43.39438424918748" lon="2.1243494375255336"><ele>652.6666666666666</ele><time>2026-03-22T09:04:50Z</time></trkpt><trkpt lat="43.39448597840719" lon="2.124521774240937"><ele>651.3333333333333</ele><time>2026-03-22T09:04:51Z</time></trkpt><trkpt lat="43.39458772766755" lon="2.1246813211421105"><ele>650.0</ele><time>2026-03-22T09:04:52Z</time></trkpt><trkpt lat="43.394661825816165" lon="2.1248407821367072"><ele>648.0</ele><time>2026-03-22T09:04:53Z</time></trkpt><trkpt lat="43.394709591055204" lon="2.125011496619094"><ele>646.0</ele><time>2026-03-22T09:04:54Z</time></trkpt><trkpt lat="43.39472485978414" lon="2.1252286301070127"><ele>644.0</ele><time>2026-03-22T09:04:55Z</time></trkpt><trkpt lat="43.394706936806415" lon="2.1254349983528775"><ele>642.0</ele><time>2026-03-22T09:04:56Z</time></trkpt><trkpt lat="43.39465888732664" lon="2.1256240593757028"><ele>641.0</ele><time>2026-03-22T09:04:57Z</time></trkpt><trkpt lat="43.394594097526166" lon="2.125798690394082"><ele>640.0</ele><time>2026-03-22T09:04:58Z</time></trkpt><trkpt lat="43.39450631508133" lon="2.1259636853089647"><ele>639.0</ele><time>2026-03-22T09:04:59Z</time></trkpt><trkpt lat="43.3943949890308" lon="2.1261002772774815"><ele>638.0</ele><time>2026-03-22T09:05:00Z</time></trkpt><trkpt lat="43.39426939576932" lon="2.1262110444106077"><ele>638.0</ele><time>2026-03-22T09:05:01Z</time></trkpt><trkpt lat="43.39413884152363" lon="2.1263266245244736"><ele>638.0</ele><time>2026-03-22T09:05:02Z</time></trkpt><trkpt lat="43.39402232330938" lon="2.126471346847379"><ele>638.0</ele><time>2026-03-22T09:05:03Z</time></trkpt><trkpt lat="43.39391360690447" lon="2.1266567297357755"><ele>637.3333333333333</ele><time>2026-03-22T09:05:04Z</time></trkpt><trkpt lat="43.393819431248566" lon="2.1268688048965756"><ele>636.6666666666666</ele><time>2026-03-22T09:05:05Z</time></trkpt><trkpt lat="43.39372923587862" lon="2.1270969233535753"><ele>636.0</ele><time>2026-03-22T09:05:06Z</time></trkpt><trkpt lat="43.3936650333845" lon="2.127297261873348"><ele>637.3333333333334</ele><time>2026-03-22T09:05:07Z</time></trkpt><trkpt lat="43.39359662300429" lon="2.127500968073722"><ele>638.6666666666667</ele><time>2026-03-22T09:05:08Z</time></trkpt><trkpt lat="43.393533641960424" lon="2.1277046373150568"><ele>640.0</ele><time>2026-03-22T09:05:09Z</time></trkpt><trkpt lat="43.39347161336393" lon="2.127909480280219"><ele>640.0</ele><time>2026-03-22T09:05:10Z</time></trkpt><trkpt lat="43.393406839520416" lon="2.1281157527598022"><ele>640.0</ele><time>2026-03-22T09:05:11Z</time></trkpt><trkpt lat="43.39334034703045" lon="2.128326563532593"><ele>640.0</ele><time>2026-03-22T09:05:12Z</time></trkpt><trkpt lat="43.39327059613966" lon="2.128553611479953"><ele>640.6666666666667</ele><time>2026-03-22T09:05:13Z</time></trkpt><trkpt lat="43.39320295235611" lon="2.1287832467986063"><ele>641.3333333333334</ele><time>2026-03-22T09:05:14Z</time></trkpt><trkpt lat="43.39311345204474" lon="2.12899560062079"><ele>642.0</ele><time>2026-03-22T09:05:15Z</time></trkpt><trkpt lat="43.393038215027595" lon="2.129208296890994"><ele>641.6666666666666</ele><time>2026-03-22T09:05:16Z</time></trkpt><trkpt lat="43.39296378724208" lon="2.129416290872695"><ele>641.3333333333333</ele><time>2026-03-22T09:05:17Z</time></trkpt><trkpt lat="43.392887321728345" lon="2.1296160307650522"><ele>641.0</ele><time>2026-03-22T09:05:18Z</time></trkpt><trkpt lat="43.39280452193945" lon="2.129807086728527"><ele>639.0</ele><time>2026-03-22T09:05:19Z</time></trkpt><trkpt lat="43.39270442676818" lon="2.12998315844385"><ele>637.0</ele><time>2026-03-22T09:05:20Z</time></trkpt><trkpt lat="43.3925856705097" lon="2.1301617683793945"><ele>635.0</ele><time>2026-03-22T09:05:21Z</time></trkpt><trkpt lat="43.39244021326494" lon="2.1303729335804342"><ele>635.0</ele><time>2026-03-22T09:05:22Z</time></trkpt><trkpt lat="43.39229828924391" lon="2.1305715146190547"><ele>635.0</ele><time>2026-03-22T09:05:23Z</time></trkpt><trkpt lat="43.3921622079112" lon="2.1307607961134734"><ele>635.0</ele><time>2026-03-22T09:05:24Z</time></trkpt><trkpt lat="43.39202307575189" lon="2.130954320696261"><ele>632.3333333333333</ele><time>2026-03-22T09:05:25Z</time></trkpt><trkpt lat="43.39188482203053" lon="2.1311485000720207"><ele>629.6666666666666</ele><time>2026-03-22T09:05:26Z</time></trkpt><trkpt lat="43.39175577811369" lon="2.13136160912852"><ele>627.0</ele><time>2026-03-22T09:05:27Z</time></trkpt><trkpt lat="43.39159714260016" lon="2.131579332526173"><ele>623.0</ele><time>2026-03-22T09:05:28Z</time></trkpt><trkpt lat="43.39142222166007" lon="2.1318291512413445"><ele>619.0</ele><time>2026-03-22T09:05:29Z</time></trkpt><trkpt lat="43.39126665017745" lon="2.132051188297502"><ele>619.6666666666667</ele><time>2026-03-22T09:05:30Z</time></trkpt><trkpt lat="43.391131910943415" lon="2.132248281197145"><ele>620.3333333333334</ele><time>2026-03-22T09:05:31Z</time></trkpt><trkpt lat="43.3909875415195" lon="2.132451223601705"><ele>621.0</ele><time>2026-03-22T09:05:32Z</time></trkpt><trkpt lat="43.39083926972665" lon="2.132653541744857"><ele>621.0</ele><time>2026-03-22T09:05:33Z</time></trkpt><trkpt lat="43.39069024934239" lon="2.1328549124144853"><ele>621.0</ele><time>2026-03-22T09:05:34Z</time></trkpt><trkpt lat="43.39053507586004" lon="2.1330532155249036"><ele>621.0</ele><time>2026-03-22T09:05:35Z</time></trkpt><trkpt lat="43.390376234854074" lon="2.133253162265719"><ele>620.6666666666666</ele><time>2026-03-22T09:05:36Z</time></trkpt><trkpt lat="43.39021984470942" lon="2.1334404656915567"><ele>620.3333333333333</ele><time>2026-03-22T09:05:37Z</time></trkpt><trkpt lat="43.39006243266962" lon="2.1336220313234024"><ele>620.0</ele><time>2026-03-22T09:05:38Z</time></trkpt><trkpt lat="43.38991347493445" lon="2.133808977630224"><ele>620.0</ele><time>2026-03-22T09:05:39Z</time></trkpt><trkpt lat="43.389750867387164" lon="2.133981063183752"><ele>620.0</ele><time>2026-03-22T09:05:40Z</time></trkpt><trkpt lat="43.38959113406043" lon="2.1341756845067597"><ele>620.0</ele><time>2026-03-22T09:05:41Z</time></trkpt><trkpt lat="43.389432140998565" lon="2.13436986720478"><ele>617.0</ele><time>2026-03-22T09:05:42Z</time></trkpt><trkpt lat="43.389273060232064" lon="2.134564156642184"><ele>614.0</ele><time>2026-03-22T09:05:43Z</time></trkpt><trkpt lat="43.389116641919905" lon="2.1347551943135534"><ele>611.0</ele><time>2026-03-22T09:05:44Z</time></trkpt><trkpt lat="43.38896336098657" lon="2.134941646009008"><ele>609.6666666666666</ele><time>2026-03-22T09:05:45Z</time></trkpt><trkpt lat="43.38881088962891" lon="2.1351267932274025"><ele>608.3333333333334</ele><time>2026-03-22T09:05:46Z</time></trkpt><trkpt lat="43.3886549891124" lon="2.1353161044782416"><ele>607.0</ele><time>2026-03-22T09:05:47Z</time></trkpt><trkpt lat="43.3885001742394" lon="2.1355040974124417"><ele>607.0</ele><time>2026-03-22T09:05:48Z</time></trkpt><trkpt lat="43.38834706595692" lon="2.135690633496056"><ele>607.0</ele><time>2026-03-22T09:05:49Z</time></trkpt><trkpt lat="43.38820593340671" lon="2.1358904416107656"><ele>607.0</ele><time>2026-03-22T09:05:50Z</time></trkpt><trkpt lat="43.38806007212419" lon="2.1360711399198054"><ele>604.0</ele><time>2026-03-22T09:05:51Z</time></trkpt><trkpt lat="43.38790184802631" lon="2.136234437365647"><ele>601.0</ele><time>2026-03-22T09:05:52Z</time></trkpt><trkpt lat="43.387758647940366" lon="2.136430273493619"><ele>598.0</ele><time>2026-03-22T09:05:53Z</time></trkpt><trkpt lat="43.387609463037734" lon="2.136599460050136"><ele>597.6666666666667</ele><time>2026-03-22T09:05:54Z</time></trkpt><trkpt lat="43.38746703219898" lon="2.136767571955328"><ele>597.3333333333334</ele><time>2026-03-22T09:05:55Z</time></trkpt><trkpt lat="43.387335280413296" lon="2.1369249821140976"><ele>597.0</ele><time>2026-03-22T09:05:56Z</time></trkpt><trkpt lat="43.38718559752829" lon="2.1370654274078107"><ele>594.3333333333334</ele><time>2026-03-22T09:05:57Z</time></trkpt><trkpt lat="43.38700527102404" lon="2.137181985627467"><ele>591.6666666666667</ele><time>2026-03-22T09:05:58Z</time></trkpt><trkpt lat="43.38681229168059" lon="2.1372757795662305"><ele>589.0</ele><time>2026-03-22T09:05:59Z</time></trkpt><trkpt lat="43.38660912052774" lon="2.137348955775984"><ele>589.0</ele><time>2026-03-22T09:06:00Z</time></trkpt><trkpt lat="43.38641084371292" lon="2.137431243694143"><ele>589.0</ele><time>2026-03-22T09:06:01Z</time></trkpt><trkpt lat="43.386215757761526" lon="2.1375035561356768"><ele>589.0</ele><time>2026-03-22T09:06:02Z</time></trkpt><trkpt lat="43.38601089344747" lon="2.137584911941034"><ele>589.0</ele><time>2026-03-22T09:06:03Z</time></trkpt><trkpt lat="43.38581454017983" lon="2.1376562123293157"><ele>589.0</ele><time>2026-03-22T09:06:04Z</time></trkpt><trkpt lat="43.38560879696032" lon="2.1377328279487444"><ele>589.0</ele><time>2026-03-22T09:06:05Z</time></trkpt><trkpt lat="43.38540283525427" lon="2.137806558526964"><ele>589.0</ele><time>2026-03-22T09:06:06Z</time></trkpt><trkpt lat="43.38519551268205" lon="2.1378838625651153"><ele>589.0</ele><time>2026-03-22T09:06:07Z</time></trkpt><trkpt lat="43.384982903170155" lon="2.1379621941528817"><ele>589.0</ele><time>2026-03-22T09:06:08Z</time></trkpt><trkpt lat="43.38476880845719" lon="2.138041990309802"><ele>589.6666666666667</ele><time>2026-03-22T09:06:09Z</time></trkpt><trkpt lat="43.38456192121951" lon="2.13811439478973"><ele>590.3333333333334</ele><time>2026-03-22T09:06:10Z</time></trkpt><trkpt lat="43.38435335885922" lon="2.1382081759775593"><ele>591.0</ele><time>2026-03-22T09:06:10.999Z</time></trkpt><trkpt lat="43.384179766787426" lon="2.1382577484047363"><ele>589.5</ele><time>2026-03-22T09:06:11.999Z</time></trkpt><trkpt lat="43.384041332132476" lon="2.1383100246181135"><ele>588.0</ele><time>2026-03-22T09:06:12.999Z</time></trkpt><trkpt lat="43.383906592560336" lon="2.1383609055541237"><ele>586.5</ele><time>2026-03-22T09:06:13.999Z</time></trkpt><trkpt lat="43.383799080869366" lon="2.1383972334112493"><ele>585.0</ele><time>2026-03-22T09:06:14.999Z</time></trkpt><trkpt lat="43.38370210799712" lon="2.1384283371745765"><ele>585.0</ele><time>2026-03-22T09:06:15.999Z</time></trkpt><trkpt lat="43.3832599417113" lon="2.138582957519342"><ele>585.0</ele><time>2026-03-22T09:06:16.999Z</time></trkpt><trkpt lat="43.383123870936934" lon="2.1386510177636398"><ele>585.0</ele><time>2026-03-22T09:06:17.999Z</time></trkpt><trkpt lat="43.382972176661625" lon="2.138723230746002"><ele>585.0</ele><time>2026-03-22T09:06:18.999Z</time></trkpt><trkpt lat="43.38282168550017" lon="2.138782221714964"><ele>585.3333333333334</ele><time>2026-03-22T09:06:19.999Z</time></trkpt><trkpt lat="43.38267907685391" lon="2.1389781294190557"><ele>585.6666666666667</ele><time>2026-03-22T09:06:20.999Z</time></trkpt><trkpt lat="43.38251504867671" lon="2.1391801758636326"><ele>586.0</ele><time>2026-03-22T09:06:21.999Z</time></trkpt><trkpt lat="43.38233977335643" lon="2.1393968951395785"><ele>586.0</ele><time>2026-03-22T09:06:22.999Z</time></trkpt><trkpt lat="43.38220358044571" lon="2.1395978055259834"><ele>586.0</ele><time>2026-03-22T09:06:23.999Z</time></trkpt><trkpt lat="43.38206258261013" lon="2.1398027845688525"><ele>586.0</ele><time>2026-03-22T09:06:24.999Z</time></trkpt><trkpt lat="43.381921882382606" lon="2.1399946359993702"><ele>586.6666666666667</ele><time>2026-03-22T09:06:25.999Z</time></trkpt><trkpt lat="43.381778534688095" lon="2.140181943434315"><ele>587.3333333333334</ele><time>2026-03-22T09:06:26.999Z</time></trkpt><trkpt lat="43.3816329961696" lon="2.140372020635485"><ele>588.0</ele><time>2026-03-22T09:06:27.999Z</time></trkpt><trkpt lat="43.381489533750674" lon="2.1405720867471842"><ele>587.3333333333334</ele><time>2026-03-22T09:06:28.999Z</time></trkpt><trkpt lat="43.38134410909266" lon="2.140761241688369"><ele>586.6666666666667</ele><time>2026-03-22T09:06:29.999Z</time></trkpt><trkpt lat="43.38120238319066" lon="2.1409479724983616"><ele>586.0</ele><time>2026-03-22T09:06:30.999Z</time></trkpt><trkpt lat="43.381050733933336" lon="2.1411306229956266"><ele>586.0</ele><time>2026-03-22T09:06:31.999Z</time></trkpt><trkpt lat="43.38090163024829" lon="2.14131862502921"><ele>586.0</ele><time>2026-03-22T09:06:32.999Z</time></trkpt><trkpt lat="43.38075172921958" lon="2.141509148257316"><ele>586.0</ele><time>2026-03-22T09:06:33.999Z</time></trkpt><trkpt lat="43.38060207775866" lon="2.141700643550455"><ele>586.0</ele><time>2026-03-22T09:06:34.999Z</time></trkpt><trkpt lat="43.38044461322937" lon="2.141888777407137"><ele>586.0</ele><time>2026-03-22T09:06:35.999Z</time></trkpt><trkpt lat="43.38029690134393" lon="2.142082236421189"><ele>586.0</ele><time>2026-03-22T09:06:37Z</time></trkpt><trkpt lat="43.38014500378734" lon="2.1422722285120948"><ele>585.3333333333334</ele><time>2026-03-22T09:06:38Z</time></trkpt><trkpt lat="43.37998945345214" lon="2.142461605602787"><ele>584.6666666666666</ele><time>2026-03-22T09:06:39Z</time></trkpt><trkpt lat="43.37983635258042" lon="2.142659248973755"><ele>584.0</ele><time>2026-03-22T09:06:40Z</time></trkpt><trkpt lat="43.37968111561708" lon="2.142850387127718"><ele>584.0</ele><time>2026-03-22T09:06:41Z</time></trkpt><trkpt lat="43.37952781774195" lon="2.143043735917067"><ele>584.0</ele><time>2026-03-22T09:06:42Z</time></trkpt><trkpt lat="43.37937678299883" lon="2.143239623859278"><ele>584.0</ele><time>2026-03-22T09:06:43Z</time></trkpt><trkpt lat="43.379220792156715" lon="2.143425006139902"><ele>585.0</ele><time>2026-03-22T09:06:44Z</time></trkpt><trkpt lat="43.37907246498638" lon="2.1436136876463645"><ele>586.0</ele><time>2026-03-22T09:06:45Z</time></trkpt><trkpt lat="43.37892919358035" lon="2.143804576005499"><ele>587.0</ele><time>2026-03-22T09:06:46Z</time></trkpt><trkpt lat="43.378786373706994" lon="2.1439822676170457"><ele>587.0</ele><time>2026-03-22T09:06:47Z</time></trkpt><trkpt lat="43.37864667734759" lon="2.1441654698791006"><ele>587.0</ele><time>2026-03-22T09:06:48Z</time></trkpt><trkpt lat="43.37850647922503" lon="2.1443517766109594"><ele>587.0</ele><time>2026-03-22T09:06:49Z</time></trkpt><trkpt lat="43.37838098598468" lon="2.1445389673206177"><ele>587.0</ele><time>2026-03-22T09:06:50Z</time></trkpt><trkpt lat="43.378218150683956" lon="2.144719460893588"><ele>587.0</ele><time>2026-03-22T09:06:51Z</time></trkpt><trkpt lat="43.378071272673736" lon="2.144902626729349"><ele>587.0</ele><time>2026-03-22T09:06:52Z</time></trkpt><trkpt lat="43.377921008595806" lon="2.145085373178264"><ele>585.3333333333333</ele><time>2026-03-22T09:06:53Z</time></trkpt><trkpt lat="43.3777766096884" lon="2.1452743238161824"><ele>583.6666666666666</ele><time>2026-03-22T09:06:54Z</time></trkpt><trkpt lat="43.37762990289467" lon="2.1454636755451646"><ele>582.0</ele><time>2026-03-22T09:06:55Z</time></trkpt><trkpt lat="43.37747926784264" lon="2.1456405204272544"><ele>582.6666666666666</ele><time>2026-03-22T09:06:56Z</time></trkpt><trkpt lat="43.37734531854129" lon="2.1458419673819678"><ele>583.3333333333333</ele><time>2026-03-22T09:06:57Z</time></trkpt><trkpt lat="43.377202609564065" lon="2.1460447316087294"><ele>584.0</ele><time>2026-03-22T09:06:58Z</time></trkpt><trkpt lat="43.377084879150765" lon="2.1462814081025767"><ele>585.0</ele><time>2026-03-22T09:06:59Z</time></trkpt><trkpt lat="43.37694968058462" lon="2.1465651919401605"><ele>586.0</ele><time>2026-03-22T09:07:00Z</time></trkpt><trkpt lat="43.37682083005006" lon="2.146839947874722"><ele>586.0</ele><time>2026-03-22T09:07:01Z</time></trkpt><trkpt lat="43.376696930546416" lon="2.1470887890919226"><ele>586.0</ele><time>2026-03-22T09:07:02Z</time></trkpt><trkpt lat="43.3765681743463" lon="2.1473368801324946"><ele>586.0</ele><time>2026-03-22T09:07:03Z</time></trkpt><trkpt lat="43.37643562808379" lon="2.1475854787975015"><ele>586.3333333333334</ele><time>2026-03-22T09:07:04Z</time></trkpt><trkpt lat="43.3763088405467" lon="2.1478368606201843"><ele>586.6666666666666</ele><time>2026-03-22T09:07:05Z</time></trkpt><trkpt lat="43.37617914527808" lon="2.14808276042925"><ele>587.0</ele><time>2026-03-22T09:07:06Z</time></trkpt><trkpt lat="43.37605179286487" lon="2.1483301556953283"><ele>587.0</ele><time>2026-03-22T09:07:07Z</time></trkpt><trkpt lat="43.37592423109698" lon="2.1485767975398953"><ele>587.0</ele><time>2026-03-22T09:07:08Z</time></trkpt><trkpt lat="43.375797515489104" lon="2.148831055716178"><ele>587.0</ele><time>2026-03-22T09:07:09Z</time></trkpt><trkpt lat="43.37567084764378" lon="2.1490807166572012"><ele>587.0</ele><time>2026-03-22T09:07:10Z</time></trkpt><trkpt lat="43.375541851883845" lon="2.1493313940491916"><ele>587.0</ele><time>2026-03-22T09:07:11Z</time></trkpt><trkpt lat="43.375413913824055" lon="2.149577162806904"><ele>587.0</ele><time>2026-03-22T09:07:12Z</time></trkpt><trkpt lat="43.37528376451229" lon="2.149829272119197"><ele>587.0</ele><time>2026-03-22T09:07:13Z</time></trkpt><trkpt lat="43.37516028458516" lon="2.150082728842987"><ele>587.0</ele><time>2026-03-22T09:07:14Z</time></trkpt><trkpt lat="43.375035407859365" lon="2.150335363811756"><ele>587.0</ele><time>2026-03-22T09:07:15Z</time></trkpt><trkpt lat="43.37490852720462" lon="2.150585860172836"><ele>587.0</ele><time>2026-03-22T09:07:16Z</time></trkpt><trkpt lat="43.37478350562336" lon="2.1508373587914384"><ele>587.0</ele><time>2026-03-22T09:07:17Z</time></trkpt><trkpt lat="43.374633489107" lon="2.1510684116962966"><ele>587.0</ele><time>2026-03-22T09:07:18Z</time></trkpt><trkpt lat="43.374506169144354" lon="2.151317220428506"><ele>586.6666666666666</ele><time>2026-03-22T09:07:19Z</time></trkpt><trkpt lat="43.37438024633087" lon="2.1515624056002927"><ele>586.3333333333334</ele><time>2026-03-22T09:07:20Z</time></trkpt><trkpt lat="43.37425099495501" lon="2.151804167394407"><ele>586.0</ele><time>2026-03-22T09:07:21Z</time></trkpt><trkpt lat="43.374102875639714" lon="2.1520264235836386"><ele>586.0</ele><time>2026-03-22T09:07:22Z</time></trkpt><trkpt lat="43.373940710087396" lon="2.152244388870675"><ele>586.0</ele><time>2026-03-22T09:07:23Z</time></trkpt><trkpt lat="43.373764735223624" lon="2.152466286428055"><ele>582.0</ele><time>2026-03-22T09:07:24Z</time></trkpt><trkpt lat="43.37358512319381" lon="2.1526932213142422"><ele>578.0</ele><time>2026-03-22T09:07:25Z</time></trkpt><trkpt lat="43.37342072544563" lon="2.152943400594057"><ele>578.0</ele><time>2026-03-22T09:07:26Z</time></trkpt><trkpt lat="43.37324257026025" lon="2.153170357525058"><ele>578.0</ele><time>2026-03-22T09:07:27Z</time></trkpt><trkpt lat="43.373048458810096" lon="2.1533884605196745"><ele>575.0</ele><time>2026-03-22T09:07:28Z</time></trkpt><trkpt lat="43.372872124947804" lon="2.15364348526454"><ele>572.0</ele><time>2026-03-22T09:07:29Z</time></trkpt><trkpt lat="43.37269689798618" lon="2.1538712100957222"><ele>571.5</ele><time>2026-03-22T09:07:30Z</time></trkpt><trkpt lat="43.37252014150889" lon="2.1540956324111336"><ele>571.0</ele><time>2026-03-22T09:07:31Z</time></trkpt><trkpt lat="43.372350461893724" lon="2.154314579925234"><ele>570.6666666666667</ele><time>2026-03-22T09:07:32Z</time></trkpt><trkpt lat="43.37218892918168" lon="2.1545249156153314"><ele>570.3333333333334</ele><time>2026-03-22T09:07:33Z</time></trkpt><trkpt lat="43.372017546536185" lon="2.1547166228601506"><ele>570.0</ele><time>2026-03-22T09:07:34Z</time></trkpt><trkpt lat="43.37185751574741" lon="2.1549202708841317"><ele>570.0</ele><time>2026-03-22T09:07:35Z</time></trkpt><trkpt lat="43.37171621512076" lon="2.1551299442297633"><ele>570.0</ele><time>2026-03-22T09:07:36Z</time></trkpt><trkpt lat="43.37156630913678" lon="2.155294816184498"><ele>570.0</ele><time>2026-03-22T09:07:37Z</time></trkpt><trkpt lat="43.37144290397401" lon="2.1554546038710334"><ele>569.5</ele><time>2026-03-22T09:07:38Z</time></trkpt><trkpt lat="43.37133241382703" lon="2.1555981560694684"><ele>569.0</ele><time>2026-03-22T09:07:39Z</time></trkpt><trkpt lat="43.371232742868294" lon="2.155730535483019"><ele>568.5</ele><time>2026-03-22T09:07:40Z</time></trkpt><trkpt lat="43.37113443961636" lon="2.1558623011109836"><ele>568.0</ele><time>2026-03-22T09:07:41Z</time></trkpt><trkpt lat="43.37104063615692" lon="2.1559837414743366"><ele>568.0</ele><time>2026-03-22T09:07:42Z</time></trkpt><trkpt lat="43.37093973129205" lon="2.156060601848205"><ele>568.0</ele><time>2026-03-22T09:07:43Z</time></trkpt><trkpt lat="43.37081495349437" lon="2.156125047721243"><ele>568.0</ele><time>2026-03-22T09:07:44Z</time></trkpt><trkpt lat="43.370663254974424" lon="2.1561405882928484"><ele>568.0</ele><time>2026-03-22T09:07:45Z</time></trkpt><trkpt lat="43.37050222148543" lon="2.1561284802269434"><ele>567.3333333333334</ele><time>2026-03-22T09:07:46Z</time></trkpt><trkpt lat="43.37033007751048" lon="2.156072303640735"><ele>566.6666666666666</ele><time>2026-03-22T09:07:47Z</time></trkpt><trkpt lat="43.37014254366291" lon="2.1559871722496275"><ele>566.0</ele><time>2026-03-22T09:07:48Z</time></trkpt><trkpt lat="43.369964390513644" lon="2.155920904346474"><ele>566.0</ele><time>2026-03-22T09:07:49Z</time></trkpt><trkpt lat="43.369798375922116" lon="2.155845093016805"><ele>566.0</ele><time>2026-03-22T09:07:50Z</time></trkpt><trkpt lat="43.36962529544713" lon="2.155794541032229"><ele>566.0</ele><time>2026-03-22T09:07:51Z</time></trkpt><trkpt lat="43.36945178686912" lon="2.1557644149092985"><ele>563.6666666666666</ele><time>2026-03-22T09:07:52Z</time></trkpt><trkpt lat="43.369270857456804" lon="2.15578017159038"><ele>561.3333333333334</ele><time>2026-03-22T09:07:53Z</time></trkpt><trkpt lat="43.36910016429006" lon="2.1558137423627417"><ele>559.0</ele><time>2026-03-22T09:07:54Z</time></trkpt><trkpt lat="43.36891161190693" lon="2.1558948396324666"><ele>556.0</ele><time>2026-03-22T09:07:55Z</time></trkpt><trkpt lat="43.36874709290602" lon="2.155930509096948"><ele>553.0</ele><time>2026-03-22T09:07:56Z</time></trkpt><trkpt lat="43.36859356528292" lon="2.15600296186624"><ele>550.0</ele><time>2026-03-22T09:07:57Z</time></trkpt><trkpt lat="43.36843850460981" lon="2.156059297827704"><ele>550.0</ele><time>2026-03-22T09:07:58Z</time></trkpt><trkpt lat="43.36828852628269" lon="2.1561158718272977"><ele>550.0</ele><time>2026-03-22T09:07:59Z</time></trkpt><trkpt lat="43.36813439586176" lon="2.156177768066797"><ele>550.0</ele><time>2026-03-22T09:08:00Z</time></trkpt><trkpt lat="43.3679729497163" lon="2.15628728418621"><ele>548.0</ele><time>2026-03-22T09:08:01Z</time></trkpt><trkpt lat="43.36781788257669" lon="2.156444046114861"><ele>546.0</ele><time>2026-03-22T09:08:02Z</time></trkpt><trkpt lat="43.36767590516358" lon="2.156608570475771"><ele>544.0</ele><time>2026-03-22T09:08:02.999Z</time></trkpt><trkpt lat="43.36755019806321" lon="2.156769553047197"><ele>544.0</ele><time>2026-03-22T09:08:03.999Z</time></trkpt><trkpt lat="43.36742583511911" lon="2.156936107828753"><ele>544.0</ele><time>2026-03-22T09:08:04.999Z</time></trkpt><trkpt lat="43.36730630884619" lon="2.157116210631999"><ele>544.0</ele><time>2026-03-22T09:08:05.999Z</time></trkpt><trkpt lat="43.36719544494823" lon="2.1573069857273106"><ele>541.0</ele><time>2026-03-22T09:08:06.999Z</time></trkpt><trkpt lat="43.36710001503394" lon="2.1575153701204153"><ele>538.0</ele><time>2026-03-22T09:08:07.999Z</time></trkpt><trkpt lat="43.36702085076141" lon="2.1577291952686535"><ele>535.0</ele><time>2026-03-22T09:08:08.999Z</time></trkpt><trkpt lat="43.36695104477855" lon="2.157935626569585"><ele>535.0</ele><time>2026-03-22T09:08:09.999Z</time></trkpt><trkpt lat="43.36686131351729" lon="2.1581115660371815"><ele>535.0</ele><time>2026-03-22T09:08:10.999Z</time></trkpt><trkpt lat="43.36676614788164" lon="2.158306078996137"><ele>535.0</ele><time>2026-03-22T09:08:11.999Z</time></trkpt><trkpt lat="43.36665022853419" lon="2.1585047673609448"><ele>537.6666666666667</ele><time>2026-03-22T09:08:12.999Z</time></trkpt><trkpt lat="43.3665220807843" lon="2.1586925735595317"><ele>540.3333333333334</ele><time>2026-03-22T09:08:13.999Z</time></trkpt><trkpt lat="43.366380747290776" lon="2.158855485097813"><ele>543.0</ele><time>2026-03-22T09:08:14.999Z</time></trkpt><trkpt lat="43.3662141189284" lon="2.1590112636197545"><ele>539.0</ele><time>2026-03-22T09:08:15.999Z</time></trkpt><trkpt lat="43.36603618507543" lon="2.1591807968052903"><ele>535.0</ele><time>2026-03-22T09:08:16.999Z</time></trkpt><trkpt lat="43.36584581051299" lon="2.159318072023953"><ele>531.0</ele><time>2026-03-22T09:08:17.999Z</time></trkpt><trkpt lat="43.365675617784774" lon="2.1594338665068875"><ele>527.6666666666666</ele><time>2026-03-22T09:08:18.999Z</time></trkpt><trkpt lat="43.36549283910967" lon="2.159579227401693"><ele>524.3333333333333</ele><time>2026-03-22T09:08:19.999Z</time></trkpt><trkpt lat="43.365320994715916" lon="2.159720911602976"><ele>521.0</ele><time>2026-03-22T09:08:20.999Z</time></trkpt><trkpt lat="43.36515744753922" lon="2.159851587497875"><ele>522.0</ele><time>2026-03-22T09:08:21.999Z</time></trkpt><trkpt lat="43.364997683416334" lon="2.1599826052798994"><ele>523.0</ele><time>2026-03-22T09:08:22.999Z</time></trkpt><trkpt lat="43.36483925000887" lon="2.160110433515801"><ele>524.0</ele><time>2026-03-22T09:08:23.999Z</time></trkpt><trkpt lat="43.36468853611283" lon="2.1602293191031343"><ele>521.6666666666666</ele><time>2026-03-22T09:08:24.999Z</time></trkpt><trkpt lat="43.36454193591555" lon="2.160338656681318"><ele>519.3333333333334</ele><time>2026-03-22T09:08:25.999Z</time></trkpt><trkpt lat="43.364411866014095" lon="2.1604565000520104"><ele>517.0</ele><time>2026-03-22T09:08:26.999Z</time></trkpt><trkpt lat="43.36427799031396" lon="2.1605534658182637"><ele>517.0</ele><time>2026-03-22T09:08:27.999Z</time></trkpt><trkpt lat="43.36415083527378" lon="2.1606543306793045"><ele>517.0</ele><time>2026-03-22T09:08:28.999Z</time></trkpt><trkpt lat="43.36403126196117" lon="2.1607453421699"><ele>517.0</ele><time>2026-03-22T09:08:29.999Z</time></trkpt><trkpt lat="43.36391752499853" lon="2.160838588823733"><ele>517.0</ele><time>2026-03-22T09:08:30.999Z</time></trkpt><trkpt lat="43.36381160197926" lon="2.1609268650454436"><ele>516.25</ele><time>2026-03-22T09:08:31.999Z</time></trkpt><trkpt lat="43.36369885052469" lon="2.161016582946884"><ele>515.5</ele><time>2026-03-22T09:08:32.999Z</time></trkpt><trkpt lat="43.36358730098123" lon="2.161103723886838"><ele>514.75</ele><time>2026-03-22T09:08:33.999Z</time></trkpt><trkpt lat="43.36348163249034" lon="2.1611950974895366"><ele>514.0</ele><time>2026-03-22T09:08:34.999Z</time></trkpt><trkpt lat="43.36337594892172" lon="2.161278022898011"><ele>514.0</ele><time>2026-03-22T09:08:35.999Z</time></trkpt><trkpt lat="43.363278687734145" lon="2.161357470369687"><ele>514.0</ele><time>2026-03-22T09:08:36.999Z</time></trkpt><trkpt lat="43.36318449642265" lon="2.1614344540052475"><ele>514.0</ele><time>2026-03-22T09:08:37.999Z</time></trkpt><trkpt lat="43.363088731131356" lon="2.1615087776009925"><ele>514.0</ele><time>2026-03-22T09:08:38.999Z</time></trkpt><trkpt lat="43.36299890951445" lon="2.1615803464737104"><ele>514.0</ele><time>2026-03-22T09:08:39.999Z</time></trkpt><trkpt lat="43.362911107518244" lon="2.1616428843109388"><ele>512.8</ele><time>2026-03-22T09:08:40.999Z</time></trkpt><trkpt lat="43.36283261570025" lon="2.16169898066306"><ele>511.59999999999997</ele><time>2026-03-22T09:08:41.999Z</time></trkpt><trkpt lat="43.362751706198914" lon="2.1617383987119725"><ele>510.4</ele><time>2026-03-22T09:08:43Z</time></trkpt><trkpt lat="43.36267410369572" lon="2.161760842916967"><ele>509.2</ele><time>2026-03-22T09:08:44Z</time></trkpt><trkpt lat="43.36259523088493" lon="2.1618153746752835"><ele>508.0</ele><time>2026-03-22T09:08:45Z</time></trkpt><trkpt lat="43.36250015646763" lon="2.161931686465591"><ele>508.0</ele><time>2026-03-22T09:08:46Z</time></trkpt><trkpt lat="43.36243177023931" lon="2.1620427687990453"><ele>508.0</ele><time>2026-03-22T09:08:47Z</time></trkpt><trkpt lat="43.36231228749879" lon="2.162126218027209"><ele>508.0</ele><time>2026-03-22T09:08:48Z</time></trkpt><trkpt lat="43.362196218762456" lon="2.162233338143701"><ele>508.0</ele><time>2026-03-22T09:08:49Z</time></trkpt><trkpt lat="43.36207088909667" lon="2.162319205719984"><ele>506.75</ele><time>2026-03-22T09:08:50Z</time></trkpt><trkpt lat="43.361964448030044" lon="2.162402354672544"><ele>505.5</ele><time>2026-03-22T09:08:51Z</time></trkpt><trkpt lat="43.36186635169679" lon="2.162491420910251"><ele>504.25</ele><time>2026-03-22T09:08:52Z</time></trkpt><trkpt lat="43.36176642551433" lon="2.1625756521193837"><ele>503.0</ele><time>2026-03-22T09:08:53Z</time></trkpt><trkpt lat="43.361652156905805" lon="2.162658658477548"><ele>503.0</ele><time>2026-03-22T09:08:54Z</time></trkpt><trkpt lat="43.36155210585241" lon="2.1627381821365534"><ele>503.0</ele><time>2026-03-22T09:08:55Z</time></trkpt><trkpt lat="43.36144900870971" lon="2.162827359419983"><ele>503.0</ele><time>2026-03-22T09:08:56Z</time></trkpt><trkpt lat="43.36135133080054" lon="2.1629230077536605"><ele>503.0</ele><time>2026-03-22T09:08:57Z</time></trkpt><trkpt lat="43.36127150729013" lon="2.1629922587981723"><ele>501.79999999999995</ele><time>2026-03-22T09:08:58Z</time></trkpt><trkpt lat="43.36119824947358" lon="2.1630690549964258"><ele>500.59999999999997</ele><time>2026-03-22T09:08:59Z</time></trkpt><trkpt lat="43.361115122288204" lon="2.1631833424894085"><ele>499.40000000000003</ele><time>2026-03-22T09:09:00Z</time></trkpt><trkpt lat="43.3610380572899" lon="2.163296735176431"><ele>498.20000000000005</ele><time>2026-03-22T09:09:01Z</time></trkpt><trkpt lat="43.36097075565372" lon="2.163412562492462"><ele>497.0</ele><time>2026-03-22T09:09:02Z</time></trkpt><trkpt lat="43.36089639327231" lon="2.1635505579130236"><ele>496.0</ele><time>2026-03-22T09:09:03Z</time></trkpt><trkpt lat="43.36082564893437" lon="2.163697678541444"><ele>495.0</ele><time>2026-03-22T09:09:04Z</time></trkpt><trkpt lat="43.36076121592261" lon="2.163844478099881"><ele>494.0</ele><time>2026-03-22T09:09:05Z</time></trkpt><trkpt lat="43.36071045563097" lon="2.1639828636596774"><ele>493.0</ele><time>2026-03-22T09:09:06Z</time></trkpt><trkpt lat="43.3606657706728" lon="2.164138626349115"><ele>493.0</ele><time>2026-03-22T09:09:07Z</time></trkpt><trkpt lat="43.3606320302163" lon="2.1642980724664254"><ele>493.0</ele><time>2026-03-22T09:09:08Z</time></trkpt><trkpt lat="43.360596017007616" lon="2.1644469745653785"><ele>493.0</ele><time>2026-03-22T09:09:09Z</time></trkpt><trkpt lat="43.360566097024815" lon="2.1645954493600814"><ele>493.0</ele><time>2026-03-22T09:09:10Z</time></trkpt><trkpt lat="43.360541610613275" lon="2.1647453548890203"><ele>491.59999999999997</ele><time>2026-03-22T09:09:11Z</time></trkpt><trkpt lat="43.36052309237262" lon="2.1648907962197685"><ele>490.19999999999993</ele><time>2026-03-22T09:09:12Z</time></trkpt><trkpt lat="43.36050514434855" lon="2.1650296771741115"><ele>488.8</ele><time>2026-03-22T09:09:13Z</time></trkpt><trkpt lat="43.360488082947036" lon="2.1651632093882998"><ele>487.4</ele><time>2026-03-22T09:09:14Z</time></trkpt><trkpt lat="43.36047236319227" lon="2.1652890192365457"><ele>486.0</ele><time>2026-03-22T09:09:15Z</time></trkpt><trkpt lat="43.36045729675635" lon="2.1654046494764905"><ele>486.0</ele><time>2026-03-22T09:09:16Z</time></trkpt><trkpt lat="43.360441984966165" lon="2.1655193535645907"><ele>486.0</ele><time>2026-03-22T09:09:17Z</time></trkpt><trkpt lat="43.36043041510837" lon="2.1656169856704652"><ele>486.0</ele><time>2026-03-22T09:09:18Z</time></trkpt><trkpt lat="43.36039829443087" lon="2.1657673832597677"><ele>486.0</ele><time>2026-03-22T09:09:20Z</time></trkpt><trkpt lat="43.3603799415682" lon="2.1659098255813185"><ele>486.0</ele><time>2026-03-22T09:09:22Z</time></trkpt><trkpt lat="43.360361614049715" lon="2.166051226649109"><ele>484.8333333333333</ele><time>2026-03-22T09:09:24Z</time></trkpt><trkpt lat="43.36035009743192" lon="2.1661400802888555"><ele>483.66666666666663</ele><time>2026-03-22T09:09:25Z</time></trkpt><trkpt lat="43.36033715831108" lon="2.1662399087134414"><ele>482.5</ele><time>2026-03-22T09:09:26Z</time></trkpt><trkpt lat="43.36032427770337" lon="2.1663392857362456"><ele>481.3333333333333</ele><time>2026-03-22T09:09:27Z</time></trkpt><trkpt lat="43.36032725283056" lon="2.1664407991400165"><ele>480.16666666666663</ele><time>2026-03-22T09:09:28Z</time></trkpt><trkpt lat="43.36030696719909" lon="2.166546165243838"><ele>479.0</ele><time>2026-03-22T09:09:29Z</time></trkpt><trkpt lat="43.36029362496123" lon="2.1666611423497386"><ele>476.99999999999994</ele><time>2026-03-22T09:09:30Z</time></trkpt><trkpt lat="43.3602794147602" lon="2.1667756954187003"><ele>475.0</ele><time>2026-03-22T09:09:31Z</time></trkpt><trkpt lat="43.360262342778206" lon="2.166891663450939"><ele>473.0</ele><time>2026-03-22T09:09:32Z</time></trkpt><trkpt lat="43.36023626827811" lon="2.1670077752076673"><ele>471.0</ele><time>2026-03-22T09:09:33Z</time></trkpt><trkpt lat="43.36021817740751" lon="2.1671214259758096"><ele>468.99999999999994</ele><time>2026-03-22T09:09:34Z</time></trkpt><trkpt lat="43.36020449671645" lon="2.1672344957813356"><ele>467.0</ele><time>2026-03-22T09:09:35Z</time></trkpt><trkpt lat="43.36019816289394" lon="2.167326716718367"><ele>465.40000000000003</ele><time>2026-03-22T09:09:36Z</time></trkpt><trkpt lat="43.36019189577743" lon="2.1674168352879506"><ele>463.80000000000007</ele><time>2026-03-22T09:09:37Z</time></trkpt><trkpt lat="43.36021838680934" lon="2.1675729139253015"><ele>462.2</ele><time>2026-03-22T09:09:39Z</time></trkpt><trkpt lat="43.360299141374824" lon="2.167701897025146"><ele>460.6</ele><time>2026-03-22T09:09:41Z</time></trkpt><trkpt lat="43.36039396097883" lon="2.167817354859808"><ele>459.0</ele><time>2026-03-22T09:09:43Z</time></trkpt><trkpt lat="43.36044420831563" lon="2.167871920282035"><ele>459.0</ele><time>2026-03-22T09:09:44Z</time></trkpt><trkpt lat="43.36049371897574" lon="2.1679285489621325"><ele>459.0</ele><time>2026-03-22T09:09:45Z</time></trkpt><trkpt lat="43.36054055999557" lon="2.1679864167890943"><ele>459.0</ele><time>2026-03-22T09:09:46Z</time></trkpt><trkpt lat="43.36062512280788" lon="2.1680758708379657"><ele>459.0</ele><time>2026-03-22T09:09:48Z</time></trkpt><trkpt lat="43.36073754795238" lon="2.168170590242922"><ele>459.0</ele><time>2026-03-22T09:09:50Z</time></trkpt><trkpt lat="43.36081526842979" lon="2.1681844684894918"><ele>459.0</ele><time>2026-03-22T09:09:51Z</time></trkpt><trkpt lat="43.360922259520514" lon="2.1682207666640734"><ele>460.57142857142856</ele><time>2026-03-22T09:09:53Z</time></trkpt><trkpt lat="43.36100872862463" lon="2.16820121592411"><ele>462.1428571428571</ele><time>2026-03-22T09:09:56Z</time></trkpt><trkpt lat="43.36106600750262" lon="2.1682702213490987"><ele>463.71428571428567</ele><time>2026-03-22T09:09:59.999Z</time></trkpt><trkpt lat="43.36101039406053" lon="2.1683212561197838"><ele>465.2857142857143</ele><time>2026-03-22T09:10:46.999Z</time></trkpt><trkpt lat="43.360941078076905" lon="2.1683225855598636"><ele>466.8571428571428</ele><time>2026-03-22T09:10:53Z</time></trkpt><trkpt lat="43.36088593292941" lon="2.168278558401648"><ele>468.4285714285714</ele><time>2026-03-22T09:11:59Z</time></trkpt><trkpt lat="43.36093798350224" lon="2.1683528941383376"><ele>470.0</ele><time>2026-03-22T09:16:24Z</time></trkpt><trkpt lat="43.36088538927853" lon="2.1682946744174116"><ele>470.0</ele><time>2026-03-22T09:16:43.999Z</time></trkpt><trkpt lat="43.36095276804087" lon="2.1682746230256993"><ele>470.0</ele><time>2026-03-22T09:16:46.999Z</time></trkpt><trkpt lat="43.36095147218538" lon="2.168365319359941"><ele>470.0</ele><time>2026-03-22T09:16:59.999Z</time></trkpt><trkpt lat="43.36090910611307" lon="2.1682548529411583"><ele>470.0</ele><time>2026-03-22T09:17:17.999Z</time></trkpt><trkpt lat="43.360913535203196" lon="2.168163838223016"><ele>481.0</ele><time>2026-03-22T09:17:32.999Z</time></trkpt><trkpt lat="43.360931638323024" lon="2.1680708228747276"><ele>481.0</ele><time>2026-03-22T09:17:37.999Z</time></trkpt><trkpt lat="43.36089776620857" lon="2.1681718553236644"><ele>481.0</ele><time>2026-03-22T09:17:53.999Z</time></trkpt></trkseg><trkseg><trkpt lat="43.36099959996177" lon="2.1683198315450025"><ele>469.99999999999994</ele><time>2026-03-22T09:53:25.998Z</time></trkpt><trkpt lat="43.36093314822002" lon="2.1683015494474502"><ele>470.0</ele><time>2026-03-22T09:55:05Z</time></trkpt><trkpt lat="43.36099512936089" lon="2.1683213885651322"><ele>470.0</ele><time>2026-03-22T09:55:46Z</time></trkpt><trkpt lat="43.361060491663665" lon="2.1682925211493758"><ele>470.0</ele><time>2026-03-22T09:55:52Z</time></trkpt><trkpt lat="43.36111108596864" lon="2.168229308397296"><ele>469.99999999999994</ele><time>2026-03-22T09:56:10Z</time></trkpt><trkpt lat="43.36121777560984" lon="2.1682572141007785"><ele>470.0</ele><time>2026-03-22T09:56:14Z</time></trkpt><trkpt lat="43.36129734641659" lon="2.1683735333595524"><ele>469.99999999999994</ele><time>2026-03-22T09:56:16Z</time></trkpt><trkpt lat="43.361318351817886" lon="2.168552232130114"><ele>470.0</ele><time>2026-03-22T09:56:18Z</time></trkpt><trkpt lat="43.36130815393316" lon="2.168661363837127"><ele>470.0</ele><time>2026-03-22T09:56:19Z</time></trkpt><trkpt lat="43.36129421590594" lon="2.168769528389064"><ele>470.0</ele><time>2026-03-22T09:56:20Z</time></trkpt><trkpt lat="43.36127699160769" lon="2.1688671105843578"><ele>469.99999999999994</ele><time>2026-03-22T09:56:21Z</time></trkpt><trkpt lat="43.36124490817284" lon="2.1689537697971315"><ele>470.0</ele><time>2026-03-22T09:56:22Z</time></trkpt><trkpt lat="43.3611900000259" lon="2.1690043740114904"><ele>472.4</ele><time>2026-03-22T09:56:23Z</time></trkpt><trkpt lat="43.36111581266352" lon="2.1690403280401953"><ele>474.8</ele><time>2026-03-22T09:56:24Z</time></trkpt><trkpt lat="43.360996939399804" lon="2.1690645656879206"><ele>477.20000000000005</ele><time>2026-03-22T09:56:26Z</time></trkpt><trkpt lat="43.360930333482344" lon="2.1690676461583607"><ele>479.6</ele><time>2026-03-22T09:56:27Z</time></trkpt><trkpt lat="43.360804772571484" lon="2.1690811288417224"><ele>482.0</ele><time>2026-03-22T09:56:29Z</time></trkpt><trkpt lat="43.36069411321185" lon="2.1691003690436674"><ele>482.0</ele><time>2026-03-22T09:56:31Z</time></trkpt><trkpt lat="43.36058586784394" lon="2.16911800511899"><ele>482.00000000000006</ele><time>2026-03-22T09:56:33Z</time></trkpt><trkpt lat="43.36047971999387" lon="2.169141185383552"><ele>482.00000000000006</ele><time>2026-03-22T09:56:35Z</time></trkpt><trkpt lat="43.360364335728" lon="2.1691703231944"><ele>482.0</ele><time>2026-03-22T09:56:37Z</time></trkpt><trkpt lat="43.36030977061697" lon="2.1692146260343526"><ele>482.0</ele><time>2026-03-22T09:56:38Z</time></trkpt><trkpt lat="43.360229745403345" lon="2.169354067311954"><ele>481.28571428571433</ele><time>2026-03-22T09:56:40Z</time></trkpt><trkpt lat="43.36020318670169" lon="2.169444547593154"><ele>480.5714285714286</ele><time>2026-03-22T09:56:41Z</time></trkpt><trkpt lat="43.36018361658154" lon="2.1695430317081263"><ele>479.8571428571429</ele><time>2026-03-22T09:56:42Z</time></trkpt><trkpt lat="43.36016857277838" lon="2.169649725866242"><ele>479.1428571428571</ele><time>2026-03-22T09:56:43Z</time></trkpt><trkpt lat="43.36014836579491" lon="2.169749209614458"><ele>478.4285714285714</ele><time>2026-03-22T09:56:44Z</time></trkpt><trkpt lat="43.360109072690825" lon="2.1698245626043167"><ele>477.71428571428567</ele><time>2026-03-22T09:56:45Z</time></trkpt><trkpt lat="43.36007836291638" lon="2.169922262338514"><ele>477.0</ele><time>2026-03-22T09:56:46Z</time></trkpt><trkpt lat="43.36005873756093" lon="2.170030400337473"><ele>479.20000000000005</ele><time>2026-03-22T09:56:47Z</time></trkpt><trkpt lat="43.36002217988367" lon="2.1701526436083536"><ele>481.40000000000003</ele><time>2026-03-22T09:56:48Z</time></trkpt><trkpt lat="43.35996746919128" lon="2.1702718193632085"><ele>483.59999999999997</ele><time>2026-03-22T09:56:49Z</time></trkpt><trkpt lat="43.35992347008665" lon="2.1704055216341733"><ele>485.79999999999995</ele><time>2026-03-22T09:56:50Z</time></trkpt><trkpt lat="43.35987682925201" lon="2.1705346567588646"><ele>488.0</ele><time>2026-03-22T09:56:51Z</time></trkpt><trkpt lat="43.35982866724307" lon="2.1706635841843767"><ele>489.2</ele><time>2026-03-22T09:56:52Z</time></trkpt><trkpt lat="43.359778437161694" lon="2.170801720529888"><ele>490.4</ele><time>2026-03-22T09:56:53Z</time></trkpt><trkpt lat="43.35973169239917" lon="2.1709309134597072"><ele>491.59999999999997</ele><time>2026-03-22T09:56:54Z</time></trkpt><trkpt lat="43.3596898549949" lon="2.1710551120891637"><ele>492.79999999999995</ele><time>2026-03-22T09:56:55Z</time></trkpt><trkpt lat="43.359656544587594" lon="2.171192209661883"><ele>494.0</ele><time>2026-03-22T09:56:56Z</time></trkpt><trkpt lat="43.359628232886344" lon="2.171331877484369"><ele>488.0</ele><time>2026-03-22T09:56:57Z</time></trkpt><trkpt lat="43.35960411387477" lon="2.1714731341064493"><ele>482.0</ele><time>2026-03-22T09:56:58Z</time></trkpt><trkpt lat="43.35958507306473" lon="2.171621317359025"><ele>476.0</ele><time>2026-03-22T09:56:59Z</time></trkpt><trkpt lat="43.35956865029879" lon="2.1717582226062424"><ele>470.0</ele><time>2026-03-22T09:57:00Z</time></trkpt><trkpt lat="43.359552621526745" lon="2.1718920301159224"><ele>464.0</ele><time>2026-03-22T09:57:01Z</time></trkpt><trkpt lat="43.359537473946105" lon="2.172019564340603"><ele>463.99999999999994</ele><time>2026-03-22T09:57:02Z</time></trkpt><trkpt lat="43.359524586404056" lon="2.1721280703274815"><ele>464.0</ele><time>2026-03-22T09:57:03Z</time></trkpt><trkpt lat="43.35951390632828" lon="2.1722305830854167"><ele>464.0</ele><time>2026-03-22T09:57:04Z</time></trkpt><trkpt lat="43.35952220185339" lon="2.1723194808267072"><ele>464.0</ele><time>2026-03-22T09:57:05Z</time></trkpt><trkpt lat="43.35949381819095" lon="2.172469248252511"><ele>463.99999999999994</ele><time>2026-03-22T09:57:07Z</time></trkpt><trkpt lat="43.35945222006335" lon="2.17261268305262"><ele>464.0</ele><time>2026-03-22T09:57:09Z</time></trkpt><trkpt lat="43.35942560916093" lon="2.1727128318256357"><ele>465.2</ele><time>2026-03-22T09:57:10Z</time></trkpt><trkpt lat="43.35939711100186" lon="2.1728173360216263"><ele>466.4</ele><time>2026-03-22T09:57:11Z</time></trkpt><trkpt lat="43.35936097947722" lon="2.172947539784989"><ele>467.6</ele><time>2026-03-22T09:57:12Z</time></trkpt><trkpt lat="43.359326477364746" lon="2.1730895022332453"><ele>468.8</ele><time>2026-03-22T09:57:13Z</time></trkpt><trkpt lat="43.35928149732037" lon="2.173208719942971"><ele>470.0</ele><time>2026-03-22T09:57:14Z</time></trkpt><trkpt lat="43.3592460723254" lon="2.173340845881337"><ele>472.2</ele><time>2026-03-22T09:57:15Z</time></trkpt><trkpt lat="43.35920654873201" lon="2.173485700557287"><ele>474.4</ele><time>2026-03-22T09:57:16Z</time></trkpt><trkpt lat="43.3591670778207" lon="2.1736319729656675"><ele>476.6</ele><time>2026-03-22T09:57:17Z</time></trkpt><trkpt lat="43.359131352634094" lon="2.173774192556261"><ele>478.8</ele><time>2026-03-22T09:57:18Z</time></trkpt><trkpt lat="43.35910997783404" lon="2.1739228286513073"><ele>481.0</ele><time>2026-03-22T09:57:19Z</time></trkpt><trkpt lat="43.359063300187834" lon="2.1740642898510707"><ele>483.5</ele><time>2026-03-22T09:57:20Z</time></trkpt><trkpt lat="43.35902063554402" lon="2.1742136737287496"><ele>486.0</ele><time>2026-03-22T09:57:21Z</time></trkpt><trkpt lat="43.358976185472116" lon="2.1743579388574714"><ele>488.5</ele><time>2026-03-22T09:57:22Z</time></trkpt><trkpt lat="43.35894365153106" lon="2.1745117901171684"><ele>491.0</ele><time>2026-03-22T09:57:23Z</time></trkpt><trkpt lat="43.358904263051905" lon="2.1746686038604963"><ele>491.0</ele><time>2026-03-22T09:57:24Z</time></trkpt><trkpt lat="43.35888767848905" lon="2.1748117932057136"><ele>491.0</ele><time>2026-03-22T09:57:25Z</time></trkpt><trkpt lat="43.35889617136126" lon="2.174957020463523"><ele>491.0</ele><time>2026-03-22T09:57:26Z</time></trkpt><trkpt lat="43.35892032563076" lon="2.175161666989159"><ele>491.0</ele><time>2026-03-22T09:57:27Z</time></trkpt><trkpt lat="43.35898042495595" lon="2.175346356022768"><ele>490.5</ele><time>2026-03-22T09:57:28Z</time></trkpt><trkpt lat="43.359049038554566" lon="2.1755055883749703"><ele>490.0</ele><time>2026-03-22T09:57:29Z</time></trkpt><trkpt lat="43.35911222780365" lon="2.1756605023058726"><ele>489.5</ele><time>2026-03-22T09:57:30Z</time></trkpt><trkpt lat="43.35918026918724" lon="2.175813731007991"><ele>489.0</ele><time>2026-03-22T09:57:31Z</time></trkpt><trkpt lat="43.35925171331358" lon="2.1759716238924898"><ele>487.25</ele><time>2026-03-22T09:57:32Z</time></trkpt><trkpt lat="43.35932496066437" lon="2.176135269319648"><ele>485.5</ele><time>2026-03-22T09:57:33Z</time></trkpt><trkpt lat="43.35939647048362" lon="2.176296913233371"><ele>483.75</ele><time>2026-03-22T09:57:34Z</time></trkpt><trkpt lat="43.359461577172375" lon="2.176447209912356"><ele>482.0</ele><time>2026-03-22T09:57:35Z</time></trkpt><trkpt lat="43.3595232552023" lon="2.1765980126974585"><ele>480.6</ele><time>2026-03-22T09:57:36Z</time></trkpt><trkpt lat="43.35957220277576" lon="2.1767429178681827"><ele>479.20000000000005</ele><time>2026-03-22T09:57:37Z</time></trkpt><trkpt lat="43.35960334012355" lon="2.1768763637767425"><ele>477.8</ele><time>2026-03-22T09:57:38Z</time></trkpt><trkpt lat="43.35961714848787" lon="2.177017814522868"><ele>476.4</ele><time>2026-03-22T09:57:39Z</time></trkpt><trkpt lat="43.359599306513445" lon="2.177159734889209"><ele>475.0</ele><time>2026-03-22T09:57:40Z</time></trkpt><trkpt lat="43.35955786086865" lon="2.1772861652849276"><ele>476.6</ele><time>2026-03-22T09:57:41Z</time></trkpt><trkpt lat="43.359522047960716" lon="2.1773951154217155"><ele>478.2</ele><time>2026-03-22T09:57:42Z</time></trkpt><trkpt lat="43.35945097355068" lon="2.1774639690879485"><ele>479.79999999999995</ele><time>2026-03-22T09:57:43Z</time></trkpt><trkpt lat="43.359363846713784" lon="2.177523257797363"><ele>481.4</ele><time>2026-03-22T09:57:44Z</time></trkpt><trkpt lat="43.35925842579931" lon="2.177560856369539"><ele>483.0</ele><time>2026-03-22T09:57:45Z</time></trkpt><trkpt lat="43.359155991580714" lon="2.1775602821333324"><ele>483.0</ele><time>2026-03-22T09:57:46Z</time></trkpt><trkpt lat="43.359047275495755" lon="2.177498368766971"><ele>482.99999999999994</ele><time>2026-03-22T09:57:47Z</time></trkpt><trkpt lat="43.35894759920733" lon="2.1774370226078976"><ele>482.99999999999994</ele><time>2026-03-22T09:57:48Z</time></trkpt><trkpt lat="43.35886053616402" lon="2.1773721390682663"><ele>483.0</ele><time>2026-03-22T09:57:49Z</time></trkpt><trkpt lat="43.358757267706736" lon="2.1772994802327217"><ele>483.0</ele><time>2026-03-22T09:57:50Z</time></trkpt><trkpt lat="43.35867611611155" lon="2.17719168908235"><ele>482.5</ele><time>2026-03-22T09:57:51Z</time></trkpt><trkpt lat="43.358601796545116" lon="2.177055808130074"><ele>482.0</ele><time>2026-03-22T09:57:52Z</time></trkpt><trkpt lat="43.358519394002265" lon="2.1769238088550655"><ele>481.5</ele><time>2026-03-22T09:57:53Z</time></trkpt><trkpt lat="43.35844509320839" lon="2.1767861087647744"><ele>481.0</ele><time>2026-03-22T09:57:54Z</time></trkpt><trkpt lat="43.358365721890955" lon="2.1766550265400046"><ele>481.0</ele><time>2026-03-22T09:57:55Z</time></trkpt><trkpt lat="43.35827716471641" lon="2.1765418710949493"><ele>481.0</ele><time>2026-03-22T09:57:56Z</time></trkpt><trkpt lat="43.358182617052464" lon="2.176446993447452"><ele>481.0</ele><time>2026-03-22T09:57:57Z</time></trkpt><trkpt lat="43.358065199352204" lon="2.176393297974251"><ele>481.0</ele><time>2026-03-22T09:57:58Z</time></trkpt><trkpt lat="43.35794769382604" lon="2.176360690344043"><ele>477.0</ele><time>2026-03-22T09:57:59Z</time></trkpt><trkpt lat="43.35783459312738" lon="2.176344794809991"><ele>473.0</ele><time>2026-03-22T09:58:00Z</time></trkpt><trkpt lat="43.357716107961224" lon="2.176357130397643"><ele>469.0</ele><time>2026-03-22T09:58:01Z</time></trkpt><trkpt lat="43.35758990752928" lon="2.176390181384144"><ele>465.0</ele><time>2026-03-22T09:58:02Z</time></trkpt><trkpt lat="43.35747026556461" lon="2.1764528016487095"><ele>467.5</ele><time>2026-03-22T09:58:03Z</time></trkpt><trkpt lat="43.357345000523964" lon="2.176520145186221"><ele>470.0</ele><time>2026-03-22T09:58:04Z</time></trkpt><trkpt lat="43.35721482798307" lon="2.1766019275347666"><ele>472.5</ele><time>2026-03-22T09:58:05Z</time></trkpt><trkpt lat="43.357084901734154" lon="2.1766881876942836"><ele>475.0</ele><time>2026-03-22T09:58:06Z</time></trkpt><trkpt lat="43.35695092442761" lon="2.176775913688404"><ele>475.0</ele><time>2026-03-22T09:58:07Z</time></trkpt><trkpt lat="43.356817953955414" lon="2.1768646205415023"><ele>475.0</ele><time>2026-03-22T09:58:08Z</time></trkpt><trkpt lat="43.3566807895673" lon="2.176947055162217"><ele>475.0</ele><time>2026-03-22T09:58:09Z</time></trkpt><trkpt lat="43.356550602991184" lon="2.177026119046247"><ele>475.0</ele><time>2026-03-22T09:58:10Z</time></trkpt><trkpt lat="43.35642438551379" lon="2.1771014834599476"><ele>475.5</ele><time>2026-03-22T09:58:11Z</time></trkpt><trkpt lat="43.356292647935206" lon="2.1771841643075582"><ele>476.0</ele><time>2026-03-22T09:58:12Z</time></trkpt><trkpt lat="43.356156642326766" lon="2.177259600059132"><ele>476.5</ele><time>2026-03-22T09:58:13Z</time></trkpt><trkpt lat="43.356013481397596" lon="2.177327028858289"><ele>477.0</ele><time>2026-03-22T09:58:14Z</time></trkpt><trkpt lat="43.35586805443761" lon="2.1773829600577947"><ele>477.0</ele><time>2026-03-22T09:58:15Z</time></trkpt><trkpt lat="43.35572678088379" lon="2.17743354465839"><ele>477.0</ele><time>2026-03-22T09:58:16Z</time></trkpt><trkpt lat="43.355581866275166" lon="2.1775013949675466"><ele>477.0</ele><time>2026-03-22T09:58:17Z</time></trkpt><trkpt lat="43.355422123687354" lon="2.177567589076615"><ele>475.33333333333337</ele><time>2026-03-22T09:58:18Z</time></trkpt><trkpt lat="43.35526923030829" lon="2.177631926123021"><ele>473.6666666666667</ele><time>2026-03-22T09:58:19Z</time></trkpt><trkpt lat="43.355099756288936" lon="2.1776943512197757"><ele>472.0</ele><time>2026-03-22T09:58:20Z</time></trkpt><trkpt lat="43.354934809774434" lon="2.177767090737881"><ele>472.0</ele><time>2026-03-22T09:58:21Z</time></trkpt><trkpt lat="43.35476715620618" lon="2.1778364331930655"><ele>472.0</ele><time>2026-03-22T09:58:22Z</time></trkpt><trkpt lat="43.354596993224106" lon="2.1779045048262597"><ele>472.0</ele><time>2026-03-22T09:58:23Z</time></trkpt><trkpt lat="43.35442635566601" lon="2.1779745608957586"><ele>469.6666666666667</ele><time>2026-03-22T09:58:24Z</time></trkpt><trkpt lat="43.354237278909814" lon="2.1780460623708637"><ele>467.33333333333337</ele><time>2026-03-22T09:58:25Z</time></trkpt><trkpt lat="43.35405468797759" lon="2.1781150452006535"><ele>465.0</ele><time>2026-03-22T09:58:26Z</time></trkpt><trkpt lat="43.353875887982085" lon="2.1781816682602377"><ele>464.0</ele><time>2026-03-22T09:58:27Z</time></trkpt><trkpt lat="43.353697813745875" lon="2.178250923915143"><ele>463.0</ele><time>2026-03-22T09:58:28Z</time></trkpt><trkpt lat="43.35352471899606" lon="2.1783229262458494"><ele>462.0</ele><time>2026-03-22T09:58:29Z</time></trkpt><trkpt lat="43.353344348861384" lon="2.1783833524669363"><ele>462.0</ele><time>2026-03-22T09:58:30Z</time></trkpt><trkpt lat="43.35317049099058" lon="2.1784529826051284"><ele>462.0</ele><time>2026-03-22T09:58:31Z</time></trkpt><trkpt lat="43.352994051887414" lon="2.1785221059748796"><ele>462.0</ele><time>2026-03-22T09:58:32Z</time></trkpt><trkpt lat="43.352813697665965" lon="2.1785829728701414"><ele>460.33333333333337</ele><time>2026-03-22T09:58:33Z</time></trkpt><trkpt lat="43.35264102535172" lon="2.1786534326731326"><ele>458.6666666666667</ele><time>2026-03-22T09:58:34Z</time></trkpt><trkpt lat="43.35246895846465" lon="2.178724536884581"><ele>457.0</ele><time>2026-03-22T09:58:35Z</time></trkpt><trkpt lat="43.352295748597605" lon="2.1787924525339655"><ele>455.33333333333337</ele><time>2026-03-22T09:58:36Z</time></trkpt><trkpt lat="43.352122360450245" lon="2.178851260012904"><ele>453.66666666666663</ele><time>2026-03-22T09:58:37Z</time></trkpt><trkpt lat="43.351954719082926" lon="2.178912599920054"><ele>452.0</ele><time>2026-03-22T09:58:38Z</time></trkpt><trkpt lat="43.35178662046149" lon="2.1789792516166324"><ele>451.66666666666663</ele><time>2026-03-22T09:58:39Z</time></trkpt><trkpt lat="43.35161799725385" lon="2.179043899145882"><ele>451.33333333333337</ele><time>2026-03-22T09:58:40Z</time></trkpt><trkpt lat="43.35144763409784" lon="2.1791077804368943"><ele>451.0</ele><time>2026-03-22T09:58:41Z</time></trkpt><trkpt lat="43.351270437934495" lon="2.1791713777512043"><ele>451.0</ele><time>2026-03-22T09:58:42Z</time></trkpt><trkpt lat="43.351095472203795" lon="2.179234725378598"><ele>451.0</ele><time>2026-03-22T09:58:43Z</time></trkpt><trkpt lat="43.35092047463089" lon="2.1792938146990224"><ele>451.0</ele><time>2026-03-22T09:58:44Z</time></trkpt><trkpt lat="43.35074518270043" lon="2.1793462285824288"><ele>451.0</ele><time>2026-03-22T09:58:45Z</time></trkpt><trkpt lat="43.35057401172031" lon="2.1793937936523107"><ele>451.0</ele><time>2026-03-22T09:58:46Z</time></trkpt><trkpt lat="43.35039592954499" lon="2.1794303678604954"><ele>451.0</ele><time>2026-03-22T09:58:47Z</time></trkpt><trkpt lat="43.3502192840708" lon="2.1794640415437705"><ele>449.33333333333337</ele><time>2026-03-22T09:58:48Z</time></trkpt><trkpt lat="43.35004315786887" lon="2.179500718517521"><ele>447.66666666666663</ele><time>2026-03-22T09:58:49Z</time></trkpt><trkpt lat="43.34987015017755" lon="2.179535936875744"><ele>446.0</ele><time>2026-03-22T09:58:50Z</time></trkpt><trkpt lat="43.34970004906868" lon="2.179571586165961"><ele>442.66666666666663</ele><time>2026-03-22T09:58:51Z</time></trkpt><trkpt lat="43.34951946579936" lon="2.179606292877085"><ele>439.33333333333337</ele><time>2026-03-22T09:58:52Z</time></trkpt><trkpt lat="43.34933336212839" lon="2.179644411980369"><ele>436.0</ele><time>2026-03-22T09:58:53Z</time></trkpt><trkpt lat="43.34914534003661" lon="2.179690122986703"><ele>436.0</ele><time>2026-03-22T09:58:54Z</time></trkpt><trkpt lat="43.34895676839258" lon="2.179727774667163"><ele>436.0</ele><time>2026-03-22T09:58:55Z</time></trkpt><trkpt lat="43.34876382402949" lon="2.179767456056102"><ele>436.0</ele><time>2026-03-22T09:58:56Z</time></trkpt><trkpt lat="43.34856850388096" lon="2.1798151080910513"><ele>433.6666666666667</ele><time>2026-03-22T09:58:57Z</time></trkpt><trkpt lat="43.3483518814923" lon="2.1798490243656876"><ele>431.33333333333337</ele><time>2026-03-22T09:58:58Z</time></trkpt><trkpt lat="43.34816259671537" lon="2.1798927000127777"><ele>429.0</ele><time>2026-03-22T09:58:59Z</time></trkpt><trkpt lat="43.347964268820505" lon="2.1799447232868983"><ele>426.0</ele><time>2026-03-22T09:59:00Z</time></trkpt><trkpt lat="43.34776240505133" lon="2.1799860336020234"><ele>423.0</ele><time>2026-03-22T09:59:01Z</time></trkpt><trkpt lat="43.3475559217033" lon="2.1800174957600373"><ele>420.0</ele><time>2026-03-22T09:59:02Z</time></trkpt><trkpt lat="43.34735949929415" lon="2.180055090502575"><ele>416.66666666666663</ele><time>2026-03-22T09:59:03Z</time></trkpt><trkpt lat="43.347169499757634" lon="2.1800987114668318"><ele>413.3333333333333</ele><time>2026-03-22T09:59:04Z</time></trkpt><trkpt lat="43.34697084492055" lon="2.1801345925123803"><ele>410.0</ele><time>2026-03-22T09:59:05Z</time></trkpt><trkpt lat="43.346774118130405" lon="2.1801769518882224"><ele>410.0</ele><time>2026-03-22T09:59:06Z</time></trkpt><trkpt lat="43.34657303139648" lon="2.1802204758523893"><ele>410.0</ele><time>2026-03-22T09:59:07Z</time></trkpt><trkpt lat="43.34636863345355" lon="2.1802560645928595"><ele>410.0</ele><time>2026-03-22T09:59:08Z</time></trkpt><trkpt lat="43.34615952061007" lon="2.1803009511695"><ele>409.0</ele><time>2026-03-22T09:59:09Z</time></trkpt><trkpt lat="43.3459646812879" lon="2.1803477930624346"><ele>408.0</ele><time>2026-03-22T09:59:10Z</time></trkpt><trkpt lat="43.34578382402047" lon="2.1803957329737695"><ele>407.0</ele><time>2026-03-22T09:59:11Z</time></trkpt><trkpt lat="43.34560602756381" lon="2.180434566424277"><ele>406.0</ele><time>2026-03-22T09:59:12Z</time></trkpt><trkpt lat="43.34543633328473" lon="2.1805048767681803"><ele>405.0</ele><time>2026-03-22T09:59:13Z</time></trkpt><trkpt lat="43.345241355353075" lon="2.180641977901518"><ele>404.0</ele><time>2026-03-22T09:59:14Z</time></trkpt><trkpt lat="43.34503357889887" lon="2.1807808214118904"><ele>404.0</ele><time>2026-03-22T09:59:15Z</time></trkpt><trkpt lat="43.34485212341002" lon="2.1809157374219854"><ele>404.0</ele><time>2026-03-22T09:59:16Z</time></trkpt><trkpt lat="43.34466105583319" lon="2.181023515038321"><ele>404.0</ele><time>2026-03-22T09:59:17Z</time></trkpt><trkpt lat="43.344465333116325" lon="2.1811552928976177"><ele>400.0</ele><time>2026-03-22T09:59:18Z</time></trkpt><trkpt lat="43.344258207409716" lon="2.181288419159114"><ele>396.0</ele><time>2026-03-22T09:59:19Z</time></trkpt><trkpt lat="43.344041604096596" lon="2.1814303018745997"><ele>394.5</ele><time>2026-03-22T09:59:20Z</time></trkpt><trkpt lat="43.34382723414979" lon="2.1815772299496436"><ele>393.0</ele><time>2026-03-22T09:59:21Z</time></trkpt><trkpt lat="43.34360767052838" lon="2.181729333155039"><ele>393.0</ele><time>2026-03-22T09:59:22Z</time></trkpt><trkpt lat="43.34337990957416" lon="2.181881886928082"><ele>393.0</ele><time>2026-03-22T09:59:23Z</time></trkpt><trkpt lat="43.3431264972238" lon="2.1820513717732277"><ele>390.5</ele><time>2026-03-22T09:59:24Z</time></trkpt><trkpt lat="43.34285161606851" lon="2.18221399403322"><ele>388.0</ele><time>2026-03-22T09:59:25Z</time></trkpt><trkpt lat="43.34257956538603" lon="2.182393705576581"><ele>388.0</ele><time>2026-03-22T09:59:26Z</time></trkpt><trkpt lat="43.34231471433039" lon="2.1825933894452656"><ele>388.0</ele><time>2026-03-22T09:59:27Z</time></trkpt><trkpt lat="43.34206118077899" lon="2.1827353867970305"><ele>386.5</ele><time>2026-03-22T09:59:28Z</time></trkpt><trkpt lat="43.341835179510305" lon="2.182903526783741"><ele>385.0</ele><time>2026-03-22T09:59:29Z</time></trkpt><trkpt lat="43.34161197158411" lon="2.183038951447619"><ele>385.0</ele><time>2026-03-22T09:59:30Z</time></trkpt><trkpt lat="43.34140681514578" lon="2.1831665199982435"><ele>385.0</ele><time>2026-03-22T09:59:31Z</time></trkpt><trkpt lat="43.341203393975505" lon="2.183301223073103"><ele>384.33333333333337</ele><time>2026-03-22T09:59:32Z</time></trkpt><trkpt lat="43.341006608143736" lon="2.1834329972042"><ele>383.6666666666667</ele><time>2026-03-22T09:59:33Z</time></trkpt><trkpt lat="43.34080911102715" lon="2.1835623216894904"><ele>383.0</ele><time>2026-03-22T09:59:34Z</time></trkpt><trkpt lat="43.34060250412434" lon="2.1836977609245403"><ele>382.0</ele><time>2026-03-22T09:59:35Z</time></trkpt><trkpt lat="43.34038847799669" lon="2.1838409438212447"><ele>381.0</ele><time>2026-03-22T09:59:36Z</time></trkpt><trkpt lat="43.3401718558557" lon="2.183983804174271"><ele>381.5</ele><time>2026-03-22T09:59:37Z</time></trkpt><trkpt lat="43.33995951650016" lon="2.1841220202555625"><ele>382.0</ele><time>2026-03-22T09:59:38Z</time></trkpt><trkpt lat="43.339748288829874" lon="2.1842573950106887"><ele>381.0</ele><time>2026-03-22T09:59:39Z</time></trkpt><trkpt lat="43.339542284907346" lon="2.1843948523323076"><ele>380.0</ele><time>2026-03-22T09:59:40Z</time></trkpt><trkpt lat="43.339337801121985" lon="2.1845365199317146"><ele>380.0</ele><time>2026-03-22T09:59:41Z</time></trkpt><trkpt lat="43.339128786373784" lon="2.1846732034059926"><ele>380.0</ele><time>2026-03-22T09:59:42Z</time></trkpt><trkpt lat="43.3389234569782" lon="2.1848059211516015"><ele>376.5</ele><time>2026-03-22T09:59:43Z</time></trkpt><trkpt lat="43.33871965782852" lon="2.1849388039085778"><ele>373.0</ele><time>2026-03-22T09:59:44Z</time></trkpt><trkpt lat="43.33851092200438" lon="2.1850739926976526"><ele>373.0</ele><time>2026-03-22T09:59:45Z</time></trkpt><trkpt lat="43.338296054749115" lon="2.1852131052199533"><ele>373.0</ele><time>2026-03-22T09:59:46Z</time></trkpt><trkpt lat="43.33806870478873" lon="2.185362884068837"><ele>371.0</ele><time>2026-03-22T09:59:47Z</time></trkpt><trkpt lat="43.33782163368973" lon="2.185521607219598"><ele>369.0</ele><time>2026-03-22T09:59:48Z</time></trkpt><trkpt lat="43.3375534775779" lon="2.1856895888362295"><ele>368.5</ele><time>2026-03-22T09:59:49Z</time></trkpt><trkpt lat="43.33727919212639" lon="2.18585859951731"><ele>368.0</ele><time>2026-03-22T09:59:50Z</time></trkpt><trkpt lat="43.337006019101544" lon="2.1860337407270833"><ele>364.0</ele><time>2026-03-22T09:59:51Z</time></trkpt><trkpt lat="43.33673037063993" lon="2.186211440748362"><ele>360.0</ele><time>2026-03-22T09:59:52Z</time></trkpt><trkpt lat="43.33645566252399" lon="2.1863858820089046"><ele>357.5</ele><time>2026-03-22T09:59:53Z</time></trkpt><trkpt lat="43.336171878823905" lon="2.18656531146532"><ele>355.0</ele><time>2026-03-22T09:59:54Z</time></trkpt><trkpt lat="43.33588408770036" lon="2.1867551658839317"><ele>355.0</ele><time>2026-03-22T09:59:55Z</time></trkpt><trkpt lat="43.33559544590686" lon="2.1869440627732617"><ele>355.0</ele><time>2026-03-22T09:59:56Z</time></trkpt><trkpt lat="43.335305698023085" lon="2.1871341341086654"><ele>352.5</ele><time>2026-03-22T09:59:57Z</time></trkpt><trkpt lat="43.335011759515744" lon="2.1873243344339226"><ele>350.0</ele><time>2026-03-22T09:59:58Z</time></trkpt><trkpt lat="43.3347261168763" lon="2.1875123822916254"><ele>346.5</ele><time>2026-03-22T09:59:59Z</time></trkpt><trkpt lat="43.334451745161175" lon="2.1876850455939847"><ele>343.0</ele><time>2026-03-22T10:00:00Z</time></trkpt><trkpt lat="43.33419361832329" lon="2.187846566271099"><ele>343.0</ele><time>2026-03-22T10:00:01Z</time></trkpt><trkpt lat="43.33394546955532" lon="2.1879935155419075"><ele>343.0</ele><time>2026-03-22T10:00:02Z</time></trkpt><trkpt lat="43.33370631682622" lon="2.1881428136643177"><ele>339.5</ele><time>2026-03-22T10:00:03Z</time></trkpt><trkpt lat="43.333478061014944" lon="2.188287036448087"><ele>336.0</ele><time>2026-03-22T10:00:04Z</time></trkpt><trkpt lat="43.333257160439324" lon="2.188426246546365"><ele>336.0</ele><time>2026-03-22T10:00:05Z</time></trkpt><trkpt lat="43.33305729763269" lon="2.1885500388142547"><ele>336.0</ele><time>2026-03-22T10:00:06Z</time></trkpt><trkpt lat="43.332866192007" lon="2.1886804252005536"><ele>336.0</ele><time>2026-03-22T10:00:07Z</time></trkpt><trkpt lat="43.332679754462006" lon="2.1888013298833187"><ele>334.3333333333333</ele><time>2026-03-22T10:00:08Z</time></trkpt><trkpt lat="43.332495934926825" lon="2.188916276250816"><ele>332.66666666666663</ele><time>2026-03-22T10:00:09Z</time></trkpt><trkpt lat="43.33230336537316" lon="2.1890379473669292"><ele>331.0</ele><time>2026-03-22T10:00:10Z</time></trkpt><trkpt lat="43.332110267439425" lon="2.1891630853243673"><ele>329.0</ele><time>2026-03-22T10:00:11Z</time></trkpt><trkpt lat="43.33191255215005" lon="2.189290042672007"><ele>327.0</ele><time>2026-03-22T10:00:12Z</time></trkpt><trkpt lat="43.33171243870911" lon="2.18941752192697"><ele>325.0</ele><time>2026-03-22T10:00:13Z</time></trkpt><trkpt lat="43.33151201424418" lon="2.189547394205619"><ele>322.5</ele><time>2026-03-22T10:00:14Z</time></trkpt><trkpt lat="43.331309013299446" lon="2.1896764712678785"><ele>320.0</ele><time>2026-03-22T10:00:15Z</time></trkpt><trkpt lat="43.33110170832396" lon="2.18980541225583"><ele>320.0</ele><time>2026-03-22T10:00:16Z</time></trkpt><trkpt lat="43.330892289810656" lon="2.189939612158163"><ele>320.0</ele><time>2026-03-22T10:00:17Z</time></trkpt><trkpt lat="43.33068289359828" lon="2.1900750328247054"><ele>316.0</ele><time>2026-03-22T10:00:18Z</time></trkpt><trkpt lat="43.33047062384815" lon="2.190210531916942"><ele>312.0</ele><time>2026-03-22T10:00:19Z</time></trkpt><trkpt lat="43.3302587666852" lon="2.1903452560991234"><ele>312.0</ele><time>2026-03-22T10:00:20Z</time></trkpt><trkpt lat="43.330054990026845" lon="2.190472276879296"><ele>312.0</ele><time>2026-03-22T10:00:21Z</time></trkpt><trkpt lat="43.32985803055548" lon="2.190594867156278"><ele>312.0</ele><time>2026-03-22T10:00:22Z</time></trkpt><trkpt lat="43.329670972943696" lon="2.1907153989677464"><ele>310.0</ele><time>2026-03-22T10:00:23Z</time></trkpt><trkpt lat="43.329485740390815" lon="2.1908500446343075"><ele>308.0</ele><time>2026-03-22T10:00:24Z</time></trkpt><trkpt lat="43.32931376616018" lon="2.19101880083071"><ele>306.0</ele><time>2026-03-22T10:00:25Z</time></trkpt><trkpt lat="43.32914166869062" lon="2.191230623490178"><ele>306.0</ele><time>2026-03-22T10:00:26Z</time></trkpt><trkpt lat="43.32896424545904" lon="2.1914758293769396"><ele>306.0</ele><time>2026-03-22T10:00:27Z</time></trkpt><trkpt lat="43.32880456377737" lon="2.1916938334226654"><ele>304.3333333333333</ele><time>2026-03-22T10:00:28Z</time></trkpt><trkpt lat="43.32865212673731" lon="2.1919027748417568"><ele>302.66666666666663</ele><time>2026-03-22T10:00:29Z</time></trkpt><trkpt lat="43.32849849032125" lon="2.1921111406162965"><ele>301.0</ele><time>2026-03-22T10:00:30Z</time></trkpt><trkpt lat="43.328343721184865" lon="2.1923210171707126"><ele>302.0</ele><time>2026-03-22T10:00:31Z</time></trkpt><trkpt lat="43.328187269369685" lon="2.192532629731238"><ele>303.0</ele><time>2026-03-22T10:00:32Z</time></trkpt><trkpt lat="43.328030055684536" lon="2.1927387006737193"><ele>304.0</ele><time>2026-03-22T10:00:33Z</time></trkpt><trkpt lat="43.32788595674514" lon="2.1929507686127336"><ele>300.5</ele><time>2026-03-22T10:00:34Z</time></trkpt><trkpt lat="43.327748733546365" lon="2.1931916164114655"><ele>297.0</ele><time>2026-03-22T10:00:35Z</time></trkpt><trkpt lat="43.32761442852989" lon="2.193476283470472"><ele>297.0</ele><time>2026-03-22T10:00:36Z</time></trkpt><trkpt lat="43.32748498321757" lon="2.19378131985866"><ele>297.0</ele><time>2026-03-22T10:00:37Z</time></trkpt><trkpt lat="43.32736266631963" lon="2.1940461550143895"><ele>296.5</ele><time>2026-03-22T10:00:38Z</time></trkpt><trkpt lat="43.327242095379205" lon="2.194312061329747"><ele>296.0</ele><time>2026-03-22T10:00:39Z</time></trkpt><trkpt lat="43.32712649075413" lon="2.1945743168294745"><ele>292.0</ele><time>2026-03-22T10:00:40Z</time></trkpt><trkpt lat="43.32700566239368" lon="2.194838247425765"><ele>288.0</ele><time>2026-03-22T10:00:41Z</time></trkpt><trkpt lat="43.32688411982991" lon="2.195106458934709"><ele>288.0</ele><time>2026-03-22T10:00:42Z</time></trkpt><trkpt lat="43.32676342788556" lon="2.195375141709792"><ele>288.0</ele><time>2026-03-22T10:00:43Z</time></trkpt><trkpt lat="43.326631964837496" lon="2.195623555387558"><ele>287.0</ele><time>2026-03-22T10:00:44Z</time></trkpt><trkpt lat="43.326517055872934" lon="2.1958766699172836"><ele>286.0</ele><time>2026-03-22T10:00:45Z</time></trkpt><trkpt lat="43.326416668261025" lon="2.196137413822576"><ele>285.0</ele><time>2026-03-22T10:00:46Z</time></trkpt><trkpt lat="43.326299664539945" lon="2.1963897926557925"><ele>283.0</ele><time>2026-03-22T10:00:47Z</time></trkpt><trkpt lat="43.32615658040869" lon="2.196619784676393"><ele>281.0</ele><time>2026-03-22T10:00:48Z</time></trkpt><trkpt lat="43.326011194240714" lon="2.196828434778327"><ele>279.0</ele><time>2026-03-22T10:00:49Z</time></trkpt><trkpt lat="43.32585833461141" lon="2.1970183773947065"><ele>279.0</ele><time>2026-03-22T10:00:50Z</time></trkpt><trkpt lat="43.325689746151276" lon="2.1971807180614795"><ele>279.0</ele><time>2026-03-22T10:00:51Z</time></trkpt><trkpt lat="43.32552756018028" lon="2.1973409308790695"><ele>279.0</ele><time>2026-03-22T10:00:52Z</time></trkpt><trkpt lat="43.32536407113448" lon="2.1974957781015196"><ele>278.3333333333333</ele><time>2026-03-22T10:00:53Z</time></trkpt><trkpt lat="43.32519743481584" lon="2.1976401546228503"><ele>277.66666666666663</ele><time>2026-03-22T10:00:54Z</time></trkpt><trkpt lat="43.3250120919085" lon="2.1977626363771594"><ele>277.0</ele><time>2026-03-22T10:00:55Z</time></trkpt><trkpt lat="43.32480344969322" lon="2.1978752037761224"><ele>277.0</ele><time>2026-03-22T10:00:56Z</time></trkpt><trkpt lat="43.32459530255361" lon="2.1979841964711504"><ele>277.0</ele><time>2026-03-22T10:00:57Z</time></trkpt><trkpt lat="43.32438293049971" lon="2.1980961371344683"><ele>278.0</ele><time>2026-03-22T10:00:58Z</time></trkpt><trkpt lat="43.32416367592808" lon="2.1982127781633216"><ele>279.0</ele><time>2026-03-22T10:00:59Z</time></trkpt><trkpt lat="43.32392992614168" lon="2.198340234144461"><ele>280.0</ele><time>2026-03-22T10:01:00Z</time></trkpt><trkpt lat="43.32368935949321" lon="2.1984701767496317"><ele>281.0</ele><time>2026-03-22T10:01:01Z</time></trkpt><trkpt lat="43.32344771773126" lon="2.198601796231836"><ele>281.0</ele><time>2026-03-22T10:01:02Z</time></trkpt><trkpt lat="43.3232126111754" lon="2.1987325299704805"><ele>281.0</ele><time>2026-03-22T10:01:03Z</time></trkpt><trkpt lat="43.32299432168519" lon="2.198854291147301"><ele>281.6666666666667</ele><time>2026-03-22T10:01:04Z</time></trkpt><trkpt lat="43.322786496181735" lon="2.198972013652666"><ele>282.3333333333333</ele><time>2026-03-22T10:01:05Z</time></trkpt><trkpt lat="43.32257931458384" lon="2.1990828886579323"><ele>283.0</ele><time>2026-03-22T10:01:06Z</time></trkpt><trkpt lat="43.3223838080943" lon="2.199188432119007"><ele>284.0</ele><time>2026-03-22T10:01:07Z</time></trkpt><trkpt lat="43.32219089886353" lon="2.1992934674280042"><ele>285.0</ele><time>2026-03-22T10:01:08Z</time></trkpt><trkpt lat="43.322004771776335" lon="2.1993925409094044"><ele>286.0</ele><time>2026-03-22T10:01:09Z</time></trkpt><trkpt lat="43.321832467413685" lon="2.19948531504865"><ele>286.0</ele><time>2026-03-22T10:01:10Z</time></trkpt><trkpt lat="43.321673323166145" lon="2.1995738633256594"><ele>286.0</ele><time>2026-03-22T10:01:11Z</time></trkpt><trkpt lat="43.321518778358374" lon="2.1996715440321646"><ele>286.0</ele><time>2026-03-22T10:01:12Z</time></trkpt><trkpt lat="43.32137736801981" lon="2.199806922384874"><ele>287.66666666666663</ele><time>2026-03-22T10:01:13Z</time></trkpt><trkpt lat="43.32123603216034" lon="2.199983116429892"><ele>289.3333333333333</ele><time>2026-03-22T10:01:14Z</time></trkpt><trkpt lat="43.32108485788283" lon="2.200201268709353"><ele>291.0</ele><time>2026-03-22T10:01:15Z</time></trkpt><trkpt lat="43.32093658917991" lon="2.2004227781276855"><ele>291.0</ele><time>2026-03-22T10:01:16Z</time></trkpt><trkpt lat="43.32078899485784" lon="2.200599777698162"><ele>291.0</ele><time>2026-03-22T10:01:17Z</time></trkpt><trkpt lat="43.32065001024521" lon="2.200793462428493"><ele>291.0</ele><time>2026-03-22T10:01:18Z</time></trkpt><trkpt lat="43.320514557070624" lon="2.200986978102025"><ele>290.3333333333333</ele><time>2026-03-22T10:01:19Z</time></trkpt><trkpt lat="43.320382506249466" lon="2.201175632962574"><ele>289.66666666666663</ele><time>2026-03-22T10:01:20Z</time></trkpt><trkpt lat="43.32024605944624" lon="2.201368535316126"><ele>289.0</ele><time>2026-03-22T10:01:21Z</time></trkpt><trkpt lat="43.320107010669595" lon="2.2015610212311962"><ele>288.3333333333333</ele><time>2026-03-22T10:01:22Z</time></trkpt><trkpt lat="43.31996485327128" lon="2.2017564355417982"><ele>287.6666666666667</ele><time>2026-03-22T10:01:23Z</time></trkpt><trkpt lat="43.31981996724314" lon="2.201951760424717"><ele>287.0</ele><time>2026-03-22T10:01:24Z</time></trkpt><trkpt lat="43.31966967205927" lon="2.20215736303814"><ele>282.0</ele><time>2026-03-22T10:01:25Z</time></trkpt><trkpt lat="43.31951459425656" lon="2.202371906356686"><ele>277.0</ele><time>2026-03-22T10:01:26Z</time></trkpt><trkpt lat="43.31934612762415" lon="2.20260692873509"><ele>277.0</ele><time>2026-03-22T10:01:27Z</time></trkpt><trkpt lat="43.31917251398654" lon="2.202850592008051"><ele>277.0</ele><time>2026-03-22T10:01:28Z</time></trkpt><trkpt lat="43.3190119838477" lon="2.203076181556095"><ele>271.5</ele><time>2026-03-22T10:01:29Z</time></trkpt><trkpt lat="43.31885275390488" lon="2.203303444046344"><ele>266.0</ele><time>2026-03-22T10:01:30Z</time></trkpt><trkpt lat="43.31869247864327" lon="2.20353219845128"><ele>266.0</ele><time>2026-03-22T10:01:31Z</time></trkpt><trkpt lat="43.318530521680614" lon="2.203763353068869"><ele>266.0</ele><time>2026-03-22T10:01:32Z</time></trkpt><trkpt lat="43.31837644484335" lon="2.2039832606244327"><ele>263.33333333333337</ele><time>2026-03-22T10:01:33Z</time></trkpt><trkpt lat="43.318226422951994" lon="2.204198367394338"><ele>260.6666666666667</ele><time>2026-03-22T10:01:34Z</time></trkpt><trkpt lat="43.318078671303994" lon="2.2044105530509186"><ele>258.0</ele><time>2026-03-22T10:01:35Z</time></trkpt><trkpt lat="43.31793022618576" lon="2.204625216972202"><ele>255.66666666666669</ele><time>2026-03-22T10:01:36Z</time></trkpt><trkpt lat="43.31779030355859" lon="2.204851610918111"><ele>253.33333333333334</ele><time>2026-03-22T10:01:37Z</time></trkpt><trkpt lat="43.31763916139877" lon="2.2050623889126784"><ele>251.0</ele><time>2026-03-22T10:01:38Z</time></trkpt><trkpt lat="43.317489008549835" lon="2.2052752179471233"><ele>251.0</ele><time>2026-03-22T10:01:39Z</time></trkpt><trkpt lat="43.31733509254802" lon="2.205494820502307"><ele>251.0</ele><time>2026-03-22T10:01:40Z</time></trkpt><trkpt lat="43.3171751962303" lon="2.205716148254896"><ele>251.0</ele><time>2026-03-22T10:01:41Z</time></trkpt><trkpt lat="43.31701965797119" lon="2.2059314924364632"><ele>249.0</ele><time>2026-03-22T10:01:42Z</time></trkpt><trkpt lat="43.31686559891311" lon="2.20614655193095"><ele>247.0</ele><time>2026-03-22T10:01:43Z</time></trkpt><trkpt lat="43.31670887424143" lon="2.2063657025144146"><ele>245.0</ele><time>2026-03-22T10:01:44Z</time></trkpt><trkpt lat="43.31655318527279" lon="2.2065898051916837"><ele>243.0</ele><time>2026-03-22T10:01:45Z</time></trkpt><trkpt lat="43.31639950065499" lon="2.206811221468263"><ele>241.0</ele><time>2026-03-22T10:01:46Z</time></trkpt><trkpt lat="43.31625837703039" lon="2.207024563775819"><ele>239.0</ele><time>2026-03-22T10:01:47Z</time></trkpt><trkpt lat="43.31612102926666" lon="2.2072500479191977"><ele>237.66666666666669</ele><time>2026-03-22T10:01:48Z</time></trkpt><trkpt lat="43.31599366224004" lon="2.207494475175466"><ele>236.33333333333331</ele><time>2026-03-22T10:01:49Z</time></trkpt><trkpt lat="43.31587320116909" lon="2.2077573898492484"><ele>235.0</ele><time>2026-03-22T10:01:50Z</time></trkpt><trkpt lat="43.31575337649628" lon="2.2080237526184345"><ele>234.33333333333331</ele><time>2026-03-22T10:01:51Z</time></trkpt><trkpt lat="43.315636313930106" lon="2.208276045940593"><ele>233.66666666666669</ele><time>2026-03-22T10:01:52Z</time></trkpt><trkpt lat="43.31552214445417" lon="2.20852269941481"><ele>233.0</ele><time>2026-03-22T10:01:53Z</time></trkpt><trkpt lat="43.31540319288419" lon="2.2087806745046192"><ele>231.33333333333334</ele><time>2026-03-22T10:01:54Z</time></trkpt><trkpt lat="43.31529076708194" lon="2.2090282394546867"><ele>229.66666666666669</ele><time>2026-03-22T10:01:55Z</time></trkpt><trkpt lat="43.31518002626321" lon="2.2092683037756964"><ele>228.0</ele><time>2026-03-22T10:01:56Z</time></trkpt><trkpt lat="43.315081057462926" lon="2.20948751887099"><ele>228.0</ele><time>2026-03-22T10:01:57Z</time></trkpt><trkpt lat="43.31499462382311" lon="2.2096830870756485"><ele>228.0</ele><time>2026-03-22T10:01:58Z</time></trkpt><trkpt lat="43.31491470607633" lon="2.2098599616516865"><ele>228.0</ele><time>2026-03-22T10:01:59Z</time></trkpt><trkpt lat="43.31483380199526" lon="2.2100294533829374"><ele>227.5</ele><time>2026-03-22T10:02:00Z</time></trkpt><trkpt lat="43.314761419028436" lon="2.2101880934351814"><ele>227.0</ele><time>2026-03-22T10:02:01Z</time></trkpt><trkpt lat="43.31468910388534" lon="2.2103449265400408"><ele>226.5</ele><time>2026-03-22T10:02:02Z</time></trkpt><trkpt lat="43.31461523959614" lon="2.210511285878065"><ele>226.0</ele><time>2026-03-22T10:02:03Z</time></trkpt><trkpt lat="43.31454074251524" lon="2.2106740872952098"><ele>225.0</ele><time>2026-03-22T10:02:04Z</time></trkpt><trkpt lat="43.314460860172346" lon="2.210826035356127"><ele>224.0</ele><time>2026-03-22T10:02:05Z</time></trkpt><trkpt lat="43.314371611763754" lon="2.210957206494632"><ele>223.0</ele><time>2026-03-22T10:02:06Z</time></trkpt><trkpt lat="43.31424847738199" lon="2.2110790887971783"><ele>222.0</ele><time>2026-03-22T10:02:07Z</time></trkpt><trkpt lat="43.31409641694504" lon="2.2111838786320988"><ele>222.0</ele><time>2026-03-22T10:02:08Z</time></trkpt><trkpt lat="43.313921294959094" lon="2.2112885411089462"><ele>222.0</ele><time>2026-03-22T10:02:09Z</time></trkpt><trkpt lat="43.31375183525966" lon="2.2114063885358064"><ele>222.0</ele><time>2026-03-22T10:02:10Z</time></trkpt><trkpt lat="43.313575244506126" lon="2.2115275852729606"><ele>219.66666666666669</ele><time>2026-03-22T10:02:11Z</time></trkpt><trkpt lat="43.313404642512495" lon="2.211647861886287"><ele>217.33333333333334</ele><time>2026-03-22T10:02:12Z</time></trkpt><trkpt lat="43.31324141157517" lon="2.2117623815107676"><ele>215.0</ele><time>2026-03-22T10:02:13Z</time></trkpt><trkpt lat="43.31308366591306" lon="2.2118727987091322"><ele>213.33333333333334</ele><time>2026-03-22T10:02:14Z</time></trkpt><trkpt lat="43.31293355311125" lon="2.211980960915163"><ele>211.66666666666669</ele><time>2026-03-22T10:02:15Z</time></trkpt><trkpt lat="43.31278730217502" lon="2.2120884793862334"><ele>210.0</ele><time>2026-03-22T10:02:16Z</time></trkpt><trkpt lat="43.312650744034066" lon="2.212193473306076"><ele>210.0</ele><time>2026-03-22T10:02:17Z</time></trkpt><trkpt lat="43.312523912034194" lon="2.2123015051717148"><ele>210.0</ele><time>2026-03-22T10:02:18Z</time></trkpt><trkpt lat="43.31240871006101" lon="2.212427402390214"><ele>210.0</ele><time>2026-03-22T10:02:19Z</time></trkpt><trkpt lat="43.31231346136693" lon="2.2125791652030484"><ele>210.0</ele><time>2026-03-22T10:02:20Z</time></trkpt><trkpt lat="43.312235386698845" lon="2.212723654234508"><ele>207.25</ele><time>2026-03-22T10:02:21Z</time></trkpt><trkpt lat="43.312167441335355" lon="2.212867184746058"><ele>204.5</ele><time>2026-03-22T10:02:22Z</time></trkpt><trkpt lat="43.31210589426161" lon="2.2130189724522147"><ele>201.75</ele><time>2026-03-22T10:02:23Z</time></trkpt><trkpt lat="43.3120500618083" lon="2.213179711193907"><ele>199.0</ele><time>2026-03-22T10:02:24Z</time></trkpt><trkpt lat="43.312014275417475" lon="2.213337881444923"><ele>196.39999999999998</ele><time>2026-03-22T10:02:25Z</time></trkpt><trkpt lat="43.311993842618676" lon="2.213487131777311"><ele>193.8</ele><time>2026-03-22T10:02:26Z</time></trkpt><trkpt lat="43.31197755660629" lon="2.213632962607316"><ele>191.2</ele><time>2026-03-22T10:02:27Z</time></trkpt><trkpt lat="43.311965841563826" lon="2.2137713131038845"><ele>188.60000000000002</ele><time>2026-03-22T10:02:28Z</time></trkpt><trkpt lat="43.311954585843694" lon="2.2139039974258243"><ele>186.0</ele><time>2026-03-22T10:02:29Z</time></trkpt><trkpt lat="43.311941161834945" lon="2.2140211675159684"><ele>184.8</ele><time>2026-03-22T10:02:30Z</time></trkpt><trkpt lat="43.31191730748352" lon="2.214123704818869"><ele>183.60000000000002</ele><time>2026-03-22T10:02:31Z</time></trkpt><trkpt lat="43.31188272133251" lon="2.214211838077663"><ele>182.4</ele><time>2026-03-22T10:02:32Z</time></trkpt><trkpt lat="43.311827799266915" lon="2.214364008821101"><ele>181.2</ele><time>2026-03-22T10:02:34Z</time></trkpt><trkpt lat="43.311781528681145" lon="2.2145016656819405"><ele>180.0</ele><time>2026-03-22T10:02:36Z</time></trkpt><trkpt lat="43.31173367803654" lon="2.214644556258679"><ele>180.0</ele><time>2026-03-22T10:02:38Z</time></trkpt><trkpt lat="43.31168927983796" lon="2.2147654810769537"><ele>180.0</ele><time>2026-03-22T10:02:40Z</time></trkpt><trkpt lat="43.31165598606894" lon="2.2148503517383267"><ele>180.0</ele><time>2026-03-22T10:02:43Z</time></trkpt><trkpt lat="43.31158062813834" lon="2.2148886733730984"><ele>180.0</ele><time>2026-03-22T10:02:47Z</time></trkpt><trkpt lat="43.311479157380546" lon="2.2147787020887293"><ele>180.0</ele><time>2026-03-22T10:02:49Z</time></trkpt><trkpt lat="43.31139955187303" lon="2.214680108021102"><ele>181.0</ele><time>2026-03-22T10:02:51Z</time></trkpt><trkpt lat="43.31131421056505" lon="2.214600300381556"><ele>182.0</ele><time>2026-03-22T10:02:53Z</time></trkpt><trkpt lat="43.3112217842775" lon="2.2145197477897796"><ele>183.0</ele><time>2026-03-22T10:02:55Z</time></trkpt><trkpt lat="43.31111410981831" lon="2.2144467060763784"><ele>184.0</ele><time>2026-03-22T10:02:57Z</time></trkpt><trkpt lat="43.31103182959306" lon="2.2143244102813435"><ele>184.0</ele><time>2026-03-22T10:02:59Z</time></trkpt><trkpt lat="43.31097731127192" lon="2.2142721661219604"><ele>184.0</ele><time>2026-03-22T10:03:00Z</time></trkpt><trkpt lat="43.310911116805265" lon="2.2142307745590992"><ele>184.0</ele><time>2026-03-22T10:03:01Z</time></trkpt><trkpt lat="43.31084158112388" lon="2.214168049119244"><ele>184.0</ele><time>2026-03-22T10:03:02Z</time></trkpt><trkpt lat="43.31078160992248" lon="2.214122567074263"><ele>184.0</ele><time>2026-03-22T10:03:03Z</time></trkpt><trkpt lat="43.310715663123275" lon="2.2140743581164264"><ele>184.0</ele><time>2026-03-22T10:03:04Z</time></trkpt><trkpt lat="43.310650178096566" lon="2.214038254932676"><ele>184.0</ele><time>2026-03-22T10:03:05Z</time></trkpt><trkpt lat="43.31057222927429" lon="2.214052425880521"><ele>183.5</ele><time>2026-03-22T10:03:06Z</time></trkpt><trkpt lat="43.31045920902958" lon="2.2140053241592077"><ele>183.0</ele><time>2026-03-22T10:03:08Z</time></trkpt><trkpt lat="43.31035529161298" lon="2.2139931647416455"><ele>182.5</ele><time>2026-03-22T10:03:10Z</time></trkpt><trkpt lat="43.31027541096579" lon="2.2139581623246"><ele>182.0</ele><time>2026-03-22T10:03:12Z</time></trkpt><trkpt lat="43.31021324442301" lon="2.213926412460127"><ele>181.5</ele><time>2026-03-22T10:03:14Z</time></trkpt><trkpt lat="43.31014644994094" lon="2.213897649698061"><ele>181.0</ele><time>2026-03-22T10:03:16Z</time></trkpt><trkpt lat="43.310077447264234" lon="2.213960720221435"><ele>181.0</ele><time>2026-03-22T10:03:18Z</time></trkpt><trkpt lat="43.31003746219666" lon="2.2140600009993907"><ele>181.0</ele><time>2026-03-22T10:03:20Z</time></trkpt><trkpt lat="43.310009463816435" lon="2.214173961392388"><ele>181.0</ele><time>2026-03-22T10:03:22Z</time></trkpt><trkpt lat="43.30998805664814" lon="2.2142878281824134"><ele>181.0</ele><time>2026-03-22T10:03:24Z</time></trkpt><trkpt lat="43.309957642058556" lon="2.2143839146475273"><ele>181.0</ele><time>2026-03-22T10:03:26Z</time></trkpt><trkpt lat="43.30990919709136" lon="2.2144881758708124"><ele>181.0</ele><time>2026-03-22T10:03:28Z</time></trkpt><trkpt lat="43.309852662143754" lon="2.2146104252969634"><ele>181.0</ele><time>2026-03-22T10:03:30Z</time></trkpt><trkpt lat="43.30977719088235" lon="2.214627528183656"><ele>181.0</ele><time>2026-03-22T10:03:31Z</time></trkpt><trkpt lat="43.30969995123903" lon="2.2147568449327677"><ele>181.0</ele><time>2026-03-22T10:03:33Z</time></trkpt><trkpt lat="43.3096238719469" lon="2.2148860243018413"><ele>181.0</ele><time>2026-03-22T10:03:35Z</time></trkpt><trkpt lat="43.30955643951699" lon="2.215008118028411"><ele>181.0</ele><time>2026-03-22T10:03:37Z</time></trkpt><trkpt lat="43.309494269133964" lon="2.2151231503786732"><ele>180.0</ele><time>2026-03-22T10:03:39Z</time></trkpt><trkpt lat="43.30942252750248" lon="2.215252294618197"><ele>179.0</ele><time>2026-03-22T10:03:41Z</time></trkpt><trkpt lat="43.309347163859535" lon="2.215261091877225"><ele>178.0</ele><time>2026-03-22T10:03:42Z</time></trkpt><trkpt lat="43.309250117321376" lon="2.2152482448075688"><ele>177.0</ele><time>2026-03-22T10:03:43Z</time></trkpt><trkpt lat="43.309162091723955" lon="2.2152193413090147"><ele>176.0</ele><time>2026-03-22T10:03:44Z</time></trkpt><trkpt lat="43.30908781456637" lon="2.215194581727124"><ele>176.0</ele><time>2026-03-22T10:03:45Z</time></trkpt><trkpt lat="43.30901536713922" lon="2.2151729085838845"><ele>176.0</ele><time>2026-03-22T10:03:46Z</time></trkpt><trkpt lat="43.30894753777704" lon="2.2151509366771727"><ele>176.0</ele><time>2026-03-22T10:03:47Z</time></trkpt><trkpt lat="43.30888194500398" lon="2.2151315575948947"><ele>176.0</ele><time>2026-03-22T10:03:48Z</time></trkpt><trkpt lat="43.3088192665309" lon="2.2151067850989157"><ele>176.0</ele><time>2026-03-22T10:03:49Z</time></trkpt><trkpt lat="43.30875059562841" lon="2.215085157048504"><ele>176.0</ele><time>2026-03-22T10:03:50Z</time></trkpt><trkpt lat="43.30867981546263" lon="2.2150575939470825"><ele>176.0</ele><time>2026-03-22T10:03:51Z</time></trkpt><trkpt lat="43.3086136842927" lon="2.215037142257614"><ele>174.60000000000002</ele><time>2026-03-22T10:03:52Z</time></trkpt><trkpt lat="43.308549307816996" lon="2.215023595144485"><ele>173.2</ele><time>2026-03-22T10:03:53Z</time></trkpt><trkpt lat="43.30844358635718" lon="2.2149961970383876"><ele>171.8</ele><time>2026-03-22T10:03:55Z</time></trkpt><trkpt lat="43.30835372905387" lon="2.214990876973475"><ele>170.39999999999998</ele><time>2026-03-22T10:03:57Z</time></trkpt><trkpt lat="43.30827466283239" lon="2.2151364494321752"><ele>169.0</ele><time>2026-03-22T10:03:59Z</time></trkpt><trkpt lat="43.30823828317989" lon="2.2152412426590224"><ele>169.0</ele><time>2026-03-22T10:04:00Z</time></trkpt><trkpt lat="43.3082111718584" lon="2.2153455091916117"><ele>169.0</ele><time>2026-03-22T10:04:01Z</time></trkpt><trkpt lat="43.3081866730658" lon="2.21543933992049"><ele>169.0</ele><time>2026-03-22T10:04:02Z</time></trkpt><trkpt lat="43.308163272397216" lon="2.215528964816587"><ele>169.0</ele><time>2026-03-22T10:04:03Z</time></trkpt><trkpt lat="43.308138499328564" lon="2.2156238460240347"><ele>169.0</ele><time>2026-03-22T10:04:04Z</time></trkpt><trkpt lat="43.30811151483583" lon="2.2157271970214802"><ele>169.0</ele><time>2026-03-22T10:04:05Z</time></trkpt><trkpt lat="43.308079333702246" lon="2.2158504512236155"><ele>167.16666666666669</ele><time>2026-03-22T10:04:06Z</time></trkpt><trkpt lat="43.30804989507513" lon="2.2159632015844295"><ele>165.33333333333334</ele><time>2026-03-22T10:04:07Z</time></trkpt><trkpt lat="43.3080227953074" lon="2.2160669940764075"><ele>163.5</ele><time>2026-03-22T10:04:08Z</time></trkpt><trkpt lat="43.30799202776546" lon="2.2161848042975096"><ele>161.66666666666666</ele><time>2026-03-22T10:04:09Z</time></trkpt><trkpt lat="43.30797508950427" lon="2.216312977088319"><ele>159.83333333333331</ele><time>2026-03-22T10:04:10Z</time></trkpt><trkpt lat="43.30794784199043" lon="2.2164173461278964"><ele>158.0</ele><time>2026-03-22T10:04:11Z</time></trkpt><trkpt lat="43.30790573231293" lon="2.2165112899033237"><ele>157.0</ele><time>2026-03-22T10:04:12Z</time></trkpt><trkpt lat="43.30787909198853" lon="2.216609347626849"><ele>156.0</ele><time>2026-03-22T10:04:13Z</time></trkpt><trkpt lat="43.30785395725504" lon="2.2167018635707954"><ele>155.0</ele><time>2026-03-22T10:04:14Z</time></trkpt><trkpt lat="43.307846387167444" lon="2.216800472701799"><ele>154.0</ele><time>2026-03-22T10:04:15Z</time></trkpt><trkpt lat="43.30781316251024" lon="2.2169001461825153"><ele>153.0</ele><time>2026-03-22T10:04:16Z</time></trkpt><trkpt lat="43.30778469959646" lon="2.217002984945907"><ele>152.0</ele><time>2026-03-22T10:04:17Z</time></trkpt><trkpt lat="43.307762954579665" lon="2.2170988772214493"><ele>152.0</ele><time>2026-03-22T10:04:18Z</time></trkpt><trkpt lat="43.30773620631385" lon="2.2171863212150043"><ele>152.0</ele><time>2026-03-22T10:04:19Z</time></trkpt><trkpt lat="43.30769410506362" lon="2.2172725316800923"><ele>152.0</ele><time>2026-03-22T10:04:20Z</time></trkpt><trkpt lat="43.30766397129827" lon="2.217357975056753"><ele>152.0</ele><time>2026-03-22T10:04:21Z</time></trkpt><trkpt lat="43.307664702302766" lon="2.217444792457784"><ele>152.0</ele><time>2026-03-22T10:04:22Z</time></trkpt><trkpt lat="43.307621001828814" lon="2.2175670505317404"><ele>152.0</ele><time>2026-03-22T10:04:24Z</time></trkpt><trkpt lat="43.307554309357364" lon="2.217690176423664"><ele>151.83333333333331</ele><time>2026-03-22T10:04:26Z</time></trkpt><trkpt lat="43.307525363595516" lon="2.217775979332884"><ele>151.66666666666666</ele><time>2026-03-22T10:04:27Z</time></trkpt><trkpt lat="43.307489292250835" lon="2.2178955994601264"><ele>151.5</ele><time>2026-03-22T10:04:28Z</time></trkpt><trkpt lat="43.30748744986922" lon="2.218033511742504"><ele>151.33333333333334</ele><time>2026-03-22T10:04:29Z</time></trkpt><trkpt lat="43.307486886618115" lon="2.2181545565100707"><ele>151.16666666666669</ele><time>2026-03-22T10:04:30Z</time></trkpt><trkpt lat="43.307486156922124" lon="2.218267148958295"><ele>151.0</ele><time>2026-03-22T10:04:31Z</time></trkpt><trkpt lat="43.30748726262463" lon="2.2183789622120975"><ele>151.6</ele><time>2026-03-22T10:04:32Z</time></trkpt><trkpt lat="43.30749117978536" lon="2.218486605175988"><ele>152.2</ele><time>2026-03-22T10:04:33Z</time></trkpt><trkpt lat="43.30750740874656" lon="2.21859726358048"><ele>152.8</ele><time>2026-03-22T10:04:34Z</time></trkpt><trkpt lat="43.30753425976544" lon="2.218704600124426"><ele>153.4</ele><time>2026-03-22T10:04:35Z</time></trkpt><trkpt lat="43.3076295331169" lon="2.2187882941097983"><ele>154.0</ele><time>2026-03-22T10:04:36Z</time></trkpt><trkpt lat="43.30773448466479" lon="2.218796626581409"><ele>154.0</ele><time>2026-03-22T10:04:37Z</time></trkpt><trkpt lat="43.30781831492714" lon="2.218843029770159"><ele>154.0</ele><time>2026-03-22T10:04:38Z</time></trkpt><trkpt lat="43.30789420440783" lon="2.2188568145227694"><ele>154.0</ele><time>2026-03-22T10:04:39Z</time></trkpt><trkpt lat="43.30797425165405" lon="2.2188727438359988"><ele>154.0</ele><time>2026-03-22T10:04:40Z</time></trkpt><trkpt lat="43.308057394853854" lon="2.2188688385471567"><ele>154.0</ele><time>2026-03-22T10:04:41Z</time></trkpt><trkpt lat="43.30812459910817" lon="2.2189367789864693"><ele>154.0</ele><time>2026-03-22T10:04:42Z</time></trkpt><trkpt lat="43.30817624465396" lon="2.2190276283671033"><ele>154.5</ele><time>2026-03-22T10:04:43Z</time></trkpt><trkpt lat="43.30819579184915" lon="2.219134646175756"><ele>155.0</ele><time>2026-03-22T10:04:44Z</time></trkpt><trkpt lat="43.30819607616602" lon="2.219256200196147"><ele>155.5</ele><time>2026-03-22T10:04:45Z</time></trkpt><trkpt lat="43.308156903829186" lon="2.219359658416373"><ele>156.0</ele><time>2026-03-22T10:04:46Z</time></trkpt><trkpt lat="43.30811370639816" lon="2.2194637526909977"><ele>156.5</ele><time>2026-03-22T10:04:47Z</time></trkpt><trkpt lat="43.30805877671383" lon="2.21955428399762"><ele>157.0</ele><time>2026-03-22T10:04:48Z</time></trkpt><trkpt lat="43.30802074725106" lon="2.2196528888263125"><ele>156.99999999999997</ele><time>2026-03-22T10:04:49Z</time></trkpt><trkpt lat="43.307990670313906" lon="2.219737462218753"><ele>157.0</ele><time>2026-03-22T10:04:50Z</time></trkpt><trkpt lat="43.3079751258426" lon="2.2198321398790486"><ele>157.0</ele><time>2026-03-22T10:04:51Z</time></trkpt><trkpt lat="43.30794300677477" lon="2.2199212062449174"><ele>157.0</ele><time>2026-03-22T10:04:52Z</time></trkpt><trkpt lat="43.3079150516494" lon="2.220011443274251"><ele>157.0</ele><time>2026-03-22T10:04:53Z</time></trkpt><trkpt lat="43.30789102571105" lon="2.2201097529169314"><ele>156.99999999999997</ele><time>2026-03-22T10:04:54Z</time></trkpt><trkpt lat="43.30786898541887" lon="2.2202189958278384"><ele>157.0</ele><time>2026-03-22T10:04:55Z</time></trkpt><trkpt lat="43.30785871697003" lon="2.220339281105522"><ele>158.0</ele><time>2026-03-22T10:04:56Z</time></trkpt><trkpt lat="43.30785775077302" lon="2.2204655743832267"><ele>159.0</ele><time>2026-03-22T10:04:57Z</time></trkpt><trkpt lat="43.30786766260325" lon="2.220596175438176"><ele>160.0</ele><time>2026-03-22T10:04:58Z</time></trkpt><trkpt lat="43.30789171518862" lon="2.2207282165308357"><ele>161.0</ele><time>2026-03-22T10:04:59Z</time></trkpt><trkpt lat="43.30792193092965" lon="2.2208606951575063"><ele>162.0</ele><time>2026-03-22T10:05:00Z</time></trkpt><trkpt lat="43.307959737058646" lon="2.220985588268468"><ele>163.25</ele><time>2026-03-22T10:05:01Z</time></trkpt><trkpt lat="43.30801671371094" lon="2.221099600663572"><ele>164.5</ele><time>2026-03-22T10:05:02Z</time></trkpt><trkpt lat="43.308034138041705" lon="2.221262996415883"><ele>165.75</ele><time>2026-03-22T10:05:03Z</time></trkpt><trkpt lat="43.30810221224795" lon="2.2214174460638243"><ele>167.0</ele><time>2026-03-22T10:05:04Z</time></trkpt><trkpt lat="43.30817860056475" lon="2.221584658832607"><ele>170.5</ele><time>2026-03-22T10:05:05Z</time></trkpt><trkpt lat="43.308250189494885" lon="2.2217378218006574"><ele>174.0</ele><time>2026-03-22T10:05:06Z</time></trkpt><trkpt lat="43.30831902917244" lon="2.221885102799864"><ele>177.5</ele><time>2026-03-22T10:05:07Z</time></trkpt><trkpt lat="43.30838703442303" lon="2.2220231829153176"><ele>181.0</ele><time>2026-03-22T10:05:08Z</time></trkpt><trkpt lat="43.30845048296798" lon="2.2221525420571084"><ele>181.0</ele><time>2026-03-22T10:05:09Z</time></trkpt><trkpt lat="43.30851523938553" lon="2.2222807462635554"><ele>181.0</ele><time>2026-03-22T10:05:10Z</time></trkpt><trkpt lat="43.30859156039422" lon="2.222413747592318"><ele>181.0</ele><time>2026-03-22T10:05:11Z</time></trkpt><trkpt lat="43.30868292370068" lon="2.222543773986801"><ele>181.0</ele><time>2026-03-22T10:05:12Z</time></trkpt><trkpt lat="43.308778343372644" lon="2.222668131191715"><ele>182.25</ele><time>2026-03-22T10:05:13Z</time></trkpt><trkpt lat="43.30887729714888" lon="2.2227974672433874"><ele>183.5</ele><time>2026-03-22T10:05:14Z</time></trkpt><trkpt lat="43.30897707703263" lon="2.2229384387951057"><ele>184.75</ele><time>2026-03-22T10:05:15Z</time></trkpt><trkpt lat="43.30905822107661" lon="2.2230897833430614"><ele>186.0</ele><time>2026-03-22T10:05:16Z</time></trkpt><trkpt lat="43.309122393971144" lon="2.2232551661962585"><ele>189.66666666666669</ele><time>2026-03-22T10:05:17Z</time></trkpt><trkpt lat="43.30917237876101" lon="2.2234560755984796"><ele>193.33333333333334</ele><time>2026-03-22T10:05:18Z</time></trkpt><trkpt lat="43.30922980197785" lon="2.2236806039830115"><ele>197.0</ele><time>2026-03-22T10:05:19Z</time></trkpt><trkpt lat="43.30927938881387" lon="2.2238742104545928"><ele>197.5</ele><time>2026-03-22T10:05:20Z</time></trkpt><trkpt lat="43.30932876563867" lon="2.224063225083971"><ele>198.0</ele><time>2026-03-22T10:05:21Z</time></trkpt><trkpt lat="43.3093801908781" lon="2.2242554713251983"><ele>198.5</ele><time>2026-03-22T10:05:22Z</time></trkpt><trkpt lat="43.30943286902899" lon="2.2244254938195556"><ele>199.0</ele><time>2026-03-22T10:05:23Z</time></trkpt><trkpt lat="43.30951039968721" lon="2.224595469439568"><ele>199.0</ele><time>2026-03-22T10:05:24Z</time></trkpt><trkpt lat="43.30962277923067" lon="2.2247582290767607"><ele>199.0</ele><time>2026-03-22T10:05:25Z</time></trkpt><trkpt lat="43.30974745175587" lon="2.2248894373506785"><ele>199.0</ele><time>2026-03-22T10:05:26Z</time></trkpt><trkpt lat="43.30986138189817" lon="2.2250056696998417"><ele>200.75</ele><time>2026-03-22T10:05:27Z</time></trkpt><trkpt lat="43.309981016624505" lon="2.225131461669814"><ele>202.5</ele><time>2026-03-22T10:05:28Z</time></trkpt><trkpt lat="43.31010139664017" lon="2.2252570065882864"><ele>204.25</ele><time>2026-03-22T10:05:29Z</time></trkpt><trkpt lat="43.31021662132006" lon="2.2253747825846504"><ele>206.0</ele><time>2026-03-22T10:05:30Z</time></trkpt><trkpt lat="43.310318118273" lon="2.225483471216183"><ele>206.0</ele><time>2026-03-22T10:05:31Z</time></trkpt><trkpt lat="43.31041776153291" lon="2.225597326504018"><ele>206.0</ele><time>2026-03-22T10:05:32Z</time></trkpt><trkpt lat="43.310496385379174" lon="2.225731496472602"><ele>206.0</ele><time>2026-03-22T10:05:33Z</time></trkpt><trkpt lat="43.31057454346188" lon="2.225891141194752"><ele>206.0</ele><time>2026-03-22T10:05:34Z</time></trkpt><trkpt lat="43.31065154851659" lon="2.2260616165264095"><ele>207.5</ele><time>2026-03-22T10:05:35Z</time></trkpt><trkpt lat="43.310718358756525" lon="2.2262098775174586"><ele>209.0</ele><time>2026-03-22T10:05:36Z</time></trkpt><trkpt lat="43.31078669401072" lon="2.226355607925287"><ele>210.5</ele><time>2026-03-22T10:05:37Z</time></trkpt><trkpt lat="43.31086166079176" lon="2.226503714156874"><ele>212.0</ele><time>2026-03-22T10:05:38Z</time></trkpt><trkpt lat="43.31094749700924" lon="2.2266459804515732"><ele>212.0</ele><time>2026-03-22T10:05:39Z</time></trkpt><trkpt lat="43.31104853819656" lon="2.2267767993773435"><ele>212.0</ele><time>2026-03-22T10:05:40Z</time></trkpt><trkpt lat="43.311153753960724" lon="2.226906752792062"><ele>212.0</ele><time>2026-03-22T10:05:41Z</time></trkpt><trkpt lat="43.31125948440315" lon="2.2270318648103866"><ele>212.0</ele><time>2026-03-22T10:05:42Z</time></trkpt><trkpt lat="43.31137021107673" lon="2.227154978629579"><ele>214.0</ele><time>2026-03-22T10:05:43Z</time></trkpt><trkpt lat="43.31147853492774" lon="2.2272684867412047"><ele>216.0</ele><time>2026-03-22T10:05:44Z</time></trkpt><trkpt lat="43.311597211240354" lon="2.2273666323098804"><ele>218.0</ele><time>2026-03-22T10:05:45Z</time></trkpt><trkpt lat="43.31172187872742" lon="2.227453822920267"><ele>220.0</ele><time>2026-03-22T10:05:46Z</time></trkpt><trkpt lat="43.31184167061583" lon="2.2275260183170063"><ele>220.2</ele><time>2026-03-22T10:05:47Z</time></trkpt><trkpt lat="43.31194365538354" lon="2.2275828550986385"><ele>220.4</ele><time>2026-03-22T10:05:48Z</time></trkpt><trkpt lat="43.312027529999035" lon="2.227639383808058"><ele>220.60000000000002</ele><time>2026-03-22T10:05:49Z</time></trkpt><trkpt lat="43.312099211623824" lon="2.2277163955699226"><ele>220.8</ele><time>2026-03-22T10:05:50Z</time></trkpt><trkpt lat="43.312141895857536" lon="2.22783356618651"><ele>221.0</ele><time>2026-03-22T10:05:51Z</time></trkpt><trkpt lat="43.31214519505772" lon="2.227977381654765"><ele>221.0</ele><time>2026-03-22T10:05:52Z</time></trkpt><trkpt lat="43.31212104308561" lon="2.2281536113121416"><ele>221.0</ele><time>2026-03-22T10:05:53Z</time></trkpt><trkpt lat="43.31209234352184" lon="2.2283509984961096"><ele>221.0</ele><time>2026-03-22T10:05:54Z</time></trkpt><trkpt lat="43.31207151347925" lon="2.2285213903039742"><ele>221.0</ele><time>2026-03-22T10:05:55Z</time></trkpt><trkpt lat="43.31206811967388" lon="2.2286858795215485"><ele>221.0</ele><time>2026-03-22T10:05:56Z</time></trkpt><trkpt lat="43.31204684417656" lon="2.228843367945081"><ele>221.00000000000003</ele><time>2026-03-22T10:05:57Z</time></trkpt><trkpt lat="43.31202272804185" lon="2.2289920197773303"><ele>221.00000000000003</ele><time>2026-03-22T10:05:58Z</time></trkpt><trkpt lat="43.31200531163825" lon="2.2291125080131002"><ele>221.0</ele><time>2026-03-22T10:05:58.999Z</time></trkpt><trkpt lat="43.31199124917784" lon="2.229230910426657"><ele>221.0</ele><time>2026-03-22T10:05:59.999Z</time></trkpt><trkpt lat="43.31198415939396" lon="2.229355384705891"><ele>221.4</ele><time>2026-03-22T10:06:00.999Z</time></trkpt><trkpt lat="43.31200126680247" lon="2.229456830025454"><ele>221.8</ele><time>2026-03-22T10:06:01.999Z</time></trkpt><trkpt lat="43.31203797343611" lon="2.229548424692264"><ele>222.20000000000002</ele><time>2026-03-22T10:06:02.999Z</time></trkpt><trkpt lat="43.31213574669549" lon="2.22959081575482"><ele>222.60000000000002</ele><time>2026-03-22T10:06:03.999Z</time></trkpt><trkpt lat="43.31224489371396" lon="2.2295812337090894"><ele>223.0</ele><time>2026-03-22T10:06:05Z</time></trkpt><trkpt lat="43.31235386406655" lon="2.2295734898568464"><ele>226.5</ele><time>2026-03-22T10:06:06Z</time></trkpt><trkpt lat="43.31247619913905" lon="2.229565039484769"><ele>230.0</ele><time>2026-03-22T10:06:07Z</time></trkpt><trkpt lat="43.31260150936192" lon="2.229530214524241"><ele>233.5</ele><time>2026-03-22T10:06:08Z</time></trkpt><trkpt lat="43.31273697862573" lon="2.2295369105892675"><ele>237.0</ele><time>2026-03-22T10:06:09Z</time></trkpt><trkpt lat="43.312863396699925" lon="2.2295031866253625"><ele>237.0</ele><time>2026-03-22T10:06:10Z</time></trkpt><trkpt lat="43.31298450945441" lon="2.2295214899628197"><ele>237.0</ele><time>2026-03-22T10:06:11Z</time></trkpt><trkpt lat="43.31310893003566" lon="2.2295376991953675"><ele>237.0</ele><time>2026-03-22T10:06:12Z</time></trkpt><trkpt lat="43.313242539544035" lon="2.229579738680709"><ele>237.0</ele><time>2026-03-22T10:06:13Z</time></trkpt><trkpt lat="43.31337089010726" lon="2.229651513794164"><ele>238.0</ele><time>2026-03-22T10:06:14Z</time></trkpt><trkpt lat="43.313492107947305" lon="2.229765853547583"><ele>239.0</ele><time>2026-03-22T10:06:15Z</time></trkpt><trkpt lat="43.31360079330745" lon="2.2298953557087144"><ele>240.0</ele><time>2026-03-22T10:06:16Z</time></trkpt><trkpt lat="43.31369300839455" lon="2.2300155474352943"><ele>241.0</ele><time>2026-03-22T10:06:17Z</time></trkpt><trkpt lat="43.31377434102415" lon="2.2301266827184207"><ele>241.0</ele><time>2026-03-22T10:06:18Z</time></trkpt><trkpt lat="43.313838952512796" lon="2.2302199559681033"><ele>241.00000000000003</ele><time>2026-03-22T10:06:19Z</time></trkpt><trkpt lat="43.31390088929079" lon="2.230316181645369"><ele>241.00000000000003</ele><time>2026-03-22T10:06:20Z</time></trkpt><trkpt lat="43.313959386495576" lon="2.2304232007254075"><ele>241.0</ele><time>2026-03-22T10:06:21Z</time></trkpt><trkpt lat="43.31402069463363" lon="2.2305559123415355"><ele>241.0</ele><time>2026-03-22T10:06:22Z</time></trkpt><trkpt lat="43.314052931877875" lon="2.2306894329136826"><ele>241.8</ele><time>2026-03-22T10:06:23Z</time></trkpt><trkpt lat="43.314063082409895" lon="2.230824035458148"><ele>242.60000000000002</ele><time>2026-03-22T10:06:24Z</time></trkpt><trkpt lat="43.31401808116047" lon="2.230925075254604"><ele>243.4</ele><time>2026-03-22T10:06:25Z</time></trkpt><trkpt lat="43.31393574131098" lon="2.231011857302875"><ele>244.2</ele><time>2026-03-22T10:06:26Z</time></trkpt><trkpt lat="43.31382663285218" lon="2.2310238914870744"><ele>245.0</ele><time>2026-03-22T10:06:27Z</time></trkpt><trkpt lat="43.31372517514651" lon="2.231024529891305"><ele>245.0</ele><time>2026-03-22T10:06:28Z</time></trkpt><trkpt lat="43.313625824166145" lon="2.2310240660278877"><ele>245.0</ele><time>2026-03-22T10:06:29Z</time></trkpt><trkpt lat="43.313524155116184" lon="2.2310452712257076"><ele>245.0</ele><time>2026-03-22T10:06:30Z</time></trkpt><trkpt lat="43.31342793163632" lon="2.2310506555682457"><ele>245.0</ele><time>2026-03-22T10:06:31Z</time></trkpt><trkpt lat="43.31334587033936" lon="2.231067707856461"><ele>245.0</ele><time>2026-03-22T10:06:32Z</time></trkpt><trkpt lat="43.31327220750357" lon="2.2310888645331017"><ele>245.00000000000003</ele><time>2026-03-22T10:06:33Z</time></trkpt><trkpt lat="43.31320061733189" lon="2.231119784834777"><ele>245.0</ele><time>2026-03-22T10:06:34Z</time></trkpt><trkpt lat="43.31313497512205" lon="2.2311709350681848"><ele>245.0</ele><time>2026-03-22T10:06:35Z</time></trkpt><trkpt lat="43.313102063969424" lon="2.231258923143133"><ele>245.0</ele><time>2026-03-22T10:06:36Z</time></trkpt><trkpt lat="43.31309976194534" lon="2.2313731079369137"><ele>245.00000000000003</ele><time>2026-03-22T10:06:37Z</time></trkpt><trkpt lat="43.313125832847284" lon="2.231506392048316"><ele>245.0</ele><time>2026-03-22T10:06:38Z</time></trkpt><trkpt lat="43.31317534428677" lon="2.231644507964047"><ele>247.25</ele><time>2026-03-22T10:06:39Z</time></trkpt><trkpt lat="43.31324685522438" lon="2.2317712288632587"><ele>249.5</ele><time>2026-03-22T10:06:40Z</time></trkpt><trkpt lat="43.313324977049966" lon="2.2318540288616715"><ele>251.75</ele><time>2026-03-22T10:06:41Z</time></trkpt><trkpt lat="43.31342422116147" lon="2.2319507016700038"><ele>254.0</ele><time>2026-03-22T10:06:42Z</time></trkpt><trkpt lat="43.31355839733034" lon="2.232027218301749"><ele>254.0</ele><time>2026-03-22T10:06:43Z</time></trkpt><trkpt lat="43.313671512937354" lon="2.2320812858581456"><ele>253.99999999999997</ele><time>2026-03-22T10:06:44Z</time></trkpt><trkpt lat="43.31377875505013" lon="2.23213227750807"><ele>253.99999999999997</ele><time>2026-03-22T10:06:45Z</time></trkpt><trkpt lat="43.313865646662634" lon="2.232185637050228"><ele>254.0</ele><time>2026-03-22T10:06:46Z</time></trkpt><trkpt lat="43.313931073493364" lon="2.2322523645228665"><ele>254.0</ele><time>2026-03-22T10:06:47Z</time></trkpt><trkpt lat="43.313960690412294" lon="2.232343314511774"><ele>254.16666666666669</ele><time>2026-03-22T10:06:48Z</time></trkpt><trkpt lat="43.313948285870836" lon="2.232462003142918"><ele>254.33333333333334</ele><time>2026-03-22T10:06:49Z</time></trkpt><trkpt lat="43.31390777139141" lon="2.2325575905500212"><ele>254.5</ele><time>2026-03-22T10:06:50Z</time></trkpt><trkpt lat="43.31384923658279" lon="2.2326000629258558"><ele>254.66666666666669</ele><time>2026-03-22T10:06:51Z</time></trkpt><trkpt lat="43.313774338286166" lon="2.2326762364475186"><ele>254.83333333333334</ele><time>2026-03-22T10:06:52Z</time></trkpt><trkpt lat="43.31369367415537" lon="2.2327355858995084"><ele>255.0</ele><time>2026-03-22T10:06:53Z</time></trkpt><trkpt lat="43.313638006358794" lon="2.2327877285302122"><ele>255.0</ele><time>2026-03-22T10:06:54Z</time></trkpt><trkpt lat="43.31364360406498" lon="2.2329638620059655"><ele>255.0</ele><time>2026-03-22T10:06:56Z</time></trkpt><trkpt lat="43.31368711215742" lon="2.2330525152298284"><ele>255.0</ele><time>2026-03-22T10:06:57Z</time></trkpt><trkpt lat="43.31371035077723" lon="2.2331498380038575"><ele>255.0</ele><time>2026-03-22T10:06:58Z</time></trkpt><trkpt lat="43.31371424887301" lon="2.233255264070681"><ele>255.0</ele><time>2026-03-22T10:06:59Z</time></trkpt><trkpt lat="43.31369538326462" lon="2.233377884555812"><ele>255.0</ele><time>2026-03-22T10:07:00Z</time></trkpt><trkpt lat="43.31366743118101" lon="2.2335143733399363"><ele>256.25</ele><time>2026-03-22T10:07:01Z</time></trkpt><trkpt lat="43.313652031608825" lon="2.233648158496587"><ele>257.5</ele><time>2026-03-22T10:07:02Z</time></trkpt><trkpt lat="43.31367054756153" lon="2.233788356260964"><ele>258.75</ele><time>2026-03-22T10:07:03Z</time></trkpt><trkpt lat="43.31372135351643" lon="2.233944411484892"><ele>260.0</ele><time>2026-03-22T10:07:04Z</time></trkpt><trkpt lat="43.31379846773907" lon="2.2340860711514616"><ele>261.0</ele><time>2026-03-22T10:07:05Z</time></trkpt><trkpt lat="43.31385852539215" lon="2.234225274015617"><ele>262.0</ele><time>2026-03-22T10:07:06Z</time></trkpt><trkpt lat="43.31388856395864" lon="2.23438409348279"><ele>263.0</ele><time>2026-03-22T10:07:07Z</time></trkpt><trkpt lat="43.3139116005127" lon="2.2345355967327603"><ele>264.0</ele><time>2026-03-22T10:07:08Z</time></trkpt><trkpt lat="43.31394081522951" lon="2.23466511590914"><ele>265.0</ele><time>2026-03-22T10:07:09Z</time></trkpt><trkpt lat="43.31401366439032" lon="2.234784462820026"><ele>267.75</ele><time>2026-03-22T10:07:10Z</time></trkpt><trkpt lat="43.31411844492533" lon="2.2348498113457462"><ele>270.5</ele><time>2026-03-22T10:07:11Z</time></trkpt><trkpt lat="43.3142258570535" lon="2.2349027170079716"><ele>273.25</ele><time>2026-03-22T10:07:12Z</time></trkpt><trkpt lat="43.31432714689575" lon="2.234960319471042"><ele>276.0</ele><time>2026-03-22T10:07:13Z</time></trkpt><trkpt lat="43.31443014779209" lon="2.2350326368468174"><ele>276.0</ele><time>2026-03-22T10:07:14Z</time></trkpt><trkpt lat="43.31452836701543" lon="2.235126047489383"><ele>276.0</ele><time>2026-03-22T10:07:15Z</time></trkpt><trkpt lat="43.31462603878507" lon="2.2352484396780703"><ele>276.0</ele><time>2026-03-22T10:07:16Z</time></trkpt><trkpt lat="43.31473068351193" lon="2.2353988740186557"><ele>276.0</ele><time>2026-03-22T10:07:17Z</time></trkpt><trkpt lat="43.31482880959578" lon="2.2355216348825344"><ele>277.75</ele><time>2026-03-22T10:07:18Z</time></trkpt><trkpt lat="43.31491446142643" lon="2.235659076510124"><ele>279.5</ele><time>2026-03-22T10:07:19Z</time></trkpt><trkpt lat="43.314996452925136" lon="2.2358010624461726"><ele>281.25</ele><time>2026-03-22T10:07:20Z</time></trkpt><trkpt lat="43.315080431947486" lon="2.2359500537404258"><ele>283.0</ele><time>2026-03-22T10:07:21Z</time></trkpt><trkpt lat="43.315169989347375" lon="2.236106747679118"><ele>283.0</ele><time>2026-03-22T10:07:22Z</time></trkpt><trkpt lat="43.3152575636452" lon="2.236260944755063"><ele>283.0</ele><time>2026-03-22T10:07:23Z</time></trkpt><trkpt lat="43.31534453608239" lon="2.236414238084796"><ele>283.0</ele><time>2026-03-22T10:07:24Z</time></trkpt><trkpt lat="43.31542812774356" lon="2.2365619452075878"><ele>283.0</ele><time>2026-03-22T10:07:25Z</time></trkpt><trkpt lat="43.31550423666923" lon="2.2367072112172863"><ele>283.5</ele><time>2026-03-22T10:07:26Z</time></trkpt><trkpt lat="43.315575524547334" lon="2.236858104230985"><ele>284.0</ele><time>2026-03-22T10:07:27Z</time></trkpt><trkpt lat="43.31564341530906" lon="2.237025129445899"><ele>284.5</ele><time>2026-03-22T10:07:28Z</time></trkpt><trkpt lat="43.315708914563764" lon="2.2372040546384597"><ele>285.0</ele><time>2026-03-22T10:07:29Z</time></trkpt><trkpt lat="43.31576954792232" lon="2.2373663086564988"><ele>286.0</ele><time>2026-03-22T10:07:30Z</time></trkpt><trkpt lat="43.315837039974625" lon="2.2375329499513805"><ele>287.0</ele><time>2026-03-22T10:07:31Z</time></trkpt><trkpt lat="43.31590681022427" lon="2.237704075415984"><ele>288.0</ele><time>2026-03-22T10:07:32Z</time></trkpt><trkpt lat="43.31596352178041" lon="2.23788018997192"><ele>289.0</ele><time>2026-03-22T10:07:33Z</time></trkpt><trkpt lat="43.31600337337686" lon="2.2380647092138806"><ele>289.75</ele><time>2026-03-22T10:07:34Z</time></trkpt><trkpt lat="43.3160294682558" lon="2.2382625451881997"><ele>290.5</ele><time>2026-03-22T10:07:35Z</time></trkpt><trkpt lat="43.316021648924" lon="2.2384662197486542"><ele>291.25</ele><time>2026-03-22T10:07:36Z</time></trkpt><trkpt lat="43.316018655425694" lon="2.238663251941837"><ele>292.0</ele><time>2026-03-22T10:07:37Z</time></trkpt><trkpt lat="43.31601103169577" lon="2.2388644983766754"><ele>293.25</ele><time>2026-03-22T10:07:38Z</time></trkpt><trkpt lat="43.316003055749874" lon="2.239067680574253"><ele>294.5</ele><time>2026-03-22T10:07:39Z</time></trkpt><trkpt lat="43.31599529837351" lon="2.2392621881141452"><ele>295.75</ele><time>2026-03-22T10:07:40Z</time></trkpt><trkpt lat="43.31600212966382" lon="2.2394339058205337"><ele>297.0</ele><time>2026-03-22T10:07:41Z</time></trkpt><trkpt lat="43.31599403929199" lon="2.2395873932601478"><ele>297.0</ele><time>2026-03-22T10:07:42Z</time></trkpt><trkpt lat="43.315983440101995" lon="2.2397297620808727"><ele>297.0</ele><time>2026-03-22T10:07:43Z</time></trkpt><trkpt lat="43.31597954926904" lon="2.2398814535085516"><ele>297.0</ele><time>2026-03-22T10:07:44Z</time></trkpt><trkpt lat="43.31597807288376" lon="2.240016133320302"><ele>297.0</ele><time>2026-03-22T10:07:45Z</time></trkpt><trkpt lat="43.316003707949065" lon="2.2401479267046036"><ele>297.0</ele><time>2026-03-22T10:07:46Z</time></trkpt><trkpt lat="43.31604276472069" lon="2.2402876325137577"><ele>297.75</ele><time>2026-03-22T10:07:47Z</time></trkpt><trkpt lat="43.3161363857475" lon="2.2404028144336734"><ele>298.5</ele><time>2026-03-22T10:07:48Z</time></trkpt><trkpt lat="43.3162497289109" lon="2.240481449318229"><ele>299.25</ele><time>2026-03-22T10:07:49Z</time></trkpt><trkpt lat="43.31639228614692" lon="2.2405636120900154"><ele>300.0</ele><time>2026-03-22T10:07:50Z</time></trkpt><trkpt lat="43.316516343667146" lon="2.240639884300597"><ele>300.0</ele><time>2026-03-22T10:07:51Z</time></trkpt><trkpt lat="43.31661996736744" lon="2.240702967348304"><ele>300.0</ele><time>2026-03-22T10:07:52Z</time></trkpt><trkpt lat="43.31673190051117" lon="2.240769012446813"><ele>300.0</ele><time>2026-03-22T10:07:53Z</time></trkpt><trkpt lat="43.316838945913936" lon="2.240812809048813"><ele>300.0</ele><time>2026-03-22T10:07:54Z</time></trkpt><trkpt lat="43.31694290944512" lon="2.2408860446679397"><ele>300.0</ele><time>2026-03-22T10:07:55Z</time></trkpt><trkpt lat="43.31705162260601" lon="2.240966759905018"><ele>300.0</ele><time>2026-03-22T10:07:56Z</time></trkpt><trkpt lat="43.31717757353817" lon="2.2410645095321446"><ele>300.0</ele><time>2026-03-22T10:07:57Z</time></trkpt><trkpt lat="43.31728961699673" lon="2.2412102183146425"><ele>300.0</ele><time>2026-03-22T10:07:58Z</time></trkpt><trkpt lat="43.317384123318945" lon="2.241338947483958"><ele>300.25</ele><time>2026-03-22T10:07:59Z</time></trkpt><trkpt lat="43.31748762996761" lon="2.2414704695811873"><ele>300.5</ele><time>2026-03-22T10:08:00Z</time></trkpt><trkpt lat="43.31756608084776" lon="2.241613432162193"><ele>300.75</ele><time>2026-03-22T10:08:01Z</time></trkpt><trkpt lat="43.317643626526284" lon="2.241764079325505"><ele>301.0</ele><time>2026-03-22T10:08:02Z</time></trkpt><trkpt lat="43.317712696044374" lon="2.241924833669937"><ele>301.0</ele><time>2026-03-22T10:08:03Z</time></trkpt><trkpt lat="43.31775356437239" lon="2.2421174251826823"><ele>301.0</ele><time>2026-03-22T10:08:04Z</time></trkpt><trkpt lat="43.31780840827958" lon="2.242333412943165"><ele>301.0</ele><time>2026-03-22T10:08:04.999Z</time></trkpt><trkpt lat="43.31785338624308" lon="2.242525868844895"><ele>303.0</ele><time>2026-03-22T10:08:05.999Z</time></trkpt><trkpt lat="43.317889308054035" lon="2.2427059957124316"><ele>305.0</ele><time>2026-03-22T10:08:06.999Z</time></trkpt><trkpt lat="43.31791311553609" lon="2.2428852731460727"><ele>307.0</ele><time>2026-03-22T10:08:07.999Z</time></trkpt><trkpt lat="43.317929554175464" lon="2.243068512655852"><ele>309.0</ele><time>2026-03-22T10:08:08.999Z</time></trkpt><trkpt lat="43.31793922175123" lon="2.2432576113300233"><ele>310.0</ele><time>2026-03-22T10:08:09.999Z</time></trkpt><trkpt lat="43.317939274058396" lon="2.243459580560955"><ele>311.0</ele><time>2026-03-22T10:08:11Z</time></trkpt><trkpt lat="43.31793390892735" lon="2.243670585804832"><ele>312.0</ele><time>2026-03-22T10:08:12Z</time></trkpt><trkpt lat="43.317927621045065" lon="2.243877692501729"><ele>311.25</ele><time>2026-03-22T10:08:13Z</time></trkpt><trkpt lat="43.317918929366236" lon="2.244080269298455"><ele>310.5</ele><time>2026-03-22T10:08:14Z</time></trkpt><trkpt lat="43.3179091331202" lon="2.244276731290391"><ele>309.75</ele><time>2026-03-22T10:08:15Z</time></trkpt><trkpt lat="43.3178969944215" lon="2.2444779423309504"><ele>309.0</ele><time>2026-03-22T10:08:16Z</time></trkpt><trkpt lat="43.317877184082946" lon="2.2446800854134947"><ele>308.3333333333333</ele><time>2026-03-22T10:08:17Z</time></trkpt><trkpt lat="43.31784939404143" lon="2.244883963895734"><ele>307.66666666666663</ele><time>2026-03-22T10:08:18Z</time></trkpt><trkpt lat="43.31781659138972" lon="2.2450863901186153"><ele>307.0</ele><time>2026-03-22T10:08:19Z</time></trkpt><trkpt lat="43.31777950086392" lon="2.24528870075222"><ele>307.0</ele><time>2026-03-22T10:08:20Z</time></trkpt><trkpt lat="43.31773617794425" lon="2.2455050860944534"><ele>307.0</ele><time>2026-03-22T10:08:21Z</time></trkpt><trkpt lat="43.31770723473538" lon="2.2457297681710284"><ele>307.0</ele><time>2026-03-22T10:08:22Z</time></trkpt><trkpt lat="43.31764494024145" lon="2.2459254725417583"><ele>305.3333333333333</ele><time>2026-03-22T10:08:23Z</time></trkpt><trkpt lat="43.31758925095692" lon="2.246125194636166"><ele>303.6666666666667</ele><time>2026-03-22T10:08:24Z</time></trkpt><trkpt lat="43.3175283225659" lon="2.2463227575035036"><ele>302.0</ele><time>2026-03-22T10:08:25Z</time></trkpt><trkpt lat="43.31746597970656" lon="2.2465196608905753"><ele>301.0</ele><time>2026-03-22T10:08:26Z</time></trkpt><trkpt lat="43.317404727958866" lon="2.246709412835695"><ele>300.0</ele><time>2026-03-22T10:08:27Z</time></trkpt><trkpt lat="43.31734773554523" lon="2.2468853425631794"><ele>299.0</ele><time>2026-03-22T10:08:28Z</time></trkpt><trkpt lat="43.31729220462101" lon="2.2470593669857255"><ele>298.0</ele><time>2026-03-22T10:08:29Z</time></trkpt><trkpt lat="43.31723787612531" lon="2.2472343483009043"><ele>299.0</ele><time>2026-03-22T10:08:30Z</time></trkpt><trkpt lat="43.317184597681546" lon="2.247412072129351"><ele>300.0</ele><time>2026-03-22T10:08:31Z</time></trkpt><trkpt lat="43.31715550859284" lon="2.247630632793105"><ele>301.0</ele><time>2026-03-22T10:08:32Z</time></trkpt><trkpt lat="43.31714676792327" lon="2.2478504994358635"><ele>301.0</ele><time>2026-03-22T10:08:33Z</time></trkpt><trkpt lat="43.3171707791983" lon="2.248086958508342"><ele>301.0</ele><time>2026-03-22T10:08:34Z</time></trkpt><trkpt lat="43.31723397484982" lon="2.248331332393738"><ele>301.0</ele><time>2026-03-22T10:08:35Z</time></trkpt><trkpt lat="43.31729641317159" lon="2.248580073302824"><ele>299.66666666666663</ele><time>2026-03-22T10:08:36Z</time></trkpt><trkpt lat="43.317360735732834" lon="2.2488202186429356"><ele>298.3333333333333</ele><time>2026-03-22T10:08:37Z</time></trkpt><trkpt lat="43.31741893232515" lon="2.2490445506389625"><ele>297.0</ele><time>2026-03-22T10:08:38Z</time></trkpt><trkpt lat="43.317475000027315" lon="2.249265178737093"><ele>297.0</ele><time>2026-03-22T10:08:39Z</time></trkpt><trkpt lat="43.31752814567716" lon="2.2494743084612248"><ele>297.0</ele><time>2026-03-22T10:08:40Z</time></trkpt><trkpt lat="43.3175808411126" lon="2.249676720923"><ele>297.0</ele><time>2026-03-22T10:08:41Z</time></trkpt><trkpt lat="43.317632884290845" lon="2.249876110049989"><ele>297.25</ele><time>2026-03-22T10:08:42Z</time></trkpt><trkpt lat="43.317684262436615" lon="2.2500729512932276"><ele>297.5</ele><time>2026-03-22T10:08:43Z</time></trkpt><trkpt lat="43.31773383854519" lon="2.2502628885507074"><ele>297.75</ele><time>2026-03-22T10:08:44Z</time></trkpt><trkpt lat="43.317777911806246" lon="2.2504359096745885"><ele>298.0</ele><time>2026-03-22T10:08:45Z</time></trkpt><trkpt lat="43.317816278414" lon="2.250593247419203"><ele>298.75</ele><time>2026-03-22T10:08:46Z</time></trkpt><trkpt lat="43.31785906526941" lon="2.250749736806927"><ele>299.5</ele><time>2026-03-22T10:08:47Z</time></trkpt><trkpt lat="43.31789692290728" lon="2.250905374979568"><ele>300.25</ele><time>2026-03-22T10:08:48Z</time></trkpt><trkpt lat="43.317915069153855" lon="2.251050759383667"><ele>301.0</ele><time>2026-03-22T10:08:49Z</time></trkpt><trkpt lat="43.31791816681871" lon="2.2511998524980905"><ele>301.0</ele><time>2026-03-22T10:08:50Z</time></trkpt><trkpt lat="43.31793141683931" lon="2.251364859062766"><ele>301.0</ele><time>2026-03-22T10:08:51Z</time></trkpt><trkpt lat="43.317905512605236" lon="2.2515446409747493"><ele>301.0</ele><time>2026-03-22T10:08:52Z</time></trkpt><trkpt lat="43.31789533880363" lon="2.2517365645238607"><ele>301.0</ele><time>2026-03-22T10:08:53Z</time></trkpt><trkpt lat="43.31788600068275" lon="2.2519593834430407"><ele>301.3333333333333</ele><time>2026-03-22T10:08:54Z</time></trkpt><trkpt lat="43.317878767507885" lon="2.2521929881505174"><ele>301.6666666666667</ele><time>2026-03-22T10:08:55Z</time></trkpt><trkpt lat="43.31787166770083" lon="2.252398891322291"><ele>302.0</ele><time>2026-03-22T10:08:56Z</time></trkpt><trkpt lat="43.3178633004657" lon="2.2525998358178594"><ele>302.0</ele><time>2026-03-22T10:08:57Z</time></trkpt><trkpt lat="43.317854074408935" lon="2.2527854311937396"><ele>302.0</ele><time>2026-03-22T10:08:58Z</time></trkpt><trkpt lat="43.31784789555079" lon="2.2529633145987056"><ele>302.0</ele><time>2026-03-22T10:08:59Z</time></trkpt><trkpt lat="43.31784724082142" lon="2.2531296209881577"><ele>302.0</ele><time>2026-03-22T10:09:00Z</time></trkpt><trkpt lat="43.31786564218581" lon="2.2532989150674823"><ele>301.5</ele><time>2026-03-22T10:09:01Z</time></trkpt><trkpt lat="43.317856397275825" lon="2.253471311586586"><ele>301.0</ele><time>2026-03-22T10:09:02Z</time></trkpt><trkpt lat="43.31787131254593" lon="2.2536449540711008"><ele>300.5</ele><time>2026-03-22T10:09:03Z</time></trkpt><trkpt lat="43.31790597075108" lon="2.2538218597347743"><ele>300.0</ele><time>2026-03-22T10:09:04Z</time></trkpt><trkpt lat="43.31794896643313" lon="2.253995654180811"><ele>299.75</ele><time>2026-03-22T10:09:05Z</time></trkpt><trkpt lat="43.3179980121445" lon="2.2541686394097002"><ele>299.5</ele><time>2026-03-22T10:09:06Z</time></trkpt><trkpt lat="43.31805843471142" lon="2.254339053874978"><ele>299.25</ele><time>2026-03-22T10:09:07Z</time></trkpt><trkpt lat="43.318116843090976" lon="2.254507785258993"><ele>299.0</ele><time>2026-03-22T10:09:08Z</time></trkpt><trkpt lat="43.31817757060159" lon="2.2546742756434983"><ele>298.5</ele><time>2026-03-22T10:09:09Z</time></trkpt><trkpt lat="43.31819274319353" lon="2.2548559867689844"><ele>298.0</ele><time>2026-03-22T10:09:10Z</time></trkpt><trkpt lat="43.31818707604291" lon="2.255052740166394"><ele>297.5</ele><time>2026-03-22T10:09:11Z</time></trkpt><trkpt lat="43.31817179046588" lon="2.2552780154013146"><ele>297.0</ele><time>2026-03-22T10:09:12Z</time></trkpt><trkpt lat="43.318167181197026" lon="2.255510889999895"><ele>297.0</ele><time>2026-03-22T10:09:13Z</time></trkpt><trkpt lat="43.31813084426586" lon="2.2557151040135466"><ele>297.0</ele><time>2026-03-22T10:09:14Z</time></trkpt><trkpt lat="43.31812264894316" lon="2.255905616342133"><ele>297.0</ele><time>2026-03-22T10:09:15Z</time></trkpt><trkpt lat="43.318146086751234" lon="2.2560949673124586"><ele>297.0</ele><time>2026-03-22T10:09:16Z</time></trkpt><trkpt lat="43.318176109851684" lon="2.2562848008481526"><ele>297.5</ele><time>2026-03-22T10:09:17Z</time></trkpt><trkpt lat="43.3182036602332" lon="2.25648635158771"><ele>298.0</ele><time>2026-03-22T10:09:18Z</time></trkpt><trkpt lat="43.31823626224531" lon="2.2566837863910694"><ele>298.5</ele><time>2026-03-22T10:09:19Z</time></trkpt><trkpt lat="43.31827042873988" lon="2.2568794961630965"><ele>299.0</ele><time>2026-03-22T10:09:20Z</time></trkpt><trkpt lat="43.318306424323346" lon="2.2570649269198118"><ele>299.0</ele><time>2026-03-22T10:09:21Z</time></trkpt><trkpt lat="43.3183467806038" lon="2.257249744482263"><ele>299.0</ele><time>2026-03-22T10:09:22Z</time></trkpt><trkpt lat="43.31839768354882" lon="2.2574241895908864"><ele>299.0</ele><time>2026-03-22T10:09:23Z</time></trkpt><trkpt lat="43.31846167611587" lon="2.257580010797375"><ele>299.0</ele><time>2026-03-22T10:09:24Z</time></trkpt><trkpt lat="43.318515617553565" lon="2.257711660967034"><ele>299.0</ele><time>2026-03-22T10:09:25Z</time></trkpt><trkpt lat="43.31855994941178" lon="2.257827941141006"><ele>299.0</ele><time>2026-03-22T10:09:26Z</time></trkpt><trkpt lat="43.31860413077006" lon="2.25795006601961"><ele>299.0</ele><time>2026-03-22T10:09:27Z</time></trkpt><trkpt lat="43.31865374163359" lon="2.258061389388714"><ele>299.0</ele><time>2026-03-22T10:09:28Z</time></trkpt><trkpt lat="43.31871231129098" lon="2.258146184084503"><ele>299.0</ele><time>2026-03-22T10:09:29Z</time></trkpt><trkpt lat="43.31879776531473" lon="2.2582144350237194"><ele>299.8</ele><time>2026-03-22T10:09:30Z</time></trkpt><trkpt lat="43.31892565075838" lon="2.258222600613879"><ele>300.59999999999997</ele><time>2026-03-22T10:09:31Z</time></trkpt><trkpt lat="43.31903357624362" lon="2.258274823502975"><ele>301.4</ele><time>2026-03-22T10:09:32Z</time></trkpt><trkpt lat="43.319106462132396" lon="2.258339909937584"><ele>302.2</ele><time>2026-03-22T10:09:33Z</time></trkpt><trkpt lat="43.31917092497783" lon="2.2584414783380127"><ele>303.0</ele><time>2026-03-22T10:09:34Z</time></trkpt><trkpt lat="43.31919063116406" lon="2.258572662988319"><ele>303.0</ele><time>2026-03-22T10:09:35Z</time></trkpt><trkpt lat="43.31920256026408" lon="2.258720013204904"><ele>303.0</ele><time>2026-03-22T10:09:36Z</time></trkpt><trkpt lat="43.319201009760484" lon="2.258892933164859"><ele>303.0</ele><time>2026-03-22T10:09:37Z</time></trkpt><trkpt lat="43.319200818208195" lon="2.2590943830723327"><ele>303.0</ele><time>2026-03-22T10:09:38Z</time></trkpt><trkpt lat="43.31922677981845" lon="2.259280605613566"><ele>302.75</ele><time>2026-03-22T10:09:39Z</time></trkpt><trkpt lat="43.31923882155746" lon="2.2594573030659264"><ele>302.5</ele><time>2026-03-22T10:09:40Z</time></trkpt><trkpt lat="43.319239449914114" lon="2.2596650844918504"><ele>302.25</ele><time>2026-03-22T10:09:41Z</time></trkpt><trkpt lat="43.31926906616442" lon="2.2598648862878568"><ele>302.0</ele><time>2026-03-22T10:09:42Z</time></trkpt><trkpt lat="43.319270991210814" lon="2.2600519001721415"><ele>302.5</ele><time>2026-03-22T10:09:43Z</time></trkpt><trkpt lat="43.31930826338471" lon="2.260218033799571"><ele>303.0</ele><time>2026-03-22T10:09:44Z</time></trkpt><trkpt lat="43.31935305665323" lon="2.2603809434315325"><ele>303.5</ele><time>2026-03-22T10:09:45Z</time></trkpt><trkpt lat="43.31941179213016" lon="2.2605244603869106"><ele>304.0</ele><time>2026-03-22T10:09:46Z</time></trkpt><trkpt lat="43.31947621679426" lon="2.2606445836535483"><ele>304.2</ele><time>2026-03-22T10:09:47Z</time></trkpt><trkpt lat="43.31957069985755" lon="2.2607250571492195"><ele>304.4</ele><time>2026-03-22T10:09:48Z</time></trkpt><trkpt lat="43.31967054505176" lon="2.2607901068765535"><ele>304.6</ele><time>2026-03-22T10:09:49Z</time></trkpt><trkpt lat="43.31976422981343" lon="2.2608821879305"><ele>304.8</ele><time>2026-03-22T10:09:49.999Z</time></trkpt><trkpt lat="43.319828063322156" lon="2.2609998654525656"><ele>305.0</ele><time>2026-03-22T10:09:50.999Z</time></trkpt><trkpt lat="43.31988753254204" lon="2.2611340872677035"><ele>306.25</ele><time>2026-03-22T10:09:51.999Z</time></trkpt><trkpt lat="43.31991481099973" lon="2.26129178638587"><ele>307.5</ele><time>2026-03-22T10:09:52.999Z</time></trkpt><trkpt lat="43.31995572890918" lon="2.2614419154099674"><ele>308.75</ele><time>2026-03-22T10:09:53.999Z</time></trkpt><trkpt lat="43.32000617952442" lon="2.261576093760905"><ele>310.0</ele><time>2026-03-22T10:09:54.999Z</time></trkpt><trkpt lat="43.32009162487465" lon="2.261701371013739"><ele>310.25</ele><time>2026-03-22T10:09:55.999Z</time></trkpt><trkpt lat="43.320217387869405" lon="2.261799447103541"><ele>310.5</ele><time>2026-03-22T10:09:56.999Z</time></trkpt><trkpt lat="43.320329445766895" lon="2.2619119016697766"><ele>310.75</ele><time>2026-03-22T10:09:57.999Z</time></trkpt><trkpt lat="43.320418619342405" lon="2.262037479674373"><ele>311.0</ele><time>2026-03-22T10:09:58.999Z</time></trkpt><trkpt lat="43.320491493428634" lon="2.2621701247352624"><ele>311.0</ele><time>2026-03-22T10:09:59.999Z</time></trkpt><trkpt lat="43.320552384157956" lon="2.2623200700963553"><ele>311.0</ele><time>2026-03-22T10:10:00.999Z</time></trkpt><trkpt lat="43.320613416553144" lon="2.2624921363690906"><ele>311.0</ele><time>2026-03-22T10:10:01.999Z</time></trkpt><trkpt lat="43.320676140856634" lon="2.2626784313791504"><ele>311.0</ele><time>2026-03-22T10:10:02.999Z</time></trkpt><trkpt lat="43.320737655261524" lon="2.2628642246720903"><ele>312.25</ele><time>2026-03-22T10:10:03.999Z</time></trkpt><trkpt lat="43.32079181458317" lon="2.2630205307410103"><ele>313.5</ele><time>2026-03-22T10:10:04.999Z</time></trkpt><trkpt lat="43.32086158920625" lon="2.2631633338811006"><ele>314.75</ele><time>2026-03-22T10:10:05.999Z</time></trkpt><trkpt lat="43.32092602305355" lon="2.2633188905984207"><ele>316.0</ele><time>2026-03-22T10:10:06.999Z</time></trkpt><trkpt lat="43.32100089658821" lon="2.263474406983895"><ele>316.0</ele><time>2026-03-22T10:10:07.999Z</time></trkpt><trkpt lat="43.32107895858955" lon="2.2636154672567526"><ele>316.0</ele><time>2026-03-22T10:10:08.999Z</time></trkpt><trkpt lat="43.32113811375364" lon="2.2637607154586097"><ele>316.0</ele><time>2026-03-22T10:10:09.999Z</time></trkpt><trkpt lat="43.32122073331053" lon="2.263869008178002"><ele>316.0</ele><time>2026-03-22T10:10:10.999Z</time></trkpt><trkpt lat="43.321290553709304" lon="2.263992563160623"><ele>316.25</ele><time>2026-03-22T10:10:11.999Z</time></trkpt><trkpt lat="43.32136212864063" lon="2.2641126644071794"><ele>316.5</ele><time>2026-03-22T10:10:12.999Z</time></trkpt><trkpt lat="43.32142851864882" lon="2.2642210484693392"><ele>316.75</ele><time>2026-03-22T10:10:13.999Z</time></trkpt><trkpt lat="43.32150009839425" lon="2.264342881350852"><ele>317.0</ele><time>2026-03-22T10:10:14.999Z</time></trkpt><trkpt lat="43.32157639314073" lon="2.2644790220798163"><ele>316.75</ele><time>2026-03-22T10:10:15.999Z</time></trkpt><trkpt lat="43.321649203830255" lon="2.2646133122337613"><ele>316.5</ele><time>2026-03-22T10:10:17Z</time></trkpt><trkpt lat="43.32172037343276" lon="2.2647238884362455"><ele>316.25</ele><time>2026-03-22T10:10:18Z</time></trkpt><trkpt lat="43.32180879201516" lon="2.2648096739014396"><ele>316.0</ele><time>2026-03-22T10:10:19Z</time></trkpt><trkpt lat="43.32191635291764" lon="2.2648752048886465"><ele>316.0</ele><time>2026-03-22T10:10:20Z</time></trkpt><trkpt lat="43.322025459154375" lon="2.264907104934409"><ele>316.0</ele><time>2026-03-22T10:10:21Z</time></trkpt><trkpt lat="43.322125329688994" lon="2.2649105933537967"><ele>316.0</ele><time>2026-03-22T10:10:22Z</time></trkpt><trkpt lat="43.322218643581394" lon="2.264935033777116"><ele>316.0</ele><time>2026-03-22T10:10:23Z</time></trkpt><trkpt lat="43.32229883717747" lon="2.2649376728430366"><ele>316.0</ele><time>2026-03-22T10:10:24Z</time></trkpt><trkpt lat="43.32235432849545" lon="2.2650235773142504"><ele>316.6</ele><time>2026-03-22T10:10:25Z</time></trkpt><trkpt lat="43.322394518902904" lon="2.265119431129183"><ele>317.20000000000005</ele><time>2026-03-22T10:10:26Z</time></trkpt><trkpt lat="43.32239660373093" lon="2.265232564815982"><ele>317.79999999999995</ele><time>2026-03-22T10:10:27Z</time></trkpt><trkpt lat="43.32239552512349" lon="2.2653656614549074"><ele>318.4</ele><time>2026-03-22T10:10:28Z</time></trkpt><trkpt lat="43.32239088164461" lon="2.265506318002242"><ele>319.0</ele><time>2026-03-22T10:10:29Z</time></trkpt><trkpt lat="43.32238715799788" lon="2.2656775134309544"><ele>319.25</ele><time>2026-03-22T10:10:30Z</time></trkpt><trkpt lat="43.3224054757725" lon="2.2658388713469884"><ele>319.5</ele><time>2026-03-22T10:10:31Z</time></trkpt><trkpt lat="43.32246820725764" lon="2.2660292249467644"><ele>319.75</ele><time>2026-03-22T10:10:32Z</time></trkpt><trkpt lat="43.322550775092566" lon="2.266225289503901"><ele>320.0</ele><time>2026-03-22T10:10:33Z</time></trkpt><trkpt lat="43.32261765515408" lon="2.2663897295522424"><ele>320.0</ele><time>2026-03-22T10:10:34Z</time></trkpt><trkpt lat="43.32268539389924" lon="2.2665594736770545"><ele>320.0</ele><time>2026-03-22T10:10:35Z</time></trkpt><trkpt lat="43.32274700139963" lon="2.2667278001663167"><ele>320.0</ele><time>2026-03-22T10:10:36Z</time></trkpt><trkpt lat="43.322792403152384" lon="2.2668982986270656"><ele>320.0</ele><time>2026-03-22T10:10:37Z</time></trkpt><trkpt lat="43.32283600233119" lon="2.2670808967350564"><ele>320.0</ele><time>2026-03-22T10:10:38Z</time></trkpt><trkpt lat="43.322867539679116" lon="2.2672436101985802"><ele>320.0</ele><time>2026-03-22T10:10:39Z</time></trkpt><trkpt lat="43.322912451359635" lon="2.267395991148382"><ele>320.0</ele><time>2026-03-22T10:10:40Z</time></trkpt><trkpt lat="43.3229655321009" lon="2.2675325831813153"><ele>320.0</ele><time>2026-03-22T10:10:41Z</time></trkpt><trkpt lat="43.323030494533164" lon="2.2676546607357198"><ele>321.0</ele><time>2026-03-22T10:10:42Z</time></trkpt><trkpt lat="43.32311220734994" lon="2.2677703775810523"><ele>322.0</ele><time>2026-03-22T10:10:43Z</time></trkpt><trkpt lat="43.32319594765638" lon="2.2678713392084195"><ele>323.0</ele><time>2026-03-22T10:10:44Z</time></trkpt><trkpt lat="43.32327679163479" lon="2.2679608659845107"><ele>324.0</ele><time>2026-03-22T10:10:45Z</time></trkpt><trkpt lat="43.32334741967107" lon="2.2680345848798034"><ele>325.0</ele><time>2026-03-22T10:10:46Z</time></trkpt><trkpt lat="43.32340083704195" lon="2.268109618498237"><ele>325.0</ele><time>2026-03-22T10:10:47Z</time></trkpt><trkpt lat="43.32346233701632" lon="2.268137210972803"><ele>325.0</ele><time>2026-03-22T10:10:48Z</time></trkpt><trkpt lat="43.32357182689149" lon="2.2682103090523666"><ele>325.0</ele><time>2026-03-22T10:10:50Z</time></trkpt><trkpt lat="43.32364145875909" lon="2.2681936264972364"><ele>325.0</ele><time>2026-03-22T10:10:51Z</time></trkpt><trkpt lat="43.32371235400671" lon="2.2681617806041965"><ele>325.0</ele><time>2026-03-22T10:10:52Z</time></trkpt><trkpt lat="43.32378605415141" lon="2.2681224136895644"><ele>325.0</ele><time>2026-03-22T10:10:53Z</time></trkpt><trkpt lat="43.323862558953934" lon="2.268043299604922"><ele>324.5</ele><time>2026-03-22T10:10:54Z</time></trkpt><trkpt lat="43.323935488773465" lon="2.2679463483229907"><ele>324.0</ele><time>2026-03-22T10:10:55Z</time></trkpt><trkpt lat="43.3240036639506" lon="2.2678203740300744"><ele>323.5</ele><time>2026-03-22T10:10:56Z</time></trkpt><trkpt lat="43.324093665201616" lon="2.26770249932885"><ele>323.0</ele><time>2026-03-22T10:10:57Z</time></trkpt><trkpt lat="43.32418739452181" lon="2.267590848864844"><ele>323.0</ele><time>2026-03-22T10:10:58Z</time></trkpt><trkpt lat="43.32427077879327" lon="2.2674914915790065"><ele>323.0</ele><time>2026-03-22T10:10:59Z</time></trkpt><trkpt lat="43.324347397657505" lon="2.2673995230138835"><ele>323.0</ele><time>2026-03-22T10:11:00Z</time></trkpt><trkpt lat="43.32442956718607" lon="2.2673243216844408"><ele>323.0</ele><time>2026-03-22T10:11:01Z</time></trkpt><trkpt lat="43.32450313762838" lon="2.26725090515412"><ele>323.0</ele><time>2026-03-22T10:11:02Z</time></trkpt><trkpt lat="43.32457344807232" lon="2.2671836574320277"><ele>323.1666666666667</ele><time>2026-03-22T10:11:03Z</time></trkpt><trkpt lat="43.32463998285774" lon="2.2671256482346385"><ele>323.33333333333337</ele><time>2026-03-22T10:11:04Z</time></trkpt><trkpt lat="43.324743825617354" lon="2.2670628971150193"><ele>323.5</ele><time>2026-03-22T10:11:06Z</time></trkpt><trkpt lat="43.32481545453191" lon="2.2671032368555037"><ele>323.6666666666667</ele><time>2026-03-22T10:11:08Z</time></trkpt><trkpt lat="43.324874435781304" lon="2.2671579884251933"><ele>323.8333333333333</ele><time>2026-03-22T10:11:10Z</time></trkpt><trkpt lat="43.324912880005435" lon="2.2672278472022396"><ele>324.0</ele><time>2026-03-22T10:11:12Z</time></trkpt><trkpt lat="43.324840427241995" lon="2.2673499793558807"><ele>323.75</ele><time>2026-03-22T10:11:14Z</time></trkpt><trkpt lat="43.32477882227545" lon="2.267490796032234"><ele>323.5</ele><time>2026-03-22T10:11:15Z</time></trkpt><trkpt lat="43.32469961958997" lon="2.26760692689624"><ele>323.25</ele><time>2026-03-22T10:11:16Z</time></trkpt><trkpt lat="43.324615550802896" lon="2.2677360500327826"><ele>323.0</ele><time>2026-03-22T10:11:17Z</time></trkpt><trkpt lat="43.32454318153408" lon="2.267865618896779"><ele>323.0</ele><time>2026-03-22T10:11:18Z</time></trkpt><trkpt lat="43.32445341731237" lon="2.2679898284797"><ele>323.0</ele><time>2026-03-22T10:11:19Z</time></trkpt><trkpt lat="43.32436950563484" lon="2.2681337254632634"><ele>323.0</ele><time>2026-03-22T10:11:20Z</time></trkpt><trkpt lat="43.32427897611183" lon="2.2682663792513114"><ele>323.0</ele><time>2026-03-22T10:11:21Z</time></trkpt><trkpt lat="43.32418196009696" lon="2.268399539198255"><ele>322.33333333333337</ele><time>2026-03-22T10:11:22Z</time></trkpt><trkpt lat="43.32405552268111" lon="2.2685316671042886"><ele>321.6666666666667</ele><time>2026-03-22T10:11:23Z</time></trkpt><trkpt lat="43.323939162006624" lon="2.268665806878572"><ele>321.0</ele><time>2026-03-22T10:11:24Z</time></trkpt><trkpt lat="43.32382595520329" lon="2.2687946954987925"><ele>321.0</ele><time>2026-03-22T10:11:25Z</time></trkpt><trkpt lat="43.32372384051791" lon="2.268916663245588"><ele>321.0</ele><time>2026-03-22T10:11:26Z</time></trkpt><trkpt lat="43.32362424179661" lon="2.2690482464240103"><ele>321.0</ele><time>2026-03-22T10:11:27Z</time></trkpt><trkpt lat="43.3235257824928" lon="2.2691894577966796"><ele>321.0</ele><time>2026-03-22T10:11:28Z</time></trkpt><trkpt lat="43.32342196887104" lon="2.2693421742145383"><ele>318.3333333333333</ele><time>2026-03-22T10:11:29Z</time></trkpt><trkpt lat="43.32332571554081" lon="2.2695086300664333"><ele>315.66666666666663</ele><time>2026-03-22T10:11:30Z</time></trkpt><trkpt lat="43.32324149728094" lon="2.2696846589993687"><ele>313.0</ele><time>2026-03-22T10:11:31Z</time></trkpt><trkpt lat="43.323146161400956" lon="2.2698378325566027"><ele>313.5</ele><time>2026-03-22T10:11:32Z</time></trkpt><trkpt lat="43.323089869427896" lon="2.2700232377202623"><ele>314.0</ele><time>2026-03-22T10:11:33Z</time></trkpt><trkpt lat="43.32302806883415" lon="2.2702116402722994"><ele>314.5</ele><time>2026-03-22T10:11:34Z</time></trkpt><trkpt lat="43.32295045680302" lon="2.270388260334399"><ele>315.0</ele><time>2026-03-22T10:11:35Z</time></trkpt><trkpt lat="43.32288536207581" lon="2.2705605206853297"><ele>313.75</ele><time>2026-03-22T10:11:36Z</time></trkpt><trkpt lat="43.322818531201726" lon="2.2707262510402098"><ele>312.5</ele><time>2026-03-22T10:11:37Z</time></trkpt><trkpt lat="43.32275264923867" lon="2.2708887501579724"><ele>311.25</ele><time>2026-03-22T10:11:38Z</time></trkpt><trkpt lat="43.32268441048895" lon="2.271043404071916"><ele>310.0</ele><time>2026-03-22T10:11:39Z</time></trkpt><trkpt lat="43.322618391305824" lon="2.271202284029401"><ele>310.0</ele><time>2026-03-22T10:11:40Z</time></trkpt><trkpt lat="43.32255691798725" lon="2.2713698620340255"><ele>310.0</ele><time>2026-03-22T10:11:41Z</time></trkpt><trkpt lat="43.322501780979735" lon="2.2715444479297964"><ele>310.0</ele><time>2026-03-22T10:11:42Z</time></trkpt><trkpt lat="43.32245431744802" lon="2.2717384279212434"><ele>310.0</ele><time>2026-03-22T10:11:43Z</time></trkpt><trkpt lat="43.32242845139143" lon="2.271943924987084"><ele>307.0</ele><time>2026-03-22T10:11:44Z</time></trkpt><trkpt lat="43.32240467741941" lon="2.2721524212692152"><ele>304.0</ele><time>2026-03-22T10:11:45Z</time></trkpt><trkpt lat="43.32235621815806" lon="2.2723668534610395"><ele>301.0</ele><time>2026-03-22T10:11:46Z</time></trkpt><trkpt lat="43.32229761271417" lon="2.272579328947319"><ele>300.75</ele><time>2026-03-22T10:11:47Z</time></trkpt><trkpt lat="43.32224050395093" lon="2.2727655807493403"><ele>300.5</ele><time>2026-03-22T10:11:48Z</time></trkpt><trkpt lat="43.322182724253324" lon="2.272950233099306"><ele>300.25</ele><time>2026-03-22T10:11:49Z</time></trkpt><trkpt lat="43.32212679234137" lon="2.2731289799757386"><ele>300.0</ele><time>2026-03-22T10:11:50Z</time></trkpt><trkpt lat="43.32207368116903" lon="2.2732987122630948"><ele>300.0</ele><time>2026-03-22T10:11:51Z</time></trkpt><trkpt lat="43.322023722432675" lon="2.2734584282748433"><ele>300.0</ele><time>2026-03-22T10:11:52Z</time></trkpt><trkpt lat="43.321969325033024" lon="2.273616821590918"><ele>300.0</ele><time>2026-03-22T10:11:53Z</time></trkpt><trkpt lat="43.32191272268446" lon="2.273776556629038"><ele>300.0</ele><time>2026-03-22T10:11:54Z</time></trkpt><trkpt lat="43.32185020728789" lon="2.2739467745971895"><ele>297.0</ele><time>2026-03-22T10:11:55Z</time></trkpt><trkpt lat="43.321782899594275" lon="2.2741300412542036"><ele>294.0</ele><time>2026-03-22T10:11:55.999Z</time></trkpt><trkpt lat="43.321717925441334" lon="2.274314469098951"><ele>291.0</ele><time>2026-03-22T10:11:56.999Z</time></trkpt><trkpt lat="43.32164972155294" lon="2.274509663373286"><ele>291.0</ele><time>2026-03-22T10:11:57.999Z</time></trkpt><trkpt lat="43.3215788822098" lon="2.27471063808829"><ele>291.0</ele><time>2026-03-22T10:11:58.999Z</time></trkpt><trkpt lat="43.32150772209159" lon="2.2749117653791466"><ele>291.0</ele><time>2026-03-22T10:11:59.999Z</time></trkpt><trkpt lat="43.32144209471199" lon="2.275097254887914"><ele>293.0</ele><time>2026-03-22T10:12:00.999Z</time></trkpt><trkpt lat="43.32137697909598" lon="2.2752812982086974"><ele>295.0</ele><time>2026-03-22T10:12:01.999Z</time></trkpt><trkpt lat="43.32131026494575" lon="2.2754698593393226"><ele>297.0</ele><time>2026-03-22T10:12:02.999Z</time></trkpt><trkpt lat="43.32124137511915" lon="2.2756638701047263"><ele>292.6666666666667</ele><time>2026-03-22T10:12:03.999Z</time></trkpt><trkpt lat="43.32116825815279" lon="2.27585968794493"><ele>288.33333333333337</ele><time>2026-03-22T10:12:04.999Z</time></trkpt><trkpt lat="43.32111020841876" lon="2.276059280021324"><ele>284.0</ele><time>2026-03-22T10:12:05.999Z</time></trkpt><trkpt lat="43.32102772086961" lon="2.2762485975046554"><ele>284.0</ele><time>2026-03-22T10:12:06.999Z</time></trkpt><trkpt lat="43.32092447196045" lon="2.2764139308264286"><ele>284.0</ele><time>2026-03-22T10:12:07.999Z</time></trkpt><trkpt lat="43.320832247828136" lon="2.2765909734071723"><ele>284.0</ele><time>2026-03-22T10:12:08.999Z</time></trkpt><trkpt lat="43.320742121797586" lon="2.2767649154226537"><ele>284.25</ele><time>2026-03-22T10:12:09.999Z</time></trkpt><trkpt lat="43.32065975261614" lon="2.2769332474961264"><ele>284.5</ele><time>2026-03-22T10:12:10.999Z</time></trkpt><trkpt lat="43.32058781027067" lon="2.2771049823068394"><ele>284.75</ele><time>2026-03-22T10:12:11.999Z</time></trkpt><trkpt lat="43.3204932830184" lon="2.2772678946762657"><ele>285.0</ele><time>2026-03-22T10:12:12.999Z</time></trkpt><trkpt lat="43.32037764274159" lon="2.2774119042442744"><ele>281.75</ele><time>2026-03-22T10:12:13.999Z</time></trkpt><trkpt lat="43.32027858781713" lon="2.2775763854865305"><ele>278.5</ele><time>2026-03-22T10:12:14.999Z</time></trkpt><trkpt lat="43.32017509893082" lon="2.277706373984966"><ele>275.25</ele><time>2026-03-22T10:12:15.999Z</time></trkpt><trkpt lat="43.32008986763655" lon="2.277858343764048"><ele>272.0</ele><time>2026-03-22T10:12:16.999Z</time></trkpt><trkpt lat="43.32000218386453" lon="2.2780092985616407"><ele>268.33333333333337</ele><time>2026-03-22T10:12:17.999Z</time></trkpt><trkpt lat="43.31993983693484" lon="2.278205155780721"><ele>264.6666666666667</ele><time>2026-03-22T10:12:18.999Z</time></trkpt><trkpt lat="43.31993173939955" lon="2.278424917161378"><ele>261.0</ele><time>2026-03-22T10:12:19.999Z</time></trkpt><trkpt lat="43.31990008568559" lon="2.2786222082131564"><ele>261.0</ele><time>2026-03-22T10:12:20.999Z</time></trkpt><trkpt lat="43.31987317508128" lon="2.278803750133952"><ele>261.0</ele><time>2026-03-22T10:12:21.999Z</time></trkpt><trkpt lat="43.31976744630703" lon="2.2789581327319732"><ele>261.0</ele><time>2026-03-22T10:12:23Z</time></trkpt><trkpt lat="43.31964639801075" lon="2.2790958729013933"><ele>261.0</ele><time>2026-03-22T10:12:24Z</time></trkpt><trkpt lat="43.31951201263664" lon="2.2792240421896635"><ele>259.75</ele><time>2026-03-22T10:12:25Z</time></trkpt><trkpt lat="43.31938146931622" lon="2.279362008509301"><ele>258.5</ele><time>2026-03-22T10:12:26Z</time></trkpt><trkpt lat="43.31925711087975" lon="2.279468619580625"><ele>257.25</ele><time>2026-03-22T10:12:27Z</time></trkpt><trkpt lat="43.319145830928136" lon="2.2795674584839682"><ele>256.0</ele><time>2026-03-22T10:12:28Z</time></trkpt><trkpt lat="43.31902273648006" lon="2.2796776673760686"><ele>255.0</ele><time>2026-03-22T10:12:29Z</time></trkpt><trkpt lat="43.31889211905898" lon="2.2797978019903775"><ele>254.0</ele><time>2026-03-22T10:12:30Z</time></trkpt><trkpt lat="43.318753995187194" lon="2.279919478853431"><ele>253.0</ele><time>2026-03-22T10:12:31Z</time></trkpt><trkpt lat="43.3186072202464" lon="2.2800483028117116"><ele>253.0</ele><time>2026-03-22T10:12:32Z</time></trkpt><trkpt lat="43.31846282472632" lon="2.2801755903615364"><ele>253.0</ele><time>2026-03-22T10:12:33Z</time></trkpt><trkpt lat="43.318320642728935" lon="2.280305587447725"><ele>253.0</ele><time>2026-03-22T10:12:34Z</time></trkpt><trkpt lat="43.31817288673378" lon="2.280440408428958"><ele>253.0</ele><time>2026-03-22T10:12:35Z</time></trkpt><trkpt lat="43.318023999925764" lon="2.2805751304394226"><ele>253.0</ele><time>2026-03-22T10:12:36Z</time></trkpt><trkpt lat="43.31788430167468" lon="2.280691622791894"><ele>253.0</ele><time>2026-03-22T10:12:37Z</time></trkpt><trkpt lat="43.3177322026264" lon="2.2808134144024343"><ele>253.0</ele><time>2026-03-22T10:12:38Z</time></trkpt><trkpt lat="43.31758063273621" lon="2.2809308227740677"><ele>253.0</ele><time>2026-03-22T10:12:39Z</time></trkpt><trkpt lat="43.31743615102321" lon="2.2810348837330654"><ele>253.0</ele><time>2026-03-22T10:12:40Z</time></trkpt><trkpt lat="43.31729952319048" lon="2.281123426958248"><ele>252.5</ele><time>2026-03-22T10:12:41Z</time></trkpt><trkpt lat="43.3171656389608" lon="2.2812070633366948"><ele>252.0</ele><time>2026-03-22T10:12:42Z</time></trkpt><trkpt lat="43.31703320738875" lon="2.281292695602831"><ele>251.5</ele><time>2026-03-22T10:12:43Z</time></trkpt><trkpt lat="43.31689959163376" lon="2.28137876394967"><ele>251.0</ele><time>2026-03-22T10:12:44Z</time></trkpt><trkpt lat="43.316764554186186" lon="2.281467616130308"><ele>250.66666666666669</ele><time>2026-03-22T10:12:45Z</time></trkpt><trkpt lat="43.31662358009763" lon="2.281554628307242"><ele>250.33333333333331</ele><time>2026-03-22T10:12:46Z</time></trkpt><trkpt lat="43.31649015302414" lon="2.28165066325081"><ele>250.0</ele><time>2026-03-22T10:12:47Z</time></trkpt><trkpt lat="43.31636832308091" lon="2.281768366102288"><ele>250.0</ele><time>2026-03-22T10:12:48Z</time></trkpt><trkpt lat="43.31625346897306" lon="2.2819095935320264"><ele>250.0</ele><time>2026-03-22T10:12:49Z</time></trkpt><trkpt lat="43.31616556355483" lon="2.282071759585821"><ele>250.0</ele><time>2026-03-22T10:12:50Z</time></trkpt><trkpt lat="43.316080518919186" lon="2.2822561041483675"><ele>250.66666666666666</ele><time>2026-03-22T10:12:51Z</time></trkpt><trkpt lat="43.315982679037" lon="2.2824890483068474"><ele>251.33333333333331</ele><time>2026-03-22T10:12:52Z</time></trkpt><trkpt lat="43.31587213367395" lon="2.282745071604358"><ele>252.0</ele><time>2026-03-22T10:12:53Z</time></trkpt><trkpt lat="43.31576167580324" lon="2.2829911192407293"><ele>251.0</ele><time>2026-03-22T10:12:54Z</time></trkpt><trkpt lat="43.315666698502206" lon="2.283201908663261"><ele>250.0</ele><time>2026-03-22T10:12:55Z</time></trkpt><trkpt lat="43.315576425189136" lon="2.283405090423093"><ele>249.0</ele><time>2026-03-22T10:12:56Z</time></trkpt><trkpt lat="43.315492407048" lon="2.2835908624057653"><ele>249.0</ele><time>2026-03-22T10:12:57Z</time></trkpt><trkpt lat="43.31540671369514" lon="2.2837676149363793"><ele>249.0</ele><time>2026-03-22T10:12:58Z</time></trkpt><trkpt lat="43.31532644434981" lon="2.2839494196013437"><ele>249.0</ele><time>2026-03-22T10:12:59Z</time></trkpt><trkpt lat="43.315243495171714" lon="2.2841365071347104"><ele>248.66666666666669</ele><time>2026-03-22T10:13:00Z</time></trkpt><trkpt lat="43.31516357928082" lon="2.2843179001528613"><ele>248.33333333333334</ele><time>2026-03-22T10:13:01Z</time></trkpt><trkpt lat="43.31506373818086" lon="2.2844992174090777"><ele>248.0</ele><time>2026-03-22T10:13:02Z</time></trkpt><trkpt lat="43.314985390839816" lon="2.2846939010360017"><ele>249.66666666666669</ele><time>2026-03-22T10:13:03Z</time></trkpt><trkpt lat="43.3149270986477" lon="2.2849177746651046"><ele>251.33333333333331</ele><time>2026-03-22T10:13:04Z</time></trkpt><trkpt lat="43.31485427516565" lon="2.285150428759173"><ele>253.0</ele><time>2026-03-22T10:13:05Z</time></trkpt><trkpt lat="43.314791245710865" lon="2.285352436337912"><ele>251.33333333333331</ele><time>2026-03-22T10:13:06Z</time></trkpt><trkpt lat="43.31471531429649" lon="2.285546685108522"><ele>249.66666666666669</ele><time>2026-03-22T10:13:07Z</time></trkpt><trkpt lat="43.31464305729414" lon="2.285746284429982"><ele>248.0</ele><time>2026-03-22T10:13:08Z</time></trkpt><trkpt lat="43.31456557939194" lon="2.2859418975430716"><ele>248.0</ele><time>2026-03-22T10:13:09Z</time></trkpt><trkpt lat="43.31447701591112" lon="2.286134524836807"><ele>248.0</ele><time>2026-03-22T10:13:10Z</time></trkpt><trkpt lat="43.314367812668" lon="2.2863321009369004"><ele>248.0</ele><time>2026-03-22T10:13:11Z</time></trkpt><trkpt lat="43.31425630424668" lon="2.2865206903666695"><ele>248.0</ele><time>2026-03-22T10:13:12Z</time></trkpt><trkpt lat="43.314147578729404" lon="2.286684098487919"><ele>248.0</ele><time>2026-03-22T10:13:13Z</time></trkpt><trkpt lat="43.31404932137589" lon="2.2868392011366536"><ele>248.0</ele><time>2026-03-22T10:13:14Z</time></trkpt><trkpt lat="43.313936609719676" lon="2.2869824662488374"><ele>247.33333333333334</ele><time>2026-03-22T10:13:15Z</time></trkpt><trkpt lat="43.31380306196181" lon="2.2871128946343315"><ele>246.66666666666669</ele><time>2026-03-22T10:13:16Z</time></trkpt><trkpt lat="43.31367292950831" lon="2.2872599542810708"><ele>246.0</ele><time>2026-03-22T10:13:17Z</time></trkpt><trkpt lat="43.31354611541297" lon="2.2873757745694534"><ele>246.0</ele><time>2026-03-22T10:13:18Z</time></trkpt><trkpt lat="43.31343145349389" lon="2.2874777884816377"><ele>246.0</ele><time>2026-03-22T10:13:19Z</time></trkpt><trkpt lat="43.3133240635944" lon="2.287593468528945"><ele>246.0</ele><time>2026-03-22T10:13:20Z</time></trkpt><trkpt lat="43.313228999646654" lon="2.2877382864201454"><ele>246.0</ele><time>2026-03-22T10:13:21Z</time></trkpt><trkpt lat="43.31314646162732" lon="2.2879169357235973"><ele>246.0</ele><time>2026-03-22T10:13:22Z</time></trkpt><trkpt lat="43.31308917477904" lon="2.28812969543851"><ele>246.0</ele><time>2026-03-22T10:13:23Z</time></trkpt><trkpt lat="43.31305453660727" lon="2.288335706273992"><ele>246.0</ele><time>2026-03-22T10:13:24Z</time></trkpt><trkpt lat="43.31297522020548" lon="2.2885166939206085"><ele>246.0</ele><time>2026-03-22T10:13:25Z</time></trkpt><trkpt lat="43.31288613654499" lon="2.288673204021438"><ele>246.0</ele><time>2026-03-22T10:13:26Z</time></trkpt><trkpt lat="43.312781854340585" lon="2.2888332880846374"><ele>246.0</ele><time>2026-03-22T10:13:27Z</time></trkpt><trkpt lat="43.31266284400536" lon="2.2890088662114088"><ele>244.66666666666669</ele><time>2026-03-22T10:13:28Z</time></trkpt><trkpt lat="43.31255715482932" lon="2.289183644471183"><ele>243.33333333333334</ele><time>2026-03-22T10:13:29Z</time></trkpt><trkpt lat="43.31245343247678" lon="2.289354381895871"><ele>242.0</ele><time>2026-03-22T10:13:30Z</time></trkpt><trkpt lat="43.31233395905536" lon="2.2895120656499808"><ele>242.33333333333334</ele><time>2026-03-22T10:13:31Z</time></trkpt><trkpt lat="43.312221623347746" lon="2.2896868934230277"><ele>242.66666666666669</ele><time>2026-03-22T10:13:32Z</time></trkpt><trkpt lat="43.31212013044902" lon="2.2898610952321814"><ele>243.0</ele><time>2026-03-22T10:13:33Z</time></trkpt><trkpt lat="43.312043968753876" lon="2.2900446025314944"><ele>243.0</ele><time>2026-03-22T10:13:34Z</time></trkpt><trkpt lat="43.31194180839874" lon="2.290207681616124"><ele>243.0</ele><time>2026-03-22T10:13:35Z</time></trkpt><trkpt lat="43.311845297364165" lon="2.2903826366727964"><ele>243.0</ele><time>2026-03-22T10:13:36Z</time></trkpt><trkpt lat="43.31174436621302" lon="2.2905614249457398"><ele>243.33333333333331</ele><time>2026-03-22T10:13:37Z</time></trkpt><trkpt lat="43.311641204136095" lon="2.2907370123597537"><ele>243.66666666666666</ele><time>2026-03-22T10:13:38Z</time></trkpt><trkpt lat="43.31153723045132" lon="2.29090967241353"><ele>244.0</ele><time>2026-03-22T10:13:39Z</time></trkpt><trkpt lat="43.311434547439816" lon="2.2910797119785613"><ele>244.0</ele><time>2026-03-22T10:13:40Z</time></trkpt><trkpt lat="43.311344573665245" lon="2.2912663204997563"><ele>244.0</ele><time>2026-03-22T10:13:41Z</time></trkpt><trkpt lat="43.31124765625076" lon="2.291436836771105"><ele>244.0</ele><time>2026-03-22T10:13:42Z</time></trkpt><trkpt lat="43.31116037676579" lon="2.291625254514701"><ele>242.66666666666666</ele><time>2026-03-22T10:13:43Z</time></trkpt><trkpt lat="43.31105838619457" lon="2.291806052633555"><ele>241.33333333333331</ele><time>2026-03-22T10:13:44Z</time></trkpt><trkpt lat="43.31096945304871" lon="2.292005753141032"><ele>240.0</ele><time>2026-03-22T10:13:45Z</time></trkpt><trkpt lat="43.31087194858864" lon="2.2921939263474616"><ele>240.66666666666669</ele><time>2026-03-22T10:13:46Z</time></trkpt><trkpt lat="43.310750843090545" lon="2.292359979414816"><ele>241.33333333333334</ele><time>2026-03-22T10:13:47Z</time></trkpt><trkpt lat="43.31062811691152" lon="2.292522312687639"><ele>242.0</ele><time>2026-03-22T10:13:48Z</time></trkpt><trkpt lat="43.31051459576781" lon="2.292675504254605"><ele>242.0</ele><time>2026-03-22T10:13:49Z</time></trkpt><trkpt lat="43.31041134963896" lon="2.292844395699221"><ele>242.0</ele><time>2026-03-22T10:13:50Z</time></trkpt><trkpt lat="43.31029821760244" lon="2.2929879797350643"><ele>242.0</ele><time>2026-03-22T10:13:51Z</time></trkpt><trkpt lat="43.31018690116272" lon="2.293134663043694"><ele>240.66666666666669</ele><time>2026-03-22T10:13:52Z</time></trkpt><trkpt lat="43.31007765094537" lon="2.293281076262762"><ele>239.33333333333331</ele><time>2026-03-22T10:13:53Z</time></trkpt><trkpt lat="43.309974833108114" lon="2.2934234391281914"><ele>238.0</ele><time>2026-03-22T10:13:54Z</time></trkpt><trkpt lat="43.309858246758694" lon="2.2935559090337887"><ele>238.0</ele><time>2026-03-22T10:13:55Z</time></trkpt><trkpt lat="43.30974437601219" lon="2.2937072735348014"><ele>238.0</ele><time>2026-03-22T10:13:56Z</time></trkpt><trkpt lat="43.3096334755729" lon="2.293853697084967"><ele>238.0</ele><time>2026-03-22T10:13:57Z</time></trkpt><trkpt lat="43.30952916999351" lon="2.2940005842409876"><ele>238.0</ele><time>2026-03-22T10:13:58Z</time></trkpt><trkpt lat="43.309381503629496" lon="2.2941203509134804"><ele>238.0</ele><time>2026-03-22T10:13:59Z</time></trkpt><trkpt lat="43.30919880061399" lon="2.294206818588025"><ele>238.0</ele><time>2026-03-22T10:14:00Z</time></trkpt><trkpt lat="43.30900494606779" lon="2.2942631922067727"><ele>237.33333333333331</ele><time>2026-03-22T10:14:01Z</time></trkpt><trkpt lat="43.30882223021252" lon="2.2943009094669957"><ele>236.66666666666669</ele><time>2026-03-22T10:14:02Z</time></trkpt><trkpt lat="43.3086642862658" lon="2.2943290286873537"><ele>236.0</ele><time>2026-03-22T10:14:03Z</time></trkpt><trkpt lat="43.30851852930415" lon="2.294359773603325"><ele>236.0</ele><time>2026-03-22T10:14:04Z</time></trkpt><trkpt lat="43.30838236624657" lon="2.2944020418069773"><ele>236.0</ele><time>2026-03-22T10:14:04.999Z</time></trkpt><trkpt lat="43.308254391849914" lon="2.294483744917772"><ele>236.0</ele><time>2026-03-22T10:14:05.999Z</time></trkpt><trkpt lat="43.308109369113616" lon="2.2946322178801353"><ele>236.33333333333334</ele><time>2026-03-22T10:14:06.999Z</time></trkpt><trkpt lat="43.307969205339134" lon="2.2947808419101783"><ele>236.66666666666669</ele><time>2026-03-22T10:14:07.999Z</time></trkpt><trkpt lat="43.307834271891984" lon="2.294883350603402"><ele>237.0</ele><time>2026-03-22T10:14:08.999Z</time></trkpt><trkpt lat="43.30769296915858" lon="2.294987623226294"><ele>237.0</ele><time>2026-03-22T10:14:09.999Z</time></trkpt><trkpt lat="43.3075399464905" lon="2.2950539696980843"><ele>237.0</ele><time>2026-03-22T10:14:10.999Z</time></trkpt><trkpt lat="43.30739600641396" lon="2.2951097584998568"><ele>237.0</ele><time>2026-03-22T10:14:11.999Z</time></trkpt><trkpt lat="43.30726761504853" lon="2.2951868836456386"><ele>235.5</ele><time>2026-03-22T10:14:12.999Z</time></trkpt><trkpt lat="43.30714551676421" lon="2.295236898792636"><ele>234.0</ele><time>2026-03-22T10:14:13.999Z</time></trkpt><trkpt lat="43.30702714264112" lon="2.2952922864463607"><ele>232.5</ele><time>2026-03-22T10:14:14.999Z</time></trkpt><trkpt lat="43.30691797409412" lon="2.2953767269298724"><ele>231.0</ele><time>2026-03-22T10:14:15.999Z</time></trkpt><trkpt lat="43.306811482135664" lon="2.295485415332673"><ele>231.0</ele><time>2026-03-22T10:14:16.999Z</time></trkpt><trkpt lat="43.30670675698003" lon="2.2956360963470157"><ele>231.0</ele><time>2026-03-22T10:14:17.999Z</time></trkpt><trkpt lat="43.30661040663755" lon="2.2958177706429277"><ele>231.0</ele><time>2026-03-22T10:14:18.999Z</time></trkpt><trkpt lat="43.306511097117074" lon="2.296013716607608"><ele>230.33333333333331</ele><time>2026-03-22T10:14:19.999Z</time></trkpt><trkpt lat="43.30640020255971" lon="2.2961897891008642"><ele>229.66666666666666</ele><time>2026-03-22T10:14:20.999Z</time></trkpt><trkpt lat="43.30628869421058" lon="2.296368165597999"><ele>229.0</ele><time>2026-03-22T10:14:21.999Z</time></trkpt><trkpt lat="43.306181445727496" lon="2.2965396526215556"><ele>227.66666666666666</ele><time>2026-03-22T10:14:22.999Z</time></trkpt><trkpt lat="43.3060741094726" lon="2.296712368430929"><ele>226.33333333333331</ele><time>2026-03-22T10:14:23.999Z</time></trkpt><trkpt lat="43.305972206447706" lon="2.296888546658306"><ele>225.0</ele><time>2026-03-22T10:14:24.999Z</time></trkpt><trkpt lat="43.30587047642307" lon="2.297053195871529"><ele>225.0</ele><time>2026-03-22T10:14:25.999Z</time></trkpt><trkpt lat="43.30576753335152" lon="2.297221528073432"><ele>225.0</ele><time>2026-03-22T10:14:26.999Z</time></trkpt><trkpt lat="43.305669269685865" lon="2.297384183051824"><ele>225.0</ele><time>2026-03-22T10:14:27.999Z</time></trkpt><trkpt lat="43.30557579159261" lon="2.297545984626375"><ele>224.66666666666669</ele><time>2026-03-22T10:14:29Z</time></trkpt><trkpt lat="43.30548328341815" lon="2.297719911711985"><ele>224.33333333333334</ele><time>2026-03-22T10:14:30Z</time></trkpt><trkpt lat="43.305374915052745" lon="2.2978944528599032"><ele>224.0</ele><time>2026-03-22T10:14:31Z</time></trkpt><trkpt lat="43.30530364061872" lon="2.2981067511770252"><ele>223.66666666666669</ele><time>2026-03-22T10:14:32Z</time></trkpt><trkpt lat="43.30522825098451" lon="2.2983144124463495"><ele>223.33333333333331</ele><time>2026-03-22T10:14:33Z</time></trkpt><trkpt lat="43.305154865204905" lon="2.298523686700099"><ele>223.0</ele><time>2026-03-22T10:14:34Z</time></trkpt><trkpt lat="43.30507121229" lon="2.2987591593222674"><ele>223.0</ele><time>2026-03-22T10:14:35Z</time></trkpt><trkpt lat="43.304990092287674" lon="2.298985757702335"><ele>223.0</ele><time>2026-03-22T10:14:36Z</time></trkpt><trkpt lat="43.304897926490625" lon="2.2991879420602364"><ele>223.0</ele><time>2026-03-22T10:14:37Z</time></trkpt><trkpt lat="43.30482075732574" lon="2.2993983765986585"><ele>223.0</ele><time>2026-03-22T10:14:38Z</time></trkpt><trkpt lat="43.304729097029444" lon="2.2996482675121173"><ele>223.0</ele><time>2026-03-22T10:14:39Z</time></trkpt><trkpt lat="43.304628053687374" lon="2.2999237392869234"><ele>223.0</ele><time>2026-03-22T10:14:40Z</time></trkpt><trkpt lat="43.30453122573688" lon="2.3001877187174595"><ele>223.0</ele><time>2026-03-22T10:14:41Z</time></trkpt><trkpt lat="43.304441793271245" lon="2.300431536002633"><ele>223.0</ele><time>2026-03-22T10:14:42Z</time></trkpt><trkpt lat="43.30435905776081" lon="2.3006548480787594"><ele>223.0</ele><time>2026-03-22T10:14:43Z</time></trkpt><trkpt lat="43.3042713487665" lon="2.3008636515618295"><ele>222.33333333333331</ele><time>2026-03-22T10:14:44Z</time></trkpt><trkpt lat="43.3041784247821" lon="2.3010493360954785"><ele>221.66666666666669</ele><time>2026-03-22T10:14:45Z</time></trkpt><trkpt lat="43.30408142351172" lon="2.3012179607836525"><ele>221.0</ele><time>2026-03-22T10:14:46Z</time></trkpt><trkpt lat="43.303998822834835" lon="2.30139027594703"><ele>219.33333333333334</ele><time>2026-03-22T10:14:47Z</time></trkpt><trkpt lat="43.303943332806796" lon="2.30159479840077"><ele>217.66666666666669</ele><time>2026-03-22T10:14:48Z</time></trkpt><trkpt lat="43.303887622149446" lon="2.3018302333242753"><ele>216.0</ele><time>2026-03-22T10:14:49Z</time></trkpt><trkpt lat="43.30381481275469" lon="2.3020942116243406"><ele>216.0</ele><time>2026-03-22T10:14:50Z</time></trkpt><trkpt lat="43.3037390116131" lon="2.302388460479677"><ele>216.0</ele><time>2026-03-22T10:14:51Z</time></trkpt><trkpt lat="43.30366588295222" lon="2.3026723352161036"><ele>216.0</ele><time>2026-03-22T10:14:52Z</time></trkpt><trkpt lat="43.30360069014469" lon="2.3029249859966816"><ele>216.66666666666669</ele><time>2026-03-22T10:14:53Z</time></trkpt><trkpt lat="43.303539295818304" lon="2.3031585776067574"><ele>217.33333333333334</ele><time>2026-03-22T10:14:54Z</time></trkpt><trkpt lat="43.30347879764888" lon="2.3033780726314332"><ele>218.0</ele><time>2026-03-22T10:14:55Z</time></trkpt><trkpt lat="43.303417798487665" lon="2.303587952284685"><ele>218.0</ele><time>2026-03-22T10:14:56Z</time></trkpt><trkpt lat="43.30336001269459" lon="2.303779193683009"><ele>218.0</ele><time>2026-03-22T10:14:57Z</time></trkpt><trkpt lat="43.3033035325436" lon="2.3039637311742975"><ele>218.0</ele><time>2026-03-22T10:14:58Z</time></trkpt><trkpt lat="43.30324641372524" lon="2.3041422757395225"><ele>218.0</ele><time>2026-03-22T10:14:59Z</time></trkpt><trkpt lat="43.303185832299604" lon="2.3043285313950386"><ele>216.33333333333334</ele><time>2026-03-22T10:15:00Z</time></trkpt><trkpt lat="43.303120225019335" lon="2.3045138995378585"><ele>214.66666666666669</ele><time>2026-03-22T10:15:01Z</time></trkpt><trkpt lat="43.30304627336376" lon="2.304697356605405"><ele>213.0</ele><time>2026-03-22T10:15:02Z</time></trkpt><trkpt lat="43.30296230421255" lon="2.3048791810611053"><ele>213.0</ele><time>2026-03-22T10:15:03Z</time></trkpt><trkpt lat="43.30287002578222" lon="2.3050599552150497"><ele>213.0</ele><time>2026-03-22T10:15:04Z</time></trkpt><trkpt lat="43.30276886675527" lon="2.3052427448870576"><ele>213.0</ele><time>2026-03-22T10:15:05Z</time></trkpt><trkpt lat="43.30265998729193" lon="2.305431241368377"><ele>213.33333333333331</ele><time>2026-03-22T10:15:06Z</time></trkpt><trkpt lat="43.302548405247336" lon="2.305624416649204"><ele>213.66666666666666</ele><time>2026-03-22T10:15:07Z</time></trkpt><trkpt lat="43.3024540603547" lon="2.305824438620669"><ele>214.0</ele><time>2026-03-22T10:15:08Z</time></trkpt><trkpt lat="43.30233510140831" lon="2.306001680274215"><ele>211.66666666666666</ele><time>2026-03-22T10:15:09Z</time></trkpt><trkpt lat="43.3022403699622" lon="2.3061948346809285"><ele>209.33333333333331</ele><time>2026-03-22T10:15:10Z</time></trkpt><trkpt lat="43.30215652673007" lon="2.3063988434196925"><ele>207.0</ele><time>2026-03-22T10:15:11Z</time></trkpt><trkpt lat="43.30207239885476" lon="2.306612323658037"><ele>207.0</ele><time>2026-03-22T10:15:12Z</time></trkpt><trkpt lat="43.30199119950192" lon="2.306820254502756"><ele>207.0</ele><time>2026-03-22T10:15:13Z</time></trkpt><trkpt lat="43.30191312760485" lon="2.307023467872586"><ele>207.0</ele><time>2026-03-22T10:15:14Z</time></trkpt><trkpt lat="43.30183911618374" lon="2.3072198972904094"><ele>210.33333333333331</ele><time>2026-03-22T10:15:15Z</time></trkpt><trkpt lat="43.3017196568095" lon="2.3073621206643287"><ele>213.66666666666666</ele><time>2026-03-22T10:15:16Z</time></trkpt><trkpt lat="43.30160638302711" lon="2.307501340018345"><ele>217.0</ele><time>2026-03-22T10:15:17Z</time></trkpt><trkpt lat="43.30148607534089" lon="2.307630774544897"><ele>213.66666666666666</ele><time>2026-03-22T10:15:18Z</time></trkpt><trkpt lat="43.30135903635801" lon="2.3077615994142424"><ele>210.33333333333331</ele><time>2026-03-22T10:15:19Z</time></trkpt><trkpt lat="43.30121222199823" lon="2.3078780172458666"><ele>207.0</ele><time>2026-03-22T10:15:20Z</time></trkpt><trkpt lat="43.301075781686414" lon="2.3079966324862897"><ele>211.0</ele><time>2026-03-22T10:15:21Z</time></trkpt><trkpt lat="43.30092251997426" lon="2.3080806903297826"><ele>215.0</ele><time>2026-03-22T10:15:22Z</time></trkpt><trkpt lat="43.30076955546518" lon="2.308168043018984"><ele>219.0</ele><time>2026-03-22T10:15:23Z</time></trkpt><trkpt lat="43.30062393363803" lon="2.3082553235269176"><ele>215.0</ele><time>2026-03-22T10:15:24Z</time></trkpt><trkpt lat="43.30049798130626" lon="2.3083570511121305"><ele>211.0</ele><time>2026-03-22T10:15:25Z</time></trkpt><trkpt lat="43.30037555155562" lon="2.3084547117574563"><ele>207.0</ele><time>2026-03-22T10:15:26Z</time></trkpt><trkpt lat="43.30025819622924" lon="2.3085643888240317"><ele>203.0</ele><time>2026-03-22T10:15:27Z</time></trkpt><trkpt lat="43.30014294911485" lon="2.308695013079111"><ele>203.0</ele><time>2026-03-22T10:15:28Z</time></trkpt><trkpt lat="43.300016784029104" lon="2.3088423826228346"><ele>203.0</ele><time>2026-03-22T10:15:29Z</time></trkpt><trkpt lat="43.299901385400446" lon="2.3090033341035454"><ele>203.0</ele><time>2026-03-22T10:15:30Z</time></trkpt><trkpt lat="43.29978491215869" lon="2.3092274464001625"><ele>204.33333333333334</ele><time>2026-03-22T10:15:31Z</time></trkpt><trkpt lat="43.29966546258192" lon="2.309456914265372"><ele>205.66666666666669</ele><time>2026-03-22T10:15:32Z</time></trkpt><trkpt lat="43.299564359874935" lon="2.3096584313105586"><ele>207.0</ele><time>2026-03-22T10:15:33Z</time></trkpt><trkpt lat="43.29946069305423" lon="2.309843506576484"><ele>205.0</ele><time>2026-03-22T10:15:34Z</time></trkpt><trkpt lat="43.29936803297141" lon="2.3100126627705566"><ele>203.0</ele><time>2026-03-22T10:15:35Z</time></trkpt><trkpt lat="43.299286478935045" lon="2.3101642889172034"><ele>201.0</ele><time>2026-03-22T10:15:36Z</time></trkpt><trkpt lat="43.29921197613262" lon="2.310320596584913"><ele>199.0</ele><time>2026-03-22T10:15:37Z</time></trkpt><trkpt lat="43.299132108642716" lon="2.3104618284502996"><ele>199.0</ele><time>2026-03-22T10:15:38Z</time></trkpt><trkpt lat="43.29905802921825" lon="2.3106043861674084"><ele>199.0</ele><time>2026-03-22T10:15:39Z</time></trkpt><trkpt lat="43.298972667927835" lon="2.3107239781856572"><ele>199.0</ele><time>2026-03-22T10:15:40Z</time></trkpt><trkpt lat="43.298902930705296" lon="2.310850908428785"><ele>199.0</ele><time>2026-03-22T10:15:41Z</time></trkpt><trkpt lat="43.29884071025192" lon="2.310968408662985"><ele>199.0</ele><time>2026-03-22T10:15:42Z</time></trkpt><trkpt lat="43.29877739442975" lon="2.3110797805749668"><ele>199.0</ele><time>2026-03-22T10:15:43Z</time></trkpt><trkpt lat="43.29871944652279" lon="2.311194393753254"><ele>199.0</ele><time>2026-03-22T10:15:44Z</time></trkpt><trkpt lat="43.29866652327647" lon="2.3112978033148353"><ele>199.0</ele><time>2026-03-22T10:15:45Z</time></trkpt><trkpt lat="43.298609544174184" lon="2.311392115341603"><ele>199.0</ele><time>2026-03-22T10:15:46Z</time></trkpt><trkpt lat="43.29855322864661" lon="2.3114768812063424"><ele>198.83333333333331</ele><time>2026-03-22T10:15:47Z</time></trkpt><trkpt lat="43.298497841533035" lon="2.3115426622657593"><ele>198.66666666666666</ele><time>2026-03-22T10:15:48Z</time></trkpt><trkpt lat="43.298432527235114" lon="2.3115918553231363"><ele>198.5</ele><time>2026-03-22T10:15:49Z</time></trkpt><trkpt lat="43.2983663878824" lon="2.3116143334589605"><ele>198.33333333333331</ele><time>2026-03-22T10:15:50Z</time></trkpt><trkpt lat="43.298299589052256" lon="2.311628563285419"><ele>198.16666666666666</ele><time>2026-03-22T10:15:51Z</time></trkpt><trkpt lat="43.29823816778155" lon="2.3116535515645764"><ele>198.0</ele><time>2026-03-22T10:15:52Z</time></trkpt><trkpt lat="43.29816728169799" lon="2.3118254855460187"><ele>198.0</ele><time>2026-03-22T10:15:54Z</time></trkpt><trkpt lat="43.29814853909268" lon="2.311959829692986"><ele>198.0</ele><time>2026-03-22T10:15:55Z</time></trkpt><trkpt lat="43.298137023872826" lon="2.312099640116799"><ele>198.0</ele><time>2026-03-22T10:15:56Z</time></trkpt><trkpt lat="43.298130567683216" lon="2.312238595650474"><ele>198.0</ele><time>2026-03-22T10:15:57Z</time></trkpt><trkpt lat="43.29817359713677" lon="2.3123773231244087"><ele>198.0</ele><time>2026-03-22T10:15:58Z</time></trkpt><trkpt lat="43.29824495530418" lon="2.3125079675378104"><ele>198.66666666666666</ele><time>2026-03-22T10:15:59Z</time></trkpt><trkpt lat="43.29829515569792" lon="2.3126154129892615"><ele>199.33333333333331</ele><time>2026-03-22T10:16:00Z</time></trkpt><trkpt lat="43.29833282270158" lon="2.312696098893224"><ele>200.0</ele><time>2026-03-22T10:16:01Z</time></trkpt><trkpt lat="43.2983775465862" lon="2.312771680855561"><ele>200.66666666666666</ele><time>2026-03-22T10:16:01.999Z</time></trkpt><trkpt lat="43.2984299150594" lon="2.3128528106828674"><ele>201.33333333333331</ele><time>2026-03-22T10:16:02.999Z</time></trkpt><trkpt lat="43.29848792220254" lon="2.31292993279238"><ele>202.0</ele><time>2026-03-22T10:16:03.999Z</time></trkpt><trkpt lat="43.298547867908226" lon="2.312990705398866"><ele>201.99999999999997</ele><time>2026-03-22T10:16:04.999Z</time></trkpt><trkpt lat="43.29861171087992" lon="2.31306027149076"><ele>202.0</ele><time>2026-03-22T10:16:05.999Z</time></trkpt><trkpt lat="43.29866085751336" lon="2.313150768492675"><ele>202.0</ele><time>2026-03-22T10:16:06.999Z</time></trkpt><trkpt lat="43.29869219700569" lon="2.313247677994732"><ele>202.0</ele><time>2026-03-22T10:16:07.999Z</time></trkpt><trkpt lat="43.29870586517064" lon="2.3133735731800145"><ele>201.99999999999997</ele><time>2026-03-22T10:16:08.999Z</time></trkpt><trkpt lat="43.29868147380997" lon="2.313503158042289"><ele>202.0</ele><time>2026-03-22T10:16:09.999Z</time></trkpt><trkpt lat="43.29867320431135" lon="2.3136499705847435"><ele>201.0</ele><time>2026-03-22T10:16:10.999Z</time></trkpt><trkpt lat="43.298626002027994" lon="2.313833837833118"><ele>200.0</ele><time>2026-03-22T10:16:11.999Z</time></trkpt><trkpt lat="43.29859045004128" lon="2.314023188497029"><ele>199.0</ele><time>2026-03-22T10:16:12.999Z</time></trkpt><trkpt lat="43.298546045117085" lon="2.314254596438728"><ele>200.5</ele><time>2026-03-22T10:16:13.999Z</time></trkpt><trkpt lat="43.29851019689427" lon="2.3144471083061426"><ele>202.0</ele><time>2026-03-22T10:16:14.999Z</time></trkpt><trkpt lat="43.29848099293093" lon="2.3146077875202566"><ele>203.5</ele><time>2026-03-22T10:16:15.999Z</time></trkpt><trkpt lat="43.2984572054349" lon="2.3147528915127014"><ele>205.0</ele><time>2026-03-22T10:16:16.999Z</time></trkpt><trkpt lat="43.29842022060448" lon="2.3148902779117346"><ele>206.75</ele><time>2026-03-22T10:16:17.999Z</time></trkpt><trkpt lat="43.29838892884972" lon="2.3150355799469255"><ele>208.5</ele><time>2026-03-22T10:16:18.999Z</time></trkpt><trkpt lat="43.29832221347746" lon="2.3151766951105297"><ele>210.25</ele><time>2026-03-22T10:16:19.999Z</time></trkpt><trkpt lat="43.29826532370849" lon="2.315309554856153"><ele>212.0</ele><time>2026-03-22T10:16:20.999Z</time></trkpt><trkpt lat="43.298167439133216" lon="2.3154226252092713"><ele>208.5</ele><time>2026-03-22T10:16:21.999Z</time></trkpt><trkpt lat="43.29804355053435" lon="2.3155060092562088"><ele>205.0</ele><time>2026-03-22T10:16:22.999Z</time></trkpt><trkpt lat="43.297923984551865" lon="2.315602755596275"><ele>201.5</ele><time>2026-03-22T10:16:23.999Z</time></trkpt><trkpt lat="43.29781884377415" lon="2.3156727514375834"><ele>198.0</ele><time>2026-03-22T10:16:24.999Z</time></trkpt><trkpt lat="43.297717426503134" lon="2.3157419061746523"><ele>198.0</ele><time>2026-03-22T10:16:25.999Z</time></trkpt><trkpt lat="43.2976173649547" lon="2.3158203175359997"><ele>198.0</ele><time>2026-03-22T10:16:26.999Z</time></trkpt><trkpt lat="43.2975133489455" lon="2.315900615210461"><ele>198.0</ele><time>2026-03-22T10:16:27.999Z</time></trkpt><trkpt lat="43.29739458570017" lon="2.315983621318882"><ele>198.0</ele><time>2026-03-22T10:16:28.999Z</time></trkpt><trkpt lat="43.297299597372984" lon="2.3160953485825333"><ele>197.75</ele><time>2026-03-22T10:16:29.999Z</time></trkpt><trkpt lat="43.297204150807154" lon="2.3162226079871924"><ele>197.5</ele><time>2026-03-22T10:16:30.999Z</time></trkpt><trkpt lat="43.2971277682988" lon="2.3163432388868412"><ele>197.25</ele><time>2026-03-22T10:16:31.999Z</time></trkpt><trkpt lat="43.29708785228023" lon="2.316479817830842"><ele>197.0</ele><time>2026-03-22T10:16:32.999Z</time></trkpt><trkpt lat="43.2970359565664" lon="2.316587401022709"><ele>197.0</ele><time>2026-03-22T10:16:33.999Z</time></trkpt><trkpt lat="43.29694819721793" lon="2.3166600353882805"><ele>197.0</ele><time>2026-03-22T10:16:35Z</time></trkpt><trkpt lat="43.296835054174295" lon="2.3167508702501247"><ele>197.0</ele><time>2026-03-22T10:16:36Z</time></trkpt><trkpt lat="43.296720066132366" lon="2.3168160010435255"><ele>197.0</ele><time>2026-03-22T10:16:37Z</time></trkpt><trkpt lat="43.29662275279106" lon="2.316875435506444"><ele>197.0</ele><time>2026-03-22T10:16:38Z</time></trkpt><trkpt lat="43.29650896035103" lon="2.316951431187265"><ele>197.0</ele><time>2026-03-22T10:16:39Z</time></trkpt><trkpt lat="43.29641242717582" lon="2.3170335675215794"><ele>197.0</ele><time>2026-03-22T10:16:40Z</time></trkpt><trkpt lat="43.29632099953903" lon="2.3171201885105575"><ele>197.0</ele><time>2026-03-22T10:16:41Z</time></trkpt><trkpt lat="43.296241547958466" lon="2.3172185975399566"><ele>195.25</ele><time>2026-03-22T10:16:42Z</time></trkpt><trkpt lat="43.296154154746574" lon="2.3173630697972576"><ele>193.5</ele><time>2026-03-22T10:16:43Z</time></trkpt><trkpt lat="43.2960757594931" lon="2.3175568432329405"><ele>191.75</ele><time>2026-03-22T10:16:44Z</time></trkpt><trkpt lat="43.29602419541077" lon="2.3177258922332786"><ele>190.0</ele><time>2026-03-22T10:16:45Z</time></trkpt><trkpt lat="43.295977420782705" lon="2.3178905425876417"><ele>190.0</ele><time>2026-03-22T10:16:46Z</time></trkpt><trkpt lat="43.29593215797573" lon="2.3180411627359967"><ele>190.0</ele><time>2026-03-22T10:16:47Z</time></trkpt><trkpt lat="43.29587586121561" lon="2.3181791476610423"><ele>190.0</ele><time>2026-03-22T10:16:48Z</time></trkpt><trkpt lat="43.29580772962617" lon="2.318295367190215"><ele>190.0</ele><time>2026-03-22T10:16:49Z</time></trkpt><trkpt lat="43.295743546853146" lon="2.3184007374449838"><ele>190.0</ele><time>2026-03-22T10:16:50Z</time></trkpt><trkpt lat="43.295686356419566" lon="2.3184895800426886"><ele>190.5</ele><time>2026-03-22T10:16:51Z</time></trkpt><trkpt lat="43.29563148235693" lon="2.3185754888145222"><ele>191.0</ele><time>2026-03-22T10:16:52Z</time></trkpt><trkpt lat="43.29557454456242" lon="2.318657558884242"><ele>191.5</ele><time>2026-03-22T10:16:53Z</time></trkpt><trkpt lat="43.2955259704876" lon="2.318725032823606"><ele>192.0</ele><time>2026-03-22T10:16:54Z</time></trkpt><trkpt lat="43.29545435414748" lon="2.3187445061056224"><ele>192.49999999999997</ele><time>2026-03-22T10:16:55Z</time></trkpt><trkpt lat="43.29538457884032" lon="2.3187396125064317"><ele>193.0</ele><time>2026-03-22T10:16:56Z</time></trkpt><trkpt lat="43.29527425237602" lon="2.3186795969906657"><ele>191.2857142857143</ele><time>2026-03-22T10:16:58Z</time></trkpt><trkpt lat="43.29522599083425" lon="2.3186111260911684"><ele>189.57142857142858</ele><time>2026-03-22T10:16:59Z</time></trkpt><trkpt lat="43.29518128931282" lon="2.3185399659298125"><ele>187.85714285714286</ele><time>2026-03-22T10:17:00Z</time></trkpt><trkpt lat="43.295137274562606" lon="2.318462033814449"><ele>186.14285714285717</ele><time>2026-03-22T10:17:01Z</time></trkpt><trkpt lat="43.29509370810478" lon="2.3183828488874347"><ele>184.42857142857142</ele><time>2026-03-22T10:17:02Z</time></trkpt><trkpt lat="43.29505689934358" lon="2.3183013929263754"><ele>182.71428571428572</ele><time>2026-03-22T10:17:03Z</time></trkpt><trkpt lat="43.29503301011047" lon="2.3182188763093423"><ele>181.0</ele><time>2026-03-22T10:17:04Z</time></trkpt><trkpt lat="43.295022530868174" lon="2.3181237765839735"><ele>181.0</ele><time>2026-03-22T10:17:05Z</time></trkpt><trkpt lat="43.29501447971509" lon="2.318014981949119"><ele>181.0</ele><time>2026-03-22T10:17:06Z</time></trkpt><trkpt lat="43.294994538362744" lon="2.317924166092757"><ele>181.0</ele><time>2026-03-22T10:17:07Z</time></trkpt><trkpt lat="43.294954285614764" lon="2.3178484225470126"><ele>181.0</ele><time>2026-03-22T10:17:08Z</time></trkpt><trkpt lat="43.29491041646128" lon="2.3177808516737146"><ele>181.0</ele><time>2026-03-22T10:17:09Z</time></trkpt><trkpt lat="43.294820259254806" lon="2.317769748141839"><ele>181.0</ele><time>2026-03-22T10:17:10Z</time></trkpt><trkpt lat="43.2947386671424" lon="2.3177753985121803"><ele>181.8</ele><time>2026-03-22T10:17:11Z</time></trkpt><trkpt lat="43.29466384542241" lon="2.317771470574282"><ele>182.60000000000002</ele><time>2026-03-22T10:17:12Z</time></trkpt><trkpt lat="43.29459953558274" lon="2.317754696502771"><ele>183.4</ele><time>2026-03-22T10:17:13Z</time></trkpt><trkpt lat="43.29448716894089" lon="2.317742335795457"><ele>184.2</ele><time>2026-03-22T10:17:15Z</time></trkpt><trkpt lat="43.29444044232611" lon="2.3178898160933468"><ele>185.0</ele><time>2026-03-22T10:17:16Z</time></trkpt><trkpt lat="43.29439307938965" lon="2.3180116670369713"><ele>185.16666666666666</ele><time>2026-03-22T10:17:17Z</time></trkpt><trkpt lat="43.2943217871593" lon="2.3181107995631005"><ele>185.33333333333331</ele><time>2026-03-22T10:17:18Z</time></trkpt><trkpt lat="43.294277409744346" lon="2.318203367869344"><ele>185.5</ele><time>2026-03-22T10:17:19Z</time></trkpt><trkpt lat="43.294249990666145" lon="2.3183012899416826"><ele>185.66666666666666</ele><time>2026-03-22T10:17:20Z</time></trkpt><trkpt lat="43.294199319468085" lon="2.318387218543301"><ele>185.83333333333334</ele><time>2026-03-22T10:17:21Z</time></trkpt><trkpt lat="43.294157780428264" lon="2.3184685838228636"><ele>186.0</ele><time>2026-03-22T10:17:22Z</time></trkpt><trkpt lat="43.29411369690081" lon="2.318548611569667"><ele>186.00000000000003</ele><time>2026-03-22T10:17:23Z</time></trkpt><trkpt lat="43.2940678776165" lon="2.3186280299638633"><ele>186.0</ele><time>2026-03-22T10:17:24Z</time></trkpt><trkpt lat="43.29402789338238" lon="2.3187013571991026"><ele>186.0</ele><time>2026-03-22T10:17:25Z</time></trkpt><trkpt lat="43.29398630258454" lon="2.3187786759954396"><ele>186.0</ele><time>2026-03-22T10:17:26Z</time></trkpt><trkpt lat="43.293947965522044" lon="2.3188482177389016"><ele>186.0</ele><time>2026-03-22T10:17:27Z</time></trkpt><trkpt lat="43.29391144159011" lon="2.3189209194153886"><ele>186.00000000000003</ele><time>2026-03-22T10:17:28Z</time></trkpt><trkpt lat="43.293876165351755" lon="2.3189942057715274"><ele>186.0</ele><time>2026-03-22T10:17:29Z</time></trkpt><trkpt lat="43.293838483187756" lon="2.319072524540669"><ele>188.16666666666666</ele><time>2026-03-22T10:17:30Z</time></trkpt><trkpt lat="43.293791223855955" lon="2.3191600024693293"><ele>190.33333333333331</ele><time>2026-03-22T10:17:31Z</time></trkpt><trkpt lat="43.29374066330882" lon="2.3192433275997324"><ele>192.5</ele><time>2026-03-22T10:17:32Z</time></trkpt><trkpt lat="43.29369610536862" lon="2.319334646790576"><ele>194.66666666666666</ele><time>2026-03-22T10:17:33Z</time></trkpt><trkpt lat="43.29365083910986" lon="2.3194210539547893"><ele>196.83333333333331</ele><time>2026-03-22T10:17:34Z</time></trkpt><trkpt lat="43.293603031761975" lon="2.319507542706453"><ele>199.0</ele><time>2026-03-22T10:17:35Z</time></trkpt><trkpt lat="43.29355685635555" lon="2.3196062646045212"><ele>199.0</ele><time>2026-03-22T10:17:36Z</time></trkpt><trkpt lat="43.29351445135744" lon="2.319718320378817"><ele>199.0</ele><time>2026-03-22T10:17:37Z</time></trkpt><trkpt lat="43.29345928439284" lon="2.319845806316968"><ele>199.0</ele><time>2026-03-22T10:17:38Z</time></trkpt><trkpt lat="43.293422853706154" lon="2.31998670787842"><ele>199.0</ele><time>2026-03-22T10:17:39Z</time></trkpt><trkpt lat="43.293407191624325" lon="2.320134140298531"><ele>199.0</ele><time>2026-03-22T10:17:40Z</time></trkpt><trkpt lat="43.29336503988477" lon="2.3202641527590835"><ele>198.2</ele><time>2026-03-22T10:17:41Z</time></trkpt><trkpt lat="43.29335580477253" lon="2.3203991778452027"><ele>197.39999999999998</ele><time>2026-03-22T10:17:42Z</time></trkpt><trkpt lat="43.29333165098924" lon="2.3205161313264497"><ele>196.6</ele><time>2026-03-22T10:17:43Z</time></trkpt><trkpt lat="43.29331199954019" lon="2.3206378044540688"><ele>195.8</ele><time>2026-03-22T10:17:44Z</time></trkpt><trkpt lat="43.29328419343965" lon="2.3207713593180843"><ele>195.0</ele><time>2026-03-22T10:17:45Z</time></trkpt><trkpt lat="43.29325030542746" lon="2.3208899991255394"><ele>194.4</ele><time>2026-03-22T10:17:46Z</time></trkpt><trkpt lat="43.29319583390943" lon="2.3209972794560185"><ele>193.8</ele><time>2026-03-22T10:17:47Z</time></trkpt><trkpt lat="43.29312911414309" lon="2.3210998482908276"><ele>193.2</ele><time>2026-03-22T10:17:48Z</time></trkpt><trkpt lat="43.29306627585496" lon="2.3212155478505254"><ele>192.6</ele><time>2026-03-22T10:17:49Z</time></trkpt><trkpt lat="43.2930098981983" lon="2.3213483956874987"><ele>192.0</ele><time>2026-03-22T10:17:50Z</time></trkpt><trkpt lat="43.29296466246187" lon="2.3214826896206215"><ele>193.5</ele><time>2026-03-22T10:17:51Z</time></trkpt><trkpt lat="43.29292687652089" lon="2.3216482532812255"><ele>195.0</ele><time>2026-03-22T10:17:52Z</time></trkpt><trkpt lat="43.2928997587956" lon="2.3218385796127268"><ele>196.5</ele><time>2026-03-22T10:17:53Z</time></trkpt><trkpt lat="43.29286559117053" lon="2.3219956619033653"><ele>198.0</ele><time>2026-03-22T10:17:54Z</time></trkpt><trkpt lat="43.292805110932434" lon="2.322155165509715"><ele>197.0</ele><time>2026-03-22T10:17:55Z</time></trkpt><trkpt lat="43.29275199476799" lon="2.3223261427557"><ele>196.0</ele><time>2026-03-22T10:17:56Z</time></trkpt><trkpt lat="43.292691853204836" lon="2.3224703002037304"><ele>195.0</ele><time>2026-03-22T10:17:57Z</time></trkpt><trkpt lat="43.29261880210616" lon="2.3226059398389354"><ele>194.0</ele><time>2026-03-22T10:17:58Z</time></trkpt><trkpt lat="43.292523826470976" lon="2.322742677452117"><ele>194.0</ele><time>2026-03-22T10:17:59Z</time></trkpt><trkpt lat="43.292428328782336" lon="2.3228728942462546"><ele>194.0</ele><time>2026-03-22T10:18:00Z</time></trkpt><trkpt lat="43.292294294759195" lon="2.3229591512212555"><ele>194.0</ele><time>2026-03-22T10:18:01Z</time></trkpt><trkpt lat="43.29217293942032" lon="2.323069275714417"><ele>194.0</ele><time>2026-03-22T10:18:02Z</time></trkpt><trkpt lat="43.29205775504492" lon="2.3231462041383404"><ele>194.25</ele><time>2026-03-22T10:18:02.999Z</time></trkpt><trkpt lat="43.29195543828794" lon="2.323231064222972"><ele>194.5</ele><time>2026-03-22T10:18:03.999Z</time></trkpt><trkpt lat="43.29187133294693" lon="2.323321843760869"><ele>194.75</ele><time>2026-03-22T10:18:04.999Z</time></trkpt><trkpt lat="43.29182082541198" lon="2.3234732387060517"><ele>195.0</ele><time>2026-03-22T10:18:05.999Z</time></trkpt><trkpt lat="43.291758571228584" lon="2.323655913799563"><ele>195.0</ele><time>2026-03-22T10:18:06.999Z</time></trkpt><trkpt lat="43.291699825917526" lon="2.323871514873613"><ele>195.0</ele><time>2026-03-22T10:18:07.999Z</time></trkpt><trkpt lat="43.291646147810106" lon="2.3240498296286503"><ele>195.0</ele><time>2026-03-22T10:18:08.999Z</time></trkpt><trkpt lat="43.29160170156361" lon="2.3242168937559953"><ele>195.0</ele><time>2026-03-22T10:18:09.999Z</time></trkpt><trkpt lat="43.29155183850025" lon="2.3243868013161357"><ele>195.0</ele><time>2026-03-22T10:18:10.999Z</time></trkpt><trkpt lat="43.29150608296885" lon="2.324555943626697"><ele>195.0</ele><time>2026-03-22T10:18:11.999Z</time></trkpt><trkpt lat="43.29145454308787" lon="2.324707007818725"><ele>195.0</ele><time>2026-03-22T10:18:12.999Z</time></trkpt><trkpt lat="43.29137979563721" lon="2.3248484952269344"><ele>195.0</ele><time>2026-03-22T10:18:13.999Z</time></trkpt><trkpt lat="43.29127154845351" lon="2.3249477538165033"><ele>195.0</ele><time>2026-03-22T10:18:14.999Z</time></trkpt><trkpt lat="43.29116176288865" lon="2.325043267373354"><ele>195.0</ele><time>2026-03-22T10:18:15.999Z</time></trkpt><trkpt lat="43.29102936261918" lon="2.325153127434192"><ele>195.0</ele><time>2026-03-22T10:18:16.999Z</time></trkpt><trkpt lat="43.29087943943998" lon="2.3252983188100154"><ele>195.0</ele><time>2026-03-22T10:18:17.999Z</time></trkpt><trkpt lat="43.29074840933377" lon="2.3254026658109055"><ele>195.0</ele><time>2026-03-22T10:18:18.999Z</time></trkpt><trkpt lat="43.290633027083175" lon="2.325503612807336"><ele>195.0</ele><time>2026-03-22T10:18:19.999Z</time></trkpt><trkpt lat="43.29051990211916" lon="2.325620958941228"><ele>195.0</ele><time>2026-03-22T10:18:20.999Z</time></trkpt><trkpt lat="43.29040516095853" lon="2.325765140651067"><ele>196.75</ele><time>2026-03-22T10:18:21.999Z</time></trkpt><trkpt lat="43.29030254738519" lon="2.32590639570423"><ele>198.5</ele><time>2026-03-22T10:18:22.999Z</time></trkpt><trkpt lat="43.290212278248276" lon="2.3260594083674193"><ele>200.25</ele><time>2026-03-22T10:18:23.999Z</time></trkpt><trkpt lat="43.2901177584601" lon="2.3262379294405537"><ele>202.0</ele><time>2026-03-22T10:18:24.999Z</time></trkpt><trkpt lat="43.290021550921104" lon="2.326436140655261"><ele>202.66666666666666</ele><time>2026-03-22T10:18:25.999Z</time></trkpt><trkpt lat="43.289911119508105" lon="2.3266278466356645"><ele>203.33333333333331</ele><time>2026-03-22T10:18:26.999Z</time></trkpt><trkpt lat="43.28982080607221" lon="2.3268031545186925"><ele>204.0</ele><time>2026-03-22T10:18:27.999Z</time></trkpt><trkpt lat="43.28973090510366" lon="2.3269586110001788"><ele>204.0</ele><time>2026-03-22T10:18:28.999Z</time></trkpt><trkpt lat="43.28965611417091" lon="2.327119254186413"><ele>204.0</ele><time>2026-03-22T10:18:29.999Z</time></trkpt><trkpt lat="43.28956725443534" lon="2.327251181489173"><ele>204.0</ele><time>2026-03-22T10:18:30.999Z</time></trkpt><trkpt lat="43.28953787970247" lon="2.3274588668356526"><ele>204.0</ele><time>2026-03-22T10:18:31.999Z</time></trkpt><trkpt lat="43.28951534359567" lon="2.327685081872049"><ele>203.66666666666669</ele><time>2026-03-22T10:18:32.999Z</time></trkpt><trkpt lat="43.289488426639096" lon="2.327925373313097"><ele>203.33333333333334</ele><time>2026-03-22T10:18:33.999Z</time></trkpt><trkpt lat="43.28947413553606" lon="2.3281544961662166"><ele>203.0</ele><time>2026-03-22T10:18:34.999Z</time></trkpt><trkpt lat="43.28944795300892" lon="2.328344856368111"><ele>203.0</ele><time>2026-03-22T10:18:35.999Z</time></trkpt><trkpt lat="43.28940183451481" lon="2.32851230513177"><ele>203.0</ele><time>2026-03-22T10:18:36.999Z</time></trkpt><trkpt lat="43.28932873903453" lon="2.328679282829927"><ele>203.0</ele><time>2026-03-22T10:18:37.999Z</time></trkpt><trkpt lat="43.28923585405686" lon="2.3288621106187795"><ele>203.0</ele><time>2026-03-22T10:18:38.999Z</time></trkpt><trkpt lat="43.289135309035146" lon="2.3290134157416706"><ele>203.25</ele><time>2026-03-22T10:18:39.999Z</time></trkpt><trkpt lat="43.28902326984971" lon="2.329124904373801"><ele>203.5</ele><time>2026-03-22T10:18:41Z</time></trkpt><trkpt lat="43.28889597330341" lon="2.329199796550862"><ele>203.75</ele><time>2026-03-22T10:18:42Z</time></trkpt><trkpt lat="43.28879062528341" lon="2.329290791909159"><ele>204.0</ele><time>2026-03-22T10:18:43Z</time></trkpt><trkpt lat="43.28868315189539" lon="2.329391399525452"><ele>204.0</ele><time>2026-03-22T10:18:44Z</time></trkpt><trkpt lat="43.28858477000525" lon="2.329541357486771"><ele>204.0</ele><time>2026-03-22T10:18:45Z</time></trkpt><trkpt lat="43.288494595484664" lon="2.329694253487238"><ele>204.0</ele><time>2026-03-22T10:18:46Z</time></trkpt><trkpt lat="43.28839908714922" lon="2.329836212244066"><ele>204.0</ele><time>2026-03-22T10:18:47Z</time></trkpt><trkpt lat="43.2882860027388" lon="2.329963002766667"><ele>203.66666666666669</ele><time>2026-03-22T10:18:48Z</time></trkpt><trkpt lat="43.2881796165932" lon="2.3301176879767334"><ele>203.33333333333334</ele><time>2026-03-22T10:18:49Z</time></trkpt><trkpt lat="43.288072828688406" lon="2.330266005810543"><ele>203.0</ele><time>2026-03-22T10:18:50Z</time></trkpt><trkpt lat="43.28796294380463" lon="2.3304155845516648"><ele>201.66666666666669</ele><time>2026-03-22T10:18:51Z</time></trkpt><trkpt lat="43.28784509428185" lon="2.330567267387118"><ele>200.33333333333331</ele><time>2026-03-22T10:18:52Z</time></trkpt><trkpt lat="43.28772899558061" lon="2.330696059034992"><ele>199.0</ele><time>2026-03-22T10:18:53Z</time></trkpt><trkpt lat="43.28761342188012" lon="2.330804794139058"><ele>199.0</ele><time>2026-03-22T10:18:54Z</time></trkpt><trkpt lat="43.28749112529743" lon="2.3309150046788303"><ele>199.0</ele><time>2026-03-22T10:18:55Z</time></trkpt><trkpt lat="43.287360249065756" lon="2.331032946942585"><ele>199.0</ele><time>2026-03-22T10:18:56Z</time></trkpt><trkpt lat="43.28721594928505" lon="2.331159692787631"><ele>198.33333333333331</ele><time>2026-03-22T10:18:57Z</time></trkpt><trkpt lat="43.28704043386124" lon="2.3313135508125575"><ele>197.66666666666669</ele><time>2026-03-22T10:18:58Z</time></trkpt><trkpt lat="43.28688745491414" lon="2.331481112064656"><ele>197.0</ele><time>2026-03-22T10:18:59Z</time></trkpt><trkpt lat="43.28673091752573" lon="2.3316330125831004"><ele>196.33333333333334</ele><time>2026-03-22T10:19:00Z</time></trkpt><trkpt lat="43.286594709872084" lon="2.3317842905875787"><ele>195.66666666666669</ele><time>2026-03-22T10:19:01Z</time></trkpt><trkpt lat="43.28647582197308" lon="2.331944065309761"><ele>195.0</ele><time>2026-03-22T10:19:02Z</time></trkpt><trkpt lat="43.28635818744514" lon="2.332099980197826"><ele>192.66666666666666</ele><time>2026-03-22T10:19:03Z</time></trkpt><trkpt lat="43.28625823967088" lon="2.332303998900216"><ele>190.33333333333331</ele><time>2026-03-22T10:19:04Z</time></trkpt><trkpt lat="43.28615980491346" lon="2.3325256219395833"><ele>188.0</ele><time>2026-03-22T10:19:05Z</time></trkpt><trkpt lat="43.28606711122184" lon="2.332731845245594"><ele>188.0</ele><time>2026-03-22T10:19:06Z</time></trkpt><trkpt lat="43.28597985353669" lon="2.3329217351225795"><ele>188.0</ele><time>2026-03-22T10:19:07Z</time></trkpt><trkpt lat="43.285898553097745" lon="2.3331028157312494"><ele>188.0</ele><time>2026-03-22T10:19:08Z</time></trkpt><trkpt lat="43.285820065055766" lon="2.3332794355562516"><ele>188.0</ele><time>2026-03-22T10:19:09Z</time></trkpt><trkpt lat="43.28573700390561" lon="2.333459838285902"><ele>188.0</ele><time>2026-03-22T10:19:10Z</time></trkpt><trkpt lat="43.28564864474253" lon="2.3336397245657263"><ele>188.0</ele><time>2026-03-22T10:19:11Z</time></trkpt><trkpt lat="43.28555983495912" lon="2.3338059672141944"><ele>186.66666666666666</ele><time>2026-03-22T10:19:12Z</time></trkpt><trkpt lat="43.28546631866339" lon="2.3339684113463526"><ele>185.33333333333334</ele><time>2026-03-22T10:19:13Z</time></trkpt><trkpt lat="43.285373240208166" lon="2.3341224935296156"><ele>184.0</ele><time>2026-03-22T10:19:14Z</time></trkpt><trkpt lat="43.28527021767525" lon="2.3342907674223006"><ele>184.0</ele><time>2026-03-22T10:19:15Z</time></trkpt><trkpt lat="43.28517212019093" lon="2.3344495088282007"><ele>184.0</ele><time>2026-03-22T10:19:16Z</time></trkpt><trkpt lat="43.28508045000339" lon="2.3346281768753006"><ele>184.0</ele><time>2026-03-22T10:19:17Z</time></trkpt><trkpt lat="43.284972486735455" lon="2.3347951857888987"><ele>184.66666666666669</ele><time>2026-03-22T10:19:18Z</time></trkpt><trkpt lat="43.28484127105837" lon="2.3349959974082104"><ele>185.33333333333334</ele><time>2026-03-22T10:19:19Z</time></trkpt><trkpt lat="43.284712348887126" lon="2.3351621830346954"><ele>186.0</ele><time>2026-03-22T10:19:20Z</time></trkpt><trkpt lat="43.28458311517752" lon="2.335304695906762"><ele>184.33333333333334</ele><time>2026-03-22T10:19:21Z</time></trkpt><trkpt lat="43.28443699040084" lon="2.335416183242943"><ele>182.66666666666669</ele><time>2026-03-22T10:19:22Z</time></trkpt><trkpt lat="43.28430650493309" lon="2.3355546736342885"><ele>181.0</ele><time>2026-03-22T10:19:23Z</time></trkpt><trkpt lat="43.28416946146604" lon="2.3356693833684568"><ele>180.66666666666669</ele><time>2026-03-22T10:19:24Z</time></trkpt><trkpt lat="43.28403715518489" lon="2.335800914223412"><ele>180.33333333333334</ele><time>2026-03-22T10:19:25Z</time></trkpt><trkpt lat="43.28390959084887" lon="2.335972107629183"><ele>180.0</ele><time>2026-03-22T10:19:26Z</time></trkpt><trkpt lat="43.28379345944475" lon="2.33617653431157"><ele>179.0</ele><time>2026-03-22T10:19:27Z</time></trkpt><trkpt lat="43.283697678614274" lon="2.3363929795772975"><ele>178.0</ele><time>2026-03-22T10:19:28Z</time></trkpt><trkpt lat="43.283587177672096" lon="2.336616048159325"><ele>177.0</ele><time>2026-03-22T10:19:29Z</time></trkpt><trkpt lat="43.283480085472014" lon="2.3368583418878632"><ele>177.0</ele><time>2026-03-22T10:19:30Z</time></trkpt><trkpt lat="43.28337572944781" lon="2.3370909901175634"><ele>177.0</ele><time>2026-03-22T10:19:31Z</time></trkpt><trkpt lat="43.283278794864216" lon="2.337299506425875"><ele>177.0</ele><time>2026-03-22T10:19:32Z</time></trkpt><trkpt lat="43.283178580685636" lon="2.3374945995892373"><ele>176.0</ele><time>2026-03-22T10:19:33Z</time></trkpt><trkpt lat="43.28306613651331" lon="2.337670816534105"><ele>175.0</ele><time>2026-03-22T10:19:34Z</time></trkpt><trkpt lat="43.28295256652442" lon="2.3378436237118363"><ele>174.0</ele><time>2026-03-22T10:19:35Z</time></trkpt><trkpt lat="43.282840859154895" lon="2.338015149620487"><ele>174.0</ele><time>2026-03-22T10:19:36Z</time></trkpt><trkpt lat="43.2827431158261" lon="2.338195080588049"><ele>174.0</ele><time>2026-03-22T10:19:37Z</time></trkpt><trkpt lat="43.28264797279423" lon="2.338386972943948"><ele>174.0</ele><time>2026-03-22T10:19:38Z</time></trkpt><trkpt lat="43.28254289239713" lon="2.338589641447419"><ele>174.0</ele><time>2026-03-22T10:19:39Z</time></trkpt><trkpt lat="43.28242906535013" lon="2.3388063526998155"><ele>174.0</ele><time>2026-03-22T10:19:40Z</time></trkpt><trkpt lat="43.282309468208815" lon="2.3390170757543687"><ele>174.0</ele><time>2026-03-22T10:19:41Z</time></trkpt><trkpt lat="43.28218866251215" lon="2.3392175786779914"><ele>172.66666666666666</ele><time>2026-03-22T10:19:42Z</time></trkpt><trkpt lat="43.28207187014529" lon="2.3394103452008745"><ele>171.33333333333331</ele><time>2026-03-22T10:19:43Z</time></trkpt><trkpt lat="43.28196179808943" lon="2.3395945179974325"><ele>170.0</ele><time>2026-03-22T10:19:44Z</time></trkpt><trkpt lat="43.28185684517277" lon="2.33976773897989"><ele>170.0</ele><time>2026-03-22T10:19:45Z</time></trkpt><trkpt lat="43.28175020145188" lon="2.339926621636031"><ele>170.0</ele><time>2026-03-22T10:19:46Z</time></trkpt><trkpt lat="43.28163693646674" lon="2.340081729895103"><ele>170.0</ele><time>2026-03-22T10:19:47Z</time></trkpt><trkpt lat="43.2815097161126" lon="2.3402410440173864"><ele>168.66666666666666</ele><time>2026-03-22T10:19:48Z</time></trkpt><trkpt lat="43.281375285296676" lon="2.3403999950726755"><ele>167.33333333333334</ele><time>2026-03-22T10:19:49Z</time></trkpt><trkpt lat="43.28123650313388" lon="2.3405570977167653"><ele>166.0</ele><time>2026-03-22T10:19:50Z</time></trkpt><trkpt lat="43.28110106484401" lon="2.3407079277481073"><ele>166.0</ele><time>2026-03-22T10:19:51Z</time></trkpt><trkpt lat="43.28097313595156" lon="2.3408529622750995"><ele>166.0</ele><time>2026-03-22T10:19:52Z</time></trkpt><trkpt lat="43.2808511214294" lon="2.340993521958775"><ele>166.0</ele><time>2026-03-22T10:19:53Z</time></trkpt><trkpt lat="43.28072950100102" lon="2.3411336289513947"><ele>166.0</ele><time>2026-03-22T10:19:54Z</time></trkpt><trkpt lat="43.28060629120344" lon="2.341274120059089"><ele>166.0</ele><time>2026-03-22T10:19:55Z</time></trkpt><trkpt lat="43.28048116184833" lon="2.341415470302782"><ele>166.0</ele><time>2026-03-22T10:19:56Z</time></trkpt><trkpt lat="43.28035131982312" lon="2.341562144032907"><ele>164.66666666666669</ele><time>2026-03-22T10:19:57Z</time></trkpt><trkpt lat="43.28022161013457" lon="2.3417086682631623"><ele>163.33333333333334</ele><time>2026-03-22T10:19:58Z</time></trkpt><trkpt lat="43.28008604684323" lon="2.3418618048906237"><ele>162.0</ele><time>2026-03-22T10:19:59Z</time></trkpt><trkpt lat="43.2799472424897" lon="2.3420186027914918"><ele>162.0</ele><time>2026-03-22T10:20:00Z</time></trkpt><trkpt lat="43.27981238605828" lon="2.3421732589412634"><ele>162.0</ele><time>2026-03-22T10:20:01Z</time></trkpt><trkpt lat="43.279684944206224" lon="2.3423197579503965"><ele>162.0</ele><time>2026-03-22T10:20:02Z</time></trkpt><trkpt lat="43.27956391631726" lon="2.3424610362398437"><ele>161.0</ele><time>2026-03-22T10:20:03Z</time></trkpt><trkpt lat="43.27944454605513" lon="2.3426023459679537"><ele>160.0</ele><time>2026-03-22T10:20:03.999Z</time></trkpt><trkpt lat="43.27932681243684" lon="2.342768851390342"><ele>159.0</ele><time>2026-03-22T10:20:04.999Z</time></trkpt><trkpt lat="43.279232992065154" lon="2.3429698746664416"><ele>158.66666666666666</ele><time>2026-03-22T10:20:05.999Z</time></trkpt><trkpt lat="43.27915296859227" lon="2.343175352768459"><ele>158.33333333333331</ele><time>2026-03-22T10:20:06.999Z</time></trkpt><trkpt lat="43.27907088612278" lon="2.3433841407902296"><ele>158.0</ele><time>2026-03-22T10:20:07.999Z</time></trkpt><trkpt lat="43.27898755881616" lon="2.3435924964572328"><ele>157.0</ele><time>2026-03-22T10:20:08.999Z</time></trkpt><trkpt lat="43.27890549263743" lon="2.343797698782982"><ele>156.0</ele><time>2026-03-22T10:20:09.999Z</time></trkpt><trkpt lat="43.27882426145145" lon="2.3439974482254127"><ele>155.0</ele><time>2026-03-22T10:20:10.999Z</time></trkpt><trkpt lat="43.278745963659446" lon="2.344200668563315"><ele>155.0</ele><time>2026-03-22T10:20:11.999Z</time></trkpt><trkpt lat="43.278675613342706" lon="2.3444061287278175"><ele>155.0</ele><time>2026-03-22T10:20:12.999Z</time></trkpt><trkpt lat="43.27861069335406" lon="2.344610534185113"><ele>155.0</ele><time>2026-03-22T10:20:13.999Z</time></trkpt><trkpt lat="43.278544542762006" lon="2.3448188142795274"><ele>155.0</ele><time>2026-03-22T10:20:14.999Z</time></trkpt><trkpt lat="43.278477913521684" lon="2.3450225130421156"><ele>155.0</ele><time>2026-03-22T10:20:15.999Z</time></trkpt><trkpt lat="43.27840882019816" lon="2.345223092247429"><ele>155.0</ele><time>2026-03-22T10:20:16.999Z</time></trkpt><trkpt lat="43.27833173503993" lon="2.345416572129717"><ele>154.66666666666666</ele><time>2026-03-22T10:20:17.999Z</time></trkpt><trkpt lat="43.27823945510973" lon="2.3455916293839407"><ele>154.33333333333334</ele><time>2026-03-22T10:20:18.999Z</time></trkpt><trkpt lat="43.2781250786915" lon="2.3457628589668884"><ele>154.0</ele><time>2026-03-22T10:20:19.999Z</time></trkpt><trkpt lat="43.277984355759266" lon="2.3459482846702615"><ele>153.33333333333334</ele><time>2026-03-22T10:20:20.999Z</time></trkpt><trkpt lat="43.277849346744645" lon="2.3461124980635475"><ele>152.66666666666666</ele><time>2026-03-22T10:20:21.999Z</time></trkpt><trkpt lat="43.27772546439932" lon="2.3462617607513288"><ele>152.0</ele><time>2026-03-22T10:20:22.999Z</time></trkpt><trkpt lat="43.27760905149655" lon="2.3464030812206667"><ele>152.0</ele><time>2026-03-22T10:20:23.999Z</time></trkpt><trkpt lat="43.27749801708426" lon="2.3465378724771364"><ele>152.0</ele><time>2026-03-22T10:20:24.999Z</time></trkpt><trkpt lat="43.27738222802989" lon="2.3466805449287698"><ele>152.0</ele><time>2026-03-22T10:20:25.999Z</time></trkpt><trkpt lat="43.27728265031973" lon="2.3468352074915844"><ele>150.5</ele><time>2026-03-22T10:20:26.999Z</time></trkpt><trkpt lat="43.277178402682246" lon="2.346967671795132"><ele>149.0</ele><time>2026-03-22T10:20:27.999Z</time></trkpt><trkpt lat="43.27706666711604" lon="2.347085643057091"><ele>147.5</ele><time>2026-03-22T10:20:28.999Z</time></trkpt><trkpt lat="43.27696043038907" lon="2.347233059977884"><ele>146.0</ele><time>2026-03-22T10:20:29.999Z</time></trkpt><trkpt lat="43.276860854842354" lon="2.347371233674236"><ele>146.0</ele><time>2026-03-22T10:20:30.999Z</time></trkpt><trkpt lat="43.27677034445414" lon="2.3474997967751516"><ele>146.0</ele><time>2026-03-22T10:20:31.999Z</time></trkpt><trkpt lat="43.27668469489863" lon="2.3476291627739423"><ele>146.0</ele><time>2026-03-22T10:20:32.999Z</time></trkpt><trkpt lat="43.27660492914801" lon="2.3477582394241097"><ele>146.0</ele><time>2026-03-22T10:20:33.999Z</time></trkpt><trkpt lat="43.2765329157993" lon="2.3478827857190088"><ele>146.0</ele><time>2026-03-22T10:20:34.999Z</time></trkpt><trkpt lat="43.27646511742073" lon="2.348000220008153"><ele>146.0</ele><time>2026-03-22T10:20:35.999Z</time></trkpt><trkpt lat="43.27639714166734" lon="2.3481166271668132"><ele>146.0</ele><time>2026-03-22T10:20:36.999Z</time></trkpt><trkpt lat="43.276325293720475" lon="2.3482396653986326"><ele>146.0</ele><time>2026-03-22T10:20:37.999Z</time></trkpt><trkpt lat="43.27625522893656" lon="2.348359649992612"><ele>146.0</ele><time>2026-03-22T10:20:38.999Z</time></trkpt><trkpt lat="43.27618762736835" lon="2.3484754163983457"><ele>145.4</ele><time>2026-03-22T10:20:39.999Z</time></trkpt><trkpt lat="43.276132770417874" lon="2.348601656764974"><ele>144.8</ele><time>2026-03-22T10:20:40.999Z</time></trkpt><trkpt lat="43.27605446905672" lon="2.348720325541332"><ele>144.20000000000002</ele><time>2026-03-22T10:20:41.999Z</time></trkpt><trkpt lat="43.275986541396655" lon="2.348840932945637"><ele>143.6</ele><time>2026-03-22T10:20:42.999Z</time></trkpt><trkpt lat="43.27591778454953" lon="2.3489625493078714"><ele>143.0</ele><time>2026-03-22T10:20:43.999Z</time></trkpt><trkpt lat="43.275848128185984" lon="2.3490732370397898"><ele>143.0</ele><time>2026-03-22T10:20:44.999Z</time></trkpt><trkpt lat="43.27576284356768" lon="2.3491743301369197"><ele>143.0</ele><time>2026-03-22T10:20:45.999Z</time></trkpt><trkpt lat="43.27568965046564" lon="2.3492900658403117"><ele>143.0</ele><time>2026-03-22T10:20:47Z</time></trkpt><trkpt lat="43.275624012860504" lon="2.349394292216637"><ele>143.0</ele><time>2026-03-22T10:20:48Z</time></trkpt><trkpt lat="43.27558708982133" lon="2.3494843026993664"><ele>143.0</ele><time>2026-03-22T10:20:49Z</time></trkpt><trkpt lat="43.2755378082884" lon="2.3495458871428263"><ele>142.0</ele><time>2026-03-22T10:20:51Z</time></trkpt><trkpt lat="43.275475917036616" lon="2.3496251759085456"><ele>141.0</ele><time>2026-03-22T10:20:54Z</time></trkpt><trkpt lat="43.27538494647704" lon="2.3497187185396435"><ele>140.0</ele><time>2026-03-22T10:20:58Z</time></trkpt><trkpt lat="43.2753000922231" lon="2.3497465694222006"><ele>139.0</ele><time>2026-03-22T10:20:59Z</time></trkpt><trkpt lat="43.27525010101759" lon="2.349909530661391"><ele>138.0</ele><time>2026-03-22T10:21:00Z</time></trkpt><trkpt lat="43.275187099676955" lon="2.350027213780515"><ele>138.0</ele><time>2026-03-22T10:21:01Z</time></trkpt><trkpt lat="43.27511630675143" lon="2.35012179949663"><ele>138.0</ele><time>2026-03-22T10:21:02Z</time></trkpt><trkpt lat="43.275058651350996" lon="2.3502124076145425"><ele>138.0</ele><time>2026-03-22T10:21:03Z</time></trkpt><trkpt lat="43.27500469647724" lon="2.3503030343686753"><ele>138.0</ele><time>2026-03-22T10:21:04Z</time></trkpt><trkpt lat="43.27495181904389" lon="2.350394254538478"><ele>138.0</ele><time>2026-03-22T10:21:05Z</time></trkpt><trkpt lat="43.27490019895966" lon="2.3504785013174794"><ele>138.0</ele><time>2026-03-22T10:21:06Z</time></trkpt><trkpt lat="43.27485258985004" lon="2.350555387327476"><ele>137.8</ele><time>2026-03-22T10:21:07Z</time></trkpt><trkpt lat="43.27480036281938" lon="2.3506354796002786"><ele>137.60000000000002</ele><time>2026-03-22T10:21:08Z</time></trkpt><trkpt lat="43.2747431696904" lon="2.3507213511900815"><ele>137.39999999999998</ele><time>2026-03-22T10:21:09Z</time></trkpt><trkpt lat="43.274671470388235" lon="2.3508007422964843"><ele>137.2</ele><time>2026-03-22T10:21:10Z</time></trkpt><trkpt lat="43.27460377354997" lon="2.350897779311495"><ele>137.0</ele><time>2026-03-22T10:21:11Z</time></trkpt><trkpt lat="43.27453338156931" lon="2.3510057591888476"><ele>135.75</ele><time>2026-03-22T10:21:12Z</time></trkpt><trkpt lat="43.274454796877684" lon="2.351123891439136"><ele>134.5</ele><time>2026-03-22T10:21:13Z</time></trkpt><trkpt lat="43.27436632773046" lon="2.3512451158567425"><ele>133.25</ele><time>2026-03-22T10:21:14Z</time></trkpt><trkpt lat="43.27426943358631" lon="2.3513797939358536"><ele>132.0</ele><time>2026-03-22T10:21:15Z</time></trkpt><trkpt lat="43.27416381555258" lon="2.3514987001678445"><ele>132.0</ele><time>2026-03-22T10:21:16Z</time></trkpt><trkpt lat="43.27404745632232" lon="2.3515973832026624"><ele>132.0</ele><time>2026-03-22T10:21:17Z</time></trkpt><trkpt lat="43.2739429695587" lon="2.351695652800024"><ele>132.0</ele><time>2026-03-22T10:21:18Z</time></trkpt><trkpt lat="43.273861779692886" lon="2.3517862621692367"><ele>132.0</ele><time>2026-03-22T10:21:19Z</time></trkpt><trkpt lat="43.27378459933729" lon="2.3518535310864417"><ele>131.66666666666666</ele><time>2026-03-22T10:21:20Z</time></trkpt><trkpt lat="43.27371096987604" lon="2.351916037319447"><ele>131.33333333333334</ele><time>2026-03-22T10:21:21Z</time></trkpt><trkpt lat="43.273644569299144" lon="2.3519790328475976"><ele>131.0</ele><time>2026-03-22T10:21:22Z</time></trkpt><trkpt lat="43.27357894168511" lon="2.3520374365958636"><ele>130.66666666666669</ele><time>2026-03-22T10:21:23Z</time></trkpt><trkpt lat="43.273515427525105" lon="2.3520898942544846"><ele>130.33333333333334</ele><time>2026-03-22T10:21:24Z</time></trkpt><trkpt lat="43.273456914469826" lon="2.3521420666375312"><ele>130.0</ele><time>2026-03-22T10:21:25Z</time></trkpt><trkpt lat="43.27339480187874" lon="2.352203900705287"><ele>130.16666666666669</ele><time>2026-03-22T10:21:26Z</time></trkpt><trkpt lat="43.273318617111705" lon="2.352268923577013"><ele>130.33333333333334</ele><time>2026-03-22T10:21:27Z</time></trkpt><trkpt lat="43.273244367730875" lon="2.3523308651231827"><ele>130.5</ele><time>2026-03-22T10:21:28Z</time></trkpt><trkpt lat="43.273174226497915" lon="2.352385177829771"><ele>130.66666666666666</ele><time>2026-03-22T10:21:29Z</time></trkpt><trkpt lat="43.27311302413945" lon="2.3524480981209774"><ele>130.83333333333331</ele><time>2026-03-22T10:21:30Z</time></trkpt><trkpt lat="43.27303263011777" lon="2.352503782097103"><ele>131.0</ele><time>2026-03-22T10:21:31Z</time></trkpt><trkpt lat="43.27295525320619" lon="2.3525732589503674"><ele>130.66666666666666</ele><time>2026-03-22T10:21:32Z</time></trkpt><trkpt lat="43.2728772832484" lon="2.3526367350974673"><ele>130.33333333333331</ele><time>2026-03-22T10:21:33Z</time></trkpt><trkpt lat="43.27280645899072" lon="2.3526949056384687"><ele>130.0</ele><time>2026-03-22T10:21:34Z</time></trkpt><trkpt lat="43.27273715469853" lon="2.3527627928592687"><ele>129.66666666666666</ele><time>2026-03-22T10:21:35Z</time></trkpt><trkpt lat="43.272661236525735" lon="2.3528281013895915"><ele>129.33333333333334</ele><time>2026-03-22T10:21:36Z</time></trkpt><trkpt lat="43.27259230448428" lon="2.3528903188461032"><ele>129.0</ele><time>2026-03-22T10:21:37Z</time></trkpt><trkpt lat="43.2725258820967" lon="2.352948429477087"><ele>129.0</ele><time>2026-03-22T10:21:38Z</time></trkpt><trkpt lat="43.27245567466044" lon="2.353009544435726"><ele>129.0</ele><time>2026-03-22T10:21:39Z</time></trkpt><trkpt lat="43.272384592198854" lon="2.353077120669394"><ele>129.0</ele><time>2026-03-22T10:21:40Z</time></trkpt><trkpt lat="43.27230631058122" lon="2.3531450619408734"><ele>129.0</ele><time>2026-03-22T10:21:41Z</time></trkpt><trkpt lat="43.27222792300766" lon="2.353217402745345"><ele>129.0</ele><time>2026-03-22T10:21:42Z</time></trkpt><trkpt lat="43.27213729964531" lon="2.3532725707519315"><ele>129.0</ele><time>2026-03-22T10:21:43Z</time></trkpt><trkpt lat="43.27205470130288" lon="2.3533436757854913"><ele>129.0</ele><time>2026-03-22T10:21:44Z</time></trkpt><trkpt lat="43.271968313931886" lon="2.3534180425328937"><ele>129.0</ele><time>2026-03-22T10:21:45Z</time></trkpt><trkpt lat="43.271884253427174" lon="2.353492884320273"><ele>129.0</ele><time>2026-03-22T10:21:46Z</time></trkpt><trkpt lat="43.271808261518885" lon="2.3535868338311245"><ele>129.0</ele><time>2026-03-22T10:21:47Z</time></trkpt><trkpt lat="43.27172172225523" lon="2.3536592264476273"><ele>129.0</ele><time>2026-03-22T10:21:48Z</time></trkpt><trkpt lat="43.27163805649819" lon="2.3537468037698517"><ele>129.0</ele><time>2026-03-22T10:21:49Z</time></trkpt><trkpt lat="43.271538435232166" lon="2.3538290090997367"><ele>129.0</ele><time>2026-03-22T10:21:50Z</time></trkpt><trkpt lat="43.27145883746164" lon="2.3539669073884464"><ele>129.0</ele><time>2026-03-22T10:21:51Z</time></trkpt><trkpt lat="43.27138782975202" lon="2.3541477577603347"><ele>129.2</ele><time>2026-03-22T10:21:52Z</time></trkpt><trkpt lat="43.271342090666415" lon="2.354265161934595"><ele>129.4</ele><time>2026-03-22T10:21:53Z</time></trkpt><trkpt lat="43.271284965576825" lon="2.3543851177229"><ele>129.6</ele><time>2026-03-22T10:21:54Z</time></trkpt><trkpt lat="43.27122476133158" lon="2.354460726199391"><ele>129.8</ele><time>2026-03-22T10:21:55Z</time></trkpt><trkpt lat="43.271164061803844" lon="2.3545294796489857"><ele>130.0</ele><time>2026-03-22T10:21:56Z</time></trkpt><trkpt lat="43.27106832045341" lon="2.3545101829273016"><ele>130.0</ele><time>2026-03-22T10:21:57Z</time></trkpt><trkpt lat="43.27098225849971" lon="2.354454103567866"><ele>130.0</ele><time>2026-03-22T10:21:58Z</time></trkpt><trkpt lat="43.270864604460755" lon="2.3544261888261384"><ele>130.0</ele><time>2026-03-22T10:21:59Z</time></trkpt><trkpt lat="43.270760824438206" lon="2.3543762831264488"><ele>130.0</ele><time>2026-03-22T10:22:00Z</time></trkpt><trkpt lat="43.270673802805156" lon="2.354336729006607"><ele>130.0</ele><time>2026-03-22T10:22:01Z</time></trkpt><trkpt lat="43.27057197835232" lon="2.3542917122869222"><ele>130.0</ele><time>2026-03-22T10:22:02Z</time></trkpt><trkpt lat="43.270473512420516" lon="2.354240668897619"><ele>130.0</ele><time>2026-03-22T10:22:03Z</time></trkpt><trkpt lat="43.27037180814089" lon="2.3542122268107395"><ele>130.0</ele><time>2026-03-22T10:22:04Z</time></trkpt><trkpt lat="43.27026354130755" lon="2.354216911006572"><ele>130.0</ele><time>2026-03-22T10:22:05Z</time></trkpt><trkpt lat="43.27016610467735" lon="2.3542366705689517"><ele>130.0</ele><time>2026-03-22T10:22:06Z</time></trkpt><trkpt lat="43.27005921015166" lon="2.3542766195993727"><ele>130.0</ele><time>2026-03-22T10:22:07Z</time></trkpt><trkpt lat="43.26994575335024" lon="2.3543109441935517"><ele>130.0</ele><time>2026-03-22T10:22:07.999Z</time></trkpt><trkpt lat="43.2698253244092" lon="2.354348177219461"><ele>130.0</ele><time>2026-03-22T10:22:08.999Z</time></trkpt><trkpt lat="43.26969732341431" lon="2.3543893783921384"><ele>130.0</ele><time>2026-03-22T10:22:09.999Z</time></trkpt><trkpt lat="43.26958945387149" lon="2.3544206025309764"><ele>130.0</ele><time>2026-03-22T10:22:10.999Z</time></trkpt><trkpt lat="43.26949902621723" lon="2.354472054437939"><ele>130.0</ele><time>2026-03-22T10:22:11.999Z</time></trkpt><trkpt lat="43.269412965440075" lon="2.354520893363741"><ele>130.0</ele><time>2026-03-22T10:22:12.999Z</time></trkpt><trkpt lat="43.26933949350017" lon="2.3545648897412157"><ele>130.0</ele><time>2026-03-22T10:22:13.999Z</time></trkpt><trkpt lat="43.269264498125395" lon="2.3546098181607813"><ele>130.0</ele><time>2026-03-22T10:22:14.999Z</time></trkpt><trkpt lat="43.26920826717168" lon="2.354652742141578"><ele>130.0</ele><time>2026-03-22T10:22:15.999Z</time></trkpt><trkpt lat="43.26912402172621" lon="2.354725595381028"><ele>130.0</ele><time>2026-03-22T10:22:17.999Z</time></trkpt><trkpt lat="43.26905155008027" lon="2.354809349018753"><ele>130.0</ele><time>2026-03-22T10:22:19.999Z</time></trkpt><trkpt lat="43.26900636745242" lon="2.354890995932182"><ele>130.0</ele><time>2026-03-22T10:22:20.999Z</time></trkpt><trkpt lat="43.268951348195536" lon="2.354950412801219"><ele>130.0</ele><time>2026-03-22T10:22:21.999Z</time></trkpt><trkpt lat="43.268930981072934" lon="2.3550438766922146"><ele>130.0</ele><time>2026-03-22T10:22:22.999Z</time></trkpt><trkpt lat="43.268917270133876" lon="2.355149860887465"><ele>130.0</ele><time>2026-03-22T10:22:23.999Z</time></trkpt><trkpt lat="43.26891318055348" lon="2.3552568267472394"><ele>130.0</ele><time>2026-03-22T10:22:24.999Z</time></trkpt><trkpt lat="43.26890691270906" lon="2.3553701526911293"><ele>130.0</ele><time>2026-03-22T10:22:25.999Z</time></trkpt><trkpt lat="43.26890420685551" lon="2.3554739522229466"><ele>130.0</ele><time>2026-03-22T10:22:26.999Z</time></trkpt><trkpt lat="43.26890899872361" lon="2.355566574364743"><ele>130.0</ele><time>2026-03-22T10:22:27.999Z</time></trkpt><trkpt lat="43.26900146946249" lon="2.3556860126311125"><ele>130.0</ele><time>2026-03-22T10:22:28.999Z</time></trkpt><trkpt lat="43.269070082233945" lon="2.355795182861949"><ele>129.5</ele><time>2026-03-22T10:22:29.999Z</time></trkpt><trkpt lat="43.26913006515182" lon="2.3558904761310813"><ele>129.0</ele><time>2026-03-22T10:22:30.999Z</time></trkpt><trkpt lat="43.26917965359867" lon="2.3559684497829934"><ele>128.5</ele><time>2026-03-22T10:22:31.999Z</time></trkpt><trkpt lat="43.26922803283278" lon="2.356054523090682"><ele>128.0</ele><time>2026-03-22T10:22:32.999Z</time></trkpt><trkpt lat="43.26928301670505" lon="2.356151481765225"><ele>127.50000000000001</ele><time>2026-03-22T10:22:33.999Z</time></trkpt><trkpt lat="43.269348104588175" lon="2.356260435785416"><ele>127.0</ele><time>2026-03-22T10:22:34.999Z</time></trkpt><trkpt lat="43.26940149029327" lon="2.3563521908451976"><ele>127.16666666666667</ele><time>2026-03-22T10:22:35.999Z</time></trkpt><trkpt lat="43.269455192696256" lon="2.356452359212054"><ele>127.33333333333334</ele><time>2026-03-22T10:22:36.999Z</time></trkpt><trkpt lat="43.26948062494536" lon="2.3565587576087164"><ele>127.5</ele><time>2026-03-22T10:22:37.999Z</time></trkpt><trkpt lat="43.26949029131179" lon="2.35666873035931"><ele>127.66666666666666</ele><time>2026-03-22T10:22:38.999Z</time></trkpt><trkpt lat="43.26949018779869" lon="2.3567707508546394"><ele>127.83333333333333</ele><time>2026-03-22T10:22:39.999Z</time></trkpt><trkpt lat="43.26949740684222" lon="2.3569250424889785"><ele>128.0</ele><time>2026-03-22T10:22:41.999Z</time></trkpt><trkpt lat="43.26949979780415" lon="2.357021113189791"><ele>128.0</ele><time>2026-03-22T10:22:43.999Z</time></trkpt><trkpt lat="43.26950520997153" lon="2.3571077389585455"><ele>128.0</ele><time>2026-03-22T10:22:46.999Z</time></trkpt><trkpt lat="43.26951540112875" lon="2.3572032230371964"><ele>128.0</ele><time>2026-03-22T10:22:54Z</time></trkpt><trkpt lat="43.269357738483315" lon="2.3572337763295512"><ele>128.0</ele><time>2026-03-22T10:22:58Z</time></trkpt><trkpt lat="43.2692438264728" lon="2.357212205484671"><ele>128.0</ele><time>2026-03-22T10:22:59Z</time></trkpt><trkpt lat="43.2691366151588" lon="2.3571910775517693"><ele>128.0</ele><time>2026-03-22T10:23:00Z</time></trkpt><trkpt lat="43.26902903637007" lon="2.3571666684465638"><ele>128.0</ele><time>2026-03-22T10:23:01Z</time></trkpt><trkpt lat="43.26894756095259" lon="2.3571324827455196"><ele>128.0</ele><time>2026-03-22T10:23:02Z</time></trkpt><trkpt lat="43.26888563063099" lon="2.357089416329156"><ele>128.0</ele><time>2026-03-22T10:23:03Z</time></trkpt><trkpt lat="43.26879907419296" lon="2.3570172487709633"><ele>128.0</ele><time>2026-03-22T10:23:05Z</time></trkpt><trkpt lat="43.26871750386189" lon="2.3569508048141996"><ele>127.80000000000001</ele><time>2026-03-22T10:23:07Z</time></trkpt><trkpt lat="43.26864176709127" lon="2.3568657195146856"><ele>127.60000000000001</ele><time>2026-03-22T10:23:09Z</time></trkpt><trkpt lat="43.268574619914865" lon="2.356777208782009"><ele>127.39999999999999</ele><time>2026-03-22T10:23:11Z</time></trkpt><trkpt lat="43.268515170994185" lon="2.356681880600746"><ele>127.19999999999999</ele><time>2026-03-22T10:23:13Z</time></trkpt><trkpt lat="43.26845796521065" lon="2.3565804947838016"><ele>127.0</ele><time>2026-03-22T10:23:15Z</time></trkpt><trkpt lat="43.268406054688704" lon="2.3564633148384515"><ele>127.19999999999999</ele><time>2026-03-22T10:23:17Z</time></trkpt><trkpt lat="43.268360913887065" lon="2.3563336427215638"><ele>127.39999999999999</ele><time>2026-03-22T10:23:19Z</time></trkpt><trkpt lat="43.26832123438612" lon="2.356193833092119"><ele>127.60000000000001</ele><time>2026-03-22T10:23:21Z</time></trkpt><trkpt lat="43.268288607655855" lon="2.356106171523901"><ele>127.80000000000001</ele><time>2026-03-22T10:23:22Z</time></trkpt><trkpt lat="43.268256791191305" lon="2.3559911213469182"><ele>128.0</ele><time>2026-03-22T10:23:23Z</time></trkpt><trkpt lat="43.268219993244756" lon="2.3558700867819327"><ele>128.0</ele><time>2026-03-22T10:23:24Z</time></trkpt><trkpt lat="43.2681811133671" lon="2.3557477606942054"><ele>128.0</ele><time>2026-03-22T10:23:25Z</time></trkpt><trkpt lat="43.268140044032776" lon="2.3556046982341017"><ele>128.0</ele><time>2026-03-22T10:23:26Z</time></trkpt><trkpt lat="43.26809406735731" lon="2.3554699309332565"><ele>128.0</ele><time>2026-03-22T10:23:27Z</time></trkpt><trkpt lat="43.268042236970444" lon="2.3553507972081853"><ele>128.0</ele><time>2026-03-22T10:23:28Z</time></trkpt><trkpt lat="43.26798708339406" lon="2.3552471413689653"><ele>128.0</ele><time>2026-03-22T10:23:29Z</time></trkpt><trkpt lat="43.2679250237278" lon="2.35515429851807"><ele>128.0</ele><time>2026-03-22T10:23:30Z</time></trkpt><trkpt lat="43.26786473428088" lon="2.3550729541052617"><ele>128.0</ele><time>2026-03-22T10:23:31Z</time></trkpt><trkpt lat="43.26779191081854" lon="2.354999575065254"><ele>128.0</ele><time>2026-03-22T10:23:32Z</time></trkpt><trkpt lat="43.267706857628205" lon="2.3549332925256254"><ele>128.0</ele><time>2026-03-22T10:23:33Z</time></trkpt><trkpt lat="43.26761679269563" lon="2.354884469869765"><ele>128.0</ele><time>2026-03-22T10:23:34Z</time></trkpt><trkpt lat="43.26753212658896" lon="2.354836742204815"><ele>128.0</ele><time>2026-03-22T10:23:35Z</time></trkpt><trkpt lat="43.267440245653376" lon="2.3548141103680997"><ele>128.0</ele><time>2026-03-22T10:23:36Z</time></trkpt><trkpt lat="43.26734125425654" lon="2.354812704001163"><ele>128.0</ele><time>2026-03-22T10:23:37Z</time></trkpt><trkpt lat="43.26724036936721" lon="2.354834973112763"><ele>128.0</ele><time>2026-03-22T10:23:38Z</time></trkpt><trkpt lat="43.26714276003457" lon="2.354850728519371"><ele>127.75</ele><time>2026-03-22T10:23:39Z</time></trkpt><trkpt lat="43.26703430848531" lon="2.3548980716439054"><ele>127.5</ele><time>2026-03-22T10:23:40Z</time></trkpt><trkpt lat="43.26692176420495" lon="2.354953322383139"><ele>127.25</ele><time>2026-03-22T10:23:41Z</time></trkpt><trkpt lat="43.26681584352255" lon="2.3550130187226586"><ele>127.0</ele><time>2026-03-22T10:23:42Z</time></trkpt><trkpt lat="43.266714240912655" lon="2.355071175079709"><ele>127.0</ele><time>2026-03-22T10:23:43Z</time></trkpt><trkpt lat="43.266616008868354" lon="2.3551281569383162"><ele>126.99999999999999</ele><time>2026-03-22T10:23:44Z</time></trkpt><trkpt lat="43.26652258042139" lon="2.3551839296518557"><ele>126.99999999999999</ele><time>2026-03-22T10:23:45Z</time></trkpt><trkpt lat="43.266419987623586" lon="2.3552323804932267"><ele>127.0</ele><time>2026-03-22T10:23:46Z</time></trkpt><trkpt lat="43.26632652648902" lon="2.355293270673276"><ele>127.0</ele><time>2026-03-22T10:23:47Z</time></trkpt><trkpt lat="43.26621778596407" lon="2.355360363989302"><ele>127.0</ele><time>2026-03-22T10:23:48Z</time></trkpt><trkpt lat="43.266109250701184" lon="2.3554289408211004"><ele>127.0</ele><time>2026-03-22T10:23:49Z</time></trkpt><trkpt lat="43.2659829890026" lon="2.3554982461528953"><ele>127.0</ele><time>2026-03-22T10:23:50Z</time></trkpt><trkpt lat="43.26585774876033" lon="2.3555677790493945"><ele>127.0</ele><time>2026-03-22T10:23:51Z</time></trkpt><trkpt lat="43.26573750958606" lon="2.3556400816683367"><ele>127.0</ele><time>2026-03-22T10:23:52Z</time></trkpt><trkpt lat="43.26562215672442" lon="2.3557055932638318"><ele>127.0</ele><time>2026-03-22T10:23:53Z</time></trkpt><trkpt lat="43.265518675042976" lon="2.3557700408114197"><ele>127.0</ele><time>2026-03-22T10:23:54Z</time></trkpt><trkpt lat="43.26541602235987" lon="2.3558297331338816"><ele>127.0</ele><time>2026-03-22T10:23:55Z</time></trkpt><trkpt lat="43.26532547591958" lon="2.35588791595118"><ele>126.8</ele><time>2026-03-22T10:23:56Z</time></trkpt><trkpt lat="43.265228613674296" lon="2.355942051828175"><ele>126.6</ele><time>2026-03-22T10:23:57Z</time></trkpt><trkpt lat="43.26514060811633" lon="2.3559942916042087"><ele>126.39999999999999</ele><time>2026-03-22T10:23:58Z</time></trkpt><trkpt lat="43.26505140655153" lon="2.356033506435327"><ele>126.19999999999999</ele><time>2026-03-22T10:23:59Z</time></trkpt><trkpt lat="43.2649599699064" lon="2.3560699484745093"><ele>126.0</ele><time>2026-03-22T10:24:00Z</time></trkpt><trkpt lat="43.26486939956376" lon="2.356092554809899"><ele>126.0</ele><time>2026-03-22T10:24:01Z</time></trkpt><trkpt lat="43.26477232350252" lon="2.3560871013272084"><ele>126.0</ele><time>2026-03-22T10:24:02Z</time></trkpt><trkpt lat="43.2646924489039" lon="2.3561020061133418"><ele>126.0</ele><time>2026-03-22T10:24:03Z</time></trkpt><trkpt lat="43.26461145616692" lon="2.3561827579855192"><ele>126.0</ele><time>2026-03-22T10:24:04Z</time></trkpt><trkpt lat="43.26453905259692" lon="2.356290208788995"><ele>126.0</ele><time>2026-03-22T10:24:05Z</time></trkpt><trkpt lat="43.264442439614385" lon="2.3563843780395555"><ele>126.0</ele><time>2026-03-22T10:24:06Z</time></trkpt><trkpt lat="43.26430868543605" lon="2.3564547619845913"><ele>126.0</ele><time>2026-03-22T10:24:07Z</time></trkpt><trkpt lat="43.26417059436367" lon="2.3565445658953745"><ele>126.0</ele><time>2026-03-22T10:24:08Z</time></trkpt><trkpt lat="43.26403589844212" lon="2.3566281329940932"><ele>126.0</ele><time>2026-03-22T10:24:09Z</time></trkpt><trkpt lat="43.26389374687639" lon="2.356709261323848"><ele>128.33333333333334</ele><time>2026-03-22T10:24:10Z</time></trkpt><trkpt lat="43.26374395003649" lon="2.356803199414975"><ele>130.66666666666669</ele><time>2026-03-22T10:24:11Z</time></trkpt><trkpt lat="43.26356528749133" lon="2.3569261178644276"><ele>133.0</ele><time>2026-03-22T10:24:12Z</time></trkpt><trkpt lat="43.26334956718234" lon="2.357067626086889"><ele>133.0</ele><time>2026-03-22T10:24:13Z</time></trkpt><trkpt lat="43.26311570288546" lon="2.3571976244285135"><ele>133.0</ele><time>2026-03-22T10:24:14Z</time></trkpt><trkpt lat="43.26286633950848" lon="2.3573266534324975"><ele>134.5</ele><time>2026-03-22T10:24:15Z</time></trkpt><trkpt lat="43.26263309009508" lon="2.3574467639611947"><ele>136.0</ele><time>2026-03-22T10:24:16Z</time></trkpt><trkpt lat="43.26242984533254" lon="2.3575726624917444"><ele>140.66666666666669</ele><time>2026-03-22T10:24:17Z</time></trkpt><trkpt lat="43.26225107600958" lon="2.3576944793726624"><ele>145.33333333333334</ele><time>2026-03-22T10:24:18Z</time></trkpt><trkpt lat="43.26209622789097" lon="2.3578347719580575"><ele>150.0</ele><time>2026-03-22T10:24:19Z</time></trkpt><trkpt lat="43.26193751239426" lon="2.358022132025618"><ele>148.0</ele><time>2026-03-22T10:24:20Z</time></trkpt><trkpt lat="43.26178253479014" lon="2.358235958260667"><ele>146.0</ele><time>2026-03-22T10:24:21Z</time></trkpt><trkpt lat="43.26165692287815" lon="2.358459071625862"><ele>144.0</ele><time>2026-03-22T10:24:22Z</time></trkpt><trkpt lat="43.26155470144593" lon="2.35870896422804"><ele>147.5</ele><time>2026-03-22T10:24:22.999Z</time></trkpt><trkpt lat="43.26143501800652" lon="2.358981847525232"><ele>151.0</ele><time>2026-03-22T10:24:23.999Z</time></trkpt><trkpt lat="43.261344713428926" lon="2.3592802087178315"><ele>151.0</ele><time>2026-03-22T10:24:24.999Z</time></trkpt><trkpt lat="43.26123862789994" lon="2.3595201172036706"><ele>151.0</ele><time>2026-03-22T10:24:25.999Z</time></trkpt><trkpt lat="43.26115284871418" lon="2.35974443736558"><ele>151.0</ele><time>2026-03-22T10:24:26.999Z</time></trkpt><trkpt lat="43.26105926971344" lon="2.3599463102222735"><ele>148.66666666666669</ele><time>2026-03-22T10:24:27.999Z</time></trkpt><trkpt lat="43.260922575976586" lon="2.360115122469775"><ele>146.33333333333334</ele><time>2026-03-22T10:24:28.999Z</time></trkpt><trkpt lat="43.260801011660774" lon="2.3603072341198845"><ele>144.0</ele><time>2026-03-22T10:24:29.999Z</time></trkpt><trkpt lat="43.26061068234301" lon="2.360470755042374"><ele>140.5</ele><time>2026-03-22T10:24:30.999Z</time></trkpt><trkpt lat="43.2604059348991" lon="2.3606616490308814"><ele>137.0</ele><time>2026-03-22T10:24:31.999Z</time></trkpt><trkpt lat="43.260228545118856" lon="2.360849131481067"><ele>137.0</ele><time>2026-03-22T10:24:32.999Z</time></trkpt><trkpt lat="43.26004620619232" lon="2.360991658387215"><ele>137.0</ele><time>2026-03-22T10:24:33.999Z</time></trkpt><trkpt lat="43.25987715760958" lon="2.3611738396424817"><ele>137.0</ele><time>2026-03-22T10:24:34.999Z</time></trkpt><trkpt lat="43.259690057459025" lon="2.3613457472299038"><ele>133.66666666666666</ele><time>2026-03-22T10:24:35.999Z</time></trkpt><trkpt lat="43.25950629357506" lon="2.3614956193853205"><ele>130.33333333333334</ele><time>2026-03-22T10:24:36.999Z</time></trkpt><trkpt lat="43.25933710093113" lon="2.361679672074167"><ele>127.0</ele><time>2026-03-22T10:24:37.999Z</time></trkpt><trkpt lat="43.25915391422527" lon="2.3618232568367636"><ele>127.0</ele><time>2026-03-22T10:24:38.999Z</time></trkpt><trkpt lat="43.25898270747101" lon="2.361984375725254"><ele>127.0</ele><time>2026-03-22T10:24:39.999Z</time></trkpt><trkpt lat="43.258818832057834" lon="2.3621370959865704"><ele>127.0</ele><time>2026-03-22T10:24:40.999Z</time></trkpt><trkpt lat="43.25865775425161" lon="2.362286338568044"><ele>124.66666666666667</ele><time>2026-03-22T10:24:41.999Z</time></trkpt><trkpt lat="43.25849826070271" lon="2.3624342603161703"><ele>122.33333333333334</ele><time>2026-03-22T10:24:42.999Z</time></trkpt><trkpt lat="43.258330644182465" lon="2.3625911747148134"><ele>120.0</ele><time>2026-03-22T10:24:43.999Z</time></trkpt><trkpt lat="43.258173291150484" lon="2.3627384811227223"><ele>119.66666666666666</ele><time>2026-03-22T10:24:44.999Z</time></trkpt><trkpt lat="43.25802082798298" lon="2.3628805717990073"><ele>119.33333333333333</ele><time>2026-03-22T10:24:45.999Z</time></trkpt><trkpt lat="43.25786587230315" lon="2.3630230681835944"><ele>119.0</ele><time>2026-03-22T10:24:46.999Z</time></trkpt><trkpt lat="43.2577109659023" lon="2.3631662030596527"><ele>118.33333333333333</ele><time>2026-03-22T10:24:47.999Z</time></trkpt><trkpt lat="43.257561303337475" lon="2.363305785003636"><ele>117.66666666666666</ele><time>2026-03-22T10:24:48.999Z</time></trkpt><trkpt lat="43.25742229702387" lon="2.3634354283856016"><ele>117.0</ele><time>2026-03-22T10:24:49.999Z</time></trkpt><trkpt lat="43.25729306990902" lon="2.3635559513348694"><ele>117.0</ele><time>2026-03-22T10:24:50.999Z</time></trkpt><trkpt lat="43.25716940338678" lon="2.363671288132277"><ele>117.0</ele><time>2026-03-22T10:24:51.999Z</time></trkpt><trkpt lat="43.25703048141142" lon="2.363799707802214"><ele>117.0</ele><time>2026-03-22T10:24:52.999Z</time></trkpt><trkpt lat="43.25690514948623" lon="2.363933695831493"><ele>116.75</ele><time>2026-03-22T10:24:53.999Z</time></trkpt><trkpt lat="43.25678897622435" lon="2.3640405259579125"><ele>116.5</ele><time>2026-03-22T10:24:54.999Z</time></trkpt><trkpt lat="43.25667488962729" lon="2.364140938814471"><ele>116.25</ele><time>2026-03-22T10:24:55.999Z</time></trkpt><trkpt lat="43.25658591632734" lon="2.364238638152746"><ele>116.0</ele><time>2026-03-22T10:24:56.999Z</time></trkpt><trkpt lat="43.25648353730178" lon="2.3643196731623255"><ele>116.0</ele><time>2026-03-22T10:24:57.999Z</time></trkpt><trkpt lat="43.256390787508685" lon="2.364405483186208"><ele>116.0</ele><time>2026-03-22T10:24:59Z</time></trkpt><trkpt lat="43.256304415363026" lon="2.3644782401847007"><ele>116.0</ele><time>2026-03-22T10:25:00Z</time></trkpt><trkpt lat="43.256226582057785" lon="2.3645487845760864"><ele>116.0</ele><time>2026-03-22T10:25:01Z</time></trkpt><trkpt lat="43.256153485897954" lon="2.364613360980765"><ele>116.0</ele><time>2026-03-22T10:25:02Z</time></trkpt><trkpt lat="43.25608204856741" lon="2.364671226040895"><ele>115.83333333333333</ele><time>2026-03-22T10:25:03Z</time></trkpt><trkpt lat="43.25601301115019" lon="2.364729387316658"><ele>115.66666666666666</ele><time>2026-03-22T10:25:04Z</time></trkpt><trkpt lat="43.25594483468827" lon="2.3647693776149823"><ele>115.5</ele><time>2026-03-22T10:25:05Z</time></trkpt><trkpt lat="43.25585446391874" lon="2.364799664870803"><ele>115.33333333333334</ele><time>2026-03-22T10:25:06Z</time></trkpt><trkpt lat="43.25576563855377" lon="2.364837666704231"><ele>115.16666666666667</ele><time>2026-03-22T10:25:07Z</time></trkpt><trkpt lat="43.2556893512751" lon="2.364916471149682"><ele>115.0</ele><time>2026-03-22T10:25:08Z</time></trkpt><trkpt lat="43.255629553166514" lon="2.365032511895813"><ele>115.0</ele><time>2026-03-22T10:25:09Z</time></trkpt><trkpt lat="43.25555713392971" lon="2.3651510979295205"><ele>115.0</ele><time>2026-03-22T10:25:10Z</time></trkpt><trkpt lat="43.25547875620877" lon="2.3652673312757773"><ele>115.0</ele><time>2026-03-22T10:25:11Z</time></trkpt><trkpt lat="43.255384548847495" lon="2.365371818848682"><ele>115.0</ele><time>2026-03-22T10:25:12Z</time></trkpt><trkpt lat="43.255280877850595" lon="2.3654602201523214"><ele>114.75</ele><time>2026-03-22T10:25:13Z</time></trkpt><trkpt lat="43.25518135577935" lon="2.365544452046839"><ele>114.5</ele><time>2026-03-22T10:25:14Z</time></trkpt><trkpt lat="43.25508764356951" lon="2.3656339142450165"><ele>114.25</ele><time>2026-03-22T10:25:15Z</time></trkpt><trkpt lat="43.2549789982412" lon="2.365724809327295"><ele>114.0</ele><time>2026-03-22T10:25:16Z</time></trkpt><trkpt lat="43.25486585146886" lon="2.36581505003354"><ele>113.75</ele><time>2026-03-22T10:25:17Z</time></trkpt><trkpt lat="43.254762873363234" lon="2.3659144143264172"><ele>113.5</ele><time>2026-03-22T10:25:18Z</time></trkpt><trkpt lat="43.254660130492546" lon="2.366016960301588"><ele>113.25</ele><time>2026-03-22T10:25:19Z</time></trkpt><trkpt lat="43.25454921129226" lon="2.36612282556556"><ele>113.0</ele><time>2026-03-22T10:25:20Z</time></trkpt><trkpt lat="43.254437538352924" lon="2.366229827707706"><ele>113.0</ele><time>2026-03-22T10:25:21Z</time></trkpt><trkpt lat="43.25432379784334" lon="2.366339604190259"><ele>113.0</ele><time>2026-03-22T10:25:22Z</time></trkpt><trkpt lat="43.25420541865625" lon="2.366444271705341"><ele>113.0</ele><time>2026-03-22T10:25:23Z</time></trkpt><trkpt lat="43.25407723800648" lon="2.366570432185191"><ele>113.0</ele><time>2026-03-22T10:25:24Z</time></trkpt><trkpt lat="43.25390903040092" lon="2.3667372656054226"><ele>113.5</ele><time>2026-03-22T10:25:25Z</time></trkpt><trkpt lat="43.253750555677456" lon="2.366957637264312"><ele>114.0</ele><time>2026-03-22T10:25:26Z</time></trkpt><trkpt lat="43.25359323406911" lon="2.3672083235228154"><ele>114.0</ele><time>2026-03-22T10:25:27Z</time></trkpt><trkpt lat="43.25342010290857" lon="2.3674833163964344"><ele>114.0</ele><time>2026-03-22T10:25:28Z</time></trkpt><trkpt lat="43.25323558453225" lon="2.367776439202554"><ele>115.0</ele><time>2026-03-22T10:25:29Z</time></trkpt><trkpt lat="43.25307386098029" lon="2.36804519357908"><ele>116.0</ele><time>2026-03-22T10:25:30Z</time></trkpt><trkpt lat="43.25292316334738" lon="2.3682851838423638"><ele>116.0</ele><time>2026-03-22T10:25:31Z</time></trkpt><trkpt lat="43.25278042454897" lon="2.368515025897937"><ele>116.0</ele><time>2026-03-22T10:25:32Z</time></trkpt><trkpt lat="43.252646346150506" lon="2.3687393501100407"><ele>116.0</ele><time>2026-03-22T10:25:33Z</time></trkpt><trkpt lat="43.25250991575681" lon="2.3689597605714923"><ele>116.0</ele><time>2026-03-22T10:25:34Z</time></trkpt><trkpt lat="43.25237789194789" lon="2.3691771059455164"><ele>116.0</ele><time>2026-03-22T10:25:35Z</time></trkpt><trkpt lat="43.252246132369436" lon="2.3693946871720586"><ele>116.0</ele><time>2026-03-22T10:25:36Z</time></trkpt><trkpt lat="43.25211053044524" lon="2.369610663328637"><ele>116.33333333333333</ele><time>2026-03-22T10:25:37Z</time></trkpt><trkpt lat="43.25198119125399" lon="2.369829666358505"><ele>116.66666666666666</ele><time>2026-03-22T10:25:38Z</time></trkpt><trkpt lat="43.2518353827817" lon="2.3700316016391474"><ele>117.0</ele><time>2026-03-22T10:25:39Z</time></trkpt><trkpt lat="43.25169874774041" lon="2.3702441156823224"><ele>117.0</ele><time>2026-03-22T10:25:40Z</time></trkpt><trkpt lat="43.251558481857224" lon="2.3704557108640656"><ele>117.0</ele><time>2026-03-22T10:25:41Z</time></trkpt><trkpt lat="43.25141588256083" lon="2.3706676959253334"><ele>117.0</ele><time>2026-03-22T10:25:42Z</time></trkpt><trkpt lat="43.25127019459644" lon="2.3708810624338503"><ele>116.66666666666666</ele><time>2026-03-22T10:25:43Z</time></trkpt><trkpt lat="43.25112165384209" lon="2.371092617660715"><ele>116.33333333333333</ele><time>2026-03-22T10:25:44Z</time></trkpt><trkpt lat="43.25097162194871" lon="2.3713013899191595"><ele>116.0</ele><time>2026-03-22T10:25:45Z</time></trkpt><trkpt lat="43.250828675169544" lon="2.371524873690205"><ele>114.0</ele><time>2026-03-22T10:25:46Z</time></trkpt><trkpt lat="43.25066419339287" lon="2.3717090255681743"><ele>112.0</ele><time>2026-03-22T10:25:47Z</time></trkpt><trkpt lat="43.250509244134754" lon="2.3719090197248693"><ele>110.0</ele><time>2026-03-22T10:25:48Z</time></trkpt><trkpt lat="43.250354028376954" lon="2.372106310555356"><ele>109.33333333333333</ele><time>2026-03-22T10:25:49Z</time></trkpt><trkpt lat="43.25020124570369" lon="2.3723034970115897"><ele>108.66666666666666</ele><time>2026-03-22T10:25:50Z</time></trkpt><trkpt lat="43.250047664281105" lon="2.372500599396733"><ele>108.0</ele><time>2026-03-22T10:25:51Z</time></trkpt><trkpt lat="43.249895574914454" lon="2.3726959179313525"><ele>107.66666666666666</ele><time>2026-03-22T10:25:52Z</time></trkpt><trkpt lat="43.249759604513905" lon="2.3729033646121285"><ele>107.33333333333333</ele><time>2026-03-22T10:25:53Z</time></trkpt><trkpt lat="43.249612390243726" lon="2.373096355075743"><ele>107.0</ele><time>2026-03-22T10:25:54Z</time></trkpt><trkpt lat="43.249457569614634" lon="2.3732722271220843"><ele>107.0</ele><time>2026-03-22T10:25:55Z</time></trkpt><trkpt lat="43.24931442112167" lon="2.3734615493015494"><ele>107.0</ele><time>2026-03-22T10:25:56Z</time></trkpt><trkpt lat="43.24917477810246" lon="2.373645692223913"><ele>107.0</ele><time>2026-03-22T10:25:57Z</time></trkpt><trkpt lat="43.24902226012222" lon="2.3738692750523023"><ele>107.33333333333333</ele><time>2026-03-22T10:25:58Z</time></trkpt><trkpt lat="43.24886373978263" lon="2.3740758409140463"><ele>107.66666666666666</ele><time>2026-03-22T10:25:59Z</time></trkpt><trkpt lat="43.24871161710809" lon="2.374271202738102"><ele>108.0</ele><time>2026-03-22T10:26:00Z</time></trkpt><trkpt lat="43.248571558871966" lon="2.374455879945223"><ele>108.0</ele><time>2026-03-22T10:26:01Z</time></trkpt><trkpt lat="43.24843048743152" lon="2.3746330638796564"><ele>108.0</ele><time>2026-03-22T10:26:02Z</time></trkpt><trkpt lat="43.2483024317712" lon="2.3748051532896084"><ele>108.0</ele><time>2026-03-22T10:26:03Z</time></trkpt><trkpt lat="43.248184859260235" lon="2.3749639121291737"><ele>108.25</ele><time>2026-03-22T10:26:04Z</time></trkpt><trkpt lat="43.24807197623926" lon="2.375113731898183"><ele>108.5</ele><time>2026-03-22T10:26:05Z</time></trkpt><trkpt lat="43.24796945060852" lon="2.3752490722153667"><ele>108.75</ele><time>2026-03-22T10:26:06Z</time></trkpt><trkpt lat="43.24787088291309" lon="2.375372704037891"><ele>109.0</ele><time>2026-03-22T10:26:07Z</time></trkpt><trkpt lat="43.247777905228915" lon="2.3754845029626845"><ele>109.0</ele><time>2026-03-22T10:26:08Z</time></trkpt><trkpt lat="43.24768404221562" lon="2.3756022074819065"><ele>109.0</ele><time>2026-03-22T10:26:09Z</time></trkpt><trkpt lat="43.24759295022139" lon="2.375697594354468"><ele>109.0</ele><time>2026-03-22T10:26:10Z</time></trkpt><trkpt lat="43.24749328661484" lon="2.3757752924528135"><ele>109.0</ele><time>2026-03-22T10:26:11Z</time></trkpt><trkpt lat="43.24739020325033" lon="2.3758329242025233"><ele>108.80000000000001</ele><time>2026-03-22T10:26:12Z</time></trkpt><trkpt lat="43.247290747287536" lon="2.3758499893325986"><ele>108.60000000000001</ele><time>2026-03-22T10:26:13Z</time></trkpt><trkpt lat="43.24719109491509" lon="2.375861311169786"><ele>108.4</ele><time>2026-03-22T10:26:14Z</time></trkpt><trkpt lat="43.24709969751688" lon="2.375938829491294"><ele>108.2</ele><time>2026-03-22T10:26:15Z</time></trkpt><trkpt lat="43.247019935382674" lon="2.3760249416757273"><ele>108.0</ele><time>2026-03-22T10:26:16Z</time></trkpt><trkpt lat="43.24697406446569" lon="2.3761741741954587"><ele>108.0</ele><time>2026-03-22T10:26:17Z</time></trkpt><trkpt lat="43.24697820195424" lon="2.3763412306149023"><ele>108.0</ele><time>2026-03-22T10:26:18Z</time></trkpt><trkpt lat="43.24696405001682" lon="2.3765092122792613"><ele>108.0</ele><time>2026-03-22T10:26:19Z</time></trkpt><trkpt lat="43.24689712057685" lon="2.376632241080612"><ele>108.0</ele><time>2026-03-22T10:26:20Z</time></trkpt><trkpt lat="43.24677893054147" lon="2.376802541052992"><ele>108.0</ele><time>2026-03-22T10:26:21Z</time></trkpt><trkpt lat="43.24664005015886" lon="2.3769997950267983"><ele>108.0</ele><time>2026-03-22T10:26:22Z</time></trkpt><trkpt lat="43.246482631636404" lon="2.377228522131449"><ele>108.0</ele><time>2026-03-22T10:26:23Z</time></trkpt><trkpt lat="43.24632960190195" lon="2.3774122541995184"><ele>108.33333333333334</ele><time>2026-03-22T10:26:24Z</time></trkpt><trkpt lat="43.24620055918934" lon="2.377583476445901"><ele>108.66666666666667</ele><time>2026-03-22T10:26:25Z</time></trkpt><trkpt lat="43.24609044322155" lon="2.3777555828047534"><ele>109.0</ele><time>2026-03-22T10:26:25.999Z</time></trkpt><trkpt lat="43.245969415783875" lon="2.377905045466984"><ele>108.66666666666667</ele><time>2026-03-22T10:26:26.999Z</time></trkpt><trkpt lat="43.245851002853236" lon="2.378063655084835"><ele>108.33333333333334</ele><time>2026-03-22T10:26:27.999Z</time></trkpt><trkpt lat="43.24571699720691" lon="2.3782464552291063"><ele>108.0</ele><time>2026-03-22T10:26:28.999Z</time></trkpt><trkpt lat="43.2455781518677" lon="2.378434866357733"><ele>107.33333333333334</ele><time>2026-03-22T10:26:29.999Z</time></trkpt><trkpt lat="43.245432099282404" lon="2.3786235266975164"><ele>106.66666666666667</ele><time>2026-03-22T10:26:30.999Z</time></trkpt><trkpt lat="43.24529614523675" lon="2.378803260829393"><ele>106.0</ele><time>2026-03-22T10:26:31.999Z</time></trkpt><trkpt lat="43.24515479685761" lon="2.378966407221121"><ele>105.66666666666667</ele><time>2026-03-22T10:26:32.999Z</time></trkpt><trkpt lat="43.24503035988013" lon="2.379130083351324"><ele>105.33333333333334</ele><time>2026-03-22T10:26:33.999Z</time></trkpt><trkpt lat="43.24490776001075" lon="2.3792932491991117"><ele>105.0</ele><time>2026-03-22T10:26:34.999Z</time></trkpt><trkpt lat="43.24476189171274" lon="2.3794874222634093"><ele>105.5</ele><time>2026-03-22T10:26:35.999Z</time></trkpt><trkpt lat="43.24459570046317" lon="2.37970961595242"><ele>106.0</ele><time>2026-03-22T10:26:36.999Z</time></trkpt><trkpt lat="43.244437366428905" lon="2.3799156550083107"><ele>106.0</ele><time>2026-03-22T10:26:37.999Z</time></trkpt><trkpt lat="43.24431961009556" lon="2.380106598695828"><ele>106.0</ele><time>2026-03-22T10:26:38.999Z</time></trkpt><trkpt lat="43.244190984509004" lon="2.380251158305107"><ele>106.0</ele><time>2026-03-22T10:26:39.999Z</time></trkpt><trkpt lat="43.24409925972693" lon="2.3803796784388673"><ele>106.0</ele><time>2026-03-22T10:26:40.999Z</time></trkpt><trkpt lat="43.244016126964176" lon="2.3804945777484514"><ele>106.0</ele><time>2026-03-22T10:26:41.999Z</time></trkpt><trkpt lat="43.24393951304897" lon="2.380600264836992"><ele>106.0</ele><time>2026-03-22T10:26:42.999Z</time></trkpt><trkpt lat="43.243869979579785" lon="2.3807102327575382"><ele>106.0</ele><time>2026-03-22T10:26:43.999Z</time></trkpt><trkpt lat="43.24381929844022" lon="2.3808132376452362"><ele>106.0</ele><time>2026-03-22T10:26:44.999Z</time></trkpt><trkpt lat="43.24378835922255" lon="2.3808887976060897"><ele>105.5</ele><time>2026-03-22T10:26:45.999Z</time></trkpt><trkpt lat="43.24369380073502" lon="2.3810369524686656"><ele>105.0</ele><time>2026-03-22T10:26:47.999Z</time></trkpt><trkpt lat="43.24359831598975" lon="2.381086365555571"><ele>104.5</ele><time>2026-03-22T10:26:48.999Z</time></trkpt><trkpt lat="43.24348878892431" lon="2.3811183525169897"><ele>104.0</ele><time>2026-03-22T10:26:49.999Z</time></trkpt><trkpt lat="43.24340314565658" lon="2.3811820284318643"><ele>104.0</ele><time>2026-03-22T10:26:50.999Z</time></trkpt><trkpt lat="43.243318898090024" lon="2.381301197224675"><ele>104.0</ele><time>2026-03-22T10:26:51.999Z</time></trkpt><trkpt lat="43.2432613308898" lon="2.3814424437792994"><ele>104.0</ele><time>2026-03-22T10:26:52.999Z</time></trkpt><trkpt lat="43.243236937037985" lon="2.381604583512208"><ele>104.0</ele><time>2026-03-22T10:26:53.999Z</time></trkpt><trkpt lat="43.24322035176714" lon="2.381751905509566"><ele>104.0</ele><time>2026-03-22T10:26:54.999Z</time></trkpt><trkpt lat="43.24326502845882" lon="2.3819184251414467"><ele>104.0</ele><time>2026-03-22T10:26:55.999Z</time></trkpt><trkpt lat="43.24335861820155" lon="2.382066439227795"><ele>104.0</ele><time>2026-03-22T10:26:56.999Z</time></trkpt><trkpt lat="43.243448848229384" lon="2.3822233505141934"><ele>104.0</ele><time>2026-03-22T10:26:57.999Z</time></trkpt><trkpt lat="43.243517434976546" lon="2.3823880191595466"><ele>103.66666666666666</ele><time>2026-03-22T10:26:58.999Z</time></trkpt><trkpt lat="43.243573344029585" lon="2.382590559311147"><ele>103.33333333333334</ele><time>2026-03-22T10:26:59.999Z</time></trkpt><trkpt lat="43.243632918367304" lon="2.3828008410702486"><ele>103.0</ele><time>2026-03-22T10:27:00.999Z</time></trkpt><trkpt lat="43.243695043573716" lon="2.3830359750403063"><ele>102.33333333333334</ele><time>2026-03-22T10:27:01.999Z</time></trkpt><trkpt lat="43.24372054302061" lon="2.383281964798402"><ele>101.66666666666666</ele><time>2026-03-22T10:27:02.999Z</time></trkpt><trkpt lat="43.24376118004838" lon="2.3835392133879756"><ele>101.0</ele><time>2026-03-22T10:27:03.999Z</time></trkpt><trkpt lat="43.24381346744326" lon="2.383789544484865"><ele>100.0</ele><time>2026-03-22T10:27:05Z</time></trkpt><trkpt lat="43.24384736762556" lon="2.3840449738587792"><ele>99.0</ele><time>2026-03-22T10:27:06Z</time></trkpt><trkpt lat="43.24389159885815" lon="2.384317705244961"><ele>98.0</ele><time>2026-03-22T10:27:07Z</time></trkpt><trkpt lat="43.243935480572276" lon="2.3846168947081643"><ele>100.0</ele><time>2026-03-22T10:27:08Z</time></trkpt><trkpt lat="43.24398378539942" lon="2.384917822266753"><ele>102.0</ele><time>2026-03-22T10:27:09Z</time></trkpt><trkpt lat="43.24403881577833" lon="2.3852222298824537"><ele>102.5</ele><time>2026-03-22T10:27:10Z</time></trkpt><trkpt lat="43.244074931128466" lon="2.385539932633024"><ele>103.0</ele><time>2026-03-22T10:27:11Z</time></trkpt><trkpt lat="43.24412506934082" lon="2.385865707280652"><ele>103.0</ele><time>2026-03-22T10:27:12Z</time></trkpt><trkpt lat="43.24415710388384" lon="2.386184012123434"><ele>103.0</ele><time>2026-03-22T10:27:13Z</time></trkpt><trkpt lat="43.24416500126682" lon="2.3864815778236093"><ele>103.0</ele><time>2026-03-22T10:27:14Z</time></trkpt><trkpt lat="43.24416574632815" lon="2.386764449949706"><ele>103.0</ele><time>2026-03-22T10:27:15Z</time></trkpt><trkpt lat="43.24417703744189" lon="2.3870357785989107"><ele>103.0</ele><time>2026-03-22T10:27:16Z</time></trkpt><trkpt lat="43.244161400353875" lon="2.3872938605257312"><ele>103.0</ele><time>2026-03-22T10:27:17Z</time></trkpt><trkpt lat="43.24416498918281" lon="2.387544886010308"><ele>103.0</ele><time>2026-03-22T10:27:18Z</time></trkpt><trkpt lat="43.24419444299607" lon="2.387802638031443"><ele>103.0</ele><time>2026-03-22T10:27:19Z</time></trkpt><trkpt lat="43.24425429563138" lon="2.3880733530674108"><ele>103.0</ele><time>2026-03-22T10:27:20Z</time></trkpt><trkpt lat="43.244337574222094" lon="2.388358720675088"><ele>103.0</ele><time>2026-03-22T10:27:21Z</time></trkpt><trkpt lat="43.24441887839709" lon="2.3886289159545377"><ele>103.0</ele><time>2026-03-22T10:27:22Z</time></trkpt><trkpt lat="43.2444929506528" lon="2.38887507780184"><ele>103.0</ele><time>2026-03-22T10:27:23Z</time></trkpt><trkpt lat="43.244565449948006" lon="2.38911070140984"><ele>103.0</ele><time>2026-03-22T10:27:24Z</time></trkpt><trkpt lat="43.24464025586283" lon="2.3893490431231292"><ele>103.0</ele><time>2026-03-22T10:27:25Z</time></trkpt><trkpt lat="43.24471952149667" lon="2.389576367725324"><ele>103.0</ele><time>2026-03-22T10:27:26Z</time></trkpt><trkpt lat="43.24480534021813" lon="2.389787106453118"><ele>103.0</ele><time>2026-03-22T10:27:27Z</time></trkpt><trkpt lat="43.24490600232695" lon="2.3899979607673947"><ele>103.0</ele><time>2026-03-22T10:27:28Z</time></trkpt><trkpt lat="43.24501019837821" lon="2.3901954853419407"><ele>103.0</ele><time>2026-03-22T10:27:29Z</time></trkpt><trkpt lat="43.24511078589922" lon="2.3903813470742308"><ele>103.0</ele><time>2026-03-22T10:27:30Z</time></trkpt><trkpt lat="43.24521609036018" lon="2.3905463050996705"><ele>103.0</ele><time>2026-03-22T10:27:31Z</time></trkpt><trkpt lat="43.24530463072309" lon="2.3907185450188746"><ele>102.75</ele><time>2026-03-22T10:27:32Z</time></trkpt><trkpt lat="43.2453956254008" lon="2.3908855979718378"><ele>102.5</ele><time>2026-03-22T10:27:33Z</time></trkpt><trkpt lat="43.24548792417466" lon="2.391038985591528"><ele>102.25</ele><time>2026-03-22T10:27:34Z</time></trkpt><trkpt lat="43.245588668306226" lon="2.3911863502162465"><ele>102.0</ele><time>2026-03-22T10:27:35Z</time></trkpt><trkpt lat="43.24571591806438" lon="2.3913052915183983"><ele>100.66666666666666</ele><time>2026-03-22T10:27:36Z</time></trkpt><trkpt lat="43.245862990913025" lon="2.391413970779531"><ele>99.33333333333333</ele><time>2026-03-22T10:27:37Z</time></trkpt><trkpt lat="43.246039843471124" lon="2.3914728467196125"><ele>98.0</ele><time>2026-03-22T10:27:38Z</time></trkpt><trkpt lat="43.24618540346146" lon="2.391517009330837"><ele>98.0</ele><time>2026-03-22T10:27:39Z</time></trkpt><trkpt lat="43.2463137425887" lon="2.39158980940992"><ele>98.0</ele><time>2026-03-22T10:27:40Z</time></trkpt><trkpt lat="43.24641060089935" lon="2.3917069804463997"><ele>98.0</ele><time>2026-03-22T10:27:41Z</time></trkpt><trkpt lat="43.24648700114668" lon="2.391860922633915"><ele>98.0</ele><time>2026-03-22T10:27:42Z</time></trkpt><trkpt lat="43.24654157666908" lon="2.392073839447589"><ele>97.66666666666666</ele><time>2026-03-22T10:27:43Z</time></trkpt><trkpt lat="43.24660214430546" lon="2.3923231578618878"><ele>97.33333333333334</ele><time>2026-03-22T10:27:44Z</time></trkpt><trkpt lat="43.24664758683916" lon="2.3925969841599084"><ele>97.0</ele><time>2026-03-22T10:27:45Z</time></trkpt><trkpt lat="43.24669466697975" lon="2.39285828616423"><ele>97.33333333333334</ele><time>2026-03-22T10:27:46Z</time></trkpt><trkpt lat="43.24672602707666" lon="2.3931330523787797"><ele>97.66666666666666</ele><time>2026-03-22T10:27:47Z</time></trkpt><trkpt lat="43.24677256535005" lon="2.3934017195267536"><ele>98.0</ele><time>2026-03-22T10:27:48Z</time></trkpt><trkpt lat="43.24681965861017" lon="2.3936735906644335"><ele>97.33333333333333</ele><time>2026-03-22T10:27:49Z</time></trkpt><trkpt lat="43.246867895033375" lon="2.393952061260212"><ele>96.66666666666666</ele><time>2026-03-22T10:27:50Z</time></trkpt><trkpt lat="43.246923273270404" lon="2.3942717617016713"><ele>96.0</ele><time>2026-03-22T10:27:51Z</time></trkpt><trkpt lat="43.24698576805322" lon="2.3946325466107545"><ele>97.0</ele><time>2026-03-22T10:27:52Z</time></trkpt><trkpt lat="43.247049368180626" lon="2.3949950109608724"><ele>98.0</ele><time>2026-03-22T10:27:53Z</time></trkpt><trkpt lat="43.247105083274676" lon="2.395314749199418"><ele>99.33333333333333</ele><time>2026-03-22T10:27:54Z</time></trkpt><trkpt lat="43.24715869604986" lon="2.395611581966013"><ele>100.66666666666666</ele><time>2026-03-22T10:27:55Z</time></trkpt><trkpt lat="43.247210007358824" lon="2.3958824947958046"><ele>102.0</ele><time>2026-03-22T10:27:56Z</time></trkpt><trkpt lat="43.24725861977972" lon="2.3961357545327866"><ele>102.66666666666666</ele><time>2026-03-22T10:27:57Z</time></trkpt><trkpt lat="43.24731099017413" lon="2.396392244928663"><ele>103.33333333333333</ele><time>2026-03-22T10:27:58Z</time></trkpt><trkpt lat="43.24736813865486" lon="2.396662076971578"><ele>104.0</ele><time>2026-03-22T10:27:59Z</time></trkpt><trkpt lat="43.24742375708373" lon="2.396908944991939"><ele>104.0</ele><time>2026-03-22T10:28:00Z</time></trkpt><trkpt lat="43.247487005089" lon="2.39715754709837"><ele>104.0</ele><time>2026-03-22T10:28:01Z</time></trkpt><trkpt lat="43.2475547569769" lon="2.397405144752235"><ele>104.0</ele><time>2026-03-22T10:28:02Z</time></trkpt><trkpt lat="43.24765951468694" lon="2.397664039948905"><ele>104.0</ele><time>2026-03-22T10:28:03Z</time></trkpt><trkpt lat="43.247774346735866" lon="2.397922247328274"><ele>104.0</ele><time>2026-03-22T10:28:04Z</time></trkpt><trkpt lat="43.24790288719546" lon="2.3981958524441427"><ele>104.0</ele><time>2026-03-22T10:28:05Z</time></trkpt><trkpt lat="43.24803327341484" lon="2.3984690180193464"><ele>104.0</ele><time>2026-03-22T10:28:06Z</time></trkpt><trkpt lat="43.24815835304888" lon="2.3987346471693733"><ele>104.33333333333333</ele><time>2026-03-22T10:28:07Z</time></trkpt><trkpt lat="43.24827359504692" lon="2.3989874866273118"><ele>104.66666666666666</ele><time>2026-03-22T10:28:08Z</time></trkpt><trkpt lat="43.24838406650758" lon="2.3992395496904755"><ele>105.0</ele><time>2026-03-22T10:28:09Z</time></trkpt><trkpt lat="43.24849140505914" lon="2.3995132776803496"><ele>105.0</ele><time>2026-03-22T10:28:10Z</time></trkpt><trkpt lat="43.24859651519423" lon="2.399810378432291"><ele>105.0</ele><time>2026-03-22T10:28:11Z</time></trkpt><trkpt lat="43.248707380762475" lon="2.4001079969303967"><ele>105.0</ele><time>2026-03-22T10:28:12Z</time></trkpt><trkpt lat="43.248797343079275" lon="2.4004208848656483"><ele>105.0</ele><time>2026-03-22T10:28:13Z</time></trkpt><trkpt lat="43.248886004274105" lon="2.4007467141036276"><ele>106.5</ele><time>2026-03-22T10:28:14Z</time></trkpt><trkpt lat="43.24896331119144" lon="2.401038919585448"><ele>108.0</ele><time>2026-03-22T10:28:15Z</time></trkpt><trkpt lat="43.24904938460507" lon="2.4013386658772506"><ele>108.5</ele><time>2026-03-22T10:28:16Z</time></trkpt><trkpt lat="43.249160399241795" lon="2.40165434709707"><ele>109.0</ele><time>2026-03-22T10:28:17Z</time></trkpt><trkpt lat="43.249286587610456" lon="2.4019911788237036"><ele>110.0</ele><time>2026-03-22T10:28:18Z</time></trkpt><trkpt lat="43.24939491191313" lon="2.4022891674942812"><ele>111.0</ele><time>2026-03-22T10:28:19Z</time></trkpt><trkpt lat="43.24949464635262" lon="2.40256122678546"><ele>111.0</ele><time>2026-03-22T10:28:20Z</time></trkpt><trkpt lat="43.24959400465639" lon="2.4028167587637"><ele>111.0</ele><time>2026-03-22T10:28:21Z</time></trkpt><trkpt lat="43.249699219787864" lon="2.403051230427673"><ele>111.0</ele><time>2026-03-22T10:28:22Z</time></trkpt><trkpt lat="43.24980326766534" lon="2.4033077345219644"><ele>113.0</ele><time>2026-03-22T10:28:23Z</time></trkpt><trkpt lat="43.2499161400844" lon="2.4035402932503716"><ele>115.0</ele><time>2026-03-22T10:28:24Z</time></trkpt><trkpt lat="43.25002503335204" lon="2.4037642565158372"><ele>117.0</ele><time>2026-03-22T10:28:25Z</time></trkpt><trkpt lat="43.25013589397936" lon="2.403992265897406"><ele>117.0</ele><time>2026-03-22T10:28:26Z</time></trkpt><trkpt lat="43.250242728587345" lon="2.4042248264839534"><ele>117.0</ele><time>2026-03-22T10:28:27Z</time></trkpt><trkpt lat="43.25034491672836" lon="2.4044594142287115"><ele>117.0</ele><time>2026-03-22T10:28:28Z</time></trkpt><trkpt lat="43.25044227313446" lon="2.404693749531551"><ele>117.0</ele><time>2026-03-22T10:28:29Z</time></trkpt><trkpt lat="43.25053883251181" lon="2.404914565414292"><ele>117.0</ele><time>2026-03-22T10:28:30Z</time></trkpt><trkpt lat="43.25064226017347" lon="2.405116687896927"><ele>117.0</ele><time>2026-03-22T10:28:31Z</time></trkpt><trkpt lat="43.250771825350995" lon="2.4053194836385434"><ele>119.66666666666666</ele><time>2026-03-22T10:28:32Z</time></trkpt><trkpt lat="43.25091079888518" lon="2.405532313259552"><ele>122.33333333333333</ele><time>2026-03-22T10:28:33Z</time></trkpt><trkpt lat="43.25105164130863" lon="2.405748004974848"><ele>125.0</ele><time>2026-03-22T10:28:34Z</time></trkpt><trkpt lat="43.251308366614225" lon="2.405794650991978"><ele>124.66666666666666</ele><time>2026-03-22T10:28:35Z</time></trkpt><trkpt lat="43.2514857884662" lon="2.4059564432709557"><ele>124.33333333333334</ele><time>2026-03-22T10:28:35.999Z</time></trkpt><trkpt lat="43.25164975017713" lon="2.4061509261769323"><ele>124.0</ele><time>2026-03-22T10:28:36.999Z</time></trkpt><trkpt lat="43.25181228248589" lon="2.406386833440431"><ele>123.33333333333334</ele><time>2026-03-22T10:28:37.999Z</time></trkpt><trkpt lat="43.25195466647529" lon="2.4066025129711863"><ele>122.66666666666666</ele><time>2026-03-22T10:28:38.999Z</time></trkpt><trkpt lat="43.252082803425694" lon="2.4068213494298463"><ele>122.0</ele><time>2026-03-22T10:28:39.999Z</time></trkpt><trkpt lat="43.25220163484573" lon="2.4070359066202993"><ele>120.33333333333333</ele><time>2026-03-22T10:28:40.999Z</time></trkpt><trkpt lat="43.252310943587425" lon="2.4072357286403983"><ele>118.66666666666666</ele><time>2026-03-22T10:28:41.999Z</time></trkpt><trkpt lat="43.252409692650616" lon="2.4074081430007217"><ele>117.0</ele><time>2026-03-22T10:28:42.999Z</time></trkpt><trkpt lat="43.25250186501592" lon="2.4075754568811254"><ele>117.0</ele><time>2026-03-22T10:28:43.999Z</time></trkpt><trkpt lat="43.25259385816756" lon="2.4077330620489845"><ele>117.0</ele><time>2026-03-22T10:28:44.999Z</time></trkpt><trkpt lat="43.25269280894008" lon="2.407871273588302"><ele>117.0</ele><time>2026-03-22T10:28:45.999Z</time></trkpt><trkpt lat="43.25280663457022" lon="2.4080000835415443"><ele>117.0</ele><time>2026-03-22T10:28:46.999Z</time></trkpt><trkpt lat="43.252948136796945" lon="2.4081129055999835"><ele>115.66666666666666</ele><time>2026-03-22T10:28:47.999Z</time></trkpt><trkpt lat="43.25310048570524" lon="2.408203506096383"><ele>114.33333333333333</ele><time>2026-03-22T10:28:48.999Z</time></trkpt><trkpt lat="43.253259049623054" lon="2.40827518358089"><ele>113.0</ele><time>2026-03-22T10:28:49.999Z</time></trkpt><trkpt lat="43.253412353327235" lon="2.4083494110272086"><ele>112.33333333333333</ele><time>2026-03-22T10:28:50.999Z</time></trkpt><trkpt lat="43.253579855736675" lon="2.408440534646991"><ele>111.66666666666666</ele><time>2026-03-22T10:28:51.999Z</time></trkpt><trkpt lat="43.253759003891155" lon="2.4085374868821496"><ele>111.0</ele><time>2026-03-22T10:28:52.999Z</time></trkpt><trkpt lat="43.253920146660086" lon="2.4086279152999492"><ele>111.0</ele><time>2026-03-22T10:28:53.999Z</time></trkpt><trkpt lat="43.25406817701444" lon="2.408723878779573"><ele>111.0</ele><time>2026-03-22T10:28:54.999Z</time></trkpt><trkpt lat="43.2542174249292" lon="2.408844124571746"><ele>111.0</ele><time>2026-03-22T10:28:55.999Z</time></trkpt><trkpt lat="43.254355992619715" lon="2.4089928290647213"><ele>111.0</ele><time>2026-03-22T10:28:56.999Z</time></trkpt><trkpt lat="43.254473258049885" lon="2.409151816042818"><ele>111.0</ele><time>2026-03-22T10:28:57.999Z</time></trkpt><trkpt lat="43.25457416734442" lon="2.409299417993728"><ele>111.0</ele><time>2026-03-22T10:28:58.999Z</time></trkpt><trkpt lat="43.25467362731409" lon="2.409429453995791"><ele>111.0</ele><time>2026-03-22T10:28:59.999Z</time></trkpt><trkpt lat="43.25476707841703" lon="2.4095468253804553"><ele>111.0</ele><time>2026-03-22T10:29:00.999Z</time></trkpt><trkpt lat="43.25485233580572" lon="2.409656630023703"><ele>111.0</ele><time>2026-03-22T10:29:01.999Z</time></trkpt><trkpt lat="43.254930288255636" lon="2.4097555488049864"><ele>111.0</ele><time>2026-03-22T10:29:02.999Z</time></trkpt><trkpt lat="43.25500696483939" lon="2.4098428041263427"><ele>111.0</ele><time>2026-03-22T10:29:03.999Z</time></trkpt><trkpt lat="43.25508556306661" lon="2.409933662121743"><ele>111.4</ele><time>2026-03-22T10:29:04.999Z</time></trkpt><trkpt lat="43.25516590303806" lon="2.410020179063145"><ele>111.8</ele><time>2026-03-22T10:29:05.999Z</time></trkpt><trkpt lat="43.25525222698637" lon="2.4101068717179537"><ele>112.20000000000002</ele><time>2026-03-22T10:29:06.999Z</time></trkpt><trkpt lat="43.255351386468455" lon="2.4101804609539483"><ele>112.60000000000001</ele><time>2026-03-22T10:29:07.999Z</time></trkpt><trkpt lat="43.25544817629748" lon="2.410235794552918"><ele>113.0</ele><time>2026-03-22T10:29:08.999Z</time></trkpt><trkpt lat="43.25552960769857" lon="2.4103149388996297"><ele>112.99999999999999</ele><time>2026-03-22T10:29:09.999Z</time></trkpt><trkpt lat="43.25559536522597" lon="2.4104039327201874"><ele>113.0</ele><time>2026-03-22T10:29:11Z</time></trkpt><trkpt lat="43.25566606555995" lon="2.410468921586658"><ele>113.0</ele><time>2026-03-22T10:29:12Z</time></trkpt><trkpt lat="43.255729334570354" lon="2.410541489825037"><ele>113.0</ele><time>2026-03-22T10:29:13Z</time></trkpt><trkpt lat="43.255784362103356" lon="2.410610214331587"><ele>112.99999999999999</ele><time>2026-03-22T10:29:14Z</time></trkpt><trkpt lat="43.25583615411096" lon="2.4106711161059797"><ele>113.0</ele><time>2026-03-22T10:29:15Z</time></trkpt><trkpt lat="43.25591543919784" lon="2.410761686090456"><ele>113.33333333333333</ele><time>2026-03-22T10:29:17Z</time></trkpt><trkpt lat="43.25596596457571" lon="2.4108209395700615"><ele>113.66666666666666</ele><time>2026-03-22T10:29:19Z</time></trkpt><trkpt lat="43.25602647505685" lon="2.410891794530658"><ele>114.0</ele><time>2026-03-22T10:29:21Z</time></trkpt><trkpt lat="43.256077821596335" lon="2.410951422730504"><ele>114.33333333333334</ele><time>2026-03-22T10:29:23Z</time></trkpt><trkpt lat="43.256155098250645" lon="2.4110254813433203"><ele>114.66666666666667</ele><time>2026-03-22T10:29:25Z</time></trkpt><trkpt lat="43.256234556791384" lon="2.4110710859552658"><ele>115.0</ele><time>2026-03-22T10:29:27Z</time></trkpt><trkpt lat="43.25629601470475" lon="2.411095062490017"><ele>115.00000000000001</ele><time>2026-03-22T10:29:29Z</time></trkpt><trkpt lat="43.25635438571607" lon="2.411146411049371"><ele>115.0</ele><time>2026-03-22T10:29:31Z</time></trkpt><trkpt lat="43.25644335088591" lon="2.4112283543570285"><ele>115.0</ele><time>2026-03-22T10:29:33Z</time></trkpt><trkpt lat="43.256501176717634" lon="2.4112799458370726"><ele>115.0</ele><time>2026-03-22T10:29:34Z</time></trkpt><trkpt lat="43.256560176155396" lon="2.411333210744091"><ele>115.00000000000001</ele><time>2026-03-22T10:29:35Z</time></trkpt><trkpt lat="43.25662018416554" lon="2.411390260210979"><ele>115.0</ele><time>2026-03-22T10:29:36Z</time></trkpt><trkpt lat="43.256675461993126" lon="2.411450963118776"><ele>115.66666666666667</ele><time>2026-03-22T10:29:37Z</time></trkpt><trkpt lat="43.25673891979312" lon="2.4115236123312047"><ele>116.33333333333334</ele><time>2026-03-22T10:29:38Z</time></trkpt><trkpt lat="43.2568010199256" lon="2.4115827212395047"><ele>117.0</ele><time>2026-03-22T10:29:39Z</time></trkpt><trkpt lat="43.25686028672466" lon="2.4116344676265853"><ele>117.66666666666666</ele><time>2026-03-22T10:29:40Z</time></trkpt><trkpt lat="43.25691391196834" lon="2.4117378863366183"><ele>118.33333333333333</ele><time>2026-03-22T10:29:41Z</time></trkpt><trkpt lat="43.25699141078094" lon="2.4118073962488302"><ele>119.0</ele><time>2026-03-22T10:29:42Z</time></trkpt><trkpt lat="43.25709634914973" lon="2.4118181414541833"><ele>119.0</ele><time>2026-03-22T10:29:43Z</time></trkpt><trkpt lat="43.25718440967497" lon="2.4118619421401912"><ele>119.0</ele><time>2026-03-22T10:29:44Z</time></trkpt><trkpt lat="43.25728306260762" lon="2.411888553781055"><ele>119.0</ele><time>2026-03-22T10:29:45Z</time></trkpt><trkpt lat="43.25737309909543" lon="2.411926395244778"><ele>119.0</ele><time>2026-03-22T10:29:46Z</time></trkpt><trkpt lat="43.257466915207644" lon="2.4119882681287668"><ele>119.0</ele><time>2026-03-22T10:29:47Z</time></trkpt><trkpt lat="43.25755496589492" lon="2.4120662477448467"><ele>119.4</ele><time>2026-03-22T10:29:48Z</time></trkpt><trkpt lat="43.257605906063034" lon="2.4122044854105256"><ele>119.80000000000001</ele><time>2026-03-22T10:29:49Z</time></trkpt><trkpt lat="43.25768915867005" lon="2.4123182447830915"><ele>120.19999999999999</ele><time>2026-03-22T10:29:50Z</time></trkpt><trkpt lat="43.257765150871215" lon="2.4124211961199955"><ele>120.6</ele><time>2026-03-22T10:29:51Z</time></trkpt><trkpt lat="43.25783510728545" lon="2.412515970407066"><ele>121.0</ele><time>2026-03-22T10:29:52Z</time></trkpt><trkpt lat="43.25790479663208" lon="2.41261109544982"><ele>121.00000000000001</ele><time>2026-03-22T10:29:53Z</time></trkpt><trkpt lat="43.257972102129905" lon="2.412711424195322"><ele>121.0</ele><time>2026-03-22T10:29:54Z</time></trkpt><trkpt lat="43.25802446974547" lon="2.412806095601362"><ele>121.0</ele><time>2026-03-22T10:29:55Z</time></trkpt><trkpt lat="43.25805807958532" lon="2.4128999966028553"><ele>121.0</ele><time>2026-03-22T10:29:56Z</time></trkpt><trkpt lat="43.25808637516716" lon="2.4130037801425517"><ele>121.00000000000001</ele><time>2026-03-22T10:29:57Z</time></trkpt><trkpt lat="43.25810877692872" lon="2.413105830591558"><ele>121.0</ele><time>2026-03-22T10:29:58Z</time></trkpt><trkpt lat="43.258128724438905" lon="2.4132057133617417"><ele>121.8</ele><time>2026-03-22T10:29:59Z</time></trkpt><trkpt lat="43.25815406275732" lon="2.4133334629221452"><ele>122.6</ele><time>2026-03-22T10:30:00Z</time></trkpt><trkpt lat="43.25817921592928" lon="2.4134734244536413"><ele>123.4</ele><time>2026-03-22T10:30:01Z</time></trkpt><trkpt lat="43.25820379643395" lon="2.4136238167287702"><ele>124.2</ele><time>2026-03-22T10:30:02Z</time></trkpt><trkpt lat="43.25822898381611" lon="2.4137796735088908"><ele>125.0</ele><time>2026-03-22T10:30:03Z</time></trkpt><trkpt lat="43.25825284208297" lon="2.4139310040149713"><ele>125.0</ele><time>2026-03-22T10:30:04Z</time></trkpt><trkpt lat="43.25829266030976" lon="2.41408490256255"><ele>125.0</ele><time>2026-03-22T10:30:05Z</time></trkpt><trkpt lat="43.25830185441362" lon="2.4142543746262612"><ele>125.0</ele><time>2026-03-22T10:30:06Z</time></trkpt><trkpt lat="43.25832888282942" lon="2.414432572572316"><ele>125.0</ele><time>2026-03-22T10:30:07Z</time></trkpt><trkpt lat="43.25836335606008" lon="2.414623813029297"><ele>125.0</ele><time>2026-03-22T10:30:08Z</time></trkpt><trkpt lat="43.258426092028174" lon="2.414797234259303"><ele>125.0</ele><time>2026-03-22T10:30:09Z</time></trkpt><trkpt lat="43.25850188790434" lon="2.4150262044773725"><ele>125.0</ele><time>2026-03-22T10:30:10Z</time></trkpt><trkpt lat="43.25861705955666" lon="2.4152562996996783"><ele>125.0</ele><time>2026-03-22T10:30:11Z</time></trkpt><trkpt lat="43.25872045821634" lon="2.4154578697916578"><ele>125.0</ele><time>2026-03-22T10:30:12Z</time></trkpt><trkpt lat="43.258819986247566" lon="2.415651356305877"><ele>125.0</ele><time>2026-03-22T10:30:13Z</time></trkpt><trkpt lat="43.2589148108354" lon="2.4158404616642764"><ele>124.0</ele><time>2026-03-22T10:30:14Z</time></trkpt><trkpt lat="43.25901871523687" lon="2.4160182308758196"><ele>123.0</ele><time>2026-03-22T10:30:15Z</time></trkpt><trkpt lat="43.25912198960712" lon="2.416250994182163"><ele>122.0</ele><time>2026-03-22T10:30:16Z</time></trkpt><trkpt lat="43.25920565612493" lon="2.4165024385826364"><ele>121.66666666666666</ele><time>2026-03-22T10:30:17Z</time></trkpt><trkpt lat="43.259304258017025" lon="2.416750109407614"><ele>121.33333333333334</ele><time>2026-03-22T10:30:18Z</time></trkpt><trkpt lat="43.25940426469937" lon="2.417001308823782"><ele>121.0</ele><time>2026-03-22T10:30:19Z</time></trkpt><trkpt lat="43.259502575901934" lon="2.4172494372340236"><ele>121.0</ele><time>2026-03-22T10:30:20Z</time></trkpt><trkpt lat="43.25960462509503" lon="2.417494563510013"><ele>121.0</ele><time>2026-03-22T10:30:21Z</time></trkpt><trkpt lat="43.25970877900451" lon="2.4177364182537"><ele>121.0</ele><time>2026-03-22T10:30:22Z</time></trkpt><trkpt lat="43.259835055221714" lon="2.4179506855443744"><ele>120.66666666666667</ele><time>2026-03-22T10:30:23Z</time></trkpt><trkpt lat="43.25996801188032" lon="2.418189728161146"><ele>120.33333333333334</ele><time>2026-03-22T10:30:24Z</time></trkpt><trkpt lat="43.260102981875704" lon="2.418429820619547"><ele>120.0</ele><time>2026-03-22T10:30:25Z</time></trkpt><trkpt lat="43.26022023677689" lon="2.4186392476014036"><ele>120.33333333333334</ele><time>2026-03-22T10:30:26Z</time></trkpt><trkpt lat="43.2603372851978" lon="2.418837615291059"><ele>120.66666666666667</ele><time>2026-03-22T10:30:27Z</time></trkpt><trkpt lat="43.260448808935514" lon="2.4190404718915897"><ele>121.0</ele><time>2026-03-22T10:30:28Z</time></trkpt><trkpt lat="43.26056384961507" lon="2.419233028569781"><ele>121.0</ele><time>2026-03-22T10:30:29Z</time></trkpt><trkpt lat="43.26069020459651" lon="2.4194217927953963"><ele>121.0</ele><time>2026-03-22T10:30:30Z</time></trkpt><trkpt lat="43.26087246014931" lon="2.4196183572200027"><ele>121.0</ele><time>2026-03-22T10:30:31Z</time></trkpt><trkpt lat="43.26106366198437" lon="2.4198416386710995"><ele>121.0</ele><time>2026-03-22T10:30:32Z</time></trkpt><trkpt lat="43.26126573672893" lon="2.42005642929993"><ele>121.0</ele><time>2026-03-22T10:30:33Z</time></trkpt><trkpt lat="43.26144521247522" lon="2.4202274006706532"><ele>121.33333333333334</ele><time>2026-03-22T10:30:33.999Z</time></trkpt><trkpt lat="43.261606068307486" lon="2.4204046139109665"><ele>121.66666666666666</ele><time>2026-03-22T10:30:34.999Z</time></trkpt><trkpt lat="43.26176031342359" lon="2.420573115315905"><ele>122.0</ele><time>2026-03-22T10:30:35.999Z</time></trkpt><trkpt lat="43.26191053002118" lon="2.4207528510349547"><ele>122.33333333333333</ele><time>2026-03-22T10:30:36.999Z</time></trkpt><trkpt lat="43.2620585778451" lon="2.4209430576175457"><ele>122.66666666666666</ele><time>2026-03-22T10:30:37.999Z</time></trkpt><trkpt lat="43.26220852999918" lon="2.4211499157488685"><ele>123.0</ele><time>2026-03-22T10:30:38.999Z</time></trkpt><trkpt lat="43.262367392835756" lon="2.4213714481688524"><ele>124.0</ele><time>2026-03-22T10:30:39.999Z</time></trkpt><trkpt lat="43.26252736714131" lon="2.4215927777926396"><ele>125.0</ele><time>2026-03-22T10:30:40.999Z</time></trkpt><trkpt lat="43.262671138396314" lon="2.4217873230235947"><ele>126.0</ele><time>2026-03-22T10:30:41.999Z</time></trkpt><trkpt lat="43.2628139437939" lon="2.4219596154163465"><ele>126.0</ele><time>2026-03-22T10:30:42.999Z</time></trkpt><trkpt lat="43.26299051631808" lon="2.422122969898256"><ele>126.0</ele><time>2026-03-22T10:30:43.999Z</time></trkpt><trkpt lat="43.26318563714615" lon="2.4222674593038778"><ele>126.0</ele><time>2026-03-22T10:30:44.999Z</time></trkpt><trkpt lat="43.263390813905644" lon="2.4224003175728086"><ele>127.0</ele><time>2026-03-22T10:30:45.999Z</time></trkpt><trkpt lat="43.26359187297654" lon="2.4225396406466633"><ele>128.0</ele><time>2026-03-22T10:30:46.999Z</time></trkpt><trkpt lat="43.26379388267217" lon="2.4226244046208554"><ele>129.0</ele><time>2026-03-22T10:30:47.999Z</time></trkpt><trkpt lat="43.26398210607059" lon="2.4226791251017166"><ele>129.0</ele><time>2026-03-22T10:30:48.999Z</time></trkpt><trkpt lat="43.26418226803099" lon="2.4227304490289705"><ele>129.0</ele><time>2026-03-22T10:30:49.999Z</time></trkpt><trkpt lat="43.26440947495814" lon="2.4227961854905473"><ele>129.0</ele><time>2026-03-22T10:30:50.999Z</time></trkpt><trkpt lat="43.264655203718995" lon="2.4228685631943603"><ele>129.5</ele><time>2026-03-22T10:30:51.999Z</time></trkpt><trkpt lat="43.26489639620511" lon="2.4229418334212944"><ele>130.0</ele><time>2026-03-22T10:30:52.999Z</time></trkpt><trkpt lat="43.265109550495666" lon="2.423007156086248"><ele>130.66666666666669</ele><time>2026-03-22T10:30:53.999Z</time></trkpt><trkpt lat="43.26531160772199" lon="2.4230669692068405"><ele>131.33333333333334</ele><time>2026-03-22T10:30:54.999Z</time></trkpt><trkpt lat="43.26549799750317" lon="2.4231238741414085"><ele>132.0</ele><time>2026-03-22T10:30:55.999Z</time></trkpt><trkpt lat="43.265692171046254" lon="2.4231788291460314"><ele>132.66666666666666</ele><time>2026-03-22T10:30:56.999Z</time></trkpt><trkpt lat="43.2658791543365" lon="2.4232363908921086"><ele>133.33333333333331</ele><time>2026-03-22T10:30:57.999Z</time></trkpt><trkpt lat="43.26606832870102" lon="2.4232969199834673"><ele>134.0</ele><time>2026-03-22T10:30:58.999Z</time></trkpt><trkpt lat="43.26624184924186" lon="2.423351951147325"><ele>134.0</ele><time>2026-03-22T10:30:59.999Z</time></trkpt><trkpt lat="43.26640402154323" lon="2.4234044009364855"><ele>134.0</ele><time>2026-03-22T10:31:00.999Z</time></trkpt><trkpt lat="43.26657374871603" lon="2.423457938342823"><ele>134.0</ele><time>2026-03-22T10:31:01.999Z</time></trkpt><trkpt lat="43.266733956359694" lon="2.423515248730984"><ele>133.33333333333331</ele><time>2026-03-22T10:31:02.999Z</time></trkpt><trkpt lat="43.26690026098221" lon="2.4235702658372116"><ele>132.66666666666666</ele><time>2026-03-22T10:31:03.999Z</time></trkpt><trkpt lat="43.267065218661244" lon="2.423616151976481"><ele>132.0</ele><time>2026-03-22T10:31:04.999Z</time></trkpt><trkpt lat="43.26723648317817" lon="2.4236454578459337"><ele>133.66666666666666</ele><time>2026-03-22T10:31:05.999Z</time></trkpt><trkpt lat="43.26741708870084" lon="2.4237056818983516"><ele>135.33333333333331</ele><time>2026-03-22T10:31:06.999Z</time></trkpt><trkpt lat="43.267607762619576" lon="2.4237046718265893"><ele>137.0</ele><time>2026-03-22T10:31:07.999Z</time></trkpt><trkpt lat="43.267799304013494" lon="2.4237349323540274"><ele>137.0</ele><time>2026-03-22T10:31:08.999Z</time></trkpt><trkpt lat="43.26799726769752" lon="2.4237687737954503"><ele>137.0</ele><time>2026-03-22T10:31:09.999Z</time></trkpt><trkpt lat="43.26819954490002" lon="2.423811507797849"><ele>137.0</ele><time>2026-03-22T10:31:10.999Z</time></trkpt><trkpt lat="43.26840197141002" lon="2.423861121560832"><ele>138.0</ele><time>2026-03-22T10:31:11.999Z</time></trkpt><trkpt lat="43.26861982074926" lon="2.423908963632691"><ele>139.0</ele><time>2026-03-22T10:31:12.999Z</time></trkpt><trkpt lat="43.26883349505482" lon="2.4239450617559437"><ele>140.0</ele><time>2026-03-22T10:31:13.999Z</time></trkpt><trkpt lat="43.26904582480578" lon="2.423979736969695"><ele>140.0</ele><time>2026-03-22T10:31:14.999Z</time></trkpt><trkpt lat="43.26925998439145" lon="2.4240160628719964"><ele>140.0</ele><time>2026-03-22T10:31:15.999Z</time></trkpt><trkpt lat="43.26948006270381" lon="2.424057981140055"><ele>140.0</ele><time>2026-03-22T10:31:17Z</time></trkpt><trkpt lat="43.26968714960126" lon="2.424096982769972"><ele>140.33333333333331</ele><time>2026-03-22T10:31:18Z</time></trkpt><trkpt lat="43.26989813709812" lon="2.4241322059372665"><ele>140.66666666666666</ele><time>2026-03-22T10:31:19Z</time></trkpt><trkpt lat="43.270086308539256" lon="2.4241728812445476"><ele>141.0</ele><time>2026-03-22T10:31:20Z</time></trkpt><trkpt lat="43.27025323856892" lon="2.424210293750583"><ele>141.0</ele><time>2026-03-22T10:31:21Z</time></trkpt><trkpt lat="43.27044126538275" lon="2.4242352858893454"><ele>141.0</ele><time>2026-03-22T10:31:22Z</time></trkpt><trkpt lat="43.270620847094705" lon="2.424270903996264"><ele>141.0</ele><time>2026-03-22T10:31:23Z</time></trkpt><trkpt lat="43.27079462509936" lon="2.4242969947124138"><ele>141.66666666666666</ele><time>2026-03-22T10:31:24Z</time></trkpt><trkpt lat="43.27095439626931" lon="2.4243222519595857"><ele>142.33333333333331</ele><time>2026-03-22T10:31:25Z</time></trkpt><trkpt lat="43.27109502908951" lon="2.4243597012644105"><ele>143.0</ele><time>2026-03-22T10:31:26Z</time></trkpt><trkpt lat="43.27125752431232" lon="2.424387158143199"><ele>143.0</ele><time>2026-03-22T10:31:27Z</time></trkpt><trkpt lat="43.2714274751457" lon="2.4244021849647135"><ele>143.0</ele><time>2026-03-22T10:31:28Z</time></trkpt><trkpt lat="43.27159133942702" lon="2.4244182585018694"><ele>143.0</ele><time>2026-03-22T10:31:29Z</time></trkpt><trkpt lat="43.271755185184126" lon="2.424438453053377"><ele>143.0</ele><time>2026-03-22T10:31:30Z</time></trkpt><trkpt lat="43.27191865331331" lon="2.424464351852447"><ele>143.0</ele><time>2026-03-22T10:31:31Z</time></trkpt><trkpt lat="43.272084737870465" lon="2.424477327637467"><ele>143.0</ele><time>2026-03-22T10:31:32Z</time></trkpt><trkpt lat="43.27225160997892" lon="2.4244973703674355"><ele>142.66666666666666</ele><time>2026-03-22T10:31:33Z</time></trkpt><trkpt lat="43.272421992472204" lon="2.424516376482016"><ele>142.33333333333334</ele><time>2026-03-22T10:31:34Z</time></trkpt><trkpt lat="43.27259092483836" lon="2.4245388048451932"><ele>142.0</ele><time>2026-03-22T10:31:35Z</time></trkpt><trkpt lat="43.27275527327494" lon="2.424556344651862"><ele>142.0</ele><time>2026-03-22T10:31:36Z</time></trkpt><trkpt lat="43.27291759472714" lon="2.424575304177138"><ele>142.0</ele><time>2026-03-22T10:31:37Z</time></trkpt><trkpt lat="43.2730803612825" lon="2.424603738605964"><ele>142.0</ele><time>2026-03-22T10:31:38Z</time></trkpt><trkpt lat="43.27324161864855" lon="2.424619908946805"><ele>142.0</ele><time>2026-03-22T10:31:39Z</time></trkpt><trkpt lat="43.27339977539512" lon="2.4246328349885657"><ele>142.0</ele><time>2026-03-22T10:31:40Z</time></trkpt><trkpt lat="43.27354740071879" lon="2.424646839957454"><ele>142.0</ele><time>2026-03-22T10:31:41Z</time></trkpt><trkpt lat="43.273705670113074" lon="2.42468249745969"><ele>144.33333333333334</ele><time>2026-03-22T10:31:42Z</time></trkpt><trkpt lat="43.27386698067134" lon="2.42472380899723"><ele>146.66666666666666</ele><time>2026-03-22T10:31:43Z</time></trkpt><trkpt lat="43.27402035898109" lon="2.424785588849872"><ele>149.0</ele><time>2026-03-22T10:31:44Z</time></trkpt><trkpt lat="43.274169283428066" lon="2.4248730778081895"><ele>149.33333333333331</ele><time>2026-03-22T10:31:45Z</time></trkpt><trkpt lat="43.2743242364367" lon="2.4249641000251128"><ele>149.66666666666666</ele><time>2026-03-22T10:31:46Z</time></trkpt><trkpt lat="43.274463937133376" lon="2.425055278058025"><ele>150.0</ele><time>2026-03-22T10:31:47Z</time></trkpt><trkpt lat="43.27460988866399" lon="2.425145010871872"><ele>150.0</ele><time>2026-03-22T10:31:48Z</time></trkpt><trkpt lat="43.274758351314794" lon="2.4252410010462695"><ele>150.0</ele><time>2026-03-22T10:31:49Z</time></trkpt><trkpt lat="43.27490275806324" lon="2.4253428486696986"><ele>150.0</ele><time>2026-03-22T10:31:50Z</time></trkpt><trkpt lat="43.275048418961454" lon="2.42544089714974"><ele>151.0</ele><time>2026-03-22T10:31:51Z</time></trkpt><trkpt lat="43.27520036922918" lon="2.4255405097378318"><ele>152.0</ele><time>2026-03-22T10:31:52Z</time></trkpt><trkpt lat="43.27534215962583" lon="2.425641449528148"><ele>153.0</ele><time>2026-03-22T10:31:53Z</time></trkpt><trkpt lat="43.275468940417205" lon="2.425745299712114"><ele>153.0</ele><time>2026-03-22T10:31:54Z</time></trkpt><trkpt lat="43.2755853954397" lon="2.425848304407497"><ele>153.0</ele><time>2026-03-22T10:31:55Z</time></trkpt><trkpt lat="43.2757042040855" lon="2.4259679184407696"><ele>153.0</ele><time>2026-03-22T10:31:56Z</time></trkpt><trkpt lat="43.27581108060137" lon="2.4261012149806898"><ele>153.0</ele><time>2026-03-22T10:31:57Z</time></trkpt><trkpt lat="43.27591603498591" lon="2.4262462928460033"><ele>152.66666666666666</ele><time>2026-03-22T10:31:58Z</time></trkpt><trkpt lat="43.27600945733433" lon="2.4264018508062657"><ele>152.33333333333331</ele><time>2026-03-22T10:31:59Z</time></trkpt><trkpt lat="43.276108073658676" lon="2.426568404525647"><ele>152.0</ele><time>2026-03-22T10:32:00Z</time></trkpt><trkpt lat="43.276207915349595" lon="2.4267346484814096"><ele>152.0</ele><time>2026-03-22T10:32:01Z</time></trkpt><trkpt lat="43.27630850923085" lon="2.4268994354804216"><ele>152.0</ele><time>2026-03-22T10:32:02Z</time></trkpt><trkpt lat="43.27640326133824" lon="2.427060514848146"><ele>152.0</ele><time>2026-03-22T10:32:03Z</time></trkpt><trkpt lat="43.276504486068184" lon="2.4272222411678817"><ele>151.0</ele><time>2026-03-22T10:32:04Z</time></trkpt><trkpt lat="43.27660753779631" lon="2.427390305555542"><ele>150.0</ele><time>2026-03-22T10:32:05Z</time></trkpt><trkpt lat="43.27671166943358" lon="2.4275577541943667"><ele>149.0</ele><time>2026-03-22T10:32:06Z</time></trkpt><trkpt lat="43.276816413046674" lon="2.4277242839862283"><ele>149.0</ele><time>2026-03-22T10:32:07Z</time></trkpt><trkpt lat="43.27691942216119" lon="2.4278839511286714"><ele>149.0</ele><time>2026-03-22T10:32:08Z</time></trkpt><trkpt lat="43.2770210754507" lon="2.4280426144407903"><ele>149.0</ele><time>2026-03-22T10:32:09Z</time></trkpt><trkpt lat="43.27712145905105" lon="2.4282025434144523"><ele>149.33333333333331</ele><time>2026-03-22T10:32:10Z</time></trkpt><trkpt lat="43.27722129660219" lon="2.428365894581544"><ele>149.66666666666666</ele><time>2026-03-22T10:32:11Z</time></trkpt><trkpt lat="43.27732128880661" lon="2.428529659589441"><ele>150.0</ele><time>2026-03-22T10:32:12Z</time></trkpt><trkpt lat="43.27742264133939" lon="2.428693101815045"><ele>150.33333333333334</ele><time>2026-03-22T10:32:13Z</time></trkpt><trkpt lat="43.277521187682424" lon="2.4288584157010824"><ele>150.66666666666669</ele><time>2026-03-22T10:32:14Z</time></trkpt><trkpt lat="43.27761435890351" lon="2.4290320023323946"><ele>151.0</ele><time>2026-03-22T10:32:15Z</time></trkpt><trkpt lat="43.277704240172476" lon="2.4292077937944856"><ele>151.0</ele><time>2026-03-22T10:32:16Z</time></trkpt><trkpt lat="43.277773013158644" lon="2.429401691819105"><ele>151.0</ele><time>2026-03-22T10:32:17Z</time></trkpt><trkpt lat="43.27784633982023" lon="2.4295942515165967"><ele>151.0</ele><time>2026-03-22T10:32:18Z</time></trkpt><trkpt lat="43.27792202447003" lon="2.4297925611481928"><ele>151.0</ele><time>2026-03-22T10:32:19Z</time></trkpt><trkpt lat="43.278000028305655" lon="2.4299951628182495"><ele>151.0</ele><time>2026-03-22T10:32:20Z</time></trkpt><trkpt lat="43.278080916564626" lon="2.4302018622751933"><ele>151.0</ele><time>2026-03-22T10:32:21Z</time></trkpt><trkpt lat="43.278175468830234" lon="2.4304092603752263"><ele>149.66666666666669</ele><time>2026-03-22T10:32:22Z</time></trkpt><trkpt lat="43.27826476230468" lon="2.4306284758293404"><ele>148.33333333333334</ele><time>2026-03-22T10:32:23Z</time></trkpt><trkpt lat="43.278356194724935" lon="2.4308578846300986"><ele>147.0</ele><time>2026-03-22T10:32:24Z</time></trkpt><trkpt lat="43.278441609746835" lon="2.431086793930115"><ele>146.0</ele><time>2026-03-22T10:32:25Z</time></trkpt><trkpt lat="43.27853232035436" lon="2.431320604217976"><ele>145.0</ele><time>2026-03-22T10:32:26Z</time></trkpt><trkpt lat="43.2786168920073" lon="2.431547447098593"><ele>144.0</ele><time>2026-03-22T10:32:27Z</time></trkpt><trkpt lat="43.2787102274072" lon="2.431774344712677"><ele>144.0</ele><time>2026-03-22T10:32:28Z</time></trkpt><trkpt lat="43.27879497121545" lon="2.431991664044897"><ele>144.0</ele><time>2026-03-22T10:32:29Z</time></trkpt><trkpt lat="43.27886717862203" lon="2.432226274578699"><ele>144.0</ele><time>2026-03-22T10:32:30Z</time></trkpt><trkpt lat="43.27895738153295" lon="2.4324618486718546"><ele>143.66666666666666</ele><time>2026-03-22T10:32:31Z</time></trkpt><trkpt lat="43.27905420023165" lon="2.432668678566805"><ele>143.33333333333331</ele><time>2026-03-22T10:32:32Z</time></trkpt><trkpt lat="43.27913234092531" lon="2.4328847735526367"><ele>143.0</ele><time>2026-03-22T10:32:33Z</time></trkpt><trkpt lat="43.279212313165196" lon="2.4330963589591548"><ele>142.0</ele><time>2026-03-22T10:32:34Z</time></trkpt><trkpt lat="43.27929988436958" lon="2.433319130822657"><ele>141.0</ele><time>2026-03-22T10:32:35Z</time></trkpt><trkpt lat="43.27937759048033" lon="2.4335594680450923"><ele>140.0</ele><time>2026-03-22T10:32:36Z</time></trkpt><trkpt lat="43.27946838290776" lon="2.433781456558744"><ele>139.66666666666666</ele><time>2026-03-22T10:32:37Z</time></trkpt><trkpt lat="43.2795654713354" lon="2.4339917143266905"><ele>139.33333333333334</ele><time>2026-03-22T10:32:38Z</time></trkpt><trkpt lat="43.2796652674378" lon="2.4341933953690296"><ele>139.0</ele><time>2026-03-22T10:32:39Z</time></trkpt><trkpt lat="43.279769145435225" lon="2.434398640354913"><ele>139.0</ele><time>2026-03-22T10:32:40Z</time></trkpt><trkpt lat="43.279866950669245" lon="2.434589847640118"><ele>139.0</ele><time>2026-03-22T10:32:41Z</time></trkpt><trkpt lat="43.2799687984532" lon="2.434787527570557"><ele>139.0</ele><time>2026-03-22T10:32:42Z</time></trkpt><trkpt lat="43.28006489250862" lon="2.4349733197358616"><ele>137.33333333333334</ele><time>2026-03-22T10:32:43Z</time></trkpt><trkpt lat="43.280158223810815" lon="2.435153770349953"><ele>135.66666666666666</ele><time>2026-03-22T10:32:44Z</time></trkpt><trkpt lat="43.280247247599064" lon="2.4353258925799164"><ele>134.0</ele><time>2026-03-22T10:32:45Z</time></trkpt><trkpt lat="43.280332311501766" lon="2.435488625774845"><ele>134.0</ele><time>2026-03-22T10:32:46Z</time></trkpt><trkpt lat="43.28041357446869" lon="2.435643346881293"><ele>134.0</ele><time>2026-03-22T10:32:47Z</time></trkpt><trkpt lat="43.28049337617345" lon="2.435791054168629"><ele>134.0</ele><time>2026-03-22T10:32:48Z</time></trkpt><trkpt lat="43.2805780872542" lon="2.435947752328237"><ele>134.0</ele><time>2026-03-22T10:32:49Z</time></trkpt><trkpt lat="43.280680311565675" lon="2.436098994525199"><ele>134.25</ele><time>2026-03-22T10:32:50Z</time></trkpt><trkpt lat="43.28075968873469" lon="2.4362769707346734"><ele>134.5</ele><time>2026-03-22T10:32:51Z</time></trkpt><trkpt lat="43.280850555327554" lon="2.4364200529858895"><ele>134.75</ele><time>2026-03-22T10:32:52Z</time></trkpt><trkpt lat="43.28094518158033" lon="2.436547290803907"><ele>135.0</ele><time>2026-03-22T10:32:53Z</time></trkpt><trkpt lat="43.28105131352173" lon="2.4366657808867855"><ele>135.0</ele><time>2026-03-22T10:32:54Z</time></trkpt><trkpt lat="43.28116578263039" lon="2.4367442235319756"><ele>135.0</ele><time>2026-03-22T10:32:55Z</time></trkpt><trkpt lat="43.281271602108326" lon="2.4368158165561167"><ele>135.0</ele><time>2026-03-22T10:32:56Z</time></trkpt><trkpt lat="43.281368651059886" lon="2.436882820065509"><ele>135.0</ele><time>2026-03-22T10:32:57Z</time></trkpt><trkpt lat="43.28145200528835" lon="2.436946494949411"><ele>135.16666666666666</ele><time>2026-03-22T10:32:57.999Z</time></trkpt><trkpt lat="43.281538325001" lon="2.43699524340721"><ele>135.33333333333334</ele><time>2026-03-22T10:32:58.999Z</time></trkpt><trkpt lat="43.28161855597941" lon="2.43704214768144"><ele>135.5</ele><time>2026-03-22T10:32:59.999Z</time></trkpt><trkpt lat="43.28169972967359" lon="2.4370938016654136"><ele>135.66666666666669</ele><time>2026-03-22T10:33:00.999Z</time></trkpt><trkpt lat="43.281764897832765" lon="2.4371479423652422"><ele>135.83333333333334</ele><time>2026-03-22T10:33:01.999Z</time></trkpt><trkpt lat="43.281816910235655" lon="2.437197063077913"><ele>136.0</ele><time>2026-03-22T10:33:02.999Z</time></trkpt><trkpt lat="43.28186185863935" lon="2.4372620152663638"><ele>136.0</ele><time>2026-03-22T10:33:03.999Z</time></trkpt><trkpt lat="43.28190293711566" lon="2.437343996310461"><ele>136.0</ele><time>2026-03-22T10:33:04.999Z</time></trkpt><trkpt lat="43.28194980797443" lon="2.4374239679687153"><ele>136.0</ele><time>2026-03-22T10:33:05.999Z</time></trkpt><trkpt lat="43.282017727976005" lon="2.4374523670324217"><ele>136.0</ele><time>2026-03-22T10:33:06.999Z</time></trkpt><trkpt lat="43.28210531096573" lon="2.4374403201494035"><ele>136.0</ele><time>2026-03-22T10:33:07.999Z</time></trkpt><trkpt lat="43.282198176081984" lon="2.437405337536671"><ele>136.0</ele><time>2026-03-22T10:33:08.999Z</time></trkpt><trkpt lat="43.282302922436656" lon="2.4374322494651715"><ele>136.33333333333334</ele><time>2026-03-22T10:33:09.999Z</time></trkpt><trkpt lat="43.28239314361492" lon="2.4374813566878815"><ele>136.66666666666669</ele><time>2026-03-22T10:33:10.999Z</time></trkpt><trkpt lat="43.28245822632892" lon="2.437543741721982"><ele>137.0</ele><time>2026-03-22T10:33:11.999Z</time></trkpt><trkpt lat="43.28251711889103" lon="2.4375787532536424"><ele>137.33333333333334</ele><time>2026-03-22T10:33:12.999Z</time></trkpt><trkpt lat="43.28258628725019" lon="2.437619659289193"><ele>137.66666666666666</ele><time>2026-03-22T10:33:13.999Z</time></trkpt><trkpt lat="43.28266572752869" lon="2.437666674602062"><ele>138.0</ele><time>2026-03-22T10:33:14.999Z</time></trkpt><trkpt lat="43.282748804402466" lon="2.437715842197227"><ele>138.0</ele><time>2026-03-22T10:33:15.999Z</time></trkpt><trkpt lat="43.28283771136912" lon="2.4377454205832083"><ele>138.0</ele><time>2026-03-22T10:33:16.999Z</time></trkpt><trkpt lat="43.28291723046375" lon="2.4378038961676216"><ele>138.0</ele><time>2026-03-22T10:33:17.999Z</time></trkpt><trkpt lat="43.283008888615015" lon="2.437853234525483"><ele>138.0</ele><time>2026-03-22T10:33:18.999Z</time></trkpt><trkpt lat="43.283100089979094" lon="2.4379267614216245"><ele>138.0</ele><time>2026-03-22T10:33:19.999Z</time></trkpt><trkpt lat="43.28319352853064" lon="2.4379692201907517"><ele>138.4</ele><time>2026-03-22T10:33:20.999Z</time></trkpt><trkpt lat="43.28328682741086" lon="2.437997969813181"><ele>138.8</ele><time>2026-03-22T10:33:21.999Z</time></trkpt><trkpt lat="43.28338471120292" lon="2.438029501745168"><ele>139.2</ele><time>2026-03-22T10:33:23Z</time></trkpt><trkpt lat="43.28347718640526" lon="2.4380819432678384"><ele>139.6</ele><time>2026-03-22T10:33:24Z</time></trkpt><trkpt lat="43.28357650829547" lon="2.4380853328439955"><ele>140.0</ele><time>2026-03-22T10:33:25Z</time></trkpt><trkpt lat="43.2836672511913" lon="2.4381006325081387"><ele>140.0</ele><time>2026-03-22T10:33:26Z</time></trkpt><trkpt lat="43.283753994050564" lon="2.43811662345336"><ele>140.0</ele><time>2026-03-22T10:33:27Z</time></trkpt><trkpt lat="43.28384925162684" lon="2.4381424610792717"><ele>140.0</ele><time>2026-03-22T10:33:28Z</time></trkpt><trkpt lat="43.28394979276369" lon="2.438170246478006"><ele>140.0</ele><time>2026-03-22T10:33:29Z</time></trkpt><trkpt lat="43.28405038971" lon="2.4382006583210742"><ele>140.0</ele><time>2026-03-22T10:33:30Z</time></trkpt><trkpt lat="43.28414631365867" lon="2.438227615257338"><ele>140.4</ele><time>2026-03-22T10:33:31Z</time></trkpt><trkpt lat="43.284230077877126" lon="2.4382512681398225"><ele>140.8</ele><time>2026-03-22T10:33:32Z</time></trkpt><trkpt lat="43.284317508909055" lon="2.438298306113064"><ele>141.2</ele><time>2026-03-22T10:33:33Z</time></trkpt><trkpt lat="43.28440909293936" lon="2.438312309540049"><ele>141.6</ele><time>2026-03-22T10:33:34Z</time></trkpt><trkpt lat="43.28450853841867" lon="2.4383435020225566"><ele>142.0</ele><time>2026-03-22T10:33:35Z</time></trkpt><trkpt lat="43.28459715493156" lon="2.438365490386172"><ele>142.0</ele><time>2026-03-22T10:33:36Z</time></trkpt><trkpt lat="43.28469047640661" lon="2.438390423786542"><ele>142.0</ele><time>2026-03-22T10:33:37Z</time></trkpt><trkpt lat="43.284778960133885" lon="2.438432688780186"><ele>142.0</ele><time>2026-03-22T10:33:38Z</time></trkpt><trkpt lat="43.28485940109807" lon="2.438445822767306"><ele>142.0</ele><time>2026-03-22T10:33:39Z</time></trkpt><trkpt lat="43.28493818897866" lon="2.4384546011635564"><ele>142.0</ele><time>2026-03-22T10:33:40Z</time></trkpt><trkpt lat="43.28503805109329" lon="2.4384777476815493"><ele>142.16666666666669</ele><time>2026-03-22T10:33:41Z</time></trkpt><trkpt lat="43.28512717173472" lon="2.438512186836037"><ele>142.33333333333334</ele><time>2026-03-22T10:33:42Z</time></trkpt><trkpt lat="43.28520245729004" lon="2.438583341466086"><ele>142.5</ele><time>2026-03-22T10:33:43Z</time></trkpt><trkpt lat="43.28526863119163" lon="2.4386443329292793"><ele>142.66666666666666</ele><time>2026-03-22T10:33:44Z</time></trkpt><trkpt lat="43.28533617704761" lon="2.4387090142497656"><ele>142.83333333333331</ele><time>2026-03-22T10:33:45Z</time></trkpt><trkpt lat="43.28539560775844" lon="2.4387679858985445"><ele>143.0</ele><time>2026-03-22T10:33:46Z</time></trkpt><trkpt lat="43.28545211528831" lon="2.438823835858158"><ele>143.0</ele><time>2026-03-22T10:33:47Z</time></trkpt><trkpt lat="43.28551666511589" lon="2.4388876344110817"><ele>143.0</ele><time>2026-03-22T10:33:48Z</time></trkpt><trkpt lat="43.28556925784263" lon="2.4389396151411935"><ele>143.0</ele><time>2026-03-22T10:33:49Z</time></trkpt><trkpt lat="43.28562852609422" lon="2.438998538228867"><ele>143.0</ele><time>2026-03-22T10:33:50Z</time></trkpt><trkpt lat="43.285700182335916" lon="2.4390676957049577"><ele>143.0</ele><time>2026-03-22T10:33:51Z</time></trkpt><trkpt lat="43.28577144837563" lon="2.439131977493496"><ele>143.0</ele><time>2026-03-22T10:33:52Z</time></trkpt><trkpt lat="43.28584825339128" lon="2.4391654408318684"><ele>143.16666666666666</ele><time>2026-03-22T10:33:53Z</time></trkpt><trkpt lat="43.285923612627464" lon="2.439213188493565"><ele>143.33333333333331</ele><time>2026-03-22T10:33:54Z</time></trkpt><trkpt lat="43.286005984230556" lon="2.439261847045917"><ele>143.5</ele><time>2026-03-22T10:33:55Z</time></trkpt><trkpt lat="43.28607797574859" lon="2.439337829997315"><ele>143.66666666666666</ele><time>2026-03-22T10:33:56Z</time></trkpt><trkpt lat="43.28615449235572" lon="2.4394055874086114"><ele>143.83333333333334</ele><time>2026-03-22T10:33:57Z</time></trkpt><trkpt lat="43.286228998284166" lon="2.439479077571609"><ele>144.0</ele><time>2026-03-22T10:33:58Z</time></trkpt><trkpt lat="43.28629893411839" lon="2.439549875438331"><ele>144.0</ele><time>2026-03-22T10:33:59Z</time></trkpt><trkpt lat="43.286370072998075" lon="2.4396231732539437"><ele>144.0</ele><time>2026-03-22T10:34:00Z</time></trkpt><trkpt lat="43.286441110425784" lon="2.4396969813666067"><ele>144.0</ele><time>2026-03-22T10:34:01Z</time></trkpt><trkpt lat="43.28651075106252" lon="2.4397693385605854"><ele>144.0</ele><time>2026-03-22T10:34:02Z</time></trkpt><trkpt lat="43.286582197044794" lon="2.4398430678376894"><ele>144.0</ele><time>2026-03-22T10:34:03Z</time></trkpt><trkpt lat="43.28665474540625" lon="2.4399179633439365"><ele>144.0</ele><time>2026-03-22T10:34:04Z</time></trkpt><trkpt lat="43.286727821386144" lon="2.4399931342480556"><ele>144.6</ele><time>2026-03-22T10:34:05Z</time></trkpt><trkpt lat="43.28680176564383" lon="2.44006831312133"><ele>145.2</ele><time>2026-03-22T10:34:06Z</time></trkpt><trkpt lat="43.286877162698964" lon="2.4401449690409898"><ele>145.79999999999998</ele><time>2026-03-22T10:34:07Z</time></trkpt><trkpt lat="43.286954396427184" lon="2.4402234913206726"><ele>146.4</ele><time>2026-03-22T10:34:08Z</time></trkpt><trkpt lat="43.28703468630588" lon="2.440304111798826"><ele>147.0</ele><time>2026-03-22T10:34:09Z</time></trkpt><trkpt lat="43.2871118168566" lon="2.4403818392191727"><ele>147.0</ele><time>2026-03-22T10:34:10Z</time></trkpt><trkpt lat="43.2871862564734" lon="2.440456855115701"><ele>147.0</ele><time>2026-03-22T10:34:11Z</time></trkpt><trkpt lat="43.287268296969096" lon="2.4405395265980916"><ele>147.0</ele><time>2026-03-22T10:34:12Z</time></trkpt><trkpt lat="43.28735429460666" lon="2.4406261643980347"><ele>147.0</ele><time>2026-03-22T10:34:13Z</time></trkpt><trkpt lat="43.28743966300297" lon="2.4407121683347746"><ele>147.0</ele><time>2026-03-22T10:34:14Z</time></trkpt><trkpt lat="43.28752206335908" lon="2.4407951821181375"><ele>146.79999999999998</ele><time>2026-03-22T10:34:15Z</time></trkpt><trkpt lat="43.28760541459329" lon="2.4408791538373005"><ele>146.6</ele><time>2026-03-22T10:34:16Z</time></trkpt><trkpt lat="43.287690739707344" lon="2.4409651140798303"><ele>146.39999999999998</ele><time>2026-03-22T10:34:17Z</time></trkpt><trkpt lat="43.28777754510239" lon="2.441053315493219"><ele>146.2</ele><time>2026-03-22T10:34:18Z</time></trkpt><trkpt lat="43.28787142318538" lon="2.4411487751839203"><ele>146.0</ele><time>2026-03-22T10:34:19Z</time></trkpt><trkpt lat="43.28796841373408" lon="2.441247399588262"><ele>146.0</ele><time>2026-03-22T10:34:20Z</time></trkpt><trkpt lat="43.28806370361223" lon="2.4413445249231116"><ele>146.0</ele><time>2026-03-22T10:34:21Z</time></trkpt><trkpt lat="43.288165976513746" lon="2.441448861240693"><ele>146.0</ele><time>2026-03-22T10:34:22Z</time></trkpt><trkpt lat="43.28827790158218" lon="2.4415318387886207"><ele>146.0</ele><time>2026-03-22T10:34:23Z</time></trkpt><trkpt lat="43.28837661376" lon="2.4416182637479795"><ele>146.2</ele><time>2026-03-22T10:34:24Z</time></trkpt><trkpt lat="43.28845833888694" lon="2.441715549230385"><ele>146.39999999999998</ele><time>2026-03-22T10:34:25Z</time></trkpt><trkpt lat="43.28855073720363" lon="2.4417941408406"><ele>146.6</ele><time>2026-03-22T10:34:26Z</time></trkpt><trkpt lat="43.288645722555145" lon="2.441873113444475"><ele>146.79999999999998</ele><time>2026-03-22T10:34:27Z</time></trkpt><trkpt lat="43.28874251912058" lon="2.4419340038106307"><ele>147.0</ele><time>2026-03-22T10:34:28Z</time></trkpt><trkpt lat="43.28882621377497" lon="2.4420177336290125"><ele>147.0</ele><time>2026-03-22T10:34:29Z</time></trkpt><trkpt lat="43.28890953236048" lon="2.442106012199429"><ele>147.0</ele><time>2026-03-22T10:34:30Z</time></trkpt><trkpt lat="43.28899028750292" lon="2.442202538449685"><ele>147.0</ele><time>2026-03-22T10:34:31Z</time></trkpt><trkpt lat="43.28907318617645" lon="2.442309596559582"><ele>147.0</ele><time>2026-03-22T10:34:32Z</time></trkpt><trkpt lat="43.289150903939735" lon="2.4424231297948964"><ele>147.0</ele><time>2026-03-22T10:34:33Z</time></trkpt><trkpt lat="43.28924118090057" lon="2.442568024773417"><ele>147.0</ele><time>2026-03-22T10:34:34Z</time></trkpt><trkpt lat="43.289337356627506" lon="2.4427261178638786"><ele>147.0</ele><time>2026-03-22T10:34:35Z</time></trkpt><trkpt lat="43.289409996575614" lon="2.4428657929599837"><ele>147.0</ele><time>2026-03-22T10:34:36Z</time></trkpt><trkpt lat="43.289473045544625" lon="2.442997719108255"><ele>147.0</ele><time>2026-03-22T10:34:37Z</time></trkpt><trkpt lat="43.28954223920879" lon="2.4431350040660624"><ele>147.0</ele><time>2026-03-22T10:34:38Z</time></trkpt><trkpt lat="43.28961966459294" lon="2.4432830717662237"><ele>147.0</ele><time>2026-03-22T10:34:39Z</time></trkpt><trkpt lat="43.289688495006764" lon="2.44342959648091"><ele>147.0</ele><time>2026-03-22T10:34:40Z</time></trkpt><trkpt lat="43.28976323519002" lon="2.443574070501381"><ele>147.0</ele><time>2026-03-22T10:34:41Z</time></trkpt><trkpt lat="43.289836107632446" lon="2.443720393884444"><ele>147.0</ele><time>2026-03-22T10:34:42Z</time></trkpt><trkpt lat="43.28990886815881" lon="2.4438436211872325"><ele>147.0</ele><time>2026-03-22T10:34:43Z</time></trkpt><trkpt lat="43.289972112750974" lon="2.4439635511304543"><ele>147.0</ele><time>2026-03-22T10:34:44Z</time></trkpt><trkpt lat="43.29004121590282" lon="2.444089928425287"><ele>147.0</ele><time>2026-03-22T10:34:45Z</time></trkpt><trkpt lat="43.29010379568046" lon="2.444221950291298"><ele>147.0</ele><time>2026-03-22T10:34:46Z</time></trkpt><trkpt lat="43.290160708776995" lon="2.4443333919263965"><ele>147.0</ele><time>2026-03-22T10:34:47Z</time></trkpt><trkpt lat="43.29022015207267" lon="2.4444525821543466"><ele>147.0</ele><time>2026-03-22T10:34:48Z</time></trkpt><trkpt lat="43.29028024987394" lon="2.444568826610925"><ele>147.0</ele><time>2026-03-22T10:34:49Z</time></trkpt><trkpt lat="43.29033851341658" lon="2.4446940981077607"><ele>147.0</ele><time>2026-03-22T10:34:50Z</time></trkpt><trkpt lat="43.29038249994747" lon="2.4448199361972462"><ele>147.2</ele><time>2026-03-22T10:34:51Z</time></trkpt><trkpt lat="43.29039977387229" lon="2.4449583930668655"><ele>147.39999999999998</ele><time>2026-03-22T10:34:52Z</time></trkpt><trkpt lat="43.29040939950464" lon="2.4451034990416494"><ele>147.60000000000002</ele><time>2026-03-22T10:34:53Z</time></trkpt><trkpt lat="43.29045906991715" lon="2.445221317954834"><ele>147.8</ele><time>2026-03-22T10:34:54Z</time></trkpt><trkpt lat="43.29057828473145" lon="2.445287395125756"><ele>148.0</ele><time>2026-03-22T10:34:55Z</time></trkpt><trkpt lat="43.29068163480791" lon="2.445383501150804"><ele>148.33333333333334</ele><time>2026-03-22T10:34:56Z</time></trkpt><trkpt lat="43.290753507634896" lon="2.4455477407461967"><ele>148.66666666666666</ele><time>2026-03-22T10:34:57Z</time></trkpt><trkpt lat="43.29086684159982" lon="2.4457325799455054"><ele>149.0</ele><time>2026-03-22T10:34:58Z</time></trkpt><trkpt lat="43.29094824031135" lon="2.4459031437520617"><ele>149.0</ele><time>2026-03-22T10:34:59Z</time></trkpt><trkpt lat="43.29102645907249" lon="2.4460446035331427"><ele>149.0</ele><time>2026-03-22T10:35:00Z</time></trkpt><trkpt lat="43.291106351906265" lon="2.44619937252943"><ele>149.0</ele><time>2026-03-22T10:35:01Z</time></trkpt><trkpt lat="43.29119343130553" lon="2.4463701784974856"><ele>149.0</ele><time>2026-03-22T10:35:02Z</time></trkpt><trkpt lat="43.291288570533425" lon="2.4465524622008874"><ele>149.0</ele><time>2026-03-22T10:35:03Z</time></trkpt><trkpt lat="43.291385193588496" lon="2.446746267187446"><ele>149.0</ele><time>2026-03-22T10:35:04Z</time></trkpt><trkpt lat="43.29147778345982" lon="2.4469213084723123"><ele>149.0</ele><time>2026-03-22T10:35:05Z</time></trkpt><trkpt lat="43.29157676906052" lon="2.447115684750869"><ele>149.66666666666666</ele><time>2026-03-22T10:35:06Z</time></trkpt><trkpt lat="43.29168229352992" lon="2.4473214803903427"><ele>150.33333333333334</ele><time>2026-03-22T10:35:07Z</time></trkpt><trkpt lat="43.29179111780277" lon="2.4475259679452956"><ele>151.0</ele><time>2026-03-22T10:35:07.999Z</time></trkpt><trkpt lat="43.29188454773434" lon="2.447746086277962"><ele>151.0</ele><time>2026-03-22T10:35:08.999Z</time></trkpt><trkpt lat="43.29199454493623" lon="2.4479591773280123"><ele>151.0</ele><time>2026-03-22T10:35:09.999Z</time></trkpt><trkpt lat="43.29210822860194" lon="2.4481793406369947"><ele>151.0</ele><time>2026-03-22T10:35:10.999Z</time></trkpt><trkpt lat="43.29223027038197" lon="2.4484156905330337"><ele>151.5</ele><time>2026-03-22T10:35:11.999Z</time></trkpt><trkpt lat="43.292370359178825" lon="2.448688153899178"><ele>152.0</ele><time>2026-03-22T10:35:12.999Z</time></trkpt><trkpt lat="43.29250320513598" lon="2.448946609629743"><ele>152.66666666666666</ele><time>2026-03-22T10:35:13.999Z</time></trkpt><trkpt lat="43.29263425100273" lon="2.4491643430176233"><ele>153.33333333333334</ele><time>2026-03-22T10:35:14.999Z</time></trkpt><trkpt lat="43.29273614282296" lon="2.44939979691246"><ele>154.0</ele><time>2026-03-22T10:35:15.999Z</time></trkpt><trkpt lat="43.292846613576266" lon="2.4496147210262076"><ele>154.0</ele><time>2026-03-22T10:35:16.999Z</time></trkpt><trkpt lat="43.292971528059155" lon="2.449822569940533"><ele>154.0</ele><time>2026-03-22T10:35:17.999Z</time></trkpt><trkpt lat="43.29308314963057" lon="2.450034331675891"><ele>154.0</ele><time>2026-03-22T10:35:18.999Z</time></trkpt><trkpt lat="43.293174532333786" lon="2.450248113213417"><ele>154.66666666666669</ele><time>2026-03-22T10:35:19.999Z</time></trkpt><trkpt lat="43.29327313188855" lon="2.450438501606839"><ele>155.33333333333334</ele><time>2026-03-22T10:35:20.999Z</time></trkpt><trkpt lat="43.29337176214844" lon="2.4506291268562737"><ele>156.0</ele><time>2026-03-22T10:35:21.999Z</time></trkpt><trkpt lat="43.29348950229371" lon="2.4508210385308224"><ele>156.33333333333334</ele><time>2026-03-22T10:35:22.999Z</time></trkpt><trkpt lat="43.29359529139073" lon="2.4510376660543165"><ele>156.66666666666669</ele><time>2026-03-22T10:35:23.999Z</time></trkpt><trkpt lat="43.29370897202003" lon="2.4512565884202435"><ele>157.0</ele><time>2026-03-22T10:35:24.999Z</time></trkpt><trkpt lat="43.293831775646424" lon="2.4514906591913768"><ele>157.33333333333334</ele><time>2026-03-22T10:35:25.999Z</time></trkpt><trkpt lat="43.29394826233221" lon="2.4517270372259494"><ele>157.66666666666666</ele><time>2026-03-22T10:35:26.999Z</time></trkpt><trkpt lat="43.29406398897083" lon="2.4519498971843"><ele>158.0</ele><time>2026-03-22T10:35:27.999Z</time></trkpt><trkpt lat="43.29416860543143" lon="2.4521829776663484"><ele>158.0</ele><time>2026-03-22T10:35:29Z</time></trkpt><trkpt lat="43.29428559429467" lon="2.4524105222664954"><ele>158.0</ele><time>2026-03-22T10:35:30Z</time></trkpt><trkpt lat="43.29440187284539" lon="2.452636205220478"><ele>158.0</ele><time>2026-03-22T10:35:31Z</time></trkpt><trkpt lat="43.294519644475685" lon="2.452864708490441"><ele>157.66666666666666</ele><time>2026-03-22T10:35:32Z</time></trkpt><trkpt lat="43.29464132403614" lon="2.4531007940307963"><ele>157.33333333333334</ele><time>2026-03-22T10:35:33Z</time></trkpt><trkpt lat="43.294761010014646" lon="2.45333301384872"><ele>157.0</ele><time>2026-03-22T10:35:34Z</time></trkpt><trkpt lat="43.29488153495426" lon="2.4535658948867987"><ele>157.66666666666669</ele><time>2026-03-22T10:35:35Z</time></trkpt><trkpt lat="43.295001897751234" lon="2.4537986080514522"><ele>158.33333333333334</ele><time>2026-03-22T10:35:36Z</time></trkpt><trkpt lat="43.29512477436295" lon="2.4540361814462885"><ele>159.0</ele><time>2026-03-22T10:35:37Z</time></trkpt><trkpt lat="43.295248407761754" lon="2.4542752180692853"><ele>159.0</ele><time>2026-03-22T10:35:38Z</time></trkpt><trkpt lat="43.29537011696335" lon="2.454510534315724"><ele>159.0</ele><time>2026-03-22T10:35:39Z</time></trkpt><trkpt lat="43.29548981269198" lon="2.4547419576830847"><ele>159.0</ele><time>2026-03-22T10:35:40Z</time></trkpt><trkpt lat="43.29561009827104" lon="2.4549745216367356"><ele>159.66666666666666</ele><time>2026-03-22T10:35:41Z</time></trkpt><trkpt lat="43.29573302083628" lon="2.455212183902248"><ele>160.33333333333331</ele><time>2026-03-22T10:35:42Z</time></trkpt><trkpt lat="43.29585267462534" lon="2.4554467646870712"><ele>161.0</ele><time>2026-03-22T10:35:43Z</time></trkpt><trkpt lat="43.29597402093002" lon="2.4556845162796073"><ele>161.0</ele><time>2026-03-22T10:35:44Z</time></trkpt><trkpt lat="43.29609489245684" lon="2.455918877625417"><ele>161.0</ele><time>2026-03-22T10:35:45Z</time></trkpt><trkpt lat="43.29621718864573" lon="2.456154341888072"><ele>161.0</ele><time>2026-03-22T10:35:46Z</time></trkpt><trkpt lat="43.296338841558885" lon="2.4563885676757837"><ele>161.66666666666666</ele><time>2026-03-22T10:35:47Z</time></trkpt><trkpt lat="43.29645897872051" lon="2.456620205081461"><ele>162.33333333333334</ele><time>2026-03-22T10:35:48Z</time></trkpt><trkpt lat="43.29657684928418" lon="2.456848574913046"><ele>163.0</ele><time>2026-03-22T10:35:49Z</time></trkpt><trkpt lat="43.29669042814995" lon="2.4570686298738957"><ele>163.0</ele><time>2026-03-22T10:35:50Z</time></trkpt><trkpt lat="43.296800299672284" lon="2.457281502057238"><ele>163.0</ele><time>2026-03-22T10:35:51Z</time></trkpt><trkpt lat="43.29691124723196" lon="2.4574964589793864"><ele>163.0</ele><time>2026-03-22T10:35:52Z</time></trkpt><trkpt lat="43.297020440637645" lon="2.4577103161546225"><ele>163.0</ele><time>2026-03-22T10:35:53Z</time></trkpt><trkpt lat="43.29712941213582" lon="2.457925156916799"><ele>163.0</ele><time>2026-03-22T10:35:54Z</time></trkpt><trkpt lat="43.297240776532625" lon="2.4581404183548785"><ele>163.0</ele><time>2026-03-22T10:35:55Z</time></trkpt><trkpt lat="43.29735418113375" lon="2.458355816919863"><ele>164.0</ele><time>2026-03-22T10:35:56Z</time></trkpt><trkpt lat="43.297463014723334" lon="2.458561726565103"><ele>165.0</ele><time>2026-03-22T10:35:57Z</time></trkpt><trkpt lat="43.29757233319642" lon="2.458768641582573"><ele>166.0</ele><time>2026-03-22T10:35:58Z</time></trkpt><trkpt lat="43.29768388525852" lon="2.4589819873423164"><ele>166.0</ele><time>2026-03-22T10:35:59Z</time></trkpt><trkpt lat="43.297797844904174" lon="2.459195519724362"><ele>166.0</ele><time>2026-03-22T10:36:00Z</time></trkpt><trkpt lat="43.297916853454154" lon="2.4594044363962664"><ele>166.0</ele><time>2026-03-22T10:36:01Z</time></trkpt><trkpt lat="43.29803767690134" lon="2.4596087373885434"><ele>166.33333333333334</ele><time>2026-03-22T10:36:02Z</time></trkpt><trkpt lat="43.298160003560746" lon="2.459814466393173"><ele>166.66666666666666</ele><time>2026-03-22T10:36:03Z</time></trkpt><trkpt lat="43.298277827907086" lon="2.4600126155616513"><ele>167.0</ele><time>2026-03-22T10:36:04Z</time></trkpt><trkpt lat="43.2983948100306" lon="2.4602093470998416"><ele>167.0</ele><time>2026-03-22T10:36:05Z</time></trkpt><trkpt lat="43.298525533072265" lon="2.460394544449408"><ele>167.0</ele><time>2026-03-22T10:36:06Z</time></trkpt><trkpt lat="43.298645397910015" lon="2.4605956744008246"><ele>167.0</ele><time>2026-03-22T10:36:07Z</time></trkpt><trkpt lat="43.29876394308047" lon="2.4607954775202012"><ele>167.0</ele><time>2026-03-22T10:36:08Z</time></trkpt><trkpt lat="43.298882855718276" lon="2.4609933084066267"><ele>167.0</ele><time>2026-03-22T10:36:09Z</time></trkpt><trkpt lat="43.29900217807873" lon="2.4611949508233484"><ele>167.0</ele><time>2026-03-22T10:36:10Z</time></trkpt><trkpt lat="43.29912251548262" lon="2.4613928451875062"><ele>167.66666666666666</ele><time>2026-03-22T10:36:11Z</time></trkpt><trkpt lat="43.29924058888092" lon="2.461586449610409"><ele>168.33333333333334</ele><time>2026-03-22T10:36:12Z</time></trkpt><trkpt lat="43.299356436940165" lon="2.461777243045939"><ele>169.0</ele><time>2026-03-22T10:36:13Z</time></trkpt><trkpt lat="43.29946177966862" lon="2.46195356733268"><ele>169.0</ele><time>2026-03-22T10:36:14Z</time></trkpt><trkpt lat="43.29956718727938" lon="2.4621290631599044"><ele>169.0</ele><time>2026-03-22T10:36:15Z</time></trkpt><trkpt lat="43.29967317721013" lon="2.462300923987754"><ele>169.0</ele><time>2026-03-22T10:36:16Z</time></trkpt><trkpt lat="43.29977594618919" lon="2.4624697026794906"><ele>169.0</ele><time>2026-03-22T10:36:17Z</time></trkpt><trkpt lat="43.29986869145139" lon="2.462631764485388"><ele>169.0</ele><time>2026-03-22T10:36:18Z</time></trkpt><trkpt lat="43.29994802538647" lon="2.4627969940343717"><ele>169.0</ele><time>2026-03-22T10:36:19Z</time></trkpt><trkpt lat="43.30001325897036" lon="2.462974701546155"><ele>169.0</ele><time>2026-03-22T10:36:20Z</time></trkpt><trkpt lat="43.300058547306236" lon="2.4631633879059636"><ele>169.0</ele><time>2026-03-22T10:36:21Z</time></trkpt><trkpt lat="43.30008349354694" lon="2.463359461405925"><ele>169.0</ele><time>2026-03-22T10:36:22Z</time></trkpt><trkpt lat="43.30010615825412" lon="2.463568151718308"><ele>169.0</ele><time>2026-03-22T10:36:23Z</time></trkpt><trkpt lat="43.30013748680126" lon="2.463773385922519"><ele>169.66666666666669</ele><time>2026-03-22T10:36:24Z</time></trkpt><trkpt lat="43.300169982117026" lon="2.4639820343564645"><ele>170.33333333333334</ele><time>2026-03-22T10:36:25Z</time></trkpt><trkpt lat="43.30020928056521" lon="2.4641909686438854"><ele>171.0</ele><time>2026-03-22T10:36:26Z</time></trkpt><trkpt lat="43.300249048698" lon="2.4643962845919662"><ele>171.0</ele><time>2026-03-22T10:36:27Z</time></trkpt><trkpt lat="43.30030545739437" lon="2.4645826380853135"><ele>171.0</ele><time>2026-03-22T10:36:28Z</time></trkpt><trkpt lat="43.30037807989902" lon="2.4647609703228057"><ele>171.0</ele><time>2026-03-22T10:36:29Z</time></trkpt><trkpt lat="43.300441482810335" lon="2.4649344643202995"><ele>171.0</ele><time>2026-03-22T10:36:30Z</time></trkpt><trkpt lat="43.30050283570206" lon="2.465100660375683"><ele>171.5</ele><time>2026-03-22T10:36:31Z</time></trkpt><trkpt lat="43.30055824592928" lon="2.4652473041783365"><ele>172.0</ele><time>2026-03-22T10:36:32Z</time></trkpt><trkpt lat="43.30061512664881" lon="2.465399601394159"><ele>172.5</ele><time>2026-03-22T10:36:33Z</time></trkpt><trkpt lat="43.30067693873248" lon="2.4655645114957885"><ele>173.0</ele><time>2026-03-22T10:36:34Z</time></trkpt><trkpt lat="43.300738032570514" lon="2.465728956263767"><ele>174.75</ele><time>2026-03-22T10:36:35Z</time></trkpt><trkpt lat="43.30079750274295" lon="2.465891921683905"><ele>176.5</ele><time>2026-03-22T10:36:36Z</time></trkpt><trkpt lat="43.30085804962847" lon="2.46606151345338"><ele>178.25</ele><time>2026-03-22T10:36:37Z</time></trkpt><trkpt lat="43.30091537641457" lon="2.4662319738127287"><ele>180.0</ele><time>2026-03-22T10:36:38Z</time></trkpt><trkpt lat="43.300978135287444" lon="2.4664129273284403"><ele>180.0</ele><time>2026-03-22T10:36:39Z</time></trkpt><trkpt lat="43.30104586009722" lon="2.4665944685889998"><ele>180.0</ele><time>2026-03-22T10:36:40Z</time></trkpt><trkpt lat="43.30111999481762" lon="2.466786855134954"><ele>180.0</ele><time>2026-03-22T10:36:41Z</time></trkpt><trkpt lat="43.301195665896614" lon="2.46699649001501"><ele>180.0</ele><time>2026-03-22T10:36:42Z</time></trkpt><trkpt lat="43.30127721063145" lon="2.4672217452946996"><ele>180.0</ele><time>2026-03-22T10:36:43Z</time></trkpt><trkpt lat="43.30136476579363" lon="2.4674731281389244"><ele>180.0</ele><time>2026-03-22T10:36:44Z</time></trkpt><trkpt lat="43.3014581615055" lon="2.467735430492246"><ele>179.66666666666666</ele><time>2026-03-22T10:36:45Z</time></trkpt><trkpt lat="43.30155834391916" lon="2.4680040543918422"><ele>179.33333333333331</ele><time>2026-03-22T10:36:46Z</time></trkpt><trkpt lat="43.30166076622513" lon="2.4682703643784345"><ele>179.0</ele><time>2026-03-22T10:36:47Z</time></trkpt><trkpt lat="43.30176365206952" lon="2.4685634172002464"><ele>179.5</ele><time>2026-03-22T10:36:48Z</time></trkpt><trkpt lat="43.301877321019155" lon="2.4689025166006173"><ele>180.0</ele><time>2026-03-22T10:36:49Z</time></trkpt><trkpt lat="43.3020103938872" lon="2.469252303212402"><ele>180.5</ele><time>2026-03-22T10:36:50Z</time></trkpt><trkpt lat="43.30216522285375" lon="2.4696185214367827"><ele>181.0</ele><time>2026-03-22T10:36:51Z</time></trkpt><trkpt lat="43.30231198668176" lon="2.470005479250476"><ele>181.0</ele><time>2026-03-22T10:36:52Z</time></trkpt><trkpt lat="43.30245652195121" lon="2.4704068449185397"><ele>181.0</ele><time>2026-03-22T10:36:53Z</time></trkpt><trkpt lat="43.3026013669493" lon="2.4708117181710776"><ele>181.0</ele><time>2026-03-22T10:36:54Z</time></trkpt><trkpt lat="43.30275296056507" lon="2.471227773993804"><ele>181.0</ele><time>2026-03-22T10:36:55Z</time></trkpt><trkpt lat="43.30290737723919" lon="2.4716548195158317"><ele>181.5</ele><time>2026-03-22T10:36:56Z</time></trkpt><trkpt lat="43.30305948019765" lon="2.4720945932882836"><ele>182.0</ele><time>2026-03-22T10:36:57Z</time></trkpt><trkpt lat="43.303216652233054" lon="2.472536957246172"><ele>185.5</ele><time>2026-03-22T10:36:58Z</time></trkpt><trkpt lat="43.30336080299834" lon="2.472952046327646"><ele>189.0</ele><time>2026-03-22T10:36:59Z</time></trkpt><trkpt lat="43.30349052098367" lon="2.473340692192264"><ele>189.0</ele><time>2026-03-22T10:37:00Z</time></trkpt><trkpt lat="43.303604948111264" lon="2.4737070562935677"><ele>189.0</ele><time>2026-03-22T10:37:01Z</time></trkpt><trkpt lat="43.30372244413756" lon="2.474043864027979"><ele>186.5</ele><time>2026-03-22T10:37:02Z</time></trkpt><trkpt lat="43.30383811619894" lon="2.4743605059010285"><ele>184.0</ele><time>2026-03-22T10:37:03Z</time></trkpt><trkpt lat="43.30394701953714" lon="2.47466205776605"><ele>184.0</ele><time>2026-03-22T10:37:04Z</time></trkpt><trkpt lat="43.30405883440848" lon="2.4749695702036054"><ele>184.0</ele><time>2026-03-22T10:37:05Z</time></trkpt><trkpt lat="43.30417520673049" lon="2.4752890246975783"><ele>185.0</ele><time>2026-03-22T10:37:06Z</time></trkpt><trkpt lat="43.304291884558126" lon="2.4756106688798325"><ele>186.0</ele><time>2026-03-22T10:37:07Z</time></trkpt><trkpt lat="43.30440582623813" lon="2.4759352509209265"><ele>186.0</ele><time>2026-03-22T10:37:08Z</time></trkpt><trkpt lat="43.30450581080043" lon="2.4762659227793997"><ele>186.0</ele><time>2026-03-22T10:37:09Z</time></trkpt><trkpt lat="43.304616173823774" lon="2.4765804892706695"><ele>186.0</ele><time>2026-03-22T10:37:10Z</time></trkpt><trkpt lat="43.30472697505193" lon="2.47688512157002"><ele>186.0</ele><time>2026-03-22T10:37:11Z</time></trkpt><trkpt lat="43.3048318853768" lon="2.477169380970373"><ele>186.0</ele><time>2026-03-22T10:37:12Z</time></trkpt><trkpt lat="43.30493544902301" lon="2.4774563953808086"><ele>186.0</ele><time>2026-03-22T10:37:13Z</time></trkpt><trkpt lat="43.30505053284665" lon="2.477730003648554"><ele>186.0</ele><time>2026-03-22T10:37:14Z</time></trkpt><trkpt lat="43.305148584461776" lon="2.478013954260824"><ele>186.0</ele><time>2026-03-22T10:37:15Z</time></trkpt><trkpt lat="43.305248398617735" lon="2.478299733699586"><ele>186.0</ele><time>2026-03-22T10:37:16Z</time></trkpt><trkpt lat="43.30535791702925" lon="2.478586524358793"><ele>186.0</ele><time>2026-03-22T10:37:17Z</time></trkpt><trkpt lat="43.305452162927665" lon="2.4788939586685634"><ele>185.5</ele><time>2026-03-22T10:37:18Z</time></trkpt><trkpt lat="43.305577711637454" lon="2.479190990532135"><ele>185.0</ele><time>2026-03-22T10:37:19Z</time></trkpt><trkpt lat="43.305686363121076" lon="2.4795011680610246"><ele>183.5</ele><time>2026-03-22T10:37:19.999Z</time></trkpt><trkpt lat="43.30579732181818" lon="2.4798210431917633"><ele>182.0</ele><time>2026-03-22T10:37:20.999Z</time></trkpt><trkpt lat="43.3059121480754" lon="2.4801381208863402"><ele>181.5</ele><time>2026-03-22T10:37:21.999Z</time></trkpt><trkpt lat="43.30602910701717" lon="2.480456463954029"><ele>181.0</ele><time>2026-03-22T10:37:22.999Z</time></trkpt><trkpt lat="43.30614522114189" lon="2.4807745997955526"><ele>181.0</ele><time>2026-03-22T10:37:23.999Z</time></trkpt><trkpt lat="43.3062576900669" lon="2.481110213467829"><ele>181.0</ele><time>2026-03-22T10:37:24.999Z</time></trkpt><trkpt lat="43.306386534498124" lon="2.481461143426849"><ele>182.5</ele><time>2026-03-22T10:37:25.999Z</time></trkpt><trkpt lat="43.30652079227613" lon="2.481791971017862"><ele>184.0</ele><time>2026-03-22T10:37:26.999Z</time></trkpt><trkpt lat="43.30664113170464" lon="2.4821375985300715"><ele>184.0</ele><time>2026-03-22T10:37:27.999Z</time></trkpt><trkpt lat="43.30676234365842" lon="2.482476191518202"><ele>184.0</ele><time>2026-03-22T10:37:28.999Z</time></trkpt><trkpt lat="43.30687217299612" lon="2.482790360962194"><ele>182.5</ele><time>2026-03-22T10:37:29.999Z</time></trkpt><trkpt lat="43.30697986205444" lon="2.4830799137105006"><ele>181.0</ele><time>2026-03-22T10:37:30.999Z</time></trkpt><trkpt lat="43.30709040387818" lon="2.483371072372072"><ele>181.0</ele><time>2026-03-22T10:37:31.999Z</time></trkpt><trkpt lat="43.30719397008388" lon="2.4836713172763454"><ele>181.0</ele><time>2026-03-22T10:37:32.999Z</time></trkpt><trkpt lat="43.3072959363298" lon="2.483953908650943"><ele>183.0</ele><time>2026-03-22T10:37:33.999Z</time></trkpt><trkpt lat="43.30739313907909" lon="2.4842364473870835"><ele>185.0</ele><time>2026-03-22T10:37:35Z</time></trkpt><trkpt lat="43.30749444281461" lon="2.4845206573154868"><ele>184.5</ele><time>2026-03-22T10:37:36Z</time></trkpt><trkpt lat="43.30759689121805" lon="2.484805654481441"><ele>184.0</ele><time>2026-03-22T10:37:37Z</time></trkpt><trkpt lat="43.30770217627964" lon="2.4850927478269718"><ele>184.0</ele><time>2026-03-22T10:37:38Z</time></trkpt><trkpt lat="43.30780954960094" lon="2.485382693175026"><ele>184.0</ele><time>2026-03-22T10:37:39Z</time></trkpt><trkpt lat="43.30791257271723" lon="2.4856750078559133"><ele>184.0</ele><time>2026-03-22T10:37:40Z</time></trkpt><trkpt lat="43.30802073770319" lon="2.485971344807749"><ele>184.0</ele><time>2026-03-22T10:37:41Z</time></trkpt><trkpt lat="43.308130925098574" lon="2.486270022087277"><ele>184.0</ele><time>2026-03-22T10:37:42Z</time></trkpt><trkpt lat="43.30824178508241" lon="2.4865750673778177"><ele>184.0</ele><time>2026-03-22T10:37:43Z</time></trkpt><trkpt lat="43.30835424370471" lon="2.486888078215946"><ele>183.5</ele><time>2026-03-22T10:37:44Z</time></trkpt><trkpt lat="43.308469277754654" lon="2.4872024184553463"><ele>183.0</ele><time>2026-03-22T10:37:45Z</time></trkpt><trkpt lat="43.30858393734951" lon="2.4875111702771737"><ele>183.0</ele><time>2026-03-22T10:37:46Z</time></trkpt><trkpt lat="43.30869343435426" lon="2.4878003239969315"><ele>183.0</ele><time>2026-03-22T10:37:47Z</time></trkpt><trkpt lat="43.30879662493617" lon="2.488073201868126"><ele>182.66666666666666</ele><time>2026-03-22T10:37:48Z</time></trkpt><trkpt lat="43.30888874300909" lon="2.488337156167242"><ele>182.33333333333331</ele><time>2026-03-22T10:37:49Z</time></trkpt><trkpt lat="43.3089792918908" lon="2.4885981004509112"><ele>182.0</ele><time>2026-03-22T10:37:50Z</time></trkpt><trkpt lat="43.309069355254024" lon="2.488859891424545"><ele>182.66666666666666</ele><time>2026-03-22T10:37:51Z</time></trkpt><trkpt lat="43.309157992013816" lon="2.489108731164324"><ele>183.33333333333334</ele><time>2026-03-22T10:37:52Z</time></trkpt><trkpt lat="43.30924631386885" lon="2.4893527213424664"><ele>184.0</ele><time>2026-03-22T10:37:53Z</time></trkpt><trkpt lat="43.30933276948648" lon="2.489595122951321"><ele>184.0</ele><time>2026-03-22T10:37:54Z</time></trkpt><trkpt lat="43.309415325154944" lon="2.4898206605292774"><ele>184.0</ele><time>2026-03-22T10:37:55Z</time></trkpt><trkpt lat="43.30949363663097" lon="2.490039692830065"><ele>184.0</ele><time>2026-03-22T10:37:56Z</time></trkpt><trkpt lat="43.309570213302244" lon="2.4902569006829562"><ele>184.0</ele><time>2026-03-22T10:37:57Z</time></trkpt><trkpt lat="43.309647432350914" lon="2.490463160952661"><ele>184.0</ele><time>2026-03-22T10:37:58Z</time></trkpt><trkpt lat="43.30970309021433" lon="2.490666928090886"><ele>184.0</ele><time>2026-03-22T10:37:59Z</time></trkpt><trkpt lat="43.30979729958538" lon="2.4908455463626367"><ele>185.0</ele><time>2026-03-22T10:38:00Z</time></trkpt><trkpt lat="43.30986057581905" lon="2.491026901321377"><ele>186.0</ele><time>2026-03-22T10:38:01Z</time></trkpt><trkpt lat="43.30992075130475" lon="2.491195403074201"><ele>187.0</ele><time>2026-03-22T10:38:02Z</time></trkpt><trkpt lat="43.309972832816314" lon="2.4913442894506668"><ele>188.0</ele><time>2026-03-22T10:38:03Z</time></trkpt><trkpt lat="43.310008100681934" lon="2.4914836103705533"><ele>188.0</ele><time>2026-03-22T10:38:04Z</time></trkpt><trkpt lat="43.31003406939216" lon="2.491619674013447"><ele>188.0</ele><time>2026-03-22T10:38:05Z</time></trkpt><trkpt lat="43.310022328353014" lon="2.4917656579603307"><ele>188.0</ele><time>2026-03-22T10:38:06Z</time></trkpt><trkpt lat="43.30999722582973" lon="2.491894727090384"><ele>188.0</ele><time>2026-03-22T10:38:07Z</time></trkpt><trkpt lat="43.30993970929966" lon="2.492006639806304"><ele>188.0</ele><time>2026-03-22T10:38:08Z</time></trkpt><trkpt lat="43.30982628307372" lon="2.492060956884773"><ele>187.0</ele><time>2026-03-22T10:38:09Z</time></trkpt><trkpt lat="43.309703026795496" lon="2.49216158999956"><ele>186.0</ele><time>2026-03-22T10:38:10Z</time></trkpt><trkpt lat="43.30954034634698" lon="2.492294411119458"><ele>185.0</ele><time>2026-03-22T10:38:11Z</time></trkpt><trkpt lat="43.309400062979094" lon="2.4924151106443135"><ele>185.0</ele><time>2026-03-22T10:38:12Z</time></trkpt><trkpt lat="43.30924912122588" lon="2.4925453054394793"><ele>185.0</ele><time>2026-03-22T10:38:13Z</time></trkpt><trkpt lat="43.309076425785626" lon="2.492692500389684"><ele>185.0</ele><time>2026-03-22T10:38:14Z</time></trkpt><trkpt lat="43.30892787598245" lon="2.492818157413838"><ele>184.33333333333331</ele><time>2026-03-22T10:38:15Z</time></trkpt><trkpt lat="43.308786327942656" lon="2.4929378916894187"><ele>183.66666666666666</ele><time>2026-03-22T10:38:16Z</time></trkpt><trkpt lat="43.308641316161406" lon="2.493060555953278"><ele>183.0</ele><time>2026-03-22T10:38:17Z</time></trkpt><trkpt lat="43.3084982145664" lon="2.4931816049143913"><ele>183.0</ele><time>2026-03-22T10:38:18Z</time></trkpt><trkpt lat="43.30836575862874" lon="2.4932936489922746"><ele>183.0</ele><time>2026-03-22T10:38:19Z</time></trkpt><trkpt lat="43.30823083528905" lon="2.4934077802356254"><ele>183.0</ele><time>2026-03-22T10:38:20Z</time></trkpt><trkpt lat="43.30808968637417" lon="2.493527177693294"><ele>182.33333333333334</ele><time>2026-03-22T10:38:21Z</time></trkpt><trkpt lat="43.307957075371085" lon="2.493684080639164"><ele>181.66666666666669</ele><time>2026-03-22T10:38:22Z</time></trkpt><trkpt lat="43.30781278491297" lon="2.4938078219422977"><ele>181.0</ele><time>2026-03-22T10:38:23Z</time></trkpt><trkpt lat="43.307665581465976" lon="2.4939393543079946"><ele>180.66666666666669</ele><time>2026-03-22T10:38:24Z</time></trkpt><trkpt lat="43.30751505764561" lon="2.4940684317721984"><ele>180.33333333333334</ele><time>2026-03-22T10:38:25Z</time></trkpt><trkpt lat="43.307357367657616" lon="2.4941995526668665"><ele>180.0</ele><time>2026-03-22T10:38:26Z</time></trkpt><trkpt lat="43.307189011381766" lon="2.4943419217306944"><ele>180.0</ele><time>2026-03-22T10:38:27Z</time></trkpt><trkpt lat="43.306988164656424" lon="2.494514031133701"><ele>180.0</ele><time>2026-03-22T10:38:28Z</time></trkpt><trkpt lat="43.30677457631281" lon="2.4946916085216717"><ele>179.5</ele><time>2026-03-22T10:38:29Z</time></trkpt><trkpt lat="43.30654338177394" lon="2.4948842697181917"><ele>179.0</ele><time>2026-03-22T10:38:30Z</time></trkpt><trkpt lat="43.306336958876905" lon="2.4950592136364613"><ele>178.33333333333331</ele><time>2026-03-22T10:38:31Z</time></trkpt><trkpt lat="43.30615562468731" lon="2.4952123713791963"><ele>177.66666666666666</ele><time>2026-03-22T10:38:32Z</time></trkpt><trkpt lat="43.30598270645453" lon="2.4953613669844934"><ele>177.0</ele><time>2026-03-22T10:38:33Z</time></trkpt><trkpt lat="43.30580603748206" lon="2.4955110158839906"><ele>177.0</ele><time>2026-03-22T10:38:34Z</time></trkpt><trkpt lat="43.305616124516945" lon="2.4956668403747204"><ele>177.0</ele><time>2026-03-22T10:38:35Z</time></trkpt><trkpt lat="43.30542055138852" lon="2.4958257415746012"><ele>177.0</ele><time>2026-03-22T10:38:36Z</time></trkpt><trkpt lat="43.30523602410225" lon="2.4959776750547173"><ele>177.0</ele><time>2026-03-22T10:38:37Z</time></trkpt><trkpt lat="43.30505683984199" lon="2.4961296163320705"><ele>177.0</ele><time>2026-03-22T10:38:38Z</time></trkpt><trkpt lat="43.3048804971779" lon="2.496279483077721"><ele>177.0</ele><time>2026-03-22T10:38:39Z</time></trkpt><trkpt lat="43.304707894167166" lon="2.4964236029050886"><ele>177.0</ele><time>2026-03-22T10:38:40Z</time></trkpt><trkpt lat="43.30454158751834" lon="2.496562829159289"><ele>177.0</ele><time>2026-03-22T10:38:41Z</time></trkpt><trkpt lat="43.30437473729229" lon="2.4967095593974737"><ele>177.0</ele><time>2026-03-22T10:38:42Z</time></trkpt><trkpt lat="43.30420030939078" lon="2.4968549116618757"><ele>177.0</ele><time>2026-03-22T10:38:43Z</time></trkpt><trkpt lat="43.30402091665989" lon="2.4969946729115193"><ele>177.0</ele><time>2026-03-22T10:38:44Z</time></trkpt><trkpt lat="43.30384710021063" lon="2.4971424261971746"><ele>177.0</ele><time>2026-03-22T10:38:45Z</time></trkpt><trkpt lat="43.3036736589702" lon="2.4972971717097123"><ele>176.33333333333334</ele><time>2026-03-22T10:38:46Z</time></trkpt><trkpt lat="43.303492504707734" lon="2.4974475540049714"><ele>175.66666666666669</ele><time>2026-03-22T10:38:47Z</time></trkpt><trkpt lat="43.30330824799397" lon="2.4975957809924805"><ele>175.0</ele><time>2026-03-22T10:38:48Z</time></trkpt><trkpt lat="43.303130743842345" lon="2.4977456419610737"><ele>175.0</ele><time>2026-03-22T10:38:49Z</time></trkpt><trkpt lat="43.30296755619752" lon="2.4978957282694605"><ele>175.0</ele><time>2026-03-22T10:38:50Z</time></trkpt><trkpt lat="43.302806097465506" lon="2.49806633098201"><ele>175.0</ele><time>2026-03-22T10:38:51Z</time></trkpt><trkpt lat="43.30264546727377" lon="2.4982610421225298"><ele>175.0</ele><time>2026-03-22T10:38:52Z</time></trkpt><trkpt lat="43.30248125263637" lon="2.4984916283264798"><ele>175.0</ele><time>2026-03-22T10:38:53Z</time></trkpt><trkpt lat="43.30233047695995" lon="2.4987447743269264"><ele>175.5</ele><time>2026-03-22T10:38:54Z</time></trkpt><trkpt lat="43.30217710251456" lon="2.499035553350814"><ele>176.0</ele><time>2026-03-22T10:38:55Z</time></trkpt><trkpt lat="43.302015842787526" lon="2.4993493727907916"><ele>175.0</ele><time>2026-03-22T10:38:56Z</time></trkpt><trkpt lat="43.301874403008064" lon="2.499621240589272"><ele>174.0</ele><time>2026-03-22T10:38:57Z</time></trkpt><trkpt lat="43.30173286547309" lon="2.4998702197284093"><ele>174.0</ele><time>2026-03-22T10:38:58Z</time></trkpt><trkpt lat="43.3015991087011" lon="2.5001041819125858"><ele>174.0</ele><time>2026-03-22T10:38:59Z</time></trkpt><trkpt lat="43.30146555573215" lon="2.5003483232303725"><ele>174.0</ele><time>2026-03-22T10:39:00Z</time></trkpt><trkpt lat="43.30131828978825" lon="2.500616850181303"><ele>175.0</ele><time>2026-03-22T10:39:01Z</time></trkpt><trkpt lat="43.30117427104129" lon="2.5008837526208683"><ele>176.0</ele><time>2026-03-22T10:39:02Z</time></trkpt><trkpt lat="43.30104279586916" lon="2.5011162462979324"><ele>174.66666666666666</ele><time>2026-03-22T10:39:03Z</time></trkpt><trkpt lat="43.30092417146811" lon="2.501335365314878"><ele>173.33333333333334</ele><time>2026-03-22T10:39:04Z</time></trkpt><trkpt lat="43.30081039506624" lon="2.501547570243606"><ele>172.0</ele><time>2026-03-22T10:39:05Z</time></trkpt><trkpt lat="43.30069148529575" lon="2.5017570818398407"><ele>174.0</ele><time>2026-03-22T10:39:06Z</time></trkpt><trkpt lat="43.30057180605706" lon="2.501966528751753"><ele>176.0</ele><time>2026-03-22T10:39:07Z</time></trkpt><trkpt lat="43.300450620179895" lon="2.502183999518032"><ele>178.0</ele><time>2026-03-22T10:39:08Z</time></trkpt><trkpt lat="43.30033025103469" lon="2.502408295917889"><ele>178.0</ele><time>2026-03-22T10:39:09Z</time></trkpt><trkpt lat="43.30018195607271" lon="2.5025781669845792"><ele>178.0</ele><time>2026-03-22T10:39:10Z</time></trkpt><trkpt lat="43.300068229539676" lon="2.5027974753881193"><ele>178.0</ele><time>2026-03-22T10:39:11Z</time></trkpt><trkpt lat="43.299970807173565" lon="2.503034544919754"><ele>178.0</ele><time>2026-03-22T10:39:12Z</time></trkpt><trkpt lat="43.29988657095408" lon="2.503283112596005"><ele>178.0</ele><time>2026-03-22T10:39:13Z</time></trkpt><trkpt lat="43.29980628277935" lon="2.5035346022726506"><ele>178.0</ele><time>2026-03-22T10:39:13.999Z</time></trkpt><trkpt lat="43.29973343941294" lon="2.5037634689357846"><ele>178.0</ele><time>2026-03-22T10:39:14.999Z</time></trkpt><trkpt lat="43.29965868977344" lon="2.503973416770793"><ele>178.0</ele><time>2026-03-22T10:39:15.999Z</time></trkpt><trkpt lat="43.29957075395634" lon="2.50416905231483"><ele>178.0</ele><time>2026-03-22T10:39:16.999Z</time></trkpt><trkpt lat="43.29945454922397" lon="2.5043271754153515"><ele>178.0</ele><time>2026-03-22T10:39:17.999Z</time></trkpt><trkpt lat="43.2993131123468" lon="2.5044905513943023"><ele>178.0</ele><time>2026-03-22T10:39:18.999Z</time></trkpt><trkpt lat="43.29916260508417" lon="2.5046503886961893"><ele>178.0</ele><time>2026-03-22T10:39:19.999Z</time></trkpt><trkpt lat="43.29901471761135" lon="2.5048049708757163"><ele>176.66666666666669</ele><time>2026-03-22T10:39:20.999Z</time></trkpt><trkpt lat="43.29886764414851" lon="2.5049658247987616"><ele>175.33333333333334</ele><time>2026-03-22T10:39:21.999Z</time></trkpt><trkpt lat="43.298719707537074" lon="2.505131427281938"><ele>174.0</ele><time>2026-03-22T10:39:22.999Z</time></trkpt><trkpt lat="43.2985675313233" lon="2.5052956092277814"><ele>173.66666666666666</ele><time>2026-03-22T10:39:23.999Z</time></trkpt><trkpt lat="43.298409791312714" lon="2.505464918340115"><ele>173.33333333333331</ele><time>2026-03-22T10:39:24.999Z</time></trkpt><trkpt lat="43.29822531697346" lon="2.5056627212461757"><ele>173.0</ele><time>2026-03-22T10:39:25.999Z</time></trkpt><trkpt lat="43.298052818053335" lon="2.505847683505595"><ele>171.66666666666666</ele><time>2026-03-22T10:39:26.999Z</time></trkpt><trkpt lat="43.29789236120683" lon="2.506018200445415"><ele>170.33333333333334</ele><time>2026-03-22T10:39:27.999Z</time></trkpt><trkpt lat="43.29771827995921" lon="2.506202258406784"><ele>169.0</ele><time>2026-03-22T10:39:28.999Z</time></trkpt><trkpt lat="43.29752648504848" lon="2.5064050452253674"><ele>169.0</ele><time>2026-03-22T10:39:29.999Z</time></trkpt><trkpt lat="43.29732478032265" lon="2.506618309804238"><ele>169.0</ele><time>2026-03-22T10:39:30.999Z</time></trkpt><trkpt lat="43.2971237507739" lon="2.506830860552632"><ele>167.5</ele><time>2026-03-22T10:39:31.999Z</time></trkpt><trkpt lat="43.29691359754363" lon="2.5070523636425506"><ele>166.0</ele><time>2026-03-22T10:39:32.999Z</time></trkpt><trkpt lat="43.29671824139027" lon="2.507257862396913"><ele>166.0</ele><time>2026-03-22T10:39:33.999Z</time></trkpt><trkpt lat="43.2965408637831" lon="2.5074458086660973"><ele>166.0</ele><time>2026-03-22T10:39:34.999Z</time></trkpt><trkpt lat="43.296364873505" lon="2.5076325629567937"><ele>166.0</ele><time>2026-03-22T10:39:35.999Z</time></trkpt><trkpt lat="43.29619122139409" lon="2.5078168360678457"><ele>164.0</ele><time>2026-03-22T10:39:36.999Z</time></trkpt><trkpt lat="43.29601201115648" lon="2.508007007236439"><ele>162.0</ele><time>2026-03-22T10:39:37.999Z</time></trkpt><trkpt lat="43.29582969995744" lon="2.508198860354357"><ele>162.0</ele><time>2026-03-22T10:39:38.999Z</time></trkpt><trkpt lat="43.29564737817569" lon="2.5083901447221977"><ele>162.0</ele><time>2026-03-22T10:39:39.999Z</time></trkpt><trkpt lat="43.295465350442306" lon="2.5085831893213886"><ele>158.5</ele><time>2026-03-22T10:39:41Z</time></trkpt><trkpt lat="43.29529245581918" lon="2.508767845478707"><ele>155.0</ele><time>2026-03-22T10:39:42Z</time></trkpt><trkpt lat="43.2951054408766" lon="2.5089675825154085"><ele>155.0</ele><time>2026-03-22T10:39:43Z</time></trkpt><trkpt lat="43.294918765608415" lon="2.5091703703816646"><ele>155.0</ele><time>2026-03-22T10:39:44Z</time></trkpt><trkpt lat="43.29472760038069" lon="2.5093760052909"><ele>154.5</ele><time>2026-03-22T10:39:45Z</time></trkpt><trkpt lat="43.29453249278275" lon="2.5095810236902527"><ele>154.0</ele><time>2026-03-22T10:39:46Z</time></trkpt><trkpt lat="43.29434012180513" lon="2.5097816089628986"><ele>154.0</ele><time>2026-03-22T10:39:47Z</time></trkpt><trkpt lat="43.294153337714825" lon="2.5099772782615317"><ele>154.0</ele><time>2026-03-22T10:39:48Z</time></trkpt><trkpt lat="43.29397580254393" lon="2.5101698529987826"><ele>153.33333333333334</ele><time>2026-03-22T10:39:49Z</time></trkpt><trkpt lat="43.29380703980992" lon="2.51035291214782"><ele>152.66666666666666</ele><time>2026-03-22T10:39:50Z</time></trkpt><trkpt lat="43.293641656031646" lon="2.5105319435427274"><ele>152.0</ele><time>2026-03-22T10:39:51Z</time></trkpt><trkpt lat="43.293471244128824" lon="2.510710090389975"><ele>151.33333333333331</ele><time>2026-03-22T10:39:52Z</time></trkpt><trkpt lat="43.29329677677976" lon="2.510892476763919"><ele>150.66666666666666</ele><time>2026-03-22T10:39:53Z</time></trkpt><trkpt lat="43.29311455028791" lon="2.511084776541769"><ele>150.0</ele><time>2026-03-22T10:39:54Z</time></trkpt><trkpt lat="43.29291868845523" lon="2.5112947583137877"><ele>147.5</ele><time>2026-03-22T10:39:55Z</time></trkpt><trkpt lat="43.29272902431568" lon="2.511492233777621"><ele>145.0</ele><time>2026-03-22T10:39:56Z</time></trkpt><trkpt lat="43.29255318628061" lon="2.5116750506341075"><ele>145.0</ele><time>2026-03-22T10:39:57Z</time></trkpt><trkpt lat="43.29238049068751" lon="2.5118575834479855"><ele>145.0</ele><time>2026-03-22T10:39:58Z</time></trkpt><trkpt lat="43.29222025334923" lon="2.5120294486239327"><ele>145.0</ele><time>2026-03-22T10:39:59Z</time></trkpt><trkpt lat="43.29205781239977" lon="2.5122048952218927"><ele>143.66666666666669</ele><time>2026-03-22T10:40:00Z</time></trkpt><trkpt lat="43.29189311509771" lon="2.51238277882155"><ele>142.33333333333334</ele><time>2026-03-22T10:40:01Z</time></trkpt><trkpt lat="43.29172863475555" lon="2.5125623428850257"><ele>141.0</ele><time>2026-03-22T10:40:02Z</time></trkpt><trkpt lat="43.29155968994509" lon="2.5127468743266497"><ele>139.33333333333334</ele><time>2026-03-22T10:40:03Z</time></trkpt><trkpt lat="43.29139705064797" lon="2.512924199769678"><ele>137.66666666666669</ele><time>2026-03-22T10:40:04Z</time></trkpt><trkpt lat="43.29123279604661" lon="2.513092156163906"><ele>136.0</ele><time>2026-03-22T10:40:05Z</time></trkpt><trkpt lat="43.291062270017704" lon="2.513248612783625"><ele>136.0</ele><time>2026-03-22T10:40:06Z</time></trkpt><trkpt lat="43.29088032650438" lon="2.5133640453153827"><ele>136.0</ele><time>2026-03-22T10:40:07Z</time></trkpt><trkpt lat="43.2906747953632" lon="2.513466849652578"><ele>136.0</ele><time>2026-03-22T10:40:08Z</time></trkpt><trkpt lat="43.29045169358647" lon="2.513584370034197"><ele>137.5</ele><time>2026-03-22T10:40:09Z</time></trkpt><trkpt lat="43.29022065861624" lon="2.5137306182937866"><ele>139.0</ele><time>2026-03-22T10:40:10Z</time></trkpt><trkpt lat="43.28999997556865" lon="2.5138546263076966"><ele>137.33333333333334</ele><time>2026-03-22T10:40:11Z</time></trkpt><trkpt lat="43.28979342807499" lon="2.5139493421042807"><ele>135.66666666666666</ele><time>2026-03-22T10:40:12Z</time></trkpt><trkpt lat="43.289609119763604" lon="2.514048945784897"><ele>134.0</ele><time>2026-03-22T10:40:13Z</time></trkpt><trkpt lat="43.289448017533296" lon="2.5141595672861445"><ele>134.0</ele><time>2026-03-22T10:40:14Z</time></trkpt><trkpt lat="43.28928447009072" lon="2.5142431367680937"><ele>134.0</ele><time>2026-03-22T10:40:15Z</time></trkpt><trkpt lat="43.28912360637656" lon="2.514319405978184"><ele>134.0</ele><time>2026-03-22T10:40:16Z</time></trkpt><trkpt lat="43.28895869717982" lon="2.514367493391454"><ele>132.66666666666666</ele><time>2026-03-22T10:40:17Z</time></trkpt><trkpt lat="43.288782456152234" lon="2.5143947128706423"><ele>131.33333333333334</ele><time>2026-03-22T10:40:18Z</time></trkpt><trkpt lat="43.28860906901844" lon="2.5143991660179723"><ele>130.0</ele><time>2026-03-22T10:40:19Z</time></trkpt><trkpt lat="43.28843907788552" lon="2.5143932335439407"><ele>130.0</ele><time>2026-03-22T10:40:20Z</time></trkpt><trkpt lat="43.2882742365435" lon="2.514379046208571"><ele>130.0</ele><time>2026-03-22T10:40:21Z</time></trkpt><trkpt lat="43.28810031384289" lon="2.514365551293717"><ele>130.0</ele><time>2026-03-22T10:40:22Z</time></trkpt><trkpt lat="43.287920653707744" lon="2.5143560642766767"><ele>128.33333333333334</ele><time>2026-03-22T10:40:23Z</time></trkpt><trkpt lat="43.28773824417289" lon="2.514350025665375"><ele>126.66666666666666</ele><time>2026-03-22T10:40:24Z</time></trkpt><trkpt lat="43.287555719003706" lon="2.514342751752898"><ele>125.0</ele><time>2026-03-22T10:40:25Z</time></trkpt><trkpt lat="43.287366525767666" lon="2.514335558242385"><ele>123.66666666666666</ele><time>2026-03-22T10:40:26Z</time></trkpt><trkpt lat="43.2871664634201" lon="2.5143291110931574"><ele>122.33333333333334</ele><time>2026-03-22T10:40:27Z</time></trkpt><trkpt lat="43.286942424742406" lon="2.5143310768649747"><ele>121.0</ele><time>2026-03-22T10:40:28Z</time></trkpt><trkpt lat="43.28669334728023" lon="2.5143274776757534"><ele>118.0</ele><time>2026-03-22T10:40:29Z</time></trkpt><trkpt lat="43.28642714469238" lon="2.5143203217998513"><ele>115.0</ele><time>2026-03-22T10:40:30Z</time></trkpt><trkpt lat="43.28614653399863" lon="2.514308252926121"><ele>115.0</ele><time>2026-03-22T10:40:31Z</time></trkpt><trkpt lat="43.28585312436179" lon="2.5142959444546076"><ele>115.0</ele><time>2026-03-22T10:40:32Z</time></trkpt><trkpt lat="43.28556522893717" lon="2.5142787377796503"><ele>113.5</ele><time>2026-03-22T10:40:33Z</time></trkpt><trkpt lat="43.28529751311823" lon="2.5142734841879717"><ele>112.0</ele><time>2026-03-22T10:40:34Z</time></trkpt><trkpt lat="43.28504524880965" lon="2.51426951788575"><ele>112.0</ele><time>2026-03-22T10:40:35Z</time></trkpt><trkpt lat="43.28480524705758" lon="2.5142607741573735"><ele>112.0</ele><time>2026-03-22T10:40:36Z</time></trkpt><trkpt lat="43.28457573926031" lon="2.5142533490591483"><ele>111.0</ele><time>2026-03-22T10:40:37Z</time></trkpt><trkpt lat="43.28435669173301" lon="2.514243995567296"><ele>110.0</ele><time>2026-03-22T10:40:38Z</time></trkpt><trkpt lat="43.28414874283857" lon="2.5142370678615333"><ele>109.0</ele><time>2026-03-22T10:40:39Z</time></trkpt><trkpt lat="43.28394959352217" lon="2.5142344105546175"><ele>108.33333333333334</ele><time>2026-03-22T10:40:40Z</time></trkpt><trkpt lat="43.28375694581243" lon="2.5142343934171785"><ele>107.66666666666666</ele><time>2026-03-22T10:40:41Z</time></trkpt><trkpt lat="43.28356983140139" lon="2.5142322041530067"><ele>107.0</ele><time>2026-03-22T10:40:42Z</time></trkpt><trkpt lat="43.283381187726945" lon="2.514217461429303"><ele>107.0</ele><time>2026-03-22T10:40:43Z</time></trkpt><trkpt lat="43.28319574395504" lon="2.5141836615890116"><ele>107.0</ele><time>2026-03-22T10:40:44Z</time></trkpt><trkpt lat="43.283007917383706" lon="2.51413090764387"><ele>107.0</ele><time>2026-03-22T10:40:45Z</time></trkpt><trkpt lat="43.28284047278649" lon="2.514080386161919"><ele>107.33333333333333</ele><time>2026-03-22T10:40:46Z</time></trkpt><trkpt lat="43.28267791143242" lon="2.5140449168170047"><ele>107.66666666666666</ele><time>2026-03-22T10:40:47Z</time></trkpt><trkpt lat="43.28251653514678" lon="2.514016084286721"><ele>108.0</ele><time>2026-03-22T10:40:48Z</time></trkpt><trkpt lat="43.28234352944524" lon="2.5139979259483534"><ele>105.33333333333334</ele><time>2026-03-22T10:40:49Z</time></trkpt><trkpt lat="43.28215773497584" lon="2.513986606984899"><ele>102.66666666666667</ele><time>2026-03-22T10:40:50Z</time></trkpt><trkpt lat="43.28197523497786" lon="2.513987772610618"><ele>100.0</ele><time>2026-03-22T10:40:51Z</time></trkpt><trkpt lat="43.28179966311929" lon="2.513999742368618"><ele>100.0</ele><time>2026-03-22T10:40:52Z</time></trkpt><trkpt lat="43.28161177645859" lon="2.5140310619575694"><ele>100.0</ele><time>2026-03-22T10:40:53Z</time></trkpt><trkpt lat="43.28142308092588" lon="2.5140771702068294"><ele>100.0</ele><time>2026-03-22T10:40:54Z</time></trkpt><trkpt lat="43.28122190693742" lon="2.5141334079926296"><ele>98.5</ele><time>2026-03-22T10:40:55Z</time></trkpt><trkpt lat="43.281013567213705" lon="2.5142165977621502"><ele>97.0</ele><time>2026-03-22T10:40:56Z</time></trkpt><trkpt lat="43.280787440381" lon="2.514335338356194"><ele>99.5</ele><time>2026-03-22T10:40:57Z</time></trkpt><trkpt lat="43.280540978072885" lon="2.514491783669051"><ele>102.0</ele><time>2026-03-22T10:40:58Z</time></trkpt><trkpt lat="43.28028746150511" lon="2.5146743389099435"><ele>102.0</ele><time>2026-03-22T10:40:59Z</time></trkpt><trkpt lat="43.280065404369246" lon="2.5148477180482316"><ele>102.0</ele><time>2026-03-22T10:41:00Z</time></trkpt><trkpt lat="43.27986919117926" lon="2.514992850694678"><ele>104.66666666666666</ele><time>2026-03-22T10:41:01Z</time></trkpt><trkpt lat="43.27968778263142" lon="2.515123961842308"><ele>107.33333333333333</ele><time>2026-03-22T10:41:02Z</time></trkpt><trkpt lat="43.27951895213303" lon="2.515240853232791"><ele>110.0</ele><time>2026-03-22T10:41:03Z</time></trkpt><trkpt lat="43.27937825999692" lon="2.5153519415056174"><ele>107.5</ele><time>2026-03-22T10:41:04Z</time></trkpt><trkpt lat="43.27925364739163" lon="2.515457539168313"><ele>105.0</ele><time>2026-03-22T10:41:05Z</time></trkpt><trkpt lat="43.27914323965991" lon="2.515567229284554"><ele>102.5</ele><time>2026-03-22T10:41:06Z</time></trkpt><trkpt lat="43.27904186497657" lon="2.5157066861439574"><ele>100.0</ele><time>2026-03-22T10:41:07Z</time></trkpt><trkpt lat="43.27894663969554" lon="2.5158714223588845"><ele>101.33333333333334</ele><time>2026-03-22T10:41:08Z</time></trkpt><trkpt lat="43.27886414454571" lon="2.5160558098214527"><ele>102.66666666666666</ele><time>2026-03-22T10:41:09Z</time></trkpt><trkpt lat="43.2787956011382" lon="2.516284620709335"><ele>104.0</ele><time>2026-03-22T10:41:10Z</time></trkpt><trkpt lat="43.27873893234196" lon="2.5165215818851867"><ele>104.0</ele><time>2026-03-22T10:41:11Z</time></trkpt><trkpt lat="43.27867849493085" lon="2.5167376168346016"><ele>104.0</ele><time>2026-03-22T10:41:12Z</time></trkpt><trkpt lat="43.278616406111" lon="2.5169534298199157"><ele>104.0</ele><time>2026-03-22T10:41:13Z</time></trkpt><trkpt lat="43.2785620907584" lon="2.51717196934727"><ele>102.75</ele><time>2026-03-22T10:41:14Z</time></trkpt><trkpt lat="43.2785057583391" lon="2.517364477135509"><ele>101.5</ele><time>2026-03-22T10:41:15Z</time></trkpt><trkpt lat="43.27845011634291" lon="2.5175239441183845"><ele>100.25</ele><time>2026-03-22T10:41:16Z</time></trkpt><trkpt lat="43.27838121619035" lon="2.517675423607994"><ele>99.0</ele><time>2026-03-22T10:41:17Z</time></trkpt><trkpt lat="43.278279703326255" lon="2.517841866649177"><ele>98.33333333333334</ele><time>2026-03-22T10:41:18Z</time></trkpt><trkpt lat="43.278139806326415" lon="2.517990029663475"><ele>97.66666666666667</ele><time>2026-03-22T10:41:18.999Z</time></trkpt><trkpt lat="43.278018602377465" lon="2.5181295222943914"><ele>97.0</ele><time>2026-03-22T10:41:19.999Z</time></trkpt><trkpt lat="43.27791674536836" lon="2.5182608991001922"><ele>97.0</ele><time>2026-03-22T10:41:20.999Z</time></trkpt><trkpt lat="43.27781735648795" lon="2.518381947421376"><ele>97.0</ele><time>2026-03-22T10:41:21.999Z</time></trkpt><trkpt lat="43.2777229405116" lon="2.5184978388650214"><ele>97.0</ele><time>2026-03-22T10:41:22.999Z</time></trkpt><trkpt lat="43.277620525968366" lon="2.518599926490511"><ele>97.0</ele><time>2026-03-22T10:41:23.999Z</time></trkpt><trkpt lat="43.27752567641158" lon="2.5187097390587665"><ele>96.19999999999999</ele><time>2026-03-22T10:41:24.999Z</time></trkpt><trkpt lat="43.27744224454525" lon="2.5188116644966723"><ele>95.4</ele><time>2026-03-22T10:41:25.999Z</time></trkpt><trkpt lat="43.277359007226536" lon="2.5189025096344237"><ele>94.6</ele><time>2026-03-22T10:41:26.999Z</time></trkpt><trkpt lat="43.27728135626091" lon="2.518985990996254"><ele>93.80000000000001</ele><time>2026-03-22T10:41:27.999Z</time></trkpt><trkpt lat="43.277206986635086" lon="2.5190670862720377"><ele>93.0</ele><time>2026-03-22T10:41:28.999Z</time></trkpt><trkpt lat="43.27714236791295" lon="2.5191479111454123"><ele>93.0</ele><time>2026-03-22T10:41:29.999Z</time></trkpt><trkpt lat="43.27707908141532" lon="2.519218622688261"><ele>93.0</ele><time>2026-03-22T10:41:30.999Z</time></trkpt><trkpt lat="43.27699358922204" lon="2.5192610699571927"><ele>93.0</ele><time>2026-03-22T10:41:31.999Z</time></trkpt><trkpt lat="43.276918196435375" lon="2.5193378780339724"><ele>93.0</ele><time>2026-03-22T10:41:32.999Z</time></trkpt><trkpt lat="43.276844086965426" lon="2.5193960394754105"><ele>93.0</ele><time>2026-03-22T10:41:33.999Z</time></trkpt><trkpt lat="43.27676981633602" lon="2.5194645879717985"><ele>93.0</ele><time>2026-03-22T10:41:34.999Z</time></trkpt><trkpt lat="43.27667744051031" lon="2.5194970735392848"><ele>93.0</ele><time>2026-03-22T10:41:35.999Z</time></trkpt><trkpt lat="43.27658229985789" lon="2.5195146106201807"><ele>93.0</ele><time>2026-03-22T10:41:36.999Z</time></trkpt><trkpt lat="43.27648284581414" lon="2.5195247863074877"><ele>93.0</ele><time>2026-03-22T10:41:37.999Z</time></trkpt><trkpt lat="43.2763855129101" lon="2.5195275811874165"><ele>93.0</ele><time>2026-03-22T10:41:38.999Z</time></trkpt><trkpt lat="43.276296752742525" lon="2.519536233699798"><ele>93.0</ele><time>2026-03-22T10:41:39.999Z</time></trkpt><trkpt lat="43.27621305754646" lon="2.519545894908888"><ele>92.0</ele><time>2026-03-22T10:41:40.999Z</time></trkpt><trkpt lat="43.276126277815365" lon="2.5195478431958183"><ele>91.0</ele><time>2026-03-22T10:41:41.999Z</time></trkpt><trkpt lat="43.27603321486058" lon="2.519546365619439"><ele>90.0</ele><time>2026-03-22T10:41:42.999Z</time></trkpt><trkpt lat="43.27594062198935" lon="2.519551483066162"><ele>89.0</ele><time>2026-03-22T10:41:43.999Z</time></trkpt><trkpt lat="43.27585136581294" lon="2.5195516245079896"><ele>88.0</ele><time>2026-03-22T10:41:44.999Z</time></trkpt><trkpt lat="43.275767032303364" lon="2.5195521021093734"><ele>87.0</ele><time>2026-03-22T10:41:45.999Z</time></trkpt><trkpt lat="43.27568149573351" lon="2.5195556576119262"><ele>86.0</ele><time>2026-03-22T10:41:47Z</time></trkpt><trkpt lat="43.27559712022227" lon="2.5195553541055338"><ele>85.0</ele><time>2026-03-22T10:41:48Z</time></trkpt><trkpt lat="43.27550575971036" lon="2.519556364092355"><ele>84.0</ele><time>2026-03-22T10:41:49Z</time></trkpt><trkpt lat="43.27540783271557" lon="2.5195637699144116"><ele>83.0</ele><time>2026-03-22T10:41:50Z</time></trkpt><trkpt lat="43.27530940341597" lon="2.5195755157235626"><ele>82.0</ele><time>2026-03-22T10:41:51Z</time></trkpt><trkpt lat="43.27520203249495" lon="2.51957998208033"><ele>82.0</ele><time>2026-03-22T10:41:52Z</time></trkpt><trkpt lat="43.27509904931227" lon="2.5195918902955032"><ele>82.0</ele><time>2026-03-22T10:41:53Z</time></trkpt><trkpt lat="43.27499545935031" lon="2.519597368012136"><ele>82.0</ele><time>2026-03-22T10:41:54Z</time></trkpt><trkpt lat="43.27490031237405" lon="2.519601868570812"><ele>82.0</ele><time>2026-03-22T10:41:55Z</time></trkpt><trkpt lat="43.27481610938145" lon="2.5196064634107516"><ele>82.0</ele><time>2026-03-22T10:41:56Z</time></trkpt><trkpt lat="43.274724511811534" lon="2.519616159260494"><ele>81.5</ele><time>2026-03-22T10:41:57Z</time></trkpt><trkpt lat="43.2746467028331" lon="2.519623949780781"><ele>81.0</ele><time>2026-03-22T10:41:58Z</time></trkpt><trkpt lat="43.2745561584416" lon="2.5196266567428744"><ele>80.5</ele><time>2026-03-22T10:41:59Z</time></trkpt><trkpt lat="43.27446401841279" lon="2.519629378655046"><ele>80.0</ele><time>2026-03-22T10:42:00Z</time></trkpt><trkpt lat="43.27437877434953" lon="2.5196312891035784"><ele>79.5</ele><time>2026-03-22T10:42:01Z</time></trkpt><trkpt lat="43.27428953500106" lon="2.5196304871636674"><ele>79.0</ele><time>2026-03-22T10:42:02Z</time></trkpt><trkpt lat="43.27419734167903" lon="2.5196291286150894"><ele>79.0</ele><time>2026-03-22T10:42:03Z</time></trkpt><trkpt lat="43.27410003819895" lon="2.5196305003804342"><ele>79.0</ele><time>2026-03-22T10:42:04Z</time></trkpt><trkpt lat="43.27399599491948" lon="2.5196384432723415"><ele>79.0</ele><time>2026-03-22T10:42:05Z</time></trkpt><trkpt lat="43.2738853299486" lon="2.519645872352688"><ele>79.0</ele><time>2026-03-22T10:42:06Z</time></trkpt><trkpt lat="43.27379031075639" lon="2.5196499795948317"><ele>79.0</ele><time>2026-03-22T10:42:07Z</time></trkpt><trkpt lat="43.273698509291826" lon="2.5196546448597954"><ele>79.4</ele><time>2026-03-22T10:42:08Z</time></trkpt><trkpt lat="43.2736160407475" lon="2.51965763194922"><ele>79.80000000000001</ele><time>2026-03-22T10:42:09Z</time></trkpt><trkpt lat="43.273528378995685" lon="2.5196706890595926"><ele>80.19999999999999</ele><time>2026-03-22T10:42:10Z</time></trkpt><trkpt lat="43.27343013409754" lon="2.519669203117783"><ele>80.6</ele><time>2026-03-22T10:42:11Z</time></trkpt><trkpt lat="43.27332828262731" lon="2.519679031299061"><ele>81.0</ele><time>2026-03-22T10:42:12Z</time></trkpt><trkpt lat="43.27323333411289" lon="2.5196882794660547"><ele>81.0</ele><time>2026-03-22T10:42:13Z</time></trkpt><trkpt lat="43.27314223304193" lon="2.5196959926272506"><ele>81.0</ele><time>2026-03-22T10:42:14Z</time></trkpt><trkpt lat="43.273055894118855" lon="2.519707840702212"><ele>81.0</ele><time>2026-03-22T10:42:15Z</time></trkpt><trkpt lat="43.27297210255382" lon="2.5197144312630666"><ele>81.0</ele><time>2026-03-22T10:42:16Z</time></trkpt><trkpt lat="43.272895496427346" lon="2.519726098772616"><ele>81.0</ele><time>2026-03-22T10:42:17Z</time></trkpt><trkpt lat="43.27283147589089" lon="2.519725459518848"><ele>81.0</ele><time>2026-03-22T10:42:18Z</time></trkpt><trkpt lat="43.27270925140302" lon="2.5197320791849815"><ele>81.16666666666667</ele><time>2026-03-22T10:42:20Z</time></trkpt><trkpt lat="43.27262928497215" lon="2.5198194435237378"><ele>81.33333333333333</ele><time>2026-03-22T10:42:22Z</time></trkpt><trkpt lat="43.272620048458876" lon="2.519948119219054"><ele>81.5</ele><time>2026-03-22T10:42:23Z</time></trkpt><trkpt lat="43.272620574723106" lon="2.5200698437592495"><ele>81.66666666666666</ele><time>2026-03-22T10:42:24Z</time></trkpt><trkpt lat="43.27262144017708" lon="2.5201691324504756"><ele>81.83333333333333</ele><time>2026-03-22T10:42:25Z</time></trkpt><trkpt lat="43.27262250836058" lon="2.520291678853352"><ele>82.0</ele><time>2026-03-22T10:42:26Z</time></trkpt><trkpt lat="43.272623285489985" lon="2.520380834267413"><ele>81.85714285714285</ele><time>2026-03-22T10:42:27Z</time></trkpt><trkpt lat="43.27262391111085" lon="2.520470656078005"><ele>81.71428571428571</ele><time>2026-03-22T10:42:28Z</time></trkpt><trkpt lat="43.272624586344506" lon="2.5205698088817283"><ele>81.57142857142857</ele><time>2026-03-22T10:42:29Z</time></trkpt><trkpt lat="43.272625202581146" lon="2.5206602984577584"><ele>81.42857142857142</ele><time>2026-03-22T10:42:30Z</time></trkpt><trkpt lat="43.272625847841674" lon="2.5207550497836566"><ele>81.28571428571428</ele><time>2026-03-22T10:42:31Z</time></trkpt><trkpt lat="43.27262301987055" lon="2.520866376255482"><ele>81.14285714285714</ele><time>2026-03-22T10:42:32Z</time></trkpt><trkpt lat="43.272613381019" lon="2.5209901820511407"><ele>81.0</ele><time>2026-03-22T10:42:33Z</time></trkpt><trkpt lat="43.27259123338712" lon="2.5210943062175875"><ele>81.0</ele><time>2026-03-22T10:42:34Z</time></trkpt><trkpt lat="43.27255606276849" lon="2.521189734126692"><ele>81.0</ele><time>2026-03-22T10:42:35Z</time></trkpt><trkpt lat="43.27251531518402" lon="2.521290489753952"><ele>81.0</ele><time>2026-03-22T10:42:36Z</time></trkpt><trkpt lat="43.27248270545909" lon="2.5214182514607892"><ele>81.0</ele><time>2026-03-22T10:42:37Z</time></trkpt><trkpt lat="43.27243207616768" lon="2.5215433417250015"><ele>81.0</ele><time>2026-03-22T10:42:38Z</time></trkpt><trkpt lat="43.27237703335234" lon="2.5216476725360164"><ele>80.83333333333333</ele><time>2026-03-22T10:42:39Z</time></trkpt><trkpt lat="43.272318960445766" lon="2.521717682600794"><ele>80.66666666666667</ele><time>2026-03-22T10:42:40Z</time></trkpt><trkpt lat="43.27226310433686" lon="2.521773420866414"><ele>80.5</ele><time>2026-03-22T10:42:41Z</time></trkpt><trkpt lat="43.272215545958815" lon="2.5218365339940174"><ele>80.33333333333334</ele><time>2026-03-22T10:42:42Z</time></trkpt><trkpt lat="43.272141493268016" lon="2.5219426620733474"><ele>80.16666666666667</ele><time>2026-03-22T10:42:44Z</time></trkpt><trkpt lat="43.27203865429333" lon="2.5220076616960196"><ele>80.0</ele><time>2026-03-22T10:42:46Z</time></trkpt><trkpt lat="43.271984572536994" lon="2.5221128878954127"><ele>79.66666666666667</ele><time>2026-03-22T10:42:48Z</time></trkpt><trkpt lat="43.27191935293479" lon="2.5221941235711416"><ele>79.33333333333334</ele><time>2026-03-22T10:42:51Z</time></trkpt><trkpt lat="43.271844362922316" lon="2.5222530907677916"><ele>79.0</ele><time>2026-03-22T10:42:53Z</time></trkpt><trkpt lat="43.27178162339536" lon="2.522280901772832"><ele>78.66666666666667</ele><time>2026-03-22T10:42:55Z</time></trkpt><trkpt lat="43.271717449210385" lon="2.522349727583384"><ele>78.33333333333333</ele><time>2026-03-22T10:42:57Z</time></trkpt><trkpt lat="43.271697291466644" lon="2.522521514325783"><ele>78.0</ele><time>2026-03-22T10:42:58Z</time></trkpt><trkpt lat="43.271691680660226" lon="2.522639631590652"><ele>78.0</ele><time>2026-03-22T10:42:59Z</time></trkpt><trkpt lat="43.271681550990486" lon="2.5227949515736237"><ele>78.0</ele><time>2026-03-22T10:43:00Z</time></trkpt><trkpt lat="43.2716688128774" lon="2.522958932521591"><ele>78.0</ele><time>2026-03-22T10:43:01Z</time></trkpt><trkpt lat="43.27165709616369" lon="2.523101543847923"><ele>78.0</ele><time>2026-03-22T10:43:02Z</time></trkpt><trkpt lat="43.27164579390064" lon="2.5232388628402074"><ele>78.0</ele><time>2026-03-22T10:43:03Z</time></trkpt><trkpt lat="43.27163264204209" lon="2.523400141723172"><ele>77.75</ele><time>2026-03-22T10:43:04Z</time></trkpt><trkpt lat="43.27161722054802" lon="2.5235848960902163"><ele>77.5</ele><time>2026-03-22T10:43:05Z</time></trkpt><trkpt lat="43.271601216752046" lon="2.523773037096685"><ele>77.25</ele><time>2026-03-22T10:43:06Z</time></trkpt><trkpt lat="43.27158825251463" lon="2.523930054637686"><ele>77.0</ele><time>2026-03-22T10:43:07Z</time></trkpt><trkpt lat="43.271578003795746" lon="2.5240668618439885"><ele>77.0</ele><time>2026-03-22T10:43:08Z</time></trkpt><trkpt lat="43.27156816297673" lon="2.5241848103489244"><ele>77.0</ele><time>2026-03-22T10:43:09Z</time></trkpt><trkpt lat="43.27155553593599" lon="2.524289412033774"><ele>77.0</ele><time>2026-03-22T10:43:10Z</time></trkpt><trkpt lat="43.27153592431318" lon="2.524385408097808"><ele>77.0</ele><time>2026-03-22T10:43:11Z</time></trkpt><trkpt lat="43.271495907010376" lon="2.5244749162553575"><ele>77.0</ele><time>2026-03-22T10:43:12Z</time></trkpt><trkpt lat="43.27142092239633" lon="2.524563163268415"><ele>77.0</ele><time>2026-03-22T10:43:13Z</time></trkpt><trkpt lat="43.27129693856042" lon="2.5246521300509435"><ele>76.8</ele><time>2026-03-22T10:43:14Z</time></trkpt><trkpt lat="43.271188521569776" lon="2.524697385838349"><ele>76.6</ele><time>2026-03-22T10:43:15Z</time></trkpt><trkpt lat="43.27109993277675" lon="2.5247376333110223"><ele>76.39999999999999</ele><time>2026-03-22T10:43:16Z</time></trkpt><trkpt lat="43.27102215888539" lon="2.524782850970661"><ele>76.2</ele><time>2026-03-22T10:43:17Z</time></trkpt><trkpt lat="43.270938218691334" lon="2.5248374226571606"><ele>76.0</ele><time>2026-03-22T10:43:18Z</time></trkpt><trkpt lat="43.27083221364663" lon="2.5248907070651074"><ele>76.0</ele><time>2026-03-22T10:43:19Z</time></trkpt><trkpt lat="43.2707120108748" lon="2.524949466476143"><ele>76.0</ele><time>2026-03-22T10:43:20Z</time></trkpt><trkpt lat="43.27058891203389" lon="2.525020561353076"><ele>76.0</ele><time>2026-03-22T10:43:21Z</time></trkpt><trkpt lat="43.27044373894893" lon="2.5250996375405994"><ele>76.0</ele><time>2026-03-22T10:43:22Z</time></trkpt><trkpt lat="43.270260782995166" lon="2.5251855384046817"><ele>76.33333333333333</ele><time>2026-03-22T10:43:23Z</time></trkpt><trkpt lat="43.27009255366674" lon="2.525275536576078"><ele>76.66666666666667</ele><time>2026-03-22T10:43:24Z</time></trkpt><trkpt lat="43.269952638312084" lon="2.525352121974757"><ele>77.0</ele><time>2026-03-22T10:43:25Z</time></trkpt><trkpt lat="43.2698218202531" lon="2.5254192484236144"><ele>76.25</ele><time>2026-03-22T10:43:26Z</time></trkpt><trkpt lat="43.269687106736995" lon="2.525489738859131"><ele>75.5</ele><time>2026-03-22T10:43:27Z</time></trkpt><trkpt lat="43.26955484299285" lon="2.5255626128758197"><ele>74.75</ele><time>2026-03-22T10:43:28Z</time></trkpt><trkpt lat="43.269419620673034" lon="2.525635770066977"><ele>74.0</ele><time>2026-03-22T10:43:29Z</time></trkpt><trkpt lat="43.26928271464896" lon="2.525709306971418"><ele>74.0</ele><time>2026-03-22T10:43:30Z</time></trkpt><trkpt lat="43.26913879692988" lon="2.5257739367134238"><ele>74.0</ele><time>2026-03-22T10:43:31Z</time></trkpt><trkpt lat="43.268988240086756" lon="2.525816072369209"><ele>74.0</ele><time>2026-03-22T10:43:32Z</time></trkpt><trkpt lat="43.26881672230062" lon="2.5258372900846022"><ele>73.75</ele><time>2026-03-22T10:43:33Z</time></trkpt><trkpt lat="43.268664359515576" lon="2.5258374128769177"><ele>73.5</ele><time>2026-03-22T10:43:34Z</time></trkpt><trkpt lat="43.26853659140688" lon="2.5258381398813854"><ele>73.25</ele><time>2026-03-22T10:43:35Z</time></trkpt><trkpt lat="43.2684170842489" lon="2.525842860072149"><ele>73.0</ele><time>2026-03-22T10:43:36Z</time></trkpt><trkpt lat="43.26829328353427" lon="2.5258470418427503"><ele>73.0</ele><time>2026-03-22T10:43:37Z</time></trkpt><trkpt lat="43.26816690201404" lon="2.5258513588808955"><ele>73.0</ele><time>2026-03-22T10:43:38Z</time></trkpt><trkpt lat="43.26805742958134" lon="2.5258586354617956"><ele>73.0</ele><time>2026-03-22T10:43:39Z</time></trkpt><trkpt lat="43.2679587522231" lon="2.525882159267297"><ele>73.0</ele><time>2026-03-22T10:43:40Z</time></trkpt><trkpt lat="43.267864023464675" lon="2.525948602292478"><ele>73.0</ele><time>2026-03-22T10:43:40.999Z</time></trkpt><trkpt lat="43.26776718400447" lon="2.5260511050096515"><ele>72.33333333333333</ele><time>2026-03-22T10:43:41.999Z</time></trkpt><trkpt lat="43.26771111360973" lon="2.5262381895618033"><ele>71.66666666666667</ele><time>2026-03-22T10:43:42.999Z</time></trkpt><trkpt lat="43.26764692109139" lon="2.5264784449543956"><ele>71.0</ele><time>2026-03-22T10:43:43.999Z</time></trkpt><trkpt lat="43.267573698445716" lon="2.5267620086751057"><ele>71.0</ele><time>2026-03-22T10:43:44.999Z</time></trkpt><trkpt lat="43.26749845947372" lon="2.5270497147603175"><ele>71.0</ele><time>2026-03-22T10:43:45.999Z</time></trkpt><trkpt lat="43.26742605466207" lon="2.527337237038578"><ele>71.0</ele><time>2026-03-22T10:43:46.999Z</time></trkpt><trkpt lat="43.26735953939716" lon="2.5275897457905274"><ele>70.66666666666667</ele><time>2026-03-22T10:43:47.999Z</time></trkpt><trkpt lat="43.26729520922471" lon="2.527841915452922"><ele>70.33333333333333</ele><time>2026-03-22T10:43:48.999Z</time></trkpt><trkpt lat="43.267221063696624" lon="2.528123818519841"><ele>70.0</ele><time>2026-03-22T10:43:49.999Z</time></trkpt><trkpt lat="43.26714498743733" lon="2.528421535593911"><ele>70.0</ele><time>2026-03-22T10:43:50.999Z</time></trkpt><trkpt lat="43.26706870515935" lon="2.5287187770154036"><ele>70.0</ele><time>2026-03-22T10:43:51.999Z</time></trkpt><trkpt lat="43.2669902139771" lon="2.529015334726501"><ele>70.0</ele><time>2026-03-22T10:43:53Z</time></trkpt><trkpt lat="43.266918491020604" lon="2.5292970800847647"><ele>70.0</ele><time>2026-03-22T10:43:54Z</time></trkpt><trkpt lat="43.266850822296554" lon="2.529562899416718"><ele>70.0</ele><time>2026-03-22T10:43:55Z</time></trkpt><trkpt lat="43.26678746666231" lon="2.5298158707589242"><ele>69.5</ele><time>2026-03-22T10:43:56Z</time></trkpt><trkpt lat="43.266714295891425" lon="2.5301022066827663"><ele>69.0</ele><time>2026-03-22T10:43:57Z</time></trkpt><trkpt lat="43.26663375706198" lon="2.5304132018539973"><ele>69.0</ele><time>2026-03-22T10:43:58Z</time></trkpt><trkpt lat="43.26656365603855" lon="2.530689711427422"><ele>69.0</ele><time>2026-03-22T10:43:59Z</time></trkpt><trkpt lat="43.266493922966504" lon="2.5309650348755945"><ele>69.0</ele><time>2026-03-22T10:44:00Z</time></trkpt><trkpt lat="43.266419264148524" lon="2.5312582845655744"><ele>69.33333333333333</ele><time>2026-03-22T10:44:01Z</time></trkpt><trkpt lat="43.266349169641906" lon="2.531532941164135"><ele>69.66666666666666</ele><time>2026-03-22T10:44:02Z</time></trkpt><trkpt lat="43.266281430889855" lon="2.53179931080945"><ele>70.0</ele><time>2026-03-22T10:44:03Z</time></trkpt><trkpt lat="43.266215779320625" lon="2.5320574728243868"><ele>70.0</ele><time>2026-03-22T10:44:04Z</time></trkpt><trkpt lat="43.266150642371855" lon="2.532313612703089"><ele>70.0</ele><time>2026-03-22T10:44:05Z</time></trkpt><trkpt lat="43.266085798330025" lon="2.532566746956479"><ele>70.0</ele><time>2026-03-22T10:44:06Z</time></trkpt><trkpt lat="43.266015479854126" lon="2.5328418424423034"><ele>70.5</ele><time>2026-03-22T10:44:07Z</time></trkpt><trkpt lat="43.265935710431364" lon="2.533152234879783"><ele>71.0</ele><time>2026-03-22T10:44:08Z</time></trkpt><trkpt lat="43.26584987707904" lon="2.533481203212649"><ele>71.0</ele><time>2026-03-22T10:44:09Z</time></trkpt><trkpt lat="43.26576617603603" lon="2.5338019991743748"><ele>71.0</ele><time>2026-03-22T10:44:10Z</time></trkpt><trkpt lat="43.26568730053927" lon="2.5341043005988113"><ele>68.5</ele><time>2026-03-22T10:44:11Z</time></trkpt><trkpt lat="43.26560804248261" lon="2.534409446558828"><ele>66.0</ele><time>2026-03-22T10:44:12Z</time></trkpt><trkpt lat="43.26552803460911" lon="2.5347191287907926"><ele>66.0</ele><time>2026-03-22T10:44:13Z</time></trkpt><trkpt lat="43.265451186907036" lon="2.535017121519744"><ele>66.0</ele><time>2026-03-22T10:44:14Z</time></trkpt><trkpt lat="43.26537692262151" lon="2.535305340944822"><ele>66.0</ele><time>2026-03-22T10:44:15Z</time></trkpt><trkpt lat="43.265304451885704" lon="2.535586599591164"><ele>66.0</ele><time>2026-03-22T10:44:16Z</time></trkpt><trkpt lat="43.2652360784286" lon="2.5358519567001725"><ele>66.0</ele><time>2026-03-22T10:44:17Z</time></trkpt><trkpt lat="43.26516924423768" lon="2.5361102720914905"><ele>66.33333333333333</ele><time>2026-03-22T10:44:18Z</time></trkpt><trkpt lat="43.265102643293716" lon="2.536361001054049"><ele>66.66666666666666</ele><time>2026-03-22T10:44:19Z</time></trkpt><trkpt lat="43.265033371196026" lon="2.5366217859772346"><ele>67.0</ele><time>2026-03-22T10:44:20Z</time></trkpt><trkpt lat="43.2649620229866" lon="2.5368921266759425"><ele>67.0</ele><time>2026-03-22T10:44:21Z</time></trkpt><trkpt lat="43.264889694967245" lon="2.537170672684337"><ele>67.0</ele><time>2026-03-22T10:44:22Z</time></trkpt><trkpt lat="43.26481423291432" lon="2.5374612884137173"><ele>67.0</ele><time>2026-03-22T10:44:23Z</time></trkpt><trkpt lat="43.2647402053412" lon="2.537746379929431"><ele>66.66666666666666</ele><time>2026-03-22T10:44:24Z</time></trkpt><trkpt lat="43.26466746590699" lon="2.538026500289945"><ele>66.33333333333333</ele><time>2026-03-22T10:44:25Z</time></trkpt><trkpt lat="43.264595455311174" lon="2.5383038091200243"><ele>66.0</ele><time>2026-03-22T10:44:26Z</time></trkpt><trkpt lat="43.26452114547546" lon="2.5385899721875305"><ele>66.0</ele><time>2026-03-22T10:44:27Z</time></trkpt><trkpt lat="43.26445276613828" lon="2.5388610474583158"><ele>66.0</ele><time>2026-03-22T10:44:28Z</time></trkpt><trkpt lat="43.264417563966674" lon="2.5391364239678325"><ele>66.0</ele><time>2026-03-22T10:44:29Z</time></trkpt><trkpt lat="43.26435447004204" lon="2.5394036467662455"><ele>66.0</ele><time>2026-03-22T10:44:30Z</time></trkpt><trkpt lat="43.264285405725836" lon="2.539670013428489"><ele>66.0</ele><time>2026-03-22T10:44:31Z</time></trkpt><trkpt lat="43.26421887113155" lon="2.539931333951386"><ele>66.0</ele><time>2026-03-22T10:44:32Z</time></trkpt><trkpt lat="43.264150654146185" lon="2.540194680019726"><ele>66.0</ele><time>2026-03-22T10:44:33Z</time></trkpt><trkpt lat="43.26408400638552" lon="2.540453472586809"><ele>66.0</ele><time>2026-03-22T10:44:34Z</time></trkpt><trkpt lat="43.26401509284383" lon="2.54072404556979"><ele>66.0</ele><time>2026-03-22T10:44:35Z</time></trkpt><trkpt lat="43.2639453790385" lon="2.5409919383812434"><ele>66.0</ele><time>2026-03-22T10:44:36Z</time></trkpt><trkpt lat="43.26387478780764" lon="2.541264481492734"><ele>66.0</ele><time>2026-03-22T10:44:37Z</time></trkpt><trkpt lat="43.26380588435188" lon="2.5415326103099405"><ele>66.0</ele><time>2026-03-22T10:44:38Z</time></trkpt><trkpt lat="43.26373629731088" lon="2.541794809958469"><ele>66.33333333333333</ele><time>2026-03-22T10:44:39Z</time></trkpt><trkpt lat="43.26366518117327" lon="2.5420615255593138"><ele>66.66666666666666</ele><time>2026-03-22T10:44:40Z</time></trkpt><trkpt lat="43.26359311908354" lon="2.5423323783724063"><ele>67.0</ele><time>2026-03-22T10:44:41Z</time></trkpt><trkpt lat="43.26352283924163" lon="2.542595218867299"><ele>67.0</ele><time>2026-03-22T10:44:42Z</time></trkpt><trkpt lat="43.2634550755175" lon="2.5428487899135437"><ele>67.0</ele><time>2026-03-22T10:44:43Z</time></trkpt><trkpt lat="43.263393003939115" lon="2.5431022942972796"><ele>67.0</ele><time>2026-03-22T10:44:44Z</time></trkpt><trkpt lat="43.2633277017667" lon="2.5433676402617804"><ele>66.66666666666666</ele><time>2026-03-22T10:44:45Z</time></trkpt><trkpt lat="43.263264711017655" lon="2.543621304838739"><ele>66.33333333333333</ele><time>2026-03-22T10:44:46Z</time></trkpt><trkpt lat="43.26319586994342" lon="2.543897653086338"><ele>66.0</ele><time>2026-03-22T10:44:47Z</time></trkpt><trkpt lat="43.26313107457354" lon="2.5441633648154127"><ele>66.0</ele><time>2026-03-22T10:44:48Z</time></trkpt><trkpt lat="43.26306239316887" lon="2.544412607723231"><ele>66.0</ele><time>2026-03-22T10:44:49Z</time></trkpt><trkpt lat="43.262998291406724" lon="2.5446600758472133"><ele>66.0</ele><time>2026-03-22T10:44:50Z</time></trkpt><trkpt lat="43.26293117034503" lon="2.544927919849234"><ele>66.0</ele><time>2026-03-22T10:44:51Z</time></trkpt><trkpt lat="43.26286111706782" lon="2.5452036105756326"><ele>66.0</ele><time>2026-03-22T10:44:52Z</time></trkpt><trkpt lat="43.26278872979832" lon="2.5454889384112973"><ele>66.0</ele><time>2026-03-22T10:44:53Z</time></trkpt><trkpt lat="43.26271377263114" lon="2.545774565416395"><ele>66.33333333333333</ele><time>2026-03-22T10:44:54Z</time></trkpt><trkpt lat="43.26264024861528" lon="2.5460546474030075"><ele>66.66666666666666</ele><time>2026-03-22T10:44:55Z</time></trkpt><trkpt lat="43.262569860452786" lon="2.5463180371643084"><ele>67.0</ele><time>2026-03-22T10:44:56Z</time></trkpt><trkpt lat="43.26250466856635" lon="2.5465724411483626"><ele>67.0</ele><time>2026-03-22T10:44:57Z</time></trkpt><trkpt lat="43.262441120362894" lon="2.546829524485747"><ele>67.0</ele><time>2026-03-22T10:44:58Z</time></trkpt><trkpt lat="43.2623738555367" lon="2.5470945857479514"><ele>67.0</ele><time>2026-03-22T10:44:59Z</time></trkpt><trkpt lat="43.26230199299613" lon="2.547372895503353"><ele>68.0</ele><time>2026-03-22T10:45:00Z</time></trkpt><trkpt lat="43.26222849593653" lon="2.5476520480575884"><ele>69.0</ele><time>2026-03-22T10:45:01Z</time></trkpt><trkpt lat="43.262155849457336" lon="2.54794420531503"><ele>70.0</ele><time>2026-03-22T10:45:02Z</time></trkpt><trkpt lat="43.26207978564384" lon="2.548239195775523"><ele>71.0</ele><time>2026-03-22T10:45:03Z</time></trkpt><trkpt lat="43.262006296117555" lon="2.5485190205252097"><ele>72.0</ele><time>2026-03-22T10:45:04Z</time></trkpt><trkpt lat="43.26193525088425" lon="2.5487829677617424"><ele>73.0</ele><time>2026-03-22T10:45:05Z</time></trkpt><trkpt lat="43.26186636911034" lon="2.5490295289663263"><ele>73.33333333333333</ele><time>2026-03-22T10:45:06Z</time></trkpt><trkpt lat="43.261801522559466" lon="2.549274315668367"><ele>73.66666666666667</ele><time>2026-03-22T10:45:07Z</time></trkpt><trkpt lat="43.26173969266162" lon="2.549532796206183"><ele>74.0</ele><time>2026-03-22T10:45:08Z</time></trkpt><trkpt lat="43.26167374684066" lon="2.5497924831225163"><ele>74.0</ele><time>2026-03-22T10:45:09Z</time></trkpt><trkpt lat="43.261603565249914" lon="2.5500538993843933"><ele>74.0</ele><time>2026-03-22T10:45:10Z</time></trkpt><trkpt lat="43.261534817908704" lon="2.550306288491021"><ele>74.0</ele><time>2026-03-22T10:45:11Z</time></trkpt><trkpt lat="43.261470890400126" lon="2.5505618510684154"><ele>73.33333333333334</ele><time>2026-03-22T10:45:12Z</time></trkpt><trkpt lat="43.26140809545086" lon="2.550817012567004"><ele>72.66666666666667</ele><time>2026-03-22T10:45:13Z</time></trkpt><trkpt lat="43.26134756593842" lon="2.551051767357931"><ele>72.0</ele><time>2026-03-22T10:45:14Z</time></trkpt><trkpt lat="43.26129430368552" lon="2.5512816515793797"><ele>72.0</ele><time>2026-03-22T10:45:15Z</time></trkpt><trkpt lat="43.26124742235993" lon="2.551534759368901"><ele>72.0</ele><time>2026-03-22T10:45:16Z</time></trkpt><trkpt lat="43.261211306159375" lon="2.5518077102950514"><ele>72.0</ele><time>2026-03-22T10:45:17Z</time></trkpt><trkpt lat="43.2611718411546" lon="2.5520918192032367"><ele>71.66666666666667</ele><time>2026-03-22T10:45:18Z</time></trkpt><trkpt lat="43.26113688752037" lon="2.552368114780156"><ele>71.33333333333334</ele><time>2026-03-22T10:45:19Z</time></trkpt><trkpt lat="43.261098920882795" lon="2.5526299938597563"><ele>71.0</ele><time>2026-03-22T10:45:20Z</time></trkpt><trkpt lat="43.261060059586136" lon="2.5528973323655326"><ele>70.0</ele><time>2026-03-22T10:45:21Z</time></trkpt><trkpt lat="43.261022293560515" lon="2.553165835494669"><ele>69.0</ele><time>2026-03-22T10:45:22Z</time></trkpt><trkpt lat="43.26098429450648" lon="2.5534328429609774"><ele>68.0</ele><time>2026-03-22T10:45:23Z</time></trkpt><trkpt lat="43.26094561160823" lon="2.5536960010299232"><ele>68.33333333333334</ele><time>2026-03-22T10:45:24Z</time></trkpt><trkpt lat="43.26090512514542" lon="2.553957794973841"><ele>68.66666666666667</ele><time>2026-03-22T10:45:25Z</time></trkpt><trkpt lat="43.260869948086885" lon="2.5542162112911106"><ele>69.0</ele><time>2026-03-22T10:45:26Z</time></trkpt><trkpt lat="43.260835081095465" lon="2.554467090430907"><ele>69.33333333333333</ele><time>2026-03-22T10:45:27Z</time></trkpt><trkpt lat="43.26080086840119" lon="2.554712982780522"><ele>69.66666666666666</ele><time>2026-03-22T10:45:28Z</time></trkpt><trkpt lat="43.26076229105712" lon="2.554954750236015"><ele>70.0</ele><time>2026-03-22T10:45:29Z</time></trkpt><trkpt lat="43.26072952804761" lon="2.5551954686433636"><ele>69.0</ele><time>2026-03-22T10:45:30Z</time></trkpt><trkpt lat="43.2606918669132" lon="2.5554264276613763"><ele>68.0</ele><time>2026-03-22T10:45:31Z</time></trkpt><trkpt lat="43.26066250989083" lon="2.555656364847358"><ele>67.0</ele><time>2026-03-22T10:45:32Z</time></trkpt><trkpt lat="43.26062582863173" lon="2.5558896108524487"><ele>66.0</ele><time>2026-03-22T10:45:33Z</time></trkpt><trkpt lat="43.260598539537355" lon="2.556120501439277"><ele>65.0</ele><time>2026-03-22T10:45:34Z</time></trkpt><trkpt lat="43.26052241852996" lon="2.5563394524297167"><ele>64.0</ele><time>2026-03-22T10:45:35Z</time></trkpt><trkpt lat="43.26049072222521" lon="2.5565690294185197"><ele>63.666666666666664</ele><time>2026-03-22T10:45:35.999Z</time></trkpt><trkpt lat="43.26045923962216" lon="2.5567970584117514"><ele>63.33333333333333</ele><time>2026-03-22T10:45:36.999Z</time></trkpt><trkpt lat="43.26042905025766" lon="2.5570157207312065"><ele>63.0</ele><time>2026-03-22T10:45:37.999Z</time></trkpt><trkpt lat="43.26039981586199" lon="2.5572239507760623"><ele>62.66666666666667</ele><time>2026-03-22T10:45:38.999Z</time></trkpt><trkpt lat="43.26037013415579" lon="2.557434446864847"><ele>62.333333333333336</ele><time>2026-03-22T10:45:39.999Z</time></trkpt><trkpt lat="43.26033557859023" lon="2.557657759935049"><ele>62.0</ele><time>2026-03-22T10:45:40.999Z</time></trkpt><trkpt lat="43.26030476371457" lon="2.557886386162365"><ele>61.66666666666667</ele><time>2026-03-22T10:45:41.999Z</time></trkpt><trkpt lat="43.260271588749674" lon="2.558127923841467"><ele>61.33333333333333</ele><time>2026-03-22T10:45:42.999Z</time></trkpt><trkpt lat="43.26023560633463" lon="2.5583816786795137"><ele>61.0</ele><time>2026-03-22T10:45:43.999Z</time></trkpt><trkpt lat="43.26019986960081" lon="2.5586337004301276"><ele>61.0</ele><time>2026-03-22T10:45:44.999Z</time></trkpt><trkpt lat="43.26016572004182" lon="2.55887452897513"><ele>61.0</ele><time>2026-03-22T10:45:45.999Z</time></trkpt><trkpt lat="43.260131717019966" lon="2.5591143438970585"><ele>61.0</ele><time>2026-03-22T10:45:46.999Z</time></trkpt><trkpt lat="43.26009910990236" lon="2.5593470049658884"><ele>60.666666666666664</ele><time>2026-03-22T10:45:47.999Z</time></trkpt><trkpt lat="43.26006469047967" lon="2.5595889096106217"><ele>60.33333333333333</ele><time>2026-03-22T10:45:48.999Z</time></trkpt><trkpt lat="43.260028940749834" lon="2.5598342955107123"><ele>60.0</ele><time>2026-03-22T10:45:49.999Z</time></trkpt><trkpt lat="43.2599943592897" lon="2.56007889315889"><ele>60.0</ele><time>2026-03-22T10:45:50.999Z</time></trkpt><trkpt lat="43.259959690830485" lon="2.5603241060074824"><ele>60.0</ele><time>2026-03-22T10:45:51.999Z</time></trkpt><trkpt lat="43.25992355701576" lon="2.560571682135668"><ele>60.0</ele><time>2026-03-22T10:45:52.999Z</time></trkpt><trkpt lat="43.2598889848837" lon="2.5608063573887887"><ele>60.33333333333333</ele><time>2026-03-22T10:45:53.999Z</time></trkpt><trkpt lat="43.25985515225179" lon="2.561045618153141"><ele>60.666666666666664</ele><time>2026-03-22T10:45:54.999Z</time></trkpt><trkpt lat="43.25982162281418" lon="2.561282734866004"><ele>61.0</ele><time>2026-03-22T10:45:55.999Z</time></trkpt><trkpt lat="43.259786477637896" lon="2.561527743520282"><ele>61.0</ele><time>2026-03-22T10:45:56.999Z</time></trkpt><trkpt lat="43.2597505888283" lon="2.5617779010582344"><ele>61.0</ele><time>2026-03-22T10:45:57.999Z</time></trkpt><trkpt lat="43.25971591290043" lon="2.5620294909695653"><ele>61.0</ele><time>2026-03-22T10:45:59Z</time></trkpt><trkpt lat="43.259679955727634" lon="2.562287781443323"><ele>60.666666666666664</ele><time>2026-03-22T10:46:00Z</time></trkpt><trkpt lat="43.259643953802495" lon="2.562543984820483"><ele>60.33333333333333</ele><time>2026-03-22T10:46:01Z</time></trkpt><trkpt lat="43.259608242678034" lon="2.5627968172756526"><ele>60.0</ele><time>2026-03-22T10:46:02Z</time></trkpt><trkpt lat="43.25956968470131" lon="2.563055573350139"><ele>59.33333333333333</ele><time>2026-03-22T10:46:03Z</time></trkpt><trkpt lat="43.25953126717767" lon="2.563313569317937"><ele>58.666666666666664</ele><time>2026-03-22T10:46:04Z</time></trkpt><trkpt lat="43.259496118249764" lon="2.5635651142252005"><ele>58.0</ele><time>2026-03-22T10:46:05Z</time></trkpt><trkpt lat="43.25945931451573" lon="2.5638197748716474"><ele>58.0</ele><time>2026-03-22T10:46:06Z</time></trkpt><trkpt lat="43.2594238268307" lon="2.564074827640639"><ele>58.0</ele><time>2026-03-22T10:46:07Z</time></trkpt><trkpt lat="43.259387514928946" lon="2.564328204665088"><ele>58.0</ele><time>2026-03-22T10:46:08Z</time></trkpt><trkpt lat="43.259351363889074" lon="2.5645804595903434"><ele>58.0</ele><time>2026-03-22T10:46:09Z</time></trkpt><trkpt lat="43.25931556517163" lon="2.5648360491624578"><ele>58.0</ele><time>2026-03-22T10:46:10Z</time></trkpt><trkpt lat="43.259279285051264" lon="2.5651085625500585"><ele>58.0</ele><time>2026-03-22T10:46:11Z</time></trkpt><trkpt lat="43.259255408680275" lon="2.5654277862670547"><ele>58.0</ele><time>2026-03-22T10:46:12Z</time></trkpt><trkpt lat="43.259262033631465" lon="2.5657565365400727"><ele>58.0</ele><time>2026-03-22T10:46:13Z</time></trkpt><trkpt lat="43.25929669126139" lon="2.5660780718272314"><ele>58.5</ele><time>2026-03-22T10:46:14Z</time></trkpt><trkpt lat="43.259338722839445" lon="2.5663853475955913"><ele>59.0</ele><time>2026-03-22T10:46:15Z</time></trkpt><trkpt lat="43.259382745865665" lon="2.566726487235186"><ele>59.5</ele><time>2026-03-22T10:46:16Z</time></trkpt><trkpt lat="43.25942605720463" lon="2.567081283502358"><ele>60.0</ele><time>2026-03-22T10:46:17Z</time></trkpt><trkpt lat="43.25946946140147" lon="2.5674428049192963"><ele>60.0</ele><time>2026-03-22T10:46:18Z</time></trkpt><trkpt lat="43.25951503227273" lon="2.567798650067972"><ele>60.0</ele><time>2026-03-22T10:46:19Z</time></trkpt><trkpt lat="43.25955929910159" lon="2.568153940452669"><ele>60.0</ele><time>2026-03-22T10:46:20Z</time></trkpt><trkpt lat="43.25960623203637" lon="2.5685090965060557"><ele>60.0</ele><time>2026-03-22T10:46:21Z</time></trkpt><trkpt lat="43.25965361777948" lon="2.568863369564815"><ele>60.0</ele><time>2026-03-22T10:46:22Z</time></trkpt><trkpt lat="43.25969857051407" lon="2.5692081194835414"><ele>60.0</ele><time>2026-03-22T10:46:23Z</time></trkpt><trkpt lat="43.25973938226697" lon="2.569538304858621"><ele>60.0</ele><time>2026-03-22T10:46:24Z</time></trkpt><trkpt lat="43.25977837047324" lon="2.569862517716084"><ele>60.0</ele><time>2026-03-22T10:46:25Z</time></trkpt><trkpt lat="43.25981778213668" lon="2.5701803534699996"><ele>60.0</ele><time>2026-03-22T10:46:26Z</time></trkpt><trkpt lat="43.25985790874379" lon="2.570498639963785"><ele>60.0</ele><time>2026-03-22T10:46:27Z</time></trkpt><trkpt lat="43.25989851745746" lon="2.5708191082043124"><ele>60.0</ele><time>2026-03-22T10:46:28Z</time></trkpt><trkpt lat="43.259943450716904" lon="2.5711386169676773"><ele>60.0</ele><time>2026-03-22T10:46:29Z</time></trkpt><trkpt lat="43.259982192656835" lon="2.5714552089248657"><ele>60.0</ele><time>2026-03-22T10:46:30Z</time></trkpt><trkpt lat="43.260022216319946" lon="2.571780198409897"><ele>60.0</ele><time>2026-03-22T10:46:31Z</time></trkpt><trkpt lat="43.26006208686599" lon="2.572100668101207"><ele>60.0</ele><time>2026-03-22T10:46:32Z</time></trkpt><trkpt lat="43.2601030707025" lon="2.5724247310037285"><ele>60.0</ele><time>2026-03-22T10:46:33Z</time></trkpt><trkpt lat="43.26014422102457" lon="2.572748944480481"><ele>60.0</ele><time>2026-03-22T10:46:34Z</time></trkpt><trkpt lat="43.2601847106328" lon="2.573064570752764"><ele>60.0</ele><time>2026-03-22T10:46:35Z</time></trkpt><trkpt lat="43.26022765082252" lon="2.573386578589435"><ele>61.5</ele><time>2026-03-22T10:46:36Z</time></trkpt><trkpt lat="43.260270266007005" lon="2.5737207689518042"><ele>63.0</ele><time>2026-03-22T10:46:37Z</time></trkpt><trkpt lat="43.260315431082816" lon="2.5740738135123404"><ele>63.0</ele><time>2026-03-22T10:46:38Z</time></trkpt><trkpt lat="43.260363934462916" lon="2.574441082481714"><ele>63.0</ele><time>2026-03-22T10:46:39Z</time></trkpt><trkpt lat="43.26041320580087" lon="2.574814166067357"><ele>64.0</ele><time>2026-03-22T10:46:40Z</time></trkpt><trkpt lat="43.260457173396716" lon="2.5751524988408683"><ele>65.0</ele><time>2026-03-22T10:46:41Z</time></trkpt><trkpt lat="43.26049815929684" lon="2.5754721574938966"><ele>67.0</ele><time>2026-03-22T10:46:42Z</time></trkpt><trkpt lat="43.2605381353398" lon="2.575783457904698"><ele>69.0</ele><time>2026-03-22T10:46:43Z</time></trkpt><trkpt lat="43.26057716563586" lon="2.576087393833465"><ele>69.66666666666667</ele><time>2026-03-22T10:46:44Z</time></trkpt><trkpt lat="43.2606148070637" lon="2.5763866635406947"><ele>70.33333333333334</ele><time>2026-03-22T10:46:45Z</time></trkpt><trkpt lat="43.26065126613893" lon="2.5766876630047726"><ele>71.0</ele><time>2026-03-22T10:46:46Z</time></trkpt><trkpt lat="43.260688970678856" lon="2.576990475043921"><ele>68.0</ele><time>2026-03-22T10:46:47Z</time></trkpt><trkpt lat="43.260725699080965" lon="2.577280047144089"><ele>65.0</ele><time>2026-03-22T10:46:48Z</time></trkpt><trkpt lat="43.26076195408285" lon="2.5775666441740923"><ele>62.0</ele><time>2026-03-22T10:46:49Z</time></trkpt><trkpt lat="43.26079845233419" lon="2.5778564098996917"><ele>61.66666666666667</ele><time>2026-03-22T10:46:50Z</time></trkpt><trkpt lat="43.26083513292337" lon="2.5781455759125755"><ele>61.33333333333333</ele><time>2026-03-22T10:46:51Z</time></trkpt><trkpt lat="43.260871176004606" lon="2.5784279514128206"><ele>61.0</ele><time>2026-03-22T10:46:52Z</time></trkpt><trkpt lat="43.2609088111874" lon="2.5787130121818183"><ele>60.666666666666664</ele><time>2026-03-22T10:46:53Z</time></trkpt><trkpt lat="43.26094926066248" lon="2.578998024637651"><ele>60.33333333333333</ele><time>2026-03-22T10:46:54Z</time></trkpt><trkpt lat="43.26098206702014" lon="2.579289059879635"><ele>60.0</ele><time>2026-03-22T10:46:55Z</time></trkpt><trkpt lat="43.261018709605366" lon="2.579592170064401"><ele>60.0</ele><time>2026-03-22T10:46:56Z</time></trkpt><trkpt lat="43.26105850238095" lon="2.579891633261527"><ele>60.0</ele><time>2026-03-22T10:46:57Z</time></trkpt><trkpt lat="43.261098111419194" lon="2.580183565093219"><ele>60.0</ele><time>2026-03-22T10:46:58Z</time></trkpt><trkpt lat="43.26113494790004" lon="2.580468918839779"><ele>60.0</ele><time>2026-03-22T10:46:59Z</time></trkpt><trkpt lat="43.26116720674643" lon="2.580744805667354"><ele>60.0</ele><time>2026-03-22T10:47:00Z</time></trkpt><trkpt lat="43.26119395432885" lon="2.5810316783777303"><ele>60.0</ele><time>2026-03-22T10:47:01Z</time></trkpt><trkpt lat="43.2612192158664" lon="2.5813233780764966"><ele>61.33333333333333</ele><time>2026-03-22T10:47:02Z</time></trkpt><trkpt lat="43.26124447232755" lon="2.581615019137532"><ele>62.666666666666664</ele><time>2026-03-22T10:47:03Z</time></trkpt><trkpt lat="43.26123889106181" lon="2.5819206440851303"><ele>64.0</ele><time>2026-03-22T10:47:04Z</time></trkpt><trkpt lat="43.261211859428634" lon="2.5822297546832247"><ele>64.33333333333333</ele><time>2026-03-22T10:47:05Z</time></trkpt><trkpt lat="43.26119865417007" lon="2.5825127207473217"><ele>64.66666666666667</ele><time>2026-03-22T10:47:06Z</time></trkpt><trkpt lat="43.261185710306755" lon="2.5827777769818647"><ele>65.0</ele><time>2026-03-22T10:47:07Z</time></trkpt><trkpt lat="43.261175101563936" lon="2.583038790700819"><ele>65.0</ele><time>2026-03-22T10:47:08Z</time></trkpt><trkpt lat="43.26116353203778" lon="2.5832996692609416"><ele>65.0</ele><time>2026-03-22T10:47:09Z</time></trkpt><trkpt lat="43.26115828138738" lon="2.5835456168767044"><ele>65.0</ele><time>2026-03-22T10:47:10Z</time></trkpt><trkpt lat="43.26116690759208" lon="2.5837874837216157"><ele>64.66666666666667</ele><time>2026-03-22T10:47:11Z</time></trkpt><trkpt lat="43.261189692767346" lon="2.584067842459221"><ele>64.33333333333333</ele><time>2026-03-22T10:47:12Z</time></trkpt><trkpt lat="43.26121138160213" lon="2.5843525047900773"><ele>64.0</ele><time>2026-03-22T10:47:13Z</time></trkpt><trkpt lat="43.26123328609302" lon="2.5846093618235866"><ele>63.33333333333333</ele><time>2026-03-22T10:47:14Z</time></trkpt><trkpt lat="43.261255690119405" lon="2.5848621366070477"><ele>62.66666666666667</ele><time>2026-03-22T10:47:15Z</time></trkpt><trkpt lat="43.261277828868195" lon="2.585105090053072"><ele>62.0</ele><time>2026-03-22T10:47:16Z</time></trkpt><trkpt lat="43.26128834141952" lon="2.585338730816254"><ele>61.0</ele><time>2026-03-22T10:47:17Z</time></trkpt><trkpt lat="43.261301776867846" lon="2.5855408663446746"><ele>60.0</ele><time>2026-03-22T10:47:18Z</time></trkpt><trkpt lat="43.261322576468906" lon="2.5857481633359827"><ele>59.0</ele><time>2026-03-22T10:47:19Z</time></trkpt><trkpt lat="43.261337743328696" lon="2.585945031598278"><ele>58.0</ele><time>2026-03-22T10:47:20Z</time></trkpt><trkpt lat="43.2613555723626" lon="2.5861453229290117"><ele>57.666666666666664</ele><time>2026-03-22T10:47:21Z</time></trkpt><trkpt lat="43.26136303423333" lon="2.5863527267777777"><ele>57.33333333333333</ele><time>2026-03-22T10:47:22Z</time></trkpt><trkpt lat="43.26136713788296" lon="2.586569776981035"><ele>57.0</ele><time>2026-03-22T10:47:23Z</time></trkpt><trkpt lat="43.26136886272601" lon="2.5868089855376173"><ele>57.0</ele><time>2026-03-22T10:47:24Z</time></trkpt><trkpt lat="43.26136845381197" lon="2.5870546646664425"><ele>57.0</ele><time>2026-03-22T10:47:25Z</time></trkpt><trkpt lat="43.261350592040294" lon="2.5872974152835035"><ele>57.0</ele><time>2026-03-22T10:47:26Z</time></trkpt><trkpt lat="43.26133096084922" lon="2.587534171077962"><ele>57.0</ele><time>2026-03-22T10:47:27Z</time></trkpt><trkpt lat="43.26130224397936" lon="2.587769110949884"><ele>57.0</ele><time>2026-03-22T10:47:28Z</time></trkpt><trkpt lat="43.26127445558864" lon="2.5880079111343015"><ele>57.0</ele><time>2026-03-22T10:47:29Z</time></trkpt><trkpt lat="43.26124618992561" lon="2.5882399083373024"><ele>57.33333333333333</ele><time>2026-03-22T10:47:30Z</time></trkpt><trkpt lat="43.26121556681175" lon="2.588463811754973"><ele>57.666666666666664</ele><time>2026-03-22T10:47:31Z</time></trkpt><trkpt lat="43.26118822367866" lon="2.588695559543904"><ele>58.0</ele><time>2026-03-22T10:47:32Z</time></trkpt><trkpt lat="43.26115650806605" lon="2.5889288059137296"><ele>58.33333333333333</ele><time>2026-03-22T10:47:33Z</time></trkpt><trkpt lat="43.26112345138834" lon="2.589162318062908"><ele>58.66666666666667</ele><time>2026-03-22T10:47:34Z</time></trkpt><trkpt lat="43.261092629314376" lon="2.5893985250845954"><ele>59.0</ele><time>2026-03-22T10:47:35Z</time></trkpt><trkpt lat="43.26104678257575" lon="2.5896395931089207"><ele>59.0</ele><time>2026-03-22T10:47:36Z</time></trkpt><trkpt lat="43.26098450220432" lon="2.589871534566744"><ele>59.0</ele><time>2026-03-22T10:47:37Z</time></trkpt><trkpt lat="43.26090663054191" lon="2.590093553497952"><ele>59.0</ele><time>2026-03-22T10:47:38Z</time></trkpt><trkpt lat="43.26081606218801" lon="2.5903128318668878"><ele>58.66666666666667</ele><time>2026-03-22T10:47:39Z</time></trkpt><trkpt lat="43.260716944536405" lon="2.590495039215738"><ele>58.33333333333333</ele><time>2026-03-22T10:47:40Z</time></trkpt><trkpt lat="43.2605940643639" lon="2.5906431040374454"><ele>58.0</ele><time>2026-03-22T10:47:41Z</time></trkpt><trkpt lat="43.260447173311114" lon="2.590795040110946"><ele>58.0</ele><time>2026-03-22T10:47:42Z</time></trkpt><trkpt lat="43.26031989388931" lon="2.5909635582866697"><ele>58.0</ele><time>2026-03-22T10:47:43Z</time></trkpt><trkpt lat="43.26019246862891" lon="2.5911516491630886"><ele>58.0</ele><time>2026-03-22T10:47:44Z</time></trkpt><trkpt lat="43.26005344629619" lon="2.5913386795029116"><ele>59.0</ele><time>2026-03-22T10:47:45Z</time></trkpt><trkpt lat="43.25991382493313" lon="2.5915199135157847"><ele>60.0</ele><time>2026-03-22T10:47:46Z</time></trkpt><trkpt lat="43.2597794892137" lon="2.5916920023752748"><ele>61.0</ele><time>2026-03-22T10:47:47Z</time></trkpt><trkpt lat="43.25964390916142" lon="2.591863012265909"><ele>62.666666666666664</ele><time>2026-03-22T10:47:48Z</time></trkpt><trkpt lat="43.25951518981171" lon="2.5920268073549404"><ele>64.33333333333333</ele><time>2026-03-22T10:47:49Z</time></trkpt><trkpt lat="43.25939483837648" lon="2.592182728731931"><ele>66.0</ele><time>2026-03-22T10:47:49.999Z</time></trkpt><trkpt lat="43.25928135011733" lon="2.592329865597406"><ele>66.0</ele><time>2026-03-22T10:47:50.999Z</time></trkpt><trkpt lat="43.259170786389575" lon="2.592469855670814"><ele>66.0</ele><time>2026-03-22T10:47:51.999Z</time></trkpt><trkpt lat="43.25906682246211" lon="2.5926092189440437"><ele>66.0</ele><time>2026-03-22T10:47:52.999Z</time></trkpt><trkpt lat="43.25897568902445" lon="2.592735359807702"><ele>66.0</ele><time>2026-03-22T10:47:53.999Z</time></trkpt><trkpt lat="43.2588929687589" lon="2.5928550651172757"><ele>65.5</ele><time>2026-03-22T10:47:54.999Z</time></trkpt><trkpt lat="43.25881205437934" lon="2.5929621437434553"><ele>65.0</ele><time>2026-03-22T10:47:55.999Z</time></trkpt><trkpt lat="43.25872202291714" lon="2.593060256671715"><ele>64.5</ele><time>2026-03-22T10:47:56.999Z</time></trkpt><trkpt lat="43.2586012536541" lon="2.593151693765023"><ele>64.0</ele><time>2026-03-22T10:47:57.999Z</time></trkpt><trkpt lat="43.258458290565365" lon="2.5932332377688603"><ele>64.0</ele><time>2026-03-22T10:47:58.999Z</time></trkpt><trkpt lat="43.25830643836596" lon="2.5933012938304185"><ele>64.0</ele><time>2026-03-22T10:47:59.999Z</time></trkpt><trkpt lat="43.25815688280479" lon="2.5933612573674125"><ele>64.0</ele><time>2026-03-22T10:48:00.999Z</time></trkpt><trkpt lat="43.25799735971544" lon="2.5934261031031247"><ele>62.666666666666664</ele><time>2026-03-22T10:48:01.999Z</time></trkpt><trkpt lat="43.25782629868647" lon="2.593492965956229"><ele>61.33333333333333</ele><time>2026-03-22T10:48:02.999Z</time></trkpt><trkpt lat="43.25764274085872" lon="2.593565584772586"><ele>60.0</ele><time>2026-03-22T10:48:03.999Z</time></trkpt><trkpt lat="43.25745263089102" lon="2.5936444447862987"><ele>60.0</ele><time>2026-03-22T10:48:05Z</time></trkpt><trkpt lat="43.25725640666509" lon="2.5937251755331054"><ele>60.0</ele><time>2026-03-22T10:48:06Z</time></trkpt><trkpt lat="43.257058899243646" lon="2.5938090240178853"><ele>60.0</ele><time>2026-03-22T10:48:07Z</time></trkpt><trkpt lat="43.25685620300481" lon="2.5938926618442246"><ele>60.0</ele><time>2026-03-22T10:48:08Z</time></trkpt><trkpt lat="43.256641431678304" lon="2.5939793223456635"><ele>60.0</ele><time>2026-03-22T10:48:09Z</time></trkpt><trkpt lat="43.25643516318318" lon="2.5940646643667717"><ele>60.0</ele><time>2026-03-22T10:48:10Z</time></trkpt><trkpt lat="43.25623410292397" lon="2.594150659330101"><ele>59.33333333333333</ele><time>2026-03-22T10:48:11Z</time></trkpt><trkpt lat="43.25602333329762" lon="2.5942366596144026"><ele>58.666666666666664</ele><time>2026-03-22T10:48:12Z</time></trkpt><trkpt lat="43.25580546554881" lon="2.5943223394313386"><ele>58.0</ele><time>2026-03-22T10:48:13Z</time></trkpt><trkpt lat="43.25559057005335" lon="2.59441111014107"><ele>58.0</ele><time>2026-03-22T10:48:14Z</time></trkpt><trkpt lat="43.25537459415276" lon="2.59449972293961"><ele>58.0</ele><time>2026-03-22T10:48:15Z</time></trkpt><trkpt lat="43.255156459075494" lon="2.5945897755884655"><ele>58.0</ele><time>2026-03-22T10:48:16Z</time></trkpt><trkpt lat="43.25494573823967" lon="2.5946766517372235"><ele>58.0</ele><time>2026-03-22T10:48:17Z</time></trkpt><trkpt lat="43.254737921610186" lon="2.5947618954390115"><ele>58.0</ele><time>2026-03-22T10:48:18Z</time></trkpt><trkpt lat="43.25452814727015" lon="2.594847888537622"><ele>58.0</ele><time>2026-03-22T10:48:19Z</time></trkpt><trkpt lat="43.25431442580763" lon="2.594938622840974"><ele>58.0</ele><time>2026-03-22T10:48:20Z</time></trkpt><trkpt lat="43.254101101954" lon="2.5950290224940815"><ele>58.0</ele><time>2026-03-22T10:48:21Z</time></trkpt><trkpt lat="43.25388625701379" lon="2.5951200781061847"><ele>58.0</ele><time>2026-03-22T10:48:22Z</time></trkpt><trkpt lat="43.25366522534662" lon="2.5952131010223165"><ele>58.0</ele><time>2026-03-22T10:48:23Z</time></trkpt><trkpt lat="43.25344585036297" lon="2.595306030574682"><ele>58.0</ele><time>2026-03-22T10:48:24Z</time></trkpt><trkpt lat="43.25322924963816" lon="2.59539682090714"><ele>58.0</ele><time>2026-03-22T10:48:25Z</time></trkpt><trkpt lat="43.253015636157485" lon="2.595482280389203"><ele>58.0</ele><time>2026-03-22T10:48:26Z</time></trkpt><trkpt lat="43.25280816003343" lon="2.5955704848609495"><ele>58.0</ele><time>2026-03-22T10:48:27Z</time></trkpt><trkpt lat="43.25259676644794" lon="2.5956602665389736"><ele>58.0</ele><time>2026-03-22T10:48:28Z</time></trkpt><trkpt lat="43.25238115985325" lon="2.5957539540136825"><ele>58.0</ele><time>2026-03-22T10:48:29Z</time></trkpt><trkpt lat="43.252172744031206" lon="2.595842008547084"><ele>58.0</ele><time>2026-03-22T10:48:30Z</time></trkpt><trkpt lat="43.25196764102552" lon="2.5959247390422484"><ele>58.0</ele><time>2026-03-22T10:48:31Z</time></trkpt><trkpt lat="43.25176725074201" lon="2.5960097161951468"><ele>58.0</ele><time>2026-03-22T10:48:32Z</time></trkpt><trkpt lat="43.25156730138866" lon="2.596093568311405"><ele>58.666666666666664</ele><time>2026-03-22T10:48:33Z</time></trkpt><trkpt lat="43.25136985096872" lon="2.596174486497784"><ele>59.33333333333333</ele><time>2026-03-22T10:48:34Z</time></trkpt><trkpt lat="43.25117959132891" lon="2.596249790961814"><ele>60.0</ele><time>2026-03-22T10:48:35Z</time></trkpt><trkpt lat="43.25099421600833" lon="2.5963263960685596"><ele>60.0</ele><time>2026-03-22T10:48:36Z</time></trkpt><trkpt lat="43.25080483533673" lon="2.596402159333627"><ele>60.0</ele><time>2026-03-22T10:48:37Z</time></trkpt><trkpt lat="43.25061791174601" lon="2.5964744674694673"><ele>60.0</ele><time>2026-03-22T10:48:38Z</time></trkpt><trkpt lat="43.25043312690319" lon="2.5965517325599348"><ele>59.66666666666667</ele><time>2026-03-22T10:48:39Z</time></trkpt><trkpt lat="43.250241106457175" lon="2.596612821993111"><ele>59.333333333333336</ele><time>2026-03-22T10:48:40Z</time></trkpt><trkpt lat="43.250045922029244" lon="2.5966920565579006"><ele>59.0</ele><time>2026-03-22T10:48:41Z</time></trkpt><trkpt lat="43.249837676623535" lon="2.5967789236522334"><ele>58.5</ele><time>2026-03-22T10:48:42Z</time></trkpt><trkpt lat="43.24962152115585" lon="2.596870537804724"><ele>58.0</ele><time>2026-03-22T10:48:43Z</time></trkpt><trkpt lat="43.24940744176523" lon="2.5969617951605652"><ele>58.5</ele><time>2026-03-22T10:48:44Z</time></trkpt><trkpt lat="43.24919203381632" lon="2.5970736748089145"><ele>59.0</ele><time>2026-03-22T10:48:45Z</time></trkpt><trkpt lat="43.24897075684353" lon="2.597168307026119"><ele>59.0</ele><time>2026-03-22T10:48:46Z</time></trkpt><trkpt lat="43.24875347929567" lon="2.597262266971331"><ele>59.0</ele><time>2026-03-22T10:48:47Z</time></trkpt><trkpt lat="43.24853782357936" lon="2.597351864959293"><ele>59.0</ele><time>2026-03-22T10:48:48Z</time></trkpt><trkpt lat="43.24832205649883" lon="2.597439403822478"><ele>59.0</ele><time>2026-03-22T10:48:49Z</time></trkpt><trkpt lat="43.2481104323009" lon="2.597528215439539"><ele>59.0</ele><time>2026-03-22T10:48:50Z</time></trkpt><trkpt lat="43.2479001915305" lon="2.5976193247943185"><ele>59.0</ele><time>2026-03-22T10:48:51Z</time></trkpt><trkpt lat="43.24768926342394" lon="2.597708664195179"><ele>59.0</ele><time>2026-03-22T10:48:52Z</time></trkpt><trkpt lat="43.24748154094496" lon="2.5977933379955074"><ele>59.0</ele><time>2026-03-22T10:48:53Z</time></trkpt><trkpt lat="43.2472673179973" lon="2.597883763942774"><ele>59.0</ele><time>2026-03-22T10:48:54Z</time></trkpt><trkpt lat="43.247059834658884" lon="2.5979700890059085"><ele>59.0</ele><time>2026-03-22T10:48:55Z</time></trkpt><trkpt lat="43.24685035688126" lon="2.598060968993141"><ele>59.0</ele><time>2026-03-22T10:48:56Z</time></trkpt><trkpt lat="43.24664083428165" lon="2.5981484042630747"><ele>59.0</ele><time>2026-03-22T10:48:57Z</time></trkpt><trkpt lat="43.24642674812078" lon="2.598237251593029"><ele>59.0</ele><time>2026-03-22T10:48:58Z</time></trkpt><trkpt lat="43.24621131704016" lon="2.59832638263861"><ele>59.0</ele><time>2026-03-22T10:48:59Z</time></trkpt><trkpt lat="43.245996594896106" lon="2.598417915716011"><ele>59.0</ele><time>2026-03-22T10:49:00Z</time></trkpt><trkpt lat="43.245781543259454" lon="2.598508219826546"><ele>59.0</ele><time>2026-03-22T10:49:01Z</time></trkpt><trkpt lat="43.245567253962236" lon="2.59859757474213"><ele>59.0</ele><time>2026-03-22T10:49:02Z</time></trkpt><trkpt lat="43.24535249566215" lon="2.5986907687570246"><ele>60.0</ele><time>2026-03-22T10:49:03Z</time></trkpt><trkpt lat="43.24513896923409" lon="2.59878431435721"><ele>61.0</ele><time>2026-03-22T10:49:04Z</time></trkpt><trkpt lat="43.24491924312432" lon="2.598875081301613"><ele>61.0</ele><time>2026-03-22T10:49:05Z</time></trkpt><trkpt lat="43.24470557364847" lon="2.598964737268172"><ele>61.0</ele><time>2026-03-22T10:49:06Z</time></trkpt><trkpt lat="43.24449160605364" lon="2.5990547080009283"><ele>61.0</ele><time>2026-03-22T10:49:07Z</time></trkpt><trkpt lat="43.24427643859583" lon="2.5991429423013566"><ele>61.0</ele><time>2026-03-22T10:49:08Z</time></trkpt><trkpt lat="43.244061932319" lon="2.599230509703529"><ele>61.0</ele><time>2026-03-22T10:49:09Z</time></trkpt><trkpt lat="43.24384250185339" lon="2.5993256923334234"><ele>61.0</ele><time>2026-03-22T10:49:10Z</time></trkpt><trkpt lat="43.2436298086761" lon="2.599417130625247"><ele>61.0</ele><time>2026-03-22T10:49:11Z</time></trkpt><trkpt lat="43.24342797580651" lon="2.5995036899274484"><ele>61.0</ele><time>2026-03-22T10:49:12Z</time></trkpt><trkpt lat="43.24322609491045" lon="2.599588167942603"><ele>61.0</ele><time>2026-03-22T10:49:13Z</time></trkpt><trkpt lat="43.2430216525755" lon="2.599668153335032"><ele>61.0</ele><time>2026-03-22T10:49:14Z</time></trkpt><trkpt lat="43.2428159263001" lon="2.5997549225846854"><ele>61.0</ele><time>2026-03-22T10:49:15Z</time></trkpt><trkpt lat="43.24261109131918" lon="2.5998424805738405"><ele>61.0</ele><time>2026-03-22T10:49:16Z</time></trkpt><trkpt lat="43.242405829842504" lon="2.59992957559436"><ele>61.0</ele><time>2026-03-22T10:49:17Z</time></trkpt><trkpt lat="43.242207806169176" lon="2.6000106763273214"><ele>61.0</ele><time>2026-03-22T10:49:18Z</time></trkpt><trkpt lat="43.24201189568014" lon="2.6000912530727467"><ele>61.33333333333333</ele><time>2026-03-22T10:49:19Z</time></trkpt><trkpt lat="43.24181706286467" lon="2.6001721914898264"><ele>61.66666666666667</ele><time>2026-03-22T10:49:20Z</time></trkpt><trkpt lat="43.241623502890924" lon="2.6002527910204134"><ele>62.0</ele><time>2026-03-22T10:49:21Z</time></trkpt><trkpt lat="43.241426878595945" lon="2.6003332587452284"><ele>62.333333333333336</ele><time>2026-03-22T10:49:22Z</time></trkpt><trkpt lat="43.24122318010601" lon="2.6004156313893194"><ele>62.66666666666667</ele><time>2026-03-22T10:49:23Z</time></trkpt><trkpt lat="43.24101599654914" lon="2.6005010505314203"><ele>63.0</ele><time>2026-03-22T10:49:24Z</time></trkpt><trkpt lat="43.24080870066834" lon="2.600587620262517"><ele>62.66666666666667</ele><time>2026-03-22T10:49:25Z</time></trkpt><trkpt lat="43.24059761082988" lon="2.6006758486486774"><ele>62.333333333333336</ele><time>2026-03-22T10:49:26Z</time></trkpt><trkpt lat="43.240382204161286" lon="2.6007667315893976"><ele>62.0</ele><time>2026-03-22T10:49:27Z</time></trkpt><trkpt lat="43.240165230425035" lon="2.6008585899013914"><ele>62.0</ele><time>2026-03-22T10:49:28Z</time></trkpt><trkpt lat="43.239948837787246" lon="2.6009480898333464"><ele>62.0</ele><time>2026-03-22T10:49:29Z</time></trkpt><trkpt lat="43.23973418604882" lon="2.601040204446942"><ele>61.66666666666667</ele><time>2026-03-22T10:49:30Z</time></trkpt><trkpt lat="43.239518398881245" lon="2.601131754789219"><ele>61.33333333333333</ele><time>2026-03-22T10:49:31Z</time></trkpt><trkpt lat="43.239309324679944" lon="2.601217847934978"><ele>61.0</ele><time>2026-03-22T10:49:32Z</time></trkpt><trkpt lat="43.23909399304418" lon="2.601309895390866"><ele>62.0</ele><time>2026-03-22T10:49:33Z</time></trkpt><trkpt lat="43.23888477253637" lon="2.6013941313101174"><ele>63.0</ele><time>2026-03-22T10:49:33.999Z</time></trkpt><trkpt lat="43.23867286260095" lon="2.601482893127729"><ele>64.0</ele><time>2026-03-22T10:49:34.999Z</time></trkpt><trkpt lat="43.23846179310324" lon="2.601568538608973"><ele>64.0</ele><time>2026-03-22T10:49:35.999Z</time></trkpt><trkpt lat="43.23824913435399" lon="2.6016533671963673"><ele>64.0</ele><time>2026-03-22T10:49:36.999Z</time></trkpt><trkpt lat="43.23803715830689" lon="2.6017408738936294"><ele>64.0</ele><time>2026-03-22T10:49:37.999Z</time></trkpt><trkpt lat="43.23782348545619" lon="2.601827491613722"><ele>64.0</ele><time>2026-03-22T10:49:38.999Z</time></trkpt><trkpt lat="43.2376094773788" lon="2.6019184202885404"><ele>64.0</ele><time>2026-03-22T10:49:39.999Z</time></trkpt><trkpt lat="43.23739953571109" lon="2.602007882381922"><ele>64.0</ele><time>2026-03-22T10:49:40.999Z</time></trkpt><trkpt lat="43.237203125850485" lon="2.6020882331440296"><ele>64.66666666666666</ele><time>2026-03-22T10:49:41.999Z</time></trkpt><trkpt lat="43.23701283873047" lon="2.602168898514292"><ele>65.33333333333333</ele><time>2026-03-22T10:49:42.999Z</time></trkpt><trkpt lat="43.23681944045735" lon="2.6022520531494306"><ele>66.0</ele><time>2026-03-22T10:49:43.999Z</time></trkpt><trkpt lat="43.2366285094902" lon="2.6023340224390896"><ele>66.33333333333333</ele><time>2026-03-22T10:49:44.999Z</time></trkpt><trkpt lat="43.236432096407306" lon="2.6024132109931744"><ele>66.66666666666666</ele><time>2026-03-22T10:49:45.999Z</time></trkpt><trkpt lat="43.236238839679544" lon="2.6024916827068494"><ele>67.0</ele><time>2026-03-22T10:49:46.999Z</time></trkpt><trkpt lat="43.23604864812259" lon="2.6025692801314824"><ele>67.0</ele><time>2026-03-22T10:49:47.999Z</time></trkpt><trkpt lat="43.23585903722241" lon="2.602647655906476"><ele>67.0</ele><time>2026-03-22T10:49:48.999Z</time></trkpt><trkpt lat="43.23566507353512" lon="2.60272864838442"><ele>67.0</ele><time>2026-03-22T10:49:49.999Z</time></trkpt><trkpt lat="43.23548015034699" lon="2.6028045432036753"><ele>67.0</ele><time>2026-03-22T10:49:50.999Z</time></trkpt><trkpt lat="43.23529283772047" lon="2.602878833862472"><ele>67.0</ele><time>2026-03-22T10:49:51.999Z</time></trkpt><trkpt lat="43.23511532350504" lon="2.6029512713526497"><ele>67.0</ele><time>2026-03-22T10:49:52.999Z</time></trkpt><trkpt lat="43.2349348660064" lon="2.603030738766378"><ele>66.66666666666666</ele><time>2026-03-22T10:49:53.999Z</time></trkpt><trkpt lat="43.234765009347356" lon="2.603128690564973"><ele>66.33333333333333</ele><time>2026-03-22T10:49:54.999Z</time></trkpt><trkpt lat="43.23460627606334" lon="2.6032645750807215"><ele>66.0</ele><time>2026-03-22T10:49:55.999Z</time></trkpt><trkpt lat="43.23444695349684" lon="2.6034059857005323"><ele>66.0</ele><time>2026-03-22T10:49:56.999Z</time></trkpt><trkpt lat="43.23428940604461" lon="2.603582172107786"><ele>66.0</ele><time>2026-03-22T10:49:57.999Z</time></trkpt><trkpt lat="43.23413206122635" lon="2.603746541806603"><ele>66.0</ele><time>2026-03-22T10:49:58.999Z</time></trkpt><trkpt lat="43.233981874091825" lon="2.6038986298665336"><ele>64.66666666666667</ele><time>2026-03-22T10:49:59.999Z</time></trkpt><trkpt lat="43.23383123239442" lon="2.6040488851721095"><ele>63.333333333333336</ele><time>2026-03-22T10:50:00.999Z</time></trkpt><trkpt lat="43.23367668934216" lon="2.6042034431735464"><ele>62.0</ele><time>2026-03-22T10:50:01.999Z</time></trkpt><trkpt lat="43.23351926955739" lon="2.6043589483568974"><ele>61.66666666666667</ele><time>2026-03-22T10:50:02.999Z</time></trkpt><trkpt lat="43.23336302676771" lon="2.6045093657001823"><ele>61.33333333333333</ele><time>2026-03-22T10:50:03.999Z</time></trkpt><trkpt lat="43.23321294072536" lon="2.6046694441134006"><ele>61.0</ele><time>2026-03-22T10:50:04.999Z</time></trkpt><trkpt lat="43.23305992530449" lon="2.6048264283261386"><ele>61.0</ele><time>2026-03-22T10:50:05.999Z</time></trkpt><trkpt lat="43.23289436949521" lon="2.604992478874357"><ele>61.0</ele><time>2026-03-22T10:50:06.999Z</time></trkpt><trkpt lat="43.232726128341554" lon="2.6051607624927686"><ele>61.0</ele><time>2026-03-22T10:50:07.999Z</time></trkpt><trkpt lat="43.2325786174539" lon="2.6053098858054717"><ele>61.0</ele><time>2026-03-22T10:50:08.999Z</time></trkpt><trkpt lat="43.23244168096366" lon="2.6054352636788787"><ele>61.0</ele><time>2026-03-22T10:50:09.999Z</time></trkpt><trkpt lat="43.23229216881118" lon="2.605542351932055"><ele>61.0</ele><time>2026-03-22T10:50:11Z</time></trkpt><trkpt lat="43.232119759139415" lon="2.605613344247974"><ele>61.0</ele><time>2026-03-22T10:50:12Z</time></trkpt><trkpt lat="43.231926210953304" lon="2.6056704151011636"><ele>61.0</ele><time>2026-03-22T10:50:13Z</time></trkpt><trkpt lat="43.231701157514486" lon="2.605731033340863"><ele>61.0</ele><time>2026-03-22T10:50:14Z</time></trkpt><trkpt lat="43.23147578973468" lon="2.6058028644002365"><ele>61.33333333333333</ele><time>2026-03-22T10:50:15Z</time></trkpt><trkpt lat="43.23127038705174" lon="2.605868337616258"><ele>61.66666666666667</ele><time>2026-03-22T10:50:16Z</time></trkpt><trkpt lat="43.23108670911064" lon="2.605922413480023"><ele>62.0</ele><time>2026-03-22T10:50:17Z</time></trkpt><trkpt lat="43.23092760123931" lon="2.6059748849879907"><ele>62.0</ele><time>2026-03-22T10:50:18Z</time></trkpt><trkpt lat="43.230787917583704" lon="2.6060148439002826"><ele>62.0</ele><time>2026-03-22T10:50:19Z</time></trkpt><trkpt lat="43.23065727169402" lon="2.606052855639817"><ele>62.0</ele><time>2026-03-22T10:50:20Z</time></trkpt><trkpt lat="43.23053487941943" lon="2.606094638273461"><ele>62.0</ele><time>2026-03-22T10:50:21Z</time></trkpt><trkpt lat="43.23041905750571" lon="2.6061381893008684"><ele>61.2</ele><time>2026-03-22T10:50:22Z</time></trkpt><trkpt lat="43.230305931258464" lon="2.606176839639594"><ele>60.400000000000006</ele><time>2026-03-22T10:50:23Z</time></trkpt><trkpt lat="43.2301921324517" lon="2.606216557150869"><ele>59.599999999999994</ele><time>2026-03-22T10:50:24Z</time></trkpt><trkpt lat="43.230082038723104" lon="2.606246395645362"><ele>58.8</ele><time>2026-03-22T10:50:25Z</time></trkpt><trkpt lat="43.2299861392661" lon="2.606274763620601"><ele>58.0</ele><time>2026-03-22T10:50:26Z</time></trkpt><trkpt lat="43.22989012685999" lon="2.6063057931896045"><ele>58.4</ele><time>2026-03-22T10:50:27Z</time></trkpt><trkpt lat="43.229799064156865" lon="2.6063299403348417"><ele>58.8</ele><time>2026-03-22T10:50:28Z</time></trkpt><trkpt lat="43.229704419223964" lon="2.6063591162045987"><ele>59.2</ele><time>2026-03-22T10:50:29Z</time></trkpt><trkpt lat="43.22959648392571" lon="2.6063989487738675"><ele>59.6</ele><time>2026-03-22T10:50:30Z</time></trkpt><trkpt lat="43.22947407643985" lon="2.606437028542053"><ele>60.0</ele><time>2026-03-22T10:50:31Z</time></trkpt><trkpt lat="43.22934221182684" lon="2.6064837128825578"><ele>60.0</ele><time>2026-03-22T10:50:32Z</time></trkpt><trkpt lat="43.229209272812206" lon="2.606536587417902"><ele>60.0</ele><time>2026-03-22T10:50:33Z</time></trkpt><trkpt lat="43.22907301611465" lon="2.6065643808391314"><ele>60.0</ele><time>2026-03-22T10:50:34Z</time></trkpt><trkpt lat="43.22892352039761" lon="2.606614421951543"><ele>60.0</ele><time>2026-03-22T10:50:35Z</time></trkpt><trkpt lat="43.22880035201492" lon="2.6066694918573146"><ele>60.0</ele><time>2026-03-22T10:50:36Z</time></trkpt><trkpt lat="43.22866083941873" lon="2.606719371411735"><ele>60.0</ele><time>2026-03-22T10:50:37Z</time></trkpt><trkpt lat="43.22851116309418" lon="2.6067558727994324"><ele>60.0</ele><time>2026-03-22T10:50:38Z</time></trkpt><trkpt lat="43.228358818336005" lon="2.6068149894485866"><ele>60.0</ele><time>2026-03-22T10:50:39Z</time></trkpt><trkpt lat="43.228237156478194" lon="2.606852573672262"><ele>60.0</ele><time>2026-03-22T10:50:40Z</time></trkpt><trkpt lat="43.2281156064786" lon="2.606894288460178"><ele>60.0</ele><time>2026-03-22T10:50:41Z</time></trkpt><trkpt lat="43.22798154909702" lon="2.60691715866613"><ele>60.0</ele><time>2026-03-22T10:50:42Z</time></trkpt><trkpt lat="43.22786298443554" lon="2.6069770028480663"><ele>59.75</ele><time>2026-03-22T10:50:43Z</time></trkpt><trkpt lat="43.227735490560605" lon="2.607012073957166"><ele>59.5</ele><time>2026-03-22T10:50:44Z</time></trkpt><trkpt lat="43.2275957938619" lon="2.6070587416426907"><ele>59.25</ele><time>2026-03-22T10:50:45Z</time></trkpt><trkpt lat="43.227455519485105" lon="2.607096979894696"><ele>59.0</ele><time>2026-03-22T10:50:46Z</time></trkpt><trkpt lat="43.22732221837332" lon="2.6071510089601224"><ele>58.75</ele><time>2026-03-22T10:50:47Z</time></trkpt><trkpt lat="43.22720296621932" lon="2.607230658772856"><ele>58.5</ele><time>2026-03-22T10:50:48Z</time></trkpt><trkpt lat="43.22708082025011" lon="2.6073395727435837"><ele>58.25</ele><time>2026-03-22T10:50:49Z</time></trkpt><trkpt lat="43.22696069634533" lon="2.607499362231472"><ele>58.0</ele><time>2026-03-22T10:50:50Z</time></trkpt><trkpt lat="43.226857911271864" lon="2.6076997889495686"><ele>57.0</ele><time>2026-03-22T10:50:51Z</time></trkpt><trkpt lat="43.22677261122098" lon="2.607930380921605"><ele>56.0</ele><time>2026-03-22T10:50:52Z</time></trkpt><trkpt lat="43.226686351740824" lon="2.6081935919332935"><ele>55.0</ele><time>2026-03-22T10:50:53Z</time></trkpt><trkpt lat="43.226582512970964" lon="2.60847153044422"><ele>54.5</ele><time>2026-03-22T10:50:54Z</time></trkpt><trkpt lat="43.22647292245407" lon="2.6087632070754485"><ele>54.0</ele><time>2026-03-22T10:50:55Z</time></trkpt><trkpt lat="43.226365740456814" lon="2.6090344621760675"><ele>54.0</ele><time>2026-03-22T10:50:56Z</time></trkpt><trkpt lat="43.2262658261812" lon="2.6092863295729374"><ele>54.0</ele><time>2026-03-22T10:50:57Z</time></trkpt><trkpt lat="43.226178150516105" lon="2.609521040849226"><ele>54.0</ele><time>2026-03-22T10:50:58Z</time></trkpt><trkpt lat="43.22610006207667" lon="2.6097391959879697"><ele>54.33333333333333</ele><time>2026-03-22T10:50:59Z</time></trkpt><trkpt lat="43.22601804795485" lon="2.60995630118761"><ele>54.666666666666664</ele><time>2026-03-22T10:51:00Z</time></trkpt><trkpt lat="43.22593381918019" lon="2.6101802328454826"><ele>55.0</ele><time>2026-03-22T10:51:01Z</time></trkpt><trkpt lat="43.22585529193735" lon="2.610396443397486"><ele>55.0</ele><time>2026-03-22T10:51:02Z</time></trkpt><trkpt lat="43.22577516325702" lon="2.610608699241286"><ele>55.0</ele><time>2026-03-22T10:51:03Z</time></trkpt><trkpt lat="43.22569885563091" lon="2.610817383299987"><ele>55.0</ele><time>2026-03-22T10:51:04Z</time></trkpt><trkpt lat="43.22562504332552" lon="2.61101520613523"><ele>55.33333333333333</ele><time>2026-03-22T10:51:05Z</time></trkpt><trkpt lat="43.22554193913201" lon="2.611220697654451"><ele>55.66666666666667</ele><time>2026-03-22T10:51:06Z</time></trkpt><trkpt lat="43.22545640382542" lon="2.611442869719733"><ele>56.0</ele><time>2026-03-22T10:51:07Z</time></trkpt><trkpt lat="43.22536605714866" lon="2.6116709472627804"><ele>56.0</ele><time>2026-03-22T10:51:08Z</time></trkpt><trkpt lat="43.225277629101605" lon="2.6119078813748957"><ele>56.0</ele><time>2026-03-22T10:51:09Z</time></trkpt><trkpt lat="43.225191143396884" lon="2.612143107198696"><ele>56.0</ele><time>2026-03-22T10:51:10Z</time></trkpt><trkpt lat="43.225104205884485" lon="2.612376548380949"><ele>56.0</ele><time>2026-03-22T10:51:11Z</time></trkpt><trkpt lat="43.22502041668019" lon="2.6126139943312827"><ele>56.0</ele><time>2026-03-22T10:51:12Z</time></trkpt><trkpt lat="43.22492965158231" lon="2.6128510794896664"><ele>56.0</ele><time>2026-03-22T10:51:13Z</time></trkpt><trkpt lat="43.22484144762715" lon="2.613090850361594"><ele>56.0</ele><time>2026-03-22T10:51:14Z</time></trkpt><trkpt lat="43.22475238782254" lon="2.613328311597133"><ele>56.0</ele><time>2026-03-22T10:51:15Z</time></trkpt><trkpt lat="43.224667533367544" lon="2.613564851666383"><ele>56.0</ele><time>2026-03-22T10:51:16Z</time></trkpt><trkpt lat="43.22458240374625" lon="2.6137957426461056"><ele>56.0</ele><time>2026-03-22T10:51:17Z</time></trkpt><trkpt lat="43.22449607372679" lon="2.6140286686724234"><ele>56.0</ele><time>2026-03-22T10:51:18Z</time></trkpt><trkpt lat="43.22440853856461" lon="2.614255938949069"><ele>56.0</ele><time>2026-03-22T10:51:19Z</time></trkpt><trkpt lat="43.22432323083991" lon="2.6144844851537896"><ele>55.333333333333336</ele><time>2026-03-22T10:51:20Z</time></trkpt><trkpt lat="43.22423915615077" lon="2.6147176350184917"><ele>54.66666666666667</ele><time>2026-03-22T10:51:21Z</time></trkpt><trkpt lat="43.22415166751367" lon="2.614953745149151"><ele>54.0</ele><time>2026-03-22T10:51:22Z</time></trkpt><trkpt lat="43.22406233349775" lon="2.615195151067386"><ele>54.0</ele><time>2026-03-22T10:51:23Z</time></trkpt><trkpt lat="43.223974553097676" lon="2.615424161265006"><ele>54.0</ele><time>2026-03-22T10:51:24Z</time></trkpt><trkpt lat="43.223887631716224" lon="2.6156536579027523"><ele>54.0</ele><time>2026-03-22T10:51:25Z</time></trkpt><trkpt lat="43.22380973055969" lon="2.6158648152416104"><ele>54.0</ele><time>2026-03-22T10:51:26Z</time></trkpt><trkpt lat="43.22372743844639" lon="2.6160817807184977"><ele>54.0</ele><time>2026-03-22T10:51:27Z</time></trkpt><trkpt lat="43.223639569008526" lon="2.616315994037282"><ele>54.0</ele><time>2026-03-22T10:51:28Z</time></trkpt><trkpt lat="43.223453016681006" lon="2.6167976012473315"><ele>54.0</ele><time>2026-03-22T10:51:30Z</time></trkpt><trkpt lat="43.22337286473844" lon="2.6170061210646782"><ele>54.0</ele><time>2026-03-22T10:51:31Z</time></trkpt><trkpt lat="43.223308600741866" lon="2.617186862900494"><ele>54.0</ele><time>2026-03-22T10:51:32Z</time></trkpt><trkpt lat="43.22324736378806" lon="2.617344748365846"><ele>54.0</ele><time>2026-03-22T10:51:33Z</time></trkpt><trkpt lat="43.22319128743299" lon="2.617495155362888"><ele>54.0</ele><time>2026-03-22T10:51:34Z</time></trkpt><trkpt lat="43.223134483761285" lon="2.617643367142582"><ele>54.0</ele><time>2026-03-22T10:51:35Z</time></trkpt><trkpt lat="43.223075379984486" lon="2.6177968710231276"><ele>54.0</ele><time>2026-03-22T10:51:36Z</time></trkpt><trkpt lat="43.22301479569458" lon="2.617959226842924"><ele>54.0</ele><time>2026-03-22T10:51:36.999Z</time></trkpt><trkpt lat="43.22296217141339" lon="2.618106466015214"><ele>54.0</ele><time>2026-03-22T10:51:37.999Z</time></trkpt><trkpt lat="43.22291110495579" lon="2.618249273543757"><ele>54.00000000000001</ele><time>2026-03-22T10:51:38.999Z</time></trkpt><trkpt lat="43.2228617754618" lon="2.618382898914166"><ele>54.00000000000001</ele><time>2026-03-22T10:51:39.999Z</time></trkpt><trkpt lat="43.22281401687531" lon="2.6185001587667713"><ele>54.0</ele><time>2026-03-22T10:51:40.999Z</time></trkpt><trkpt lat="43.222778181476826" lon="2.6185893176504913"><ele>54.0</ele><time>2026-03-22T10:51:41.999Z</time></trkpt><trkpt lat="43.22273103601824" lon="2.6187113684997128"><ele>54.0</ele><time>2026-03-22T10:51:43.999Z</time></trkpt><trkpt lat="43.222692258224136" lon="2.618801884712139"><ele>54.0</ele><time>2026-03-22T10:51:46.999Z</time></trkpt><trkpt lat="43.2226423472605" lon="2.6188656765268794"><ele>54.0</ele><time>2026-03-22T10:52:05.999Z</time></trkpt><trkpt lat="43.22256321110105" lon="2.6189592655008314"><ele>54.0</ele><time>2026-03-22T10:52:13.999Z</time></trkpt><trkpt lat="43.22255913618811" lon="2.6190651460491057"><ele>54.0</ele><time>2026-03-22T10:52:14.999Z</time></trkpt><trkpt lat="43.22255810906486" lon="2.6192081594433945"><ele>54.0</ele><time>2026-03-22T10:52:15.999Z</time></trkpt><trkpt lat="43.22256472078564" lon="2.6193795786187564"><ele>54.25</ele><time>2026-03-22T10:52:16.999Z</time></trkpt><trkpt lat="43.222587237481235" lon="2.6195432236256706"><ele>54.5</ele><time>2026-03-22T10:52:17.999Z</time></trkpt><trkpt lat="43.22258028799088" lon="2.619731024451453"><ele>54.75</ele><time>2026-03-22T10:52:18.999Z</time></trkpt><trkpt lat="43.22258808168186" lon="2.619897703163169"><ele>55.0</ele><time>2026-03-22T10:52:19.999Z</time></trkpt><trkpt lat="43.22261281567648" lon="2.6200714136493475"><ele>55.0</ele><time>2026-03-22T10:52:20.999Z</time></trkpt><trkpt lat="43.22260484336445" lon="2.620237869968734"><ele>55.0</ele><time>2026-03-22T10:52:21.999Z</time></trkpt><trkpt lat="43.222614032908055" lon="2.6203965430968923"><ele>55.0</ele><time>2026-03-22T10:52:22.999Z</time></trkpt><trkpt lat="43.22262445567331" lon="2.620565034507827"><ele>55.0</ele><time>2026-03-22T10:52:24Z</time></trkpt><trkpt lat="43.222636682469144" lon="2.620719307756941"><ele>55.25</ele><time>2026-03-22T10:52:25Z</time></trkpt><trkpt lat="43.22264862309902" lon="2.6208849465096145"><ele>55.5</ele><time>2026-03-22T10:52:26Z</time></trkpt><trkpt lat="43.22266639409392" lon="2.621053755452541"><ele>55.75</ele><time>2026-03-22T10:52:27Z</time></trkpt><trkpt lat="43.22268013063203" lon="2.621221402075126"><ele>56.0</ele><time>2026-03-22T10:52:28Z</time></trkpt><trkpt lat="43.222692094310204" lon="2.621373462735066"><ele>56.0</ele><time>2026-03-22T10:52:29Z</time></trkpt><trkpt lat="43.22270983545988" lon="2.6215193014895783"><ele>56.0</ele><time>2026-03-22T10:52:30Z</time></trkpt><trkpt lat="43.22273244850118" lon="2.6216664635941727"><ele>56.0</ele><time>2026-03-22T10:52:31Z</time></trkpt><trkpt lat="43.22276125490194" lon="2.6218246610977687"><ele>56.0</ele><time>2026-03-22T10:52:32Z</time></trkpt><trkpt lat="43.22280215488413" lon="2.621989147611484"><ele>56.0</ele><time>2026-03-22T10:52:33Z</time></trkpt><trkpt lat="43.22283763037993" lon="2.622137202572296"><ele>56.0</ele><time>2026-03-22T10:52:34Z</time></trkpt><trkpt lat="43.22287030013056" lon="2.622287547154353"><ele>56.0</ele><time>2026-03-22T10:52:35Z</time></trkpt><trkpt lat="43.22290612652092" lon="2.6224372183285403"><ele>56.0</ele><time>2026-03-22T10:52:36Z</time></trkpt><trkpt lat="43.222937879517175" lon="2.62258398098323"><ele>56.0</ele><time>2026-03-22T10:52:37Z</time></trkpt><trkpt lat="43.222965476905145" lon="2.622715584961273"><ele>55.99999999999999</ele><time>2026-03-22T10:52:38Z</time></trkpt><trkpt lat="43.222980451498344" lon="2.6228634364644163"><ele>55.99999999999999</ele><time>2026-03-22T10:52:39Z</time></trkpt><trkpt lat="43.22300603010959" lon="2.6230231374071327"><ele>56.0</ele><time>2026-03-22T10:52:40Z</time></trkpt><trkpt lat="43.223017301764095" lon="2.623182352900989"><ele>56.0</ele><time>2026-03-22T10:52:41Z</time></trkpt><trkpt lat="43.22301426922617" lon="2.6233172486894056"><ele>56.199999999999996</ele><time>2026-03-22T10:52:42Z</time></trkpt><trkpt lat="43.22301142717021" lon="2.623467598672905"><ele>56.39999999999999</ele><time>2026-03-22T10:52:43Z</time></trkpt><trkpt lat="43.22301082616805" lon="2.623617548910672"><ele>56.6</ele><time>2026-03-22T10:52:44Z</time></trkpt><trkpt lat="43.22301158105891" lon="2.6237378834705756"><ele>56.8</ele><time>2026-03-22T10:52:45Z</time></trkpt><trkpt lat="43.22302633941521" lon="2.6238612402292385"><ele>57.0</ele><time>2026-03-22T10:52:46Z</time></trkpt><trkpt lat="43.223016052549646" lon="2.623969995413185"><ele>57.0</ele><time>2026-03-22T10:52:47Z</time></trkpt><trkpt lat="43.223012851618634" lon="2.624069741420565"><ele>57.0</ele><time>2026-03-22T10:52:48Z</time></trkpt><trkpt lat="43.22300871410245" lon="2.6241571891323576"><ele>57.0</ele><time>2026-03-22T10:52:49Z</time></trkpt><trkpt lat="43.22300564805574" lon="2.624324669564259"><ele>57.0</ele><time>2026-03-22T10:52:51Z</time></trkpt><trkpt lat="43.222974913232065" lon="2.6244137569881665"><ele>57.0</ele><time>2026-03-22T10:52:52Z</time></trkpt><trkpt lat="43.22291395159984" lon="2.624476951499866"><ele>57.0</ele><time>2026-03-22T10:52:53Z</time></trkpt><trkpt lat="43.222865239117276" lon="2.6245472947902058"><ele>57.0</ele><time>2026-03-22T10:52:54Z</time></trkpt><trkpt lat="43.222835326182604" lon="2.6246246149105787"><ele>57.0</ele><time>2026-03-22T10:52:55Z</time></trkpt><trkpt lat="43.22278309280514" lon="2.6247403056219065"><ele>57.0</ele><time>2026-03-22T10:52:57Z</time></trkpt><trkpt lat="43.222749421677726" lon="2.624816636767985"><ele>57.0</ele><time>2026-03-22T10:53:00Z</time></trkpt><trkpt lat="43.22270772132547" lon="2.624911166966247"><ele>57.0</ele><time>2026-03-22T10:53:03Z</time></trkpt><trkpt lat="43.22266222621447" lon="2.6250081242602046"><ele>57.0</ele><time>2026-03-22T10:53:04Z</time></trkpt><trkpt lat="43.22261735317629" lon="2.6251056084504345"><ele>57.0</ele><time>2026-03-22T10:53:05Z</time></trkpt><trkpt lat="43.22256779396562" lon="2.6252132673991904"><ele>57.0</ele><time>2026-03-22T10:53:06Z</time></trkpt><trkpt lat="43.2225080371714" lon="2.6253460298338056"><ele>57.0</ele><time>2026-03-22T10:53:07Z</time></trkpt><trkpt lat="43.22244138497099" lon="2.6254917275884053"><ele>57.0</ele><time>2026-03-22T10:53:08Z</time></trkpt><trkpt lat="43.222382630284315" lon="2.625617600557514"><ele>57.0</ele><time>2026-03-22T10:53:09Z</time></trkpt><trkpt lat="43.222329945799785" lon="2.6257304327052933"><ele>56.6</ele><time>2026-03-22T10:53:10Z</time></trkpt><trkpt lat="43.222266331720995" lon="2.625863488977996"><ele>56.2</ele><time>2026-03-22T10:53:11Z</time></trkpt><trkpt lat="43.22222117255879" lon="2.6260009498107038"><ele>55.8</ele><time>2026-03-22T10:53:12Z</time></trkpt><trkpt lat="43.22217219401509" lon="2.6261058973857443"><ele>55.4</ele><time>2026-03-22T10:53:13Z</time></trkpt><trkpt lat="43.22211066413741" lon="2.626217621296584"><ele>55.0</ele><time>2026-03-22T10:53:14Z</time></trkpt><trkpt lat="43.22206360191859" lon="2.626338001838554"><ele>55.0</ele><time>2026-03-22T10:53:15Z</time></trkpt><trkpt lat="43.22201023672829" lon="2.626455127827365"><ele>55.0</ele><time>2026-03-22T10:53:16Z</time></trkpt><trkpt lat="43.221960561459426" lon="2.626565463021543"><ele>55.0</ele><time>2026-03-22T10:53:17Z</time></trkpt><trkpt lat="43.22191296500363" lon="2.626670045295345"><ele>55.0</ele><time>2026-03-22T10:53:18Z</time></trkpt><trkpt lat="43.22186492611767" lon="2.6267680568643064"><ele>55.0</ele><time>2026-03-22T10:53:19Z</time></trkpt><trkpt lat="43.22181998462337" lon="2.626872069291315"><ele>54.99999999999999</ele><time>2026-03-22T10:53:19.999Z</time></trkpt><trkpt lat="43.22177536584494" lon="2.6269716395952725"><ele>55.0</ele><time>2026-03-22T10:53:20.999Z</time></trkpt><trkpt lat="43.22173306914623" lon="2.627061240232041"><ele>55.0</ele><time>2026-03-22T10:53:21.999Z</time></trkpt><trkpt lat="43.22169436259617" lon="2.627144605057131"><ele>55.0</ele><time>2026-03-22T10:53:22.999Z</time></trkpt><trkpt lat="43.22165217294339" lon="2.627221298748655"><ele>54.99999999999999</ele><time>2026-03-22T10:53:23.999Z</time></trkpt><trkpt lat="43.22162090479707" lon="2.627311704569565"><ele>55.0</ele><time>2026-03-22T10:53:24.999Z</time></trkpt><trkpt lat="43.22157768082622" lon="2.627402384812752"><ele>54.99999999999999</ele><time>2026-03-22T10:53:25.999Z</time></trkpt><trkpt lat="43.221531441107544" lon="2.627489028452798"><ele>55.0</ele><time>2026-03-22T10:53:26.999Z</time></trkpt><trkpt lat="43.221489638890205" lon="2.627580957809093"><ele>55.0</ele><time>2026-03-22T10:53:27.999Z</time></trkpt><trkpt lat="43.22144809951243" lon="2.627672853224559"><ele>55.0</ele><time>2026-03-22T10:53:28.999Z</time></trkpt><trkpt lat="43.22140467127582" lon="2.627772608454609"><ele>54.99999999999999</ele><time>2026-03-22T10:53:29.999Z</time></trkpt><trkpt lat="43.22135746669192" lon="2.6278790295608556"><ele>55.0</ele><time>2026-03-22T10:53:30.999Z</time></trkpt><trkpt lat="43.22130966169176" lon="2.6279914253305723"><ele>55.0</ele><time>2026-03-22T10:53:31.999Z</time></trkpt><trkpt lat="43.221259516307605" lon="2.6281023531137784"><ele>55.0</ele><time>2026-03-22T10:53:32.999Z</time></trkpt><trkpt lat="43.221197138115784" lon="2.628208378558421"><ele>55.0</ele><time>2026-03-22T10:53:33.999Z</time></trkpt><trkpt lat="43.22111422188279" lon="2.6283134976741254"><ele>55.0</ele><time>2026-03-22T10:53:34.999Z</time></trkpt><trkpt lat="43.221009069751965" lon="2.6283995767105046"><ele>55.0</ele><time>2026-03-22T10:53:35.999Z</time></trkpt><trkpt lat="43.22088888648283" lon="2.628474164941296"><ele>55.0</ele><time>2026-03-22T10:53:36.999Z</time></trkpt><trkpt lat="43.22076162347598" lon="2.6285416728279754"><ele>55.0</ele><time>2026-03-22T10:53:37.999Z</time></trkpt><trkpt lat="43.220623294686206" lon="2.6285921524318807"><ele>55.0</ele><time>2026-03-22T10:53:38.999Z</time></trkpt><trkpt lat="43.22048343527031" lon="2.6286081995796233"><ele>55.0</ele><time>2026-03-22T10:53:39.999Z</time></trkpt><trkpt lat="43.22034142160516" lon="2.628590976373884"><ele>54.666666666666664</ele><time>2026-03-22T10:53:40.999Z</time></trkpt><trkpt lat="43.220195049392345" lon="2.6285502463825026"><ele>54.33333333333333</ele><time>2026-03-22T10:53:41.999Z</time></trkpt><trkpt lat="43.22003789140944" lon="2.628478425363364"><ele>54.0</ele><time>2026-03-22T10:53:42.999Z</time></trkpt><trkpt lat="43.219867998972404" lon="2.6283796870166354"><ele>54.0</ele><time>2026-03-22T10:53:43.999Z</time></trkpt><trkpt lat="43.219677766950745" lon="2.628259484953284"><ele>54.0</ele><time>2026-03-22T10:53:44.999Z</time></trkpt><trkpt lat="43.219489964877084" lon="2.628145380225785"><ele>54.0</ele><time>2026-03-22T10:53:45.999Z</time></trkpt><trkpt lat="43.21933466803227" lon="2.62804902055767"><ele>54.0</ele><time>2026-03-22T10:53:46.999Z</time></trkpt><trkpt lat="43.219175544329204" lon="2.6279496083861082"><ele>54.0</ele><time>2026-03-22T10:53:47.999Z</time></trkpt><trkpt lat="43.21901153309902" lon="2.6278563444687073"><ele>54.0</ele><time>2026-03-22T10:53:48.999Z</time></trkpt><trkpt lat="43.21884172443041" lon="2.627757547321463"><ele>54.0</ele><time>2026-03-22T10:53:49.999Z</time></trkpt><trkpt lat="43.21866157632978" lon="2.627653117494975"><ele>54.0</ele><time>2026-03-22T10:53:50.999Z</time></trkpt><trkpt lat="43.21846822869307" lon="2.6275379173351596"><ele>54.0</ele><time>2026-03-22T10:53:51.999Z</time></trkpt><trkpt lat="43.21827728564595" lon="2.627429446081607"><ele>54.0</ele><time>2026-03-22T10:53:52.999Z</time></trkpt><trkpt lat="43.2181130675487" lon="2.6273313308146236"><ele>54.0</ele><time>2026-03-22T10:53:53.999Z</time></trkpt><trkpt lat="43.2179482313145" lon="2.627234931863978"><ele>54.0</ele><time>2026-03-22T10:53:54.999Z</time></trkpt><trkpt lat="43.217778590110484" lon="2.627133914257819"><ele>54.0</ele><time>2026-03-22T10:53:55.999Z</time></trkpt><trkpt lat="43.217601289125255" lon="2.6270285762508347"><ele>54.0</ele><time>2026-03-22T10:53:56.999Z</time></trkpt><trkpt lat="43.21742218132732" lon="2.626923963830556"><ele>54.0</ele><time>2026-03-22T10:53:57.999Z</time></trkpt><trkpt lat="43.21724030130005" lon="2.6268181923608744"><ele>54.33333333333333</ele><time>2026-03-22T10:53:58.999Z</time></trkpt><trkpt lat="43.217072228725584" lon="2.626717364830835"><ele>54.666666666666664</ele><time>2026-03-22T10:53:59.999Z</time></trkpt><trkpt lat="43.216920734494224" lon="2.626624670289759"><ele>55.0</ele><time>2026-03-22T10:54:00.999Z</time></trkpt><trkpt lat="43.216772148001255" lon="2.62653622926992"><ele>55.0</ele><time>2026-03-22T10:54:01.999Z</time></trkpt><trkpt lat="43.21662902530442" lon="2.6264550507255247"><ele>55.0</ele><time>2026-03-22T10:54:02.999Z</time></trkpt><trkpt lat="43.216486948578044" lon="2.6263734979194067"><ele>55.0</ele><time>2026-03-22T10:54:03.999Z</time></trkpt><trkpt lat="43.216339692762425" lon="2.6263063800238333"><ele>55.33333333333333</ele><time>2026-03-22T10:54:04.999Z</time></trkpt><trkpt lat="43.21619350155669" lon="2.626216175171906"><ele>55.66666666666667</ele><time>2026-03-22T10:54:05.999Z</time></trkpt><trkpt lat="43.21602631647794" lon="2.626120258115421"><ele>56.0</ele><time>2026-03-22T10:54:06.999Z</time></trkpt><trkpt lat="43.21583397880568" lon="2.626032755534377"><ele>55.66666666666667</ele><time>2026-03-22T10:54:07.999Z</time></trkpt><trkpt lat="43.21563871643" lon="2.625981221447047"><ele>55.33333333333333</ele><time>2026-03-22T10:54:08.999Z</time></trkpt><trkpt lat="43.21544378897174" lon="2.6259532493724795"><ele>55.0</ele><time>2026-03-22T10:54:09.999Z</time></trkpt><trkpt lat="43.21525610569336" lon="2.6259487132481327"><ele>55.0</ele><time>2026-03-22T10:54:10.999Z</time></trkpt><trkpt lat="43.21505054237614" lon="2.6259739569545157"><ele>55.0</ele><time>2026-03-22T10:54:11.999Z</time></trkpt><trkpt lat="43.214834706407736" lon="2.6260214649438796"><ele>55.0</ele><time>2026-03-22T10:54:12.999Z</time></trkpt><trkpt lat="43.21461327596514" lon="2.626100050621542"><ele>55.0</ele><time>2026-03-22T10:54:13.999Z</time></trkpt><trkpt lat="43.21437113681347" lon="2.6262077652353226"><ele>55.0</ele><time>2026-03-22T10:54:14.999Z</time></trkpt><trkpt lat="43.214112186544085" lon="2.6263337807688045"><ele>55.0</ele><time>2026-03-22T10:54:15.999Z</time></trkpt><trkpt lat="43.2138531031361" lon="2.6264547190326986"><ele>55.0</ele><time>2026-03-22T10:54:16.999Z</time></trkpt><trkpt lat="43.213612811961774" lon="2.626563375486343"><ele>55.0</ele><time>2026-03-22T10:54:17.999Z</time></trkpt><trkpt lat="43.21335796776724" lon="2.6266745308414263"><ele>55.0</ele><time>2026-03-22T10:54:18.999Z</time></trkpt><trkpt lat="43.21311137430365" lon="2.6267883480107166"><ele>55.5</ele><time>2026-03-22T10:54:19.999Z</time></trkpt><trkpt lat="43.21288413330668" lon="2.626892431097172"><ele>56.0</ele><time>2026-03-22T10:54:20.999Z</time></trkpt><trkpt lat="43.21267805666217" lon="2.6269834022422502"><ele>56.0</ele><time>2026-03-22T10:54:21.999Z</time></trkpt><trkpt lat="43.212481868319685" lon="2.6270699551940915"><ele>56.0</ele><time>2026-03-22T10:54:23Z</time></trkpt><trkpt lat="43.21228840864232" lon="2.627143821778767"><ele>56.0</ele><time>2026-03-22T10:54:24Z</time></trkpt><trkpt lat="43.21211116043536" lon="2.6272339848171247"><ele>56.0</ele><time>2026-03-22T10:54:25Z</time></trkpt><trkpt lat="43.21192538721764" lon="2.6273260202317914"><ele>56.0</ele><time>2026-03-22T10:54:26Z</time></trkpt><trkpt lat="43.21172978050638" lon="2.6274180274827152"><ele>56.0</ele><time>2026-03-22T10:54:27Z</time></trkpt><trkpt lat="43.21151957019311" lon="2.6275132561256767"><ele>56.0</ele><time>2026-03-22T10:54:28Z</time></trkpt><trkpt lat="43.21131507765516" lon="2.6276080581791925"><ele>56.0</ele><time>2026-03-22T10:54:29Z</time></trkpt><trkpt lat="43.211116095172414" lon="2.627700280889467"><ele>56.0</ele><time>2026-03-22T10:54:30Z</time></trkpt><trkpt lat="43.21092644687487" lon="2.627781038939703"><ele>56.0</ele><time>2026-03-22T10:54:31Z</time></trkpt><trkpt lat="43.21073254414006" lon="2.6278709312157673"><ele>56.0</ele><time>2026-03-22T10:54:32Z</time></trkpt><trkpt lat="43.210534960655934" lon="2.6279644798242288"><ele>56.0</ele><time>2026-03-22T10:54:33Z</time></trkpt><trkpt lat="43.210349329754884" lon="2.628052044188102"><ele>56.0</ele><time>2026-03-22T10:54:34Z</time></trkpt><trkpt lat="43.21017338121522" lon="2.6281336560860837"><ele>56.0</ele><time>2026-03-22T10:54:35Z</time></trkpt><trkpt lat="43.20999897573458" lon="2.6282141218181807"><ele>56.0</ele><time>2026-03-22T10:54:36Z</time></trkpt><trkpt lat="43.209823651796206" lon="2.6282965364357866"><ele>56.333333333333336</ele><time>2026-03-22T10:54:37Z</time></trkpt><trkpt lat="43.20964099218639" lon="2.6283839735880195"><ele>56.66666666666667</ele><time>2026-03-22T10:54:38Z</time></trkpt><trkpt lat="43.20946106725925" lon="2.6284602109722504"><ele>57.0</ele><time>2026-03-22T10:54:39Z</time></trkpt><trkpt lat="43.209279300837416" lon="2.628544625578751"><ele>57.0</ele><time>2026-03-22T10:54:40Z</time></trkpt><trkpt lat="43.209093586979606" lon="2.628627295278618"><ele>57.0</ele><time>2026-03-22T10:54:41Z</time></trkpt><trkpt lat="43.208906734822286" lon="2.6287127140778215"><ele>57.0</ele><time>2026-03-22T10:54:42Z</time></trkpt><trkpt lat="43.20871508694268" lon="2.6287987213804183"><ele>57.33333333333333</ele><time>2026-03-22T10:54:43Z</time></trkpt><trkpt lat="43.2085347541896" lon="2.628884763709518"><ele>57.666666666666664</ele><time>2026-03-22T10:54:44Z</time></trkpt><trkpt lat="43.2083675285958" lon="2.628960404169954"><ele>58.0</ele><time>2026-03-22T10:54:45Z</time></trkpt><trkpt lat="43.20820635819743" lon="2.629033587718315"><ele>58.33333333333333</ele><time>2026-03-22T10:54:46Z</time></trkpt><trkpt lat="43.20804877209728" lon="2.6291043169312664"><ele>58.66666666666667</ele><time>2026-03-22T10:54:47Z</time></trkpt><trkpt lat="43.20789924405073" lon="2.6291677099932906"><ele>59.0</ele><time>2026-03-22T10:54:48Z</time></trkpt><trkpt lat="43.20774594966949" lon="2.6292361463681257"><ele>59.0</ele><time>2026-03-22T10:54:49Z</time></trkpt><trkpt lat="43.20758567686041" lon="2.6293169077354803"><ele>59.0</ele><time>2026-03-22T10:54:50Z</time></trkpt><trkpt lat="43.207415446851456" lon="2.629398239078653"><ele>59.0</ele><time>2026-03-22T10:54:51Z</time></trkpt><trkpt lat="43.20724881893837" lon="2.629467078952658"><ele>59.0</ele><time>2026-03-22T10:54:52Z</time></trkpt><trkpt lat="43.20708141907041" lon="2.6295434871961025"><ele>59.0</ele><time>2026-03-22T10:54:53Z</time></trkpt><trkpt lat="43.20692046685271" lon="2.6296199237111115"><ele>59.0</ele><time>2026-03-22T10:54:54Z</time></trkpt><trkpt lat="43.20676080617457" lon="2.629686549896351"><ele>59.0</ele><time>2026-03-22T10:54:55Z</time></trkpt><trkpt lat="43.206605163335475" lon="2.6297572210730777"><ele>59.0</ele><time>2026-03-22T10:54:56Z</time></trkpt><trkpt lat="43.20646167226318" lon="2.6298229217638376"><ele>59.0</ele><time>2026-03-22T10:54:57Z</time></trkpt><trkpt lat="43.20632419511975" lon="2.6298869976780237"><ele>59.25</ele><time>2026-03-22T10:54:58Z</time></trkpt><trkpt lat="43.20619524599144" lon="2.6299429905178915"><ele>59.5</ele><time>2026-03-22T10:54:59Z</time></trkpt><trkpt lat="43.206074677080814" lon="2.6299991225051578"><ele>59.75</ele><time>2026-03-22T10:55:00Z</time></trkpt><trkpt lat="43.20596265910366" lon="2.6300492835485385"><ele>60.0</ele><time>2026-03-22T10:55:01Z</time></trkpt><trkpt lat="43.20585410959055" lon="2.6301022508965457"><ele>60.0</ele><time>2026-03-22T10:55:02Z</time></trkpt><trkpt lat="43.205745139475624" lon="2.6301435342853505"><ele>60.0</ele><time>2026-03-22T10:55:03Z</time></trkpt><trkpt lat="43.20565309214445" lon="2.6301916450311635"><ele>60.0</ele><time>2026-03-22T10:55:04Z</time></trkpt><trkpt lat="43.20556668010532" lon="2.630240021625464"><ele>60.0</ele><time>2026-03-22T10:55:05Z</time></trkpt><trkpt lat="43.20547680890188" lon="2.630292019540796"><ele>60.0</ele><time>2026-03-22T10:55:06Z</time></trkpt><trkpt lat="43.205362856916786" lon="2.6303398090244743"><ele>59.8</ele><time>2026-03-22T10:55:07Z</time></trkpt><trkpt lat="43.20525992771589" lon="2.630384176520674"><ele>59.6</ele><time>2026-03-22T10:55:08Z</time></trkpt><trkpt lat="43.20515788472297" lon="2.630420783507404"><ele>59.400000000000006</ele><time>2026-03-22T10:55:09Z</time></trkpt><trkpt lat="43.20506789144874" lon="2.6304586259526026"><ele>59.2</ele><time>2026-03-22T10:55:10Z</time></trkpt><trkpt lat="43.20498449836889" lon="2.630499832197994"><ele>59.0</ele><time>2026-03-22T10:55:11Z</time></trkpt><trkpt lat="43.20490259521025" lon="2.6305361975843797"><ele>59.50000000000001</ele><time>2026-03-22T10:55:12Z</time></trkpt><trkpt lat="43.20481855101962" lon="2.6305673074728086"><ele>60.0</ele><time>2026-03-22T10:55:13Z</time></trkpt><trkpt lat="43.20473912474622" lon="2.6305955753788735"><ele>60.5</ele><time>2026-03-22T10:55:14Z</time></trkpt><trkpt lat="43.20467069008353" lon="2.630632895709436"><ele>61.0</ele><time>2026-03-22T10:55:15Z</time></trkpt><trkpt lat="43.20460017830083" lon="2.63066594820938"><ele>61.50000000000001</ele><time>2026-03-22T10:55:16Z</time></trkpt><trkpt lat="43.20452571488698" lon="2.630693938953504"><ele>62.0</ele><time>2026-03-22T10:55:17Z</time></trkpt><trkpt lat="43.204447943729654" lon="2.630734629237983"><ele>62.00000000000001</ele><time>2026-03-22T10:55:18Z</time></trkpt><trkpt lat="43.20436221728557" lon="2.63077957224317"><ele>62.0</ele><time>2026-03-22T10:55:19Z</time></trkpt><trkpt lat="43.20427570221624" lon="2.6308181887829702"><ele>62.0</ele><time>2026-03-22T10:55:20Z</time></trkpt><trkpt lat="43.204199406202065" lon="2.6308694706383715"><ele>62.0</ele><time>2026-03-22T10:55:21Z</time></trkpt><trkpt lat="43.2041142160895" lon="2.6308996467895938"><ele>62.00000000000001</ele><time>2026-03-22T10:55:22Z</time></trkpt><trkpt lat="43.204038521780795" lon="2.6309351308980142"><ele>62.0</ele><time>2026-03-22T10:55:23Z</time></trkpt><trkpt lat="43.20396109762243" lon="2.630969950311617"><ele>61.833333333333336</ele><time>2026-03-22T10:55:24Z</time></trkpt><trkpt lat="43.203899865886505" lon="2.630995867479955"><ele>61.66666666666667</ele><time>2026-03-22T10:55:25Z</time></trkpt><trkpt lat="43.20381986825787" lon="2.631027057042677"><ele>61.5</ele><time>2026-03-22T10:55:27Z</time></trkpt><trkpt lat="43.203741954035515" lon="2.6310606807862356"><ele>61.33333333333333</ele><time>2026-03-22T10:55:29Z</time></trkpt><trkpt lat="43.20365441682644" lon="2.6311296842169787"><ele>61.166666666666664</ele><time>2026-03-22T10:55:31Z</time></trkpt><trkpt lat="43.20359861735703" lon="2.631175774784622"><ele>61.0</ele><time>2026-03-22T10:55:32Z</time></trkpt><trkpt lat="43.20352969952818" lon="2.6311956845580067"><ele>60.99999999999999</ele><time>2026-03-22T10:55:33Z</time></trkpt><trkpt lat="43.203468238680244" lon="2.6312199087901726"><ele>61.0</ele><time>2026-03-22T10:55:34Z</time></trkpt><trkpt lat="43.20340240353212" lon="2.6312383842876206"><ele>61.0</ele><time>2026-03-22T10:55:35Z</time></trkpt><trkpt lat="43.20330719475486" lon="2.63129395026721"><ele>61.0</ele><time>2026-03-22T10:55:37Z</time></trkpt><trkpt lat="43.203223025916856" lon="2.6313399742752273"><ele>60.99999999999999</ele><time>2026-03-22T10:55:39Z</time></trkpt><trkpt lat="43.203157230055815" lon="2.6313575302069334"><ele>61.0</ele><time>2026-03-22T10:55:41Z</time></trkpt><trkpt lat="43.20307658855231" lon="2.6313825014805934"><ele>61.33333333333333</ele><time>2026-03-22T10:55:45Z</time></trkpt><trkpt lat="43.202995227719306" lon="2.6314153169422867"><ele>61.666666666666664</ele><time>2026-03-22T10:55:49Z</time></trkpt><trkpt lat="43.202933799524075" lon="2.6314511050519673"><ele>62.0</ele><time>2026-03-22T10:55:50Z</time></trkpt><trkpt lat="43.202863369762554" lon="2.631473358160504"><ele>62.33333333333333</ele><time>2026-03-22T10:55:51Z</time></trkpt><trkpt lat="43.20280202483553" lon="2.631498829992443"><ele>62.666666666666664</ele><time>2026-03-22T10:55:52Z</time></trkpt><trkpt lat="43.202687198353296" lon="2.6315532728956135"><ele>63.0</ele><time>2026-03-22T10:55:54Z</time></trkpt><trkpt lat="43.20258803789681" lon="2.6316043682269923"><ele>63.0</ele><time>2026-03-22T10:55:56Z</time></trkpt><trkpt lat="43.20247077548027" lon="2.6316463958195984"><ele>63.0</ele><time>2026-03-22T10:55:58Z</time></trkpt><trkpt lat="43.20237888190962" lon="2.631687820879563"><ele>63.0</ele><time>2026-03-22T10:55:59Z</time></trkpt><trkpt lat="43.202269746503156" lon="2.631739750816218"><ele>63.0</ele><time>2026-03-22T10:56:00Z</time></trkpt><trkpt lat="43.202178518446445" lon="2.6317826955226704"><ele>63.0</ele><time>2026-03-22T10:56:01Z</time></trkpt><trkpt lat="43.202098783838196" lon="2.631823255915185"><ele>63.2</ele><time>2026-03-22T10:56:02Z</time></trkpt><trkpt lat="43.20201062616574" lon="2.631867660957974"><ele>63.4</ele><time>2026-03-22T10:56:03Z</time></trkpt><trkpt lat="43.201930300258404" lon="2.6319029519839625"><ele>63.60000000000001</ele><time>2026-03-22T10:56:04Z</time></trkpt><trkpt lat="43.201850792227674" lon="2.6319536036595643"><ele>63.800000000000004</ele><time>2026-03-22T10:56:05Z</time></trkpt><trkpt lat="43.20177294399453" lon="2.631971721618158"><ele>64.0</ele><time>2026-03-22T10:56:06Z</time></trkpt><trkpt lat="43.20165525082925" lon="2.6320180962838258"><ele>63.2</ele><time>2026-03-22T10:56:08Z</time></trkpt><trkpt lat="43.201576340746094" lon="2.6320394158323706"><ele>62.400000000000006</ele><time>2026-03-22T10:56:10Z</time></trkpt><trkpt lat="43.20145821436702" lon="2.6320823479295883"><ele>61.6</ele><time>2026-03-22T10:56:12Z</time></trkpt><trkpt lat="43.2013728590419" lon="2.6321225296390836"><ele>60.8</ele><time>2026-03-22T10:56:13Z</time></trkpt><trkpt lat="43.20126498888907" lon="2.6321760261145983"><ele>60.0</ele><time>2026-03-22T10:56:14Z</time></trkpt><trkpt lat="43.201163955808354" lon="2.632237919399706"><ele>60.0</ele><time>2026-03-22T10:56:15Z</time></trkpt><trkpt lat="43.20106564105936" lon="2.632280652207175"><ele>60.0</ele><time>2026-03-22T10:56:16Z</time></trkpt><trkpt lat="43.200955067896075" lon="2.6323346496764515"><ele>60.0</ele><time>2026-03-22T10:56:17Z</time></trkpt><trkpt lat="43.20084456112208" lon="2.6323936195911277"><ele>60.0</ele><time>2026-03-22T10:56:18Z</time></trkpt><trkpt lat="43.20073664807415" lon="2.6324429292097666"><ele>59.6</ele><time>2026-03-22T10:56:19Z</time></trkpt><trkpt lat="43.200638686189734" lon="2.6324880076638997"><ele>59.2</ele><time>2026-03-22T10:56:20Z</time></trkpt><trkpt lat="43.20054536163271" lon="2.632526466959988"><ele>58.8</ele><time>2026-03-22T10:56:21Z</time></trkpt><trkpt lat="43.20046062873989" lon="2.6325628022363277"><ele>58.4</ele><time>2026-03-22T10:56:22Z</time></trkpt><trkpt lat="43.20036214505113" lon="2.632611278940606"><ele>58.0</ele><time>2026-03-22T10:56:22.999Z</time></trkpt><trkpt lat="43.20027637964028" lon="2.6326485329047014"><ele>58.0</ele><time>2026-03-22T10:56:23.999Z</time></trkpt><trkpt lat="43.200204728402774" lon="2.6326782796316794"><ele>58.0</ele><time>2026-03-22T10:56:24.999Z</time></trkpt><trkpt lat="43.20011347097016" lon="2.6327234150121095"><ele>58.0</ele><time>2026-03-22T10:56:25.999Z</time></trkpt><trkpt lat="43.20000385227174" lon="2.632777395746101"><ele>58.0</ele><time>2026-03-22T10:56:26.999Z</time></trkpt><trkpt lat="43.19984575998017" lon="2.6328453152383657"><ele>58.33333333333333</ele><time>2026-03-22T10:56:27.999Z</time></trkpt><trkpt lat="43.199662880279696" lon="2.632926186059376"><ele>58.66666666666667</ele><time>2026-03-22T10:56:29Z</time></trkpt><trkpt lat="43.19945514008891" lon="2.6330292731719376"><ele>59.0</ele><time>2026-03-22T10:56:30Z</time></trkpt><trkpt lat="43.199224267741805" lon="2.633123622171413"><ele>58.5</ele><time>2026-03-22T10:56:31Z</time></trkpt><trkpt lat="43.19897333813821" lon="2.633234654075686"><ele>58.0</ele><time>2026-03-22T10:56:32Z</time></trkpt><trkpt lat="43.19871800388256" lon="2.63335580710782"><ele>58.0</ele><time>2026-03-22T10:56:33Z</time></trkpt><trkpt lat="43.198482884515336" lon="2.6334745172620946"><ele>58.0</ele><time>2026-03-22T10:56:34Z</time></trkpt><trkpt lat="43.198255854677086" lon="2.633575936287983"><ele>58.5</ele><time>2026-03-22T10:56:35Z</time></trkpt><trkpt lat="43.19804008157305" lon="2.6336808565576852"><ele>59.0</ele><time>2026-03-22T10:56:36Z</time></trkpt><trkpt lat="43.19782303278613" lon="2.6337721708474215"><ele>59.0</ele><time>2026-03-22T10:56:37Z</time></trkpt><trkpt lat="43.19761427548538" lon="2.633853303975278"><ele>59.0</ele><time>2026-03-22T10:56:38Z</time></trkpt><trkpt lat="43.197420907871" lon="2.63392858163725"><ele>59.0</ele><time>2026-03-22T10:56:39Z</time></trkpt><trkpt lat="43.19724383421457" lon="2.6340120770046433"><ele>59.0</ele><time>2026-03-22T10:56:40Z</time></trkpt><trkpt lat="43.19705947982331" lon="2.6340947624113635"><ele>59.0</ele><time>2026-03-22T10:56:41Z</time></trkpt><trkpt lat="43.196870690694546" lon="2.6341790466430366"><ele>59.0</ele><time>2026-03-22T10:56:42Z</time></trkpt><trkpt lat="43.19668209108391" lon="2.634266860209641"><ele>59.0</ele><time>2026-03-22T10:56:43Z</time></trkpt><trkpt lat="43.19648376892396" lon="2.6343521816456583"><ele>59.0</ele><time>2026-03-22T10:56:44Z</time></trkpt><trkpt lat="43.19628196064278" lon="2.6344446109220896"><ele>59.0</ele><time>2026-03-22T10:56:45Z</time></trkpt><trkpt lat="43.19606579335606" lon="2.6345464395995584"><ele>59.0</ele><time>2026-03-22T10:56:46Z</time></trkpt><trkpt lat="43.1958333822461" lon="2.6346517401162015"><ele>59.0</ele><time>2026-03-22T10:56:47Z</time></trkpt><trkpt lat="43.195585945615875" lon="2.634763182082749"><ele>59.0</ele><time>2026-03-22T10:56:48Z</time></trkpt><trkpt lat="43.19534125235644" lon="2.634872726468025"><ele>59.0</ele><time>2026-03-22T10:56:49Z</time></trkpt><trkpt lat="43.195120305031715" lon="2.634963700762452"><ele>59.0</ele><time>2026-03-22T10:56:50Z</time></trkpt><trkpt lat="43.194921542511516" lon="2.635056807718673"><ele>59.0</ele><time>2026-03-22T10:56:51Z</time></trkpt><trkpt lat="43.1947311742469" lon="2.635144448393029"><ele>59.0</ele><time>2026-03-22T10:56:52Z</time></trkpt><trkpt lat="43.1945549792775" lon="2.6352253306006834"><ele>59.333333333333336</ele><time>2026-03-22T10:56:53Z</time></trkpt><trkpt lat="43.19438098262268" lon="2.6353098621496382"><ele>59.66666666666667</ele><time>2026-03-22T10:56:54Z</time></trkpt><trkpt lat="43.19420585274923" lon="2.6353893967473687"><ele>60.0</ele><time>2026-03-22T10:56:55Z</time></trkpt><trkpt lat="43.19403083644456" lon="2.6354686590714125"><ele>60.33333333333333</ele><time>2026-03-22T10:56:56Z</time></trkpt><trkpt lat="43.19385407535688" lon="2.6355484315825723"><ele>60.666666666666664</ele><time>2026-03-22T10:56:57Z</time></trkpt><trkpt lat="43.193673660036595" lon="2.6356197558355445"><ele>61.0</ele><time>2026-03-22T10:56:58Z</time></trkpt><trkpt lat="43.19350913438381" lon="2.635695608090894"><ele>61.0</ele><time>2026-03-22T10:56:59Z</time></trkpt><trkpt lat="43.19334784951456" lon="2.635768683037305"><ele>61.0</ele><time>2026-03-22T10:57:00Z</time></trkpt><trkpt lat="43.19319176784664" lon="2.6358416853867785"><ele>61.0</ele><time>2026-03-22T10:57:01Z</time></trkpt><trkpt lat="43.19303526374193" lon="2.635912283771191"><ele>61.666666666666664</ele><time>2026-03-22T10:57:02Z</time></trkpt><trkpt lat="43.192884793523426" lon="2.635980943539235"><ele>62.33333333333333</ele><time>2026-03-22T10:57:03Z</time></trkpt><trkpt lat="43.1927344534889" lon="2.636048827525564"><ele>63.0</ele><time>2026-03-22T10:57:04Z</time></trkpt><trkpt lat="43.19259635776792" lon="2.636106988981994"><ele>62.5</ele><time>2026-03-22T10:57:05Z</time></trkpt><trkpt lat="43.192465954308794" lon="2.6361750215642736"><ele>62.0</ele><time>2026-03-22T10:57:06Z</time></trkpt><trkpt lat="43.19235491916994" lon="2.636285158067001"><ele>61.5</ele><time>2026-03-22T10:57:07Z</time></trkpt><trkpt lat="43.19225661742904" lon="2.6364346812533728"><ele>61.0</ele><time>2026-03-22T10:57:08Z</time></trkpt><trkpt lat="43.192182491293245" lon="2.63660873325121"><ele>63.0</ele><time>2026-03-22T10:57:09Z</time></trkpt><trkpt lat="43.1921319538061" lon="2.6368028340735328"><ele>65.0</ele><time>2026-03-22T10:57:10Z</time></trkpt><trkpt lat="43.19209095600189" lon="2.637006262119439"><ele>67.0</ele><time>2026-03-22T10:57:11Z</time></trkpt><trkpt lat="43.192040578809056" lon="2.637214717658431"><ele>67.0</ele><time>2026-03-22T10:57:12Z</time></trkpt><trkpt lat="43.191978894304576" lon="2.637437379354411"><ele>67.0</ele><time>2026-03-22T10:57:13Z</time></trkpt><trkpt lat="43.19190413836264" lon="2.637697239076008"><ele>67.0</ele><time>2026-03-22T10:57:14Z</time></trkpt><trkpt lat="43.19182519162178" lon="2.6379994223046443"><ele>66.0</ele><time>2026-03-22T10:57:15Z</time></trkpt><trkpt lat="43.19174158486369" lon="2.6383395652075317"><ele>65.0</ele><time>2026-03-22T10:57:16Z</time></trkpt><trkpt lat="43.191667861495034" lon="2.6386772832674716"><ele>64.66666666666667</ele><time>2026-03-22T10:57:17Z</time></trkpt><trkpt lat="43.19161145431526" lon="2.6389734913089127"><ele>64.33333333333333</ele><time>2026-03-22T10:57:18Z</time></trkpt><trkpt lat="43.191570347285705" lon="2.639246118886148"><ele>64.0</ele><time>2026-03-22T10:57:19Z</time></trkpt><trkpt lat="43.191527735430014" lon="2.6395034693333836"><ele>65.33333333333333</ele><time>2026-03-22T10:57:20Z</time></trkpt><trkpt lat="43.1914839223782" lon="2.6397424950184805"><ele>66.66666666666667</ele><time>2026-03-22T10:57:21Z</time></trkpt><trkpt lat="43.19144389657092" lon="2.639965246500526"><ele>68.0</ele><time>2026-03-22T10:57:22Z</time></trkpt><trkpt lat="43.19141041472345" lon="2.6401543211551735"><ele>67.75</ele><time>2026-03-22T10:57:23Z</time></trkpt><trkpt lat="43.19137975238564" lon="2.640327170727632"><ele>67.5</ele><time>2026-03-22T10:57:24Z</time></trkpt><trkpt lat="43.19134374445643" lon="2.6404967023425874"><ele>67.25</ele><time>2026-03-22T10:57:25Z</time></trkpt><trkpt lat="43.1913000481157" lon="2.640658173492051"><ele>67.0</ele><time>2026-03-22T10:57:26Z</time></trkpt><trkpt lat="43.191251109783536" lon="2.640797604589499"><ele>67.0</ele><time>2026-03-22T10:57:27Z</time></trkpt><trkpt lat="43.19120526720922" lon="2.640923014878086"><ele>67.0</ele><time>2026-03-22T10:57:28Z</time></trkpt><trkpt lat="43.191168668606494" lon="2.641029626033206"><ele>67.0</ele><time>2026-03-22T10:57:29Z</time></trkpt><trkpt lat="43.19113627571034" lon="2.6411243782245686"><ele>67.0</ele><time>2026-03-22T10:57:30Z</time></trkpt><trkpt lat="43.19110397938219" lon="2.6412081152539786"><ele>67.0</ele><time>2026-03-22T10:57:31Z</time></trkpt><trkpt lat="43.191048762999635" lon="2.6413178222916023"><ele>67.0</ele><time>2026-03-22T10:57:33Z</time></trkpt><trkpt lat="43.190999309641" lon="2.6413724422774774"><ele>67.0</ele><time>2026-03-22T10:57:35Z</time></trkpt><trkpt lat="43.190915180480914" lon="2.6414100285129196"><ele>67.0</ele><time>2026-03-22T10:57:38Z</time></trkpt><trkpt lat="43.190757014784936" lon="2.641423607450679"><ele>67.0</ele><time>2026-03-22T10:57:40Z</time></trkpt><trkpt lat="43.190674753773635" lon="2.6414356107913903"><ele>67.0</ele><time>2026-03-22T10:57:41Z</time></trkpt><trkpt lat="43.19058880924912" lon="2.6415029186750383"><ele>67.0</ele><time>2026-03-22T10:57:42Z</time></trkpt><trkpt lat="43.19048731978534" lon="2.641595737864017"><ele>67.0</ele><time>2026-03-22T10:57:43Z</time></trkpt><trkpt lat="43.190358234469784" lon="2.641729850002629"><ele>67.0</ele><time>2026-03-22T10:57:44Z</time></trkpt><trkpt lat="43.190211955339265" lon="2.641886770947516"><ele>67.0</ele><time>2026-03-22T10:57:45Z</time></trkpt><trkpt lat="43.19005832938179" lon="2.6420401826828064"><ele>66.66666666666666</ele><time>2026-03-22T10:57:46Z</time></trkpt><trkpt lat="43.18989982169374" lon="2.642184476167805"><ele>66.33333333333333</ele><time>2026-03-22T10:57:47Z</time></trkpt><trkpt lat="43.18976472825267" lon="2.642315507019629"><ele>66.0</ele><time>2026-03-22T10:57:48Z</time></trkpt><trkpt lat="43.189629016877376" lon="2.6424550216886464"><ele>67.33333333333333</ele><time>2026-03-22T10:57:49Z</time></trkpt><trkpt lat="43.18948470739016" lon="2.6426026996762553"><ele>68.66666666666666</ele><time>2026-03-22T10:57:50Z</time></trkpt><trkpt lat="43.189330493175795" lon="2.6427571500384475"><ele>70.0</ele><time>2026-03-22T10:57:51Z</time></trkpt><trkpt lat="43.1891740449338" lon="2.642913724610669"><ele>70.0</ele><time>2026-03-22T10:57:52Z</time></trkpt><trkpt lat="43.18902998911296" lon="2.6430537459762973"><ele>70.0</ele><time>2026-03-22T10:57:53Z</time></trkpt><trkpt lat="43.188890570076104" lon="2.6431890550467902"><ele>70.0</ele><time>2026-03-22T10:57:54Z</time></trkpt><trkpt lat="43.18876542774542" lon="2.643311694963319"><ele>71.0</ele><time>2026-03-22T10:57:55Z</time></trkpt><trkpt lat="43.188637203904115" lon="2.6434398163891597"><ele>72.0</ele><time>2026-03-22T10:57:56Z</time></trkpt><trkpt lat="43.18850420955153" lon="2.643569025294387"><ele>73.0</ele><time>2026-03-22T10:57:57Z</time></trkpt><trkpt lat="43.18836430042026" lon="2.6437056549263067"><ele>73.0</ele><time>2026-03-22T10:57:58Z</time></trkpt><trkpt lat="43.18822901071583" lon="2.6438413990186853"><ele>73.0</ele><time>2026-03-22T10:57:59Z</time></trkpt><trkpt lat="43.188085056116854" lon="2.6439920763193663"><ele>73.0</ele><time>2026-03-22T10:58:00Z</time></trkpt><trkpt lat="43.18793925787627" lon="2.644141353953447"><ele>73.66666666666666</ele><time>2026-03-22T10:58:01Z</time></trkpt><trkpt lat="43.18780199428878" lon="2.6442730886358916"><ele>74.33333333333333</ele><time>2026-03-22T10:58:02Z</time></trkpt><trkpt lat="43.18767934128556" lon="2.644386917198841"><ele>75.0</ele><time>2026-03-22T10:58:03Z</time></trkpt><trkpt lat="43.18755286732661" lon="2.6444998484329485"><ele>75.33333333333333</ele><time>2026-03-22T10:58:04Z</time></trkpt><trkpt lat="43.18741260695348" lon="2.644612295808941"><ele>75.66666666666666</ele><time>2026-03-22T10:58:05Z</time></trkpt><trkpt lat="43.18726366069266" lon="2.644715766601456"><ele>76.0</ele><time>2026-03-22T10:58:06Z</time></trkpt><trkpt lat="43.18711015536787" lon="2.6448015874889657"><ele>77.25</ele><time>2026-03-22T10:58:07Z</time></trkpt><trkpt lat="43.1869641585713" lon="2.6448718500113726"><ele>78.5</ele><time>2026-03-22T10:58:08Z</time></trkpt><trkpt lat="43.18682977338444" lon="2.6449172969177273"><ele>79.75</ele><time>2026-03-22T10:58:09Z</time></trkpt><trkpt lat="43.18670964481817" lon="2.6449429822243236"><ele>81.0</ele><time>2026-03-22T10:58:10Z</time></trkpt><trkpt lat="43.186604721035685" lon="2.644954935893919"><ele>81.0</ele><time>2026-03-22T10:58:11Z</time></trkpt><trkpt lat="43.1865262299774" lon="2.644957406121432"><ele>81.0</ele><time>2026-03-22T10:58:12Z</time></trkpt><trkpt lat="43.18645426055055" lon="2.6449572905982928"><ele>81.0</ele><time>2026-03-22T10:58:13Z</time></trkpt><trkpt lat="43.186349636972324" lon="2.6449534043492333"><ele>81.0</ele><time>2026-03-22T10:58:15Z</time></trkpt><trkpt lat="43.18627586730726" lon="2.6449584357122227"><ele>81.0</ele><time>2026-03-22T10:58:17Z</time></trkpt><trkpt lat="43.18618226586141" lon="2.644956850206496"><ele>81.0</ele><time>2026-03-22T10:58:19Z</time></trkpt><trkpt lat="43.18605679346118" lon="2.6449672778245863"><ele>82.25</ele><time>2026-03-22T10:58:21Z</time></trkpt><trkpt lat="43.1859842587604" lon="2.645004917031663"><ele>83.5</ele><time>2026-03-22T10:58:22Z</time></trkpt><trkpt lat="43.185886589590666" lon="2.6450984456255267"><ele>84.75</ele><time>2026-03-22T10:58:23Z</time></trkpt><trkpt lat="43.18576914749151" lon="2.6452373644530542"><ele>86.0</ele><time>2026-03-22T10:58:24Z</time></trkpt><trkpt lat="43.18562417473438" lon="2.6453797642365813"><ele>86.5</ele><time>2026-03-22T10:58:25Z</time></trkpt><trkpt lat="43.18550128123698" lon="2.6455112194736596"><ele>87.0</ele><time>2026-03-22T10:58:26Z</time></trkpt><trkpt lat="43.18540064300037" lon="2.6456306002473218"><ele>87.5</ele><time>2026-03-22T10:58:27Z</time></trkpt><trkpt lat="43.185287717484805" lon="2.645756314834818"><ele>88.0</ele><time>2026-03-22T10:58:28Z</time></trkpt><trkpt lat="43.18516457296815" lon="2.6458849896711008"><ele>88.0</ele><time>2026-03-22T10:58:29Z</time></trkpt><trkpt lat="43.18504216972209" lon="2.6460062427381756"><ele>88.0</ele><time>2026-03-22T10:58:30Z</time></trkpt><trkpt lat="43.18492608181506" lon="2.646128811628627"><ele>88.0</ele><time>2026-03-22T10:58:31Z</time></trkpt><trkpt lat="43.184812317035416" lon="2.6462474729531764"><ele>88.0</ele><time>2026-03-22T10:58:32Z</time></trkpt><trkpt lat="43.18471055151119" lon="2.6463592890333305"><ele>89.5</ele><time>2026-03-22T10:58:33Z</time></trkpt><trkpt lat="43.1845981811936" lon="2.6464627440785655"><ele>91.0</ele><time>2026-03-22T10:58:34Z</time></trkpt><trkpt lat="43.18448549032522" lon="2.646575907009036"><ele>92.5</ele><time>2026-03-22T10:58:35Z</time></trkpt><trkpt lat="43.18438115246728" lon="2.6467058626879676"><ele>94.0</ele><time>2026-03-22T10:58:36Z</time></trkpt><trkpt lat="43.184281324576325" lon="2.6468242863298093"><ele>94.0</ele><time>2026-03-22T10:58:37Z</time></trkpt><trkpt lat="43.184172836099684" lon="2.64694828450604"><ele>94.0</ele><time>2026-03-22T10:58:38Z</time></trkpt><trkpt lat="43.18407738682058" lon="2.6470690580946976"><ele>94.0</ele><time>2026-03-22T10:58:39Z</time></trkpt><trkpt lat="43.18399708245722" lon="2.6471763962919654"><ele>94.0</ele><time>2026-03-22T10:58:40Z</time></trkpt><trkpt lat="43.18392780465302" lon="2.6472665541019307"><ele>95.0</ele><time>2026-03-22T10:58:41Z</time></trkpt><trkpt lat="43.18385649926243" lon="2.647358935462283"><ele>96.0</ele><time>2026-03-22T10:58:42Z</time></trkpt><trkpt lat="43.18377967809771" lon="2.647456407905206"><ele>97.0</ele><time>2026-03-22T10:58:43Z</time></trkpt><trkpt lat="43.18370928231144" lon="2.647549907277774"><ele>98.0</ele><time>2026-03-22T10:58:44Z</time></trkpt><trkpt lat="43.18365260862187" lon="2.647625167938073"><ele>99.0</ele><time>2026-03-22T10:58:45Z</time></trkpt><trkpt lat="43.18359617509254" lon="2.647688744042758"><ele>99.0</ele><time>2026-03-22T10:58:46Z</time></trkpt><trkpt lat="43.183544608918695" lon="2.647761818497601"><ele>99.0</ele><time>2026-03-22T10:58:47Z</time></trkpt><trkpt lat="43.183498820719365" lon="2.6478338298989295"><ele>99.0</ele><time>2026-03-22T10:58:48Z</time></trkpt><trkpt lat="43.183452823323385" lon="2.647915444904638"><ele>99.0</ele><time>2026-03-22T10:58:49Z</time></trkpt><trkpt lat="43.1834061607668" lon="2.6479876651507803"><ele>99.0</ele><time>2026-03-22T10:58:50Z</time></trkpt><trkpt lat="43.18333427881381" lon="2.6481189083700247"><ele>99.0</ele><time>2026-03-22T10:58:52Z</time></trkpt><trkpt lat="43.183275602825766" lon="2.648237954740875"><ele>99.0</ele><time>2026-03-22T10:58:54Z</time></trkpt><trkpt lat="43.18321153109741" lon="2.648350971167162"><ele>99.0</ele><time>2026-03-22T10:58:56Z</time></trkpt><trkpt lat="43.18317574599039" lon="2.6484256671792723"><ele>99.0</ele><time>2026-03-22T10:58:57Z</time></trkpt><trkpt lat="43.18313392433656" lon="2.6485043278799973"><ele>99.0</ele><time>2026-03-22T10:58:58Z</time></trkpt><trkpt lat="43.18308226715061" lon="2.648598027345689"><ele>99.0</ele><time>2026-03-22T10:58:59Z</time></trkpt><trkpt lat="43.18301696769469" lon="2.648678235858475"><ele>99.0</ele><time>2026-03-22T10:59:00Z</time></trkpt><trkpt lat="43.182957108969475" lon="2.6487466990621797"><ele>99.0</ele><time>2026-03-22T10:59:01Z</time></trkpt><trkpt lat="43.18289012183378" lon="2.648805064440561"><ele>99.0</ele><time>2026-03-22T10:59:02Z</time></trkpt><trkpt lat="43.182827392497124" lon="2.6488683425918307"><ele>99.0</ele><time>2026-03-22T10:59:03Z</time></trkpt><trkpt lat="43.1827643017166" lon="2.648927732674373"><ele>99.0</ele><time>2026-03-22T10:59:04Z</time></trkpt><trkpt lat="43.18268336964357" lon="2.6489959542807435"><ele>99.0</ele><time>2026-03-22T10:59:05Z</time></trkpt><trkpt lat="43.182594859561654" lon="2.649067425120251"><ele>99.0</ele><time>2026-03-22T10:59:06Z</time></trkpt><trkpt lat="43.18251422743551" lon="2.6491278483673533"><ele>99.0</ele><time>2026-03-22T10:59:07Z</time></trkpt><trkpt lat="43.182417910653676" lon="2.649187486564127"><ele>99.0</ele><time>2026-03-22T10:59:08Z</time></trkpt><trkpt lat="43.18231224975468" lon="2.649249541327938"><ele>99.0</ele><time>2026-03-22T10:59:09Z</time></trkpt><trkpt lat="43.18220110302792" lon="2.6493120304152105"><ele>99.0</ele><time>2026-03-22T10:59:10Z</time></trkpt><trkpt lat="43.182103684203845" lon="2.649371231429936"><ele>99.0</ele><time>2026-03-22T10:59:11Z</time></trkpt><trkpt lat="43.182013766749535" lon="2.649428184074962"><ele>98.5</ele><time>2026-03-22T10:59:12Z</time></trkpt><trkpt lat="43.181913548520015" lon="2.6494914893203174"><ele>98.0</ele><time>2026-03-22T10:59:13Z</time></trkpt><trkpt lat="43.18181376662577" lon="2.6495645402297265"><ele>97.5</ele><time>2026-03-22T10:59:14Z</time></trkpt><trkpt lat="43.18170937626873" lon="2.649628124856523"><ele>97.0</ele><time>2026-03-22T10:59:15Z</time></trkpt><trkpt lat="43.18160586108278" lon="2.649694911794118"><ele>98.00000000000001</ele><time>2026-03-22T10:59:16Z</time></trkpt><trkpt lat="43.18150925759977" lon="2.649740557395614"><ele>99.0</ele><time>2026-03-22T10:59:17Z</time></trkpt><trkpt lat="43.18142793777121" lon="2.6497893592464092"><ele>100.0</ele><time>2026-03-22T10:59:18Z</time></trkpt><trkpt lat="43.18135569559919" lon="2.649825808651152"><ele>101.0</ele><time>2026-03-22T10:59:19Z</time></trkpt><trkpt lat="43.18129207031655" lon="2.6498684126246803"><ele>102.00000000000001</ele><time>2026-03-22T10:59:21Z</time></trkpt><trkpt lat="43.18122161299618" lon="2.6498943046844468"><ele>103.0</ele><time>2026-03-22T10:59:24Z</time></trkpt><trkpt lat="43.18112188461185" lon="2.6499315413506666"><ele>103.0</ele><time>2026-03-22T10:59:28Z</time></trkpt><trkpt lat="43.18105880123913" lon="2.6500727015298042"><ele>103.0</ele><time>2026-03-22T10:59:30Z</time></trkpt><trkpt lat="43.1810313033619" lon="2.650163767598784"><ele>103.0</ele><time>2026-03-22T10:59:31Z</time></trkpt><trkpt lat="43.18099622015811" lon="2.6502674362659597"><ele>103.0</ele><time>2026-03-22T10:59:32Z</time></trkpt><trkpt lat="43.180956986445665" lon="2.650378350672938"><ele>103.0</ele><time>2026-03-22T10:59:33Z</time></trkpt><trkpt lat="43.18091311331354" lon="2.650496360637061"><ele>102.60000000000001</ele><time>2026-03-22T10:59:34Z</time></trkpt><trkpt lat="43.18086301031422" lon="2.650629868080289"><ele>102.2</ele><time>2026-03-22T10:59:35Z</time></trkpt><trkpt lat="43.180810730366616" lon="2.6507691769814703"><ele>101.8</ele><time>2026-03-22T10:59:36Z</time></trkpt><trkpt lat="43.18076461817489" lon="2.650891160680753"><ele>101.4</ele><time>2026-03-22T10:59:37Z</time></trkpt><trkpt lat="43.180725265788496" lon="2.650996032469965"><ele>101.0</ele><time>2026-03-22T10:59:38Z</time></trkpt><trkpt lat="43.18068834814141" lon="2.6511004161951917"><ele>101.28571428571428</ele><time>2026-03-22T10:59:39Z</time></trkpt><trkpt lat="43.18065704231221" lon="2.651188932924246"><ele>101.57142857142857</ele><time>2026-03-22T10:59:40Z</time></trkpt><trkpt lat="43.18062367230443" lon="2.6512872501732994"><ele>101.85714285714286</ele><time>2026-03-22T10:59:41Z</time></trkpt><trkpt lat="43.18058973706027" lon="2.651377353742537"><ele>102.14285714285714</ele><time>2026-03-22T10:59:42Z</time></trkpt><trkpt lat="43.180555125203384" lon="2.6514649063510753"><ele>102.42857142857143</ele><time>2026-03-22T10:59:43Z</time></trkpt><trkpt lat="43.18050653624101" lon="2.6515388191255123"><ele>102.71428571428571</ele><time>2026-03-22T10:59:44Z</time></trkpt><trkpt lat="43.180451656530224" lon="2.6516030603374485"><ele>103.0</ele><time>2026-03-22T10:59:45Z</time></trkpt><trkpt lat="43.18039413441219" lon="2.651667968840157"><ele>103.00000000000001</ele><time>2026-03-22T10:59:46Z</time></trkpt><trkpt lat="43.18034495636769" lon="2.651741693379274"><ele>103.0</ele><time>2026-03-22T10:59:47Z</time></trkpt><trkpt lat="43.18030577178415" lon="2.651814351989563"><ele>103.0</ele><time>2026-03-22T10:59:48Z</time></trkpt><trkpt lat="43.18026969533691" lon="2.6518924820278365"><ele>103.0</ele><time>2026-03-22T10:59:49Z</time></trkpt><trkpt lat="43.18023764058525" lon="2.6519698679517183"><ele>103.00000000000001</ele><time>2026-03-22T10:59:50Z</time></trkpt><trkpt lat="43.180179454570506" lon="2.652118963909581"><ele>103.0</ele><time>2026-03-22T10:59:52Z</time></trkpt><trkpt lat="43.18012682444294" lon="2.652270556732684"><ele>102.4</ele><time>2026-03-22T10:59:54Z</time></trkpt><trkpt lat="43.1800744716023" lon="2.6524309075990886"><ele>101.80000000000001</ele><time>2026-03-22T10:59:56Z</time></trkpt><trkpt lat="43.1800490012881" lon="2.652514793530138"><ele>101.2</ele><time>2026-03-22T10:59:57Z</time></trkpt><trkpt lat="43.18000413818019" lon="2.652666254204628"><ele>100.6</ele><time>2026-03-22T10:59:59Z</time></trkpt><trkpt lat="43.17996109972123" lon="2.65282115519969"><ele>100.0</ele><time>2026-03-22T11:00:01Z</time></trkpt><trkpt lat="43.17993652066308" lon="2.652935401210321"><ele>99.8</ele><time>2026-03-22T11:00:02Z</time></trkpt><trkpt lat="43.17992349385724" lon="2.6530336974683744"><ele>99.6</ele><time>2026-03-22T11:00:03Z</time></trkpt><trkpt lat="43.179917504275345" lon="2.6531291945245736"><ele>99.4</ele><time>2026-03-22T11:00:04Z</time></trkpt><trkpt lat="43.1799137720985" lon="2.653311259940403"><ele>99.2</ele><time>2026-03-22T11:00:06Z</time></trkpt><trkpt lat="43.179911401141375" lon="2.653426921371463"><ele>99.0</ele><time>2026-03-22T11:00:07Z</time></trkpt><trkpt lat="43.17990994087569" lon="2.6535564103078464"><ele>98.4</ele><time>2026-03-22T11:00:08Z</time></trkpt><trkpt lat="43.179908820665965" lon="2.65369163992687"><ele>97.80000000000001</ele><time>2026-03-22T11:00:09Z</time></trkpt><trkpt lat="43.179907668991255" lon="2.6538306676059698"><ele>97.19999999999999</ele><time>2026-03-22T11:00:10Z</time></trkpt><trkpt lat="43.17990629865143" lon="2.653972779227414"><ele>96.6</ele><time>2026-03-22T11:00:11Z</time></trkpt><trkpt lat="43.17990463499263" lon="2.654103227134577"><ele>96.0</ele><time>2026-03-22T11:00:12Z</time></trkpt><trkpt lat="43.17990298616893" lon="2.6542325119798957"><ele>96.0</ele><time>2026-03-22T11:00:13Z</time></trkpt><trkpt lat="43.17990237641645" lon="2.654369050389565"><ele>96.0</ele><time>2026-03-22T11:00:14Z</time></trkpt><trkpt lat="43.17991688345835" lon="2.654501454394304"><ele>96.0</ele><time>2026-03-22T11:00:15Z</time></trkpt><trkpt lat="43.17990016774487" lon="2.6546193469069483"><ele>96.0</ele><time>2026-03-22T11:00:16Z</time></trkpt><trkpt lat="43.17990072717959" lon="2.6547545701925235"><ele>96.0</ele><time>2026-03-22T11:00:17Z</time></trkpt><trkpt lat="43.17989333671659" lon="2.6548871948752604"><ele>96.0</ele><time>2026-03-22T11:00:18Z</time></trkpt><trkpt lat="43.17990952102639" lon="2.6550098979943653"><ele>96.0</ele><time>2026-03-22T11:00:19Z</time></trkpt><trkpt lat="43.17996110310121" lon="2.655096685459164"><ele>96.0</ele><time>2026-03-22T11:00:20Z</time></trkpt><trkpt lat="43.180005418348856" lon="2.6552222302647674"><ele>96.0</ele><time>2026-03-22T11:00:22Z</time></trkpt><trkpt lat="43.18002754282511" lon="2.6553560592327705"><ele>96.0</ele><time>2026-03-22T11:00:24Z</time></trkpt><trkpt lat="43.18004829541737" lon="2.655460744892956"><ele>96.5</ele><time>2026-03-22T11:00:25Z</time></trkpt><trkpt lat="43.180068238889" lon="2.655592085323018"><ele>97.0</ele><time>2026-03-22T11:00:26Z</time></trkpt><trkpt lat="43.18006747749477" lon="2.6557116787790043"><ele>97.5</ele><time>2026-03-22T11:00:27Z</time></trkpt><trkpt lat="43.18009385442844" lon="2.655808251106916"><ele>98.0</ele><time>2026-03-22T11:00:28Z</time></trkpt><trkpt lat="43.180096308000955" lon="2.6559287853984346"><ele>98.5</ele><time>2026-03-22T11:00:29Z</time></trkpt><trkpt lat="43.18011317123406" lon="2.6560503975888423"><ele>99.0</ele><time>2026-03-22T11:00:30Z</time></trkpt><trkpt lat="43.18012788656046" lon="2.6561787553536815"><ele>99.75</ele><time>2026-03-22T11:00:31Z</time></trkpt><trkpt lat="43.1801373972837" lon="2.656345916853614"><ele>100.5</ele><time>2026-03-22T11:00:32Z</time></trkpt><trkpt lat="43.180162341885456" lon="2.656544472258852"><ele>101.25</ele><time>2026-03-22T11:00:33Z</time></trkpt><trkpt lat="43.180176597321655" lon="2.656705688969659"><ele>102.0</ele><time>2026-03-22T11:00:34Z</time></trkpt><trkpt lat="43.18017704168964" lon="2.6568409698526234"><ele>100.8</ele><time>2026-03-22T11:00:35Z</time></trkpt><trkpt lat="43.18019364609013" lon="2.6569672699254494"><ele>99.6</ele><time>2026-03-22T11:00:36Z</time></trkpt><trkpt lat="43.18020454791387" lon="2.657087332249831"><ele>98.39999999999999</ele><time>2026-03-22T11:00:37Z</time></trkpt><trkpt lat="43.18022110827515" lon="2.657213337777151"><ele>97.19999999999999</ele><time>2026-03-22T11:00:38Z</time></trkpt><trkpt lat="43.18023342197955" lon="2.6573406485324806"><ele>96.0</ele><time>2026-03-22T11:00:39Z</time></trkpt><trkpt lat="43.1802407115006" lon="2.6574963021802986"><ele>96.0</ele><time>2026-03-22T11:00:40Z</time></trkpt><trkpt lat="43.18023493001302" lon="2.6576611126306644"><ele>96.0</ele><time>2026-03-22T11:00:41Z</time></trkpt><trkpt lat="43.18021946006905" lon="2.657828525753064"><ele>96.0</ele><time>2026-03-22T11:00:42Z</time></trkpt><trkpt lat="43.18021243910679" lon="2.6580282317493196"><ele>96.0</ele><time>2026-03-22T11:00:43Z</time></trkpt><trkpt lat="43.180170261442974" lon="2.6582482171787363"><ele>95.0</ele><time>2026-03-22T11:00:44Z</time></trkpt><trkpt lat="43.180148530694275" lon="2.658520293880255"><ele>94.0</ele><time>2026-03-22T11:00:45Z</time></trkpt><trkpt lat="43.18011173469153" lon="2.6587939730348977"><ele>93.0</ele><time>2026-03-22T11:00:46Z</time></trkpt><trkpt lat="43.18008567038149" lon="2.6591060501696004"><ele>88.5</ele><time>2026-03-22T11:00:47Z</time></trkpt><trkpt lat="43.18006362989525" lon="2.659451337230716"><ele>84.0</ele><time>2026-03-22T11:00:48Z</time></trkpt><trkpt lat="43.180047000896685" lon="2.659753951406839"><ele>84.0</ele><time>2026-03-22T11:00:49Z</time></trkpt><trkpt lat="43.18003113608629" lon="2.6600349141600312"><ele>84.0</ele><time>2026-03-22T11:00:50Z</time></trkpt><trkpt lat="43.18001235587921" lon="2.660300989797384"><ele>84.0</ele><time>2026-03-22T11:00:51Z</time></trkpt><trkpt lat="43.17999576327029" lon="2.6605572152393244"><ele>83.66666666666667</ele><time>2026-03-22T11:00:52Z</time></trkpt><trkpt lat="43.179975741996536" lon="2.6608043440410416"><ele>83.33333333333334</ele><time>2026-03-22T11:00:53Z</time></trkpt><trkpt lat="43.179933610590695" lon="2.6610578758832393"><ele>83.0</ele><time>2026-03-22T11:00:54Z</time></trkpt><trkpt lat="43.179859546714326" lon="2.6613225864782946"><ele>84.0</ele><time>2026-03-22T11:00:55Z</time></trkpt><trkpt lat="43.17977020446434" lon="2.661616896086411"><ele>85.0</ele><time>2026-03-22T11:00:56Z</time></trkpt><trkpt lat="43.17967568261001" lon="2.661886371884532"><ele>85.33333333333333</ele><time>2026-03-22T11:00:57Z</time></trkpt><trkpt lat="43.17956439205057" lon="2.662131534580406"><ele>85.66666666666667</ele><time>2026-03-22T11:00:58Z</time></trkpt><trkpt lat="43.17945792963091" lon="2.6623678809390143"><ele>86.0</ele><time>2026-03-22T11:00:59Z</time></trkpt><trkpt lat="43.17937475791343" lon="2.6626001734576366"><ele>86.66666666666667</ele><time>2026-03-22T11:01:00Z</time></trkpt><trkpt lat="43.17930714815276" lon="2.6628516873692893"><ele>87.33333333333333</ele><time>2026-03-22T11:01:01Z</time></trkpt><trkpt lat="43.1792414030834" lon="2.663136107643126"><ele>88.0</ele><time>2026-03-22T11:01:02Z</time></trkpt><trkpt lat="43.17917488612785" lon="2.663425063440172"><ele>87.0</ele><time>2026-03-22T11:01:03Z</time></trkpt><trkpt lat="43.17911479489646" lon="2.6637271140097862"><ele>86.0</ele><time>2026-03-22T11:01:04Z</time></trkpt><trkpt lat="43.17906728495378" lon="2.6640365064767386"><ele>86.0</ele><time>2026-03-22T11:01:05Z</time></trkpt><trkpt lat="43.179034820262004" lon="2.664322692675449"><ele>86.0</ele><time>2026-03-22T11:01:06Z</time></trkpt><trkpt lat="43.179006296135896" lon="2.6645938758819994"><ele>86.0</ele><time>2026-03-22T11:01:07Z</time></trkpt><trkpt lat="43.1789791250729" lon="2.6648518486464807"><ele>85.66666666666667</ele><time>2026-03-22T11:01:08Z</time></trkpt><trkpt lat="43.178963872197585" lon="2.6650974740207194"><ele>85.33333333333333</ele><time>2026-03-22T11:01:09Z</time></trkpt><trkpt lat="43.17897166687633" lon="2.6653452552092127"><ele>85.0</ele><time>2026-03-22T11:01:10Z</time></trkpt><trkpt lat="43.179016547776094" lon="2.6655859932624453"><ele>85.0</ele><time>2026-03-22T11:01:11Z</time></trkpt><trkpt lat="43.1790739777925" lon="2.6658439584342837"><ele>85.0</ele><time>2026-03-22T11:01:12Z</time></trkpt><trkpt lat="43.17911122430439" lon="2.6661104738230397"><ele>85.0</ele><time>2026-03-22T11:01:13Z</time></trkpt><trkpt lat="43.17917072874436" lon="2.666378084160888"><ele>85.0</ele><time>2026-03-22T11:01:14Z</time></trkpt><trkpt lat="43.179219412208425" lon="2.6666587827756496"><ele>85.0</ele><time>2026-03-22T11:01:15Z</time></trkpt><trkpt lat="43.17926711107922" lon="2.666933718301752"><ele>85.0</ele><time>2026-03-22T11:01:16Z</time></trkpt><trkpt lat="43.17931556882654" lon="2.6671873718338457"><ele>85.0</ele><time>2026-03-22T11:01:17Z</time></trkpt><trkpt lat="43.17936002622985" lon="2.667437692935827"><ele>85.0</ele><time>2026-03-22T11:01:18Z</time></trkpt><trkpt lat="43.17940109877924" lon="2.667661024720421"><ele>85.0</ele><time>2026-03-22T11:01:19Z</time></trkpt><trkpt lat="43.17943854890012" lon="2.6678800353915704"><ele>84.75</ele><time>2026-03-22T11:01:20Z</time></trkpt><trkpt lat="43.17947013644004" lon="2.66809626716872"><ele>84.5</ele><time>2026-03-22T11:01:21Z</time></trkpt><trkpt lat="43.17949941997823" lon="2.6683103208950745"><ele>84.25</ele><time>2026-03-22T11:01:22Z</time></trkpt><trkpt lat="43.179530240748605" lon="2.668483283722616"><ele>84.0</ele><time>2026-03-22T11:01:23Z</time></trkpt><trkpt lat="43.179571101813586" lon="2.6686434860217614"><ele>83.0</ele><time>2026-03-22T11:01:24Z</time></trkpt><trkpt lat="43.179600292963755" lon="2.668795319010532"><ele>82.0</ele><time>2026-03-22T11:01:25Z</time></trkpt><trkpt lat="43.17963471750157" lon="2.6689428291279147"><ele>81.0</ele><time>2026-03-22T11:01:26Z</time></trkpt><trkpt lat="43.1796702278285" lon="2.6690735293130707"><ele>80.0</ele><time>2026-03-22T11:01:27Z</time></trkpt><trkpt lat="43.17970258154887" lon="2.6691817953578796"><ele>79.0</ele><time>2026-03-22T11:01:28Z</time></trkpt><trkpt lat="43.17973763234753" lon="2.6692738426148055"><ele>79.0</ele><time>2026-03-22T11:01:29Z</time></trkpt><trkpt lat="43.17975217887426" lon="2.6693865424934824"><ele>79.0</ele><time>2026-03-22T11:01:30Z</time></trkpt><trkpt lat="43.179755728955136" lon="2.6694845612194404"><ele>79.0</ele><time>2026-03-22T11:01:31Z</time></trkpt><trkpt lat="43.17968469004516" lon="2.669609811496992"><ele>79.0</ele><time>2026-03-22T11:01:32Z</time></trkpt><trkpt lat="43.17959365026401" lon="2.66967705681858"><ele>79.0</ele><time>2026-03-22T11:01:33Z</time></trkpt><trkpt lat="43.17950979880204" lon="2.669789315291111"><ele>78.33333333333333</ele><time>2026-03-22T11:01:34Z</time></trkpt><trkpt lat="43.17939825153365" lon="2.669882074147211"><ele>77.66666666666667</ele><time>2026-03-22T11:01:35Z</time></trkpt><trkpt lat="43.17927577124679" lon="2.6700007219501076"><ele>77.0</ele><time>2026-03-22T11:01:36Z</time></trkpt><trkpt lat="43.17912880378075" lon="2.6701584540097456"><ele>77.66666666666667</ele><time>2026-03-22T11:01:37Z</time></trkpt><trkpt lat="43.17896301499807" lon="2.670322822096672"><ele>78.33333333333333</ele><time>2026-03-22T11:01:38Z</time></trkpt><trkpt lat="43.17879416453793" lon="2.670490802627061"><ele>79.0</ele><time>2026-03-22T11:01:39Z</time></trkpt><trkpt lat="43.178639349449625" lon="2.6706366041024556"><ele>79.0</ele><time>2026-03-22T11:01:40Z</time></trkpt><trkpt lat="43.17850527513737" lon="2.670770322542484"><ele>79.0</ele><time>2026-03-22T11:01:41Z</time></trkpt><trkpt lat="43.17836599328225" lon="2.6709107156821386"><ele>79.0</ele><time>2026-03-22T11:01:42Z</time></trkpt><trkpt lat="43.1782216835122" lon="2.6710586432199843"><ele>78.33333333333333</ele><time>2026-03-22T11:01:43Z</time></trkpt><trkpt lat="43.17806517917723" lon="2.6712297823738695"><ele>77.66666666666667</ele><time>2026-03-22T11:01:44Z</time></trkpt><trkpt lat="43.17790873243566" lon="2.671382391310119"><ele>77.0</ele><time>2026-03-22T11:01:45Z</time></trkpt><trkpt lat="43.17775935002123" lon="2.6715337352086226"><ele>77.0</ele><time>2026-03-22T11:01:46Z</time></trkpt><trkpt lat="43.177621759444065" lon="2.6716631078977127"><ele>77.0</ele><time>2026-03-22T11:01:47Z</time></trkpt><trkpt lat="43.17747904423433" lon="2.6718015417393297"><ele>77.0</ele><time>2026-03-22T11:01:48Z</time></trkpt><trkpt lat="43.177338103407635" lon="2.671942433753469"><ele>77.0</ele><time>2026-03-22T11:01:49Z</time></trkpt><trkpt lat="43.17720660637499" lon="2.6720813256875133"><ele>77.0</ele><time>2026-03-22T11:01:50Z</time></trkpt><trkpt lat="43.17707373344688" lon="2.67222068713148"><ele>77.0</ele><time>2026-03-22T11:01:51Z</time></trkpt><trkpt lat="43.176942737085795" lon="2.6723740322046283"><ele>77.0</ele><time>2026-03-22T11:01:52Z</time></trkpt><trkpt lat="43.17681236195604" lon="2.672544868815901"><ele>77.0</ele><time>2026-03-22T11:01:53Z</time></trkpt><trkpt lat="43.17667609496783" lon="2.6727408622827022"><ele>77.0</ele><time>2026-03-22T11:01:54Z</time></trkpt><trkpt lat="43.17654961602947" lon="2.67296627273943"><ele>77.0</ele><time>2026-03-22T11:01:55Z</time></trkpt><trkpt lat="43.17642301953221" lon="2.673226037111904"><ele>77.0</ele><time>2026-03-22T11:01:56Z</time></trkpt><trkpt lat="43.17628937968778" lon="2.6735133972310585"><ele>74.5</ele><time>2026-03-22T11:01:57Z</time></trkpt><trkpt lat="43.176144808390575" lon="2.673810800833217"><ele>72.0</ele><time>2026-03-22T11:01:58Z</time></trkpt><trkpt lat="43.17601554886792" lon="2.674080883801981"><ele>72.0</ele><time>2026-03-22T11:01:59Z</time></trkpt><trkpt lat="43.17588883984598" lon="2.674335092812386"><ele>72.0</ele><time>2026-03-22T11:02:00Z</time></trkpt><trkpt lat="43.17577285482202" lon="2.674574723754713"><ele>72.0</ele><time>2026-03-22T11:02:01Z</time></trkpt><trkpt lat="43.175659660930435" lon="2.6748123427994592"><ele>72.66666666666667</ele><time>2026-03-22T11:02:02Z</time></trkpt><trkpt lat="43.17553353787953" lon="2.6750594275876876"><ele>73.33333333333334</ele><time>2026-03-22T11:02:03Z</time></trkpt><trkpt lat="43.17541917399034" lon="2.6752996338540753"><ele>74.0</ele><time>2026-03-22T11:02:04Z</time></trkpt><trkpt lat="43.17531015004034" lon="2.6755372148748164"><ele>74.0</ele><time>2026-03-22T11:02:05Z</time></trkpt><trkpt lat="43.17519090407016" lon="2.6757791064962784"><ele>74.0</ele><time>2026-03-22T11:02:06Z</time></trkpt><trkpt lat="43.17507097638519" lon="2.676020284626851"><ele>74.0</ele><time>2026-03-22T11:02:07Z</time></trkpt><trkpt lat="43.174946242675944" lon="2.6762637169350483"><ele>74.66666666666667</ele><time>2026-03-22T11:02:08Z</time></trkpt><trkpt lat="43.1748282612553" lon="2.6765109153591675"><ele>75.33333333333333</ele><time>2026-03-22T11:02:09Z</time></trkpt><trkpt lat="43.174708510672026" lon="2.676757960493022"><ele>76.0</ele><time>2026-03-22T11:02:10Z</time></trkpt><trkpt lat="43.17459293625987" lon="2.6770011414012354"><ele>76.0</ele><time>2026-03-22T11:02:11Z</time></trkpt><trkpt lat="43.17447567718027" lon="2.677246046797103"><ele>76.0</ele><time>2026-03-22T11:02:12Z</time></trkpt><trkpt lat="43.17435768470517" lon="2.6774899275833395"><ele>76.0</ele><time>2026-03-22T11:02:13Z</time></trkpt><trkpt lat="43.17423959607781" lon="2.6777352336955076"><ele>76.0</ele><time>2026-03-22T11:02:14Z</time></trkpt><trkpt lat="43.1741241074417" lon="2.6779761508035147"><ele>76.0</ele><time>2026-03-22T11:02:15Z</time></trkpt><trkpt lat="43.17400767550359" lon="2.678218048585588"><ele>76.0</ele><time>2026-03-22T11:02:16Z</time></trkpt><trkpt lat="43.17388952356983" lon="2.6784621019120403"><ele>75.0</ele><time>2026-03-22T11:02:17Z</time></trkpt><trkpt lat="43.173768677544125" lon="2.6787117563067007"><ele>74.0</ele><time>2026-03-22T11:02:18Z</time></trkpt><trkpt lat="43.17364827176701" lon="2.6789633764856102"><ele>73.0</ele><time>2026-03-22T11:02:19Z</time></trkpt><trkpt lat="43.17353035341797" lon="2.6792032888287016"><ele>73.0</ele><time>2026-03-22T11:02:20Z</time></trkpt><trkpt lat="43.17342288339286" lon="2.6794284656605845"><ele>73.0</ele><time>2026-03-22T11:02:21Z</time></trkpt><trkpt lat="43.1733206861845" lon="2.679640778831219"><ele>73.0</ele><time>2026-03-22T11:02:22Z</time></trkpt><trkpt lat="43.17322237880237" lon="2.6798448390348524"><ele>74.66666666666666</ele><time>2026-03-22T11:02:23Z</time></trkpt><trkpt lat="43.173128266506936" lon="2.680042256074905"><ele>76.33333333333333</ele><time>2026-03-22T11:02:24Z</time></trkpt><trkpt lat="43.17303916935807" lon="2.680234318378221"><ele>78.0</ele><time>2026-03-22T11:02:25Z</time></trkpt><trkpt lat="43.17295019198554" lon="2.6804221186951147"><ele>78.0</ele><time>2026-03-22T11:02:26Z</time></trkpt><trkpt lat="43.17285880238705" lon="2.680610866614065"><ele>78.0</ele><time>2026-03-22T11:02:27Z</time></trkpt><trkpt lat="43.17276624020478" lon="2.680798068399113"><ele>78.0</ele><time>2026-03-22T11:02:28Z</time></trkpt><trkpt lat="43.172677208154504" lon="2.6809812479307884"><ele>77.33333333333333</ele><time>2026-03-22T11:02:29Z</time></trkpt><trkpt lat="43.17258934120979" lon="2.681161945146006"><ele>76.66666666666666</ele><time>2026-03-22T11:02:30Z</time></trkpt><trkpt lat="43.172500160358446" lon="2.6813474295108466"><ele>76.0</ele><time>2026-03-22T11:02:31Z</time></trkpt><trkpt lat="43.17239889859942" lon="2.6815589984769646"><ele>76.0</ele><time>2026-03-22T11:02:32Z</time></trkpt><trkpt lat="43.17229981809508" lon="2.6817680762320646"><ele>76.0</ele><time>2026-03-22T11:02:33Z</time></trkpt><trkpt lat="43.172201538420424" lon="2.6819749597733065"><ele>76.0</ele><time>2026-03-22T11:02:34Z</time></trkpt><trkpt lat="43.172089976054835" lon="2.6821749895846763"><ele>76.0</ele><time>2026-03-22T11:02:35Z</time></trkpt><trkpt lat="43.17188793955781" lon="2.6825907257854205"><ele>76.0</ele><time>2026-03-22T11:02:36Z</time></trkpt><trkpt lat="43.17174326466879" lon="2.682916117524312"><ele>74.5</ele><time>2026-03-22T11:02:37Z</time></trkpt><trkpt lat="43.171594309046895" lon="2.683228803587735"><ele>73.0</ele><time>2026-03-22T11:02:38Z</time></trkpt><trkpt lat="43.171437261360765" lon="2.683548436910694"><ele>77.0</ele><time>2026-03-22T11:02:39Z</time></trkpt><trkpt lat="43.17129382722041" lon="2.6838375318337193"><ele>81.0</ele><time>2026-03-22T11:02:40Z</time></trkpt><trkpt lat="43.17116651874594" lon="2.684092024175351"><ele>81.0</ele><time>2026-03-22T11:02:41Z</time></trkpt><trkpt lat="43.17105967534722" lon="2.6843128864112686"><ele>81.0</ele><time>2026-03-22T11:02:42Z</time></trkpt><trkpt lat="43.17096996249845" lon="2.68449516116066"><ele>81.0</ele><time>2026-03-22T11:02:43Z</time></trkpt><trkpt lat="43.170882833254105" lon="2.684635357981792"><ele>80.75</ele><time>2026-03-22T11:02:44Z</time></trkpt><trkpt lat="43.17081014689528" lon="2.684793256685502"><ele>80.5</ele><time>2026-03-22T11:02:45Z</time></trkpt><trkpt lat="43.17074948474202" lon="2.6849395135399168"><ele>80.25</ele><time>2026-03-22T11:02:46Z</time></trkpt><trkpt lat="43.17068306966979" lon="2.685073735575394"><ele>80.0</ele><time>2026-03-22T11:02:47Z</time></trkpt><trkpt lat="43.170612563664335" lon="2.685192283250354"><ele>81.0</ele><time>2026-03-22T11:02:48Z</time></trkpt><trkpt lat="43.17053874841246" lon="2.685297716779475"><ele>82.0</ele><time>2026-03-22T11:02:49Z</time></trkpt><trkpt lat="43.170443237006225" lon="2.685376764084696"><ele>83.0</ele><time>2026-03-22T11:02:50Z</time></trkpt><trkpt lat="43.17033726133349" lon="2.685432960484152"><ele>84.0</ele><time>2026-03-22T11:02:51Z</time></trkpt><trkpt lat="43.17023097906407" lon="2.6854610034740345"><ele>85.0</ele><time>2026-03-22T11:02:52Z</time></trkpt><trkpt lat="43.170145883479464" lon="2.6855189572013787"><ele>85.0</ele><time>2026-03-22T11:02:53Z</time></trkpt><trkpt lat="43.170066298445775" lon="2.685546512260349"><ele>85.0</ele><time>2026-03-22T11:02:54Z</time></trkpt><trkpt lat="43.16999483506725" lon="2.685600189754429"><ele>85.0</ele><time>2026-03-22T11:02:55Z</time></trkpt><trkpt lat="43.16988643959906" lon="2.685675348928795"><ele>85.0</ele><time>2026-03-22T11:02:56Z</time></trkpt><trkpt lat="43.169791678661404" lon="2.6857620653558514"><ele>85.0</ele><time>2026-03-22T11:02:57Z</time></trkpt><trkpt lat="43.16969133573184" lon="2.6858394667637984"><ele>84.5</ele><time>2026-03-22T11:02:58Z</time></trkpt><trkpt lat="43.16959103890357" lon="2.6859294184754696"><ele>84.0</ele><time>2026-03-22T11:02:59Z</time></trkpt><trkpt lat="43.16948916035592" lon="2.6860365575848597"><ele>83.5</ele><time>2026-03-22T11:03:00Z</time></trkpt><trkpt lat="43.16939559575382" lon="2.6861303318408427"><ele>83.0</ele><time>2026-03-22T11:03:01Z</time></trkpt><trkpt lat="43.16929686468035" lon="2.6862125274302233"><ele>83.0</ele><time>2026-03-22T11:03:02Z</time></trkpt><trkpt lat="43.16919842232844" lon="2.68630059450819"><ele>83.0</ele><time>2026-03-22T11:03:03Z</time></trkpt><trkpt lat="43.169104728490645" lon="2.686386354994026"><ele>83.0</ele><time>2026-03-22T11:03:04Z</time></trkpt><trkpt lat="43.169016565112614" lon="2.6864645472923114"><ele>83.0</ele><time>2026-03-22T11:03:05Z</time></trkpt><trkpt lat="43.168940441644445" lon="2.686527229993603"><ele>83.0</ele><time>2026-03-22T11:03:06Z</time></trkpt><trkpt lat="43.16887701390665" lon="2.6865861801928457"><ele>83.66666666666667</ele><time>2026-03-22T11:03:07Z</time></trkpt><trkpt lat="43.168814294917944" lon="2.686650157655123"><ele>84.33333333333334</ele><time>2026-03-22T11:03:08Z</time></trkpt><trkpt lat="43.168756101255546" lon="2.6867228933516207"><ele>85.0</ele><time>2026-03-22T11:03:09Z</time></trkpt><trkpt lat="43.16870818059344" lon="2.6868146628579774"><ele>85.66666666666667</ele><time>2026-03-22T11:03:10Z</time></trkpt><trkpt lat="43.16867363472303" lon="2.6869119441354816"><ele>86.33333333333333</ele><time>2026-03-22T11:03:11Z</time></trkpt><trkpt lat="43.16864334355383" lon="2.687011877726678"><ele>87.0</ele><time>2026-03-22T11:03:12Z</time></trkpt><trkpt lat="43.16861164163241" lon="2.687118389300288"><ele>87.0</ele><time>2026-03-22T11:03:13Z</time></trkpt><trkpt lat="43.16857044415166" lon="2.687216886275271"><ele>87.0</ele><time>2026-03-22T11:03:14Z</time></trkpt><trkpt lat="43.168541472192196" lon="2.68730917690964"><ele>87.0</ele><time>2026-03-22T11:03:15Z</time></trkpt><trkpt lat="43.16852141250353" lon="2.6874173153827985"><ele>87.0</ele><time>2026-03-22T11:03:17Z</time></trkpt><trkpt lat="43.16853049636451" lon="2.687532552804417"><ele>87.0</ele><time>2026-03-22T11:03:19Z</time></trkpt><trkpt lat="43.16854371045151" lon="2.6876638201472143"><ele>87.0</ele><time>2026-03-22T11:03:21Z</time></trkpt><trkpt lat="43.16858563318804" lon="2.6878288128773127"><ele>86.5</ele><time>2026-03-22T11:03:23Z</time></trkpt><trkpt lat="43.168613858955986" lon="2.687918594169049"><ele>86.0</ele><time>2026-03-22T11:03:24Z</time></trkpt><trkpt lat="43.16864600100521" lon="2.688017246292106"><ele>85.5</ele><time>2026-03-22T11:03:25Z</time></trkpt><trkpt lat="43.168665983529664" lon="2.6881151930592613"><ele>85.0</ele><time>2026-03-22T11:03:26Z</time></trkpt><trkpt lat="43.168694847416916" lon="2.6882154680692074"><ele>84.5</ele><time>2026-03-22T11:03:27Z</time></trkpt><trkpt lat="43.16873544965998" lon="2.6883154663451214"><ele>84.0</ele><time>2026-03-22T11:03:28Z</time></trkpt><trkpt lat="43.16876302480405" lon="2.68841605331512"><ele>84.0</ele><time>2026-03-22T11:03:29Z</time></trkpt><trkpt lat="43.16879175047" lon="2.6885122413947244"><ele>84.0</ele><time>2026-03-22T11:03:30Z</time></trkpt><trkpt lat="43.168812898302384" lon="2.6886209030519876"><ele>84.0</ele><time>2026-03-22T11:03:31Z</time></trkpt><trkpt lat="43.16883681783942" lon="2.688728995613306"><ele>84.0</ele><time>2026-03-22T11:03:32Z</time></trkpt><trkpt lat="43.16884340774377" lon="2.6888557973260574"><ele>84.0</ele><time>2026-03-22T11:03:33Z</time></trkpt><trkpt lat="43.16882247035678" lon="2.688986130526655"><ele>84.0</ele><time>2026-03-22T11:03:34Z</time></trkpt><trkpt lat="43.16879233825386" lon="2.6891218305060165"><ele>83.6</ele><time>2026-03-22T11:03:35Z</time></trkpt><trkpt lat="43.16874852515041" lon="2.6892445150393414"><ele>83.2</ele><time>2026-03-22T11:03:36Z</time></trkpt><trkpt lat="43.168684746585804" lon="2.689362943300378"><ele>82.8</ele><time>2026-03-22T11:03:37Z</time></trkpt><trkpt lat="43.168614130182405" lon="2.6894692834952276"><ele>82.39999999999999</ele><time>2026-03-22T11:03:38Z</time></trkpt><trkpt lat="43.168564569765365" lon="2.689566960092061"><ele>82.0</ele><time>2026-03-22T11:03:39Z</time></trkpt><trkpt lat="43.168514234351" lon="2.689638385150981"><ele>81.66666666666666</ele><time>2026-03-22T11:03:40Z</time></trkpt><trkpt lat="43.168466652786414" lon="2.6897105653048663"><ele>81.33333333333333</ele><time>2026-03-22T11:03:41Z</time></trkpt><trkpt lat="43.16842235849837" lon="2.6897890613577977"><ele>81.0</ele><time>2026-03-22T11:03:42Z</time></trkpt><trkpt lat="43.168375004791656" lon="2.6898724901054463"><ele>80.66666666666667</ele><time>2026-03-22T11:03:43Z</time></trkpt><trkpt lat="43.16832941695593" lon="2.6899477795668814"><ele>80.33333333333334</ele><time>2026-03-22T11:03:44Z</time></trkpt><trkpt lat="43.16827878011068" lon="2.6900289186013424"><ele>80.0</ele><time>2026-03-22T11:03:45Z</time></trkpt><trkpt lat="43.16822844562256" lon="2.690130312233416"><ele>79.75</ele><time>2026-03-22T11:03:46Z</time></trkpt><trkpt lat="43.16817739444281" lon="2.690237994619145"><ele>79.5</ele><time>2026-03-22T11:03:47Z</time></trkpt><trkpt lat="43.16810514684253" lon="2.6903450463100866"><ele>79.25</ele><time>2026-03-22T11:03:48Z</time></trkpt><trkpt lat="43.16802561512867" lon="2.6904868969264037"><ele>79.0</ele><time>2026-03-22T11:03:49Z</time></trkpt><trkpt lat="43.16793596257134" lon="2.6906574046829026"><ele>78.4</ele><time>2026-03-22T11:03:50Z</time></trkpt><trkpt lat="43.1678730717501" lon="2.690805791595612"><ele>77.80000000000001</ele><time>2026-03-22T11:03:51Z</time></trkpt><trkpt lat="43.167788411853934" lon="2.690878079352044"><ele>77.19999999999999</ele><time>2026-03-22T11:03:52Z</time></trkpt><trkpt lat="43.16774282704128" lon="2.690991958718549"><ele>76.6</ele><time>2026-03-22T11:03:53Z</time></trkpt><trkpt lat="43.16768594329109" lon="2.6910918692326478"><ele>76.0</ele><time>2026-03-22T11:03:54Z</time></trkpt><trkpt lat="43.16761700013514" lon="2.6911939681636365"><ele>75.66666666666666</ele><time>2026-03-22T11:03:55Z</time></trkpt><trkpt lat="43.167546648783215" lon="2.6913310184720602"><ele>75.33333333333333</ele><time>2026-03-22T11:03:56Z</time></trkpt><trkpt lat="43.16744541891917" lon="2.691505869273727"><ele>75.0</ele><time>2026-03-22T11:03:57Z</time></trkpt><trkpt lat="43.167320147767924" lon="2.6917307670102595"><ele>77.0</ele><time>2026-03-22T11:03:58Z</time></trkpt><trkpt lat="43.167185243723026" lon="2.6919737033504876"><ele>79.0</ele><time>2026-03-22T11:03:59Z</time></trkpt><trkpt lat="43.16703450905319" lon="2.692235391234965"><ele>79.0</ele><time>2026-03-22T11:04:00Z</time></trkpt><trkpt lat="43.166871765270365" lon="2.692518188037927"><ele>79.0</ele><time>2026-03-22T11:04:01Z</time></trkpt><trkpt lat="43.16672026355032" lon="2.6927781477153356"><ele>78.33333333333333</ele><time>2026-03-22T11:04:02Z</time></trkpt><trkpt lat="43.166582296854386" lon="2.6930207251957428"><ele>77.66666666666667</ele><time>2026-03-22T11:04:03Z</time></trkpt><trkpt lat="43.16645000418769" lon="2.693249737444906"><ele>77.0</ele><time>2026-03-22T11:04:04Z</time></trkpt><trkpt lat="43.166319148461305" lon="2.6934709218859414"><ele>77.33333333333334</ele><time>2026-03-22T11:04:05Z</time></trkpt><trkpt lat="43.16618404020298" lon="2.6937059896751374"><ele>77.66666666666667</ele><time>2026-03-22T11:04:06Z</time></trkpt><trkpt lat="43.16604877940905" lon="2.6939345120407157"><ele>78.0</ele><time>2026-03-22T11:04:07Z</time></trkpt><trkpt lat="43.16592231932103" lon="2.6941543547682354"><ele>78.0</ele><time>2026-03-22T11:04:08Z</time></trkpt><trkpt lat="43.165812283094404" lon="2.694366884250265"><ele>78.0</ele><time>2026-03-22T11:04:09Z</time></trkpt><trkpt lat="43.165680908494906" lon="2.6945809838593786"><ele>78.0</ele><time>2026-03-22T11:04:10Z</time></trkpt><trkpt lat="43.1655606499547" lon="2.6947895288669383"><ele>77.33333333333333</ele><time>2026-03-22T11:04:11Z</time></trkpt><trkpt lat="43.16543749568392" lon="2.694996995984193"><ele>76.66666666666666</ele><time>2026-03-22T11:04:12Z</time></trkpt><trkpt lat="43.165316301684626" lon="2.6952087749144273"><ele>76.0</ele><time>2026-03-22T11:04:13Z</time></trkpt><trkpt lat="43.16518409451404" lon="2.695445136152844"><ele>76.0</ele><time>2026-03-22T11:04:14Z</time></trkpt><trkpt lat="43.1650419468359" lon="2.6956993165057095"><ele>76.0</ele><time>2026-03-22T11:04:15Z</time></trkpt><trkpt lat="43.16489883587369" lon="2.695951858972264"><ele>80.0</ele><time>2026-03-22T11:04:16Z</time></trkpt><trkpt lat="43.164751736187455" lon="2.6962013204415727"><ele>84.0</ele><time>2026-03-22T11:04:17Z</time></trkpt><trkpt lat="43.16459793451897" lon="2.696460182014462"><ele>84.0</ele><time>2026-03-22T11:04:18Z</time></trkpt><trkpt lat="43.16443213606788" lon="2.696745858560794"><ele>84.0</ele><time>2026-03-22T11:04:19Z</time></trkpt><trkpt lat="43.164253913045535" lon="2.697037180630301"><ele>84.5</ele><time>2026-03-22T11:04:20Z</time></trkpt><trkpt lat="43.16407178520001" lon="2.69732905963444"><ele>85.0</ele><time>2026-03-22T11:04:21Z</time></trkpt><trkpt lat="43.163897708130804" lon="2.6976379857419137"><ele>86.5</ele><time>2026-03-22T11:04:22Z</time></trkpt><trkpt lat="43.163736951154526" lon="2.697919191424452"><ele>88.0</ele><time>2026-03-22T11:04:23Z</time></trkpt><trkpt lat="43.16358616072769" lon="2.698168539700359"><ele>88.0</ele><time>2026-03-22T11:04:24Z</time></trkpt><trkpt lat="43.163442705954225" lon="2.6984066364490453"><ele>88.0</ele><time>2026-03-22T11:04:25Z</time></trkpt><trkpt lat="43.16329132322437" lon="2.6986637603293584"><ele>90.5</ele><time>2026-03-22T11:04:26Z</time></trkpt><trkpt lat="43.163139145607495" lon="2.6989282480805614"><ele>93.0</ele><time>2026-03-22T11:04:27Z</time></trkpt><trkpt lat="43.16297348183904" lon="2.6992150436112547"><ele>94.0</ele><time>2026-03-22T11:04:28Z</time></trkpt><trkpt lat="43.162812359993474" lon="2.699488982950084"><ele>95.0</ele><time>2026-03-22T11:04:29Z</time></trkpt><trkpt lat="43.16266675263393" lon="2.699738222543201"><ele>95.0</ele><time>2026-03-22T11:04:30Z</time></trkpt><trkpt lat="43.162519007666845" lon="2.6999897043062213"><ele>95.0</ele><time>2026-03-22T11:04:31Z</time></trkpt><trkpt lat="43.162369260525985" lon="2.7002545089613132"><ele>96.0</ele><time>2026-03-22T11:04:32Z</time></trkpt><trkpt lat="43.16220588831583" lon="2.7005352625563948"><ele>97.0</ele><time>2026-03-22T11:04:33Z</time></trkpt><trkpt lat="43.162035206058064" lon="2.70082809077382"><ele>97.0</ele><time>2026-03-22T11:04:34Z</time></trkpt><trkpt lat="43.161880211196674" lon="2.7011061803678884"><ele>97.0</ele><time>2026-03-22T11:04:35Z</time></trkpt><trkpt lat="43.16172492834523" lon="2.701375990683104"><ele>97.0</ele><time>2026-03-22T11:04:36Z</time></trkpt><trkpt lat="43.161581273124916" lon="2.701626507880678"><ele>97.0</ele><time>2026-03-22T11:04:37Z</time></trkpt><trkpt lat="43.16144270130062" lon="2.701867741579109"><ele>96.66666666666667</ele><time>2026-03-22T11:04:38Z</time></trkpt><trkpt lat="43.16131034783666" lon="2.702094311763579"><ele>96.33333333333334</ele><time>2026-03-22T11:04:39Z</time></trkpt><trkpt lat="43.161183863067414" lon="2.7023146721678026"><ele>96.0</ele><time>2026-03-22T11:04:40Z</time></trkpt><trkpt lat="43.161063569269494" lon="2.7025198484877615"><ele>96.0</ele><time>2026-03-22T11:04:41Z</time></trkpt><trkpt lat="43.16094766055039" lon="2.7027278291980887"><ele>96.0</ele><time>2026-03-22T11:04:42Z</time></trkpt><trkpt lat="43.16082499451341" lon="2.7029496974251503"><ele>96.0</ele><time>2026-03-22T11:04:43Z</time></trkpt><trkpt lat="43.160700587169636" lon="2.703170118841033"><ele>95.0</ele><time>2026-03-22T11:04:44Z</time></trkpt><trkpt lat="43.1605712390977" lon="2.703395491566347"><ele>94.0</ele><time>2026-03-22T11:04:45Z</time></trkpt><trkpt lat="43.16043499494687" lon="2.703632107573772"><ele>93.0</ele><time>2026-03-22T11:04:46Z</time></trkpt><trkpt lat="43.16028919462169" lon="2.703880708648318"><ele>93.0</ele><time>2026-03-22T11:04:47Z</time></trkpt><trkpt lat="43.16013485773188" lon="2.7041480377470366"><ele>93.0</ele><time>2026-03-22T11:04:48Z</time></trkpt><trkpt lat="43.159975254435416" lon="2.704419074267994"><ele>93.5</ele><time>2026-03-22T11:04:49Z</time></trkpt><trkpt lat="43.159809849913835" lon="2.7047049090623623"><ele>94.0</ele><time>2026-03-22T11:04:50Z</time></trkpt><trkpt lat="43.15964230346928" lon="2.705002809111304"><ele>94.0</ele><time>2026-03-22T11:04:51Z</time></trkpt><trkpt lat="43.159469015553576" lon="2.7053052780682325"><ele>94.0</ele><time>2026-03-22T11:04:52Z</time></trkpt><trkpt lat="43.15929081920206" lon="2.7056125569131946"><ele>94.0</ele><time>2026-03-22T11:04:53Z</time></trkpt><trkpt lat="43.159109414460886" lon="2.7059242065948883"><ele>94.0</ele><time>2026-03-22T11:04:54Z</time></trkpt><trkpt lat="43.158928464464005" lon="2.7062340766655657"><ele>94.0</ele><time>2026-03-22T11:04:55Z</time></trkpt><trkpt lat="43.15875499992045" lon="2.7065392826947083"><ele>94.0</ele><time>2026-03-22T11:04:56Z</time></trkpt><trkpt lat="43.158588928813614" lon="2.70683086481589"><ele>94.5</ele><time>2026-03-22T11:04:57Z</time></trkpt><trkpt lat="43.15842968918532" lon="2.7071046606911686"><ele>95.0</ele><time>2026-03-22T11:04:58Z</time></trkpt><trkpt lat="43.158266506040654" lon="2.70738523562888"><ele>94.5</ele><time>2026-03-22T11:04:59Z</time></trkpt><trkpt lat="43.15808698007421" lon="2.7076971032063923"><ele>94.0</ele><time>2026-03-22T11:05:00Z</time></trkpt><trkpt lat="43.1579212218487" lon="2.7079945666239245"><ele>93.5</ele><time>2026-03-22T11:05:01Z</time></trkpt><trkpt lat="43.1577648691251" lon="2.7082652908114566"><ele>93.0</ele><time>2026-03-22T11:05:02Z</time></trkpt><trkpt lat="43.15761510504426" lon="2.708526568358051"><ele>92.0</ele><time>2026-03-22T11:05:03Z</time></trkpt><trkpt lat="43.157465764295175" lon="2.7087736231060706"><ele>91.0</ele><time>2026-03-22T11:05:04Z</time></trkpt><trkpt lat="43.15732171801778" lon="2.70903101029962"><ele>89.5</ele><time>2026-03-22T11:05:05Z</time></trkpt><trkpt lat="43.1571739243579" lon="2.7092915320039737"><ele>88.0</ele><time>2026-03-22T11:05:06Z</time></trkpt><trkpt lat="43.15702195878736" lon="2.70956095341926"><ele>87.0</ele><time>2026-03-22T11:05:07Z</time></trkpt><trkpt lat="43.156868283270285" lon="2.7098328232718933"><ele>86.0</ele><time>2026-03-22T11:05:08Z</time></trkpt><trkpt lat="43.15670962770929" lon="2.7101062021378266"><ele>86.0</ele><time>2026-03-22T11:05:09Z</time></trkpt><trkpt lat="43.15654976899794" lon="2.71038286925977"><ele>86.0</ele><time>2026-03-22T11:05:10Z</time></trkpt><trkpt lat="43.156393334922974" lon="2.710658130562069"><ele>85.5</ele><time>2026-03-22T11:05:11Z</time></trkpt><trkpt lat="43.15623548990287" lon="2.710939747691676"><ele>85.0</ele><time>2026-03-22T11:05:12Z</time></trkpt><trkpt lat="43.15607431947756" lon="2.7112182719258273"><ele>84.5</ele><time>2026-03-22T11:05:13Z</time></trkpt><trkpt lat="43.155916253417104" lon="2.7114938841867273"><ele>84.0</ele><time>2026-03-22T11:05:14Z</time></trkpt><trkpt lat="43.15575950173003" lon="2.7117538537529198"><ele>83.0</ele><time>2026-03-22T11:05:15Z</time></trkpt><trkpt lat="43.155611342712405" lon="2.712006641338301"><ele>82.0</ele><time>2026-03-22T11:05:16Z</time></trkpt><trkpt lat="43.15546460501279" lon="2.7122627350700625"><ele>82.0</ele><time>2026-03-22T11:05:17Z</time></trkpt><trkpt lat="43.15531739792951" lon="2.712538267054804"><ele>82.0</ele><time>2026-03-22T11:05:18Z</time></trkpt><trkpt lat="43.155190991680236" lon="2.7127713150781987"><ele>81.66666666666666</ele><time>2026-03-22T11:05:19Z</time></trkpt><trkpt lat="43.15505618722824" lon="2.7129881258238315"><ele>81.33333333333333</ele><time>2026-03-22T11:05:20Z</time></trkpt><trkpt lat="43.15493340349506" lon="2.713207892104536"><ele>81.0</ele><time>2026-03-22T11:05:21Z</time></trkpt><trkpt lat="43.154817491053805" lon="2.7134111999210817"><ele>80.0</ele><time>2026-03-22T11:05:22Z</time></trkpt><trkpt lat="43.15470791021349" lon="2.7136073773377802"><ele>79.0</ele><time>2026-03-22T11:05:23Z</time></trkpt><trkpt lat="43.154612069778274" lon="2.713769729860702"><ele>78.0</ele><time>2026-03-22T11:05:24Z</time></trkpt><trkpt lat="43.15452627241833" lon="2.7139175113848117"><ele>78.0</ele><time>2026-03-22T11:05:25Z</time></trkpt><trkpt lat="43.1544423279921" lon="2.714067106986485"><ele>78.0</ele><time>2026-03-22T11:05:26Z</time></trkpt><trkpt lat="43.15436084640086" lon="2.7142110894032765"><ele>78.0</ele><time>2026-03-22T11:05:27Z</time></trkpt><trkpt lat="43.15428346682891" lon="2.714353706344606"><ele>78.0</ele><time>2026-03-22T11:05:28Z</time></trkpt><trkpt lat="43.15420867255736" lon="2.7144861856315523"><ele>78.0</ele><time>2026-03-22T11:05:29Z</time></trkpt><trkpt lat="43.15413636018158" lon="2.7146114086403057"><ele>78.0</ele><time>2026-03-22T11:05:30Z</time></trkpt><trkpt lat="43.1540621768033" lon="2.7147403025329524"><ele>78.0</ele><time>2026-03-22T11:05:31Z</time></trkpt><trkpt lat="43.15398465859132" lon="2.714877982648206"><ele>78.0</ele><time>2026-03-22T11:05:32Z</time></trkpt><trkpt lat="43.153913729832176" lon="2.7150097299409977"><ele>77.4</ele><time>2026-03-22T11:05:33Z</time></trkpt><trkpt lat="43.153842284573" lon="2.7151324609337593"><ele>76.8</ele><time>2026-03-22T11:05:34Z</time></trkpt><trkpt lat="43.15377181620875" lon="2.7152523339192105"><ele>76.2</ele><time>2026-03-22T11:05:35Z</time></trkpt><trkpt lat="43.15370089167964" lon="2.7153739196774236"><ele>75.6</ele><time>2026-03-22T11:05:36Z</time></trkpt><trkpt lat="43.15363560004711" lon="2.7154846533497317"><ele>75.0</ele><time>2026-03-22T11:05:37Z</time></trkpt><trkpt lat="43.15357733642542" lon="2.7155823808253525"><ele>74.6</ele><time>2026-03-22T11:05:38Z</time></trkpt><trkpt lat="43.153522114066874" lon="2.715668672621063"><ele>74.2</ele><time>2026-03-22T11:05:39Z</time></trkpt><trkpt lat="43.15345618807416" lon="2.7157519318140717"><ele>73.8</ele><time>2026-03-22T11:05:40Z</time></trkpt><trkpt lat="43.15337069907473" lon="2.715824973085521"><ele>73.4</ele><time>2026-03-22T11:05:41Z</time></trkpt><trkpt lat="43.153285126558835" lon="2.7158850223154407"><ele>73.0</ele><time>2026-03-22T11:05:42Z</time></trkpt><trkpt lat="43.15323174582433" lon="2.715977200555876"><ele>72.75</ele><time>2026-03-22T11:05:43Z</time></trkpt><trkpt lat="43.15320596316675" lon="2.7161199474104665"><ele>72.5</ele><time>2026-03-22T11:05:44Z</time></trkpt><trkpt lat="43.15317053652165" lon="2.7162885453246863"><ele>72.25</ele><time>2026-03-22T11:05:45Z</time></trkpt><trkpt lat="43.15306864876919" lon="2.716460410311408"><ele>72.0</ele><time>2026-03-22T11:05:46Z</time></trkpt><trkpt lat="43.15295949216666" lon="2.716651327554769"><ele>70.25</ele><time>2026-03-22T11:05:47Z</time></trkpt><trkpt lat="43.15286551622646" lon="2.7168156937584773"><ele>68.5</ele><time>2026-03-22T11:05:48Z</time></trkpt><trkpt lat="43.15278296464261" lon="2.7169881937734255"><ele>66.75</ele><time>2026-03-22T11:05:49Z</time></trkpt><trkpt lat="43.15268851093678" lon="2.7171277703478895"><ele>65.0</ele><time>2026-03-22T11:05:50Z</time></trkpt><trkpt lat="43.15261470022625" lon="2.71728979122668"><ele>64.75</ele><time>2026-03-22T11:05:51Z</time></trkpt><trkpt lat="43.152532185744484" lon="2.7174355561596353"><ele>64.5</ele><time>2026-03-22T11:05:52Z</time></trkpt><trkpt lat="43.15243405863194" lon="2.7175696921991763"><ele>64.25</ele><time>2026-03-22T11:05:53Z</time></trkpt><trkpt lat="43.152348716500484" lon="2.717719473909404"><ele>64.0</ele><time>2026-03-22T11:05:54Z</time></trkpt><trkpt lat="43.152280773658184" lon="2.717873599200583"><ele>63.2</ele><time>2026-03-22T11:05:55Z</time></trkpt><trkpt lat="43.152209840284364" lon="2.7179885844347056"><ele>62.400000000000006</ele><time>2026-03-22T11:05:56Z</time></trkpt><trkpt lat="43.15214420008979" lon="2.7180881287998155"><ele>61.6</ele><time>2026-03-22T11:05:57Z</time></trkpt><trkpt lat="43.15208675082674" lon="2.718193117616981"><ele>60.8</ele><time>2026-03-22T11:05:58Z</time></trkpt><trkpt lat="43.15202628607874" lon="2.718297994026229"><ele>60.0</ele><time>2026-03-22T11:05:59Z</time></trkpt><trkpt lat="43.151963200777956" lon="2.7184113411623287"><ele>60.0</ele><time>2026-03-22T11:06:00Z</time></trkpt><trkpt lat="43.15190552977984" lon="2.7185226807489893"><ele>60.0</ele><time>2026-03-22T11:06:01Z</time></trkpt><trkpt lat="43.15184548793996" lon="2.718622089825873"><ele>60.0</ele><time>2026-03-22T11:06:02Z</time></trkpt><trkpt lat="43.15179664811483" lon="2.718715801256112"><ele>60.0</ele><time>2026-03-22T11:06:03Z</time></trkpt><trkpt lat="43.1517483367347" lon="2.718806204254374"><ele>60.0</ele><time>2026-03-22T11:06:04Z</time></trkpt><trkpt lat="43.151701686049684" lon="2.7188910172162526"><ele>60.0</ele><time>2026-03-22T11:06:05Z</time></trkpt><trkpt lat="43.15165348214577" lon="2.7189716444149665"><ele>60.2</ele><time>2026-03-22T11:06:06Z</time></trkpt><trkpt lat="43.151608077939535" lon="2.71906232824979"><ele>60.4</ele><time>2026-03-22T11:06:07Z</time></trkpt><trkpt lat="43.15155845736086" lon="2.7191622427127933"><ele>60.599999999999994</ele><time>2026-03-22T11:06:08Z</time></trkpt><trkpt lat="43.15149896927715" lon="2.7192595889541"><ele>60.8</ele><time>2026-03-22T11:06:09Z</time></trkpt><trkpt lat="43.1514376113947" lon="2.719368249259765"><ele>61.0</ele><time>2026-03-22T11:06:10Z</time></trkpt><trkpt lat="43.1513635732226" lon="2.719499215361014"><ele>61.5</ele><time>2026-03-22T11:06:11Z</time></trkpt><trkpt lat="43.15127070731313" lon="2.719655190220572"><ele>62.0</ele><time>2026-03-22T11:06:12Z</time></trkpt><trkpt lat="43.151175452184255" lon="2.7198239456199644"><ele>62.5</ele><time>2026-03-22T11:06:13Z</time></trkpt><trkpt lat="43.151096245779435" lon="2.7199684884366624"><ele>63.0</ele><time>2026-03-22T11:06:14Z</time></trkpt><trkpt lat="43.15101330870703" lon="2.7201117254245406"><ele>63.0</ele><time>2026-03-22T11:06:15Z</time></trkpt><trkpt lat="43.15093033342294" lon="2.720248452811102"><ele>63.0</ele><time>2026-03-22T11:06:16Z</time></trkpt><trkpt lat="43.15085118220848" lon="2.7203926247220167"><ele>63.0</ele><time>2026-03-22T11:06:17Z</time></trkpt><trkpt lat="43.150772317070334" lon="2.7205276792030775"><ele>63.0</ele><time>2026-03-22T11:06:18Z</time></trkpt><trkpt lat="43.15069273326114" lon="2.7206639106804875"><ele>62.75</ele><time>2026-03-22T11:06:19Z</time></trkpt><trkpt lat="43.15061401147309" lon="2.7207988735698043"><ele>62.5</ele><time>2026-03-22T11:06:20Z</time></trkpt><trkpt lat="43.15054361112388" lon="2.720929115067462"><ele>62.25</ele><time>2026-03-22T11:06:21Z</time></trkpt><trkpt lat="43.1504799224245" lon="2.721049523039815"><ele>62.0</ele><time>2026-03-22T11:06:22Z</time></trkpt><trkpt lat="43.15040458682211" lon="2.7211452020385987"><ele>61.833333333333336</ele><time>2026-03-22T11:06:23Z</time></trkpt><trkpt lat="43.150347647843034" lon="2.7212442732804987"><ele>61.66666666666667</ele><time>2026-03-22T11:06:24Z</time></trkpt><trkpt lat="43.1502939966192" lon="2.7213376243153524"><ele>61.5</ele><time>2026-03-22T11:06:25Z</time></trkpt><trkpt lat="43.15025761909529" lon="2.72143675376101"><ele>61.33333333333333</ele><time>2026-03-22T11:06:26Z</time></trkpt><trkpt lat="43.1502103170502" lon="2.7215185996173847"><ele>61.166666666666664</ele><time>2026-03-22T11:06:27Z</time></trkpt><trkpt lat="43.150158678218354" lon="2.7215895506134333"><ele>61.0</ele><time>2026-03-22T11:06:28Z</time></trkpt><trkpt lat="43.15011720784508" lon="2.721659757011091"><ele>61.0</ele><time>2026-03-22T11:06:29Z</time></trkpt><trkpt lat="43.15004769494654" lon="2.7217947963253217"><ele>60.99999999999999</ele><time>2026-03-22T11:06:31Z</time></trkpt><trkpt lat="43.149969291087984" lon="2.721936721224511"><ele>60.99999999999999</ele><time>2026-03-22T11:06:33Z</time></trkpt><trkpt lat="43.149920486537056" lon="2.722019911503962"><ele>61.0</ele><time>2026-03-22T11:06:34Z</time></trkpt><trkpt lat="43.14987048596097" lon="2.722115705120427"><ele>61.0</ele><time>2026-03-22T11:06:35Z</time></trkpt><trkpt lat="43.14981083931665" lon="2.722217580535774"><ele>60.75</ele><time>2026-03-22T11:06:36Z</time></trkpt><trkpt lat="43.14974429223202" lon="2.722327448410145"><ele>60.5</ele><time>2026-03-22T11:06:37Z</time></trkpt><trkpt lat="43.149672656766505" lon="2.7224580439129764"><ele>60.25</ele><time>2026-03-22T11:06:38Z</time></trkpt><trkpt lat="43.149589771951945" lon="2.7226024546526086"><ele>60.0</ele><time>2026-03-22T11:06:39Z</time></trkpt><trkpt lat="43.14950361917935" lon="2.7227540633423946"><ele>59.0</ele><time>2026-03-22T11:06:40Z</time></trkpt><trkpt lat="43.14940960551977" lon="2.722913350351154"><ele>58.0</ele><time>2026-03-22T11:06:41Z</time></trkpt><trkpt lat="43.14931202375824" lon="2.7230803368120773"><ele>57.0</ele><time>2026-03-22T11:06:42Z</time></trkpt><trkpt lat="43.14920929934342" lon="2.723247261085353"><ele>57.0</ele><time>2026-03-22T11:06:43Z</time></trkpt><trkpt lat="43.149106459938025" lon="2.723427141745231"><ele>57.0</ele><time>2026-03-22T11:06:44Z</time></trkpt><trkpt lat="43.14902395249267" lon="2.7235968454080353"><ele>57.0</ele><time>2026-03-22T11:06:45Z</time></trkpt><trkpt lat="43.14892286763057" lon="2.7237401254248232"><ele>57.0</ele><time>2026-03-22T11:06:46Z</time></trkpt><trkpt lat="43.148838310007804" lon="2.7238868281777515"><ele>57.0</ele><time>2026-03-22T11:06:47Z</time></trkpt><trkpt lat="43.148757688406455" lon="2.7240270026726963"><ele>57.0</ele><time>2026-03-22T11:06:48Z</time></trkpt><trkpt lat="43.14868561809191" lon="2.7241520200457616"><ele>57.0</ele><time>2026-03-22T11:06:49Z</time></trkpt><trkpt lat="43.1486169735042" lon="2.724270862554414"><ele>57.0</ele><time>2026-03-22T11:06:50Z</time></trkpt><trkpt lat="43.14854636874237" lon="2.7243930997836174"><ele>57.0</ele><time>2026-03-22T11:06:51Z</time></trkpt><trkpt lat="43.148476359129695" lon="2.724514305434609"><ele>57.0</ele><time>2026-03-22T11:06:52Z</time></trkpt><trkpt lat="43.148406748514205" lon="2.724636053542065"><ele>57.0</ele><time>2026-03-22T11:06:53Z</time></trkpt><trkpt lat="43.14833874744165" lon="2.7247540515135533"><ele>57.0</ele><time>2026-03-22T11:06:54Z</time></trkpt><trkpt lat="43.148272682833436" lon="2.724868672115688"><ele>58.400000000000006</ele><time>2026-03-22T11:06:55Z</time></trkpt><trkpt lat="43.14820459800328" lon="2.7249866815206034"><ele>59.800000000000004</ele><time>2026-03-22T11:06:56Z</time></trkpt><trkpt lat="43.14814070469167" lon="2.725097673397029"><ele>61.2</ele><time>2026-03-22T11:06:57Z</time></trkpt><trkpt lat="43.148089746830195" lon="2.7252194885970025"><ele>62.6</ele><time>2026-03-22T11:06:58Z</time></trkpt><trkpt lat="43.14802495122848" lon="2.725311950737029"><ele>64.0</ele><time>2026-03-22T11:06:59Z</time></trkpt><trkpt lat="43.147967464802456" lon="2.7254002524810597"><ele>64.57142857142857</ele><time>2026-03-22T11:07:00Z</time></trkpt><trkpt lat="43.14791882663906" lon="2.725489633482987"><ele>65.14285714285714</ele><time>2026-03-22T11:07:01Z</time></trkpt><trkpt lat="43.14786526249921" lon="2.725564913323032"><ele>65.71428571428571</ele><time>2026-03-22T11:07:02Z</time></trkpt><trkpt lat="43.14782072878587" lon="2.725642173741822"><ele>66.28571428571428</ele><time>2026-03-22T11:07:03Z</time></trkpt><trkpt lat="43.14777585033078" lon="2.725703441780463"><ele>66.85714285714286</ele><time>2026-03-22T11:07:04Z</time></trkpt><trkpt lat="43.14773193316143" lon="2.7257789323577186"><ele>67.42857142857142</ele><time>2026-03-22T11:07:05Z</time></trkpt><trkpt lat="43.14767882157515" lon="2.7258457548442583"><ele>68.0</ele><time>2026-03-22T11:07:06Z</time></trkpt><trkpt lat="43.147642388476754" lon="2.7259538729193964"><ele>68.4</ele><time>2026-03-22T11:07:07Z</time></trkpt><trkpt lat="43.147596849130636" lon="2.726084248583294"><ele>68.8</ele><time>2026-03-22T11:07:08Z</time></trkpt><trkpt lat="43.147552895450175" lon="2.726172329002343"><ele>69.2</ele><time>2026-03-22T11:07:09Z</time></trkpt><trkpt lat="43.14746214876274" lon="2.7262762854911684"><ele>69.6</ele><time>2026-03-22T11:07:11Z</time></trkpt><trkpt lat="43.14737287518676" lon="2.7262900562686894"><ele>70.0</ele><time>2026-03-22T11:07:12Z</time></trkpt><trkpt lat="43.147299272574436" lon="2.726292541775041"><ele>70.0</ele><time>2026-03-22T11:07:13Z</time></trkpt><trkpt lat="43.14723267687347" lon="2.7262966338010575"><ele>70.0</ele><time>2026-03-22T11:07:14Z</time></trkpt><trkpt lat="43.14714857926344" lon="2.7262965401069916"><ele>70.0</ele><time>2026-03-22T11:07:15Z</time></trkpt><trkpt lat="43.14704764567144" lon="2.726346373663379"><ele>70.0</ele><time>2026-03-22T11:07:17Z</time></trkpt><trkpt lat="43.14697278045145" lon="2.7264156565661772"><ele>70.0</ele><time>2026-03-22T11:07:19Z</time></trkpt><trkpt lat="43.14693253724635" lon="2.7265073529375865"><ele>70.0</ele><time>2026-03-22T11:07:21Z</time></trkpt><trkpt lat="43.146981131903864" lon="2.726675199854162"><ele>70.0</ele><time>2026-03-22T11:07:23Z</time></trkpt><trkpt lat="43.14701785749314" lon="2.726764190347641"><ele>70.0</ele><time>2026-03-22T11:07:24Z</time></trkpt><trkpt lat="43.14705244764868" lon="2.726846335122482"><ele>70.0</ele><time>2026-03-22T11:07:25Z</time></trkpt><trkpt lat="43.14709078876556" lon="2.726925444407082"><ele>70.0</ele><time>2026-03-22T11:07:26Z</time></trkpt><trkpt lat="43.14713253372956" lon="2.727010939370729"><ele>70.0</ele><time>2026-03-22T11:07:27Z</time></trkpt><trkpt lat="43.14719062496187" lon="2.7270938899168824"><ele>70.0</ele><time>2026-03-22T11:07:28Z</time></trkpt><trkpt lat="43.1472225105274" lon="2.7271975330421983"><ele>70.4</ele><time>2026-03-22T11:07:29Z</time></trkpt><trkpt lat="43.147250630906335" lon="2.7272802191700865"><ele>70.8</ele><time>2026-03-22T11:07:30Z</time></trkpt><trkpt lat="43.14731720822396" lon="2.727403451679025"><ele>71.2</ele><time>2026-03-22T11:07:32Z</time></trkpt><trkpt lat="43.14735614220916" lon="2.7275259263684344"><ele>71.6</ele><time>2026-03-22T11:07:34Z</time></trkpt><trkpt lat="43.14743023145328" lon="2.7275979832360506"><ele>72.0</ele><time>2026-03-22T11:07:36Z</time></trkpt><trkpt lat="43.14749796178735" lon="2.7276636746274194"><ele>72.0</ele><time>2026-03-22T11:07:39Z</time></trkpt><trkpt lat="43.14758279938116" lon="2.7276446775102103"><ele>72.0</ele><time>2026-03-22T11:07:42Z</time></trkpt><trkpt lat="43.14766204116834" lon="2.7274515797364485"><ele>72.0</ele><time>2026-03-22T11:07:45Z</time></trkpt><trkpt lat="43.147678828217494" lon="2.7273283038704315"><ele>72.0</ele><time>2026-03-22T11:07:47Z</time></trkpt><trkpt lat="43.14769914576553" lon="2.727175570525043"><ele>72.0</ele><time>2026-03-22T11:07:49Z</time></trkpt><trkpt lat="43.14771079728612" lon="2.7270319729175467"><ele>72.0</ele><time>2026-03-22T11:07:51Z</time></trkpt><trkpt lat="43.1477698449078" lon="2.7269037566216907"><ele>72.0</ele><time>2026-03-22T11:07:53Z</time></trkpt><trkpt lat="43.14786252233776" lon="2.7268098459186563"><ele>72.0</ele><time>2026-03-22T11:07:55Z</time></trkpt><trkpt lat="43.14796997030662" lon="2.7267171634658394"><ele>71.6</ele><time>2026-03-22T11:07:57Z</time></trkpt><trkpt lat="43.148053028736115" lon="2.726614155885374"><ele>71.2</ele><time>2026-03-22T11:07:59Z</time></trkpt><trkpt lat="43.148118450525395" lon="2.726529174034917"><ele>70.8</ele><time>2026-03-22T11:08:01Z</time></trkpt><trkpt lat="43.14817964916399" lon="2.7264534886646627"><ele>70.4</ele><time>2026-03-22T11:08:03Z</time></trkpt><trkpt lat="43.14827356189724" lon="2.7264154648394325"><ele>70.0</ele><time>2026-03-22T11:08:06Z</time></trkpt><trkpt lat="43.14831911465651" lon="2.7264957210036833"><ele>69.5</ele><time>2026-03-22T11:08:07Z</time></trkpt><trkpt lat="43.14838908545052" lon="2.7265753410961975"><ele>69.0</ele><time>2026-03-22T11:08:08Z</time></trkpt><trkpt lat="43.1484569934941" lon="2.7266290018637758"><ele>68.5</ele><time>2026-03-22T11:08:09Z</time></trkpt><trkpt lat="43.148567426258836" lon="2.7266763508695533"><ele>68.0</ele><time>2026-03-22T11:08:10Z</time></trkpt><trkpt lat="43.148648054680926" lon="2.7267161341835675"><ele>67.5</ele><time>2026-03-22T11:08:11Z</time></trkpt><trkpt lat="43.148711060596284" lon="2.726768755744387"><ele>67.0</ele><time>2026-03-22T11:08:12Z</time></trkpt><trkpt lat="43.14877084711025" lon="2.726816617855197"><ele>67.0</ele><time>2026-03-22T11:08:13Z</time></trkpt><trkpt lat="43.14885405121731" lon="2.72688152999148"><ele>67.0</ele><time>2026-03-22T11:08:14Z</time></trkpt><trkpt lat="43.14894461229966" lon="2.726929580936267"><ele>67.0</ele><time>2026-03-22T11:08:15Z</time></trkpt><trkpt lat="43.14903383025835" lon="2.7269684317210614"><ele>67.0</ele><time>2026-03-22T11:08:16Z</time></trkpt><trkpt lat="43.149127864417224" lon="2.7270213000937433"><ele>67.0</ele><time>2026-03-22T11:08:17Z</time></trkpt><trkpt lat="43.149205568800234" lon="2.727056792682704"><ele>66.83333333333333</ele><time>2026-03-22T11:08:18Z</time></trkpt><trkpt lat="43.149276416379706" lon="2.727083008677356"><ele>66.66666666666666</ele><time>2026-03-22T11:08:19Z</time></trkpt><trkpt lat="43.14934871844074" lon="2.727121130689275"><ele>66.5</ele><time>2026-03-22T11:08:20Z</time></trkpt><trkpt lat="43.14942459113707" lon="2.727163241219717"><ele>66.33333333333333</ele><time>2026-03-22T11:08:21Z</time></trkpt><trkpt lat="43.14949159016207" lon="2.727197033462261"><ele>66.16666666666667</ele><time>2026-03-22T11:08:22Z</time></trkpt><trkpt lat="43.149558111666856" lon="2.7272195828262373"><ele>66.0</ele><time>2026-03-22T11:08:23Z</time></trkpt><trkpt lat="43.14966564084739" lon="2.7272630800153492"><ele>66.0</ele><time>2026-03-22T11:08:25Z</time></trkpt><trkpt lat="43.14974982837208" lon="2.727307228384523"><ele>66.0</ele><time>2026-03-22T11:08:27Z</time></trkpt><trkpt lat="43.149799977128666" lon="2.727385651387621"><ele>66.0</ele><time>2026-03-22T11:08:29Z</time></trkpt><trkpt lat="43.14971752740578" lon="2.7276800461062796"><ele>66.0</ele><time>2026-03-22T11:08:33Z</time></trkpt><trkpt lat="43.14967956071394" lon="2.7277716001949446"><ele>66.0</ele><time>2026-03-22T11:08:34Z</time></trkpt><trkpt lat="43.149647732129665" lon="2.7278598174008035"><ele>66.0</ele><time>2026-03-22T11:08:35Z</time></trkpt><trkpt lat="43.14961293128402" lon="2.727940841384953"><ele>66.0</ele><time>2026-03-22T11:08:36Z</time></trkpt><trkpt lat="43.14957120066671" lon="2.7280351128115234"><ele>66.0</ele><time>2026-03-22T11:08:37Z</time></trkpt><trkpt lat="43.14953788070001" lon="2.7281318174748224"><ele>66.0</ele><time>2026-03-22T11:08:38Z</time></trkpt><trkpt lat="43.149511854988965" lon="2.7282135105702454"><ele>66.0</ele><time>2026-03-22T11:08:39Z</time></trkpt><trkpt lat="43.14945451218049" lon="2.7283621412172403"><ele>66.0</ele><time>2026-03-22T11:08:41Z</time></trkpt><trkpt lat="43.14941876922309" lon="2.7284390337513407"><ele>66.0</ele><time>2026-03-22T11:08:42Z</time></trkpt><trkpt lat="43.149309160587435" lon="2.7285434947176146"><ele>66.0</ele><time>2026-03-22T11:08:44Z</time></trkpt><trkpt lat="43.149268940818274" lon="2.728664710704576"><ele>66.0</ele><time>2026-03-22T11:08:45Z</time></trkpt><trkpt lat="43.14924913411316" lon="2.7288140410158657"><ele>66.0</ele><time>2026-03-22T11:08:46Z</time></trkpt><trkpt lat="43.14922978096594" lon="2.728963156508483"><ele>66.0</ele><time>2026-03-22T11:08:47Z</time></trkpt><trkpt lat="43.1492087500601" lon="2.7291081389025784"><ele>66.0</ele><time>2026-03-22T11:08:48Z</time></trkpt><trkpt lat="43.14918741101933" lon="2.7292556875758383"><ele>66.0</ele><time>2026-03-22T11:08:49Z</time></trkpt><trkpt lat="43.14916968367531" lon="2.7293899775021417"><ele>66.0</ele><time>2026-03-22T11:08:50Z</time></trkpt><trkpt lat="43.149156543919624" lon="2.729506539672582"><ele>66.0</ele><time>2026-03-22T11:08:51Z</time></trkpt><trkpt lat="43.149141796889545" lon="2.7296074023753505"><ele>66.0</ele><time>2026-03-22T11:08:52Z</time></trkpt><trkpt lat="43.14911742127494" lon="2.729695726599347"><ele>66.0</ele><time>2026-03-22T11:08:53Z</time></trkpt><trkpt lat="43.149038432433066" lon="2.7297676840800693"><ele>66.0</ele><time>2026-03-22T11:08:54Z</time></trkpt><trkpt lat="43.148989076062676" lon="2.729870666898775"><ele>66.0</ele><time>2026-03-22T11:08:55Z</time></trkpt><trkpt lat="43.14894347741068" lon="2.729940613469745"><ele>66.0</ele><time>2026-03-22T11:08:56Z</time></trkpt><trkpt lat="43.1489076053445" lon="2.73004157905907"><ele>66.0</ele><time>2026-03-22T11:08:57Z</time></trkpt><trkpt lat="43.14888260973029" lon="2.73015912761105"><ele>66.42857142857143</ele><time>2026-03-22T11:08:58Z</time></trkpt><trkpt lat="43.14885237717672" lon="2.7302675300051336"><ele>66.85714285714286</ele><time>2026-03-22T11:08:59Z</time></trkpt><trkpt lat="43.14882502929797" lon="2.7303799387921166"><ele>67.28571428571429</ele><time>2026-03-22T11:09:00Z</time></trkpt><trkpt lat="43.148808286364776" lon="2.7304795730237617"><ele>67.71428571428572</ele><time>2026-03-22T11:09:01Z</time></trkpt><trkpt lat="43.14878897720167" lon="2.7305682261162025"><ele>68.14285714285715</ele><time>2026-03-22T11:09:02Z</time></trkpt><trkpt lat="43.148761950592984" lon="2.7306496626506784"><ele>68.57142857142857</ele><time>2026-03-22T11:09:03Z</time></trkpt><trkpt lat="43.14874109887594" lon="2.7307346623843234"><ele>69.0</ele><time>2026-03-22T11:09:04Z</time></trkpt><trkpt lat="43.14869174686421" lon="2.7308459159660683"><ele>69.0</ele><time>2026-03-22T11:09:06Z</time></trkpt><trkpt lat="43.14860804977558" lon="2.7309022882103147"><ele>69.0</ele><time>2026-03-22T11:09:08Z</time></trkpt><trkpt lat="43.148516235184104" lon="2.7308110535406316"><ele>69.0</ele><time>2026-03-22T11:09:10Z</time></trkpt><trkpt lat="43.148441230709665" lon="2.730774145858836"><ele>69.0</ele><time>2026-03-22T11:09:12Z</time></trkpt><trkpt lat="43.14836449457342" lon="2.7307576342209545"><ele>69.0</ele><time>2026-03-22T11:09:14Z</time></trkpt><trkpt lat="43.148297001833555" lon="2.730746464952294"><ele>69.0</ele><time>2026-03-22T11:09:16Z</time></trkpt><trkpt lat="43.14820447734798" lon="2.730744859428213"><ele>70.0</ele><time>2026-03-22T11:09:18Z</time></trkpt><trkpt lat="43.14811467391951" lon="2.7307382922747268"><ele>71.0</ele><time>2026-03-22T11:09:20Z</time></trkpt><trkpt lat="43.148044341799384" lon="2.730758040754531"><ele>72.0</ele><time>2026-03-22T11:09:23Z</time></trkpt><trkpt lat="43.147974888578716" lon="2.7307675949718293"><ele>73.0</ele><time>2026-03-22T11:09:28Z</time></trkpt><trkpt lat="43.14803656174133" lon="2.731049215506637"><ele>74.0</ele><time>2026-03-22T11:09:32Z</time></trkpt><trkpt lat="43.14809395568804" lon="2.7311819472969447"><ele>74.2</ele><time>2026-03-22T11:09:33Z</time></trkpt><trkpt lat="43.14813185800175" lon="2.7312917170390936"><ele>74.4</ele><time>2026-03-22T11:09:34Z</time></trkpt><trkpt lat="43.148182571639204" lon="2.7314442401964474"><ele>74.6</ele><time>2026-03-22T11:09:36Z</time></trkpt><trkpt lat="43.14821627315391" lon="2.731555890144599"><ele>74.8</ele><time>2026-03-22T11:09:38Z</time></trkpt><trkpt lat="43.1483358955177" lon="2.7315985362961106"><ele>75.0</ele><time>2026-03-22T11:09:42Z</time></trkpt><trkpt lat="43.14839644643853" lon="2.7315618102309553"><ele>74.66666666666667</ele><time>2026-03-22T11:09:45Z</time></trkpt><trkpt lat="43.14847794608052" lon="2.7315398963272677"><ele>74.33333333333333</ele><time>2026-03-22T11:09:48Z</time></trkpt><trkpt lat="43.14853883099844" lon="2.7315141944876054"><ele>74.0</ele><time>2026-03-22T11:09:51Z</time></trkpt><trkpt lat="43.14861828744384" lon="2.7314703645102534"><ele>73.66666666666666</ele><time>2026-03-22T11:09:55Z</time></trkpt><trkpt lat="43.148680357848626" lon="2.7314434420533393"><ele>73.33333333333333</ele><time>2026-03-22T11:10:00Z</time></trkpt><trkpt lat="43.148734719155115" lon="2.731601934955568"><ele>73.0</ele><time>2026-03-22T11:10:01Z</time></trkpt><trkpt lat="43.14874706651447" lon="2.7317137490546823"><ele>73.0</ele><time>2026-03-22T11:10:04Z</time></trkpt><trkpt lat="43.14874381516027" lon="2.731818567100021"><ele>73.0</ele><time>2026-03-22T11:10:07Z</time></trkpt><trkpt lat="43.14874968499875" lon="2.7319121296212323"><ele>73.0</ele><time>2026-03-22T11:10:10Z</time></trkpt><trkpt lat="43.148746480038284" lon="2.7320053827466757"><ele>73.0</ele><time>2026-03-22T11:10:25Z</time></trkpt><trkpt lat="43.148667346388976" lon="2.7320278256400328"><ele>73.0</ele><time>2026-03-22T11:10:28Z</time></trkpt><trkpt lat="43.148591004040874" lon="2.73205888042744"><ele>73.0</ele><time>2026-03-22T11:10:31Z</time></trkpt><trkpt lat="43.1485193626366" lon="2.732046543216385"><ele>73.0</ele><time>2026-03-22T11:10:34Z</time></trkpt><trkpt lat="43.14841215935013" lon="2.732271437675592"><ele>74.0</ele><time>2026-03-22T11:10:38Z</time></trkpt><trkpt lat="43.148437746359356" lon="2.732368069507524"><ele>74.0</ele><time>2026-03-22T11:10:41Z</time></trkpt><trkpt lat="43.14860075925515" lon="2.732231756937232"><ele>74.0</ele><time>2026-03-22T11:10:48Z</time></trkpt></trkseg><trkseg><trkpt lat="43.148582741315096" lon="2.732105878384307"><ele>74.0</ele><time>2026-03-22T13:41:12Z</time></trkpt><trkpt lat="43.148648966123254" lon="2.7320645374188404"><ele>74.0</ele><time>2026-03-22T13:41:16Z</time></trkpt><trkpt lat="43.148723369034805" lon="2.7320324923685164"><ele>74.0</ele><time>2026-03-22T13:41:20Z</time></trkpt><trkpt lat="43.14877719930968" lon="2.7319776472720934"><ele>74.0</ele><time>2026-03-22T13:41:24Z</time></trkpt><trkpt lat="43.14879389046519" lon="2.7318928696904723"><ele>74.0</ele><time>2026-03-22T13:41:27Z</time></trkpt><trkpt lat="43.14878747652192" lon="2.731785197340342"><ele>74.0</ele><time>2026-03-22T13:41:30Z</time></trkpt><trkpt lat="43.14878526631453" lon="2.7316950050196436"><ele>74.0</ele><time>2026-03-22T13:41:33Z</time></trkpt><trkpt lat="43.14875568426344" lon="2.7315794487391667"><ele>73.83333333333334</ele><time>2026-03-22T13:41:36Z</time></trkpt><trkpt lat="43.14870016490237" lon="2.731490726356501"><ele>73.66666666666667</ele><time>2026-03-22T13:41:39Z</time></trkpt><trkpt lat="43.148619901450104" lon="2.731491015059133"><ele>73.5</ele><time>2026-03-22T13:41:42Z</time></trkpt><trkpt lat="43.148536946566495" lon="2.7315120325554942"><ele>73.33333333333333</ele><time>2026-03-22T13:41:46Z</time></trkpt><trkpt lat="43.14845686016446" lon="2.7315459356687968"><ele>73.16666666666666</ele><time>2026-03-22T13:41:50Z</time></trkpt><trkpt lat="43.14837661988012" lon="2.731572006657395"><ele>73.0</ele><time>2026-03-22T13:41:53Z</time></trkpt><trkpt lat="43.14828366565166" lon="2.7315715282348636"><ele>73.16666666666666</ele><time>2026-03-22T13:42:10Z</time></trkpt><trkpt lat="43.14820737105074" lon="2.731537210201986"><ele>73.33333333333333</ele><time>2026-03-22T13:42:13Z</time></trkpt><trkpt lat="43.14818700740396" lon="2.731442095560292"><ele>73.5</ele><time>2026-03-22T13:42:15Z</time></trkpt><trkpt lat="43.14816123883485" lon="2.7313234437049583"><ele>73.66666666666667</ele><time>2026-03-22T13:42:18Z</time></trkpt><trkpt lat="43.14812464245114" lon="2.731220994844869"><ele>73.83333333333334</ele><time>2026-03-22T13:42:21Z</time></trkpt><trkpt lat="43.14808140115558" lon="2.7311126993840924"><ele>74.0</ele><time>2026-03-22T13:42:24Z</time></trkpt><trkpt lat="43.14805067862028" lon="2.731031766698508"><ele>74.0</ele><time>2026-03-22T13:42:26Z</time></trkpt><trkpt lat="43.14801587493002" lon="2.7309492862166205"><ele>74.0</ele><time>2026-03-22T13:42:28Z</time></trkpt><trkpt lat="43.147985125665656" lon="2.73086766135634"><ele>74.0</ele><time>2026-03-22T13:42:30Z</time></trkpt><trkpt lat="43.14801278908014" lon="2.7307551124086906"><ele>74.0</ele><time>2026-03-22T13:42:33Z</time></trkpt><trkpt lat="43.148105212399095" lon="2.7307481719933455"><ele>74.0</ele><time>2026-03-22T13:42:35Z</time></trkpt><trkpt lat="43.14819318439381" lon="2.7307715678029827"><ele>74.0</ele><time>2026-03-22T13:42:37Z</time></trkpt><trkpt lat="43.14829642524751" lon="2.7307763209283853"><ele>73.0</ele><time>2026-03-22T13:42:39Z</time></trkpt><trkpt lat="43.14840174517787" lon="2.730797406370036"><ele>72.0</ele><time>2026-03-22T13:42:41Z</time></trkpt><trkpt lat="43.14850484329555" lon="2.7308523784418273"><ele>71.0</ele><time>2026-03-22T13:42:43Z</time></trkpt><trkpt lat="43.14859847168013" lon="2.7308898756958544"><ele>70.0</ele><time>2026-03-22T13:42:45Z</time></trkpt><trkpt lat="43.148689898149186" lon="2.7309140794466975"><ele>69.0</ele><time>2026-03-22T13:42:47Z</time></trkpt><trkpt lat="43.14877695126317" lon="2.730797724637339"><ele>69.0</ele><time>2026-03-22T13:42:49Z</time></trkpt><trkpt lat="43.148800462323564" lon="2.7306729318466054"><ele>69.0</ele><time>2026-03-22T13:42:51Z</time></trkpt><trkpt lat="43.14882853312584" lon="2.730541963408995"><ele>69.0</ele><time>2026-03-22T13:42:53Z</time></trkpt><trkpt lat="43.14884652149653" lon="2.73045793981251"><ele>69.0</ele><time>2026-03-22T13:42:54Z</time></trkpt><trkpt lat="43.14886590935476" lon="2.7303674938684512"><ele>69.0</ele><time>2026-03-22T13:42:55Z</time></trkpt><trkpt lat="43.148896196689" lon="2.7302261242994486"><ele>69.0</ele><time>2026-03-22T13:42:57Z</time></trkpt><trkpt lat="43.14890851711138" lon="2.730094596324449"><ele>68.66666666666667</ele><time>2026-03-22T13:42:59Z</time></trkpt><trkpt lat="43.148949615899696" lon="2.729963952023421"><ele>68.33333333333333</ele><time>2026-03-22T13:43:01Z</time></trkpt><trkpt lat="43.14900190287177" lon="2.7298765338445294"><ele>68.0</ele><time>2026-03-22T13:43:03Z</time></trkpt><trkpt lat="43.149060300143404" lon="2.729807359268644"><ele>67.66666666666666</ele><time>2026-03-22T13:43:05Z</time></trkpt><trkpt lat="43.1491326677668" lon="2.7297434904694207"><ele>67.33333333333333</ele><time>2026-03-22T13:43:08Z</time></trkpt><trkpt lat="43.149161857342015" lon="2.729634393792781"><ele>67.0</ele><time>2026-03-22T13:43:31Z</time></trkpt><trkpt lat="43.149192235941946" lon="2.729488839025171"><ele>66.6</ele><time>2026-03-22T13:43:33Z</time></trkpt><trkpt lat="43.14921002229356" lon="2.729337237449895"><ele>66.2</ele><time>2026-03-22T13:43:35Z</time></trkpt><trkpt lat="43.149217205449986" lon="2.729174872462887"><ele>65.8</ele><time>2026-03-22T13:43:37Z</time></trkpt><trkpt lat="43.14925371484909" lon="2.7290319615478364"><ele>65.4</ele><time>2026-03-22T13:43:39Z</time></trkpt><trkpt lat="43.14926638051939" lon="2.7289417665472815"><ele>65.0</ele><time>2026-03-22T13:43:40Z</time></trkpt><trkpt lat="43.149287327089496" lon="2.7287803738348337"><ele>65.0</ele><time>2026-03-22T13:43:42Z</time></trkpt><trkpt lat="43.14929964233249" lon="2.728693181513872"><ele>65.0</ele><time>2026-03-22T13:43:43Z</time></trkpt><trkpt lat="43.14931873031644" lon="2.728600965801715"><ele>65.0</ele><time>2026-03-22T13:43:44Z</time></trkpt><trkpt lat="43.14938745088666" lon="2.7285145758873712"><ele>65.0</ele><time>2026-03-22T13:43:46Z</time></trkpt><trkpt lat="43.14947789125966" lon="2.72841220913339"><ele>65.0</ele><time>2026-03-22T13:43:48Z</time></trkpt><trkpt lat="43.1495334770135" lon="2.7282725374116676"><ele>65.16666666666667</ele><time>2026-03-22T13:43:50Z</time></trkpt><trkpt lat="43.14956356241499" lon="2.7281932034237606"><ele>65.33333333333334</ele><time>2026-03-22T13:43:51Z</time></trkpt><trkpt lat="43.149595252586074" lon="2.72810963777434"><ele>65.5</ele><time>2026-03-22T13:43:52Z</time></trkpt><trkpt lat="43.149638656455835" lon="2.727995182092098"><ele>65.66666666666667</ele><time>2026-03-22T13:43:53Z</time></trkpt><trkpt lat="43.149673048497235" lon="2.7278997059978347"><ele>65.83333333333333</ele><time>2026-03-22T13:43:54Z</time></trkpt><trkpt lat="43.149702982500145" lon="2.727820180473229"><ele>66.0</ele><time>2026-03-22T13:43:55Z</time></trkpt><trkpt lat="43.14974807475267" lon="2.727702788989805"><ele>66.0</ele><time>2026-03-22T13:43:57Z</time></trkpt><trkpt lat="43.14978513794985" lon="2.727606299921458"><ele>66.0</ele><time>2026-03-22T13:43:59Z</time></trkpt><trkpt lat="43.14982566786496" lon="2.727500785742653"><ele>66.0</ele><time>2026-03-22T13:44:02Z</time></trkpt><trkpt lat="43.149848412762594" lon="2.7274008595984323"><ele>66.0</ele><time>2026-03-22T13:44:06Z</time></trkpt><trkpt lat="43.149596583506415" lon="2.7272536247961177"><ele>66.0</ele><time>2026-03-22T13:44:08Z</time></trkpt><trkpt lat="43.149530539008985" lon="2.7272117287194035"><ele>66.0</ele><time>2026-03-22T13:44:09Z</time></trkpt><trkpt lat="43.14941282079873" lon="2.7271590908910452"><ele>66.0</ele><time>2026-03-22T13:44:11Z</time></trkpt><trkpt lat="43.149353319630464" lon="2.72712825746036"><ele>66.0</ele><time>2026-03-22T13:44:12Z</time></trkpt><trkpt lat="43.14923598220572" lon="2.727061608501168"><ele>66.0</ele><time>2026-03-22T13:44:14Z</time></trkpt><trkpt lat="43.1491720117227" lon="2.7270342245384827"><ele>66.0</ele><time>2026-03-22T13:44:15Z</time></trkpt><trkpt lat="43.14909906963539" lon="2.7270037104719287"><ele>66.0</ele><time>2026-03-22T13:44:16Z</time></trkpt><trkpt lat="43.14902499381997" lon="2.726970183315872"><ele>66.0</ele><time>2026-03-22T13:44:17Z</time></trkpt><trkpt lat="43.14892096863355" lon="2.7269143576820296"><ele>66.0</ele><time>2026-03-22T13:44:19Z</time></trkpt><trkpt lat="43.14885373691549" lon="2.726876738161564"><ele>66.0</ele><time>2026-03-22T13:44:20Z</time></trkpt><trkpt lat="43.14878177378834" lon="2.726847415588679"><ele>66.0</ele><time>2026-03-22T13:44:21Z</time></trkpt><trkpt lat="43.14871768323539" lon="2.726810255024859"><ele>66.16666666666667</ele><time>2026-03-22T13:44:22Z</time></trkpt><trkpt lat="43.14865361645191" lon="2.7267739958155945"><ele>66.33333333333333</ele><time>2026-03-22T13:44:23Z</time></trkpt><trkpt lat="43.14859700167915" lon="2.7267255107272823"><ele>66.5</ele><time>2026-03-22T13:44:24Z</time></trkpt><trkpt lat="43.148539940586566" lon="2.72667203889686"><ele>66.66666666666666</ele><time>2026-03-22T13:44:25Z</time></trkpt><trkpt lat="43.1484538107901" lon="2.726590482369816"><ele>66.83333333333333</ele><time>2026-03-22T13:44:27Z</time></trkpt><trkpt lat="43.1483700961104" lon="2.7265295606252047"><ele>67.0</ele><time>2026-03-22T13:44:29Z</time></trkpt><trkpt lat="43.148299433237035" lon="2.726513176606759"><ele>67.0</ele><time>2026-03-22T13:44:32Z</time></trkpt><trkpt lat="43.14824715765975" lon="2.726437289776734"><ele>67.0</ele><time>2026-03-22T13:44:44.999Z</time></trkpt><trkpt lat="43.14817742689447" lon="2.726347537883292"><ele>67.0</ele><time>2026-03-22T13:44:46.999Z</time></trkpt><trkpt lat="43.1481166216092" lon="2.726208947631664"><ele>67.0</ele><time>2026-03-22T13:44:48.999Z</time></trkpt><trkpt lat="43.148057372615845" lon="2.7260792221347825"><ele>67.0</ele><time>2026-03-22T13:44:50.999Z</time></trkpt><trkpt lat="43.14802077082265" lon="2.7259846661602856"><ele>67.2</ele><time>2026-03-22T13:44:52.999Z</time></trkpt><trkpt lat="43.14798667139617" lon="2.7258978736117188"><ele>67.4</ele><time>2026-03-22T13:44:54.999Z</time></trkpt><trkpt lat="43.147945387976954" lon="2.7257916302307836"><ele>67.6</ele><time>2026-03-22T13:44:58Z</time></trkpt><trkpt lat="43.14788292065588" lon="2.7257387751477737"><ele>67.8</ele><time>2026-03-22T13:45:01Z</time></trkpt><trkpt lat="43.147841761102015" lon="2.725664079847902"><ele>68.0</ele><time>2026-03-22T13:45:10Z</time></trkpt><trkpt lat="43.14774486537191" lon="2.7258364556834174"><ele>68.0</ele><time>2026-03-22T13:45:13Z</time></trkpt><trkpt lat="43.14768034663219" lon="2.7259543442279943"><ele>68.0</ele><time>2026-03-22T13:45:14Z</time></trkpt><trkpt lat="43.1476100390738" lon="2.7260427367397524"><ele>68.0</ele><time>2026-03-22T13:45:15Z</time></trkpt><trkpt lat="43.14757908449885" lon="2.7261285641399056"><ele>68.0</ele><time>2026-03-22T13:45:16Z</time></trkpt><trkpt lat="43.14751437315737" lon="2.726261895931569"><ele>68.0</ele><time>2026-03-22T13:45:18Z</time></trkpt><trkpt lat="43.14742473073191" lon="2.726293505257431"><ele>68.4</ele><time>2026-03-22T13:45:20Z</time></trkpt><trkpt lat="43.147347059815985" lon="2.726277743087805"><ele>68.8</ele><time>2026-03-22T13:45:21Z</time></trkpt><trkpt lat="43.14724828793168" lon="2.7263007460178166"><ele>69.2</ele><time>2026-03-22T13:45:23Z</time></trkpt><trkpt lat="43.14714203064026" lon="2.726316008379347"><ele>69.6</ele><time>2026-03-22T13:45:25Z</time></trkpt><trkpt lat="43.14699898049114" lon="2.726409339033289"><ele>70.0</ele><time>2026-03-22T13:45:27Z</time></trkpt><trkpt lat="43.146891864475485" lon="2.7265103627155196"><ele>70.0</ele><time>2026-03-22T13:45:28Z</time></trkpt><trkpt lat="43.14680656448475" lon="2.7265605468101404"><ele>70.0</ele><time>2026-03-22T13:45:29Z</time></trkpt><trkpt lat="43.14673080480489" lon="2.7265816624223085"><ele>70.0</ele><time>2026-03-22T13:45:30Z</time></trkpt><trkpt lat="43.146656370093275" lon="2.726608546987643"><ele>70.0</ele><time>2026-03-22T13:45:31Z</time></trkpt><trkpt lat="43.146583617362" lon="2.7266453090023464"><ele>70.0</ele><time>2026-03-22T13:45:32Z</time></trkpt><trkpt lat="43.14650641316692" lon="2.7266754989356707"><ele>70.0</ele><time>2026-03-22T13:45:33Z</time></trkpt><trkpt lat="43.14642108190966" lon="2.7266763043603817"><ele>70.16666666666666</ele><time>2026-03-22T13:45:34Z</time></trkpt><trkpt lat="43.146342429976656" lon="2.7267078788739743"><ele>70.33333333333333</ele><time>2026-03-22T13:45:35Z</time></trkpt><trkpt lat="43.14626648761057" lon="2.726727664938949"><ele>70.5</ele><time>2026-03-22T13:45:36Z</time></trkpt><trkpt lat="43.14618515078075" lon="2.7267351231868107"><ele>70.66666666666667</ele><time>2026-03-22T13:45:37Z</time></trkpt><trkpt lat="43.14610603677975" lon="2.7267473413320777"><ele>70.83333333333334</ele><time>2026-03-22T13:45:38Z</time></trkpt><trkpt lat="43.14603590872593" lon="2.7267511669140085"><ele>71.0</ele><time>2026-03-22T13:45:39Z</time></trkpt><trkpt lat="43.14596720050689" lon="2.7267541722876736"><ele>71.0</ele><time>2026-03-22T13:45:40Z</time></trkpt><trkpt lat="43.14590160105599" lon="2.726772734354613"><ele>71.0</ele><time>2026-03-22T13:45:41Z</time></trkpt><trkpt lat="43.145833199910975" lon="2.726792560773982"><ele>71.0</ele><time>2026-03-22T13:45:42Z</time></trkpt><trkpt lat="43.145757080336004" lon="2.7268196712414547"><ele>71.0</ele><time>2026-03-22T13:45:43Z</time></trkpt><trkpt lat="43.14566998021708" lon="2.7268388872430953"><ele>71.0</ele><time>2026-03-22T13:45:44Z</time></trkpt><trkpt lat="43.14558406357565" lon="2.7268531900607607"><ele>71.0</ele><time>2026-03-22T13:45:45Z</time></trkpt><trkpt lat="43.14549879478902" lon="2.7268738039616793"><ele>71.0</ele><time>2026-03-22T13:45:46Z</time></trkpt><trkpt lat="43.145425862783206" lon="2.7268948305113523"><ele>71.0</ele><time>2026-03-22T13:45:47Z</time></trkpt><trkpt lat="43.14534878472989" lon="2.726910887250394"><ele>71.0</ele><time>2026-03-22T13:45:48Z</time></trkpt><trkpt lat="43.1452701747185" lon="2.7269206073337853"><ele>71.0</ele><time>2026-03-22T13:45:49Z</time></trkpt><trkpt lat="43.14518235557013" lon="2.7269448695692167"><ele>71.0</ele><time>2026-03-22T13:45:50Z</time></trkpt><trkpt lat="43.14509440534092" lon="2.726961330676449"><ele>71.0</ele><time>2026-03-22T13:45:51Z</time></trkpt><trkpt lat="43.14500310620409" lon="2.7269795650209963"><ele>71.0</ele><time>2026-03-22T13:45:52Z</time></trkpt><trkpt lat="43.144903390124135" lon="2.727008486676963"><ele>71.0</ele><time>2026-03-22T13:45:53Z</time></trkpt><trkpt lat="43.14481613251357" lon="2.7270348097195836"><ele>71.0</ele><time>2026-03-22T13:45:54Z</time></trkpt><trkpt lat="43.14474555025749" lon="2.72705950178949"><ele>71.0</ele><time>2026-03-22T13:45:55Z</time></trkpt><trkpt lat="43.144669159771254" lon="2.727074885954583"><ele>71.0</ele><time>2026-03-22T13:45:56Z</time></trkpt><trkpt lat="43.144574989083274" lon="2.727082590731323"><ele>71.0</ele><time>2026-03-22T13:45:57Z</time></trkpt><trkpt lat="43.14447883987367" lon="2.7271072790475137"><ele>71.2</ele><time>2026-03-22T13:45:58Z</time></trkpt><trkpt lat="43.14437855808476" lon="2.7271240773374883"><ele>71.39999999999999</ele><time>2026-03-22T13:45:59Z</time></trkpt><trkpt lat="43.14429071606852" lon="2.7271466474802306"><ele>71.6</ele><time>2026-03-22T13:46:00Z</time></trkpt><trkpt lat="43.144192830170184" lon="2.7271720051455133"><ele>71.8</ele><time>2026-03-22T13:46:01Z</time></trkpt><trkpt lat="43.1440930607182" lon="2.7271919825536854"><ele>72.0</ele><time>2026-03-22T13:46:02Z</time></trkpt><trkpt lat="43.143989721518935" lon="2.7272150159608683"><ele>72.2</ele><time>2026-03-22T13:46:03Z</time></trkpt><trkpt lat="43.14388790009793" lon="2.7272341345651556"><ele>72.4</ele><time>2026-03-22T13:46:04Z</time></trkpt><trkpt lat="43.143785321871206" lon="2.7272614481715602"><ele>72.6</ele><time>2026-03-22T13:46:05Z</time></trkpt><trkpt lat="43.143685851792654" lon="2.727270285129121"><ele>72.8</ele><time>2026-03-22T13:46:06Z</time></trkpt><trkpt lat="43.14358774577095" lon="2.727295326290785"><ele>73.0</ele><time>2026-03-22T13:46:07Z</time></trkpt><trkpt lat="43.14349332438492" lon="2.7273177189756765"><ele>73.0</ele><time>2026-03-22T13:46:08Z</time></trkpt><trkpt lat="43.143359371201846" lon="2.7273446659674305"><ele>73.0</ele><time>2026-03-22T13:46:09Z</time></trkpt><trkpt lat="43.143180474199305" lon="2.7273867693470404"><ele>73.0</ele><time>2026-03-22T13:46:10Z</time></trkpt><trkpt lat="43.142995976925825" lon="2.7274302965174724"><ele>73.33333333333333</ele><time>2026-03-22T13:46:11Z</time></trkpt><trkpt lat="43.1428108190577" lon="2.72747127900848"><ele>73.66666666666667</ele><time>2026-03-22T13:46:12Z</time></trkpt><trkpt lat="43.14265773627326" lon="2.7275048672675557"><ele>74.0</ele><time>2026-03-22T13:46:13Z</time></trkpt><trkpt lat="43.14251801165174" lon="2.727539157572516"><ele>74.0</ele><time>2026-03-22T13:46:14Z</time></trkpt><trkpt lat="43.14235829833823" lon="2.7275763475725614"><ele>74.0</ele><time>2026-03-22T13:46:15Z</time></trkpt><trkpt lat="43.14219348114208" lon="2.7276106115481165"><ele>74.0</ele><time>2026-03-22T13:46:16Z</time></trkpt><trkpt lat="43.14204697508466" lon="2.7276426023746967"><ele>74.0</ele><time>2026-03-22T13:46:17Z</time></trkpt><trkpt lat="43.14191071686109" lon="2.7276682939548142"><ele>74.0</ele><time>2026-03-22T13:46:18Z</time></trkpt><trkpt lat="43.14176814809579" lon="2.7276961086538827"><ele>74.0</ele><time>2026-03-22T13:46:19Z</time></trkpt><trkpt lat="43.14162256617456" lon="2.7277271385744983"><ele>74.0</ele><time>2026-03-22T13:46:20Z</time></trkpt><trkpt lat="43.14147592858352" lon="2.727760726320257"><ele>76.33333333333334</ele><time>2026-03-22T13:46:21Z</time></trkpt><trkpt lat="43.14132407762236" lon="2.7277945586277164"><ele>78.66666666666667</ele><time>2026-03-22T13:46:22Z</time></trkpt><trkpt lat="43.141171786670334" lon="2.727827707539016"><ele>81.0</ele><time>2026-03-22T13:46:23Z</time></trkpt><trkpt lat="43.14101880604729" lon="2.727863151146179"><ele>81.0</ele><time>2026-03-22T13:46:24Z</time></trkpt><trkpt lat="43.140856971805505" lon="2.7278963289476934"><ele>81.0</ele><time>2026-03-22T13:46:25Z</time></trkpt><trkpt lat="43.14069618041518" lon="2.7279288775798154"><ele>81.0</ele><time>2026-03-22T13:46:26Z</time></trkpt><trkpt lat="43.14052817908712" lon="2.7279660295381727"><ele>81.66666666666667</ele><time>2026-03-22T13:46:27Z</time></trkpt><trkpt lat="43.14035777302897" lon="2.728003336501793"><ele>82.33333333333334</ele><time>2026-03-22T13:46:28Z</time></trkpt><trkpt lat="43.14018963287199" lon="2.728039655426492"><ele>83.0</ele><time>2026-03-22T13:46:29Z</time></trkpt><trkpt lat="43.140026083628825" lon="2.7280769164552736"><ele>83.66666666666667</ele><time>2026-03-22T13:46:30Z</time></trkpt><trkpt lat="43.13986144967422" lon="2.7281127451209337"><ele>84.33333333333333</ele><time>2026-03-22T13:46:31Z</time></trkpt><trkpt lat="43.139702904886136" lon="2.7281474753469745"><ele>85.0</ele><time>2026-03-22T13:46:32Z</time></trkpt><trkpt lat="43.13954427706937" lon="2.7281872930782907"><ele>85.0</ele><time>2026-03-22T13:46:33Z</time></trkpt><trkpt lat="43.13939141128186" lon="2.7282206782794476"><ele>85.0</ele><time>2026-03-22T13:46:34Z</time></trkpt><trkpt lat="43.13924168313934" lon="2.72825483684183"><ele>85.0</ele><time>2026-03-22T13:46:35Z</time></trkpt><trkpt lat="43.13909180681556" lon="2.7283067217902026"><ele>85.66666666666666</ele><time>2026-03-22T13:46:36Z</time></trkpt><trkpt lat="43.13892590543754" lon="2.728397433894847"><ele>86.33333333333333</ele><time>2026-03-22T13:46:37Z</time></trkpt><trkpt lat="43.13875819325646" lon="2.728520785994586"><ele>87.0</ele><time>2026-03-22T13:46:38Z</time></trkpt><trkpt lat="43.13858489618627" lon="2.7286796949927132"><ele>87.0</ele><time>2026-03-22T13:46:39Z</time></trkpt><trkpt lat="43.13841441108182" lon="2.7288273415929014"><ele>87.0</ele><time>2026-03-22T13:46:40Z</time></trkpt><trkpt lat="43.13824893207484" lon="2.728931686089445"><ele>87.0</ele><time>2026-03-22T13:46:41Z</time></trkpt><trkpt lat="43.138062928760164" lon="2.7290185026226097"><ele>86.0</ele><time>2026-03-22T13:46:42Z</time></trkpt><trkpt lat="43.13785572243694" lon="2.7290962170628585"><ele>85.0</ele><time>2026-03-22T13:46:43Z</time></trkpt><trkpt lat="43.1376279023161" lon="2.7291862365427573"><ele>85.0</ele><time>2026-03-22T13:46:44Z</time></trkpt><trkpt lat="43.13743187859345" lon="2.7292790012681514"><ele>85.0</ele><time>2026-03-22T13:46:45Z</time></trkpt><trkpt lat="43.1372625843176" lon="2.729358306182344"><ele>85.0</ele><time>2026-03-22T13:46:46Z</time></trkpt><trkpt lat="43.13709551938523" lon="2.7294271013302147"><ele>87.0</ele><time>2026-03-22T13:46:47Z</time></trkpt><trkpt lat="43.13692363166275" lon="2.729501800639464"><ele>89.0</ele><time>2026-03-22T13:46:48Z</time></trkpt><trkpt lat="43.136756855305464" lon="2.729571684778441"><ele>91.0</ele><time>2026-03-22T13:46:49Z</time></trkpt><trkpt lat="43.13660549891585" lon="2.729635948623037"><ele>89.66666666666666</ele><time>2026-03-22T13:46:50Z</time></trkpt><trkpt lat="43.13646206041181" lon="2.729698866404513"><ele>88.33333333333333</ele><time>2026-03-22T13:46:51Z</time></trkpt><trkpt lat="43.136319168526285" lon="2.7297628832065106"><ele>87.0</ele><time>2026-03-22T13:46:52Z</time></trkpt><trkpt lat="43.13618087711567" lon="2.7298417777936845"><ele>87.0</ele><time>2026-03-22T13:46:53Z</time></trkpt><trkpt lat="43.136042911162484" lon="2.729935658123396"><ele>87.0</ele><time>2026-03-22T13:46:54Z</time></trkpt><trkpt lat="43.13590858736441" lon="2.730058115695361"><ele>87.0</ele><time>2026-03-22T13:46:55Z</time></trkpt><trkpt lat="43.13576434240139" lon="2.730234196842646"><ele>87.66666666666667</ele><time>2026-03-22T13:46:56Z</time></trkpt><trkpt lat="43.13561287742408" lon="2.730429852408131"><ele>88.33333333333334</ele><time>2026-03-22T13:46:57Z</time></trkpt><trkpt lat="43.135487520157376" lon="2.7306001270628677"><ele>89.0</ele><time>2026-03-22T13:46:58Z</time></trkpt><trkpt lat="43.13536182543271" lon="2.73075720917704"><ele>89.0</ele><time>2026-03-22T13:46:59Z</time></trkpt><trkpt lat="43.13522879557134" lon="2.7309247000483583"><ele>89.0</ele><time>2026-03-22T13:47:00Z</time></trkpt><trkpt lat="43.13509748306988" lon="2.7310887437304943"><ele>89.0</ele><time>2026-03-22T13:47:01Z</time></trkpt><trkpt lat="43.13497150292188" lon="2.731243801975169"><ele>89.0</ele><time>2026-03-22T13:47:02Z</time></trkpt><trkpt lat="43.13484426303543" lon="2.731396041770501"><ele>89.0</ele><time>2026-03-22T13:47:03Z</time></trkpt><trkpt lat="43.13470424664557" lon="2.73152625279651"><ele>89.0</ele><time>2026-03-22T13:47:04Z</time></trkpt><trkpt lat="43.134533977505654" lon="2.731644645305248"><ele>89.0</ele><time>2026-03-22T13:47:05Z</time></trkpt><trkpt lat="43.13433242983629" lon="2.7317679664792154"><ele>89.0</ele><time>2026-03-22T13:47:06Z</time></trkpt><trkpt lat="43.13413204665867" lon="2.73189665312914"><ele>89.0</ele><time>2026-03-22T13:47:07Z</time></trkpt><trkpt lat="43.13396400672882" lon="2.7320113040940153"><ele>89.66666666666667</ele><time>2026-03-22T13:47:08Z</time></trkpt><trkpt lat="43.13381083331028" lon="2.732111199012507"><ele>90.33333333333333</ele><time>2026-03-22T13:47:09Z</time></trkpt><trkpt lat="43.13367129964924" lon="2.732214266269419"><ele>91.0</ele><time>2026-03-22T13:47:10Z</time></trkpt><trkpt lat="43.13353178897774" lon="2.732312968047078"><ele>91.0</ele><time>2026-03-22T13:47:11Z</time></trkpt><trkpt lat="43.133392976233736" lon="2.7324096060383867"><ele>91.0</ele><time>2026-03-22T13:47:12Z</time></trkpt><trkpt lat="43.1332470748372" lon="2.7325136969789856"><ele>91.0</ele><time>2026-03-22T13:47:13Z</time></trkpt><trkpt lat="43.133092729923916" lon="2.732628740621629"><ele>92.0</ele><time>2026-03-22T13:47:14Z</time></trkpt><trkpt lat="43.13293058628585" lon="2.7327429235478085"><ele>93.0</ele><time>2026-03-22T13:47:15Z</time></trkpt><trkpt lat="43.13276723061985" lon="2.732851630966011"><ele>94.0</ele><time>2026-03-22T13:47:16Z</time></trkpt><trkpt lat="43.13260115965106" lon="2.7329678446718857"><ele>94.0</ele><time>2026-03-22T13:47:17Z</time></trkpt><trkpt lat="43.1324360111509" lon="2.733077323442253"><ele>94.0</ele><time>2026-03-22T13:47:18Z</time></trkpt><trkpt lat="43.1322779154897" lon="2.733187805593218"><ele>94.0</ele><time>2026-03-22T13:47:19Z</time></trkpt><trkpt lat="43.13212060378916" lon="2.7332967435601576"><ele>95.0</ele><time>2026-03-22T13:47:20Z</time></trkpt><trkpt lat="43.1319651437471" lon="2.733406423306761"><ele>96.0</ele><time>2026-03-22T13:47:21Z</time></trkpt><trkpt lat="43.13181110782392" lon="2.733515337515737"><ele>97.0</ele><time>2026-03-22T13:47:22Z</time></trkpt><trkpt lat="43.131657807229026" lon="2.733620552471282"><ele>98.33333333333334</ele><time>2026-03-22T13:47:23Z</time></trkpt><trkpt lat="43.131504547603164" lon="2.733726948940767"><ele>99.66666666666666</ele><time>2026-03-22T13:47:24Z</time></trkpt><trkpt lat="43.13135171178796" lon="2.7338361922027943"><ele>101.0</ele><time>2026-03-22T13:47:25Z</time></trkpt><trkpt lat="43.131192923355165" lon="2.733942011231093"><ele>101.0</ele><time>2026-03-22T13:47:26Z</time></trkpt><trkpt lat="43.13103621338795" lon="2.734056207178539"><ele>101.0</ele><time>2026-03-22T13:47:27Z</time></trkpt><trkpt lat="43.130876673040156" lon="2.7341677885172744"><ele>101.0</ele><time>2026-03-22T13:47:28Z</time></trkpt><trkpt lat="43.13071426266321" lon="2.7342822434462497"><ele>101.66666666666666</ele><time>2026-03-22T13:47:29Z</time></trkpt><trkpt lat="43.13053608808795" lon="2.734407601902144"><ele>102.33333333333334</ele><time>2026-03-22T13:47:30Z</time></trkpt><trkpt lat="43.130318343814835" lon="2.734548557293691"><ele>103.0</ele><time>2026-03-22T13:47:31Z</time></trkpt><trkpt lat="43.130078117076366" lon="2.734670737209437"><ele>103.5</ele><time>2026-03-22T13:47:32Z</time></trkpt><trkpt lat="43.129815555913126" lon="2.734783345242371"><ele>104.0</ele><time>2026-03-22T13:47:33Z</time></trkpt><trkpt lat="43.12954465803119" lon="2.7349057396509333"><ele>104.0</ele><time>2026-03-22T13:47:34Z</time></trkpt><trkpt lat="43.12928779183277" lon="2.735028535191781"><ele>104.0</ele><time>2026-03-22T13:47:35Z</time></trkpt><trkpt lat="43.129061006449334" lon="2.7351371734015486"><ele>105.5</ele><time>2026-03-22T13:47:36Z</time></trkpt><trkpt lat="43.12884175062752" lon="2.73524267647939"><ele>107.0</ele><time>2026-03-22T13:47:37Z</time></trkpt><trkpt lat="43.12861740306525" lon="2.735350542019002"><ele>107.0</ele><time>2026-03-22T13:47:38Z</time></trkpt><trkpt lat="43.128399583705345" lon="2.7354545412406415"><ele>107.0</ele><time>2026-03-22T13:47:39Z</time></trkpt><trkpt lat="43.12820298900128" lon="2.7355479094442896"><ele>107.0</ele><time>2026-03-22T13:47:40Z</time></trkpt><trkpt lat="43.12802325437444" lon="2.735634068545951"><ele>108.66666666666666</ele><time>2026-03-22T13:47:41Z</time></trkpt><trkpt lat="43.12785743518114" lon="2.7357137191487744"><ele>110.33333333333334</ele><time>2026-03-22T13:47:42Z</time></trkpt><trkpt lat="43.12770111601397" lon="2.7357850658742686"><ele>112.0</ele><time>2026-03-22T13:47:43Z</time></trkpt><trkpt lat="43.127544230504974" lon="2.7358622145252176"><ele>111.66666666666667</ele><time>2026-03-22T13:47:44Z</time></trkpt><trkpt lat="43.12737891432757" lon="2.7359412659556437"><ele>111.33333333333334</ele><time>2026-03-22T13:47:45Z</time></trkpt><trkpt lat="43.12721019756278" lon="2.736020321611997"><ele>111.0</ele><time>2026-03-22T13:47:46Z</time></trkpt><trkpt lat="43.127040701877675" lon="2.7361011841022926"><ele>111.0</ele><time>2026-03-22T13:47:47Z</time></trkpt><trkpt lat="43.126862549658185" lon="2.7361860417329207"><ele>111.0</ele><time>2026-03-22T13:47:48Z</time></trkpt><trkpt lat="43.12668968193875" lon="2.736265146718055"><ele>111.0</ele><time>2026-03-22T13:47:49Z</time></trkpt><trkpt lat="43.12653719688517" lon="2.7363393603375106"><ele>113.0</ele><time>2026-03-22T13:47:50Z</time></trkpt><trkpt lat="43.12639122045574" lon="2.7364174207364913"><ele>115.0</ele><time>2026-03-22T13:47:51Z</time></trkpt><trkpt lat="43.12625658941915" lon="2.7365210385767957"><ele>117.0</ele><time>2026-03-22T13:47:52Z</time></trkpt><trkpt lat="43.12611976695236" lon="2.736683286849096"><ele>116.0</ele><time>2026-03-22T13:47:53Z</time></trkpt><trkpt lat="43.125978223946696" lon="2.736893278380301"><ele>115.0</ele><time>2026-03-22T13:47:54Z</time></trkpt><trkpt lat="43.12584269954059" lon="2.7370948816610254"><ele>114.0</ele><time>2026-03-22T13:47:55Z</time></trkpt><trkpt lat="43.125705753043164" lon="2.737209965280265"><ele>115.75</ele><time>2026-03-22T13:47:56Z</time></trkpt><trkpt lat="43.125572553291825" lon="2.737319749628854"><ele>117.5</ele><time>2026-03-22T13:47:57Z</time></trkpt><trkpt lat="43.12544061492413" lon="2.7373820954819625"><ele>119.25</ele><time>2026-03-22T13:47:58Z</time></trkpt><trkpt lat="43.1253117114823" lon="2.737434575860634"><ele>121.0</ele><time>2026-03-22T13:47:59Z</time></trkpt><trkpt lat="43.12517270811958" lon="2.7374789660012953"><ele>121.0</ele><time>2026-03-22T13:48:00Z</time></trkpt><trkpt lat="43.125033062434326" lon="2.7375191985967056"><ele>121.0</ele><time>2026-03-22T13:48:01Z</time></trkpt><trkpt lat="43.12489956818922" lon="2.7375582639536837"><ele>121.0</ele><time>2026-03-22T13:48:02Z</time></trkpt><trkpt lat="43.124769261811025" lon="2.737578338857749"><ele>121.0</ele><time>2026-03-22T13:48:03Z</time></trkpt><trkpt lat="43.12463117617141" lon="2.737566028247863"><ele>123.33333333333334</ele><time>2026-03-22T13:48:04Z</time></trkpt><trkpt lat="43.124497574779255" lon="2.737509328844361"><ele>125.66666666666666</ele><time>2026-03-22T13:48:05Z</time></trkpt><trkpt lat="43.124358363093535" lon="2.7374234804530824"><ele>128.0</ele><time>2026-03-22T13:48:06Z</time></trkpt><trkpt lat="43.12422121679601" lon="2.737310611143992"><ele>128.0</ele><time>2026-03-22T13:48:07Z</time></trkpt><trkpt lat="43.12409929352863" lon="2.7371616522640734"><ele>128.0</ele><time>2026-03-22T13:48:08Z</time></trkpt><trkpt lat="43.12401022928834" lon="2.7370398835021486"><ele>128.0</ele><time>2026-03-22T13:48:09Z</time></trkpt><trkpt lat="43.12392723644707" lon="2.7369032184304034"><ele>128.0</ele><time>2026-03-22T13:48:10Z</time></trkpt><trkpt lat="43.12384865620012" lon="2.7367541183113775"><ele>131.5</ele><time>2026-03-22T13:48:11Z</time></trkpt><trkpt lat="43.123791610096646" lon="2.7365904853270315"><ele>135.0</ele><time>2026-03-22T13:48:12Z</time></trkpt><trkpt lat="43.12374805359298" lon="2.7364161354522345"><ele>138.5</ele><time>2026-03-22T13:48:13Z</time></trkpt><trkpt lat="43.123701307542866" lon="2.736247421334109"><ele>142.0</ele><time>2026-03-22T13:48:14Z</time></trkpt><trkpt lat="43.12366176012753" lon="2.736078688105097"><ele>141.0</ele><time>2026-03-22T13:48:15Z</time></trkpt><trkpt lat="43.123639606084126" lon="2.735903461897849"><ele>140.0</ele><time>2026-03-22T13:48:16Z</time></trkpt><trkpt lat="43.12362823861162" lon="2.735729210455009"><ele>139.0</ele><time>2026-03-22T13:48:17Z</time></trkpt><trkpt lat="43.12362549588213" lon="2.735569063337699"><ele>138.0</ele><time>2026-03-22T13:48:18Z</time></trkpt><trkpt lat="43.123618379846924" lon="2.735412589873736"><ele>138.0</ele><time>2026-03-22T13:48:19Z</time></trkpt><trkpt lat="43.123613381744825" lon="2.735248885134421"><ele>138.0</ele><time>2026-03-22T13:48:20Z</time></trkpt><trkpt lat="43.12360645469028" lon="2.7350860627078903"><ele>138.0</ele><time>2026-03-22T13:48:21Z</time></trkpt><trkpt lat="43.12358627734873" lon="2.734944487693123"><ele>138.0</ele><time>2026-03-22T13:48:22Z</time></trkpt><trkpt lat="43.12354605748457" lon="2.7347955305151888"><ele>137.25</ele><time>2026-03-22T13:48:23Z</time></trkpt><trkpt lat="43.123471627100116" lon="2.7346526358771692"><ele>136.5</ele><time>2026-03-22T13:48:24Z</time></trkpt><trkpt lat="43.123371110757766" lon="2.734513883007638"><ele>135.75</ele><time>2026-03-22T13:48:25Z</time></trkpt><trkpt lat="43.12325953018128" lon="2.734417872243807"><ele>135.0</ele><time>2026-03-22T13:48:26Z</time></trkpt><trkpt lat="43.12311353915219" lon="2.7343514937114586"><ele>137.0</ele><time>2026-03-22T13:48:27Z</time></trkpt><trkpt lat="43.1229363596269" lon="2.734311237687841"><ele>139.0</ele><time>2026-03-22T13:48:28Z</time></trkpt><trkpt lat="43.12276099643865" lon="2.734268966154865"><ele>141.0</ele><time>2026-03-22T13:48:29Z</time></trkpt><trkpt lat="43.122602564839916" lon="2.734232920996787"><ele>141.0</ele><time>2026-03-22T13:48:30Z</time></trkpt><trkpt lat="43.12243615614569" lon="2.7342140194750444"><ele>141.0</ele><time>2026-03-22T13:48:31Z</time></trkpt><trkpt lat="43.12226455759503" lon="2.734228625853474"><ele>141.0</ele><time>2026-03-22T13:48:32Z</time></trkpt><trkpt lat="43.12208915279787" lon="2.734249669524085"><ele>142.0</ele><time>2026-03-22T13:48:33Z</time></trkpt><trkpt lat="43.12191303110126" lon="2.734279529210047"><ele>143.0</ele><time>2026-03-22T13:48:34Z</time></trkpt><trkpt lat="43.12173172847554" lon="2.734327411081952"><ele>144.0</ele><time>2026-03-22T13:48:35Z</time></trkpt><trkpt lat="43.12154872850679" lon="2.7343797251833153"><ele>144.33333333333334</ele><time>2026-03-22T13:48:36Z</time></trkpt><trkpt lat="43.12134716753274" lon="2.73443488806992"><ele>144.66666666666669</ele><time>2026-03-22T13:48:37Z</time></trkpt><trkpt lat="43.121168074983316" lon="2.73449072761036"><ele>145.0</ele><time>2026-03-22T13:48:38Z</time></trkpt><trkpt lat="43.12099235553311" lon="2.734544391329804"><ele>145.0</ele><time>2026-03-22T13:48:39Z</time></trkpt><trkpt lat="43.120831601973855" lon="2.734626193480091"><ele>145.0</ele><time>2026-03-22T13:48:40Z</time></trkpt><trkpt lat="43.12068890195205" lon="2.734750013633539"><ele>145.0</ele><time>2026-03-22T13:48:41Z</time></trkpt><trkpt lat="43.120528344801656" lon="2.734931498281632"><ele>147.0</ele><time>2026-03-22T13:48:42Z</time></trkpt><trkpt lat="43.120356030196454" lon="2.7351357759022132"><ele>149.0</ele><time>2026-03-22T13:48:43Z</time></trkpt><trkpt lat="43.12018856612559" lon="2.735301713683736"><ele>151.0</ele><time>2026-03-22T13:48:44Z</time></trkpt><trkpt lat="43.12001339917997" lon="2.735465645868615"><ele>151.66666666666669</ele><time>2026-03-22T13:48:45Z</time></trkpt><trkpt lat="43.11984234941483" lon="2.7356149686329156"><ele>152.33333333333334</ele><time>2026-03-22T13:48:46Z</time></trkpt><trkpt lat="43.11965528874955" lon="2.7357617595858144"><ele>153.0</ele><time>2026-03-22T13:48:47Z</time></trkpt><trkpt lat="43.11947949427329" lon="2.7358768208027167"><ele>153.0</ele><time>2026-03-22T13:48:48Z</time></trkpt><trkpt lat="43.11931619584851" lon="2.735976992351957"><ele>153.0</ele><time>2026-03-22T13:48:49Z</time></trkpt><trkpt lat="43.119158479822076" lon="2.7360702639068775"><ele>153.0</ele><time>2026-03-22T13:48:50Z</time></trkpt><trkpt lat="43.11899854255421" lon="2.736163514977388"><ele>153.33333333333334</ele><time>2026-03-22T13:48:51Z</time></trkpt><trkpt lat="43.11882595764062" lon="2.736225958756085"><ele>153.66666666666669</ele><time>2026-03-22T13:48:52Z</time></trkpt><trkpt lat="43.11864102850038" lon="2.7362572173465525"><ele>154.0</ele><time>2026-03-22T13:48:53Z</time></trkpt><trkpt lat="43.118465128181256" lon="2.736274229557563"><ele>154.0</ele><time>2026-03-22T13:48:54Z</time></trkpt><trkpt lat="43.118297904080706" lon="2.7362788702270855"><ele>154.0</ele><time>2026-03-22T13:48:55Z</time></trkpt><trkpt lat="43.11814253086021" lon="2.736275928480257"><ele>154.0</ele><time>2026-03-22T13:48:56Z</time></trkpt><trkpt lat="43.11801601582955" lon="2.7362494812717264"><ele>154.25</ele><time>2026-03-22T13:48:57Z</time></trkpt><trkpt lat="43.11786924545996" lon="2.7362123994828327"><ele>154.5</ele><time>2026-03-22T13:48:58Z</time></trkpt><trkpt lat="43.11775272383647" lon="2.736146447851074"><ele>154.75</ele><time>2026-03-22T13:48:59Z</time></trkpt><trkpt lat="43.117653429360296" lon="2.7360733319832002"><ele>155.0</ele><time>2026-03-22T13:49:00Z</time></trkpt><trkpt lat="43.117543458141995" lon="2.7359776551243504"><ele>155.0</ele><time>2026-03-22T13:49:01Z</time></trkpt><trkpt lat="43.11744760676975" lon="2.7358815684269526"><ele>155.0</ele><time>2026-03-22T13:49:02Z</time></trkpt><trkpt lat="43.11735725394578" lon="2.735787954838261"><ele>155.0</ele><time>2026-03-22T13:49:03Z</time></trkpt><trkpt lat="43.117275391605126" lon="2.7357062543409714"><ele>155.0</ele><time>2026-03-22T13:49:04Z</time></trkpt><trkpt lat="43.11718327299315" lon="2.735624257952056"><ele>155.0</ele><time>2026-03-22T13:49:05Z</time></trkpt><trkpt lat="43.1170877670437" lon="2.7355567633006856"><ele>153.75</ele><time>2026-03-22T13:49:06Z</time></trkpt><trkpt lat="43.116974887244226" lon="2.7355003027475746"><ele>152.5</ele><time>2026-03-22T13:49:07Z</time></trkpt><trkpt lat="43.11683942223863" lon="2.7354786576286365"><ele>151.25</ele><time>2026-03-22T13:49:08Z</time></trkpt><trkpt lat="43.116679085130265" lon="2.73549584095738"><ele>150.0</ele><time>2026-03-22T13:49:09Z</time></trkpt><trkpt lat="43.11653383819751" lon="2.735521812052782"><ele>149.0</ele><time>2026-03-22T13:49:10Z</time></trkpt><trkpt lat="43.11640142515336" lon="2.7355456070361623"><ele>148.0</ele><time>2026-03-22T13:49:11Z</time></trkpt><trkpt lat="43.116272448893206" lon="2.735572730253038"><ele>147.0</ele><time>2026-03-22T13:49:12Z</time></trkpt><trkpt lat="43.11614923576642" lon="2.7356087056601615"><ele>146.0</ele><time>2026-03-22T13:49:13Z</time></trkpt><trkpt lat="43.11602905267691" lon="2.7356560994420622"><ele>146.0</ele><time>2026-03-22T13:49:14Z</time></trkpt><trkpt lat="43.11590784097344" lon="2.7357364652216978"><ele>146.0</ele><time>2026-03-22T13:49:15Z</time></trkpt><trkpt lat="43.11578631105584" lon="2.7358446443152022"><ele>146.0</ele><time>2026-03-22T13:49:16Z</time></trkpt><trkpt lat="43.11567543143994" lon="2.7359683779148547"><ele>146.0</ele><time>2026-03-22T13:49:17Z</time></trkpt><trkpt lat="43.115556299598325" lon="2.7361113455010058"><ele>144.33333333333331</ele><time>2026-03-22T13:49:18Z</time></trkpt><trkpt lat="43.11543638230971" lon="2.7362562747877615"><ele>142.66666666666666</ele><time>2026-03-22T13:49:19Z</time></trkpt><trkpt lat="43.1153118375915" lon="2.736379480961546"><ele>141.0</ele><time>2026-03-22T13:49:20Z</time></trkpt><trkpt lat="43.11518439516458" lon="2.7365254790469917"><ele>141.0</ele><time>2026-03-22T13:49:21Z</time></trkpt><trkpt lat="43.11505251554795" lon="2.736674838662468"><ele>141.0</ele><time>2026-03-22T13:49:22Z</time></trkpt><trkpt lat="43.11494271562353" lon="2.736825050206619"><ele>141.0</ele><time>2026-03-22T13:49:23Z</time></trkpt><trkpt lat="43.11483038892102" lon="2.7369516720852283"><ele>139.25</ele><time>2026-03-22T13:49:24Z</time></trkpt><trkpt lat="43.114721723675956" lon="2.7370713455844995"><ele>137.5</ele><time>2026-03-22T13:49:25Z</time></trkpt><trkpt lat="43.114625014295136" lon="2.7371900967301372"><ele>135.75</ele><time>2026-03-22T13:49:26Z</time></trkpt><trkpt lat="43.11452876343221" lon="2.7373025180889408"><ele>134.0</ele><time>2026-03-22T13:49:27Z</time></trkpt><trkpt lat="43.11443231286952" lon="2.7374019008774497"><ele>134.0</ele><time>2026-03-22T13:49:28Z</time></trkpt><trkpt lat="43.114334134202416" lon="2.737507686999558"><ele>134.0</ele><time>2026-03-22T13:49:29Z</time></trkpt><trkpt lat="43.11423680093994" lon="2.7376189960935595"><ele>134.0</ele><time>2026-03-22T13:49:30Z</time></trkpt><trkpt lat="43.1141413935803" lon="2.73772754014386"><ele>134.0</ele><time>2026-03-22T13:49:31Z</time></trkpt><trkpt lat="43.114045026861106" lon="2.7378426103945332"><ele>132.75</ele><time>2026-03-22T13:49:32Z</time></trkpt><trkpt lat="43.11394992936475" lon="2.737952938285828"><ele>131.5</ele><time>2026-03-22T13:49:33Z</time></trkpt><trkpt lat="43.11385799982418" lon="2.738057460722533"><ele>130.25</ele><time>2026-03-22T13:49:34Z</time></trkpt><trkpt lat="43.11376933707631" lon="2.7381575223425973"><ele>129.0</ele><time>2026-03-22T13:49:35Z</time></trkpt><trkpt lat="43.113678401925945" lon="2.7382573215350736"><ele>129.0</ele><time>2026-03-22T13:49:36Z</time></trkpt><trkpt lat="43.11359030724192" lon="2.738355847781418"><ele>129.0</ele><time>2026-03-22T13:49:37Z</time></trkpt><trkpt lat="43.11350336142921" lon="2.7384490928061314"><ele>129.0</ele><time>2026-03-22T13:49:38Z</time></trkpt><trkpt lat="43.113419342431506" lon="2.7385405557408267"><ele>129.0</ele><time>2026-03-22T13:49:39Z</time></trkpt><trkpt lat="43.11333781729175" lon="2.7386315523166265"><ele>129.0</ele><time>2026-03-22T13:49:40Z</time></trkpt><trkpt lat="43.11325952476745" lon="2.738716470290962"><ele>127.6</ele><time>2026-03-22T13:49:41Z</time></trkpt><trkpt lat="43.11318097094721" lon="2.7387922795294166"><ele>126.2</ele><time>2026-03-22T13:49:42Z</time></trkpt><trkpt lat="43.11309404137839" lon="2.7388644871240304"><ele>124.79999999999998</ele><time>2026-03-22T13:49:43Z</time></trkpt><trkpt lat="43.11299768126571" lon="2.7389192210513773"><ele>123.39999999999999</ele><time>2026-03-22T13:49:44Z</time></trkpt><trkpt lat="43.112904521131924" lon="2.7389553329932927"><ele>122.0</ele><time>2026-03-22T13:49:45Z</time></trkpt><trkpt lat="43.112815853133185" lon="2.738987784932159"><ele>121.99999999999999</ele><time>2026-03-22T13:49:46Z</time></trkpt><trkpt lat="43.112733394356546" lon="2.7390279401073823"><ele>122.0</ele><time>2026-03-22T13:49:47Z</time></trkpt><trkpt lat="43.11265161930693" lon="2.7390296751103222"><ele>122.0</ele><time>2026-03-22T13:49:48Z</time></trkpt><trkpt lat="43.112573525244194" lon="2.7390543561730296"><ele>122.0</ele><time>2026-03-22T13:49:49Z</time></trkpt><trkpt lat="43.11250324076017" lon="2.739080081428004"><ele>121.99999999999999</ele><time>2026-03-22T13:49:50Z</time></trkpt><trkpt lat="43.11243175633374" lon="2.7391082861473053"><ele>122.0</ele><time>2026-03-22T13:49:51Z</time></trkpt><trkpt lat="43.11231389965568" lon="2.7391547887836656"><ele>121.99999999999999</ele><time>2026-03-22T13:49:53Z</time></trkpt><trkpt lat="43.11227101305103" lon="2.739231907177055"><ele>122.0</ele><time>2026-03-22T13:49:54Z</time></trkpt><trkpt lat="43.112213555142944" lon="2.739280496569972"><ele>122.0</ele><time>2026-03-22T13:49:55Z</time></trkpt><trkpt lat="43.11209673949317" lon="2.7393838198288707"><ele>122.0</ele><time>2026-03-22T13:49:57Z</time></trkpt><trkpt lat="43.112031922648335" lon="2.739442607585942"><ele>121.99999999999999</ele><time>2026-03-22T13:49:58Z</time></trkpt><trkpt lat="43.111975394610724" lon="2.739496833909645"><ele>122.0</ele><time>2026-03-22T13:49:59Z</time></trkpt><trkpt lat="43.111912905130325" lon="2.7395352842164775"><ele>121.19999999999999</ele><time>2026-03-22T13:50:00Z</time></trkpt><trkpt lat="43.11184976810375" lon="2.7395778670150586"><ele>120.39999999999999</ele><time>2026-03-22T13:50:01Z</time></trkpt><trkpt lat="43.11176590389868" lon="2.7396457211916294"><ele>119.60000000000001</ele><time>2026-03-22T13:50:02Z</time></trkpt><trkpt lat="43.11165949109217" lon="2.7397489438458345"><ele>118.80000000000001</ele><time>2026-03-22T13:50:03Z</time></trkpt><trkpt lat="43.11154480279045" lon="2.739857505380069"><ele>118.0</ele><time>2026-03-22T13:50:04Z</time></trkpt><trkpt lat="43.11143456397222" lon="2.7399418559521487"><ele>117.0</ele><time>2026-03-22T13:50:05Z</time></trkpt><trkpt lat="43.11133984866681" lon="2.7400238216157358"><ele>116.0</ele><time>2026-03-22T13:50:06Z</time></trkpt><trkpt lat="43.111245648947374" lon="2.7401111011734507"><ele>115.0</ele><time>2026-03-22T13:50:07Z</time></trkpt><trkpt lat="43.1111364624114" lon="2.7402133023859436"><ele>114.0</ele><time>2026-03-22T13:50:08Z</time></trkpt><trkpt lat="43.11101448326014" lon="2.740316189266407"><ele>113.5</ele><time>2026-03-22T13:50:09Z</time></trkpt><trkpt lat="43.11089981079519" lon="2.7404195615675007"><ele>113.0</ele><time>2026-03-22T13:50:10Z</time></trkpt><trkpt lat="43.11079195871282" lon="2.7405214542641185"><ele>112.5</ele><time>2026-03-22T13:50:11Z</time></trkpt><trkpt lat="43.11067779349478" lon="2.7406260997033387"><ele>112.0</ele><time>2026-03-22T13:50:12Z</time></trkpt><trkpt lat="43.11055330142907" lon="2.740722842155684"><ele>111.5</ele><time>2026-03-22T13:50:13Z</time></trkpt><trkpt lat="43.11042933890536" lon="2.740826333046078"><ele>111.0</ele><time>2026-03-22T13:50:14Z</time></trkpt><trkpt lat="43.11030363464908" lon="2.7409395309571436"><ele>110.5</ele><time>2026-03-22T13:50:15Z</time></trkpt><trkpt lat="43.110175807955024" lon="2.7410537798209833"><ele>110.0</ele><time>2026-03-22T13:50:16Z</time></trkpt><trkpt lat="43.110053408999434" lon="2.7411657919710435"><ele>110.0</ele><time>2026-03-22T13:50:17Z</time></trkpt><trkpt lat="43.109934511738025" lon="2.7412745787901995"><ele>110.0</ele><time>2026-03-22T13:50:18Z</time></trkpt><trkpt lat="43.109816214303834" lon="2.7413792682712748"><ele>110.0</ele><time>2026-03-22T13:50:19Z</time></trkpt><trkpt lat="43.10971198917777" lon="2.741471659816187"><ele>110.0</ele><time>2026-03-22T13:50:20Z</time></trkpt><trkpt lat="43.109601342212166" lon="2.741571932102726"><ele>109.75</ele><time>2026-03-22T13:50:21Z</time></trkpt><trkpt lat="43.10947813861097" lon="2.741662819279158"><ele>109.5</ele><time>2026-03-22T13:50:22Z</time></trkpt><trkpt lat="43.10933944321179" lon="2.741733108404405"><ele>109.25</ele><time>2026-03-22T13:50:23Z</time></trkpt><trkpt lat="43.10918517693016" lon="2.7417727020652842"><ele>109.0</ele><time>2026-03-22T13:50:24Z</time></trkpt><trkpt lat="43.10902500438703" lon="2.7417850944128124"><ele>108.75</ele><time>2026-03-22T13:50:25Z</time></trkpt><trkpt lat="43.10888184193758" lon="2.7417831632177854"><ele>108.5</ele><time>2026-03-22T13:50:26Z</time></trkpt><trkpt lat="43.10875354796242" lon="2.7417783478638853"><ele>108.25</ele><time>2026-03-22T13:50:27Z</time></trkpt><trkpt lat="43.10863846685282" lon="2.741776536598457"><ele>108.0</ele><time>2026-03-22T13:50:28Z</time></trkpt><trkpt lat="43.10852948169924" lon="2.7417788527798717"><ele>108.0</ele><time>2026-03-22T13:50:29Z</time></trkpt><trkpt lat="43.108422377789736" lon="2.7417770425586774"><ele>108.00000000000001</ele><time>2026-03-22T13:50:30Z</time></trkpt><trkpt lat="43.10831033833768" lon="2.741773369721225"><ele>108.00000000000001</ele><time>2026-03-22T13:50:31Z</time></trkpt><trkpt lat="43.10819750357494" lon="2.7417706227677656"><ele>108.0</ele><time>2026-03-22T13:50:32Z</time></trkpt><trkpt lat="43.10808210927298" lon="2.7417705165179656"><ele>108.0</ele><time>2026-03-22T13:50:33Z</time></trkpt><trkpt lat="43.10796177591891" lon="2.7417729539977658"><ele>108.0</ele><time>2026-03-22T13:50:34Z</time></trkpt><trkpt lat="43.107838251592355" lon="2.7417724437312576"><ele>108.0</ele><time>2026-03-22T13:50:35Z</time></trkpt><trkpt lat="43.10770724953267" lon="2.7417695313801755"><ele>108.0</ele><time>2026-03-22T13:50:36Z</time></trkpt><trkpt lat="43.10758366031358" lon="2.741760040944041"><ele>108.0</ele><time>2026-03-22T13:50:37Z</time></trkpt><trkpt lat="43.1074582624775" lon="2.7417565078820494"><ele>108.2</ele><time>2026-03-22T13:50:38Z</time></trkpt><trkpt lat="43.10734943958215" lon="2.7417490269436247"><ele>108.4</ele><time>2026-03-22T13:50:39Z</time></trkpt><trkpt lat="43.1072536977179" lon="2.7417458461825297"><ele>108.60000000000001</ele><time>2026-03-22T13:50:40Z</time></trkpt><trkpt lat="43.107163671298046" lon="2.741748029632157"><ele>108.80000000000001</ele><time>2026-03-22T13:50:41Z</time></trkpt><trkpt lat="43.10707794146676" lon="2.741747634289187"><ele>109.0</ele><time>2026-03-22T13:50:42Z</time></trkpt><trkpt lat="43.10699578052407" lon="2.7417493102072914"><ele>109.00000000000001</ele><time>2026-03-22T13:50:43Z</time></trkpt><trkpt lat="43.106919667671484" lon="2.741751859619427"><ele>109.0</ele><time>2026-03-22T13:50:44Z</time></trkpt><trkpt lat="43.106839695642975" lon="2.741761075332004"><ele>109.0</ele><time>2026-03-22T13:50:45Z</time></trkpt><trkpt lat="43.10676074631988" lon="2.7417746571036563"><ele>109.0</ele><time>2026-03-22T13:50:46Z</time></trkpt><trkpt lat="43.10669273761714" lon="2.741783935085002"><ele>109.00000000000001</ele><time>2026-03-22T13:50:47Z</time></trkpt><trkpt lat="43.106606209411375" lon="2.7418606963742467"><ele>109.0</ele><time>2026-03-22T13:50:49Z</time></trkpt><trkpt lat="43.10653008308727" lon="2.7418129339552237"><ele>109.6</ele><time>2026-03-22T13:50:50Z</time></trkpt><trkpt lat="43.10643742666129" lon="2.7418172081180887"><ele>110.2</ele><time>2026-03-22T13:50:52Z</time></trkpt><trkpt lat="43.10634932349837" lon="2.7417528368463286"><ele>110.79999999999998</ele><time>2026-03-22T13:50:54Z</time></trkpt><trkpt lat="43.106300255240235" lon="2.741694086284569"><ele>111.39999999999999</ele><time>2026-03-22T13:50:55Z</time></trkpt><trkpt lat="43.10625317772268" lon="2.741589337350641"><ele>112.0</ele><time>2026-03-22T13:50:56Z</time></trkpt><trkpt lat="43.10621696928747" lon="2.74145616294275"><ele>112.0</ele><time>2026-03-22T13:50:57Z</time></trkpt><trkpt lat="43.106181591367175" lon="2.7413080148484057"><ele>112.0</ele><time>2026-03-22T13:50:58Z</time></trkpt><trkpt lat="43.10613916059415" lon="2.7411553446825745"><ele>112.0</ele><time>2026-03-22T13:50:59Z</time></trkpt><trkpt lat="43.106085420105686" lon="2.7409793487847853"><ele>112.0</ele><time>2026-03-22T13:51:00Z</time></trkpt><trkpt lat="43.10602519176665" lon="2.740779506768559"><ele>112.0</ele><time>2026-03-22T13:51:01Z</time></trkpt><trkpt lat="43.10594519794661" lon="2.7405243645122295"><ele>112.0</ele><time>2026-03-22T13:51:02Z</time></trkpt><trkpt lat="43.10585452669216" lon="2.7402451098602714"><ele>112.0</ele><time>2026-03-22T13:51:03Z</time></trkpt><trkpt lat="43.10576381138913" lon="2.739939091257659"><ele>112.5</ele><time>2026-03-22T13:51:04Z</time></trkpt><trkpt lat="43.1056694451327" lon="2.7396080856240896"><ele>113.0</ele><time>2026-03-22T13:51:05Z</time></trkpt><trkpt lat="43.105585731836506" lon="2.739320801810612"><ele>113.66666666666666</ele><time>2026-03-22T13:51:06Z</time></trkpt><trkpt lat="43.105507497087906" lon="2.7390476168788758"><ele>114.33333333333334</ele><time>2026-03-22T13:51:07Z</time></trkpt><trkpt lat="43.10543137858564" lon="2.7387873932672173"><ele>115.0</ele><time>2026-03-22T13:51:08Z</time></trkpt><trkpt lat="43.10536014635687" lon="2.7385348018564963"><ele>115.66666666666667</ele><time>2026-03-22T13:51:09Z</time></trkpt><trkpt lat="43.10528795461087" lon="2.738287828965436"><ele>116.33333333333334</ele><time>2026-03-22T13:51:10Z</time></trkpt><trkpt lat="43.10521654650633" lon="2.7380427416253097"><ele>117.0</ele><time>2026-03-22T13:51:11Z</time></trkpt><trkpt lat="43.10514524089781" lon="2.737806510900267"><ele>116.66666666666666</ele><time>2026-03-22T13:51:12Z</time></trkpt><trkpt lat="43.1050738478268" lon="2.737567409153145"><ele>116.33333333333333</ele><time>2026-03-22T13:51:13Z</time></trkpt><trkpt lat="43.10499582000439" lon="2.737332956588047"><ele>116.0</ele><time>2026-03-22T13:51:14Z</time></trkpt><trkpt lat="43.10489308136963" lon="2.7370797221483536"><ele>114.5</ele><time>2026-03-22T13:51:15Z</time></trkpt><trkpt lat="43.10476444600973" lon="2.7368057615099994"><ele>113.0</ele><time>2026-03-22T13:51:16Z</time></trkpt><trkpt lat="43.10461161291407" lon="2.736517004192712"><ele>113.0</ele><time>2026-03-22T13:51:17Z</time></trkpt><trkpt lat="43.10444646135583" lon="2.7362079440546943"><ele>113.0</ele><time>2026-03-22T13:51:18Z</time></trkpt><trkpt lat="43.104272556305666" lon="2.7358769015784086"><ele>113.0</ele><time>2026-03-22T13:51:19Z</time></trkpt><trkpt lat="43.104117325427104" lon="2.7355782105219113"><ele>113.0</ele><time>2026-03-22T13:51:20Z</time></trkpt><trkpt lat="43.10398009059684" lon="2.73529718055767"><ele>111.66666666666666</ele><time>2026-03-22T13:51:21Z</time></trkpt><trkpt lat="43.10384549966303" lon="2.735041069915443"><ele>110.33333333333334</ele><time>2026-03-22T13:51:22Z</time></trkpt><trkpt lat="43.103716936047284" lon="2.734799005503805"><ele>109.0</ele><time>2026-03-22T13:51:23Z</time></trkpt><trkpt lat="43.10358340489851" lon="2.7345577683220994"><ele>108.0</ele><time>2026-03-22T13:51:24Z</time></trkpt><trkpt lat="43.10343228205784" lon="2.7342895887974237"><ele>107.0</ele><time>2026-03-22T13:51:25Z</time></trkpt><trkpt lat="43.10331585112612" lon="2.7340383828268315"><ele>107.66666666666666</ele><time>2026-03-22T13:51:26Z</time></trkpt><trkpt lat="43.10319121413181" lon="2.7338005776316585"><ele>108.33333333333334</ele><time>2026-03-22T13:51:27Z</time></trkpt><trkpt lat="43.103066713730065" lon="2.733560845877968"><ele>109.0</ele><time>2026-03-22T13:51:28Z</time></trkpt><trkpt lat="43.102932455729075" lon="2.7333034800869203"><ele>106.5</ele><time>2026-03-22T13:51:29Z</time></trkpt><trkpt lat="43.10279281169096" lon="2.733029459308334"><ele>104.0</ele><time>2026-03-22T13:51:30Z</time></trkpt><trkpt lat="43.10264207483003" lon="2.732750213955217"><ele>103.5</ele><time>2026-03-22T13:51:31Z</time></trkpt><trkpt lat="43.10249447464544" lon="2.7324768454131623"><ele>103.0</ele><time>2026-03-22T13:51:32Z</time></trkpt><trkpt lat="43.10235497535301" lon="2.7322112327717654"><ele>103.5</ele><time>2026-03-22T13:51:33Z</time></trkpt><trkpt lat="43.1022164342733" lon="2.731940057269633"><ele>104.0</ele><time>2026-03-22T13:51:34Z</time></trkpt><trkpt lat="43.10207867703228" lon="2.731672431169946"><ele>104.0</ele><time>2026-03-22T13:51:35Z</time></trkpt><trkpt lat="43.1019442773668" lon="2.731414210063993"><ele>104.0</ele><time>2026-03-22T13:51:36Z</time></trkpt><trkpt lat="43.101808442824115" lon="2.731158275683421"><ele>104.0</ele><time>2026-03-22T13:51:37Z</time></trkpt><trkpt lat="43.10168234047554" lon="2.7309185880594025"><ele>104.0</ele><time>2026-03-22T13:51:38Z</time></trkpt><trkpt lat="43.10156205912082" lon="2.730681900623038"><ele>104.0</ele><time>2026-03-22T13:51:39Z</time></trkpt><trkpt lat="43.10143855518318" lon="2.730450488555741"><ele>103.33333333333333</ele><time>2026-03-22T13:51:40Z</time></trkpt><trkpt lat="43.10131453022493" lon="2.7302227424559424"><ele>102.66666666666666</ele><time>2026-03-22T13:51:41Z</time></trkpt><trkpt lat="43.10120279250776" lon="2.729995824165098"><ele>102.0</ele><time>2026-03-22T13:51:42Z</time></trkpt><trkpt lat="43.10105891851937" lon="2.7297505956282966"><ele>102.0</ele><time>2026-03-22T13:51:43Z</time></trkpt><trkpt lat="43.10093775268207" lon="2.729520654106269"><ele>102.0</ele><time>2026-03-22T13:51:44Z</time></trkpt><trkpt lat="43.1008252913781" lon="2.7293085536861286"><ele>102.0</ele><time>2026-03-22T13:51:45Z</time></trkpt><trkpt lat="43.100703901111345" lon="2.7290707629869284"><ele>99.5</ele><time>2026-03-22T13:51:46Z</time></trkpt><trkpt lat="43.10057737841232" lon="2.728815945250158"><ele>97.0</ele><time>2026-03-22T13:51:47Z</time></trkpt><trkpt lat="43.10043919411575" lon="2.728557774732202"><ele>97.0</ele><time>2026-03-22T13:51:48Z</time></trkpt><trkpt lat="43.10029956766566" lon="2.7283003101672003"><ele>97.0</ele><time>2026-03-22T13:51:49Z</time></trkpt><trkpt lat="43.10017608005251" lon="2.7280622881851024"><ele>97.0</ele><time>2026-03-22T13:51:50Z</time></trkpt><trkpt lat="43.100053294614874" lon="2.7278208833814137"><ele>97.33333333333334</ele><time>2026-03-22T13:51:51Z</time></trkpt><trkpt lat="43.09993799919171" lon="2.727602103588253"><ele>97.66666666666666</ele><time>2026-03-22T13:51:52Z</time></trkpt><trkpt lat="43.09983383404769" lon="2.7274059171401492"><ele>98.0</ele><time>2026-03-22T13:51:53Z</time></trkpt><trkpt lat="43.09973141084311" lon="2.727207688543971"><ele>98.0</ele><time>2026-03-22T13:51:54Z</time></trkpt><trkpt lat="43.09963001442944" lon="2.7270167809658385"><ele>98.0</ele><time>2026-03-22T13:51:55Z</time></trkpt><trkpt lat="43.099529201424176" lon="2.7268266788748563"><ele>98.0</ele><time>2026-03-22T13:51:56Z</time></trkpt><trkpt lat="43.09943182339802" lon="2.7266407869670584"><ele>97.33333333333333</ele><time>2026-03-22T13:51:57Z</time></trkpt><trkpt lat="43.099341717016614" lon="2.726474257978177"><ele>96.66666666666666</ele><time>2026-03-22T13:51:58Z</time></trkpt><trkpt lat="43.09924843573301" lon="2.7263120526599876"><ele>96.0</ele><time>2026-03-22T13:51:59Z</time></trkpt><trkpt lat="43.09913586247697" lon="2.7261500040397753"><ele>98.0</ele><time>2026-03-22T13:52:00Z</time></trkpt><trkpt lat="43.09901016058012" lon="2.7260075934500496"><ele>100.0</ele><time>2026-03-22T13:52:01Z</time></trkpt><trkpt lat="43.09888354444967" lon="2.7258732192792015"><ele>102.0</ele><time>2026-03-22T13:52:02Z</time></trkpt><trkpt lat="43.098771197474804" lon="2.72575215913108"><ele>102.0</ele><time>2026-03-22T13:52:03Z</time></trkpt><trkpt lat="43.09866646903984" lon="2.725646884997214"><ele>102.0</ele><time>2026-03-22T13:52:04Z</time></trkpt><trkpt lat="43.09856110368903" lon="2.725575541798197"><ele>102.0</ele><time>2026-03-22T13:52:05Z</time></trkpt><trkpt lat="43.09845538301002" lon="2.725549808415396"><ele>102.0</ele><time>2026-03-22T13:52:06Z</time></trkpt><trkpt lat="43.098365074971866" lon="2.72556552081742"><ele>102.0</ele><time>2026-03-22T13:52:07Z</time></trkpt><trkpt lat="43.098243046900265" lon="2.7255995647960876"><ele>102.5</ele><time>2026-03-22T13:52:08Z</time></trkpt><trkpt lat="43.09811124198207" lon="2.725617284393382"><ele>103.0</ele><time>2026-03-22T13:52:09Z</time></trkpt><trkpt lat="43.097981946338706" lon="2.7255733082824816"><ele>103.5</ele><time>2026-03-22T13:52:10Z</time></trkpt><trkpt lat="43.097870041820464" lon="2.7254874385331274"><ele>104.0</ele><time>2026-03-22T13:52:11Z</time></trkpt><trkpt lat="43.0977565492044" lon="2.7253707482319154"><ele>103.66666666666666</ele><time>2026-03-22T13:52:12Z</time></trkpt><trkpt lat="43.09765567154595" lon="2.725223225540609"><ele>103.33333333333334</ele><time>2026-03-22T13:52:13Z</time></trkpt><trkpt lat="43.09758412119579" lon="2.7250432835413316"><ele>103.0</ele><time>2026-03-22T13:52:14Z</time></trkpt><trkpt lat="43.09753710527933" lon="2.7248341970390033"><ele>103.0</ele><time>2026-03-22T13:52:15Z</time></trkpt><trkpt lat="43.09749289776444" lon="2.724616370375149"><ele>103.0</ele><time>2026-03-22T13:52:16Z</time></trkpt><trkpt lat="43.09743960472691" lon="2.7243993042264476"><ele>103.0</ele><time>2026-03-22T13:52:17Z</time></trkpt><trkpt lat="43.097386301233904" lon="2.724183833790197"><ele>103.33333333333334</ele><time>2026-03-22T13:52:18Z</time></trkpt><trkpt lat="43.09732799420632" lon="2.72395708894742"><ele>103.66666666666666</ele><time>2026-03-22T13:52:19Z</time></trkpt><trkpt lat="43.097268060283916" lon="2.723720248205394"><ele>104.0</ele><time>2026-03-22T13:52:20Z</time></trkpt><trkpt lat="43.097206103078605" lon="2.723474791661019"><ele>103.33333333333333</ele><time>2026-03-22T13:52:21Z</time></trkpt><trkpt lat="43.09714448512473" lon="2.723221697536847"><ele>102.66666666666666</ele><time>2026-03-22T13:52:22Z</time></trkpt><trkpt lat="43.09707700138525" lon="2.7229693755931637"><ele>102.0</ele><time>2026-03-22T13:52:23Z</time></trkpt><trkpt lat="43.097008454366375" lon="2.7227168962167516"><ele>101.5</ele><time>2026-03-22T13:52:24Z</time></trkpt><trkpt lat="43.09690742796481" lon="2.7224488069413706"><ele>101.0</ele><time>2026-03-22T13:52:25Z</time></trkpt><trkpt lat="43.096789413340304" lon="2.7221298359960038"><ele>100.5</ele><time>2026-03-22T13:52:26Z</time></trkpt><trkpt lat="43.09666781434319" lon="2.7217854678088154"><ele>100.0</ele><time>2026-03-22T13:52:27Z</time></trkpt><trkpt lat="43.096560777534755" lon="2.7214888943355993"><ele>100.0</ele><time>2026-03-22T13:52:28Z</time></trkpt><trkpt lat="43.09645185696511" lon="2.721181570898992"><ele>100.0</ele><time>2026-03-22T13:52:29Z</time></trkpt><trkpt lat="43.09633459176128" lon="2.72085609812547"><ele>99.66666666666667</ele><time>2026-03-22T13:52:30Z</time></trkpt><trkpt lat="43.0962304429602" lon="2.7205734944247157"><ele>99.33333333333334</ele><time>2026-03-22T13:52:31Z</time></trkpt><trkpt lat="43.09614164752755" lon="2.720316078454617"><ele>99.0</ele><time>2026-03-22T13:52:32Z</time></trkpt><trkpt lat="43.09605699124019" lon="2.7200731602516175"><ele>99.0</ele><time>2026-03-22T13:52:33Z</time></trkpt><trkpt lat="43.0959717363651" lon="2.719814131695152"><ele>99.0</ele><time>2026-03-22T13:52:34Z</time></trkpt><trkpt lat="43.09588345400307" lon="2.7195659541784267"><ele>99.0</ele><time>2026-03-22T13:52:35Z</time></trkpt><trkpt lat="43.095791369855974" lon="2.7193170578285866"><ele>99.33333333333334</ele><time>2026-03-22T13:52:36Z</time></trkpt><trkpt lat="43.09569808528311" lon="2.719061917119068"><ele>99.66666666666667</ele><time>2026-03-22T13:52:37Z</time></trkpt><trkpt lat="43.095574699102194" lon="2.7187861590411626"><ele>100.0</ele><time>2026-03-22T13:52:38Z</time></trkpt><trkpt lat="43.09550394010126" lon="2.7185471806698316"><ele>100.0</ele><time>2026-03-22T13:52:39Z</time></trkpt><trkpt lat="43.095415524868464" lon="2.718291668183606"><ele>100.0</ele><time>2026-03-22T13:52:40Z</time></trkpt><trkpt lat="43.095313746723804" lon="2.7180150837494654"><ele>100.0</ele><time>2026-03-22T13:52:41Z</time></trkpt><trkpt lat="43.09521329483565" lon="2.7177285770790447"><ele>100.5</ele><time>2026-03-22T13:52:42Z</time></trkpt><trkpt lat="43.09511340447686" lon="2.717424162937165"><ele>101.0</ele><time>2026-03-22T13:52:43Z</time></trkpt><trkpt lat="43.095016293621036" lon="2.7171333758705254"><ele>100.66666666666666</ele><time>2026-03-22T13:52:44Z</time></trkpt><trkpt lat="43.09492264591206" lon="2.7168824763690953"><ele>100.33333333333334</ele><time>2026-03-22T13:52:45Z</time></trkpt><trkpt lat="43.09483553057765" lon="2.716649528796665"><ele>100.0</ele><time>2026-03-22T13:52:46Z</time></trkpt><trkpt lat="43.09474839426564" lon="2.716400071487207"><ele>101.0</ele><time>2026-03-22T13:52:47Z</time></trkpt><trkpt lat="43.09465955017087" lon="2.7161463224964724"><ele>102.0</ele><time>2026-03-22T13:52:48Z</time></trkpt><trkpt lat="43.09456905449978" lon="2.7158903708192916"><ele>103.0</ele><time>2026-03-22T13:52:49Z</time></trkpt><trkpt lat="43.0944775665681" lon="2.7156323805176807"><ele>103.0</ele><time>2026-03-22T13:52:50Z</time></trkpt><trkpt lat="43.094384024772786" lon="2.715364707584715"><ele>103.0</ele><time>2026-03-22T13:52:51Z</time></trkpt><trkpt lat="43.09428684143048" lon="2.7150951929542475"><ele>103.0</ele><time>2026-03-22T13:52:52Z</time></trkpt><trkpt lat="43.09418025940312" lon="2.7148061019731236"><ele>102.5</ele><time>2026-03-22T13:52:53Z</time></trkpt><trkpt lat="43.094077166192804" lon="2.7145170951657884"><ele>102.0</ele><time>2026-03-22T13:52:54Z</time></trkpt><trkpt lat="43.09397071416267" lon="2.7142275043764825"><ele>102.0</ele><time>2026-03-22T13:52:55Z</time></trkpt><trkpt lat="43.09386715555015" lon="2.71395386915127"><ele>102.0</ele><time>2026-03-22T13:52:56Z</time></trkpt><trkpt lat="43.09375431579056" lon="2.713687308359584"><ele>101.66666666666666</ele><time>2026-03-22T13:52:57Z</time></trkpt><trkpt lat="43.093648606544726" lon="2.7134382385184788"><ele>101.33333333333333</ele><time>2026-03-22T13:52:58Z</time></trkpt><trkpt lat="43.09354433034795" lon="2.7131942220857934"><ele>101.0</ele><time>2026-03-22T13:52:59Z</time></trkpt><trkpt lat="43.09344347719541" lon="2.7129525327713804"><ele>101.0</ele><time>2026-03-22T13:53:00Z</time></trkpt><trkpt lat="43.09333998542512" lon="2.7127060008401167"><ele>101.0</ele><time>2026-03-22T13:53:01Z</time></trkpt><trkpt lat="43.09323611022028" lon="2.712463874766927"><ele>101.0</ele><time>2026-03-22T13:53:02Z</time></trkpt><trkpt lat="43.09312155588933" lon="2.712185650816264"><ele>102.0</ele><time>2026-03-22T13:53:03Z</time></trkpt><trkpt lat="43.09301772621502" lon="2.7119394931891305"><ele>103.0</ele><time>2026-03-22T13:53:04Z</time></trkpt><trkpt lat="43.09292596873662" lon="2.7117226426839576"><ele>104.0</ele><time>2026-03-22T13:53:05Z</time></trkpt><trkpt lat="43.09283349739387" lon="2.711503686182179"><ele>104.0</ele><time>2026-03-22T13:53:06Z</time></trkpt><trkpt lat="43.09274679286149" lon="2.71128556929788"><ele>104.0</ele><time>2026-03-22T13:53:07Z</time></trkpt><trkpt lat="43.09266870585929" lon="2.7110894032357824"><ele>104.0</ele><time>2026-03-22T13:53:08Z</time></trkpt><trkpt lat="43.0925944718878" lon="2.7109085697057616"><ele>103.75</ele><time>2026-03-22T13:53:09Z</time></trkpt><trkpt lat="43.092523786272274" lon="2.7107373690750007"><ele>103.5</ele><time>2026-03-22T13:53:10Z</time></trkpt><trkpt lat="43.09244854164099" lon="2.7105591155402653"><ele>103.25</ele><time>2026-03-22T13:53:11Z</time></trkpt><trkpt lat="43.092376779059094" lon="2.710382364291147"><ele>103.0</ele><time>2026-03-22T13:53:12Z</time></trkpt><trkpt lat="43.09230696707251" lon="2.710218075838981"><ele>103.75</ele><time>2026-03-22T13:53:13Z</time></trkpt><trkpt lat="43.09223509981694" lon="2.710053357307238"><ele>104.5</ele><time>2026-03-22T13:53:14Z</time></trkpt><trkpt lat="43.09215669401834" lon="2.709889275761274"><ele>105.25</ele><time>2026-03-22T13:53:15Z</time></trkpt><trkpt lat="43.092074923171616" lon="2.7097259037834216"><ele>106.0</ele><time>2026-03-22T13:53:16Z</time></trkpt><trkpt lat="43.091981471488815" lon="2.7095630383479996"><ele>104.66666666666667</ele><time>2026-03-22T13:53:17Z</time></trkpt><trkpt lat="43.09187410770609" lon="2.709400409317364"><ele>103.33333333333334</ele><time>2026-03-22T13:53:18Z</time></trkpt><trkpt lat="43.09175605822536" lon="2.7092341076336903"><ele>102.0</ele><time>2026-03-22T13:53:19Z</time></trkpt><trkpt lat="43.09162954603827" lon="2.709072265246393"><ele>102.33333333333334</ele><time>2026-03-22T13:53:20Z</time></trkpt><trkpt lat="43.09149637162084" lon="2.708905704261304"><ele>102.66666666666667</ele><time>2026-03-22T13:53:21Z</time></trkpt><trkpt lat="43.091357895492244" lon="2.708733422862213"><ele>103.0</ele><time>2026-03-22T13:53:22Z</time></trkpt><trkpt lat="43.091220239199416" lon="2.708561152560021"><ele>103.0</ele><time>2026-03-22T13:53:23Z</time></trkpt><trkpt lat="43.091080677501395" lon="2.70838299673648"><ele>103.0</ele><time>2026-03-22T13:53:24Z</time></trkpt><trkpt lat="43.090941581423195" lon="2.7082042947534104"><ele>103.0</ele><time>2026-03-22T13:53:25Z</time></trkpt><trkpt lat="43.09080067914615" lon="2.708027895247812"><ele>103.33333333333334</ele><time>2026-03-22T13:53:26Z</time></trkpt><trkpt lat="43.09066320963349" lon="2.7078499747084215"><ele>103.66666666666666</ele><time>2026-03-22T13:53:27Z</time></trkpt><trkpt lat="43.090508008540006" lon="2.707653083278063"><ele>104.0</ele><time>2026-03-22T13:53:28Z</time></trkpt><trkpt lat="43.09033535348041" lon="2.707437619692789"><ele>104.0</ele><time>2026-03-22T13:53:29Z</time></trkpt><trkpt lat="43.09016692302881" lon="2.707244844669003"><ele>104.0</ele><time>2026-03-22T13:53:30Z</time></trkpt><trkpt lat="43.089992186232884" lon="2.707011578848152"><ele>104.33333333333333</ele><time>2026-03-22T13:53:31Z</time></trkpt><trkpt lat="43.089823539015555" lon="2.706795568133993"><ele>104.66666666666666</ele><time>2026-03-22T13:53:32Z</time></trkpt><trkpt lat="43.08966693948105" lon="2.7066025466422987"><ele>105.0</ele><time>2026-03-22T13:53:33Z</time></trkpt><trkpt lat="43.08952695987233" lon="2.706426557726755"><ele>105.0</ele><time>2026-03-22T13:53:34Z</time></trkpt><trkpt lat="43.089396711439434" lon="2.7062502804466684"><ele>105.0</ele><time>2026-03-22T13:53:35Z</time></trkpt><trkpt lat="43.08927112930094" lon="2.706111522718396"><ele>105.0</ele><time>2026-03-22T13:53:36Z</time></trkpt><trkpt lat="43.08916171738661" lon="2.705971700318596"><ele>105.0</ele><time>2026-03-22T13:53:37Z</time></trkpt><trkpt lat="43.08905941084617" lon="2.7058363547322712"><ele>105.0</ele><time>2026-03-22T13:53:38Z</time></trkpt><trkpt lat="43.088965733113156" lon="2.705716606524882"><ele>105.0</ele><time>2026-03-22T13:53:39Z</time></trkpt><trkpt lat="43.088878604092066" lon="2.7056032374260677"><ele>105.0</ele><time>2026-03-22T13:53:40Z</time></trkpt><trkpt lat="43.08879367694669" lon="2.705503171099536"><ele>105.0</ele><time>2026-03-22T13:53:41Z</time></trkpt><trkpt lat="43.08872116774877" lon="2.705404046286073"><ele>105.0</ele><time>2026-03-22T13:53:42Z</time></trkpt><trkpt lat="43.08865461660187" lon="2.7053084856278855"><ele>105.0</ele><time>2026-03-22T13:53:43Z</time></trkpt><trkpt lat="43.088580411681065" lon="2.7052026380224463"><ele>105.0</ele><time>2026-03-22T13:53:44Z</time></trkpt><trkpt lat="43.088522087791404" lon="2.7051531347031235"><ele>105.0</ele><time>2026-03-22T13:53:45Z</time></trkpt><trkpt lat="43.0884690389319" lon="2.7050829630518494"><ele>105.0</ele><time>2026-03-22T13:53:46Z</time></trkpt><trkpt lat="43.08842226053367" lon="2.705017802752344"><ele>105.4</ele><time>2026-03-22T13:53:47Z</time></trkpt><trkpt lat="43.08833230281423" lon="2.704910659233215"><ele>105.8</ele><time>2026-03-22T13:53:49Z</time></trkpt><trkpt lat="43.08826070346329" lon="2.7047971452306223"><ele>106.19999999999999</ele><time>2026-03-22T13:53:51Z</time></trkpt><trkpt lat="43.08821851341829" lon="2.704692804534227"><ele>106.6</ele><time>2026-03-22T13:53:53Z</time></trkpt><trkpt lat="43.08819309495529" lon="2.7046015173744027"><ele>107.0</ele><time>2026-03-22T13:53:55Z</time></trkpt><trkpt lat="43.08818283949397" lon="2.704490576382462"><ele>106.83333333333333</ele><time>2026-03-22T13:53:58Z</time></trkpt><trkpt lat="43.0881547273841" lon="2.704394093221468"><ele>106.66666666666666</ele><time>2026-03-22T13:54:01Z</time></trkpt><trkpt lat="43.088131936436206" lon="2.70429278119479"><ele>106.5</ele><time>2026-03-22T13:58:15Z</time></trkpt><trkpt lat="43.08806981374753" lon="2.7042467365717995"><ele>106.33333333333334</ele><time>2026-03-22T13:59:53Z</time></trkpt><trkpt lat="43.087999491555074" lon="2.7042923681429967"><ele>106.16666666666667</ele><time>2026-03-22T14:04:55Z</time></trkpt><trkpt lat="43.08793782721266" lon="2.7043566795761276"><ele>106.0</ele><time>2026-03-22T14:04:58Z</time></trkpt><trkpt lat="43.08783351827651" lon="2.70427724196157"><ele>106.00000000000001</ele><time>2026-03-22T14:05:07Z</time></trkpt><trkpt lat="43.08776470596375" lon="2.704183332166545"><ele>106.0</ele><time>2026-03-22T14:05:08Z</time></trkpt><trkpt lat="43.087708597976146" lon="2.704110436966007"><ele>106.0</ele><time>2026-03-22T14:05:09Z</time></trkpt><trkpt lat="43.08766028083166" lon="2.704051119306311"><ele>106.0</ele><time>2026-03-22T14:05:10Z</time></trkpt><trkpt lat="43.08760080922293" lon="2.70397489816279"><ele>106.00000000000001</ele><time>2026-03-22T14:05:11Z</time></trkpt><trkpt lat="43.08753748468419" lon="2.7038911996489663"><ele>106.0</ele><time>2026-03-22T14:05:12Z</time></trkpt><trkpt lat="43.08747150641999" lon="2.703804055477213"><ele>106.25</ele><time>2026-03-22T14:05:13Z</time></trkpt><trkpt lat="43.08739870619727" lon="2.703707120660955"><ele>106.5</ele><time>2026-03-22T14:05:14Z</time></trkpt><trkpt lat="43.087315394472604" lon="2.7035951333524375"><ele>106.75</ele><time>2026-03-22T14:05:15Z</time></trkpt><trkpt lat="43.08723237569179" lon="2.703488937459973"><ele>107.0</ele><time>2026-03-22T14:05:16Z</time></trkpt><trkpt lat="43.087140489539436" lon="2.703372055275383"><ele>107.0</ele><time>2026-03-22T14:05:17Z</time></trkpt><trkpt lat="43.0870476009604" lon="2.7032612535066534"><ele>107.0</ele><time>2026-03-22T14:05:18Z</time></trkpt><trkpt lat="43.08696319972376" lon="2.703154705469428"><ele>107.0</ele><time>2026-03-22T14:05:18.999Z</time></trkpt><trkpt lat="43.086873080298425" lon="2.7030504383949765"><ele>107.0</ele><time>2026-03-22T14:05:19.999Z</time></trkpt><trkpt lat="43.086796025717256" lon="2.7029489580909174"><ele>107.0</ele><time>2026-03-22T14:05:20.999Z</time></trkpt><trkpt lat="43.086712377975076" lon="2.702833921734904"><ele>107.0</ele><time>2026-03-22T14:05:21.999Z</time></trkpt><trkpt lat="43.08663043874637" lon="2.7027291807296425"><ele>107.0</ele><time>2026-03-22T14:05:22.999Z</time></trkpt><trkpt lat="43.08654701409147" lon="2.702628893739928"><ele>107.0</ele><time>2026-03-22T14:05:23.999Z</time></trkpt><trkpt lat="43.08646537201104" lon="2.7025236723869486"><ele>107.39999999999999</ele><time>2026-03-22T14:05:24.999Z</time></trkpt><trkpt lat="43.086369784359" lon="2.7024420451994837"><ele>107.79999999999998</ele><time>2026-03-22T14:05:25.999Z</time></trkpt><trkpt lat="43.0862846071042" lon="2.7023387878713554"><ele>108.2</ele><time>2026-03-22T14:05:26.999Z</time></trkpt><trkpt lat="43.086205605682984" lon="2.7022337972729726"><ele>108.6</ele><time>2026-03-22T14:05:27.999Z</time></trkpt><trkpt lat="43.086129660148664" lon="2.702121582804116"><ele>109.0</ele><time>2026-03-22T14:05:28.999Z</time></trkpt><trkpt lat="43.08605317838933" lon="2.7020185011088556"><ele>109.0</ele><time>2026-03-22T14:05:29.999Z</time></trkpt><trkpt lat="43.08597181963919" lon="2.7019155452967225"><ele>109.0</ele><time>2026-03-22T14:05:30.999Z</time></trkpt><trkpt lat="43.085893098212075" lon="2.701811801971821"><ele>109.0</ele><time>2026-03-22T14:05:31.999Z</time></trkpt><trkpt lat="43.085827408050356" lon="2.701725487281935"><ele>109.0</ele><time>2026-03-22T14:05:32.999Z</time></trkpt><trkpt lat="43.08575628978116" lon="2.701632459549435"><ele>109.0</ele><time>2026-03-22T14:05:33.999Z</time></trkpt><trkpt lat="43.08568822308162" lon="2.7015396481359635"><ele>109.2</ele><time>2026-03-22T14:05:34.999Z</time></trkpt><trkpt lat="43.08560727777031" lon="2.701443981578285"><ele>109.4</ele><time>2026-03-22T14:05:36Z</time></trkpt><trkpt lat="43.08553797120445" lon="2.701356329650952"><ele>109.6</ele><time>2026-03-22T14:05:37Z</time></trkpt><trkpt lat="43.08546666105646" lon="2.7012718878366426"><ele>109.8</ele><time>2026-03-22T14:05:38Z</time></trkpt><trkpt lat="43.08539476978302" lon="2.701176720898426"><ele>110.0</ele><time>2026-03-22T14:05:39Z</time></trkpt><trkpt lat="43.08532872326295" lon="2.701095841235836"><ele>109.66666666666666</ele><time>2026-03-22T14:05:40Z</time></trkpt><trkpt lat="43.085262025704345" lon="2.7010094842324834"><ele>109.33333333333333</ele><time>2026-03-22T14:05:41Z</time></trkpt><trkpt lat="43.08520272904805" lon="2.7009263218235473"><ele>109.0</ele><time>2026-03-22T14:05:42Z</time></trkpt><trkpt lat="43.08513832501916" lon="2.7008530791927083"><ele>108.66666666666666</ele><time>2026-03-22T14:05:43Z</time></trkpt><trkpt lat="43.0850750843775" lon="2.700763764303097"><ele>108.33333333333333</ele><time>2026-03-22T14:05:44Z</time></trkpt><trkpt lat="43.085013919636346" lon="2.700683480090349"><ele>108.0</ele><time>2026-03-22T14:05:45Z</time></trkpt><trkpt lat="43.08494359359317" lon="2.700594536686113"><ele>108.0</ele><time>2026-03-22T14:05:46Z</time></trkpt><trkpt lat="43.08487715397416" lon="2.70050213288282"><ele>108.0</ele><time>2026-03-22T14:05:47Z</time></trkpt><trkpt lat="43.084812776907505" lon="2.7004298937872395"><ele>108.0</ele><time>2026-03-22T14:05:48Z</time></trkpt><trkpt lat="43.0847571967183" lon="2.700356206316943"><ele>108.0</ele><time>2026-03-22T14:05:49Z</time></trkpt><trkpt lat="43.08471424474362" lon="2.7002806924695024"><ele>108.0</ele><time>2026-03-22T14:05:50Z</time></trkpt><trkpt lat="43.08469530796011" lon="2.70016950874176"><ele>108.0</ele><time>2026-03-22T14:05:51Z</time></trkpt><trkpt lat="43.084652597909" lon="2.7000735261170123"><ele>108.0</ele><time>2026-03-22T14:05:52Z</time></trkpt><trkpt lat="43.08462853989696" lon="2.699926572124986"><ele>108.00000000000001</ele><time>2026-03-22T14:05:53Z</time></trkpt><trkpt lat="43.08462535075337" lon="2.699757396622827"><ele>108.00000000000001</ele><time>2026-03-22T14:05:54Z</time></trkpt><trkpt lat="43.08460631688011" lon="2.699620258858193"><ele>108.0</ele><time>2026-03-22T14:05:55Z</time></trkpt><trkpt lat="43.08459579100202" lon="2.699498408006453"><ele>108.0</ele><time>2026-03-22T14:05:56Z</time></trkpt><trkpt lat="43.0845873074928" lon="2.699377568683108"><ele>108.0</ele><time>2026-03-22T14:05:57Z</time></trkpt><trkpt lat="43.08459253972322" lon="2.699251820277513"><ele>108.00000000000001</ele><time>2026-03-22T14:05:58Z</time></trkpt><trkpt lat="43.084593114666674" lon="2.6991092558457805"><ele>108.00000000000001</ele><time>2026-03-22T14:05:59Z</time></trkpt><trkpt lat="43.08459023474899" lon="2.698956428677266"><ele>108.0</ele><time>2026-03-22T14:06:00Z</time></trkpt><trkpt lat="43.08460335040653" lon="2.6987970887159176"><ele>108.0</ele><time>2026-03-22T14:06:01Z</time></trkpt><trkpt lat="43.08460934036714" lon="2.698659334408238"><ele>106.2</ele><time>2026-03-22T14:06:02Z</time></trkpt><trkpt lat="43.08462153580069" lon="2.6985200027876504"><ele>104.4</ele><time>2026-03-22T14:06:03Z</time></trkpt><trkpt lat="43.08463110348017" lon="2.698378861663632"><ele>102.60000000000001</ele><time>2026-03-22T14:06:04Z</time></trkpt><trkpt lat="43.08468549021406" lon="2.6982729411366777"><ele>100.80000000000001</ele><time>2026-03-22T14:06:05Z</time></trkpt><trkpt lat="43.08472978242409" lon="2.6981586653097516"><ele>99.0</ele><time>2026-03-22T14:06:06Z</time></trkpt><trkpt lat="43.08477296777431" lon="2.698021539785365"><ele>99.0</ele><time>2026-03-22T14:06:07Z</time></trkpt><trkpt lat="43.0848340565" lon="2.6978819367142797"><ele>99.0</ele><time>2026-03-22T14:06:08Z</time></trkpt><trkpt lat="43.08487950353273" lon="2.6977484295311527"><ele>99.0</ele><time>2026-03-22T14:06:09Z</time></trkpt><trkpt lat="43.084896235078546" lon="2.6976004890695044"><ele>99.0</ele><time>2026-03-22T14:06:10Z</time></trkpt><trkpt lat="43.08490948696138" lon="2.697432141248001"><ele>100.75</ele><time>2026-03-22T14:06:11Z</time></trkpt><trkpt lat="43.08493190186354" lon="2.6972598762907665"><ele>102.5</ele><time>2026-03-22T14:06:12Z</time></trkpt><trkpt lat="43.084967708363784" lon="2.697082210763082"><ele>104.25</ele><time>2026-03-22T14:06:13Z</time></trkpt><trkpt lat="43.084985843135065" lon="2.696910512269058"><ele>106.0</ele><time>2026-03-22T14:06:14Z</time></trkpt><trkpt lat="43.08499462586024" lon="2.69675590078225"><ele>105.8</ele><time>2026-03-22T14:06:15Z</time></trkpt><trkpt lat="43.085001685483505" lon="2.696607307811942"><ele>105.6</ele><time>2026-03-22T14:06:16Z</time></trkpt><trkpt lat="43.08499121110851" lon="2.6964782773622407"><ele>105.4</ele><time>2026-03-22T14:06:17Z</time></trkpt><trkpt lat="43.08496116739929" lon="2.696355592752169"><ele>105.2</ele><time>2026-03-22T14:06:18Z</time></trkpt><trkpt lat="43.08490939114244" lon="2.696228241346467"><ele>105.0</ele><time>2026-03-22T14:06:19Z</time></trkpt><trkpt lat="43.08482824156916" lon="2.696104564827266"><ele>107.5</ele><time>2026-03-22T14:06:20Z</time></trkpt><trkpt lat="43.08473013365076" lon="2.6959991700001065"><ele>110.0</ele><time>2026-03-22T14:06:21Z</time></trkpt><trkpt lat="43.08462865808635" lon="2.6959034024002886"><ele>112.5</ele><time>2026-03-22T14:06:22Z</time></trkpt><trkpt lat="43.0845331224375" lon="2.6958080997608156"><ele>115.0</ele><time>2026-03-22T14:06:23Z</time></trkpt><trkpt lat="43.08444044260694" lon="2.695733280566633"><ele>115.0</ele><time>2026-03-22T14:06:24Z</time></trkpt><trkpt lat="43.084343760030464" lon="2.6956446734092183"><ele>115.0</ele><time>2026-03-22T14:06:25Z</time></trkpt><trkpt lat="43.08425379317463" lon="2.6955489019801155"><ele>115.0</ele><time>2026-03-22T14:06:26Z</time></trkpt><trkpt lat="43.08416838977041" lon="2.6954770099295837"><ele>115.0</ele><time>2026-03-22T14:06:27Z</time></trkpt><trkpt lat="43.08410334761906" lon="2.6954238095866874"><ele>115.0</ele><time>2026-03-22T14:06:28Z</time></trkpt><trkpt lat="43.08404715075296" lon="2.695363761928957"><ele>114.50000000000001</ele><time>2026-03-22T14:06:29Z</time></trkpt><trkpt lat="43.08399392124068" lon="2.6953089166230684"><ele>114.0</ele><time>2026-03-22T14:06:30Z</time></trkpt><trkpt lat="43.08393903032172" lon="2.6952140867029324"><ele>113.5</ele><time>2026-03-22T14:06:32Z</time></trkpt><trkpt lat="43.0838941181637" lon="2.6951285622795482"><ele>113.0</ele><time>2026-03-22T14:06:34Z</time></trkpt><trkpt lat="43.08389899341918" lon="2.6949862193434146"><ele>112.50000000000001</ele><time>2026-03-22T14:06:36Z</time></trkpt><trkpt lat="43.08390672550623" lon="2.6948862376943397"><ele>112.0</ele><time>2026-03-22T14:06:37Z</time></trkpt><trkpt lat="43.08392228427444" lon="2.694766018419439"><ele>113.19999999999999</ele><time>2026-03-22T14:06:38Z</time></trkpt><trkpt lat="43.08393417854653" lon="2.6946356474812534"><ele>114.39999999999999</ele><time>2026-03-22T14:06:39Z</time></trkpt><trkpt lat="43.08394591414756" lon="2.694495481576212"><ele>115.60000000000001</ele><time>2026-03-22T14:06:40Z</time></trkpt><trkpt lat="43.08395736973857" lon="2.694340814728539"><ele>116.80000000000001</ele><time>2026-03-22T14:06:41Z</time></trkpt><trkpt lat="43.0839787832272" lon="2.6941819936364495"><ele>118.0</ele><time>2026-03-22T14:06:42Z</time></trkpt><trkpt lat="43.08399504307551" lon="2.6940230329484836"><ele>120.0</ele><time>2026-03-22T14:06:43Z</time></trkpt><trkpt lat="43.08399464420284" lon="2.693855181490756"><ele>122.0</ele><time>2026-03-22T14:06:44Z</time></trkpt><trkpt lat="43.0839807054458" lon="2.6936804530984118"><ele>124.0</ele><time>2026-03-22T14:06:45Z</time></trkpt><trkpt lat="43.0839379252504" lon="2.6934972295521056"><ele>126.0</ele><time>2026-03-22T14:06:46Z</time></trkpt><trkpt lat="43.08387471245966" lon="2.6933136809273672"><ele>127.33333333333334</ele><time>2026-03-22T14:06:47Z</time></trkpt><trkpt lat="43.08378085786273" lon="2.693100999061401"><ele>128.66666666666669</ele><time>2026-03-22T14:06:48Z</time></trkpt><trkpt lat="43.083698835791566" lon="2.6928767082857714"><ele>130.0</ele><time>2026-03-22T14:06:49Z</time></trkpt><trkpt lat="43.083617118240426" lon="2.6926692812614754"><ele>130.33333333333334</ele><time>2026-03-22T14:06:50Z</time></trkpt><trkpt lat="43.08353859338963" lon="2.6924612075611973"><ele>130.66666666666666</ele><time>2026-03-22T14:06:51Z</time></trkpt><trkpt lat="43.083463480298725" lon="2.6922528610089445"><ele>131.0</ele><time>2026-03-22T14:06:52Z</time></trkpt><trkpt lat="43.08338603341513" lon="2.6920534890820935"><ele>131.33333333333331</ele><time>2026-03-22T14:06:53Z</time></trkpt><trkpt lat="43.08329262770143" lon="2.6918675243218395"><ele>131.66666666666666</ele><time>2026-03-22T14:06:54Z</time></trkpt><trkpt lat="43.083175772248474" lon="2.691694944322231"><ele>132.0</ele><time>2026-03-22T14:06:55Z</time></trkpt><trkpt lat="43.08303942553368" lon="2.691533672184327"><ele>133.66666666666666</ele><time>2026-03-22T14:06:56Z</time></trkpt><trkpt lat="43.08289492386877" lon="2.6913882135955487"><ele>135.33333333333331</ele><time>2026-03-22T14:06:57Z</time></trkpt><trkpt lat="43.082743236292" lon="2.6912505389897823"><ele>137.0</ele><time>2026-03-22T14:06:58Z</time></trkpt><trkpt lat="43.0826114038125" lon="2.691092408708883"><ele>136.66666666666666</ele><time>2026-03-22T14:06:59Z</time></trkpt><trkpt lat="43.08249314405559" lon="2.6909024118555736"><ele>136.33333333333334</ele><time>2026-03-22T14:07:00Z</time></trkpt><trkpt lat="43.082389811823575" lon="2.690690211076568"><ele>136.0</ele><time>2026-03-22T14:07:01Z</time></trkpt><trkpt lat="43.08229561021604" lon="2.690462596376877"><ele>140.66666666666669</ele><time>2026-03-22T14:07:02Z</time></trkpt><trkpt lat="43.08220290756268" lon="2.690221166930356"><ele>145.33333333333334</ele><time>2026-03-22T14:07:03Z</time></trkpt><trkpt lat="43.082109760624725" lon="2.6899879993360734"><ele>150.0</ele><time>2026-03-22T14:07:04Z</time></trkpt><trkpt lat="43.08202278972187" lon="2.6897726515906726"><ele>150.0</ele><time>2026-03-22T14:07:05Z</time></trkpt><trkpt lat="43.08193529109933" lon="2.6895478050375505"><ele>150.0</ele><time>2026-03-22T14:07:06Z</time></trkpt><trkpt lat="43.081873499450246" lon="2.689357919247323"><ele>150.0</ele><time>2026-03-22T14:07:07Z</time></trkpt><trkpt lat="43.08181799558979" lon="2.6891529605830855"><ele>149.0</ele><time>2026-03-22T14:07:08Z</time></trkpt><trkpt lat="43.08176972742829" lon="2.6889466716340533"><ele>148.0</ele><time>2026-03-22T14:07:09Z</time></trkpt><trkpt lat="43.08172822993939" lon="2.6887316903307883"><ele>147.0</ele><time>2026-03-22T14:07:10Z</time></trkpt><trkpt lat="43.081701617752515" lon="2.6885203251661145"><ele>147.0</ele><time>2026-03-22T14:07:11Z</time></trkpt><trkpt lat="43.08169273714857" lon="2.688317087316034"><ele>147.0</ele><time>2026-03-22T14:07:12Z</time></trkpt><trkpt lat="43.08169269813933" lon="2.6881027151923096"><ele>147.0</ele><time>2026-03-22T14:07:13Z</time></trkpt><trkpt lat="43.08170151082203" lon="2.687881416723434"><ele>148.0</ele><time>2026-03-22T14:07:14Z</time></trkpt><trkpt lat="43.08172278269268" lon="2.6876601779224982"><ele>149.0</ele><time>2026-03-22T14:07:15Z</time></trkpt><trkpt lat="43.08175759208954" lon="2.6874424384942026"><ele>150.0</ele><time>2026-03-22T14:07:16Z</time></trkpt><trkpt lat="43.08180728505745" lon="2.6872316319314846"><ele>150.0</ele><time>2026-03-22T14:07:17Z</time></trkpt><trkpt lat="43.08187194564413" lon="2.6870194659900264"><ele>150.0</ele><time>2026-03-22T14:07:18Z</time></trkpt><trkpt lat="43.081938550357506" lon="2.6867958630759854"><ele>150.0</ele><time>2026-03-22T14:07:19Z</time></trkpt><trkpt lat="43.08199931561222" lon="2.6865685322044186"><ele>150.66666666666666</ele><time>2026-03-22T14:07:20Z</time></trkpt><trkpt lat="43.08204900522458" lon="2.686347162310716"><ele>151.33333333333331</ele><time>2026-03-22T14:07:21Z</time></trkpt><trkpt lat="43.08208969698861" lon="2.686129211614241"><ele>152.0</ele><time>2026-03-22T14:07:22Z</time></trkpt><trkpt lat="43.08211101446072" lon="2.6859050569015617"><ele>152.0</ele><time>2026-03-22T14:07:23Z</time></trkpt><trkpt lat="43.08211625473879" lon="2.6856745605447343"><ele>152.0</ele><time>2026-03-22T14:07:24Z</time></trkpt><trkpt lat="43.08210409755544" lon="2.685425793363396"><ele>152.0</ele><time>2026-03-22T14:07:24.999Z</time></trkpt><trkpt lat="43.0820860206008" lon="2.685162315952044"><ele>152.0</ele><time>2026-03-22T14:07:25.999Z</time></trkpt><trkpt lat="43.082061952814605" lon="2.684871250465894"><ele>152.0</ele><time>2026-03-22T14:07:26.999Z</time></trkpt><trkpt lat="43.08204005449587" lon="2.68456415881669"><ele>152.0</ele><time>2026-03-22T14:07:27.999Z</time></trkpt><trkpt lat="43.08202271050533" lon="2.6842798656826674"><ele>152.0</ele><time>2026-03-22T14:07:28.999Z</time></trkpt><trkpt lat="43.08200785665895" lon="2.684002154781382"><ele>152.0</ele><time>2026-03-22T14:07:29.999Z</time></trkpt><trkpt lat="43.08198910055843" lon="2.683752056028586"><ele>152.0</ele><time>2026-03-22T14:07:30.999Z</time></trkpt><trkpt lat="43.081970569915754" lon="2.6834924376960165"><ele>153.0</ele><time>2026-03-22T14:07:31.999Z</time></trkpt><trkpt lat="43.08195209612878" lon="2.683239955633357"><ele>154.0</ele><time>2026-03-22T14:07:32.999Z</time></trkpt><trkpt lat="43.081949476510324" lon="2.682986554561285"><ele>155.0</ele><time>2026-03-22T14:07:33.999Z</time></trkpt><trkpt lat="43.0819307424859" lon="2.68274725177744"><ele>155.0</ele><time>2026-03-22T14:07:34.999Z</time></trkpt><trkpt lat="43.08190250624923" lon="2.682533814367661"><ele>155.0</ele><time>2026-03-22T14:07:35.999Z</time></trkpt><trkpt lat="43.08185336759923" lon="2.682317508245641"><ele>155.0</ele><time>2026-03-22T14:07:36.999Z</time></trkpt><trkpt lat="43.081779904801664" lon="2.6820998851636912"><ele>155.33333333333331</ele><time>2026-03-22T14:07:37.999Z</time></trkpt><trkpt lat="43.08168422637348" lon="2.681861485564416"><ele>155.66666666666666</ele><time>2026-03-22T14:07:38.999Z</time></trkpt><trkpt lat="43.08157355614509" lon="2.681598243709012"><ele>156.0</ele><time>2026-03-22T14:07:39.999Z</time></trkpt><trkpt lat="43.08147374062904" lon="2.6813669615385707"><ele>157.0</ele><time>2026-03-22T14:07:40.999Z</time></trkpt><trkpt lat="43.081380125240884" lon="2.6811238242996986"><ele>158.0</ele><time>2026-03-22T14:07:42Z</time></trkpt><trkpt lat="43.08128173055936" lon="2.680864288751993"><ele>159.0</ele><time>2026-03-22T14:07:43Z</time></trkpt><trkpt lat="43.08117352305922" lon="2.680580981723164"><ele>159.0</ele><time>2026-03-22T14:07:44Z</time></trkpt><trkpt lat="43.08106193425634" lon="2.6802982628742376"><ele>159.0</ele><time>2026-03-22T14:07:45Z</time></trkpt><trkpt lat="43.08096279454864" lon="2.6800383274166313"><ele>159.0</ele><time>2026-03-22T14:07:46Z</time></trkpt><trkpt lat="43.08086788738674" lon="2.6797936304046135"><ele>158.33333333333334</ele><time>2026-03-22T14:07:47Z</time></trkpt><trkpt lat="43.080771374880165" lon="2.6795492786342257"><ele>157.66666666666669</ele><time>2026-03-22T14:07:48Z</time></trkpt><trkpt lat="43.080676809730214" lon="2.679302456058391"><ele>157.0</ele><time>2026-03-22T14:07:49Z</time></trkpt><trkpt lat="43.08058439662276" lon="2.6790600450025184"><ele>158.33333333333334</ele><time>2026-03-22T14:07:50Z</time></trkpt><trkpt lat="43.08048994928297" lon="2.67881914735405"><ele>159.66666666666666</ele><time>2026-03-22T14:07:51Z</time></trkpt><trkpt lat="43.08038884035251" lon="2.678573501617932"><ele>161.0</ele><time>2026-03-22T14:07:52Z</time></trkpt><trkpt lat="43.080289954833795" lon="2.6783233593545606"><ele>161.0</ele><time>2026-03-22T14:07:53Z</time></trkpt><trkpt lat="43.08019371219453" lon="2.6780744934556826"><ele>161.0</ele><time>2026-03-22T14:07:54Z</time></trkpt><trkpt lat="43.080103050146995" lon="2.677844786380959"><ele>161.0</ele><time>2026-03-22T14:07:55Z</time></trkpt><trkpt lat="43.080012489039184" lon="2.6776127122341595"><ele>162.33333333333331</ele><time>2026-03-22T14:07:56Z</time></trkpt><trkpt lat="43.07992769067689" lon="2.677387619147242"><ele>163.66666666666666</ele><time>2026-03-22T14:07:57Z</time></trkpt><trkpt lat="43.07984887663202" lon="2.6771861706141213"><ele>165.0</ele><time>2026-03-22T14:07:58Z</time></trkpt><trkpt lat="43.07977696195745" lon="2.6770024130994665"><ele>164.75</ele><time>2026-03-22T14:07:59Z</time></trkpt><trkpt lat="43.079712686568904" lon="2.6768120664566433"><ele>164.5</ele><time>2026-03-22T14:08:00Z</time></trkpt><trkpt lat="43.0796699348953" lon="2.6766166603991643"><ele>164.25</ele><time>2026-03-22T14:08:01Z</time></trkpt><trkpt lat="43.07965726269056" lon="2.676421770440108"><ele>164.0</ele><time>2026-03-22T14:08:02Z</time></trkpt><trkpt lat="43.07967009724099" lon="2.676210299478903"><ele>163.0</ele><time>2026-03-22T14:08:03Z</time></trkpt><trkpt lat="43.07970302635262" lon="2.6759825958385783"><ele>162.0</ele><time>2026-03-22T14:08:04Z</time></trkpt><trkpt lat="43.07975217776552" lon="2.675748414246378"><ele>161.0</ele><time>2026-03-22T14:08:05Z</time></trkpt><trkpt lat="43.07980713076609" lon="2.675522869102772"><ele>161.0</ele><time>2026-03-22T14:08:06Z</time></trkpt><trkpt lat="43.07986543746066" lon="2.675308831487956"><ele>161.0</ele><time>2026-03-22T14:08:07Z</time></trkpt><trkpt lat="43.07993226822512" lon="2.6750842020676244"><ele>161.0</ele><time>2026-03-22T14:08:08Z</time></trkpt><trkpt lat="43.080002862586994" lon="2.674856671883845"><ele>158.33333333333331</ele><time>2026-03-22T14:08:09Z</time></trkpt><trkpt lat="43.08007519559119" lon="2.674635696831338"><ele>155.66666666666666</ele><time>2026-03-22T14:08:10Z</time></trkpt><trkpt lat="43.08013849382674" lon="2.6744203588813087"><ele>153.0</ele><time>2026-03-22T14:08:11Z</time></trkpt><trkpt lat="43.08019929326193" lon="2.6742141436129443"><ele>152.75</ele><time>2026-03-22T14:08:12Z</time></trkpt><trkpt lat="43.080255946975754" lon="2.674025477442326"><ele>152.5</ele><time>2026-03-22T14:08:13Z</time></trkpt><trkpt lat="43.08030637977443" lon="2.673852082244922"><ele>152.25</ele><time>2026-03-22T14:08:14Z</time></trkpt><trkpt lat="43.080354622848525" lon="2.673688621145226"><ele>152.0</ele><time>2026-03-22T14:08:15Z</time></trkpt><trkpt lat="43.080410812750756" lon="2.6735117596540316"><ele>152.5</ele><time>2026-03-22T14:08:16Z</time></trkpt><trkpt lat="43.08047375660556" lon="2.6733354928897666"><ele>153.0</ele><time>2026-03-22T14:08:17Z</time></trkpt><trkpt lat="43.080561182073964" lon="2.673174828584726"><ele>153.5</ele><time>2026-03-22T14:08:18Z</time></trkpt><trkpt lat="43.080668787892556" lon="2.673028313991751"><ele>154.0</ele><time>2026-03-22T14:08:19Z</time></trkpt><trkpt lat="43.08077992276904" lon="2.6729288757367624"><ele>152.5</ele><time>2026-03-22T14:08:20Z</time></trkpt><trkpt lat="43.08091041191858" lon="2.6728544188995618"><ele>151.0</ele><time>2026-03-22T14:08:21Z</time></trkpt><trkpt lat="43.0810507398647" lon="2.672789722189843"><ele>149.5</ele><time>2026-03-22T14:08:22Z</time></trkpt><trkpt lat="43.081183362561205" lon="2.6727429505173124"><ele>148.0</ele><time>2026-03-22T14:08:23Z</time></trkpt><trkpt lat="43.08129842499647" lon="2.672677851238342"><ele>148.0</ele><time>2026-03-22T14:08:24Z</time></trkpt><trkpt lat="43.08143041592184" lon="2.672586749887355"><ele>148.0</ele><time>2026-03-22T14:08:25Z</time></trkpt><trkpt lat="43.08151931684967" lon="2.672462993325736"><ele>148.0</ele><time>2026-03-22T14:08:26Z</time></trkpt><trkpt lat="43.0815967196579" lon="2.6723362473852976"><ele>148.0</ele><time>2026-03-22T14:08:27Z</time></trkpt><trkpt lat="43.08168852553325" lon="2.6721616285284697"><ele>147.5</ele><time>2026-03-22T14:08:28Z</time></trkpt><trkpt lat="43.08175838773334" lon="2.671982050051015"><ele>147.0</ele><time>2026-03-22T14:08:29Z</time></trkpt><trkpt lat="43.081819208351966" lon="2.671803633999741"><ele>146.5</ele><time>2026-03-22T14:08:30Z</time></trkpt><trkpt lat="43.0818558465815" lon="2.6715976782626156"><ele>146.0</ele><time>2026-03-22T14:08:31Z</time></trkpt><trkpt lat="43.08189713565837" lon="2.6713423403602796"><ele>146.0</ele><time>2026-03-22T14:08:32Z</time></trkpt><trkpt lat="43.08192878102088" lon="2.6711200310786127"><ele>146.0</ele><time>2026-03-22T14:08:33Z</time></trkpt><trkpt lat="43.08196028696901" lon="2.670911969885852"><ele>146.0</ele><time>2026-03-22T14:08:34Z</time></trkpt><trkpt lat="43.08198527963084" lon="2.6707230897847496"><ele>145.25</ele><time>2026-03-22T14:08:35Z</time></trkpt><trkpt lat="43.0820020486066" lon="2.6705394398910527"><ele>144.5</ele><time>2026-03-22T14:08:36Z</time></trkpt><trkpt lat="43.08200525217291" lon="2.6703649202547277"><ele>143.75</ele><time>2026-03-22T14:08:37Z</time></trkpt><trkpt lat="43.081987759038036" lon="2.6702102299640877"><ele>143.0</ele><time>2026-03-22T14:08:38Z</time></trkpt><trkpt lat="43.08194794569274" lon="2.670081297666245"><ele>143.0</ele><time>2026-03-22T14:08:39Z</time></trkpt><trkpt lat="43.081885940919705" lon="2.669981382340421"><ele>143.0</ele><time>2026-03-22T14:08:40Z</time></trkpt><trkpt lat="43.081778755076584" lon="2.669904998443474"><ele>143.0</ele><time>2026-03-22T14:08:41Z</time></trkpt><trkpt lat="43.081660436568605" lon="2.6698279344639704"><ele>143.0</ele><time>2026-03-22T14:08:42Z</time></trkpt><trkpt lat="43.081559672246264" lon="2.6697713364813187"><ele>143.0</ele><time>2026-03-22T14:08:43Z</time></trkpt><trkpt lat="43.081466744784436" lon="2.6696972894946773"><ele>143.0</ele><time>2026-03-22T14:08:44Z</time></trkpt><trkpt lat="43.08137841566934" lon="2.6695867429452496"><ele>143.0</ele><time>2026-03-22T14:08:45Z</time></trkpt><trkpt lat="43.08131983353262" lon="2.6694481255651237"><ele>143.0</ele><time>2026-03-22T14:08:46Z</time></trkpt><trkpt lat="43.08127516803929" lon="2.6692760809230305"><ele>142.25</ele><time>2026-03-22T14:08:47Z</time></trkpt><trkpt lat="43.081262336097744" lon="2.6690993341643257"><ele>141.5</ele><time>2026-03-22T14:08:48Z</time></trkpt><trkpt lat="43.081259760279" lon="2.668917307991537"><ele>140.75</ele><time>2026-03-22T14:08:49Z</time></trkpt><trkpt lat="43.08125537956463" lon="2.6687357809129177"><ele>140.0</ele><time>2026-03-22T14:08:50Z</time></trkpt><trkpt lat="43.081245853783756" lon="2.668553916426687"><ele>139.75</ele><time>2026-03-22T14:08:51Z</time></trkpt><trkpt lat="43.08123809611133" lon="2.6683808362059156"><ele>139.5</ele><time>2026-03-22T14:08:52Z</time></trkpt><trkpt lat="43.0812261804469" lon="2.6682130332338785"><ele>139.25</ele><time>2026-03-22T14:08:53Z</time></trkpt><trkpt lat="43.08121604174936" lon="2.6680573478573697"><ele>139.0</ele><time>2026-03-22T14:08:54Z</time></trkpt><trkpt lat="43.08120410850539" lon="2.6678948922284405"><ele>138.75</ele><time>2026-03-22T14:08:55Z</time></trkpt><trkpt lat="43.08119147739159" lon="2.667723958109558"><ele>138.5</ele><time>2026-03-22T14:08:56Z</time></trkpt><trkpt lat="43.08118235122662" lon="2.667572224853795"><ele>138.25</ele><time>2026-03-22T14:08:57Z</time></trkpt><trkpt lat="43.08117494403444" lon="2.6674189717285124"><ele>138.0</ele><time>2026-03-22T14:08:58Z</time></trkpt><trkpt lat="43.08116445648858" lon="2.667262385452382"><ele>138.0</ele><time>2026-03-22T14:08:59Z</time></trkpt><trkpt lat="43.08115440289832" lon="2.6671043197432307"><ele>138.0</ele><time>2026-03-22T14:09:00Z</time></trkpt><trkpt lat="43.081148486526665" lon="2.6669574489297676"><ele>138.0</ele><time>2026-03-22T14:09:01Z</time></trkpt><trkpt lat="43.081139494093065" lon="2.6668073771929217"><ele>138.0</ele><time>2026-03-22T14:09:02Z</time></trkpt><trkpt lat="43.08112998545226" lon="2.6666652137417555"><ele>138.0</ele><time>2026-03-22T14:09:03Z</time></trkpt><trkpt lat="43.081121308603244" lon="2.6665280911158655"><ele>138.20000000000002</ele><time>2026-03-22T14:09:04Z</time></trkpt><trkpt lat="43.08111066586968" lon="2.6663759145799095"><ele>138.4</ele><time>2026-03-22T14:09:05Z</time></trkpt><trkpt lat="43.081104227448606" lon="2.6662440729438033"><ele>138.60000000000002</ele><time>2026-03-22T14:09:06Z</time></trkpt><trkpt lat="43.081095857347776" lon="2.6661271779091584"><ele>138.8</ele><time>2026-03-22T14:09:07Z</time></trkpt><trkpt lat="43.081086708922214" lon="2.665965233647198"><ele>139.0</ele><time>2026-03-22T14:09:09Z</time></trkpt><trkpt lat="43.081084457959584" lon="2.665803008469182"><ele>139.0</ele><time>2026-03-22T14:09:11Z</time></trkpt><trkpt lat="43.08109323593447" lon="2.665706931717537"><ele>139.0</ele><time>2026-03-22T14:09:13Z</time></trkpt><trkpt lat="43.08108239385508" lon="2.6656206150401274"><ele>139.0</ele><time>2026-03-22T14:09:21Z</time></trkpt><trkpt lat="43.081052719361985" lon="2.6655300855991992"><ele>139.0</ele><time>2026-03-22T14:09:52Z</time></trkpt><trkpt lat="43.08105402845089" lon="2.665430205616657"><ele>139.0</ele><time>2026-03-22T14:09:56Z</time></trkpt><trkpt lat="43.08104227275538" lon="2.665243727953957"><ele>139.0</ele><time>2026-03-22T14:09:58Z</time></trkpt><trkpt lat="43.081033878070386" lon="2.665103208315751"><ele>139.0</ele><time>2026-03-22T14:10:00Z</time></trkpt><trkpt lat="43.08102931926722" lon="2.664976440845273"><ele>139.0</ele><time>2026-03-22T14:10:02Z</time></trkpt><trkpt lat="43.081029608855324" lon="2.664878445249126"><ele>139.0</ele><time>2026-03-22T14:10:04Z</time></trkpt><trkpt lat="43.0810239940524" lon="2.66479140404377"><ele>139.0</ele><time>2026-03-22T14:10:06Z</time></trkpt><trkpt lat="43.081024240019445" lon="2.6646934197707655"><ele>139.0</ele><time>2026-03-22T14:10:09Z</time></trkpt><trkpt lat="43.081018444481614" lon="2.664571744637914"><ele>139.0</ele><time>2026-03-22T14:10:13Z</time></trkpt><trkpt lat="43.08100961202348" lon="2.6643872354357296"><ele>138.83333333333334</ele><time>2026-03-22T14:10:15Z</time></trkpt><trkpt lat="43.080999284106525" lon="2.6642622311548325"><ele>138.66666666666669</ele><time>2026-03-22T14:10:16Z</time></trkpt><trkpt lat="43.08100054770897" lon="2.664159532864205"><ele>138.5</ele><time>2026-03-22T14:10:17Z</time></trkpt><trkpt lat="43.08098975882415" lon="2.664071343909881"><ele>138.33333333333334</ele><time>2026-03-22T14:10:18Z</time></trkpt><trkpt lat="43.08097601812619" lon="2.663974560878806"><ele>138.16666666666666</ele><time>2026-03-22T14:10:19Z</time></trkpt><trkpt lat="43.080958652551274" lon="2.663828668007492"><ele>138.0</ele><time>2026-03-22T14:10:21Z</time></trkpt><trkpt lat="43.08094857052147" lon="2.663682547918675"><ele>138.0</ele><time>2026-03-22T14:10:23Z</time></trkpt><trkpt lat="43.0809344109386" lon="2.6635320751460623"><ele>138.0</ele><time>2026-03-22T14:10:25Z</time></trkpt><trkpt lat="43.080912338180056" lon="2.663350553646047"><ele>138.0</ele><time>2026-03-22T14:10:27Z</time></trkpt><trkpt lat="43.08089440205037" lon="2.6632419025099017"><ele>138.0</ele><time>2026-03-22T14:10:28Z</time></trkpt><trkpt lat="43.080866360553834" lon="2.6631145898353195"><ele>138.0</ele><time>2026-03-22T14:10:29Z</time></trkpt><trkpt lat="43.08084520789444" lon="2.6629998087787645"><ele>138.0</ele><time>2026-03-22T14:10:30Z</time></trkpt><trkpt lat="43.08082237593428" lon="2.6628804109990063"><ele>138.0</ele><time>2026-03-22T14:10:31Z</time></trkpt><trkpt lat="43.080802657805684" lon="2.66275856828519"><ele>138.0</ele><time>2026-03-22T14:10:32Z</time></trkpt><trkpt lat="43.08078135514484" lon="2.6626328143679743"><ele>138.0</ele><time>2026-03-22T14:10:33Z</time></trkpt><trkpt lat="43.08076702814859" lon="2.6624957269488805"><ele>138.0</ele><time>2026-03-22T14:10:34Z</time></trkpt><trkpt lat="43.08074679526837" lon="2.6623383290465084"><ele>139.0</ele><time>2026-03-22T14:10:35Z</time></trkpt><trkpt lat="43.080720187418976" lon="2.6621577995337087"><ele>140.0</ele><time>2026-03-22T14:10:36Z</time></trkpt><trkpt lat="43.08067821103526" lon="2.6619121748065524"><ele>141.0</ele><time>2026-03-22T14:10:37Z</time></trkpt><trkpt lat="43.080635754775976" lon="2.6616326410192257"><ele>141.0</ele><time>2026-03-22T14:10:38Z</time></trkpt><trkpt lat="43.08058526849557" lon="2.6613066542712622"><ele>141.0</ele><time>2026-03-22T14:10:39Z</time></trkpt><trkpt lat="43.080537386026414" lon="2.6609681427801375"><ele>141.0</ele><time>2026-03-22T14:10:40Z</time></trkpt><trkpt lat="43.08048300228201" lon="2.660643961968979"><ele>141.0</ele><time>2026-03-22T14:10:41Z</time></trkpt><trkpt lat="43.0804285322365" lon="2.660301175152445"><ele>141.5</ele><time>2026-03-22T14:10:42Z</time></trkpt><trkpt lat="43.08037768162038" lon="2.659936672814812"><ele>142.0</ele><time>2026-03-22T14:10:43Z</time></trkpt><trkpt lat="43.08033458329905" lon="2.659629591202816"><ele>142.33333333333334</ele><time>2026-03-22T14:10:44Z</time></trkpt><trkpt lat="43.08029483738833" lon="2.6593708765363404"><ele>142.66666666666666</ele><time>2026-03-22T14:10:45Z</time></trkpt><trkpt lat="43.080249101773056" lon="2.659112928942615"><ele>143.0</ele><time>2026-03-22T14:10:46Z</time></trkpt><trkpt lat="43.080207544943896" lon="2.658871414816354"><ele>143.0</ele><time>2026-03-22T14:10:47Z</time></trkpt><trkpt lat="43.080174765771865" lon="2.6586427388498626"><ele>143.0</ele><time>2026-03-22T14:10:48Z</time></trkpt><trkpt lat="43.080130029185106" lon="2.6583976114310794"><ele>143.0</ele><time>2026-03-22T14:10:49Z</time></trkpt><trkpt lat="43.080087287264995" lon="2.6581360353444574"><ele>143.0</ele><time>2026-03-22T14:10:50Z</time></trkpt><trkpt lat="43.08003641899586" lon="2.6578328825307493"><ele>143.0</ele><time>2026-03-22T14:10:51Z</time></trkpt><trkpt lat="43.079990581942404" lon="2.6575095099739974"><ele>144.5</ele><time>2026-03-22T14:10:52Z</time></trkpt><trkpt lat="43.07992991426451" lon="2.657157869544478"><ele>146.0</ele><time>2026-03-22T14:10:53Z</time></trkpt><trkpt lat="43.07985788016654" lon="2.6567911851276076"><ele>146.5</ele><time>2026-03-22T14:10:54Z</time></trkpt><trkpt lat="43.07980033031141" lon="2.6564265948598167"><ele>147.0</ele><time>2026-03-22T14:10:55Z</time></trkpt><trkpt lat="43.07975300436795" lon="2.656101003321299"><ele>147.33333333333334</ele><time>2026-03-22T14:10:56Z</time></trkpt><trkpt lat="43.079709611844535" lon="2.655802013842553"><ele>147.66666666666669</ele><time>2026-03-22T14:10:57Z</time></trkpt><trkpt lat="43.07964791889528" lon="2.655505264582705"><ele>148.0</ele><time>2026-03-22T14:10:58Z</time></trkpt><trkpt lat="43.079605970266286" lon="2.6551728644334074"><ele>146.5</ele><time>2026-03-22T14:10:59Z</time></trkpt><trkpt lat="43.07955197162104" lon="2.6548103004476666"><ele>145.0</ele><time>2026-03-22T14:11:00Z</time></trkpt><trkpt lat="43.0794866309047" lon="2.654444188075265"><ele>145.0</ele><time>2026-03-22T14:11:01Z</time></trkpt><trkpt lat="43.07944407265823" lon="2.6540814308249314"><ele>145.0</ele><time>2026-03-22T14:11:02Z</time></trkpt><trkpt lat="43.07939876486367" lon="2.653775400511969"><ele>145.66666666666669</ele><time>2026-03-22T14:11:03Z</time></trkpt><trkpt lat="43.07935399143955" lon="2.6534817334191327"><ele>146.33333333333334</ele><time>2026-03-22T14:11:04Z</time></trkpt><trkpt lat="43.079314056849604" lon="2.653216397877112"><ele>147.0</ele><time>2026-03-22T14:11:05Z</time></trkpt><trkpt lat="43.079272829799116" lon="2.6529444386966583"><ele>147.33333333333334</ele><time>2026-03-22T14:11:06Z</time></trkpt><trkpt lat="43.07922439021691" lon="2.6526803629372835"><ele>147.66666666666669</ele><time>2026-03-22T14:11:07Z</time></trkpt><trkpt lat="43.079180274522294" lon="2.6524185324509695"><ele>148.0</ele><time>2026-03-22T14:11:08Z</time></trkpt><trkpt lat="43.07914003152077" lon="2.6521464190629516"><ele>148.66666666666669</ele><time>2026-03-22T14:11:09Z</time></trkpt><trkpt lat="43.079103149247594" lon="2.651858877914616"><ele>149.33333333333334</ele><time>2026-03-22T14:11:10Z</time></trkpt><trkpt lat="43.079056283290434" lon="2.6515774630113635"><ele>150.0</ele><time>2026-03-22T14:11:11Z</time></trkpt><trkpt lat="43.07901302582852" lon="2.651320944612183"><ele>149.0</ele><time>2026-03-22T14:11:12Z</time></trkpt><trkpt lat="43.0789671565313" lon="2.6510623614205375"><ele>148.0</ele><time>2026-03-22T14:11:13Z</time></trkpt><trkpt lat="43.07892251662113" lon="2.6507768239047156"><ele>147.0</ele><time>2026-03-22T14:11:14Z</time></trkpt><trkpt lat="43.07886821549418" lon="2.6504580414070325"><ele>148.5</ele><time>2026-03-22T14:11:15Z</time></trkpt><trkpt lat="43.078790251266376" lon="2.6501591231155275"><ele>150.0</ele><time>2026-03-22T14:11:16Z</time></trkpt><trkpt lat="43.078746701860354" lon="2.649796377019363"><ele>151.0</ele><time>2026-03-22T14:11:17Z</time></trkpt><trkpt lat="43.07869468430575" lon="2.649434522400335"><ele>152.0</ele><time>2026-03-22T14:11:18Z</time></trkpt><trkpt lat="43.0786365257057" lon="2.649056749052385"><ele>152.0</ele><time>2026-03-22T14:11:19Z</time></trkpt><trkpt lat="43.07857911805711" lon="2.6487006899093095"><ele>152.0</ele><time>2026-03-22T14:11:20Z</time></trkpt><trkpt lat="43.07852212642226" lon="2.648354553911295"><ele>152.0</ele><time>2026-03-22T14:11:21Z</time></trkpt><trkpt lat="43.07847683023637" lon="2.6480010453148966"><ele>152.0</ele><time>2026-03-22T14:11:22Z</time></trkpt><trkpt lat="43.078428413331" lon="2.647710158530701"><ele>151.33333333333331</ele><time>2026-03-22T14:11:23Z</time></trkpt><trkpt lat="43.078378594512856" lon="2.6474322589913166"><ele>150.66666666666666</ele><time>2026-03-22T14:11:24Z</time></trkpt><trkpt lat="43.078341414072234" lon="2.647172083149207"><ele>150.0</ele><time>2026-03-22T14:11:25Z</time></trkpt><trkpt lat="43.078313332728115" lon="2.646912676229334"><ele>150.0</ele><time>2026-03-22T14:11:26Z</time></trkpt><trkpt lat="43.078277789758204" lon="2.6466811507047923"><ele>150.0</ele><time>2026-03-22T14:11:27Z</time></trkpt><trkpt lat="43.07822821180088" lon="2.6464225547737064"><ele>150.0</ele><time>2026-03-22T14:11:28Z</time></trkpt><trkpt lat="43.078189947349784" lon="2.6461474324797463"><ele>151.33333333333334</ele><time>2026-03-22T14:11:29Z</time></trkpt><trkpt lat="43.07816431529961" lon="2.6458722309543665"><ele>152.66666666666669</ele><time>2026-03-22T14:11:29.999Z</time></trkpt><trkpt lat="43.07811439625654" lon="2.6456036514473436"><ele>154.0</ele><time>2026-03-22T14:11:30.999Z</time></trkpt><trkpt lat="43.07807131339814" lon="2.645356534874724"><ele>154.0</ele><time>2026-03-22T14:11:31.999Z</time></trkpt><trkpt lat="43.07802926576854" lon="2.6450920129848656"><ele>154.0</ele><time>2026-03-22T14:11:32.999Z</time></trkpt><trkpt lat="43.07798548528019" lon="2.644821628459508"><ele>154.0</ele><time>2026-03-22T14:11:33.999Z</time></trkpt><trkpt lat="43.077914644729645" lon="2.6445658553268094"><ele>153.33333333333334</ele><time>2026-03-22T14:11:34.999Z</time></trkpt><trkpt lat="43.07780830124514" lon="2.644322605788202"><ele>152.66666666666666</ele><time>2026-03-22T14:11:35.999Z</time></trkpt><trkpt lat="43.07768934780219" lon="2.6440617699619904"><ele>152.0</ele><time>2026-03-22T14:11:36.999Z</time></trkpt><trkpt lat="43.07754590974022" lon="2.6437896983451874"><ele>153.5</ele><time>2026-03-22T14:11:37.999Z</time></trkpt><trkpt lat="43.0774000104364" lon="2.6435071256304834"><ele>155.0</ele><time>2026-03-22T14:11:38.999Z</time></trkpt><trkpt lat="43.07727898624249" lon="2.6432604082977407"><ele>155.0</ele><time>2026-03-22T14:11:39.999Z</time></trkpt><trkpt lat="43.07714986583621" lon="2.6430175990431355"><ele>155.0</ele><time>2026-03-22T14:11:40.999Z</time></trkpt><trkpt lat="43.07702292272177" lon="2.6427516022185213"><ele>155.33333333333331</ele><time>2026-03-22T14:11:41.999Z</time></trkpt><trkpt lat="43.076896443134245" lon="2.642492776880353"><ele>155.66666666666666</ele><time>2026-03-22T14:11:42.999Z</time></trkpt><trkpt lat="43.07678986981297" lon="2.6422601446301774"><ele>156.0</ele><time>2026-03-22T14:11:43.999Z</time></trkpt><trkpt lat="43.07668485860372" lon="2.642046279980123"><ele>156.0</ele><time>2026-03-22T14:11:44.999Z</time></trkpt><trkpt lat="43.07658405681459" lon="2.641817835825024"><ele>156.0</ele><time>2026-03-22T14:11:45.999Z</time></trkpt><trkpt lat="43.07648328747337" lon="2.6415661231777157"><ele>156.0</ele><time>2026-03-22T14:11:46.999Z</time></trkpt><trkpt lat="43.076387060358904" lon="2.6412711933850788"><ele>156.5</ele><time>2026-03-22T14:11:47.999Z</time></trkpt><trkpt lat="43.07629765166649" lon="2.6409656157637795"><ele>157.0</ele><time>2026-03-22T14:11:48.999Z</time></trkpt><trkpt lat="43.07621266114144" lon="2.6407031813645423"><ele>157.0</ele><time>2026-03-22T14:11:49.999Z</time></trkpt><trkpt lat="43.076150193056336" lon="2.640384634744892"><ele>157.0</ele><time>2026-03-22T14:11:50.999Z</time></trkpt><trkpt lat="43.07608159040679" lon="2.640094177913469"><ele>157.0</ele><time>2026-03-22T14:11:51.999Z</time></trkpt><trkpt lat="43.07601522605757" lon="2.6398039294275866"><ele>157.0</ele><time>2026-03-22T14:11:52.999Z</time></trkpt><trkpt lat="43.07593826084489" lon="2.639518259916061"><ele>157.0</ele><time>2026-03-22T14:11:54Z</time></trkpt><trkpt lat="43.07586802772209" lon="2.639225937560987"><ele>157.0</ele><time>2026-03-22T14:11:55Z</time></trkpt><trkpt lat="43.075794475263855" lon="2.638938334366444"><ele>157.0</ele><time>2026-03-22T14:11:56Z</time></trkpt><trkpt lat="43.07573099200405" lon="2.638657800723287"><ele>157.0</ele><time>2026-03-22T14:11:57Z</time></trkpt><trkpt lat="43.07565967763522" lon="2.6383742095293026"><ele>157.5</ele><time>2026-03-22T14:11:58Z</time></trkpt><trkpt lat="43.07557971030535" lon="2.6380695505017537"><ele>158.0</ele><time>2026-03-22T14:11:59Z</time></trkpt><trkpt lat="43.075496439583624" lon="2.637725557345544"><ele>158.0</ele><time>2026-03-22T14:12:00Z</time></trkpt><trkpt lat="43.07540756124753" lon="2.6373573260431282"><ele>158.0</ele><time>2026-03-22T14:12:01Z</time></trkpt><trkpt lat="43.07531898338294" lon="2.636985875903177"><ele>158.5</ele><time>2026-03-22T14:12:02Z</time></trkpt><trkpt lat="43.07523209469453" lon="2.6366248049608805"><ele>159.0</ele><time>2026-03-22T14:12:03Z</time></trkpt><trkpt lat="43.07514858435767" lon="2.6362849031513558"><ele>159.5</ele><time>2026-03-22T14:12:04Z</time></trkpt><trkpt lat="43.075070064663365" lon="2.6359747950010646"><ele>160.0</ele><time>2026-03-22T14:12:05Z</time></trkpt><trkpt lat="43.074993524740826" lon="2.6356672701890345"><ele>161.5</ele><time>2026-03-22T14:12:06Z</time></trkpt><trkpt lat="43.07491832288055" lon="2.6353580411590323"><ele>163.0</ele><time>2026-03-22T14:12:07Z</time></trkpt><trkpt lat="43.07483820010675" lon="2.635055654493956"><ele>163.0</ele><time>2026-03-22T14:12:08Z</time></trkpt><trkpt lat="43.07476536293603" lon="2.6347523502451957"><ele>163.0</ele><time>2026-03-22T14:12:09Z</time></trkpt><trkpt lat="43.074695772374504" lon="2.634465543884177"><ele>164.0</ele><time>2026-03-22T14:12:10Z</time></trkpt><trkpt lat="43.07462241235087" lon="2.6341741882145473"><ele>165.0</ele><time>2026-03-22T14:12:11Z</time></trkpt><trkpt lat="43.07455003048016" lon="2.6338834126008375"><ele>166.0</ele><time>2026-03-22T14:12:12Z</time></trkpt><trkpt lat="43.074469281202155" lon="2.633561202513103"><ele>167.0</ele><time>2026-03-22T14:12:13Z</time></trkpt><trkpt lat="43.07440022049477" lon="2.6332636485747827"><ele>168.0</ele><time>2026-03-22T14:12:14Z</time></trkpt><trkpt lat="43.07432341770932" lon="2.6329583402659575"><ele>166.5</ele><time>2026-03-22T14:12:15Z</time></trkpt><trkpt lat="43.074245083371345" lon="2.632652641396107"><ele>165.0</ele><time>2026-03-22T14:12:16Z</time></trkpt><trkpt lat="43.07416970134823" lon="2.632347335110738"><ele>168.5</ele><time>2026-03-22T14:12:17Z</time></trkpt><trkpt lat="43.07408766981963" lon="2.6320251698346797"><ele>172.0</ele><time>2026-03-22T14:12:18Z</time></trkpt><trkpt lat="43.07399963718593" lon="2.6316918012025767"><ele>172.5</ele><time>2026-03-22T14:12:19Z</time></trkpt><trkpt lat="43.07392927127085" lon="2.6313936557539845"><ele>173.0</ele><time>2026-03-22T14:12:20Z</time></trkpt><trkpt lat="43.07385311064555" lon="2.6310740371202086"><ele>175.5</ele><time>2026-03-22T14:12:21Z</time></trkpt><trkpt lat="43.073774823545286" lon="2.630741170607819"><ele>178.0</ele><time>2026-03-22T14:12:22Z</time></trkpt><trkpt lat="43.07369477070596" lon="2.630427594806721"><ele>179.33333333333334</ele><time>2026-03-22T14:12:23Z</time></trkpt><trkpt lat="43.073623100323815" lon="2.6301470188713005"><ele>180.66666666666666</ele><time>2026-03-22T14:12:24Z</time></trkpt><trkpt lat="43.073553902621235" lon="2.6298836737486506"><ele>182.0</ele><time>2026-03-22T14:12:25Z</time></trkpt><trkpt lat="43.07349105772882" lon="2.6296221582335235"><ele>181.66666666666666</ele><time>2026-03-22T14:12:26Z</time></trkpt><trkpt lat="43.07343225978246" lon="2.6293521837138365"><ele>181.33333333333334</ele><time>2026-03-22T14:12:27Z</time></trkpt><trkpt lat="43.073380107177385" lon="2.6290782538462736"><ele>181.0</ele><time>2026-03-22T14:12:28Z</time></trkpt><trkpt lat="43.07334965633566" lon="2.628785017298042"><ele>178.5</ele><time>2026-03-22T14:12:29Z</time></trkpt><trkpt lat="43.07333526075627" lon="2.6284621345279473"><ele>176.0</ele><time>2026-03-22T14:12:30Z</time></trkpt><trkpt lat="43.07333543716396" lon="2.628117885943762"><ele>176.0</ele><time>2026-03-22T14:12:31Z</time></trkpt><trkpt lat="43.07334560950266" lon="2.6278042920438374"><ele>176.0</ele><time>2026-03-22T14:12:32Z</time></trkpt><trkpt lat="43.073352604523244" lon="2.6275124926344704"><ele>176.0</ele><time>2026-03-22T14:12:33Z</time></trkpt><trkpt lat="43.07335843733607" lon="2.6272164417238173"><ele>177.0</ele><time>2026-03-22T14:12:34Z</time></trkpt><trkpt lat="43.07336489493941" lon="2.626912463770433"><ele>178.0</ele><time>2026-03-22T14:12:35Z</time></trkpt><trkpt lat="43.07337206490697" lon="2.6266176365393656"><ele>179.0</ele><time>2026-03-22T14:12:36Z</time></trkpt><trkpt lat="43.07337785899105" lon="2.626346595409589"><ele>180.0</ele><time>2026-03-22T14:12:37Z</time></trkpt><trkpt lat="43.073380120000735" lon="2.6260886067739513"><ele>181.0</ele><time>2026-03-22T14:12:38Z</time></trkpt><trkpt lat="43.07335961658386" lon="2.6258796664775046"><ele>182.0</ele><time>2026-03-22T14:12:39Z</time></trkpt><trkpt lat="43.073311720268755" lon="2.6256759014298368"><ele>182.66666666666666</ele><time>2026-03-22T14:12:40Z</time></trkpt><trkpt lat="43.07324273465414" lon="2.6254589196711935"><ele>183.33333333333334</ele><time>2026-03-22T14:12:41Z</time></trkpt><trkpt lat="43.07314937930093" lon="2.625244887575835"><ele>184.0</ele><time>2026-03-22T14:12:42Z</time></trkpt><trkpt lat="43.07303740654361" lon="2.625053125741091"><ele>184.0</ele><time>2026-03-22T14:12:43Z</time></trkpt><trkpt lat="43.07291393896439" lon="2.6248681450425084"><ele>184.0</ele><time>2026-03-22T14:12:44Z</time></trkpt><trkpt lat="43.072795446219395" lon="2.624706566138632"><ele>184.0</ele><time>2026-03-22T14:12:45Z</time></trkpt><trkpt lat="43.07268322071754" lon="2.62453833754448"><ele>183.33333333333334</ele><time>2026-03-22T14:12:46Z</time></trkpt><trkpt lat="43.07258075993636" lon="2.6243614347182698"><ele>182.66666666666666</ele><time>2026-03-22T14:12:47Z</time></trkpt><trkpt lat="43.07248807075581" lon="2.624188837952979"><ele>182.0</ele><time>2026-03-22T14:12:48Z</time></trkpt><trkpt lat="43.072415395300915" lon="2.6240094837990466"><ele>185.5</ele><time>2026-03-22T14:12:49Z</time></trkpt><trkpt lat="43.0723689797619" lon="2.623829422540025"><ele>189.0</ele><time>2026-03-22T14:12:50Z</time></trkpt><trkpt lat="43.07235121759228" lon="2.6236481911253726"><ele>192.5</ele><time>2026-03-22T14:12:51Z</time></trkpt><trkpt lat="43.07235224087546" lon="2.6234397223468253"><ele>196.0</ele><time>2026-03-22T14:12:52Z</time></trkpt><trkpt lat="43.072380010666976" lon="2.6232278472393973"><ele>196.0</ele><time>2026-03-22T14:12:53Z</time></trkpt><trkpt lat="43.07243290547457" lon="2.623008593782298"><ele>196.0</ele><time>2026-03-22T14:12:54Z</time></trkpt><trkpt lat="43.072484641188694" lon="2.6227988226478285"><ele>196.0</ele><time>2026-03-22T14:12:55Z</time></trkpt><trkpt lat="43.07250995741563" lon="2.622608474212087"><ele>194.0</ele><time>2026-03-22T14:12:56Z</time></trkpt><trkpt lat="43.07250335837424" lon="2.6224188622687468"><ele>192.0</ele><time>2026-03-22T14:12:57Z</time></trkpt><trkpt lat="43.072469214741055" lon="2.622213035256307"><ele>190.0</ele><time>2026-03-22T14:12:58Z</time></trkpt><trkpt lat="43.07240839791503" lon="2.621991106013013"><ele>187.66666666666669</ele><time>2026-03-22T14:12:59Z</time></trkpt><trkpt lat="43.07232545716902" lon="2.621771630784432"><ele>185.33333333333334</ele><time>2026-03-22T14:13:00Z</time></trkpt><trkpt lat="43.07222784281001" lon="2.621537600774898"><ele>183.0</ele><time>2026-03-22T14:13:01Z</time></trkpt><trkpt lat="43.072127551329146" lon="2.621316003870211"><ele>180.66666666666666</ele><time>2026-03-22T14:13:02Z</time></trkpt><trkpt lat="43.07202343926563" lon="2.6211165415561193"><ele>178.33333333333331</ele><time>2026-03-22T14:13:03Z</time></trkpt><trkpt lat="43.07190985738287" lon="2.620909163657505"><ele>176.0</ele><time>2026-03-22T14:13:04Z</time></trkpt><trkpt lat="43.0717901124547" lon="2.6207024644122128"><ele>176.0</ele><time>2026-03-22T14:13:05Z</time></trkpt><trkpt lat="43.07166904399274" lon="2.620504732101118"><ele>176.0</ele><time>2026-03-22T14:13:06Z</time></trkpt><trkpt lat="43.0715442625715" lon="2.620321625435561"><ele>176.0</ele><time>2026-03-22T14:13:07Z</time></trkpt><trkpt lat="43.07143036886804" lon="2.6201381402322714"><ele>179.33333333333331</ele><time>2026-03-22T14:13:08Z</time></trkpt><trkpt lat="43.0713313522761" lon="2.619927242041656"><ele>182.66666666666666</ele><time>2026-03-22T14:13:09Z</time></trkpt><trkpt lat="43.07123549181615" lon="2.6197441236013708"><ele>186.0</ele><time>2026-03-22T14:13:10Z</time></trkpt><trkpt lat="43.07116024740577" lon="2.6195455577197406"><ele>183.0</ele><time>2026-03-22T14:13:11Z</time></trkpt><trkpt lat="43.0711049869909" lon="2.6193377415390615"><ele>180.0</ele><time>2026-03-22T14:13:12Z</time></trkpt><trkpt lat="43.0710732985686" lon="2.6191318680462228"><ele>177.0</ele><time>2026-03-22T14:13:13Z</time></trkpt><trkpt lat="43.071061715374036" lon="2.6189150105381995"><ele>177.0</ele><time>2026-03-22T14:13:14Z</time></trkpt><trkpt lat="43.07106484618741" lon="2.618684627739817"><ele>177.0</ele><time>2026-03-22T14:13:15Z</time></trkpt><trkpt lat="43.071095889300096" lon="2.6184407462164856"><ele>177.0</ele><time>2026-03-22T14:13:16Z</time></trkpt><trkpt lat="43.071148585529805" lon="2.6181922510393028"><ele>175.66666666666666</ele><time>2026-03-22T14:13:17Z</time></trkpt><trkpt lat="43.07119016649197" lon="2.6179404101682993"><ele>174.33333333333331</ele><time>2026-03-22T14:13:18Z</time></trkpt><trkpt lat="43.07120435119227" lon="2.617693774010436"><ele>173.0</ele><time>2026-03-22T14:13:19Z</time></trkpt><trkpt lat="43.0712041997649" lon="2.6174632030042004"><ele>172.0</ele><time>2026-03-22T14:13:20Z</time></trkpt><trkpt lat="43.071218652255" lon="2.617248883154685"><ele>171.0</ele><time>2026-03-22T14:13:21Z</time></trkpt><trkpt lat="43.0712647241195" lon="2.6170456728555935"><ele>170.0</ele><time>2026-03-22T14:13:22Z</time></trkpt><trkpt lat="43.07132562901992" lon="2.61685170731673"><ele>169.75</ele><time>2026-03-22T14:13:23Z</time></trkpt><trkpt lat="43.07138915066306" lon="2.6166748664491224"><ele>169.5</ele><time>2026-03-22T14:13:24Z</time></trkpt><trkpt lat="43.071440731916866" lon="2.61649935373015"><ele>169.25</ele><time>2026-03-22T14:13:25Z</time></trkpt><trkpt lat="43.07146935971775" lon="2.6163043607551533"><ele>169.0</ele><time>2026-03-22T14:13:26Z</time></trkpt><trkpt lat="43.071469201528544" lon="2.6160854314377224"><ele>169.66666666666669</ele><time>2026-03-22T14:13:27Z</time></trkpt><trkpt lat="43.07144489523232" lon="2.6158277690207994"><ele>170.33333333333334</ele><time>2026-03-22T14:13:28Z</time></trkpt><trkpt lat="43.0714080855964" lon="2.6155575028127185"><ele>171.0</ele><time>2026-03-22T14:13:29Z</time></trkpt><trkpt lat="43.07135722409164" lon="2.6152925191938365"><ele>171.0</ele><time>2026-03-22T14:13:30Z</time></trkpt><trkpt lat="43.071314607345144" lon="2.615038548631474"><ele>171.0</ele><time>2026-03-22T14:13:31Z</time></trkpt><trkpt lat="43.07128210677779" lon="2.6147780924073447"><ele>171.0</ele><time>2026-03-22T14:13:32Z</time></trkpt><trkpt lat="43.07126668243894" lon="2.6145174114499627"><ele>169.66666666666666</ele><time>2026-03-22T14:13:33Z</time></trkpt><trkpt lat="43.07127795954972" lon="2.6142477779007933"><ele>168.33333333333331</ele><time>2026-03-22T14:13:33.999Z</time></trkpt><trkpt lat="43.07129684367468" lon="2.613985644047581"><ele>167.0</ele><time>2026-03-22T14:13:34.999Z</time></trkpt><trkpt lat="43.071329672764165" lon="2.613701290454601"><ele>165.33333333333331</ele><time>2026-03-22T14:13:35.999Z</time></trkpt><trkpt lat="43.0713735949562" lon="2.6134329299730292"><ele>163.66666666666666</ele><time>2026-03-22T14:13:36.999Z</time></trkpt><trkpt lat="43.07141386828494" lon="2.6131933290765605"><ele>162.0</ele><time>2026-03-22T14:13:37.999Z</time></trkpt><trkpt lat="43.07144953576295" lon="2.6129626735251534"><ele>161.0</ele><time>2026-03-22T14:13:38.999Z</time></trkpt><trkpt lat="43.0714833933715" lon="2.612728092311664"><ele>160.0</ele><time>2026-03-22T14:13:39.999Z</time></trkpt><trkpt lat="43.071518888469775" lon="2.6125104213982873"><ele>159.0</ele><time>2026-03-22T14:13:40.999Z</time></trkpt><trkpt lat="43.07155153496027" lon="2.612284527268613"><ele>159.0</ele><time>2026-03-22T14:13:41.999Z</time></trkpt><trkpt lat="43.07157217063815" lon="2.612063508437429"><ele>159.0</ele><time>2026-03-22T14:13:42.999Z</time></trkpt><trkpt lat="43.07157273048712" lon="2.6118555441959392"><ele>159.0</ele><time>2026-03-22T14:13:43.999Z</time></trkpt><trkpt lat="43.07155965701176" lon="2.6116602184100124"><ele>158.6</ele><time>2026-03-22T14:13:44.999Z</time></trkpt><trkpt lat="43.07153656989268" lon="2.6114788406053746"><ele>158.2</ele><time>2026-03-22T14:13:45.999Z</time></trkpt><trkpt lat="43.07151103724967" lon="2.6113255916500666"><ele>157.79999999999998</ele><time>2026-03-22T14:13:46.999Z</time></trkpt><trkpt lat="43.071486924618576" lon="2.6112005538002885"><ele>157.4</ele><time>2026-03-22T14:13:47.999Z</time></trkpt><trkpt lat="43.07146674776501" lon="2.611088265943419"><ele>157.0</ele><time>2026-03-22T14:13:48.999Z</time></trkpt><trkpt lat="43.0714505164613" lon="2.6109956802448795"><ele>156.2</ele><time>2026-03-22T14:13:49.999Z</time></trkpt><trkpt lat="43.07144142680466" lon="2.610863263513819"><ele>155.39999999999998</ele><time>2026-03-22T14:13:51.999Z</time></trkpt><trkpt lat="43.07143879079673" lon="2.6107416221876645"><ele>154.60000000000002</ele><time>2026-03-22T14:13:53.999Z</time></trkpt><trkpt lat="43.07139702903963" lon="2.6106501353423046"><ele>153.8</ele><time>2026-03-22T14:13:55.999Z</time></trkpt><trkpt lat="43.07126457969414" lon="2.610590510632547"><ele>153.0</ele><time>2026-03-22T14:13:57.999Z</time></trkpt><trkpt lat="43.071163933018795" lon="2.610551875080231"><ele>153.0</ele><time>2026-03-22T14:13:58.999Z</time></trkpt><trkpt lat="43.071044552811884" lon="2.61047864274091"><ele>153.0</ele><time>2026-03-22T14:14:00Z</time></trkpt><trkpt lat="43.070942743808835" lon="2.610377413452274"><ele>153.0</ele><time>2026-03-22T14:14:01Z</time></trkpt><trkpt lat="43.07084655542718" lon="2.610282311851079"><ele>153.0</ele><time>2026-03-22T14:14:02Z</time></trkpt><trkpt lat="43.07072190069469" lon="2.6101651597080178"><ele>152.66666666666666</ele><time>2026-03-22T14:14:03Z</time></trkpt><trkpt lat="43.07058979816888" lon="2.610040048339916"><ele>152.33333333333331</ele><time>2026-03-22T14:14:04Z</time></trkpt><trkpt lat="43.07045523803815" lon="2.6099069921697327"><ele>152.0</ele><time>2026-03-22T14:14:05Z</time></trkpt><trkpt lat="43.07033143011795" lon="2.6097890703878104"><ele>152.0</ele><time>2026-03-22T14:14:06Z</time></trkpt><trkpt lat="43.070200685193534" lon="2.6096676458295995"><ele>152.0</ele><time>2026-03-22T14:14:07Z</time></trkpt><trkpt lat="43.07006246317381" lon="2.6095362039142285"><ele>152.0</ele><time>2026-03-22T14:14:08Z</time></trkpt><trkpt lat="43.06991922269642" lon="2.6094016333702914"><ele>153.66666666666666</ele><time>2026-03-22T14:14:09Z</time></trkpt><trkpt lat="43.069753953477296" lon="2.609243851934507"><ele>155.33333333333334</ele><time>2026-03-22T14:14:10Z</time></trkpt><trkpt lat="43.069601787308244" lon="2.6090969943306788"><ele>157.0</ele><time>2026-03-22T14:14:11Z</time></trkpt><trkpt lat="43.06946638232963" lon="2.6089631639776214"><ele>157.0</ele><time>2026-03-22T14:14:12Z</time></trkpt><trkpt lat="43.069350941955165" lon="2.6088237962169023"><ele>157.0</ele><time>2026-03-22T14:14:13Z</time></trkpt><trkpt lat="43.069244350701766" lon="2.6086523210587096"><ele>157.0</ele><time>2026-03-22T14:14:14Z</time></trkpt><trkpt lat="43.069162020428635" lon="2.608467306084494"><ele>155.75</ele><time>2026-03-22T14:14:15Z</time></trkpt><trkpt lat="43.06909723153067" lon="2.6083011759805457"><ele>154.5</ele><time>2026-03-22T14:14:16Z</time></trkpt><trkpt lat="43.0690224809269" lon="2.6081663264541066"><ele>153.25</ele><time>2026-03-22T14:14:17Z</time></trkpt><trkpt lat="43.06892840566394" lon="2.608054548277776"><ele>152.0</ele><time>2026-03-22T14:14:18Z</time></trkpt><trkpt lat="43.068821135798395" lon="2.6079703295884737"><ele>152.0</ele><time>2026-03-22T14:14:19Z</time></trkpt><trkpt lat="43.068696366470164" lon="2.6079314835276595"><ele>152.0</ele><time>2026-03-22T14:14:20Z</time></trkpt><trkpt lat="43.06856625882077" lon="2.607939871489216"><ele>152.0</ele><time>2026-03-22T14:14:21Z</time></trkpt><trkpt lat="43.068454184036405" lon="2.6079847832536585"><ele>152.0</ele><time>2026-03-22T14:14:22Z</time></trkpt><trkpt lat="43.06834457789024" lon="2.608078359119294"><ele>151.5</ele><time>2026-03-22T14:14:23Z</time></trkpt><trkpt lat="43.06823699342248" lon="2.6081940248599706"><ele>151.0</ele><time>2026-03-22T14:14:24Z</time></trkpt><trkpt lat="43.06811933149256" lon="2.608276966569211"><ele>150.5</ele><time>2026-03-22T14:14:25Z</time></trkpt><trkpt lat="43.06799834133535" lon="2.6083135554448416"><ele>150.0</ele><time>2026-03-22T14:14:26Z</time></trkpt><trkpt lat="43.06786249434856" lon="2.608304080922058"><ele>150.0</ele><time>2026-03-22T14:14:27Z</time></trkpt><trkpt lat="43.06774142452168" lon="2.6082816315821034"><ele>150.0</ele><time>2026-03-22T14:14:28Z</time></trkpt><trkpt lat="43.06761917395832" lon="2.6082487102841587"><ele>150.0</ele><time>2026-03-22T14:14:29Z</time></trkpt><trkpt lat="43.06749835562913" lon="2.608225511704884"><ele>150.0</ele><time>2026-03-22T14:14:30Z</time></trkpt><trkpt lat="43.06735693112812" lon="2.608271611476964"><ele>149.5</ele><time>2026-03-22T14:14:31Z</time></trkpt><trkpt lat="43.067213747910834" lon="2.6083438925500593"><ele>149.0</ele><time>2026-03-22T14:14:32Z</time></trkpt><trkpt lat="43.06708568138859" lon="2.608425847788438"><ele>148.5</ele><time>2026-03-22T14:14:33Z</time></trkpt><trkpt lat="43.06695570483133" lon="2.608473478046984"><ele>148.0</ele><time>2026-03-22T14:14:34Z</time></trkpt><trkpt lat="43.066825937792856" lon="2.608481324927953"><ele>148.0</ele><time>2026-03-22T14:14:35Z</time></trkpt><trkpt lat="43.0667163710272" lon="2.6084547405748664"><ele>148.0</ele><time>2026-03-22T14:14:36Z</time></trkpt><trkpt lat="43.06662233574847" lon="2.6084117141386005"><ele>148.0</ele><time>2026-03-22T14:14:37Z</time></trkpt><trkpt lat="43.06652265616503" lon="2.608346748259"><ele>148.0</ele><time>2026-03-22T14:14:38Z</time></trkpt><trkpt lat="43.06641864274235" lon="2.608276218441769"><ele>148.0</ele><time>2026-03-22T14:14:39Z</time></trkpt><trkpt lat="43.06630745842923" lon="2.60819758341243"><ele>150.25</ele><time>2026-03-22T14:14:40Z</time></trkpt><trkpt lat="43.066211101843734" lon="2.6080876473496826"><ele>152.5</ele><time>2026-03-22T14:14:41Z</time></trkpt><trkpt lat="43.0661438630257" lon="2.607945367731414"><ele>154.75</ele><time>2026-03-22T14:14:42Z</time></trkpt><trkpt lat="43.06610085412728" lon="2.6077729496492204"><ele>157.0</ele><time>2026-03-22T14:14:43Z</time></trkpt><trkpt lat="43.066055326935874" lon="2.607576239238156"><ele>157.0</ele><time>2026-03-22T14:14:44Z</time></trkpt><trkpt lat="43.06601674522248" lon="2.607410863987265"><ele>157.0</ele><time>2026-03-22T14:14:45Z</time></trkpt><trkpt lat="43.06595852969142" lon="2.607226296229251"><ele>157.0</ele><time>2026-03-22T14:14:46Z</time></trkpt><trkpt lat="43.065879146480896" lon="2.6070491632500232"><ele>157.0</ele><time>2026-03-22T14:14:47Z</time></trkpt><trkpt lat="43.06577959880407" lon="2.606886043676561"><ele>158.0</ele><time>2026-03-22T14:14:48Z</time></trkpt><trkpt lat="43.06566100147555" lon="2.6067351154286476"><ele>159.0</ele><time>2026-03-22T14:14:49Z</time></trkpt><trkpt lat="43.06551223130668" lon="2.606603698714293"><ele>160.0</ele><time>2026-03-22T14:14:50Z</time></trkpt><trkpt lat="43.06536683294157" lon="2.6064834219222126"><ele>160.0</ele><time>2026-03-22T14:14:51Z</time></trkpt><trkpt lat="43.065258254954976" lon="2.6063620970734145"><ele>160.0</ele><time>2026-03-22T14:14:52Z</time></trkpt><trkpt lat="43.06516834840796" lon="2.6062271035271616"><ele>160.0</ele><time>2026-03-22T14:14:53Z</time></trkpt><trkpt lat="43.065100220923455" lon="2.606067888232155"><ele>160.0</ele><time>2026-03-22T14:14:54Z</time></trkpt><trkpt lat="43.06504449262735" lon="2.605879463638632"><ele>160.0</ele><time>2026-03-22T14:14:55Z</time></trkpt><trkpt lat="43.06499795172808" lon="2.6056594543988125"><ele>160.0</ele><time>2026-03-22T14:14:56Z</time></trkpt><trkpt lat="43.064961621910854" lon="2.60544544718086"><ele>160.0</ele><time>2026-03-22T14:14:57Z</time></trkpt><trkpt lat="43.064920914743304" lon="2.6052616207891117"><ele>161.5</ele><time>2026-03-22T14:14:58Z</time></trkpt><trkpt lat="43.06487285635197" lon="2.6050951248228156"><ele>163.0</ele><time>2026-03-22T14:14:59Z</time></trkpt><trkpt lat="43.064802515934076" lon="2.6049176605682565"><ele>164.5</ele><time>2026-03-22T14:15:00Z</time></trkpt><trkpt lat="43.064689230164305" lon="2.604745224825631"><ele>166.0</ele><time>2026-03-22T14:15:01Z</time></trkpt><trkpt lat="43.064567400195514" lon="2.604562821674694"><ele>165.33333333333334</ele><time>2026-03-22T14:15:02Z</time></trkpt><trkpt lat="43.06445406463441" lon="2.604383408964486"><ele>164.66666666666666</ele><time>2026-03-22T14:15:03Z</time></trkpt><trkpt lat="43.06435308084737" lon="2.604214996500343"><ele>164.0</ele><time>2026-03-22T14:15:04Z</time></trkpt><trkpt lat="43.06425094049258" lon="2.604044625428797"><ele>164.0</ele><time>2026-03-22T14:15:05Z</time></trkpt><trkpt lat="43.064127247051005" lon="2.60383955237821"><ele>164.0</ele><time>2026-03-22T14:15:06Z</time></trkpt><trkpt lat="43.06398474233361" lon="2.603609712284299"><ele>164.0</ele><time>2026-03-22T14:15:07Z</time></trkpt><trkpt lat="43.063863234964664" lon="2.603404759878261"><ele>164.33333333333331</ele><time>2026-03-22T14:15:08Z</time></trkpt><trkpt lat="43.06375779038949" lon="2.6032333627091884"><ele>164.66666666666666</ele><time>2026-03-22T14:15:09Z</time></trkpt><trkpt lat="43.06366322523529" lon="2.603071940543133"><ele>165.0</ele><time>2026-03-22T14:15:10Z</time></trkpt><trkpt lat="43.06357872066538" lon="2.602925030893111"><ele>164.4</ele><time>2026-03-22T14:15:11Z</time></trkpt><trkpt lat="43.06349810705878" lon="2.6027827455264676"><ele>163.8</ele><time>2026-03-22T14:15:12Z</time></trkpt><trkpt lat="43.06342853645368" lon="2.6026572817274913"><ele>163.2</ele><time>2026-03-22T14:15:13Z</time></trkpt><trkpt lat="43.063370633962364" lon="2.602557713235442"><ele>162.6</ele><time>2026-03-22T14:15:14Z</time></trkpt><trkpt lat="43.06331405610234" lon="2.6024814871466075"><ele>162.0</ele><time>2026-03-22T14:15:15Z</time></trkpt><trkpt lat="43.0632499763741" lon="2.602434222294722"><ele>161.4</ele><time>2026-03-22T14:15:16Z</time></trkpt><trkpt lat="43.06316929075204" lon="2.602402735847844"><ele>160.79999999999998</ele><time>2026-03-22T14:15:17Z</time></trkpt><trkpt lat="43.06308090836733" lon="2.602404126357432"><ele>160.2</ele><time>2026-03-22T14:15:18Z</time></trkpt><trkpt lat="43.0629829675501" lon="2.602445462104521"><ele>159.6</ele><time>2026-03-22T14:15:19Z</time></trkpt><trkpt lat="43.06286913356282" lon="2.602511394655455"><ele>159.0</ele><time>2026-03-22T14:15:20Z</time></trkpt><trkpt lat="43.06276132854907" lon="2.6025648092368834"><ele>159.0</ele><time>2026-03-22T14:15:21Z</time></trkpt><trkpt lat="43.0626553185169" lon="2.6026015182514137"><ele>159.0</ele><time>2026-03-22T14:15:22Z</time></trkpt><trkpt lat="43.062541927420554" lon="2.6025964801045083"><ele>159.0</ele><time>2026-03-22T14:15:23Z</time></trkpt><trkpt lat="43.06242977352712" lon="2.602528782127482"><ele>159.0</ele><time>2026-03-22T14:15:24Z</time></trkpt><trkpt lat="43.062293864390675" lon="2.6024496863958455"><ele>157.5</ele><time>2026-03-22T14:15:25Z</time></trkpt><trkpt lat="43.062178090796465" lon="2.602389621340156"><ele>156.0</ele><time>2026-03-22T14:15:26Z</time></trkpt><trkpt lat="43.0620646619365" lon="2.6023615203009847"><ele>154.5</ele><time>2026-03-22T14:15:27Z</time></trkpt><trkpt lat="43.06195486825447" lon="2.60238045640041"><ele>153.0</ele><time>2026-03-22T14:15:28Z</time></trkpt><trkpt lat="43.06185824613524" lon="2.6024271059101136"><ele>153.0</ele><time>2026-03-22T14:15:29Z</time></trkpt><trkpt lat="43.0617675921369" lon="2.6024910332565434"><ele>153.0</ele><time>2026-03-22T14:15:30Z</time></trkpt><trkpt lat="43.061690026715574" lon="2.60257119800248"><ele>153.0</ele><time>2026-03-22T14:15:31Z</time></trkpt><trkpt lat="43.06162005189041" lon="2.602655606368195"><ele>153.0</ele><time>2026-03-22T14:15:32Z</time></trkpt><trkpt lat="43.06154187790316" lon="2.602767600336522"><ele>153.0</ele><time>2026-03-22T14:15:33Z</time></trkpt><trkpt lat="43.06145812871348" lon="2.6028874432127"><ele>152.33333333333334</ele><time>2026-03-22T14:15:34Z</time></trkpt><trkpt lat="43.061355686325065" lon="2.6030133137100178"><ele>151.66666666666669</ele><time>2026-03-22T14:15:35Z</time></trkpt><trkpt lat="43.06122344484011" lon="2.6031531643113284"><ele>151.0</ele><time>2026-03-22T14:15:36Z</time></trkpt><trkpt lat="43.06106812196237" lon="2.6033090402132246"><ele>151.0</ele><time>2026-03-22T14:15:37Z</time></trkpt><trkpt lat="43.06094337895252" lon="2.603438299602086"><ele>151.0</ele><time>2026-03-22T14:15:38Z</time></trkpt><trkpt lat="43.06081533448165" lon="2.6035577766889326"><ele>151.0</ele><time>2026-03-22T14:15:39Z</time></trkpt><trkpt lat="43.06069444782657" lon="2.6036757979922176"><ele>150.6</ele><time>2026-03-22T14:15:39.999Z</time></trkpt><trkpt lat="43.06058800363817" lon="2.603790217582165"><ele>150.2</ele><time>2026-03-22T14:15:40.999Z</time></trkpt><trkpt lat="43.06050537351227" lon="2.6038842649960747"><ele>149.8</ele><time>2026-03-22T14:15:41.999Z</time></trkpt><trkpt lat="43.060432510732745" lon="2.603968551799978"><ele>149.4</ele><time>2026-03-22T14:15:42.999Z</time></trkpt><trkpt lat="43.06036489321183" lon="2.6040503550454543"><ele>149.0</ele><time>2026-03-22T14:15:43.999Z</time></trkpt><trkpt lat="43.06029890597993" lon="2.604125482669588"><ele>149.0</ele><time>2026-03-22T14:15:44.999Z</time></trkpt><trkpt lat="43.060213319776004" lon="2.604208533463699"><ele>149.0</ele><time>2026-03-22T14:15:45.999Z</time></trkpt><trkpt lat="43.06012749664674" lon="2.604297534722524"><ele>149.0</ele><time>2026-03-22T14:15:46.999Z</time></trkpt><trkpt lat="43.06003604161443" lon="2.6043792124600254"><ele>149.0</ele><time>2026-03-22T14:15:47.999Z</time></trkpt><trkpt lat="43.05994138287089" lon="2.604461331249703"><ele>149.0</ele><time>2026-03-22T14:15:48.999Z</time></trkpt><trkpt lat="43.05984935901258" lon="2.6045573842477947"><ele>148.8</ele><time>2026-03-22T14:15:49.999Z</time></trkpt><trkpt lat="43.0597521220268" lon="2.6046268444404626"><ele>148.60000000000002</ele><time>2026-03-22T14:15:50.999Z</time></trkpt><trkpt lat="43.05966118243425" lon="2.6046769461448798"><ele>148.4</ele><time>2026-03-22T14:15:51.999Z</time></trkpt><trkpt lat="43.059558261099866" lon="2.604710363462968"><ele>148.20000000000002</ele><time>2026-03-22T14:15:52.999Z</time></trkpt><trkpt lat="43.059456053597486" lon="2.6047166083852225"><ele>148.0</ele><time>2026-03-22T14:15:53.999Z</time></trkpt><trkpt lat="43.059363645918914" lon="2.60474736738158"><ele>148.0</ele><time>2026-03-22T14:15:54.999Z</time></trkpt><trkpt lat="43.05929189288387" lon="2.604798126713445"><ele>148.0</ele><time>2026-03-22T14:15:55.999Z</time></trkpt><trkpt lat="43.059209097798885" lon="2.6048898630023394"><ele>148.0</ele><time>2026-03-22T14:15:56.999Z</time></trkpt><trkpt lat="43.05914290650498" lon="2.604982812773721"><ele>148.0</ele><time>2026-03-22T14:15:57.999Z</time></trkpt><trkpt lat="43.059069562517884" lon="2.60503924231786"><ele>148.0</ele><time>2026-03-22T14:15:58.999Z</time></trkpt><trkpt lat="43.058953503651594" lon="2.6050874090269533"><ele>148.4</ele><time>2026-03-22T14:16:00.999Z</time></trkpt><trkpt lat="43.05886809469875" lon="2.605047736284406"><ele>148.8</ele><time>2026-03-22T14:16:01.999Z</time></trkpt><trkpt lat="43.05877400152754" lon="2.604980349963232"><ele>149.2</ele><time>2026-03-22T14:16:02.999Z</time></trkpt><trkpt lat="43.05869447882803" lon="2.604923358099766"><ele>149.6</ele><time>2026-03-22T14:16:03.999Z</time></trkpt><trkpt lat="43.05863006515575" lon="2.604879188615186"><ele>150.0</ele><time>2026-03-22T14:16:04.999Z</time></trkpt><trkpt lat="43.05852489588779" lon="2.6048051474069185"><ele>150.0</ele><time>2026-03-22T14:16:07Z</time></trkpt><trkpt lat="43.05843344943786" lon="2.6047306451363537"><ele>150.0</ele><time>2026-03-22T14:16:09Z</time></trkpt><trkpt lat="43.058423735708885" lon="2.604535389963926"><ele>150.0</ele><time>2026-03-22T14:16:11Z</time></trkpt><trkpt lat="43.0584541391763" lon="2.604420599187407"><ele>150.0</ele><time>2026-03-22T14:16:12Z</time></trkpt><trkpt lat="43.05847095567234" lon="2.6043196852473383"><ele>150.0</ele><time>2026-03-22T14:16:13Z</time></trkpt><trkpt lat="43.0584870625341" lon="2.6042222543532314"><ele>150.66666666666666</ele><time>2026-03-22T14:16:14Z</time></trkpt><trkpt lat="43.058500993763325" lon="2.6041177232301527"><ele>151.33333333333334</ele><time>2026-03-22T14:16:15Z</time></trkpt><trkpt lat="43.058515456746" lon="2.6040218226621152"><ele>152.0</ele><time>2026-03-22T14:16:16Z</time></trkpt><trkpt lat="43.05853472986183" lon="2.603931102022991"><ele>152.66666666666669</ele><time>2026-03-22T14:16:17Z</time></trkpt><trkpt lat="43.05855543884348" lon="2.603831932206139"><ele>153.33333333333334</ele><time>2026-03-22T14:16:18Z</time></trkpt><trkpt lat="43.058569920132484" lon="2.6036749460447757"><ele>154.0</ele><time>2026-03-22T14:16:20Z</time></trkpt><trkpt lat="43.05855884200222" lon="2.603584372975663"><ele>154.0</ele><time>2026-03-22T14:16:21Z</time></trkpt><trkpt lat="43.05853867079472" lon="2.603478237171133"><ele>154.0</ele><time>2026-03-22T14:16:22Z</time></trkpt><trkpt lat="43.05851540982419" lon="2.6033575367257575"><ele>154.0</ele><time>2026-03-22T14:16:23Z</time></trkpt><trkpt lat="43.058487164727694" lon="2.6032326366877063"><ele>154.0</ele><time>2026-03-22T14:16:24Z</time></trkpt><trkpt lat="43.05846014007359" lon="2.603124358336852"><ele>154.0</ele><time>2026-03-22T14:16:25Z</time></trkpt><trkpt lat="43.05842936443655" lon="2.603030784380882"><ele>154.0</ele><time>2026-03-22T14:16:26Z</time></trkpt><trkpt lat="43.05837042506247" lon="2.6029309670705723"><ele>154.6</ele><time>2026-03-22T14:16:27Z</time></trkpt><trkpt lat="43.058281287022254" lon="2.602850404675136"><ele>155.2</ele><time>2026-03-22T14:16:28Z</time></trkpt><trkpt lat="43.058184311993884" lon="2.602773283264642"><ele>155.79999999999998</ele><time>2026-03-22T14:16:29Z</time></trkpt><trkpt lat="43.05808804018683" lon="2.602711730501325"><ele>156.4</ele><time>2026-03-22T14:16:30Z</time></trkpt><trkpt lat="43.05799568852229" lon="2.6026506247813725"><ele>157.0</ele><time>2026-03-22T14:16:31Z</time></trkpt><trkpt lat="43.05790496170867" lon="2.602595516312331"><ele>157.0</ele><time>2026-03-22T14:16:32Z</time></trkpt><trkpt lat="43.0578062515107" lon="2.6025368101083"><ele>157.0</ele><time>2026-03-22T14:16:33Z</time></trkpt><trkpt lat="43.05770818267334" lon="2.6024865793436"><ele>157.0</ele><time>2026-03-22T14:16:34Z</time></trkpt><trkpt lat="43.057610910006076" lon="2.602436433562102"><ele>157.0</ele><time>2026-03-22T14:16:35Z</time></trkpt><trkpt lat="43.05751832583474" lon="2.60238335988856"><ele>157.0</ele><time>2026-03-22T14:16:36Z</time></trkpt><trkpt lat="43.05744338189226" lon="2.602355060285935"><ele>158.0</ele><time>2026-03-22T14:16:37Z</time></trkpt><trkpt lat="43.05735987725368" lon="2.6023138215781247"><ele>159.0</ele><time>2026-03-22T14:16:38Z</time></trkpt><trkpt lat="43.05726652615676" lon="2.6022594229030127"><ele>160.0</ele><time>2026-03-22T14:16:39Z</time></trkpt><trkpt lat="43.05719357662771" lon="2.6021950708279245"><ele>161.0</ele><time>2026-03-22T14:16:40Z</time></trkpt><trkpt lat="43.05713432785302" lon="2.6021182261904365"><ele>162.0</ele><time>2026-03-22T14:16:41Z</time></trkpt><trkpt lat="43.05709206881401" lon="2.602028115569088"><ele>163.0</ele><time>2026-03-22T14:16:42Z</time></trkpt><trkpt lat="43.05704887699077" lon="2.6019375776872975"><ele>163.0</ele><time>2026-03-22T14:16:43Z</time></trkpt><trkpt lat="43.05700175382767" lon="2.601835275921085"><ele>163.0</ele><time>2026-03-22T14:16:44Z</time></trkpt><trkpt lat="43.056940498460726" lon="2.601712468716044"><ele>163.0</ele><time>2026-03-22T14:16:45Z</time></trkpt><trkpt lat="43.05687746326714" lon="2.6015805109939607"><ele>163.0</ele><time>2026-03-22T14:16:46Z</time></trkpt><trkpt lat="43.05681824460463" lon="2.601434297210217"><ele>163.0</ele><time>2026-03-22T14:16:47Z</time></trkpt><trkpt lat="43.056774094854035" lon="2.6013049613495234"><ele>163.0</ele><time>2026-03-22T14:16:48Z</time></trkpt><trkpt lat="43.05674681174781" lon="2.6011991469313447"><ele>163.0</ele><time>2026-03-22T14:16:49Z</time></trkpt><trkpt lat="43.05672034656034" lon="2.601084826313403"><ele>163.0</ele><time>2026-03-22T14:16:50Z</time></trkpt><trkpt lat="43.05668494334122" lon="2.600974438871679"><ele>163.0</ele><time>2026-03-22T14:16:51Z</time></trkpt><trkpt lat="43.05664107368619" lon="2.600866197917504"><ele>163.0</ele><time>2026-03-22T14:16:52Z</time></trkpt><trkpt lat="43.056589423033735" lon="2.6007723349885503"><ele>163.0</ele><time>2026-03-22T14:16:53Z</time></trkpt><trkpt lat="43.05651759288414" lon="2.600704343797729"><ele>164.4</ele><time>2026-03-22T14:16:54Z</time></trkpt><trkpt lat="43.056414391574" lon="2.60066166848404"><ele>165.8</ele><time>2026-03-22T14:16:55Z</time></trkpt><trkpt lat="43.05630813172828" lon="2.600610879132529"><ele>167.2</ele><time>2026-03-22T14:16:56Z</time></trkpt><trkpt lat="43.056231507302094" lon="2.6005366138528774"><ele>168.6</ele><time>2026-03-22T14:16:57Z</time></trkpt><trkpt lat="43.056166876827724" lon="2.600422559809493"><ele>170.0</ele><time>2026-03-22T14:16:58Z</time></trkpt><trkpt lat="43.05613347119292" lon="2.6003076377036622"><ele>170.0</ele><time>2026-03-22T14:16:59Z</time></trkpt><trkpt lat="43.056119307646135" lon="2.600179889817071"><ele>170.0</ele><time>2026-03-22T14:17:00Z</time></trkpt><trkpt lat="43.05612530266652" lon="2.6000483286744536"><ele>170.0</ele><time>2026-03-22T14:17:01Z</time></trkpt><trkpt lat="43.056145315422185" lon="2.5998903636993975"><ele>170.0</ele><time>2026-03-22T14:17:02Z</time></trkpt><trkpt lat="43.05616750877197" lon="2.599720675145259"><ele>170.0</ele><time>2026-03-22T14:17:03Z</time></trkpt><trkpt lat="43.05619140367589" lon="2.5995616847712757"><ele>170.0</ele><time>2026-03-22T14:17:04Z</time></trkpt><trkpt lat="43.05621085811512" lon="2.5994308280123706"><ele>170.0</ele><time>2026-03-22T14:17:05Z</time></trkpt><trkpt lat="43.05621391612286" lon="2.599312797708982"><ele>170.0</ele><time>2026-03-22T14:17:06Z</time></trkpt><trkpt lat="43.05619685166748" lon="2.5991855295402013"><ele>170.0</ele><time>2026-03-22T14:17:07Z</time></trkpt><trkpt lat="43.0561686816573" lon="2.5990493622775"><ele>170.0</ele><time>2026-03-22T14:17:08Z</time></trkpt><trkpt lat="43.05613276003776" lon="2.5989262484393723"><ele>170.0</ele><time>2026-03-22T14:17:09Z</time></trkpt><trkpt lat="43.05608943328163" lon="2.5988147533292842"><ele>170.0</ele><time>2026-03-22T14:17:10Z</time></trkpt><trkpt lat="43.05604107381466" lon="2.5987060568270186"><ele>170.0</ele><time>2026-03-22T14:17:11Z</time></trkpt><trkpt lat="43.05601192574095" lon="2.59860520498768"><ele>170.0</ele><time>2026-03-22T14:17:12Z</time></trkpt><trkpt lat="43.05601871789907" lon="2.598409332061024"><ele>170.0</ele><time>2026-03-22T14:17:14Z</time></trkpt><trkpt lat="43.056028763319794" lon="2.5982566420453193"><ele>170.25</ele><time>2026-03-22T14:17:15Z</time></trkpt><trkpt lat="43.05603201466999" lon="2.598097542668038"><ele>170.5</ele><time>2026-03-22T14:17:16Z</time></trkpt><trkpt lat="43.056037353396036" lon="2.597931053066032"><ele>170.75</ele><time>2026-03-22T14:17:17Z</time></trkpt><trkpt lat="43.05604941776838" lon="2.597762342234171"><ele>171.0</ele><time>2026-03-22T14:17:18Z</time></trkpt><trkpt lat="43.05606315032143" lon="2.5975963820018593"><ele>171.75</ele><time>2026-03-22T14:17:19Z</time></trkpt><trkpt lat="43.056063727355344" lon="2.5974352952610227"><ele>172.5</ele><time>2026-03-22T14:17:20Z</time></trkpt><trkpt lat="43.056073520761096" lon="2.597270230280101"><ele>173.25</ele><time>2026-03-22T14:17:21Z</time></trkpt><trkpt lat="43.056053239431655" lon="2.5970981384422487"><ele>174.0</ele><time>2026-03-22T14:17:22Z</time></trkpt><trkpt lat="43.056013179063825" lon="2.5969168986871694"><ele>174.25</ele><time>2026-03-22T14:17:23Z</time></trkpt><trkpt lat="43.05600588395676" lon="2.596726563755827"><ele>174.5</ele><time>2026-03-22T14:17:24Z</time></trkpt><trkpt lat="43.05598252319359" lon="2.596562101284709"><ele>174.75</ele><time>2026-03-22T14:17:25Z</time></trkpt><trkpt lat="43.05601413019431" lon="2.5964009067521547"><ele>175.0</ele><time>2026-03-22T14:17:26Z</time></trkpt><trkpt lat="43.05603742258484" lon="2.5962173255136265"><ele>175.5</ele><time>2026-03-22T14:17:27Z</time></trkpt><trkpt lat="43.05606413461029" lon="2.596019983461266"><ele>176.0</ele><time>2026-03-22T14:17:28Z</time></trkpt><trkpt lat="43.0560716346245" lon="2.595847254034412"><ele>176.5</ele><time>2026-03-22T14:17:29Z</time></trkpt><trkpt lat="43.0560649543681" lon="2.5956789185724958"><ele>177.0</ele><time>2026-03-22T14:17:30Z</time></trkpt><trkpt lat="43.05606086927737" lon="2.595486985109798"><ele>178.5</ele><time>2026-03-22T14:17:31Z</time></trkpt><trkpt lat="43.056069549722984" lon="2.5953034154897936"><ele>180.0</ele><time>2026-03-22T14:17:32Z</time></trkpt><trkpt lat="43.056097198029576" lon="2.595130928947109"><ele>181.5</ele><time>2026-03-22T14:17:33Z</time></trkpt><trkpt lat="43.05613758611374" lon="2.5949508868686357"><ele>183.0</ele><time>2026-03-22T14:17:34Z</time></trkpt><trkpt lat="43.05617133882014" lon="2.5947518783128873"><ele>183.0</ele><time>2026-03-22T14:17:35Z</time></trkpt><trkpt lat="43.056194621411755" lon="2.594583088366739"><ele>183.0</ele><time>2026-03-22T14:17:36Z</time></trkpt><trkpt lat="43.056211252347175" lon="2.594433709529623"><ele>183.0</ele><time>2026-03-22T14:17:37Z</time></trkpt><trkpt lat="43.056232449560056" lon="2.5943007892141785"><ele>183.0</ele><time>2026-03-22T14:17:38Z</time></trkpt><trkpt lat="43.05626170524472" lon="2.5941918372163015"><ele>183.0</ele><time>2026-03-22T14:17:39Z</time></trkpt><trkpt lat="43.05629195761048" lon="2.5940924544052844"><ele>184.33333333333334</ele><time>2026-03-22T14:17:40Z</time></trkpt><trkpt lat="43.05632258236394" lon="2.5940017257911956"><ele>185.66666666666666</ele><time>2026-03-22T14:17:41Z</time></trkpt><trkpt lat="43.056364525550784" lon="2.5938859604442506"><ele>187.0</ele><time>2026-03-22T14:17:43Z</time></trkpt><trkpt lat="43.05638416163646" lon="2.5938029998557606"><ele>188.33333333333331</ele><time>2026-03-22T14:17:45Z</time></trkpt><trkpt lat="43.056383453355295" lon="2.5937131221710614"><ele>189.66666666666666</ele><time>2026-03-22T14:19:30Z</time></trkpt><trkpt lat="43.05637917674693" lon="2.5936149815925393"><ele>191.0</ele><time>2026-03-22T14:19:36Z</time></trkpt><trkpt lat="43.05635719526149" lon="2.59349636275284"><ele>191.8</ele><time>2026-03-22T14:19:38Z</time></trkpt><trkpt lat="43.05635635154495" lon="2.593378668183267"><ele>192.60000000000002</ele><time>2026-03-22T14:19:40Z</time></trkpt><trkpt lat="43.056361017783836" lon="2.5932806565280906"><ele>193.4</ele><time>2026-03-22T14:19:42Z</time></trkpt><trkpt lat="43.056354809411886" lon="2.5931168703933505"><ele>194.2</ele><time>2026-03-22T14:19:44Z</time></trkpt><trkpt lat="43.05635116098123" lon="2.593016528585676"><ele>195.0</ele><time>2026-03-22T14:19:45Z</time></trkpt><trkpt lat="43.05635279099789" lon="2.5928715155603284"><ele>194.5</ele><time>2026-03-22T14:19:46Z</time></trkpt><trkpt lat="43.05634931673663" lon="2.5927578038229178"><ele>194.0</ele><time>2026-03-22T14:19:46.999Z</time></trkpt><trkpt lat="43.05634689963344" lon="2.5926382143591162"><ele>193.5</ele><time>2026-03-22T14:19:47.999Z</time></trkpt><trkpt lat="43.056350656377894" lon="2.592520732184442"><ele>193.0</ele><time>2026-03-22T14:19:48.999Z</time></trkpt><trkpt lat="43.05635107100211" lon="2.5924189420481074"><ele>192.5</ele><time>2026-03-22T14:19:49.999Z</time></trkpt><trkpt lat="43.056351312666955" lon="2.5923153532842305"><ele>192.0</ele><time>2026-03-22T14:19:50.999Z</time></trkpt><trkpt lat="43.05634796956453" lon="2.59221689136412"><ele>192.0</ele><time>2026-03-22T14:19:51.999Z</time></trkpt><trkpt lat="43.05633759325755" lon="2.592125256335425"><ele>192.0</ele><time>2026-03-22T14:19:52.999Z</time></trkpt><trkpt lat="43.05634904413774" lon="2.5920331794508713"><ele>192.0</ele><time>2026-03-22T14:19:53.999Z</time></trkpt><trkpt lat="43.05632302830404" lon="2.5919434668328263"><ele>192.0</ele><time>2026-03-22T14:19:54.999Z</time></trkpt><trkpt lat="43.05626741006414" lon="2.5918696481351025"><ele>192.0</ele><time>2026-03-22T14:19:55.999Z</time></trkpt><trkpt lat="43.05616815340592" lon="2.591865820263974"><ele>192.0</ele><time>2026-03-22T14:19:56.999Z</time></trkpt><trkpt lat="43.05609090283191" lon="2.5918576377224394"><ele>189.6</ele><time>2026-03-22T14:19:57.999Z</time></trkpt><trkpt lat="43.055992622314726" lon="2.591859277539835"><ele>187.2</ele><time>2026-03-22T14:19:58.999Z</time></trkpt><trkpt lat="43.05588345404928" lon="2.5918776913872823"><ele>184.8</ele><time>2026-03-22T14:19:59.999Z</time></trkpt><trkpt lat="43.0557632929875" lon="2.5918496046969968"><ele>182.4</ele><time>2026-03-22T14:20:00.999Z</time></trkpt><trkpt lat="43.05565005062929" lon="2.59180900680668"><ele>180.0</ele><time>2026-03-22T14:20:01.999Z</time></trkpt><trkpt lat="43.055536648590234" lon="2.591739091354278"><ele>180.0</ele><time>2026-03-22T14:20:02.999Z</time></trkpt><trkpt lat="43.055405536985084" lon="2.59164360704281"><ele>180.0</ele><time>2026-03-22T14:20:03.999Z</time></trkpt><trkpt lat="43.055280511305874" lon="2.5915533306226326"><ele>180.0</ele><time>2026-03-22T14:20:04.999Z</time></trkpt><trkpt lat="43.055161838041606" lon="2.5914975806223866"><ele>180.0</ele><time>2026-03-22T14:20:05.999Z</time></trkpt><trkpt lat="43.05505287047006" lon="2.5914464204719945"><ele>184.2</ele><time>2026-03-22T14:20:06.999Z</time></trkpt><trkpt lat="43.054953149801385" lon="2.591401945175033"><ele>188.4</ele><time>2026-03-22T14:20:07.999Z</time></trkpt><trkpt lat="43.054855941894516" lon="2.591373430957965"><ele>192.60000000000002</ele><time>2026-03-22T14:20:08.999Z</time></trkpt><trkpt lat="43.054762341488285" lon="2.5913673229159393"><ele>196.8</ele><time>2026-03-22T14:20:09.999Z</time></trkpt><trkpt lat="43.05467568379271" lon="2.59134292514296"><ele>201.0</ele><time>2026-03-22T14:20:10.999Z</time></trkpt><trkpt lat="43.054595449269456" lon="2.591291808763049"><ele>201.0</ele><time>2026-03-22T14:20:11.999Z</time></trkpt><trkpt lat="43.05452887067342" lon="2.5912028022812628"><ele>201.0</ele><time>2026-03-22T14:20:12.999Z</time></trkpt><trkpt lat="43.05445973473142" lon="2.5910599574272046"><ele>201.0</ele><time>2026-03-22T14:20:13.999Z</time></trkpt><trkpt lat="43.05438383538802" lon="2.590903850452304"><ele>201.0</ele><time>2026-03-22T14:20:14.999Z</time></trkpt><trkpt lat="43.054314471436676" lon="2.59076496076178"><ele>196.75</ele><time>2026-03-22T14:20:15.999Z</time></trkpt><trkpt lat="43.05425924984255" lon="2.590637755179573"><ele>192.5</ele><time>2026-03-22T14:20:16.999Z</time></trkpt><trkpt lat="43.05420790984844" lon="2.5905094011800407"><ele>188.25</ele><time>2026-03-22T14:20:18Z</time></trkpt><trkpt lat="43.05416402729015" lon="2.5903508800077506"><ele>184.0</ele><time>2026-03-22T14:20:19Z</time></trkpt><trkpt lat="43.054138315956166" lon="2.5901540216776877"><ele>186.0</ele><time>2026-03-22T14:20:20Z</time></trkpt><trkpt lat="43.05412430980544" lon="2.589957499557023"><ele>188.0</ele><time>2026-03-22T14:20:21Z</time></trkpt><trkpt lat="43.05407909220524" lon="2.5897883510124036"><ele>190.0</ele><time>2026-03-22T14:20:22Z</time></trkpt><trkpt lat="43.05401219333268" lon="2.5896455610850735"><ele>192.0</ele><time>2026-03-22T14:20:23Z</time></trkpt><trkpt lat="43.0539661707203" lon="2.589504135347515"><ele>192.0</ele><time>2026-03-22T14:20:24Z</time></trkpt><trkpt lat="43.05394599844047" lon="2.58936236494731"><ele>192.0</ele><time>2026-03-22T14:20:25Z</time></trkpt><trkpt lat="43.05394527278532" lon="2.5892134214646974"><ele>192.0</ele><time>2026-03-22T14:20:26Z</time></trkpt><trkpt lat="43.053950670981166" lon="2.589030218505321"><ele>192.0</ele><time>2026-03-22T14:20:27Z</time></trkpt><trkpt lat="43.0539540457908" lon="2.58882933778059"><ele>192.5</ele><time>2026-03-22T14:20:28Z</time></trkpt><trkpt lat="43.05394585463465" lon="2.5886534732551"><ele>193.0</ele><time>2026-03-22T14:20:29Z</time></trkpt><trkpt lat="43.05392853286879" lon="2.5884790031695744"><ele>193.5</ele><time>2026-03-22T14:20:30Z</time></trkpt><trkpt lat="43.05390485189018" lon="2.5883198933717404"><ele>194.0</ele><time>2026-03-22T14:20:31Z</time></trkpt><trkpt lat="43.05387660009131" lon="2.588169424428169"><ele>194.0</ele><time>2026-03-22T14:20:32Z</time></trkpt><trkpt lat="43.05384513781819" lon="2.5880205272217807"><ele>194.0</ele><time>2026-03-22T14:20:33Z</time></trkpt><trkpt lat="43.053803345164965" lon="2.587868475647341"><ele>194.0</ele><time>2026-03-22T14:20:34Z</time></trkpt><trkpt lat="43.05375812653371" lon="2.587715601938444"><ele>194.0</ele><time>2026-03-22T14:20:35Z</time></trkpt><trkpt lat="43.053710639243235" lon="2.587577376451099"><ele>191.0</ele><time>2026-03-22T14:20:36Z</time></trkpt><trkpt lat="43.05366945430508" lon="2.5874536761334004"><ele>188.0</ele><time>2026-03-22T14:20:37Z</time></trkpt><trkpt lat="43.05362089966522" lon="2.5873433743072267"><ele>185.0</ele><time>2026-03-22T14:20:38Z</time></trkpt><trkpt lat="43.053566020077646" lon="2.5872190518017257"><ele>182.0</ele><time>2026-03-22T14:20:39Z</time></trkpt><trkpt lat="43.05349224477393" lon="2.5870958088846994"><ele>179.0</ele><time>2026-03-22T14:20:40Z</time></trkpt><trkpt lat="43.053402262768785" lon="2.5869830147332062"><ele>176.39999999999998</ele><time>2026-03-22T14:20:41Z</time></trkpt><trkpt lat="43.053313368577705" lon="2.5868762251451796"><ele>173.8</ele><time>2026-03-22T14:20:42Z</time></trkpt><trkpt lat="43.05322599295458" lon="2.586780944688693"><ele>171.2</ele><time>2026-03-22T14:20:43Z</time></trkpt><trkpt lat="43.053149757939735" lon="2.5866934356830518"><ele>168.60000000000002</ele><time>2026-03-22T14:20:44Z</time></trkpt><trkpt lat="43.053068640100896" lon="2.5866133917878162"><ele>166.0</ele><time>2026-03-22T14:20:45Z</time></trkpt><trkpt lat="43.05297123862914" lon="2.586552201435415"><ele>166.0</ele><time>2026-03-22T14:20:46Z</time></trkpt><trkpt lat="43.052872613674786" lon="2.586516799745634"><ele>166.0</ele><time>2026-03-22T14:20:47Z</time></trkpt><trkpt lat="43.0527708428823" lon="2.586509073620978"><ele>166.0</ele><time>2026-03-22T14:20:48Z</time></trkpt><trkpt lat="43.05267449086415" lon="2.586542818991149"><ele>166.0</ele><time>2026-03-22T14:20:49Z</time></trkpt><trkpt lat="43.05256496269734" lon="2.586582490238869"><ele>166.0</ele><time>2026-03-22T14:20:50Z</time></trkpt><trkpt lat="43.05242986027316" lon="2.58664879210161"><ele>165.0</ele><time>2026-03-22T14:20:51Z</time></trkpt><trkpt lat="43.05226151995093" lon="2.586736919319458"><ele>164.0</ele><time>2026-03-22T14:20:52Z</time></trkpt><trkpt lat="43.05209847178661" lon="2.5868192457634214"><ele>163.0</ele><time>2026-03-22T14:20:53Z</time></trkpt><trkpt lat="43.051917152443956" lon="2.5869232344997757"><ele>163.33333333333334</ele><time>2026-03-22T14:20:54Z</time></trkpt><trkpt lat="43.051730617014194" lon="2.5870369742435138"><ele>163.66666666666666</ele><time>2026-03-22T14:20:55Z</time></trkpt><trkpt lat="43.05153664344582" lon="2.58714709279521"><ele>164.0</ele><time>2026-03-22T14:20:56Z</time></trkpt><trkpt lat="43.05136342954683" lon="2.5872516550337026"><ele>164.0</ele><time>2026-03-22T14:20:57Z</time></trkpt><trkpt lat="43.05119562290559" lon="2.587346852686028"><ele>164.0</ele><time>2026-03-22T14:20:58Z</time></trkpt><trkpt lat="43.051010167483206" lon="2.587453949320393"><ele>164.0</ele><time>2026-03-22T14:20:59Z</time></trkpt><trkpt lat="43.05083745083228" lon="2.5875670366183976"><ele>164.33333333333331</ele><time>2026-03-22T14:21:00Z</time></trkpt><trkpt lat="43.05068427943861" lon="2.5876681519806795"><ele>164.66666666666666</ele><time>2026-03-22T14:21:01Z</time></trkpt><trkpt lat="43.05055180078768" lon="2.5877634150411484"><ele>165.0</ele><time>2026-03-22T14:21:02Z</time></trkpt><trkpt lat="43.05040941231291" lon="2.5878584898464583"><ele>165.5</ele><time>2026-03-22T14:21:03Z</time></trkpt><trkpt lat="43.05027511635849" lon="2.587953869043092"><ele>166.0</ele><time>2026-03-22T14:21:04Z</time></trkpt><trkpt lat="43.0501505218006" lon="2.58803469142143"><ele>166.5</ele><time>2026-03-22T14:21:05Z</time></trkpt><trkpt lat="43.05001516859944" lon="2.588118545200347"><ele>167.0</ele><time>2026-03-22T14:21:06Z</time></trkpt><trkpt lat="43.0498879600645" lon="2.588199251190694"><ele>167.25</ele><time>2026-03-22T14:21:07Z</time></trkpt><trkpt lat="43.04977703355357" lon="2.5882651699173063"><ele>167.5</ele><time>2026-03-22T14:21:08Z</time></trkpt><trkpt lat="43.04967150912157" lon="2.5883348969655806"><ele>167.75</ele><time>2026-03-22T14:21:09Z</time></trkpt><trkpt lat="43.0495681227596" lon="2.588429400885101"><ele>168.0</ele><time>2026-03-22T14:21:10Z</time></trkpt><trkpt lat="43.049460026206255" lon="2.58855854285513"><ele>166.0</ele><time>2026-03-22T14:21:11Z</time></trkpt><trkpt lat="43.04935412591966" lon="2.5887243771065083"><ele>164.0</ele><time>2026-03-22T14:21:12Z</time></trkpt><trkpt lat="43.04921292213688" lon="2.588864931449616"><ele>162.0</ele><time>2026-03-22T14:21:13Z</time></trkpt><trkpt lat="43.04906209194659" lon="2.5890399346203643"><ele>162.0</ele><time>2026-03-22T14:21:14Z</time></trkpt><trkpt lat="43.04892443565688" lon="2.589192792430612"><ele>162.0</ele><time>2026-03-22T14:21:15Z</time></trkpt><trkpt lat="43.04878732086935" lon="2.5893214443504213"><ele>162.0</ele><time>2026-03-22T14:21:16Z</time></trkpt><trkpt lat="43.0486463696474" lon="2.589434071632225"><ele>166.0</ele><time>2026-03-22T14:21:17Z</time></trkpt><trkpt lat="43.04852367068667" lon="2.58953405181802"><ele>170.0</ele><time>2026-03-22T14:21:18Z</time></trkpt><trkpt lat="43.04841938285966" lon="2.589632877420536"><ele>174.0</ele><time>2026-03-22T14:21:19Z</time></trkpt><trkpt lat="43.048326562292736" lon="2.589743091947537"><ele>178.0</ele><time>2026-03-22T14:21:20Z</time></trkpt><trkpt lat="43.04821797514783" lon="2.5898158740923365"><ele>178.0</ele><time>2026-03-22T14:21:21Z</time></trkpt><trkpt lat="43.048088683801105" lon="2.5898679827857953"><ele>178.0</ele><time>2026-03-22T14:21:22Z</time></trkpt><trkpt lat="43.047943814573266" lon="2.589905612074875"><ele>178.0</ele><time>2026-03-22T14:21:23Z</time></trkpt><trkpt lat="43.0478058189032" lon="2.589923107656831"><ele>178.0</ele><time>2026-03-22T14:21:24Z</time></trkpt><trkpt lat="43.04766336172189" lon="2.5899084426930434"><ele>178.0</ele><time>2026-03-22T14:21:25Z</time></trkpt><trkpt lat="43.04753440110262" lon="2.5898768948553497"><ele>178.0</ele><time>2026-03-22T14:21:26Z</time></trkpt><trkpt lat="43.047420282433364" lon="2.589827433835729"><ele>178.0</ele><time>2026-03-22T14:21:27Z</time></trkpt><trkpt lat="43.04731406415171" lon="2.589761822068106"><ele>178.0</ele><time>2026-03-22T14:21:28Z</time></trkpt><trkpt lat="43.047204600942656" lon="2.589674163903103"><ele>179.4</ele><time>2026-03-22T14:21:29Z</time></trkpt><trkpt lat="43.04710647849292" lon="2.5895776369845764"><ele>180.8</ele><time>2026-03-22T14:21:30Z</time></trkpt><trkpt lat="43.04702805628063" lon="2.589480375192444"><ele>182.2</ele><time>2026-03-22T14:21:31Z</time></trkpt><trkpt lat="43.04696463491113" lon="2.58937910596964"><ele>183.6</ele><time>2026-03-22T14:21:32Z</time></trkpt><trkpt lat="43.04691896944848" lon="2.589291384601714"><ele>185.0</ele><time>2026-03-22T14:21:33Z</time></trkpt><trkpt lat="43.046886211568946" lon="2.5891680863401656"><ele>185.0</ele><time>2026-03-22T14:21:34Z</time></trkpt><trkpt lat="43.04686235441542" lon="2.5890225167680034"><ele>185.0</ele><time>2026-03-22T14:21:35Z</time></trkpt><trkpt lat="43.04685306135421" lon="2.588868102624881"><ele>185.0</ele><time>2026-03-22T14:21:36Z</time></trkpt><trkpt lat="43.046847740664305" lon="2.5886956109648613"><ele>185.0</ele><time>2026-03-22T14:21:37Z</time></trkpt><trkpt lat="43.04684095596329" lon="2.5885279605135842"><ele>184.0</ele><time>2026-03-22T14:21:37.999Z</time></trkpt><trkpt lat="43.04682812138635" lon="2.5883750565751984"><ele>183.0</ele><time>2026-03-22T14:21:38.999Z</time></trkpt><trkpt lat="43.04683641469039" lon="2.5882178853057876"><ele>182.0</ele><time>2026-03-22T14:21:39.999Z</time></trkpt><trkpt lat="43.04684451607339" lon="2.588056894757637"><ele>181.0</ele><time>2026-03-22T14:21:40.999Z</time></trkpt><trkpt lat="43.04687258494076" lon="2.5878914438321257"><ele>184.5</ele><time>2026-03-22T14:21:41.999Z</time></trkpt><trkpt lat="43.04690976094832" lon="2.5877272735475763"><ele>188.0</ele><time>2026-03-22T14:21:42.999Z</time></trkpt><trkpt lat="43.04696544703447" lon="2.587569058895543"><ele>191.5</ele><time>2026-03-22T14:21:43.999Z</time></trkpt><trkpt lat="43.04703836218102" lon="2.587425893147229"><ele>195.0</ele><time>2026-03-22T14:21:44.999Z</time></trkpt><trkpt lat="43.04712636357812" lon="2.587288575804657"><ele>195.0</ele><time>2026-03-22T14:21:45.999Z</time></trkpt><trkpt lat="43.04723721253381" lon="2.5871438737520123"><ele>195.0</ele><time>2026-03-22T14:21:46.999Z</time></trkpt><trkpt lat="43.04736545181999" lon="2.5869787420977057"><ele>195.0</ele><time>2026-03-22T14:21:47.999Z</time></trkpt><trkpt lat="43.04749223096762" lon="2.5868060078272306"><ele>190.0</ele><time>2026-03-22T14:21:48.999Z</time></trkpt><trkpt lat="43.04761798977176" lon="2.586645677720865"><ele>185.0</ele><time>2026-03-22T14:21:49.999Z</time></trkpt><trkpt lat="43.04774872554382" lon="2.5864982909704546"><ele>180.0</ele><time>2026-03-22T14:21:50.999Z</time></trkpt><trkpt lat="43.047875892694115" lon="2.586359968600748"><ele>180.0</ele><time>2026-03-22T14:21:51.999Z</time></trkpt><trkpt lat="43.04801122500679" lon="2.5862250450359543"><ele>180.0</ele><time>2026-03-22T14:21:52.999Z</time></trkpt><trkpt lat="43.04814666778025" lon="2.5860985276920054"><ele>180.0</ele><time>2026-03-22T14:21:53.999Z</time></trkpt><trkpt lat="43.04826122407619" lon="2.5859913080645627"><ele>179.4</ele><time>2026-03-22T14:21:54.999Z</time></trkpt><trkpt lat="43.04835148089691" lon="2.585900081161321"><ele>178.8</ele><time>2026-03-22T14:21:55.999Z</time></trkpt><trkpt lat="43.0484388419507" lon="2.5858137504330463"><ele>178.2</ele><time>2026-03-22T14:21:56.999Z</time></trkpt><trkpt lat="43.0485077529947" lon="2.5857155008980595"><ele>177.6</ele><time>2026-03-22T14:21:57.999Z</time></trkpt><trkpt lat="43.04855776386688" lon="2.585606364947047"><ele>177.0</ele><time>2026-03-22T14:21:58.999Z</time></trkpt><trkpt lat="43.048596776324935" lon="2.5854748771619023"><ele>180.0</ele><time>2026-03-22T14:21:59.999Z</time></trkpt><trkpt lat="43.04862389758817" lon="2.585313634688904"><ele>183.0</ele><time>2026-03-22T14:22:00.999Z</time></trkpt><trkpt lat="43.04864616468208" lon="2.5851264763455637"><ele>186.0</ele><time>2026-03-22T14:22:01.999Z</time></trkpt><trkpt lat="43.04866833225898" lon="2.5849337944195003"><ele>189.0</ele><time>2026-03-22T14:22:02.999Z</time></trkpt><trkpt lat="43.048691080073965" lon="2.584746555229078"><ele>189.0</ele><time>2026-03-22T14:22:03.999Z</time></trkpt><trkpt lat="43.04871587333964" lon="2.584574483652486"><ele>189.0</ele><time>2026-03-22T14:22:04.999Z</time></trkpt><trkpt lat="43.048732994299904" lon="2.584425315833346"><ele>189.0</ele><time>2026-03-22T14:22:05.999Z</time></trkpt><trkpt lat="43.048740242685724" lon="2.5842825281324386"><ele>189.0</ele><time>2026-03-22T14:22:06.999Z</time></trkpt><trkpt lat="43.04873239654182" lon="2.58414263164486"><ele>189.0</ele><time>2026-03-22T14:22:07.999Z</time></trkpt><trkpt lat="43.04870540525575" lon="2.584006024063297"><ele>188.75</ele><time>2026-03-22T14:22:08.999Z</time></trkpt><trkpt lat="43.048656895430454" lon="2.5838693320579496"><ele>188.5</ele><time>2026-03-22T14:22:09.999Z</time></trkpt><trkpt lat="43.04857629886438" lon="2.58374509843957"><ele>188.25</ele><time>2026-03-22T14:22:10.999Z</time></trkpt><trkpt lat="43.048478255363555" lon="2.583614112354573"><ele>188.0</ele><time>2026-03-22T14:22:11.999Z</time></trkpt><trkpt lat="43.048358090960264" lon="2.5834911870388413"><ele>186.25</ele><time>2026-03-22T14:22:12.999Z</time></trkpt><trkpt lat="43.04824219194185" lon="2.58338164096216"><ele>184.5</ele><time>2026-03-22T14:22:13.999Z</time></trkpt><trkpt lat="43.048128361810804" lon="2.583290554573536"><ele>182.75</ele><time>2026-03-22T14:22:14.999Z</time></trkpt><trkpt lat="43.048023470456506" lon="2.583222961062482"><ele>181.0</ele><time>2026-03-22T14:22:15.999Z</time></trkpt><trkpt lat="43.04790544179157" lon="2.5831812810190655"><ele>181.0</ele><time>2026-03-22T14:22:16.999Z</time></trkpt><trkpt lat="43.04775107588573" lon="2.5831410743535335"><ele>181.0</ele><time>2026-03-22T14:22:17.999Z</time></trkpt><trkpt lat="43.047572677177314" lon="2.583090081822739"><ele>181.0</ele><time>2026-03-22T14:22:18.999Z</time></trkpt><trkpt lat="43.04736216066242" lon="2.583031541821421"><ele>183.0</ele><time>2026-03-22T14:22:19.999Z</time></trkpt><trkpt lat="43.04715781971455" lon="2.5829757652470025"><ele>185.0</ele><time>2026-03-22T14:22:20.999Z</time></trkpt><trkpt lat="43.04698153753347" lon="2.582922797108768"><ele>187.0</ele><time>2026-03-22T14:22:21.999Z</time></trkpt><trkpt lat="43.04681785921112" lon="2.5828654589058906"><ele>182.0</ele><time>2026-03-22T14:22:22.999Z</time></trkpt><trkpt lat="43.046637785848425" lon="2.582802622709837"><ele>177.0</ele><time>2026-03-22T14:22:24Z</time></trkpt><trkpt lat="43.046465029349726" lon="2.58275037928138"><ele>172.0</ele><time>2026-03-22T14:22:25Z</time></trkpt><trkpt lat="43.046312165203524" lon="2.5827072922307392"><ele>172.0</ele><time>2026-03-22T14:22:26Z</time></trkpt><trkpt lat="43.04616580636737" lon="2.58267289004411"><ele>172.0</ele><time>2026-03-22T14:22:27Z</time></trkpt><trkpt lat="43.04603498437723" lon="2.582644357730926"><ele>172.0</ele><time>2026-03-22T14:22:28Z</time></trkpt><trkpt lat="43.04590660921252" lon="2.5826228327527248"><ele>172.0</ele><time>2026-03-22T14:22:29Z</time></trkpt><trkpt lat="43.045764394882674" lon="2.5826074135099177"><ele>172.25</ele><time>2026-03-22T14:22:30Z</time></trkpt><trkpt lat="43.04563636870291" lon="2.582619428153449"><ele>172.5</ele><time>2026-03-22T14:22:31Z</time></trkpt><trkpt lat="43.04550875810877" lon="2.582650326550591"><ele>172.75</ele><time>2026-03-22T14:22:32Z</time></trkpt><trkpt lat="43.04536176145235" lon="2.5826945595119213"><ele>173.0</ele><time>2026-03-22T14:22:33Z</time></trkpt><trkpt lat="43.045210206573195" lon="2.582761646824233"><ele>173.0</ele><time>2026-03-22T14:22:34Z</time></trkpt><trkpt lat="43.04506657553558" lon="2.582826719861155"><ele>173.0</ele><time>2026-03-22T14:22:35Z</time></trkpt><trkpt lat="43.04495572599065" lon="2.5828910785060466"><ele>173.0</ele><time>2026-03-22T14:22:36Z</time></trkpt><trkpt lat="43.044847762046224" lon="2.5829567098246673"><ele>173.0</ele><time>2026-03-22T14:22:37Z</time></trkpt><trkpt lat="43.04473950002811" lon="2.583030974547292"><ele>177.25</ele><time>2026-03-22T14:22:38Z</time></trkpt><trkpt lat="43.04461733280981" lon="2.5830961065171825"><ele>181.5</ele><time>2026-03-22T14:22:39Z</time></trkpt><trkpt lat="43.044490466029" lon="2.583138692759106"><ele>185.75</ele><time>2026-03-22T14:22:40Z</time></trkpt><trkpt lat="43.04436450752637" lon="2.5831545924034565"><ele>190.0</ele><time>2026-03-22T14:22:41Z</time></trkpt><trkpt lat="43.0442330867189" lon="2.5831430279882652"><ele>191.25</ele><time>2026-03-22T14:22:42Z</time></trkpt><trkpt lat="43.04408353069192" lon="2.583122398823662"><ele>192.5</ele><time>2026-03-22T14:22:43Z</time></trkpt><trkpt lat="43.04394744195451" lon="2.5830874926428105"><ele>193.75</ele><time>2026-03-22T14:22:44Z</time></trkpt><trkpt lat="43.0438321046947" lon="2.5830467754662867"><ele>195.0</ele><time>2026-03-22T14:22:45Z</time></trkpt><trkpt lat="43.043723188953024" lon="2.5829893202253147"><ele>195.0</ele><time>2026-03-22T14:22:46Z</time></trkpt><trkpt lat="43.04362488580125" lon="2.582937707798599"><ele>195.0</ele><time>2026-03-22T14:22:47Z</time></trkpt><trkpt lat="43.0435468231387" lon="2.5828768160593523"><ele>195.0</ele><time>2026-03-22T14:22:48Z</time></trkpt><trkpt lat="43.0434884640673" lon="2.5827834269497885"><ele>195.0</ele><time>2026-03-22T14:22:49Z</time></trkpt><trkpt lat="43.043443155521736" lon="2.5826601410418952"><ele>195.0</ele><time>2026-03-22T14:22:50Z</time></trkpt><trkpt lat="43.043422444713066" lon="2.582511862018644"><ele>191.0</ele><time>2026-03-22T14:22:51Z</time></trkpt><trkpt lat="43.043409906614876" lon="2.582336114901332"><ele>187.0</ele><time>2026-03-22T14:22:52Z</time></trkpt><trkpt lat="43.04340231591881" lon="2.5821061924013455"><ele>183.0</ele><time>2026-03-22T14:22:53Z</time></trkpt><trkpt lat="43.04337426004155" lon="2.5818620631346363"><ele>182.0</ele><time>2026-03-22T14:22:54Z</time></trkpt><trkpt lat="43.04333774609832" lon="2.5816252068298944"><ele>181.0</ele><time>2026-03-22T14:22:55Z</time></trkpt><trkpt lat="43.04331924925524" lon="2.581424885311622"><ele>180.0</ele><time>2026-03-22T14:22:56Z</time></trkpt><trkpt lat="43.04332401521509" lon="2.5812469770624356"><ele>179.33333333333334</ele><time>2026-03-22T14:22:57Z</time></trkpt><trkpt lat="43.04334902368975" lon="2.5810516869872813"><ele>178.66666666666669</ele><time>2026-03-22T14:22:58Z</time></trkpt><trkpt lat="43.04337630379254" lon="2.5808454243682597"><ele>178.0</ele><time>2026-03-22T14:22:59Z</time></trkpt><trkpt lat="43.043383865569176" lon="2.580634401707822"><ele>178.0</ele><time>2026-03-22T14:23:00Z</time></trkpt><trkpt lat="43.04338000308849" lon="2.5804485068624397"><ele>178.0</ele><time>2026-03-22T14:23:01Z</time></trkpt><trkpt lat="43.04336553382459" lon="2.580254161306163"><ele>178.0</ele><time>2026-03-22T14:23:02Z</time></trkpt><trkpt lat="43.04336530128102" lon="2.5800357916127976"><ele>178.0</ele><time>2026-03-22T14:23:03Z</time></trkpt><trkpt lat="43.043380795682474" lon="2.5798260564326436"><ele>179.0</ele><time>2026-03-22T14:23:04Z</time></trkpt><trkpt lat="43.043390654907405" lon="2.57962795795468"><ele>180.0</ele><time>2026-03-22T14:23:05Z</time></trkpt><trkpt lat="43.04338274700846" lon="2.5794183768835697"><ele>181.0</ele><time>2026-03-22T14:23:06Z</time></trkpt><trkpt lat="43.043356435717634" lon="2.579179671940741"><ele>181.0</ele><time>2026-03-22T14:23:07Z</time></trkpt><trkpt lat="43.043319317772486" lon="2.5789303915519124"><ele>181.0</ele><time>2026-03-22T14:23:08Z</time></trkpt><trkpt lat="43.043284260370726" lon="2.578705117687109"><ele>181.0</ele><time>2026-03-22T14:23:09Z</time></trkpt><trkpt lat="43.043244697931705" lon="2.5784784515997496"><ele>189.66666666666669</ele><time>2026-03-22T14:23:10Z</time></trkpt><trkpt lat="43.04319668745827" lon="2.578265133351002"><ele>198.33333333333334</ele><time>2026-03-22T14:23:11Z</time></trkpt><trkpt lat="43.04313476216752" lon="2.5780686615166397"><ele>207.0</ele><time>2026-03-22T14:23:12Z</time></trkpt><trkpt lat="43.043060011456745" lon="2.577867621990076"><ele>202.33333333333331</ele><time>2026-03-22T14:23:13Z</time></trkpt><trkpt lat="43.04296867365719" lon="2.577642036771147"><ele>197.66666666666666</ele><time>2026-03-22T14:23:14Z</time></trkpt><trkpt lat="43.04285983162206" lon="2.5773995426011416"><ele>193.0</ele><time>2026-03-22T14:23:15Z</time></trkpt><trkpt lat="43.04277376160548" lon="2.577179185496084"><ele>190.5</ele><time>2026-03-22T14:23:16Z</time></trkpt><trkpt lat="43.04271516477091" lon="2.576980052109149"><ele>188.0</ele><time>2026-03-22T14:23:17Z</time></trkpt><trkpt lat="43.04266042120819" lon="2.57678825768108"><ele>185.5</ele><time>2026-03-22T14:23:18Z</time></trkpt><trkpt lat="43.0426032150813" lon="2.57661872748079"><ele>183.0</ele><time>2026-03-22T14:23:19Z</time></trkpt><trkpt lat="43.04252326657264" lon="2.5764562016264705"><ele>186.33333333333331</ele><time>2026-03-22T14:23:20Z</time></trkpt><trkpt lat="43.04241409370856" lon="2.5762767352977236"><ele>189.66666666666666</ele><time>2026-03-22T14:23:21Z</time></trkpt><trkpt lat="43.042301682617136" lon="2.5760833224114292"><ele>193.0</ele><time>2026-03-22T14:23:22Z</time></trkpt><trkpt lat="43.04219187311278" lon="2.5759238130831217"><ele>193.0</ele><time>2026-03-22T14:23:23Z</time></trkpt><trkpt lat="43.042094733265834" lon="2.575763950776892"><ele>193.0</ele><time>2026-03-22T14:23:24Z</time></trkpt><trkpt lat="43.04199156481392" lon="2.575600594139316"><ele>193.0</ele><time>2026-03-22T14:23:25Z</time></trkpt><trkpt lat="43.04189153575032" lon="2.575458283285659"><ele>189.5</ele><time>2026-03-22T14:23:26Z</time></trkpt><trkpt lat="43.04177981484587" lon="2.5753246385426234"><ele>186.0</ele><time>2026-03-22T14:23:27Z</time></trkpt><trkpt lat="43.04166871626948" lon="2.575207635901017"><ele>182.5</ele><time>2026-03-22T14:23:28Z</time></trkpt><trkpt lat="43.041567869663105" lon="2.575107515655713"><ele>179.0</ele><time>2026-03-22T14:23:29Z</time></trkpt><trkpt lat="43.0414739712461" lon="2.5750068868987754"><ele>179.0</ele><time>2026-03-22T14:23:30Z</time></trkpt><trkpt lat="43.0413806344867" lon="2.5749258179954087"><ele>179.0</ele><time>2026-03-22T14:23:31Z</time></trkpt><trkpt lat="43.041300880413736" lon="2.574889212967223"><ele>179.0</ele><time>2026-03-22T14:23:32Z</time></trkpt><trkpt lat="43.04121114656163" lon="2.574841150840115"><ele>179.0</ele><time>2026-03-22T14:23:33Z</time></trkpt><trkpt lat="43.04112108490187" lon="2.5747623993106075"><ele>179.0</ele><time>2026-03-22T14:23:34Z</time></trkpt><trkpt lat="43.04104592247239" lon="2.5746343160647656"><ele>177.33333333333331</ele><time>2026-03-22T14:23:35Z</time></trkpt><trkpt lat="43.04098117699756" lon="2.5744569784988327"><ele>175.66666666666666</ele><time>2026-03-22T14:23:36Z</time></trkpt><trkpt lat="43.04090073223196" lon="2.57423820080376"><ele>174.0</ele><time>2026-03-22T14:23:37Z</time></trkpt><trkpt lat="43.04082480492627" lon="2.5740261431572065"><ele>175.66666666666666</ele><time>2026-03-22T14:23:38Z</time></trkpt><trkpt lat="43.04074551058313" lon="2.573806690136171"><ele>177.33333333333331</ele><time>2026-03-22T14:23:39Z</time></trkpt><trkpt lat="43.040666010107294" lon="2.573592317995234"><ele>179.0</ele><time>2026-03-22T14:23:40Z</time></trkpt><trkpt lat="43.04057410640867" lon="2.5734114703580113"><ele>181.66666666666666</ele><time>2026-03-22T14:23:41Z</time></trkpt><trkpt lat="43.040473251652216" lon="2.573201369952053"><ele>184.33333333333334</ele><time>2026-03-22T14:23:42Z</time></trkpt><trkpt lat="43.0403420328182" lon="2.572965314743804"><ele>187.0</ele><time>2026-03-22T14:23:43Z</time></trkpt><trkpt lat="43.04021676469473" lon="2.572741053844938"><ele>187.0</ele><time>2026-03-22T14:23:44Z</time></trkpt><trkpt lat="43.040103123663556" lon="2.5725255276437284"><ele>187.0</ele><time>2026-03-22T14:23:45Z</time></trkpt><trkpt lat="43.03999822164336" lon="2.5723130738073827"><ele>187.0</ele><time>2026-03-22T14:23:46Z</time></trkpt><trkpt lat="43.03990314198504" lon="2.5721306255393666"><ele>191.0</ele><time>2026-03-22T14:23:47Z</time></trkpt><trkpt lat="43.03981396058202" lon="2.5719672578539576"><ele>195.0</ele><time>2026-03-22T14:23:48Z</time></trkpt><trkpt lat="43.03973453584826" lon="2.5718135556248565"><ele>199.0</ele><time>2026-03-22T14:23:49Z</time></trkpt><trkpt lat="43.039659330621014" lon="2.5716609919104734"><ele>203.0</ele><time>2026-03-22T14:23:50Z</time></trkpt><trkpt lat="43.039593705368574" lon="2.5714918414267434"><ele>203.0</ele><time>2026-03-22T14:23:51Z</time></trkpt><trkpt lat="43.03954244240262" lon="2.5712970530203068"><ele>203.0</ele><time>2026-03-22T14:23:52Z</time></trkpt><trkpt lat="43.0395018961065" lon="2.571099466406316"><ele>203.0</ele><time>2026-03-22T14:23:53Z</time></trkpt><trkpt lat="43.03947904375015" lon="2.5709002827328526"><ele>203.0</ele><time>2026-03-22T14:23:54Z</time></trkpt><trkpt lat="43.039450981008414" lon="2.570734314355116"><ele>201.75</ele><time>2026-03-22T14:23:55Z</time></trkpt><trkpt lat="43.03942869337652" lon="2.5705829860936023"><ele>200.5</ele><time>2026-03-22T14:23:56Z</time></trkpt><trkpt lat="43.03940524030642" lon="2.570409119004456"><ele>199.25</ele><time>2026-03-22T14:23:56.999Z</time></trkpt><trkpt lat="43.03938895691303" lon="2.570233044077254"><ele>198.0</ele><time>2026-03-22T14:23:57.999Z</time></trkpt><trkpt lat="43.03938777435397" lon="2.5700533392874947"><ele>198.0</ele><time>2026-03-22T14:23:58.999Z</time></trkpt><trkpt lat="43.03940159857301" lon="2.5698574835475623"><ele>198.0</ele><time>2026-03-22T14:23:59.999Z</time></trkpt><trkpt lat="43.03943075294952" lon="2.5696547247443533"><ele>198.0</ele><time>2026-03-22T14:24:00.999Z</time></trkpt><trkpt lat="43.03945968618996" lon="2.5694838033712095"><ele>198.0</ele><time>2026-03-22T14:24:01.999Z</time></trkpt><trkpt lat="43.03949665857714" lon="2.569325786916145"><ele>198.0</ele><time>2026-03-22T14:24:02.999Z</time></trkpt><trkpt lat="43.039554930041824" lon="2.569176809397443"><ele>198.0</ele><time>2026-03-22T14:24:03.999Z</time></trkpt><trkpt lat="43.03963255957801" lon="2.569031538277358"><ele>198.0</ele><time>2026-03-22T14:24:04.999Z</time></trkpt><trkpt lat="43.039759986033154" lon="2.56891743511854"><ele>198.0</ele><time>2026-03-22T14:24:05.999Z</time></trkpt><trkpt lat="43.03986316813953" lon="2.5687917909510767"><ele>196.0</ele><time>2026-03-22T14:24:06.999Z</time></trkpt><trkpt lat="43.039953354329995" lon="2.5686856410039516"><ele>194.0</ele><time>2026-03-22T14:24:07.999Z</time></trkpt><trkpt lat="43.04001350296943" lon="2.5685474323072417"><ele>192.0</ele><time>2026-03-22T14:24:08.999Z</time></trkpt><trkpt lat="43.04007117251284" lon="2.5684215534921093"><ele>190.0</ele><time>2026-03-22T14:24:09.999Z</time></trkpt><trkpt lat="43.040126481202414" lon="2.568314289259073"><ele>188.0</ele><time>2026-03-22T14:24:10.999Z</time></trkpt><trkpt lat="43.04019789395092" lon="2.5682341019839203"><ele>188.0</ele><time>2026-03-22T14:24:11.999Z</time></trkpt><trkpt lat="43.04028472400489" lon="2.5681685488594947"><ele>188.0</ele><time>2026-03-22T14:24:12.999Z</time></trkpt><trkpt lat="43.0403730443078" lon="2.568127405968299"><ele>188.0</ele><time>2026-03-22T14:24:13.999Z</time></trkpt><trkpt lat="43.040464942986475" lon="2.568085485089678"><ele>188.0</ele><time>2026-03-22T14:24:14.999Z</time></trkpt><trkpt lat="43.04057577641262" lon="2.5680168133011736"><ele>188.0</ele><time>2026-03-22T14:24:15.999Z</time></trkpt><trkpt lat="43.04068391168942" lon="2.56793730897446"><ele>188.0</ele><time>2026-03-22T14:24:16.999Z</time></trkpt><trkpt lat="43.04079695358812" lon="2.567864305715911"><ele>188.0</ele><time>2026-03-22T14:24:17.999Z</time></trkpt><trkpt lat="43.04092175614699" lon="2.5678073373443024"><ele>188.0</ele><time>2026-03-22T14:24:18.999Z</time></trkpt><trkpt lat="43.04107461314811" lon="2.567748205355898"><ele>188.0</ele><time>2026-03-22T14:24:19.999Z</time></trkpt><trkpt lat="43.04122773073643" lon="2.567702856133107"><ele>189.0</ele><time>2026-03-22T14:24:20.999Z</time></trkpt><trkpt lat="43.04137003216985" lon="2.5676341353211174"><ele>190.0</ele><time>2026-03-22T14:24:21.999Z</time></trkpt><trkpt lat="43.041500236266316" lon="2.567536441928664"><ele>191.0</ele><time>2026-03-22T14:24:22.999Z</time></trkpt><trkpt lat="43.04162350144098" lon="2.567424706819104"><ele>192.0</ele><time>2026-03-22T14:24:23.999Z</time></trkpt><trkpt lat="43.04174233977901" lon="2.567277270854114"><ele>192.0</ele><time>2026-03-22T14:24:24.999Z</time></trkpt><trkpt lat="43.041882075249774" lon="2.567085520310845"><ele>192.0</ele><time>2026-03-22T14:24:25.999Z</time></trkpt><trkpt lat="43.04203346901681" lon="2.5668770309475435"><ele>192.0</ele><time>2026-03-22T14:24:26.999Z</time></trkpt><trkpt lat="43.04217637128748" lon="2.5667174965425636"><ele>192.0</ele><time>2026-03-22T14:24:27.999Z</time></trkpt><trkpt lat="43.04230895664497" lon="2.566600808771041"><ele>192.0</ele><time>2026-03-22T14:24:28.999Z</time></trkpt><trkpt lat="43.0424349554192" lon="2.566496789159856"><ele>192.0</ele><time>2026-03-22T14:24:30Z</time></trkpt><trkpt lat="43.042537323075265" lon="2.5664025036665596"><ele>192.0</ele><time>2026-03-22T14:24:31Z</time></trkpt><trkpt lat="43.04262209081466" lon="2.5663259843178072"><ele>191.0</ele><time>2026-03-22T14:24:32Z</time></trkpt><trkpt lat="43.0426923721198" lon="2.5662327943467713"><ele>190.0</ele><time>2026-03-22T14:24:33Z</time></trkpt><trkpt lat="43.04276519912365" lon="2.5661007582505424"><ele>189.0</ele><time>2026-03-22T14:24:34Z</time></trkpt><trkpt lat="43.04282474295958" lon="2.5659742930443703"><ele>188.0</ele><time>2026-03-22T14:24:35Z</time></trkpt><trkpt lat="43.04287524831888" lon="2.5658556358734526"><ele>187.0</ele><time>2026-03-22T14:24:36Z</time></trkpt><trkpt lat="43.0429053832664" lon="2.5657253085452183"><ele>187.0</ele><time>2026-03-22T14:24:37Z</time></trkpt><trkpt lat="43.042908942988085" lon="2.565582906283531"><ele>187.0</ele><time>2026-03-22T14:24:38Z</time></trkpt><trkpt lat="43.042890929447836" lon="2.5654412059617715"><ele>187.0</ele><time>2026-03-22T14:24:39Z</time></trkpt><trkpt lat="43.04283607247767" lon="2.565300728490009"><ele>187.0</ele><time>2026-03-22T14:24:40Z</time></trkpt><trkpt lat="43.04276273121907" lon="2.565180256066364"><ele>187.0</ele><time>2026-03-22T14:24:41Z</time></trkpt><trkpt lat="43.042656902214986" lon="2.5650629778400487"><ele>187.0</ele><time>2026-03-22T14:24:42Z</time></trkpt><trkpt lat="43.04252528373065" lon="2.5649481401427776"><ele>187.0</ele><time>2026-03-22T14:24:43Z</time></trkpt><trkpt lat="43.04238298613399" lon="2.564850454284019"><ele>187.0</ele><time>2026-03-22T14:24:44Z</time></trkpt><trkpt lat="43.04224657843407" lon="2.564780252937516"><ele>187.0</ele><time>2026-03-22T14:24:45Z</time></trkpt><trkpt lat="43.04209935605809" lon="2.564723170822187"><ele>187.0</ele><time>2026-03-22T14:24:46Z</time></trkpt><trkpt lat="43.04195959241754" lon="2.564681619055332"><ele>187.0</ele><time>2026-03-22T14:24:47Z</time></trkpt><trkpt lat="43.0418367832936" lon="2.5646675577037046"><ele>187.0</ele><time>2026-03-22T14:24:48Z</time></trkpt><trkpt lat="43.041732648597794" lon="2.5646455676811586"><ele>187.0</ele><time>2026-03-22T14:24:49Z</time></trkpt><trkpt lat="43.041636681807894" lon="2.564636293532788"><ele>187.0</ele><time>2026-03-22T14:24:50Z</time></trkpt><trkpt lat="43.04156100879509" lon="2.5646382589814642"><ele>187.0</ele><time>2026-03-22T14:24:51Z</time></trkpt><trkpt lat="43.041484930909014" lon="2.5646379366537575"><ele>187.0</ele><time>2026-03-22T14:24:52Z</time></trkpt><trkpt lat="43.04141518952823" lon="2.56463921893518"><ele>187.0</ele><time>2026-03-22T14:24:53Z</time></trkpt><trkpt lat="43.04132717525913" lon="2.5646376126138577"><ele>187.0</ele><time>2026-03-22T14:24:54Z</time></trkpt><trkpt lat="43.04124219468567" lon="2.5646309387510655"><ele>186.6</ele><time>2026-03-22T14:24:55Z</time></trkpt><trkpt lat="43.04116118732412" lon="2.5646407312665795"><ele>186.2</ele><time>2026-03-22T14:24:56Z</time></trkpt><trkpt lat="43.041077983502696" lon="2.5646350339299118"><ele>185.8</ele><time>2026-03-22T14:24:57Z</time></trkpt><trkpt lat="43.04097843466052" lon="2.5646411555228528"><ele>185.4</ele><time>2026-03-22T14:24:58Z</time></trkpt><trkpt lat="43.04087879950821" lon="2.56467321793745"><ele>185.0</ele><time>2026-03-22T14:24:59Z</time></trkpt><trkpt lat="43.04078209703422" lon="2.564719503784548"><ele>184.4</ele><time>2026-03-22T14:25:00Z</time></trkpt><trkpt lat="43.04069418903113" lon="2.5647760898083276"><ele>183.8</ele><time>2026-03-22T14:25:01Z</time></trkpt><trkpt lat="43.04060527717601" lon="2.564819694273752"><ele>183.2</ele><time>2026-03-22T14:25:02Z</time></trkpt><trkpt lat="43.04053054752634" lon="2.564898964296264"><ele>182.6</ele><time>2026-03-22T14:25:03Z</time></trkpt><trkpt lat="43.04046954376417" lon="2.5650093367264506"><ele>182.0</ele><time>2026-03-22T14:25:04Z</time></trkpt><trkpt lat="43.040414674783555" lon="2.5651415714366284"><ele>182.0</ele><time>2026-03-22T14:25:05Z</time></trkpt><trkpt lat="43.040356558100015" lon="2.5653128208755467"><ele>182.0</ele><time>2026-03-22T14:25:06Z</time></trkpt><trkpt lat="43.04030403899158" lon="2.5654672703415886"><ele>182.0</ele><time>2026-03-22T14:25:07Z</time></trkpt><trkpt lat="43.040248097288725" lon="2.56559954599785"><ele>182.0</ele><time>2026-03-22T14:25:08Z</time></trkpt><trkpt lat="43.04019227699659" lon="2.565713995733525"><ele>182.33333333333331</ele><time>2026-03-22T14:25:09Z</time></trkpt><trkpt lat="43.04011001202199" lon="2.5658508096144557"><ele>182.66666666666666</ele><time>2026-03-22T14:25:10Z</time></trkpt><trkpt lat="43.04000408193997" lon="2.56602574214586"><ele>183.0</ele><time>2026-03-22T14:25:11Z</time></trkpt><trkpt lat="43.03986108372978" lon="2.5661583440662916"><ele>183.33333333333334</ele><time>2026-03-22T14:25:12Z</time></trkpt><trkpt lat="43.039704727247816" lon="2.566287157573142"><ele>183.66666666666669</ele><time>2026-03-22T14:25:13Z</time></trkpt><trkpt lat="43.039573791081814" lon="2.5664479829502533"><ele>184.0</ele><time>2026-03-22T14:25:14Z</time></trkpt><trkpt lat="43.03945827029621" lon="2.5666014542948754"><ele>184.0</ele><time>2026-03-22T14:25:15Z</time></trkpt><trkpt lat="43.03935554481066" lon="2.566735239182292"><ele>184.0</ele><time>2026-03-22T14:25:16Z</time></trkpt><trkpt lat="43.03925657318936" lon="2.5668500911307484"><ele>184.0</ele><time>2026-03-22T14:25:17Z</time></trkpt><trkpt lat="43.03916247313385" lon="2.566946353237393"><ele>184.0</ele><time>2026-03-22T14:25:18Z</time></trkpt><trkpt lat="43.039064875384916" lon="2.567021771385751"><ele>186.25</ele><time>2026-03-22T14:25:19Z</time></trkpt><trkpt lat="43.038962159680295" lon="2.567102890393476"><ele>188.5</ele><time>2026-03-22T14:25:20Z</time></trkpt><trkpt lat="43.03882691615066" lon="2.567138326096642"><ele>190.75</ele><time>2026-03-22T14:25:21Z</time></trkpt><trkpt lat="43.03867459593163" lon="2.567149375231843"><ele>193.0</ele><time>2026-03-22T14:25:22Z</time></trkpt><trkpt lat="43.03850457778421" lon="2.5671494585747556"><ele>193.0</ele><time>2026-03-22T14:25:23Z</time></trkpt><trkpt lat="43.03835678853087" lon="2.567143859381814"><ele>193.0</ele><time>2026-03-22T14:25:24Z</time></trkpt><trkpt lat="43.03822302715361" lon="2.567161132117673"><ele>193.0</ele><time>2026-03-22T14:25:25Z</time></trkpt><trkpt lat="43.038098608065184" lon="2.5671747808655647"><ele>193.0</ele><time>2026-03-22T14:25:26Z</time></trkpt><trkpt lat="43.037973113243545" lon="2.567160542498729"><ele>194.25</ele><time>2026-03-22T14:25:27Z</time></trkpt><trkpt lat="43.03783638159212" lon="2.5671133612328183"><ele>195.5</ele><time>2026-03-22T14:25:28Z</time></trkpt><trkpt lat="43.037699521788994" lon="2.5670470148911044"><ele>196.75</ele><time>2026-03-22T14:25:29Z</time></trkpt><trkpt lat="43.03757865288093" lon="2.566983874934834"><ele>198.0</ele><time>2026-03-22T14:25:30Z</time></trkpt><trkpt lat="43.03747007038597" lon="2.5669299831660113"><ele>196.75</ele><time>2026-03-22T14:25:31Z</time></trkpt><trkpt lat="43.03735215238053" lon="2.566858213212049"><ele>195.5</ele><time>2026-03-22T14:25:32Z</time></trkpt><trkpt lat="43.0372404615095" lon="2.566749968538829"><ele>194.25</ele><time>2026-03-22T14:25:33Z</time></trkpt><trkpt lat="43.037146838425485" lon="2.566589227494232"><ele>193.0</ele><time>2026-03-22T14:25:34Z</time></trkpt><trkpt lat="43.03705582906861" lon="2.5664108629732203"><ele>193.0</ele><time>2026-03-22T14:25:35Z</time></trkpt><trkpt lat="43.036972606011" lon="2.5662600620442846"><ele>193.0</ele><time>2026-03-22T14:25:36Z</time></trkpt><trkpt lat="43.03689444992237" lon="2.5661096201809483"><ele>193.0</ele><time>2026-03-22T14:25:37Z</time></trkpt><trkpt lat="43.03682319947533" lon="2.5659492842002902"><ele>193.0</ele><time>2026-03-22T14:25:38Z</time></trkpt><trkpt lat="43.03677696614668" lon="2.5657627405258516"><ele>191.25</ele><time>2026-03-22T14:25:39Z</time></trkpt><trkpt lat="43.03675677721063" lon="2.565567447506859"><ele>189.5</ele><time>2026-03-22T14:25:40Z</time></trkpt><trkpt lat="43.03671605945086" lon="2.56538594821185"><ele>187.75</ele><time>2026-03-22T14:25:41Z</time></trkpt><trkpt lat="43.0366324401278" lon="2.565194010999616"><ele>186.0</ele><time>2026-03-22T14:25:42Z</time></trkpt><trkpt lat="43.036536945937854" lon="2.5650133682105323"><ele>187.66666666666666</ele><time>2026-03-22T14:25:43Z</time></trkpt><trkpt lat="43.03645242657686" lon="2.5648522758222283"><ele>189.33333333333331</ele><time>2026-03-22T14:25:44Z</time></trkpt><trkpt lat="43.03636249766775" lon="2.564684780402335"><ele>191.0</ele><time>2026-03-22T14:25:45Z</time></trkpt><trkpt lat="43.036245886754024" lon="2.564508754161372"><ele>191.0</ele><time>2026-03-22T14:25:46Z</time></trkpt><trkpt lat="43.03609308244272" lon="2.5643167962376174"><ele>191.0</ele><time>2026-03-22T14:25:47Z</time></trkpt><trkpt lat="43.03595968368795" lon="2.5641351391940628"><ele>191.0</ele><time>2026-03-22T14:25:48Z</time></trkpt><trkpt lat="43.035848457337075" lon="2.563988274488961"><ele>198.25</ele><time>2026-03-22T14:25:49Z</time></trkpt><trkpt lat="43.03573823824274" lon="2.5638360980460275"><ele>205.5</ele><time>2026-03-22T14:25:50Z</time></trkpt><trkpt lat="43.03563844964629" lon="2.5636783449714144"><ele>212.75</ele><time>2026-03-22T14:25:51Z</time></trkpt><trkpt lat="43.03555933894391" lon="2.5635220578629814"><ele>220.0</ele><time>2026-03-22T14:25:52Z</time></trkpt><trkpt lat="43.03549832009007" lon="2.563361732346652"><ele>220.0</ele><time>2026-03-22T14:25:53Z</time></trkpt><trkpt lat="43.03544764833013" lon="2.563186470937557"><ele>220.0</ele><time>2026-03-22T14:25:54Z</time></trkpt><trkpt lat="43.03540979226501" lon="2.5629687494680056"><ele>220.0</ele><time>2026-03-22T14:25:55Z</time></trkpt><trkpt lat="43.03538810897077" lon="2.5627674579235262"><ele>218.75</ele><time>2026-03-22T14:25:56Z</time></trkpt><trkpt lat="43.035374983231975" lon="2.5625865985524237"><ele>217.5</ele><time>2026-03-22T14:25:57Z</time></trkpt><trkpt lat="43.03537778341091" lon="2.562398077920965"><ele>216.25</ele><time>2026-03-22T14:25:58Z</time></trkpt><trkpt lat="43.03539797042359" lon="2.5621733111045053"><ele>215.0</ele><time>2026-03-22T14:25:59Z</time></trkpt><trkpt lat="43.0354311476753" lon="2.5619343093843447"><ele>214.75</ele><time>2026-03-22T14:26:00Z</time></trkpt><trkpt lat="43.03546639020543" lon="2.5617328470041065"><ele>214.5</ele><time>2026-03-22T14:26:01Z</time></trkpt><trkpt lat="43.0354905966494" lon="2.5615555591347525"><ele>214.25</ele><time>2026-03-22T14:26:02Z</time></trkpt><trkpt lat="43.03552159603518" lon="2.5613978196129765"><ele>214.0</ele><time>2026-03-22T14:26:03Z</time></trkpt><trkpt lat="43.03555874248357" lon="2.561250086025493"><ele>216.5</ele><time>2026-03-22T14:26:04Z</time></trkpt><trkpt lat="43.035617434903784" lon="2.561113384777213"><ele>219.0</ele><time>2026-03-22T14:26:05Z</time></trkpt><trkpt lat="43.035699269109294" lon="2.5609677150208174"><ele>221.5</ele><time>2026-03-22T14:26:06Z</time></trkpt><trkpt lat="43.03582243421367" lon="2.560811011373007"><ele>224.0</ele><time>2026-03-22T14:26:07Z</time></trkpt><trkpt lat="43.03595515050368" lon="2.5606571854758564"><ele>221.0</ele><time>2026-03-22T14:26:08Z</time></trkpt><trkpt lat="43.03606937228208" lon="2.56053739296038"><ele>218.0</ele><time>2026-03-22T14:26:09Z</time></trkpt><trkpt lat="43.03617500675704" lon="2.560437666021354"><ele>215.0</ele><time>2026-03-22T14:26:10Z</time></trkpt><trkpt lat="43.03627585257242" lon="2.560377250396915"><ele>212.0</ele><time>2026-03-22T14:26:11Z</time></trkpt><trkpt lat="43.036377971944205" lon="2.5603196389999208"><ele>212.0</ele><time>2026-03-22T14:26:11.999Z</time></trkpt><trkpt lat="43.036504745920375" lon="2.560286714271377"><ele>212.0</ele><time>2026-03-22T14:26:12.999Z</time></trkpt><trkpt lat="43.03665004785142" lon="2.5602255588649983"><ele>212.0</ele><time>2026-03-22T14:26:13.999Z</time></trkpt><trkpt lat="43.036771629817025" lon="2.5601811910572705"><ele>212.0</ele><time>2026-03-22T14:26:14.999Z</time></trkpt><trkpt lat="43.03687304739476" lon="2.560128157607213"><ele>207.5</ele><time>2026-03-22T14:26:15.999Z</time></trkpt><trkpt lat="43.036954522030506" lon="2.5600465699561794"><ele>203.0</ele><time>2026-03-22T14:26:16.999Z</time></trkpt><trkpt lat="43.0370540218177" lon="2.559906215960114"><ele>198.5</ele><time>2026-03-22T14:26:17.999Z</time></trkpt><trkpt lat="43.03713015951635" lon="2.55976888495094"><ele>194.0</ele><time>2026-03-22T14:26:18.999Z</time></trkpt><trkpt lat="43.037195601894595" lon="2.5596595171018923"><ele>194.0</ele><time>2026-03-22T14:26:19.999Z</time></trkpt><trkpt lat="43.037242656518565" lon="2.5595535266645784"><ele>194.0</ele><time>2026-03-22T14:26:20.999Z</time></trkpt><trkpt lat="43.037275940247966" lon="2.5594264942104004"><ele>194.0</ele><time>2026-03-22T14:26:21.999Z</time></trkpt><trkpt lat="43.037281447660895" lon="2.5592892933841966"><ele>194.0</ele><time>2026-03-22T14:26:22.999Z</time></trkpt><trkpt lat="43.0372733749623" lon="2.5591549728957634"><ele>194.0</ele><time>2026-03-22T14:26:23.999Z</time></trkpt><trkpt lat="43.03722068576765" lon="2.5590343357315657"><ele>195.0</ele><time>2026-03-22T14:26:24.999Z</time></trkpt><trkpt lat="43.03714413895483" lon="2.5589337851470955"><ele>196.0</ele><time>2026-03-22T14:26:25.999Z</time></trkpt><trkpt lat="43.03704333465168" lon="2.558846245837782"><ele>197.0</ele><time>2026-03-22T14:26:26.999Z</time></trkpt><trkpt lat="43.03692752342845" lon="2.5587458371991993"><ele>198.0</ele><time>2026-03-22T14:26:27.999Z</time></trkpt><trkpt lat="43.03680248628806" lon="2.558641881198359"><ele>195.33333333333334</ele><time>2026-03-22T14:26:28.999Z</time></trkpt><trkpt lat="43.03665900724389" lon="2.5585615821214454"><ele>192.66666666666669</ele><time>2026-03-22T14:26:29.999Z</time></trkpt><trkpt lat="43.036490833643605" lon="2.5584670662239595"><ele>190.0</ele><time>2026-03-22T14:26:30.999Z</time></trkpt><trkpt lat="43.03632494912814" lon="2.5583877494243517"><ele>190.5</ele><time>2026-03-22T14:26:31.999Z</time></trkpt><trkpt lat="43.036200975650004" lon="2.5582818807180865"><ele>191.0</ele><time>2026-03-22T14:26:32.999Z</time></trkpt><trkpt lat="43.036093764647966" lon="2.558151987672288"><ele>191.5</ele><time>2026-03-22T14:26:33.999Z</time></trkpt><trkpt lat="43.03597797766115" lon="2.558002467397013"><ele>192.0</ele><time>2026-03-22T14:26:34.999Z</time></trkpt><trkpt lat="43.03587366791763" lon="2.55785981570283"><ele>194.75</ele><time>2026-03-22T14:26:36Z</time></trkpt><trkpt lat="43.035786334567845" lon="2.5577252579790213"><ele>197.5</ele><time>2026-03-22T14:26:37Z</time></trkpt><trkpt lat="43.03571887069876" lon="2.557579474430679"><ele>200.25</ele><time>2026-03-22T14:26:38Z</time></trkpt><trkpt lat="43.03566611069962" lon="2.557410846550867"><ele>203.0</ele><time>2026-03-22T14:26:39Z</time></trkpt><trkpt lat="43.03563919447807" lon="2.55721063738953"><ele>200.0</ele><time>2026-03-22T14:26:40Z</time></trkpt><trkpt lat="43.035579372767224" lon="2.556976184983697"><ele>197.0</ele><time>2026-03-22T14:26:41Z</time></trkpt><trkpt lat="43.035535607830994" lon="2.5567249680401987"><ele>194.0</ele><time>2026-03-22T14:26:42Z</time></trkpt><trkpt lat="43.03549584622492" lon="2.556507873707945"><ele>194.0</ele><time>2026-03-22T14:26:43Z</time></trkpt><trkpt lat="43.03546735128841" lon="2.556275993631912"><ele>194.0</ele><time>2026-03-22T14:26:44Z</time></trkpt><trkpt lat="43.03546193602466" lon="2.5560327071739257"><ele>194.0</ele><time>2026-03-22T14:26:45Z</time></trkpt><trkpt lat="43.035461207727444" lon="2.555766719123613"><ele>194.66666666666669</ele><time>2026-03-22T14:26:46Z</time></trkpt><trkpt lat="43.03544857272466" lon="2.555518477098956"><ele>195.33333333333331</ele><time>2026-03-22T14:26:47Z</time></trkpt><trkpt lat="43.03542234373293" lon="2.5553038120920015"><ele>196.0</ele><time>2026-03-22T14:26:48Z</time></trkpt><trkpt lat="43.03539025920604" lon="2.555112698312081"><ele>196.0</ele><time>2026-03-22T14:26:49Z</time></trkpt><trkpt lat="43.03536977864273" lon="2.554932496962548"><ele>196.0</ele><time>2026-03-22T14:26:50Z</time></trkpt><trkpt lat="43.03533308224436" lon="2.554775815943293"><ele>196.0</ele><time>2026-03-22T14:26:51Z</time></trkpt><trkpt lat="43.035284777457846" lon="2.5546389288750406"><ele>196.0</ele><time>2026-03-22T14:26:52Z</time></trkpt><trkpt lat="43.035226560964944" lon="2.554525097121794"><ele>195.25</ele><time>2026-03-22T14:26:53Z</time></trkpt><trkpt lat="43.03515081915039" lon="2.5544165273721906"><ele>194.5</ele><time>2026-03-22T14:26:54Z</time></trkpt><trkpt lat="43.035044873425754" lon="2.5542891032421595"><ele>193.75</ele><time>2026-03-22T14:26:55Z</time></trkpt><trkpt lat="43.034923942954904" lon="2.5541873897030025"><ele>193.0</ele><time>2026-03-22T14:26:56Z</time></trkpt><trkpt lat="43.03479115422069" lon="2.5541292575828836"><ele>193.0</ele><time>2026-03-22T14:26:57Z</time></trkpt><trkpt lat="43.03465366591928" lon="2.554097006085441"><ele>193.0</ele><time>2026-03-22T14:26:58Z</time></trkpt><trkpt lat="43.03450999673017" lon="2.554101639476935"><ele>193.0</ele><time>2026-03-22T14:26:59Z</time></trkpt><trkpt lat="43.034379665434784" lon="2.554132594289203"><ele>193.0</ele><time>2026-03-22T14:27:00Z</time></trkpt><trkpt lat="43.0342435248493" lon="2.5541717277395466"><ele>194.0</ele><time>2026-03-22T14:27:01Z</time></trkpt><trkpt lat="43.03411856763371" lon="2.554228256002222"><ele>195.0</ele><time>2026-03-22T14:27:02Z</time></trkpt><trkpt lat="43.03400331727403" lon="2.554307754318061"><ele>196.0</ele><time>2026-03-22T14:27:03Z</time></trkpt><trkpt lat="43.033903067265335" lon="2.5543753879406568"><ele>197.0</ele><time>2026-03-22T14:27:04Z</time></trkpt><trkpt lat="43.03381817182556" lon="2.554443315250503"><ele>197.0</ele><time>2026-03-22T14:27:05Z</time></trkpt><trkpt lat="43.03373273472911" lon="2.554486887541947"><ele>197.0</ele><time>2026-03-22T14:27:06Z</time></trkpt><trkpt lat="43.03362049762215" lon="2.554477672357268"><ele>197.0</ele><time>2026-03-22T14:27:07Z</time></trkpt><trkpt lat="43.03348377696236" lon="2.554443439072729"><ele>197.0</ele><time>2026-03-22T14:27:08Z</time></trkpt><trkpt lat="43.03334307277468" lon="2.5543553067128104"><ele>200.75</ele><time>2026-03-22T14:27:09Z</time></trkpt><trkpt lat="43.033225446928576" lon="2.5542478047409585"><ele>204.5</ele><time>2026-03-22T14:27:10Z</time></trkpt><trkpt lat="43.03311626872642" lon="2.5541596124008756"><ele>208.25</ele><time>2026-03-22T14:27:11Z</time></trkpt><trkpt lat="43.03302808208082" lon="2.5540843857561626"><ele>212.0</ele><time>2026-03-22T14:27:12Z</time></trkpt><trkpt lat="43.03294280614786" lon="2.553971596033857"><ele>212.0</ele><time>2026-03-22T14:27:13Z</time></trkpt><trkpt lat="43.032877619371014" lon="2.553832891896818"><ele>212.0</ele><time>2026-03-22T14:27:14Z</time></trkpt><trkpt lat="43.032830938433825" lon="2.553641093762261"><ele>212.0</ele><time>2026-03-22T14:27:15Z</time></trkpt><trkpt lat="43.03279127297499" lon="2.553434513881222"><ele>212.0</ele><time>2026-03-22T14:27:16Z</time></trkpt><trkpt lat="43.03274572658058" lon="2.553275588037039"><ele>209.0</ele><time>2026-03-22T14:27:17Z</time></trkpt><trkpt lat="43.032675056638645" lon="2.553105957541578"><ele>206.0</ele><time>2026-03-22T14:27:18Z</time></trkpt><trkpt lat="43.032590428695244" lon="2.552952231694315"><ele>203.0</ele><time>2026-03-22T14:27:19Z</time></trkpt><trkpt lat="43.03250276976916" lon="2.5528237977018238"><ele>200.0</ele><time>2026-03-22T14:27:20Z</time></trkpt><trkpt lat="43.03240273570045" lon="2.552719217605851"><ele>200.0</ele><time>2026-03-22T14:27:21Z</time></trkpt><trkpt lat="43.03228156049923" lon="2.5526498256480235"><ele>200.0</ele><time>2026-03-22T14:27:22Z</time></trkpt><trkpt lat="43.03214943749537" lon="2.552608015984274"><ele>200.0</ele><time>2026-03-22T14:27:23Z</time></trkpt><trkpt lat="43.032005640018106" lon="2.552581666681151"><ele>200.0</ele><time>2026-03-22T14:27:24Z</time></trkpt><trkpt lat="43.03188429637776" lon="2.5525349160260395"><ele>200.0</ele><time>2026-03-22T14:27:25Z</time></trkpt><trkpt lat="43.03179067914101" lon="2.5524535609645285"><ele>200.0</ele><time>2026-03-22T14:27:26Z</time></trkpt><trkpt lat="43.031682300748145" lon="2.5523395638431117"><ele>200.0</ele><time>2026-03-22T14:27:27Z</time></trkpt><trkpt lat="43.031568012542046" lon="2.5521833995591607"><ele>200.0</ele><time>2026-03-22T14:27:28Z</time></trkpt><trkpt lat="43.031429078879334" lon="2.5519898177364504"><ele>203.66666666666669</ele><time>2026-03-22T14:27:29Z</time></trkpt><trkpt lat="43.0312864765551" lon="2.551787744042972"><ele>207.33333333333331</ele><time>2026-03-22T14:27:30Z</time></trkpt><trkpt lat="43.031154327774075" lon="2.551609054812544"><ele>211.0</ele><time>2026-03-22T14:27:31Z</time></trkpt><trkpt lat="43.031033486243494" lon="2.5514616432198283"><ele>211.0</ele><time>2026-03-22T14:27:32Z</time></trkpt><trkpt lat="43.03092202353276" lon="2.5513428400277"><ele>211.0</ele><time>2026-03-22T14:27:33Z</time></trkpt><trkpt lat="43.03081970486484" lon="2.5512158803814633"><ele>211.0</ele><time>2026-03-22T14:27:34Z</time></trkpt><trkpt lat="43.03073524789898" lon="2.551058459183631"><ele>211.0</ele><time>2026-03-22T14:27:35Z</time></trkpt><trkpt lat="43.03067929220957" lon="2.550861891148872"><ele>211.5</ele><time>2026-03-22T14:27:36Z</time></trkpt><trkpt lat="43.03061508161017" lon="2.550663750313438"><ele>212.0</ele><time>2026-03-22T14:27:37Z</time></trkpt><trkpt lat="43.030583827585055" lon="2.550466266808932"><ele>212.5</ele><time>2026-03-22T14:27:38Z</time></trkpt><trkpt lat="43.03053471328895" lon="2.5502928585391715"><ele>213.0</ele><time>2026-03-22T14:27:39Z</time></trkpt><trkpt lat="43.03044446552503" lon="2.5501102989127364"><ele>213.0</ele><time>2026-03-22T14:27:40Z</time></trkpt><trkpt lat="43.03035004962203" lon="2.549945896072928"><ele>213.0</ele><time>2026-03-22T14:27:41Z</time></trkpt><trkpt lat="43.03026453677304" lon="2.54980489471424"><ele>213.0</ele><time>2026-03-22T14:27:42Z</time></trkpt><trkpt lat="43.030191907448845" lon="2.5496889386715886"><ele>213.0</ele><time>2026-03-22T14:27:43Z</time></trkpt><trkpt lat="43.03009386059674" lon="2.549596360434873"><ele>217.33333333333331</ele><time>2026-03-22T14:27:44Z</time></trkpt><trkpt lat="43.029956444486764" lon="2.549515439035664"><ele>221.66666666666666</ele><time>2026-03-22T14:27:45Z</time></trkpt><trkpt lat="43.02980291327415" lon="2.549400199082857"><ele>226.0</ele><time>2026-03-22T14:27:46Z</time></trkpt><trkpt lat="43.02965576381949" lon="2.5492435805753115"><ele>226.0</ele><time>2026-03-22T14:27:47Z</time></trkpt><trkpt lat="43.02953553434898" lon="2.549086968569742"><ele>226.0</ele><time>2026-03-22T14:27:48Z</time></trkpt><trkpt lat="43.02942886711426" lon="2.5489537882435354"><ele>226.0</ele><time>2026-03-22T14:27:49Z</time></trkpt><trkpt lat="43.02934397424526" lon="2.548806323043411"><ele>226.0</ele><time>2026-03-22T14:27:50Z</time></trkpt><trkpt lat="43.029278756367624" lon="2.5486313437968997"><ele>228.5</ele><time>2026-03-22T14:27:51Z</time></trkpt><trkpt lat="43.0292187495034" lon="2.548435088164869"><ele>231.0</ele><time>2026-03-22T14:27:52Z</time></trkpt><trkpt lat="43.029167632221" lon="2.5482751404537596"><ele>233.5</ele><time>2026-03-22T14:27:53Z</time></trkpt><trkpt lat="43.02911177325582" lon="2.548139704072978"><ele>236.0</ele><time>2026-03-22T14:27:54Z</time></trkpt><trkpt lat="43.02901153446984" lon="2.548007968385518"><ele>226.33333333333334</ele><time>2026-03-22T14:27:55Z</time></trkpt><trkpt lat="43.02886917115872" lon="2.547867676652747"><ele>216.66666666666669</ele><time>2026-03-22T14:27:56Z</time></trkpt><trkpt lat="43.028694926495994" lon="2.5477255342260405"><ele>207.0</ele><time>2026-03-22T14:27:57Z</time></trkpt><trkpt lat="43.028518136546865" lon="2.5475839280311003"><ele>207.0</ele><time>2026-03-22T14:27:58Z</time></trkpt><trkpt lat="43.0283632413895" lon="2.547440513854087"><ele>207.0</ele><time>2026-03-22T14:27:59Z</time></trkpt><trkpt lat="43.028225407979775" lon="2.54732615588936"><ele>207.0</ele><time>2026-03-22T14:28:00Z</time></trkpt><trkpt lat="43.028088901071555" lon="2.547238796685241"><ele>204.0</ele><time>2026-03-22T14:28:01Z</time></trkpt><trkpt lat="43.027941392431536" lon="2.5471471936845704"><ele>201.0</ele><time>2026-03-22T14:28:02Z</time></trkpt><trkpt lat="43.02779138555096" lon="2.547062804598357"><ele>198.0</ele><time>2026-03-22T14:28:03Z</time></trkpt><trkpt lat="43.02766130027238" lon="2.546984923910657"><ele>198.0</ele><time>2026-03-22T14:28:04Z</time></trkpt><trkpt lat="43.02753674216662" lon="2.546907225815712"><ele>198.0</ele><time>2026-03-22T14:28:05Z</time></trkpt><trkpt lat="43.02741665807898" lon="2.546852668397603"><ele>198.0</ele><time>2026-03-22T14:28:06Z</time></trkpt><trkpt lat="43.02730793146925" lon="2.546837173780858"><ele>198.0</ele><time>2026-03-22T14:28:06.999Z</time></trkpt><trkpt lat="43.02720351235491" lon="2.546803642967212"><ele>199.0</ele><time>2026-03-22T14:28:07.999Z</time></trkpt><trkpt lat="43.02710367638115" lon="2.546789227608336"><ele>200.0</ele><time>2026-03-22T14:28:08.999Z</time></trkpt><trkpt lat="43.02701819567331" lon="2.546757236529015"><ele>201.0</ele><time>2026-03-22T14:28:09.999Z</time></trkpt><trkpt lat="43.02692873349732" lon="2.5467117699155746"><ele>202.0</ele><time>2026-03-22T14:28:10.999Z</time></trkpt><trkpt lat="43.02686804726822" lon="2.5465996063056857"><ele>203.0</ele><time>2026-03-22T14:28:11.999Z</time></trkpt><trkpt lat="43.026834964728" lon="2.5464562262973987"><ele>203.0</ele><time>2026-03-22T14:28:12.999Z</time></trkpt><trkpt lat="43.02681530370908" lon="2.5462872803929657"><ele>203.0</ele><time>2026-03-22T14:28:13.999Z</time></trkpt><trkpt lat="43.026792787618234" lon="2.546154309156577"><ele>203.0</ele><time>2026-03-22T14:28:14.999Z</time></trkpt><trkpt lat="43.026766537987456" lon="2.546047427419476"><ele>203.0</ele><time>2026-03-22T14:28:15.999Z</time></trkpt><trkpt lat="43.02672583094662" lon="2.5459449458154024"><ele>203.0</ele><time>2026-03-22T14:28:16.999Z</time></trkpt><trkpt lat="43.02666357638129" lon="2.5458730221049173"><ele>205.25</ele><time>2026-03-22T14:28:17.999Z</time></trkpt><trkpt lat="43.026582670541295" lon="2.545843146972446"><ele>207.5</ele><time>2026-03-22T14:28:18.999Z</time></trkpt><trkpt lat="43.02648136977101" lon="2.54585513506955"><ele>209.75</ele><time>2026-03-22T14:28:19.999Z</time></trkpt><trkpt lat="43.02635803008741" lon="2.545869076208872"><ele>212.0</ele><time>2026-03-22T14:28:20.999Z</time></trkpt><trkpt lat="43.026189796783775" lon="2.545923546123423"><ele>212.0</ele><time>2026-03-22T14:28:21.999Z</time></trkpt><trkpt lat="43.02599550644401" lon="2.5459845638317535"><ele>212.0</ele><time>2026-03-22T14:28:22.999Z</time></trkpt><trkpt lat="43.0257919054987" lon="2.5460401074780004"><ele>212.0</ele><time>2026-03-22T14:28:23.999Z</time></trkpt><trkpt lat="43.02562583959364" lon="2.546073422299475"><ele>213.33333333333334</ele><time>2026-03-22T14:28:24.999Z</time></trkpt><trkpt lat="43.02545731589997" lon="2.546106696091117"><ele>214.66666666666669</ele><time>2026-03-22T14:28:25.999Z</time></trkpt><trkpt lat="43.02529645240442" lon="2.546160503292655"><ele>216.0</ele><time>2026-03-22T14:28:26.999Z</time></trkpt><trkpt lat="43.02512443798588" lon="2.546171582731556"><ele>214.0</ele><time>2026-03-22T14:28:27.999Z</time></trkpt><trkpt lat="43.02497590871871" lon="2.546181708095959"><ele>212.0</ele><time>2026-03-22T14:28:28.999Z</time></trkpt><trkpt lat="43.02484124182587" lon="2.5461916475376944"><ele>210.0</ele><time>2026-03-22T14:28:29.999Z</time></trkpt><trkpt lat="43.02468344619713" lon="2.5462426800741507"><ele>208.0</ele><time>2026-03-22T14:28:30.999Z</time></trkpt><trkpt lat="43.024522544814474" lon="2.5463236469933013"><ele>208.0</ele><time>2026-03-22T14:28:31.999Z</time></trkpt><trkpt lat="43.02436911250904" lon="2.5463638908817448"><ele>208.0</ele><time>2026-03-22T14:28:32.999Z</time></trkpt><trkpt lat="43.02424508928087" lon="2.546426293114825"><ele>208.0</ele><time>2026-03-22T14:28:33.999Z</time></trkpt><trkpt lat="43.02412345651336" lon="2.546507364449614"><ele>208.0</ele><time>2026-03-22T14:28:34.999Z</time></trkpt><trkpt lat="43.024012477948084" lon="2.5465526497447133"><ele>214.0</ele><time>2026-03-22T14:28:35.999Z</time></trkpt><trkpt lat="43.023890686261296" lon="2.5466097903360776"><ele>220.0</ele><time>2026-03-22T14:28:36.999Z</time></trkpt><trkpt lat="43.02378190684357" lon="2.546710443442878"><ele>226.0</ele><time>2026-03-22T14:28:37.999Z</time></trkpt><trkpt lat="43.02369457895032" lon="2.546875338515319"><ele>232.0</ele><time>2026-03-22T14:28:38.999Z</time></trkpt><trkpt lat="43.02362295506521" lon="2.5469886826559787"><ele>233.75</ele><time>2026-03-22T14:28:39.999Z</time></trkpt><trkpt lat="43.023532784038046" lon="2.547092736472785"><ele>235.5</ele><time>2026-03-22T14:28:40.999Z</time></trkpt><trkpt lat="43.02342230940684" lon="2.547195368140481"><ele>237.25</ele><time>2026-03-22T14:28:42Z</time></trkpt><trkpt lat="43.023322324053815" lon="2.547336685086022"><ele>239.0</ele><time>2026-03-22T14:28:43Z</time></trkpt><trkpt lat="43.02323123709769" lon="2.547525909377562"><ele>239.0</ele><time>2026-03-22T14:28:44Z</time></trkpt><trkpt lat="43.02315005614764" lon="2.5477210644256116"><ele>239.0</ele><time>2026-03-22T14:28:45Z</time></trkpt><trkpt lat="43.02307812175912" lon="2.5479133179713283"><ele>239.0</ele><time>2026-03-22T14:28:46Z</time></trkpt><trkpt lat="43.02303223376168" lon="2.5480962287415445"><ele>235.2</ele><time>2026-03-22T14:28:47Z</time></trkpt><trkpt lat="43.02297636132862" lon="2.5482572595498065"><ele>231.39999999999998</ele><time>2026-03-22T14:28:48Z</time></trkpt><trkpt lat="43.022926007363665" lon="2.548381856567707"><ele>227.6</ele><time>2026-03-22T14:28:49Z</time></trkpt><trkpt lat="43.02288318753356" lon="2.548464093355781"><ele>223.8</ele><time>2026-03-22T14:28:50Z</time></trkpt><trkpt lat="43.022822996971065" lon="2.5485252988823244"><ele>220.0</ele><time>2026-03-22T14:28:51Z</time></trkpt><trkpt lat="43.022728340423384" lon="2.548581025484799"><ele>220.0</ele><time>2026-03-22T14:28:52Z</time></trkpt><trkpt lat="43.0226120088253" lon="2.5486194780761804"><ele>220.0</ele><time>2026-03-22T14:28:53Z</time></trkpt><trkpt lat="43.022483823285576" lon="2.548640247420048"><ele>220.0</ele><time>2026-03-22T14:28:54Z</time></trkpt><trkpt lat="43.0223402546581" lon="2.5486534040756395"><ele>220.0</ele><time>2026-03-22T14:28:55Z</time></trkpt><trkpt lat="43.022189379136066" lon="2.548653105228339"><ele>223.66666666666666</ele><time>2026-03-22T14:28:56Z</time></trkpt><trkpt lat="43.0220289759371" lon="2.548651664560669"><ele>227.33333333333331</ele><time>2026-03-22T14:28:57Z</time></trkpt><trkpt lat="43.02188221695236" lon="2.548656597696417"><ele>231.0</ele><time>2026-03-22T14:28:58Z</time></trkpt><trkpt lat="43.02173912867511" lon="2.548678833382431"><ele>232.75</ele><time>2026-03-22T14:28:59Z</time></trkpt><trkpt lat="43.02160438561544" lon="2.5487073022231894"><ele>234.5</ele><time>2026-03-22T14:29:00Z</time></trkpt><trkpt lat="43.02147039118465" lon="2.548740985673015"><ele>236.25</ele><time>2026-03-22T14:29:01Z</time></trkpt><trkpt lat="43.02134722855746" lon="2.5487666866982317"><ele>238.0</ele><time>2026-03-22T14:29:02Z</time></trkpt><trkpt lat="43.02123016502336" lon="2.5487770615137535"><ele>238.0</ele><time>2026-03-22T14:29:03Z</time></trkpt><trkpt lat="43.02112101264712" lon="2.54877341287154"><ele>238.0</ele><time>2026-03-22T14:29:04Z</time></trkpt><trkpt lat="43.02100799391325" lon="2.548767395601013"><ele>238.0</ele><time>2026-03-22T14:29:05Z</time></trkpt><trkpt lat="43.020911530057035" lon="2.548727540252745"><ele>238.0</ele><time>2026-03-22T14:29:06Z</time></trkpt><trkpt lat="43.02082354824911" lon="2.5487029575444593"><ele>238.0</ele><time>2026-03-22T14:29:07Z</time></trkpt><trkpt lat="43.020745751710216" lon="2.5486751499213125"><ele>238.25</ele><time>2026-03-22T14:29:08Z</time></trkpt><trkpt lat="43.02063273124908" lon="2.548697363237574"><ele>238.5</ele><time>2026-03-22T14:29:09Z</time></trkpt><trkpt lat="43.02051249156729" lon="2.5488256792502475"><ele>238.75</ele><time>2026-03-22T14:29:10Z</time></trkpt><trkpt lat="43.02040675060079" lon="2.548934260438779"><ele>239.0</ele><time>2026-03-22T14:29:11Z</time></trkpt><trkpt lat="43.02029022751182" lon="2.5489991676196344"><ele>235.0</ele><time>2026-03-22T14:29:12Z</time></trkpt><trkpt lat="43.02014937043443" lon="2.5490719020987416"><ele>231.0</ele><time>2026-03-22T14:29:13Z</time></trkpt><trkpt lat="43.02003222103399" lon="2.5491581797198775"><ele>227.0</ele><time>2026-03-22T14:29:14Z</time></trkpt><trkpt lat="43.01993898596594" lon="2.5492621459820453"><ele>223.0</ele><time>2026-03-22T14:29:15Z</time></trkpt><trkpt lat="43.01985580726911" lon="2.549331676506338"><ele>221.60000000000002</ele><time>2026-03-22T14:29:16Z</time></trkpt><trkpt lat="43.019761589093996" lon="2.5493717215426397"><ele>220.20000000000002</ele><time>2026-03-22T14:29:17Z</time></trkpt><trkpt lat="43.019670343926" lon="2.549395141298653"><ele>218.8</ele><time>2026-03-22T14:29:18Z</time></trkpt><trkpt lat="43.01957664940183" lon="2.549325252545138"><ele>217.4</ele><time>2026-03-22T14:29:19Z</time></trkpt><trkpt lat="43.01948839734039" lon="2.549226874284703"><ele>216.0</ele><time>2026-03-22T14:29:20Z</time></trkpt><trkpt lat="43.01941741825699" lon="2.5490947505226367"><ele>216.0</ele><time>2026-03-22T14:29:21Z</time></trkpt><trkpt lat="43.01936481376171" lon="2.548923074466917"><ele>216.0</ele><time>2026-03-22T14:29:22Z</time></trkpt><trkpt lat="43.01931086963661" lon="2.548727633069475"><ele>216.0</ele><time>2026-03-22T14:29:23Z</time></trkpt><trkpt lat="43.01925470525794" lon="2.5485477394274327"><ele>216.0</ele><time>2026-03-22T14:29:24Z</time></trkpt><trkpt lat="43.019210431245064" lon="2.548403048624716"><ele>216.4</ele><time>2026-03-22T14:29:25Z</time></trkpt><trkpt lat="43.019176119418624" lon="2.5482735451131906"><ele>216.8</ele><time>2026-03-22T14:29:26Z</time></trkpt><trkpt lat="43.019149946273195" lon="2.5481634993045326"><ele>217.20000000000002</ele><time>2026-03-22T14:29:27Z</time></trkpt><trkpt lat="43.01914221321813" lon="2.5480623904857533"><ele>217.60000000000002</ele><time>2026-03-22T14:29:28Z</time></trkpt><trkpt lat="43.019171028971115" lon="2.5479018334395733"><ele>218.0</ele><time>2026-03-22T14:29:30Z</time></trkpt><trkpt lat="43.01921028121669" lon="2.5477929871706357"><ele>219.75</ele><time>2026-03-22T14:29:31Z</time></trkpt><trkpt lat="43.019273159463346" lon="2.54766574775627"><ele>221.5</ele><time>2026-03-22T14:29:32Z</time></trkpt><trkpt lat="43.019341074968025" lon="2.5475253215682754"><ele>223.25</ele><time>2026-03-22T14:29:33Z</time></trkpt><trkpt lat="43.019404873188314" lon="2.5473845206557457"><ele>225.0</ele><time>2026-03-22T14:29:34Z</time></trkpt><trkpt lat="43.01947142211534" lon="2.547251912377152"><ele>225.0</ele><time>2026-03-22T14:29:35Z</time></trkpt><trkpt lat="43.01953237416283" lon="2.5471276522724615"><ele>225.0</ele><time>2026-03-22T14:29:36Z</time></trkpt><trkpt lat="43.019587202457885" lon="2.5470154840070824"><ele>225.0</ele><time>2026-03-22T14:29:37Z</time></trkpt><trkpt lat="43.01964129017252" lon="2.546891371282124"><ele>225.0</ele><time>2026-03-22T14:29:38Z</time></trkpt><trkpt lat="43.019692480708194" lon="2.546770359971082"><ele>225.0</ele><time>2026-03-22T14:29:39Z</time></trkpt><trkpt lat="43.01974588260731" lon="2.5466449308275507"><ele>223.0</ele><time>2026-03-22T14:29:40Z</time></trkpt><trkpt lat="43.019778179235665" lon="2.546508010888498"><ele>221.0</ele><time>2026-03-22T14:29:41Z</time></trkpt><trkpt lat="43.01979657694023" lon="2.546368696378161"><ele>219.0</ele><time>2026-03-22T14:29:42Z</time></trkpt><trkpt lat="43.01980477965869" lon="2.5462400482676375"><ele>217.0</ele><time>2026-03-22T14:29:43Z</time></trkpt><trkpt lat="43.01978702984859" lon="2.5461132412157226"><ele>215.0</ele><time>2026-03-22T14:29:44Z</time></trkpt><trkpt lat="43.019781796558085" lon="2.546008700007968"><ele>215.2</ele><time>2026-03-22T14:29:45Z</time></trkpt><trkpt lat="43.01977632209382" lon="2.545909723234144"><ele>215.4</ele><time>2026-03-22T14:29:46Z</time></trkpt><trkpt lat="43.01977139642647" lon="2.545819509060489"><ele>215.60000000000002</ele><time>2026-03-22T14:29:47Z</time></trkpt><trkpt lat="43.01977190002755" lon="2.545634291748145"><ele>215.8</ele><time>2026-03-22T14:29:49Z</time></trkpt><trkpt lat="43.01976520590136" lon="2.5455006990296485"><ele>216.0</ele><time>2026-03-22T14:29:50Z</time></trkpt><trkpt lat="43.019786423565556" lon="2.545368459217013"><ele>216.0</ele><time>2026-03-22T14:29:51Z</time></trkpt><trkpt lat="43.01983849545046" lon="2.5452362194063305"><ele>216.00000000000003</ele><time>2026-03-22T14:29:52Z</time></trkpt><trkpt lat="43.01991378018638" lon="2.545138105066507"><ele>216.00000000000003</ele><time>2026-03-22T14:29:53Z</time></trkpt><trkpt lat="43.02000306354779" lon="2.5450637005809758"><ele>216.0</ele><time>2026-03-22T14:29:54Z</time></trkpt><trkpt lat="43.0201239744644" lon="2.5450113685799525"><ele>216.0</ele><time>2026-03-22T14:29:55Z</time></trkpt><trkpt lat="43.02027199662288" lon="2.5449752118311344"><ele>217.25</ele><time>2026-03-22T14:29:56Z</time></trkpt><trkpt lat="43.020427788252356" lon="2.5449315573385953"><ele>218.5</ele><time>2026-03-22T14:29:57Z</time></trkpt><trkpt lat="43.020551228577354" lon="2.5448866929358385"><ele>219.75</ele><time>2026-03-22T14:29:58Z</time></trkpt><trkpt lat="43.02065782157092" lon="2.5448589029172246"><ele>221.0</ele><time>2026-03-22T14:29:59Z</time></trkpt><trkpt lat="43.02075370847572" lon="2.544809332178112"><ele>222.0</ele><time>2026-03-22T14:30:00Z</time></trkpt><trkpt lat="43.020828942125426" lon="2.5447222384666444"><ele>223.00000000000003</ele><time>2026-03-22T14:30:01Z</time></trkpt><trkpt lat="43.02088709606333" lon="2.5446072798011703"><ele>224.00000000000003</ele><time>2026-03-22T14:30:02Z</time></trkpt><trkpt lat="43.02091608959438" lon="2.5444778745709273"><ele>225.0</ele><time>2026-03-22T14:30:03Z</time></trkpt><trkpt lat="43.02089364968745" lon="2.5443451266687167"><ele>226.0</ele><time>2026-03-22T14:30:04Z</time></trkpt><trkpt lat="43.02086909548316" lon="2.54420646532075"><ele>226.0</ele><time>2026-03-22T14:30:05Z</time></trkpt><trkpt lat="43.02083026856596" lon="2.5440695699445612"><ele>226.00000000000003</ele><time>2026-03-22T14:30:06Z</time></trkpt><trkpt lat="43.02075112654378" lon="2.543957048097583"><ele>226.00000000000003</ele><time>2026-03-22T14:30:07Z</time></trkpt><trkpt lat="43.02066102036703" lon="2.5438887588510957"><ele>226.0</ele><time>2026-03-22T14:30:08Z</time></trkpt><trkpt lat="43.02056075030884" lon="2.5438694548041116"><ele>226.0</ele><time>2026-03-22T14:30:08.999Z</time></trkpt><trkpt lat="43.02044887555167" lon="2.5438924636160754"><ele>226.0</ele><time>2026-03-22T14:30:09.999Z</time></trkpt><trkpt lat="43.020336509780286" lon="2.543936133736559"><ele>226.0</ele><time>2026-03-22T14:30:10.999Z</time></trkpt><trkpt lat="43.02020421403486" lon="2.543938402408421"><ele>226.0</ele><time>2026-03-22T14:30:11.999Z</time></trkpt><trkpt lat="43.020055625400765" lon="2.5439626546967635"><ele>226.0</ele><time>2026-03-22T14:30:12.999Z</time></trkpt><trkpt lat="43.01988714708837" lon="2.543988745672266"><ele>226.0</ele><time>2026-03-22T14:30:13.999Z</time></trkpt><trkpt lat="43.01972669662292" lon="2.544022422202921"><ele>226.0</ele><time>2026-03-22T14:30:14.999Z</time></trkpt><trkpt lat="43.01959865639065" lon="2.5440442438758826"><ele>226.0</ele><time>2026-03-22T14:30:15.999Z</time></trkpt><trkpt lat="43.019472844756116" lon="2.5440496602969276"><ele>226.0</ele><time>2026-03-22T14:30:16.999Z</time></trkpt><trkpt lat="43.01935560298216" lon="2.5440636086977144"><ele>226.0</ele><time>2026-03-22T14:30:17.999Z</time></trkpt><trkpt lat="43.01922523806347" lon="2.544088928714033"><ele>226.0</ele><time>2026-03-22T14:30:18.999Z</time></trkpt><trkpt lat="43.01908503280754" lon="2.5440583059057755"><ele>226.0</ele><time>2026-03-22T14:30:19.999Z</time></trkpt><trkpt lat="43.018943763961914" lon="2.5439968922629097"><ele>226.0</ele><time>2026-03-22T14:30:20.999Z</time></trkpt><trkpt lat="43.018795220176926" lon="2.5439221849678555"><ele>226.25</ele><time>2026-03-22T14:30:21.999Z</time></trkpt><trkpt lat="43.018657169599265" lon="2.5438325188391597"><ele>226.5</ele><time>2026-03-22T14:30:22.999Z</time></trkpt><trkpt lat="43.018517195038186" lon="2.5437490282225035"><ele>226.75</ele><time>2026-03-22T14:30:23.999Z</time></trkpt><trkpt lat="43.018392450063146" lon="2.5436741125604625"><ele>227.0</ele><time>2026-03-22T14:30:24.999Z</time></trkpt><trkpt lat="43.018258221615675" lon="2.543594351824884"><ele>227.0</ele><time>2026-03-22T14:30:25.999Z</time></trkpt><trkpt lat="43.0181142279336" lon="2.5435107242218766"><ele>227.0</ele><time>2026-03-22T14:30:26.999Z</time></trkpt><trkpt lat="43.01798507986308" lon="2.543432649795428"><ele>227.0</ele><time>2026-03-22T14:30:27.999Z</time></trkpt><trkpt lat="43.017872771009515" lon="2.543372089614306"><ele>227.0</ele><time>2026-03-22T14:30:28.999Z</time></trkpt><trkpt lat="43.01776317419821" lon="2.543318610846059"><ele>227.0</ele><time>2026-03-22T14:30:29.999Z</time></trkpt><trkpt lat="43.01765230697941" lon="2.543253674796435"><ele>227.0</ele><time>2026-03-22T14:30:30.999Z</time></trkpt><trkpt lat="43.01755187464727" lon="2.5431736390683715"><ele>227.0</ele><time>2026-03-22T14:30:31.999Z</time></trkpt><trkpt lat="43.01747506756702" lon="2.543049502228598"><ele>227.0</ele><time>2026-03-22T14:30:32.999Z</time></trkpt><trkpt lat="43.01740623435844" lon="2.5428947117951592"><ele>224.25</ele><time>2026-03-22T14:30:33.999Z</time></trkpt><trkpt lat="43.017375672365" lon="2.5427469553035777"><ele>221.5</ele><time>2026-03-22T14:30:34.999Z</time></trkpt><trkpt lat="43.017376752491664" lon="2.5425831751067047"><ele>218.75</ele><time>2026-03-22T14:30:35.999Z</time></trkpt><trkpt lat="43.017381115392986" lon="2.5423993829699914"><ele>216.0</ele><time>2026-03-22T14:30:36.999Z</time></trkpt><trkpt lat="43.01738821281509" lon="2.542190724507696"><ele>216.66666666666669</ele><time>2026-03-22T14:30:37.999Z</time></trkpt><trkpt lat="43.017389278558085" lon="2.5419641240112587"><ele>217.33333333333334</ele><time>2026-03-22T14:30:38.999Z</time></trkpt><trkpt lat="43.01739279373144" lon="2.5417116765161434"><ele>218.0</ele><time>2026-03-22T14:30:39.999Z</time></trkpt><trkpt lat="43.017395939686885" lon="2.5414595135722307"><ele>218.0</ele><time>2026-03-22T14:30:40.999Z</time></trkpt><trkpt lat="43.01739875287887" lon="2.5412562626197173"><ele>218.0</ele><time>2026-03-22T14:30:41.999Z</time></trkpt><trkpt lat="43.01740284361951" lon="2.54107580644272"><ele>218.0</ele><time>2026-03-22T14:30:42.999Z</time></trkpt><trkpt lat="43.01740901012187" lon="2.5409008097134578"><ele>218.0</ele><time>2026-03-22T14:30:43.999Z</time></trkpt><trkpt lat="43.01741600835818" lon="2.540718477110258"><ele>218.5</ele><time>2026-03-22T14:30:44.999Z</time></trkpt><trkpt lat="43.01741388995622" lon="2.5405391929072976"><ele>219.0</ele><time>2026-03-22T14:30:45.999Z</time></trkpt><trkpt lat="43.01741405724514" lon="2.5403713376388675"><ele>219.5</ele><time>2026-03-22T14:30:46.999Z</time></trkpt><trkpt lat="43.01741583490428" lon="2.5401987604298704"><ele>220.0</ele><time>2026-03-22T14:30:48Z</time></trkpt><trkpt lat="43.01741998781457" lon="2.5400410166408727"><ele>220.0</ele><time>2026-03-22T14:30:49Z</time></trkpt><trkpt lat="43.017432229942074" lon="2.5398902174695657"><ele>220.0</ele><time>2026-03-22T14:30:50Z</time></trkpt><trkpt lat="43.01746738864566" lon="2.5397132344684183"><ele>220.0</ele><time>2026-03-22T14:30:51Z</time></trkpt><trkpt lat="43.01753852855601" lon="2.539517300979611"><ele>220.0</ele><time>2026-03-22T14:30:52Z</time></trkpt><trkpt lat="43.01762655413386" lon="2.53931374658654"><ele>222.25</ele><time>2026-03-22T14:30:53Z</time></trkpt><trkpt lat="43.01769689273898" lon="2.5391490790166227"><ele>224.5</ele><time>2026-03-22T14:30:54Z</time></trkpt><trkpt lat="43.017751722079396" lon="2.5389974880454447"><ele>226.75</ele><time>2026-03-22T14:30:55Z</time></trkpt><trkpt lat="43.01780033046934" lon="2.5388355770663855"><ele>229.0</ele><time>2026-03-22T14:30:56Z</time></trkpt><trkpt lat="43.0178363349604" lon="2.538660921879505"><ele>229.0</ele><time>2026-03-22T14:30:57Z</time></trkpt><trkpt lat="43.017852591295366" lon="2.538491359877983"><ele>229.0</ele><time>2026-03-22T14:30:58Z</time></trkpt><trkpt lat="43.01784373010963" lon="2.5383067768206153"><ele>229.0</ele><time>2026-03-22T14:30:59Z</time></trkpt><trkpt lat="43.01781422996051" lon="2.538107388651446"><ele>229.0</ele><time>2026-03-22T14:31:00Z</time></trkpt><trkpt lat="43.01776489875698" lon="2.5379207725423427"><ele>227.5</ele><time>2026-03-22T14:31:01Z</time></trkpt><trkpt lat="43.01770673465369" lon="2.5377534044671943"><ele>226.0</ele><time>2026-03-22T14:31:02Z</time></trkpt><trkpt lat="43.01761785542659" lon="2.5375836380594716"><ele>224.5</ele><time>2026-03-22T14:31:03Z</time></trkpt><trkpt lat="43.01751573611687" lon="2.537430480668159"><ele>223.0</ele><time>2026-03-22T14:31:04Z</time></trkpt><trkpt lat="43.017411718873134" lon="2.5372848986747383"><ele>223.0</ele><time>2026-03-22T14:31:05Z</time></trkpt><trkpt lat="43.0173128282478" lon="2.537152598674839"><ele>223.0</ele><time>2026-03-22T14:31:06Z</time></trkpt><trkpt lat="43.01721168695457" lon="2.5370331512975453"><ele>223.0</ele><time>2026-03-22T14:31:07Z</time></trkpt><trkpt lat="43.01711239107759" lon="2.536918544720929"><ele>223.0</ele><time>2026-03-22T14:31:08Z</time></trkpt><trkpt lat="43.017017107464575" lon="2.5368099123528665"><ele>225.2</ele><time>2026-03-22T14:31:09Z</time></trkpt><trkpt lat="43.01693651725377" lon="2.536710739819505"><ele>227.4</ele><time>2026-03-22T14:31:10Z</time></trkpt><trkpt lat="43.01686229295372" lon="2.5366200553739704"><ele>229.59999999999997</ele><time>2026-03-22T14:31:11Z</time></trkpt><trkpt lat="43.01678862465451" lon="2.536538350489554"><ele>231.79999999999998</ele><time>2026-03-22T14:31:12Z</time></trkpt><trkpt lat="43.01670068648002" lon="2.5364746917989227"><ele>234.0</ele><time>2026-03-22T14:31:13Z</time></trkpt><trkpt lat="43.016584587355155" lon="2.5364548591946674"><ele>235.25</ele><time>2026-03-22T14:31:14Z</time></trkpt><trkpt lat="43.016483094886276" lon="2.5364731327660976"><ele>236.5</ele><time>2026-03-22T14:31:15Z</time></trkpt><trkpt lat="43.01634702344477" lon="2.5365349294166237"><ele>237.75</ele><time>2026-03-22T14:31:16Z</time></trkpt><trkpt lat="43.01620016182122" lon="2.536662031966627"><ele>239.0</ele><time>2026-03-22T14:31:17Z</time></trkpt><trkpt lat="43.016027735102945" lon="2.5368117786423694"><ele>239.0</ele><time>2026-03-22T14:31:18Z</time></trkpt><trkpt lat="43.01587241946134" lon="2.536946277806674"><ele>239.0</ele><time>2026-03-22T14:31:19Z</time></trkpt><trkpt lat="43.0157419658944" lon="2.537059247250585"><ele>239.0</ele><time>2026-03-22T14:31:20Z</time></trkpt><trkpt lat="43.0156111853169" lon="2.537172500005473"><ele>238.0</ele><time>2026-03-22T14:31:21Z</time></trkpt><trkpt lat="43.01547692307365" lon="2.5372887691026973"><ele>237.0</ele><time>2026-03-22T14:31:22Z</time></trkpt><trkpt lat="43.01535079367194" lon="2.5373979939840305"><ele>236.0</ele><time>2026-03-22T14:31:23Z</time></trkpt><trkpt lat="43.015239553870856" lon="2.537491912602364"><ele>235.0</ele><time>2026-03-22T14:31:24Z</time></trkpt><trkpt lat="43.01513538992806" lon="2.537577987552099"><ele>235.0</ele><time>2026-03-22T14:31:25Z</time></trkpt><trkpt lat="43.01503506159925" lon="2.537665006125159"><ele>235.0</ele><time>2026-03-22T14:31:26Z</time></trkpt><trkpt lat="43.014943432397196" lon="2.5377530834370994"><ele>235.0</ele><time>2026-03-22T14:31:27Z</time></trkpt><trkpt lat="43.01486845867698" lon="2.537863751835106"><ele>235.0</ele><time>2026-03-22T14:31:28Z</time></trkpt><trkpt lat="43.014831083448584" lon="2.538017907167809"><ele>233.4</ele><time>2026-03-22T14:31:29Z</time></trkpt><trkpt lat="43.014833547869785" lon="2.538183160277355"><ele>231.8</ele><time>2026-03-22T14:31:30Z</time></trkpt><trkpt lat="43.014854898339536" lon="2.538333670917614"><ele>230.2</ele><time>2026-03-22T14:31:31Z</time></trkpt><trkpt lat="43.01487340255528" lon="2.538472991728405"><ele>228.6</ele><time>2026-03-22T14:31:32Z</time></trkpt><trkpt lat="43.014888719688315" lon="2.538601623418202"><ele>227.0</ele><time>2026-03-22T14:31:33Z</time></trkpt><trkpt lat="43.01488621824459" lon="2.538710500383817"><ele>229.6</ele><time>2026-03-22T14:31:34Z</time></trkpt><trkpt lat="43.01487429120935" lon="2.5388052851329452"><ele>232.2</ele><time>2026-03-22T14:31:35Z</time></trkpt><trkpt lat="43.01480249944612" lon="2.5388399438659017"><ele>234.8</ele><time>2026-03-22T14:31:36Z</time></trkpt><trkpt lat="43.0147226258119" lon="2.5388705243295377"><ele>237.4</ele><time>2026-03-22T14:31:37Z</time></trkpt><trkpt lat="43.01459578682931" lon="2.5389199219011704"><ele>240.0</ele><time>2026-03-22T14:31:38Z</time></trkpt><trkpt lat="43.014456775371016" lon="2.5389598297170504"><ele>240.0</ele><time>2026-03-22T14:31:39Z</time></trkpt><trkpt lat="43.0143299963329" lon="2.5389749249869378"><ele>240.0</ele><time>2026-03-22T14:31:40Z</time></trkpt><trkpt lat="43.01419430222339" lon="2.538963118414675"><ele>240.0</ele><time>2026-03-22T14:31:41Z</time></trkpt><trkpt lat="43.0140783014273" lon="2.5389688503342445"><ele>240.0</ele><time>2026-03-22T14:31:42Z</time></trkpt><trkpt lat="43.013970531555536" lon="2.538953020469649"><ele>239.5</ele><time>2026-03-22T14:31:43Z</time></trkpt><trkpt lat="43.01383095618644" lon="2.5390338464164217"><ele>239.0</ele><time>2026-03-22T14:31:44Z</time></trkpt><trkpt lat="43.01370918060274" lon="2.5391003399981495"><ele>238.5</ele><time>2026-03-22T14:31:45Z</time></trkpt><trkpt lat="43.013600091526776" lon="2.539152213320852"><ele>238.0</ele><time>2026-03-22T14:31:46Z</time></trkpt><trkpt lat="43.0135040544795" lon="2.5391604072279854"><ele>238.0</ele><time>2026-03-22T14:31:47Z</time></trkpt><trkpt lat="43.01338026547425" lon="2.539137362441087"><ele>238.0</ele><time>2026-03-22T14:31:48Z</time></trkpt><trkpt lat="43.0132757991755" lon="2.539079641942333"><ele>238.0</ele><time>2026-03-22T14:31:49Z</time></trkpt><trkpt lat="43.013182074510276" lon="2.5390095521327383"><ele>238.0</ele><time>2026-03-22T14:31:50Z</time></trkpt><trkpt lat="43.013105580715994" lon="2.538904383188874"><ele>238.0</ele><time>2026-03-22T14:31:51Z</time></trkpt><trkpt lat="43.013026644570495" lon="2.5388325769381823"><ele>238.0</ele><time>2026-03-22T14:31:52Z</time></trkpt><trkpt lat="43.01294227906995" lon="2.5388240220458513"><ele>238.0</ele><time>2026-03-22T14:31:53Z</time></trkpt><trkpt lat="43.01286780204984" lon="2.538850739714331"><ele>238.0</ele><time>2026-03-22T14:31:54Z</time></trkpt><trkpt lat="43.01277401359095" lon="2.538911870723749"><ele>238.0</ele><time>2026-03-22T14:31:55Z</time></trkpt><trkpt lat="43.01268935558832" lon="2.539049437409471"><ele>238.0</ele><time>2026-03-22T14:31:56Z</time></trkpt><trkpt lat="43.01261350201743" lon="2.539118933574055"><ele>238.0</ele><time>2026-03-22T14:31:57Z</time></trkpt><trkpt lat="43.01254164651761" lon="2.539161778855352"><ele>238.0</ele><time>2026-03-22T14:31:58Z</time></trkpt><trkpt lat="43.01246970648537" lon="2.539103633205255"><ele>238.0</ele><time>2026-03-22T14:31:59Z</time></trkpt><trkpt lat="43.01240130289822" lon="2.5390110987572867"><ele>238.0</ele><time>2026-03-22T14:32:00Z</time></trkpt><trkpt lat="43.01236103302035" lon="2.5388608970929836"><ele>240.25</ele><time>2026-03-22T14:32:01Z</time></trkpt><trkpt lat="43.0123464162283" lon="2.538707520441346"><ele>242.5</ele><time>2026-03-22T14:32:02Z</time></trkpt><trkpt lat="43.01232705578873" lon="2.538548972705652"><ele>244.75</ele><time>2026-03-22T14:32:02.999Z</time></trkpt><trkpt lat="43.01230802721753" lon="2.5383744713530185"><ele>247.0</ele><time>2026-03-22T14:32:03.999Z</time></trkpt><trkpt lat="43.01227879313485" lon="2.538191223134535"><ele>247.0</ele><time>2026-03-22T14:32:04.999Z</time></trkpt><trkpt lat="43.012250867793405" lon="2.5380110397901805"><ele>247.0</ele><time>2026-03-22T14:32:05.999Z</time></trkpt><trkpt lat="43.012226059468695" lon="2.537839076504865"><ele>247.0</ele><time>2026-03-22T14:32:06.999Z</time></trkpt><trkpt lat="43.0122029213208" lon="2.537667943056473"><ele>247.0</ele><time>2026-03-22T14:32:07.999Z</time></trkpt><trkpt lat="43.01218350857697" lon="2.537472236092449"><ele>246.33333333333331</ele><time>2026-03-22T14:32:08.999Z</time></trkpt><trkpt lat="43.01216490957848" lon="2.5372680287088802"><ele>245.66666666666669</ele><time>2026-03-22T14:32:09.999Z</time></trkpt><trkpt lat="43.0121606364045" lon="2.5370492580011805"><ele>245.0</ele><time>2026-03-22T14:32:10.999Z</time></trkpt><trkpt lat="43.01217583758252" lon="2.536822186159448"><ele>245.0</ele><time>2026-03-22T14:32:11.999Z</time></trkpt><trkpt lat="43.012199770560365" lon="2.536628662400696"><ele>245.0</ele><time>2026-03-22T14:32:12.999Z</time></trkpt><trkpt lat="43.01222950919788" lon="2.536454215632166"><ele>245.0</ele><time>2026-03-22T14:32:13.999Z</time></trkpt><trkpt lat="43.012272623199706" lon="2.5362990831485894"><ele>245.0</ele><time>2026-03-22T14:32:14.999Z</time></trkpt><trkpt lat="43.012328688838046" lon="2.536165711183531"><ele>243.5</ele><time>2026-03-22T14:32:15.999Z</time></trkpt><trkpt lat="43.01240402341371" lon="2.5360314094482543"><ele>242.0</ele><time>2026-03-22T14:32:16.999Z</time></trkpt><trkpt lat="43.01250613698233" lon="2.535918406907995"><ele>240.5</ele><time>2026-03-22T14:32:17.999Z</time></trkpt><trkpt lat="43.01262392981317" lon="2.5358115937134618"><ele>239.0</ele><time>2026-03-22T14:32:18.999Z</time></trkpt><trkpt lat="43.01272341989998" lon="2.535709545022763"><ele>239.0</ele><time>2026-03-22T14:32:19.999Z</time></trkpt><trkpt lat="43.012808650792934" lon="2.5356102236405786"><ele>239.0</ele><time>2026-03-22T14:32:20.999Z</time></trkpt><trkpt lat="43.01287148492358" lon="2.535496220014893"><ele>239.0</ele><time>2026-03-22T14:32:21.999Z</time></trkpt><trkpt lat="43.01290961420193" lon="2.535346441008601"><ele>239.0</ele><time>2026-03-22T14:32:22.999Z</time></trkpt><trkpt lat="43.01292334581569" lon="2.5351837737102225"><ele>238.79999999999998</ele><time>2026-03-22T14:32:23.999Z</time></trkpt><trkpt lat="43.01290141864097" lon="2.535021128112685"><ele>238.59999999999997</ele><time>2026-03-22T14:32:24.999Z</time></trkpt><trkpt lat="43.01286492879494" lon="2.5348853911506497"><ele>238.4</ele><time>2026-03-22T14:32:25.999Z</time></trkpt><trkpt lat="43.01280227248862" lon="2.534794692940569"><ele>238.2</ele><time>2026-03-22T14:32:26.999Z</time></trkpt><trkpt lat="43.01271379857539" lon="2.5347473681678476"><ele>238.0</ele><time>2026-03-22T14:32:27.999Z</time></trkpt><trkpt lat="43.01260154358698" lon="2.534697428384467"><ele>238.0</ele><time>2026-03-22T14:32:28.999Z</time></trkpt><trkpt lat="43.01248962735394" lon="2.5346559920514355"><ele>238.0</ele><time>2026-03-22T14:32:29.999Z</time></trkpt><trkpt lat="43.01240364708748" lon="2.5346001958901208"><ele>238.0</ele><time>2026-03-22T14:32:30.999Z</time></trkpt><trkpt lat="43.012325471176645" lon="2.534505868590065"><ele>238.0</ele><time>2026-03-22T14:32:31.999Z</time></trkpt><trkpt lat="43.01226765662164" lon="2.5343578175644095"><ele>238.0</ele><time>2026-03-22T14:32:32.999Z</time></trkpt><trkpt lat="43.01222727872522" lon="2.534187239205727"><ele>243.25</ele><time>2026-03-22T14:32:33.999Z</time></trkpt><trkpt lat="43.01219477886557" lon="2.533965415927798"><ele>248.5</ele><time>2026-03-22T14:32:34.999Z</time></trkpt><trkpt lat="43.01216342129978" lon="2.5337706348621314"><ele>253.75</ele><time>2026-03-22T14:32:35.999Z</time></trkpt><trkpt lat="43.012135865825506" lon="2.5336058756442013"><ele>259.0</ele><time>2026-03-22T14:32:36.999Z</time></trkpt><trkpt lat="43.01212119970605" lon="2.533433420451823"><ele>259.0</ele><time>2026-03-22T14:32:37.999Z</time></trkpt><trkpt lat="43.012136101254065" lon="2.5332695607196993"><ele>259.0</ele><time>2026-03-22T14:32:38.999Z</time></trkpt><trkpt lat="43.012183227083156" lon="2.5330938760597084"><ele>259.0</ele><time>2026-03-22T14:32:39.999Z</time></trkpt><trkpt lat="43.012234455525636" lon="2.5328971042265596"><ele>259.0</ele><time>2026-03-22T14:32:40.999Z</time></trkpt><trkpt lat="43.01226879023251" lon="2.532715558768686"><ele>259.5</ele><time>2026-03-22T14:32:41.999Z</time></trkpt><trkpt lat="43.012279867037236" lon="2.532556616118162"><ele>260.0</ele><time>2026-03-22T14:32:42.999Z</time></trkpt><trkpt lat="43.01229466467633" lon="2.5323835754066377"><ele>260.5</ele><time>2026-03-22T14:32:43.999Z</time></trkpt><trkpt lat="43.01232389913304" lon="2.532208712040456"><ele>261.0</ele><time>2026-03-22T14:32:44.999Z</time></trkpt><trkpt lat="43.01239544428367" lon="2.5320296014933783"><ele>256.0</ele><time>2026-03-22T14:32:45.999Z</time></trkpt><trkpt lat="43.01249468905979" lon="2.5318729429248616"><ele>251.0</ele><time>2026-03-22T14:32:46.999Z</time></trkpt><trkpt lat="43.01258965793755" lon="2.5317367147494734"><ele>246.0</ele><time>2026-03-22T14:32:47.999Z</time></trkpt><trkpt lat="43.01265634042304" lon="2.531604222485219"><ele>241.0</ele><time>2026-03-22T14:32:48.999Z</time></trkpt><trkpt lat="43.01271769883576" lon="2.5314755935782993"><ele>241.0</ele><time>2026-03-22T14:32:49.999Z</time></trkpt><trkpt lat="43.012760673211545" lon="2.5313588067679746"><ele>241.00000000000003</ele><time>2026-03-22T14:32:50.999Z</time></trkpt><trkpt lat="43.01278041067647" lon="2.5312279214359212"><ele>241.00000000000003</ele><time>2026-03-22T14:32:51.999Z</time></trkpt><trkpt lat="43.01276948288179" lon="2.5310837325497593"><ele>241.0</ele><time>2026-03-22T14:32:52.999Z</time></trkpt><trkpt lat="43.012726969973485" lon="2.5309184650056107"><ele>241.0</ele><time>2026-03-22T14:32:54Z</time></trkpt><trkpt lat="43.012663067864295" lon="2.5307366055268896"><ele>241.0</ele><time>2026-03-22T14:32:55Z</time></trkpt><trkpt lat="43.01263159706893" lon="2.5305787673660016"><ele>241.0</ele><time>2026-03-22T14:32:56Z</time></trkpt><trkpt lat="43.012635872475606" lon="2.530422123947138"><ele>241.0</ele><time>2026-03-22T14:32:57Z</time></trkpt><trkpt lat="43.012670898715236" lon="2.5302560516597845"><ele>241.0</ele><time>2026-03-22T14:32:58Z</time></trkpt><trkpt lat="43.01271048708498" lon="2.5300794222984258"><ele>241.0</ele><time>2026-03-22T14:32:59Z</time></trkpt><trkpt lat="43.012726871686525" lon="2.529899731704284"><ele>241.0</ele><time>2026-03-22T14:33:00Z</time></trkpt><trkpt lat="43.01271627993454" lon="2.52972081846907"><ele>241.0</ele><time>2026-03-22T14:33:01Z</time></trkpt><trkpt lat="43.012688872331445" lon="2.5295527460763796"><ele>241.0</ele><time>2026-03-22T14:33:02Z</time></trkpt><trkpt lat="43.01263912334209" lon="2.529377544880531"><ele>240.5</ele><time>2026-03-22T14:33:03Z</time></trkpt><trkpt lat="43.01258201747839" lon="2.5292034422541025"><ele>240.0</ele><time>2026-03-22T14:33:04Z</time></trkpt><trkpt lat="43.01250961902179" lon="2.5290352549441417"><ele>239.5</ele><time>2026-03-22T14:33:05Z</time></trkpt><trkpt lat="43.01241054079702" lon="2.5288634465270072"><ele>239.0</ele><time>2026-03-22T14:33:06Z</time></trkpt><trkpt lat="43.01229540656482" lon="2.5287049922497795"><ele>241.0</ele><time>2026-03-22T14:33:07Z</time></trkpt><trkpt lat="43.0121676469995" lon="2.528570468793143"><ele>243.0</ele><time>2026-03-22T14:33:08Z</time></trkpt><trkpt lat="43.01203908521624" lon="2.5284536018991735"><ele>245.0</ele><time>2026-03-22T14:33:09Z</time></trkpt><trkpt lat="43.011921875933616" lon="2.528350851006929"><ele>245.0</ele><time>2026-03-22T14:33:10Z</time></trkpt><trkpt lat="43.01181477420255" lon="2.5282549379730237"><ele>245.0</ele><time>2026-03-22T14:33:11Z</time></trkpt><trkpt lat="43.011711581898005" lon="2.52816594859594"><ele>245.0</ele><time>2026-03-22T14:33:12Z</time></trkpt><trkpt lat="43.01158807660189" lon="2.528083453133191"><ele>245.0</ele><time>2026-03-22T14:33:13Z</time></trkpt><trkpt lat="43.01144624820243" lon="2.5280267043982394"><ele>244.75</ele><time>2026-03-22T14:33:14Z</time></trkpt><trkpt lat="43.01133241225914" lon="2.5279657119801904"><ele>244.5</ele><time>2026-03-22T14:33:15Z</time></trkpt><trkpt lat="43.01122089525957" lon="2.5278865359057914"><ele>244.25</ele><time>2026-03-22T14:33:16Z</time></trkpt><trkpt lat="43.011105715782605" lon="2.527777470967444"><ele>244.0</ele><time>2026-03-22T14:33:17Z</time></trkpt><trkpt lat="43.01100417481382" lon="2.5276307852425606"><ele>244.0</ele><time>2026-03-22T14:33:18Z</time></trkpt><trkpt lat="43.01092255158898" lon="2.5274478021006366"><ele>244.0</ele><time>2026-03-22T14:33:19Z</time></trkpt><trkpt lat="43.010850729854695" lon="2.5272386784969543"><ele>244.0</ele><time>2026-03-22T14:33:20Z</time></trkpt><trkpt lat="43.01080215748685" lon="2.527053318340434"><ele>242.79999999999998</ele><time>2026-03-22T14:33:21Z</time></trkpt><trkpt lat="43.010760564010276" lon="2.526896273372375"><ele>241.59999999999997</ele><time>2026-03-22T14:33:22Z</time></trkpt><trkpt lat="43.010707668018505" lon="2.5267747075976694"><ele>240.4</ele><time>2026-03-22T14:33:23Z</time></trkpt><trkpt lat="43.010632343375384" lon="2.5266947979463326"><ele>239.2</ele><time>2026-03-22T14:33:24Z</time></trkpt><trkpt lat="43.010532302862245" lon="2.5266411006965894"><ele>238.0</ele><time>2026-03-22T14:33:25Z</time></trkpt><trkpt lat="43.01040683528302" lon="2.526631870343668"><ele>238.0</ele><time>2026-03-22T14:33:26Z</time></trkpt><trkpt lat="43.01026738088305" lon="2.5266379887360837"><ele>238.0</ele><time>2026-03-22T14:33:27Z</time></trkpt><trkpt lat="43.01012450169509" lon="2.526640401268298"><ele>238.0</ele><time>2026-03-22T14:33:28Z</time></trkpt><trkpt lat="43.009973767927235" lon="2.5266473469724424"><ele>238.0</ele><time>2026-03-22T14:33:29Z</time></trkpt><trkpt lat="43.00982581001951" lon="2.5266605428318285"><ele>239.25</ele><time>2026-03-22T14:33:30Z</time></trkpt><trkpt lat="43.00968181043682" lon="2.52665896869453"><ele>240.5</ele><time>2026-03-22T14:33:31Z</time></trkpt><trkpt lat="43.00955671927288" lon="2.5266678523450987"><ele>241.75</ele><time>2026-03-22T14:33:32Z</time></trkpt><trkpt lat="43.009423957892274" lon="2.526666950694397"><ele>243.0</ele><time>2026-03-22T14:33:33Z</time></trkpt><trkpt lat="43.00928813628326" lon="2.5266520007842144"><ele>246.0</ele><time>2026-03-22T14:33:34Z</time></trkpt><trkpt lat="43.00915876427676" lon="2.5266049726299724"><ele>249.0</ele><time>2026-03-22T14:33:35Z</time></trkpt><trkpt lat="43.00903693117055" lon="2.5265363537237544"><ele>252.0</ele><time>2026-03-22T14:33:36Z</time></trkpt><trkpt lat="43.00892349336738" lon="2.5264384852662776"><ele>255.0</ele><time>2026-03-22T14:33:37Z</time></trkpt><trkpt lat="43.00881994594407" lon="2.5263219395513112"><ele>252.5</ele><time>2026-03-22T14:33:38Z</time></trkpt><trkpt lat="43.00874401611219" lon="2.526182359802767"><ele>250.0</ele><time>2026-03-22T14:33:39Z</time></trkpt><trkpt lat="43.00868001866849" lon="2.5260413044551266"><ele>247.5</ele><time>2026-03-22T14:33:40Z</time></trkpt><trkpt lat="43.008612637800034" lon="2.5259149543090813"><ele>245.0</ele><time>2026-03-22T14:33:41Z</time></trkpt><trkpt lat="43.008529549374984" lon="2.525799861527658"><ele>245.0</ele><time>2026-03-22T14:33:42Z</time></trkpt><trkpt lat="43.00842641812651" lon="2.525702734283777"><ele>245.0</ele><time>2026-03-22T14:33:43Z</time></trkpt><trkpt lat="43.00830769194963" lon="2.5256245473093606"><ele>245.0</ele><time>2026-03-22T14:33:44Z</time></trkpt><trkpt lat="43.00818855843037" lon="2.5255660981511867"><ele>245.0</ele><time>2026-03-22T14:33:45Z</time></trkpt><trkpt lat="43.0080582643684" lon="2.5255204832052724"><ele>245.6</ele><time>2026-03-22T14:33:46Z</time></trkpt><trkpt lat="43.007923631546845" lon="2.525452709293282"><ele>246.2</ele><time>2026-03-22T14:33:47Z</time></trkpt><trkpt lat="43.00783520616807" lon="2.5253715605840124"><ele>246.8</ele><time>2026-03-22T14:33:48Z</time></trkpt><trkpt lat="43.00775496180581" lon="2.525290350836474"><ele>247.4</ele><time>2026-03-22T14:33:49Z</time></trkpt><trkpt lat="43.00766587352512" lon="2.5252385394310743"><ele>248.0</ele><time>2026-03-22T14:33:50Z</time></trkpt><trkpt lat="43.00754598907402" lon="2.525207882410679"><ele>246.8</ele><time>2026-03-22T14:33:51Z</time></trkpt><trkpt lat="43.00743471466192" lon="2.5252098135530803"><ele>245.60000000000002</ele><time>2026-03-22T14:33:52Z</time></trkpt><trkpt lat="43.00734334594353" lon="2.52521166433129"><ele>244.39999999999998</ele><time>2026-03-22T14:33:53Z</time></trkpt><trkpt lat="43.00724918565671" lon="2.525213885548163"><ele>243.2</ele><time>2026-03-22T14:33:54Z</time></trkpt><trkpt lat="43.007150746936226" lon="2.525165607163438"><ele>242.0</ele><time>2026-03-22T14:33:55Z</time></trkpt><trkpt lat="43.00705575637409" lon="2.525098939563"><ele>242.0</ele><time>2026-03-22T14:33:56Z</time></trkpt><trkpt lat="43.006975898942535" lon="2.5250197604398856"><ele>242.0</ele><time>2026-03-22T14:33:57Z</time></trkpt><trkpt lat="43.006905488662326" lon="2.524932099852213"><ele>242.0</ele><time>2026-03-22T14:33:58Z</time></trkpt><trkpt lat="43.0068275903981" lon="2.5248533585364186"><ele>242.0</ele><time>2026-03-22T14:33:59Z</time></trkpt><trkpt lat="43.00675821012237" lon="2.5247895557730877"><ele>242.0</ele><time>2026-03-22T14:34:00Z</time></trkpt><trkpt lat="43.00668622669852" lon="2.5247151504910845"><ele>244.0</ele><time>2026-03-22T14:34:01Z</time></trkpt><trkpt lat="43.00660309741555" lon="2.5246208097155103"><ele>246.0</ele><time>2026-03-22T14:34:02Z</time></trkpt><trkpt lat="43.00649884491367" lon="2.5244778827880316"><ele>248.0</ele><time>2026-03-22T14:34:03Z</time></trkpt><trkpt lat="43.00640219612961" lon="2.5243276492841087"><ele>250.0</ele><time>2026-03-22T14:34:04Z</time></trkpt><trkpt lat="43.006327623233815" lon="2.524190833100607"><ele>250.0</ele><time>2026-03-22T14:34:05Z</time></trkpt><trkpt lat="43.00626668413302" lon="2.5240799885571277"><ele>250.0</ele><time>2026-03-22T14:34:06Z</time></trkpt><trkpt lat="43.00620607577694" lon="2.5239804446744896"><ele>250.0</ele><time>2026-03-22T14:34:07Z</time></trkpt><trkpt lat="43.00614364931739" lon="2.523880733023703"><ele>250.0</ele><time>2026-03-22T14:34:08Z</time></trkpt><trkpt lat="43.006085687629934" lon="2.523781339458367"><ele>250.0</ele><time>2026-03-22T14:34:09Z</time></trkpt><trkpt lat="43.0060464320221" lon="2.523685142677458"><ele>248.0</ele><time>2026-03-22T14:34:10Z</time></trkpt><trkpt lat="43.00602049573344" lon="2.5235889381797216"><ele>246.0</ele><time>2026-03-22T14:34:11Z</time></trkpt><trkpt lat="43.00600135206934" lon="2.5234731470816723"><ele>244.0</ele><time>2026-03-22T14:34:12Z</time></trkpt><trkpt lat="43.00599300098435" lon="2.523358371527281"><ele>242.0</ele><time>2026-03-22T14:34:13Z</time></trkpt><trkpt lat="43.006006299083325" lon="2.5232195718622106"><ele>240.0</ele><time>2026-03-22T14:34:14Z</time></trkpt><trkpt lat="43.00603466194505" lon="2.5230553481632065"><ele>239.25</ele><time>2026-03-22T14:34:15Z</time></trkpt><trkpt lat="43.006069405792395" lon="2.522869634567537"><ele>238.5</ele><time>2026-03-22T14:34:16Z</time></trkpt><trkpt lat="43.00609187098791" lon="2.5227194695225337"><ele>237.75</ele><time>2026-03-22T14:34:17Z</time></trkpt><trkpt lat="43.00610412811061" lon="2.5225836443733667"><ele>237.0</ele><time>2026-03-22T14:34:18Z</time></trkpt><trkpt lat="43.00611303766307" lon="2.5224465441687207"><ele>237.0</ele><time>2026-03-22T14:34:19Z</time></trkpt><trkpt lat="43.0061122297038" lon="2.522320668357761"><ele>237.0</ele><time>2026-03-22T14:34:20Z</time></trkpt><trkpt lat="43.00608228362016" lon="2.522194308670495"><ele>237.0</ele><time>2026-03-22T14:34:21Z</time></trkpt><trkpt lat="43.00600774311632" lon="2.5220369964280245"><ele>237.0</ele><time>2026-03-22T14:34:22Z</time></trkpt><trkpt lat="43.00592877995828" lon="2.5219004178323865"><ele>237.75</ele><time>2026-03-22T14:34:23Z</time></trkpt><trkpt lat="43.00580850337002" lon="2.5217625825380225"><ele>238.5</ele><time>2026-03-22T14:34:23.999Z</time></trkpt><trkpt lat="43.00570767843743" lon="2.5216318464214584"><ele>239.25</ele><time>2026-03-22T14:34:24.999Z</time></trkpt><trkpt lat="43.00558961230135" lon="2.5215309067776768"><ele>240.0</ele><time>2026-03-22T14:34:25.999Z</time></trkpt><trkpt lat="43.00549744539751" lon="2.5214184203608587"><ele>240.0</ele><time>2026-03-22T14:34:26.999Z</time></trkpt><trkpt lat="43.005434640560594" lon="2.5213395336259348"><ele>240.0</ele><time>2026-03-22T14:34:27.999Z</time></trkpt><trkpt lat="43.00537728536424" lon="2.521254838185657"><ele>240.0</ele><time>2026-03-22T14:34:28.999Z</time></trkpt><trkpt lat="43.0053172636953" lon="2.5211516899730944"><ele>240.0</ele><time>2026-03-22T14:34:29.999Z</time></trkpt><trkpt lat="43.00528425857127" lon="2.52103119913501"><ele>240.0</ele><time>2026-03-22T14:34:30.999Z</time></trkpt><trkpt lat="43.00526805963938" lon="2.5208939776428"><ele>240.25</ele><time>2026-03-22T14:34:31.999Z</time></trkpt><trkpt lat="43.00528063610728" lon="2.5207523133131096"><ele>240.5</ele><time>2026-03-22T14:34:32.999Z</time></trkpt><trkpt lat="43.00532325848308" lon="2.520600672731768"><ele>240.75</ele><time>2026-03-22T14:34:33.999Z</time></trkpt><trkpt lat="43.00537150559194" lon="2.520430205808916"><ele>241.0</ele><time>2026-03-22T14:34:34.999Z</time></trkpt><trkpt lat="43.00542459585283" lon="2.5202399876918617"><ele>241.0</ele><time>2026-03-22T14:34:35.999Z</time></trkpt><trkpt lat="43.00546404521371" lon="2.5200764232552952"><ele>241.0</ele><time>2026-03-22T14:34:36.999Z</time></trkpt><trkpt lat="43.00551317930043" lon="2.519911015557842"><ele>241.0</ele><time>2026-03-22T14:34:37.999Z</time></trkpt><trkpt lat="43.00556070836478" lon="2.5197292249145717"><ele>241.0</ele><time>2026-03-22T14:34:38.999Z</time></trkpt><trkpt lat="43.005605755241895" lon="2.519551877120586"><ele>241.0</ele><time>2026-03-22T14:34:39.999Z</time></trkpt><trkpt lat="43.00564481901373" lon="2.5193870313752553"><ele>241.0</ele><time>2026-03-22T14:34:40.999Z</time></trkpt><trkpt lat="43.005693466340446" lon="2.519217894875055"><ele>241.0</ele><time>2026-03-22T14:34:41.999Z</time></trkpt><trkpt lat="43.005729687451" lon="2.5190486371154326"><ele>241.0</ele><time>2026-03-22T14:34:42.999Z</time></trkpt><trkpt lat="43.005767033041685" lon="2.518852287217756"><ele>242.0</ele><time>2026-03-22T14:34:43.999Z</time></trkpt><trkpt lat="43.00580395477028" lon="2.5186085707326265"><ele>243.0</ele><time>2026-03-22T14:34:44.999Z</time></trkpt><trkpt lat="43.005858563358956" lon="2.5183703826770922"><ele>244.0</ele><time>2026-03-22T14:34:45.999Z</time></trkpt><trkpt lat="43.00592238187602" lon="2.5181874100383355"><ele>244.2</ele><time>2026-03-22T14:34:46.999Z</time></trkpt><trkpt lat="43.00598045747939" lon="2.5180336516908173"><ele>244.39999999999998</ele><time>2026-03-22T14:34:47.999Z</time></trkpt><trkpt lat="43.00603164020146" lon="2.517905372910242"><ele>244.6</ele><time>2026-03-22T14:34:48.999Z</time></trkpt><trkpt lat="43.00608611515996" lon="2.5178120858526665"><ele>244.8</ele><time>2026-03-22T14:34:49.999Z</time></trkpt><trkpt lat="43.00614372729151" lon="2.517737423025328"><ele>245.0</ele><time>2026-03-22T14:34:50.999Z</time></trkpt><trkpt lat="43.00619016764657" lon="2.517658003403246"><ele>244.50000000000003</ele><time>2026-03-22T14:34:51.999Z</time></trkpt><trkpt lat="43.006259050802704" lon="2.517528334554067"><ele>244.0</ele><time>2026-03-22T14:34:53.999Z</time></trkpt><trkpt lat="43.006318920243395" lon="2.517437893330473"><ele>243.5</ele><time>2026-03-22T14:34:55.999Z</time></trkpt><trkpt lat="43.006364199406285" lon="2.5173508496567374"><ele>243.0</ele><time>2026-03-22T14:34:57.999Z</time></trkpt><trkpt lat="43.006393970213516" lon="2.5172656058807115"><ele>242.50000000000003</ele><time>2026-03-22T14:35:15Z</time></trkpt><trkpt lat="43.00643278159894" lon="2.5171667769243733"><ele>242.0</ele><time>2026-03-22T14:36:53.999Z</time></trkpt><trkpt lat="43.00646193860774" lon="2.5170549739282126"><ele>241.25</ele><time>2026-03-22T14:36:54.999Z</time></trkpt><trkpt lat="43.00649447198864" lon="2.516904029291196"><ele>240.5</ele><time>2026-03-22T14:36:55.999Z</time></trkpt><trkpt lat="43.00652317774628" lon="2.5167620518531018"><ele>239.75</ele><time>2026-03-22T14:36:56.999Z</time></trkpt><trkpt lat="43.00655404333688" lon="2.516596721573205"><ele>239.0</ele><time>2026-03-22T14:36:57.999Z</time></trkpt><trkpt lat="43.00658677172207" lon="2.516454948086842"><ele>239.0</ele><time>2026-03-22T14:36:58.999Z</time></trkpt><trkpt lat="43.00662145765193" lon="2.5163282360802284"><ele>238.99999999999997</ele><time>2026-03-22T14:36:59.999Z</time></trkpt><trkpt lat="43.00665018201768" lon="2.516202230215359"><ele>238.99999999999997</ele><time>2026-03-22T14:37:00.999Z</time></trkpt><trkpt lat="43.006686202521465" lon="2.516066941431001"><ele>239.0</ele><time>2026-03-22T14:37:01.999Z</time></trkpt><trkpt lat="43.00673238654049" lon="2.5159041596305007"><ele>239.0</ele><time>2026-03-22T14:37:02.999Z</time></trkpt><trkpt lat="43.00679818279635" lon="2.5157267761578406"><ele>239.5</ele><time>2026-03-22T14:37:03.999Z</time></trkpt><trkpt lat="43.00686417764244" lon="2.5155490900871214"><ele>240.0</ele><time>2026-03-22T14:37:04.999Z</time></trkpt><trkpt lat="43.00691623462827" lon="2.515385436334355"><ele>240.5</ele><time>2026-03-22T14:37:06Z</time></trkpt><trkpt lat="43.00696258108114" lon="2.515207469614671"><ele>241.0</ele><time>2026-03-22T14:37:07Z</time></trkpt><trkpt lat="43.00700444659482" lon="2.5150186230046234"><ele>241.0</ele><time>2026-03-22T14:37:08Z</time></trkpt><trkpt lat="43.00705769172729" lon="2.5148185866417485"><ele>241.0</ele><time>2026-03-22T14:37:09Z</time></trkpt><trkpt lat="43.00710936545858" lon="2.514624040473606"><ele>241.0</ele><time>2026-03-22T14:37:10Z</time></trkpt><trkpt lat="43.00716855999799" lon="2.5144259476103303"><ele>240.75</ele><time>2026-03-22T14:37:11Z</time></trkpt><trkpt lat="43.00721925569018" lon="2.514250974492774"><ele>240.5</ele><time>2026-03-22T14:37:12Z</time></trkpt><trkpt lat="43.007275527660816" lon="2.5140842716350686"><ele>240.25</ele><time>2026-03-22T14:37:13Z</time></trkpt><trkpt lat="43.00732254914703" lon="2.513927547201219"><ele>240.0</ele><time>2026-03-22T14:37:14Z</time></trkpt><trkpt lat="43.007374320710156" lon="2.513760972172214"><ele>240.66666666666669</ele><time>2026-03-22T14:37:15Z</time></trkpt><trkpt lat="43.007407449200095" lon="2.5135807595075295"><ele>241.33333333333334</ele><time>2026-03-22T14:37:16Z</time></trkpt><trkpt lat="43.00743275272233" lon="2.5133745794324196"><ele>242.0</ele><time>2026-03-22T14:37:17Z</time></trkpt><trkpt lat="43.007451407277784" lon="2.513152736900576"><ele>242.0</ele><time>2026-03-22T14:37:18Z</time></trkpt><trkpt lat="43.007463156625434" lon="2.5129337195263726"><ele>242.0</ele><time>2026-03-22T14:37:19Z</time></trkpt><trkpt lat="43.00748093692793" lon="2.5127280033482733"><ele>242.0</ele><time>2026-03-22T14:37:20Z</time></trkpt><trkpt lat="43.00750004031231" lon="2.512532862425864"><ele>243.0</ele><time>2026-03-22T14:37:21Z</time></trkpt><trkpt lat="43.007534215899646" lon="2.512344876114722"><ele>244.0</ele><time>2026-03-22T14:37:22Z</time></trkpt><trkpt lat="43.00759471829461" lon="2.512133028436052"><ele>245.0</ele><time>2026-03-22T14:37:23Z</time></trkpt><trkpt lat="43.00767473658772" lon="2.5119242805822237"><ele>245.0</ele><time>2026-03-22T14:37:24Z</time></trkpt><trkpt lat="43.00772412666511" lon="2.511719049099544"><ele>245.0</ele><time>2026-03-22T14:37:25Z</time></trkpt><trkpt lat="43.00775578662008" lon="2.511490717627101"><ele>245.0</ele><time>2026-03-22T14:37:26Z</time></trkpt><trkpt lat="43.00777759426858" lon="2.5112496457515596"><ele>244.0</ele><time>2026-03-22T14:37:27Z</time></trkpt><trkpt lat="43.00780735900039" lon="2.5110128903449835"><ele>243.0</ele><time>2026-03-22T14:37:28Z</time></trkpt><trkpt lat="43.00783613198963" lon="2.510784244582364"><ele>242.0</ele><time>2026-03-22T14:37:29Z</time></trkpt><trkpt lat="43.00786533757334" lon="2.510556081991087"><ele>241.66666666666669</ele><time>2026-03-22T14:37:30Z</time></trkpt><trkpt lat="43.00789841911017" lon="2.510315856430788"><ele>241.33333333333331</ele><time>2026-03-22T14:37:31Z</time></trkpt><trkpt lat="43.00792870934361" lon="2.510075227925572"><ele>241.0</ele><time>2026-03-22T14:37:32Z</time></trkpt><trkpt lat="43.00796095351365" lon="2.509837835737609"><ele>241.0</ele><time>2026-03-22T14:37:33Z</time></trkpt><trkpt lat="43.00798664616639" lon="2.5096321387253497"><ele>241.0</ele><time>2026-03-22T14:37:34Z</time></trkpt><trkpt lat="43.00801786423039" lon="2.509424194690808"><ele>241.0</ele><time>2026-03-22T14:37:35Z</time></trkpt><trkpt lat="43.00806146065274" lon="2.5091971006294673"><ele>241.66666666666666</ele><time>2026-03-22T14:37:36Z</time></trkpt><trkpt lat="43.00811499198867" lon="2.5089724638095063"><ele>242.33333333333331</ele><time>2026-03-22T14:37:37Z</time></trkpt><trkpt lat="43.00816176518115" lon="2.508771827321604"><ele>243.0</ele><time>2026-03-22T14:37:38Z</time></trkpt><trkpt lat="43.00820482504614" lon="2.5085634732868747"><ele>244.0</ele><time>2026-03-22T14:37:39Z</time></trkpt><trkpt lat="43.00822592145543" lon="2.5083385347149654"><ele>245.0</ele><time>2026-03-22T14:37:40Z</time></trkpt><trkpt lat="43.008228289199984" lon="2.508093570058905"><ele>246.0</ele><time>2026-03-22T14:37:41Z</time></trkpt><trkpt lat="43.00823423386191" lon="2.5078282029950234"><ele>246.0</ele><time>2026-03-22T14:37:42Z</time></trkpt><trkpt lat="43.0082519474574" lon="2.507579006660592"><ele>246.0</ele><time>2026-03-22T14:37:43Z</time></trkpt><trkpt lat="43.00828200739642" lon="2.507344722327359"><ele>246.0</ele><time>2026-03-22T14:37:44Z</time></trkpt><trkpt lat="43.00832380584999" lon="2.5071079030828356"><ele>246.33333333333331</ele><time>2026-03-22T14:37:45Z</time></trkpt><trkpt lat="43.00834624304033" lon="2.506880912963461"><ele>246.66666666666666</ele><time>2026-03-22T14:37:46Z</time></trkpt><trkpt lat="43.00835346171216" lon="2.5066486183591"><ele>247.0</ele><time>2026-03-22T14:37:47Z</time></trkpt><trkpt lat="43.00835024609288" lon="2.506432556284994"><ele>247.25</ele><time>2026-03-22T14:37:48Z</time></trkpt><trkpt lat="43.00836071075876" lon="2.5062335087725707"><ele>247.5</ele><time>2026-03-22T14:37:49Z</time></trkpt><trkpt lat="43.00839017838626" lon="2.506033372484033"><ele>247.75</ele><time>2026-03-22T14:37:50Z</time></trkpt><trkpt lat="43.008435251033106" lon="2.505840825155606"><ele>248.0</ele><time>2026-03-22T14:37:51Z</time></trkpt><trkpt lat="43.00848951384672" lon="2.5056721759154597"><ele>248.0</ele><time>2026-03-22T14:37:52Z</time></trkpt><trkpt lat="43.00853820706335" lon="2.505506073816957"><ele>248.0</ele><time>2026-03-22T14:37:53Z</time></trkpt><trkpt lat="43.008579244647585" lon="2.5053324374807238"><ele>248.0</ele><time>2026-03-22T14:37:54Z</time></trkpt><trkpt lat="43.008603920769566" lon="2.505169031378673"><ele>248.0</ele><time>2026-03-22T14:37:55Z</time></trkpt><trkpt lat="43.00859176418927" lon="2.5049772049374273"><ele>248.0</ele><time>2026-03-22T14:37:56Z</time></trkpt><trkpt lat="43.008544730118366" lon="2.5047569939510956"><ele>248.0</ele><time>2026-03-22T14:37:57Z</time></trkpt><trkpt lat="43.00849649681727" lon="2.504556228348661"><ele>248.0</ele><time>2026-03-22T14:37:58Z</time></trkpt><trkpt lat="43.008474627428626" lon="2.5043501502301115"><ele>248.75</ele><time>2026-03-22T14:37:59Z</time></trkpt><trkpt lat="43.00844668938634" lon="2.504156903196758"><ele>249.5</ele><time>2026-03-22T14:38:00Z</time></trkpt><trkpt lat="43.0084262045135" lon="2.503952833704944"><ele>250.25</ele><time>2026-03-22T14:38:01Z</time></trkpt><trkpt lat="43.00842004321056" lon="2.503746297989097"><ele>251.0</ele><time>2026-03-22T14:38:02Z</time></trkpt><trkpt lat="43.00841392043215" lon="2.50355416393995"><ele>251.0</ele><time>2026-03-22T14:38:03Z</time></trkpt><trkpt lat="43.00840699798195" lon="2.5033764203187854"><ele>251.00000000000003</ele><time>2026-03-22T14:38:04Z</time></trkpt><trkpt lat="43.0084174971259" lon="2.5032235527649824"><ele>251.00000000000003</ele><time>2026-03-22T14:38:05Z</time></trkpt><trkpt lat="43.00844136903671" lon="2.5030807988149144"><ele>251.0</ele><time>2026-03-22T14:38:06Z</time></trkpt><trkpt lat="43.00848939573257" lon="2.5029648665296405"><ele>251.0</ele><time>2026-03-22T14:38:07Z</time></trkpt><trkpt lat="43.00856075732275" lon="2.5028388589876895"><ele>251.00000000000003</ele><time>2026-03-22T14:38:08Z</time></trkpt><trkpt lat="43.008644247404504" lon="2.5027385395310975"><ele>251.0</ele><time>2026-03-22T14:38:09Z</time></trkpt><trkpt lat="43.00871931579159" lon="2.502665652110562"><ele>251.0</ele><time>2026-03-22T14:38:10Z</time></trkpt><trkpt lat="43.00877195557196" lon="2.502586099329636"><ele>251.0</ele><time>2026-03-22T14:38:11Z</time></trkpt><trkpt lat="43.00880786394519" lon="2.5025069233879123"><ele>251.00000000000003</ele><time>2026-03-22T14:38:12Z</time></trkpt><trkpt lat="43.008809035503624" lon="2.5024186855582955"><ele>251.0</ele><time>2026-03-22T14:38:13Z</time></trkpt><trkpt lat="43.0087862981875" lon="2.502325137817149"><ele>251.0</ele><time>2026-03-22T14:38:14Z</time></trkpt><trkpt lat="43.00876054263914" lon="2.502205222669601"><ele>251.00000000000003</ele><time>2026-03-22T14:38:15Z</time></trkpt><trkpt lat="43.00872904489152" lon="2.5020789964692147"><ele>251.00000000000003</ele><time>2026-03-22T14:38:16Z</time></trkpt><trkpt lat="43.00869747515301" lon="2.501942897576331"><ele>251.0</ele><time>2026-03-22T14:38:17Z</time></trkpt><trkpt lat="43.008678971725786" lon="2.501809524397602"><ele>251.0</ele><time>2026-03-22T14:38:18Z</time></trkpt><trkpt lat="43.008660072153184" lon="2.501682182086809"><ele>251.0</ele><time>2026-03-22T14:38:19Z</time></trkpt><trkpt lat="43.00863091820071" lon="2.5015296951874144"><ele>251.0</ele><time>2026-03-22T14:38:21Z</time></trkpt><trkpt lat="43.008631254911805" lon="2.5014143135830165"><ele>251.0</ele><time>2026-03-22T14:38:23Z</time></trkpt><trkpt lat="43.00879617575174" lon="2.5013134519281497"><ele>251.0</ele><time>2026-03-22T14:38:25Z</time></trkpt><trkpt lat="43.00887539688649" lon="2.5012498467798636"><ele>251.75</ele><time>2026-03-22T14:38:26Z</time></trkpt><trkpt lat="43.00897074752885" lon="2.5011699968793017"><ele>252.5</ele><time>2026-03-22T14:38:27Z</time></trkpt><trkpt lat="43.00907590404498" lon="2.50108679288059"><ele>253.25</ele><time>2026-03-22T14:38:28Z</time></trkpt><trkpt lat="43.00916099666246" lon="2.501011270385157"><ele>254.0</ele><time>2026-03-22T14:38:28.999Z</time></trkpt><trkpt lat="43.00925680543834" lon="2.500912532865759"><ele>254.5</ele><time>2026-03-22T14:38:29.999Z</time></trkpt><trkpt lat="43.009344785403286" lon="2.5007780826654717"><ele>255.0</ele><time>2026-03-22T14:38:30.999Z</time></trkpt><trkpt lat="43.009445366821396" lon="2.5006279396870235"><ele>255.5</ele><time>2026-03-22T14:38:31.999Z</time></trkpt><trkpt lat="43.00953049915941" lon="2.500511067028514"><ele>256.0</ele><time>2026-03-22T14:38:32.999Z</time></trkpt><trkpt lat="43.0096242056114" lon="2.500374886808424"><ele>260.25</ele><time>2026-03-22T14:38:33.999Z</time></trkpt><trkpt lat="43.00971893056947" lon="2.500233703091827"><ele>264.5</ele><time>2026-03-22T14:38:34.999Z</time></trkpt><trkpt lat="43.00979496968441" lon="2.5001104647681838"><ele>268.75</ele><time>2026-03-22T14:38:35.999Z</time></trkpt><trkpt lat="43.00986535294503" lon="2.49996864560684"><ele>273.0</ele><time>2026-03-22T14:38:36.999Z</time></trkpt><trkpt lat="43.00992103402353" lon="2.499798540692458"><ele>272.3333333333333</ele><time>2026-03-22T14:38:37.999Z</time></trkpt><trkpt lat="43.009975193114485" lon="2.4995793293676916"><ele>271.66666666666663</ele><time>2026-03-22T14:38:38.999Z</time></trkpt><trkpt lat="43.01003178912368" lon="2.499388665138218"><ele>271.0</ele><time>2026-03-22T14:38:39.999Z</time></trkpt><trkpt lat="43.010092670782626" lon="2.4992028609923764"><ele>271.0</ele><time>2026-03-22T14:38:40.999Z</time></trkpt><trkpt lat="43.0101525936216" lon="2.4990244212813164"><ele>271.0</ele><time>2026-03-22T14:38:41.999Z</time></trkpt><trkpt lat="43.010226503231905" lon="2.498840653507727"><ele>271.0</ele><time>2026-03-22T14:38:42.999Z</time></trkpt><trkpt lat="43.01028944555879" lon="2.4986632616996842"><ele>271.0</ele><time>2026-03-22T14:38:43.999Z</time></trkpt><trkpt lat="43.01037514524881" lon="2.4984923972981066"><ele>274.66666666666663</ele><time>2026-03-22T14:38:44.999Z</time></trkpt><trkpt lat="43.01047736440689" lon="2.4983077819783515"><ele>278.3333333333333</ele><time>2026-03-22T14:38:45.999Z</time></trkpt><trkpt lat="43.01056635274046" lon="2.498133315147269"><ele>282.0</ele><time>2026-03-22T14:38:46.999Z</time></trkpt><trkpt lat="43.01064758874322" lon="2.497962862033174"><ele>277.5</ele><time>2026-03-22T14:38:47.999Z</time></trkpt><trkpt lat="43.010716639102945" lon="2.4977960264473156"><ele>273.0</ele><time>2026-03-22T14:38:48.999Z</time></trkpt><trkpt lat="43.01078694862348" lon="2.4976281271452527"><ele>268.5</ele><time>2026-03-22T14:38:49.999Z</time></trkpt><trkpt lat="43.010857091656064" lon="2.497460294405121"><ele>264.0</ele><time>2026-03-22T14:38:50.999Z</time></trkpt><trkpt lat="43.01092425033457" lon="2.497265304075753"><ele>268.3333333333333</ele><time>2026-03-22T14:38:51.999Z</time></trkpt><trkpt lat="43.01098885067487" lon="2.4970617589954878"><ele>272.66666666666663</ele><time>2026-03-22T14:38:52.999Z</time></trkpt><trkpt lat="43.01107607555142" lon="2.496853464766141"><ele>277.0</ele><time>2026-03-22T14:38:53.999Z</time></trkpt><trkpt lat="43.01115308199534" lon="2.496666667865478"><ele>277.0</ele><time>2026-03-22T14:38:54.999Z</time></trkpt><trkpt lat="43.01122280387571" lon="2.4964869712523883"><ele>277.0</ele><time>2026-03-22T14:38:55.999Z</time></trkpt><trkpt lat="43.011283003500935" lon="2.4963215791800124"><ele>277.0</ele><time>2026-03-22T14:38:56.999Z</time></trkpt><trkpt lat="43.01133259895798" lon="2.4961655777097453"><ele>277.0</ele><time>2026-03-22T14:38:57.999Z</time></trkpt><trkpt lat="43.01137807739773" lon="2.4959953803385306"><ele>280.0</ele><time>2026-03-22T14:38:58.999Z</time></trkpt><trkpt lat="43.011426703900874" lon="2.4958335660517643"><ele>283.0</ele><time>2026-03-22T14:38:59.999Z</time></trkpt><trkpt lat="43.0114705623171" lon="2.4956713467826503"><ele>286.0</ele><time>2026-03-22T14:39:00.999Z</time></trkpt><trkpt lat="43.01150482955203" lon="2.495523186409512"><ele>289.0</ele><time>2026-03-22T14:39:01.999Z</time></trkpt><trkpt lat="43.011539366825865" lon="2.495380967727458"><ele>290.75</ele><time>2026-03-22T14:39:02.999Z</time></trkpt><trkpt lat="43.011545351163676" lon="2.495213757974219"><ele>292.5</ele><time>2026-03-22T14:39:03.999Z</time></trkpt><trkpt lat="43.011527483722126" lon="2.4950136042824784"><ele>294.25</ele><time>2026-03-22T14:39:04.999Z</time></trkpt><trkpt lat="43.01149694735095" lon="2.4947810484808364"><ele>296.0</ele><time>2026-03-22T14:39:05.999Z</time></trkpt><trkpt lat="43.011455977829826" lon="2.4945165054954708"><ele>295.75</ele><time>2026-03-22T14:39:06.999Z</time></trkpt><trkpt lat="43.01142506257888" lon="2.494298710426924"><ele>295.5</ele><time>2026-03-22T14:39:07.999Z</time></trkpt><trkpt lat="43.011401073081615" lon="2.4941110415439876"><ele>295.25</ele><time>2026-03-22T14:39:08.999Z</time></trkpt><trkpt lat="43.01137290946611" lon="2.493925549704582"><ele>295.0</ele><time>2026-03-22T14:39:09.999Z</time></trkpt><trkpt lat="43.011342911126974" lon="2.493739829294847"><ele>295.0</ele><time>2026-03-22T14:39:10.999Z</time></trkpt><trkpt lat="43.011312782538454" lon="2.493575052694043"><ele>295.0</ele><time>2026-03-22T14:39:12Z</time></trkpt><trkpt lat="43.01128779057667" lon="2.4934287541555022"><ele>295.0</ele><time>2026-03-22T14:39:13Z</time></trkpt><trkpt lat="43.01127289286322" lon="2.4932934671995195"><ele>295.0</ele><time>2026-03-22T14:39:14Z</time></trkpt><trkpt lat="43.011252197779996" lon="2.4931537516905657"><ele>295.0</ele><time>2026-03-22T14:39:15Z</time></trkpt><trkpt lat="43.01123195307707" lon="2.4929890281841756"><ele>295.8</ele><time>2026-03-22T14:39:16Z</time></trkpt><trkpt lat="43.01121536580106" lon="2.4928301508032398"><ele>296.6</ele><time>2026-03-22T14:39:17Z</time></trkpt><trkpt lat="43.0112014536297" lon="2.4926923941199455"><ele>297.4</ele><time>2026-03-22T14:39:18Z</time></trkpt><trkpt lat="43.011214874649305" lon="2.492570584442695"><ele>298.2</ele><time>2026-03-22T14:39:19Z</time></trkpt><trkpt lat="43.0112714356986" lon="2.492446016231991"><ele>299.0</ele><time>2026-03-22T14:39:20Z</time></trkpt><trkpt lat="43.01132423353436" lon="2.492352696367097"><ele>299.0</ele><time>2026-03-22T14:39:21Z</time></trkpt><trkpt lat="43.01140422243657" lon="2.492285665053723"><ele>299.0</ele><time>2026-03-22T14:39:22Z</time></trkpt><trkpt lat="43.01147858162842" lon="2.4922144978661733"><ele>299.0</ele><time>2026-03-22T14:39:23Z</time></trkpt><trkpt lat="43.01150406501194" lon="2.492105158191627"><ele>299.0</ele><time>2026-03-22T14:39:24Z</time></trkpt><trkpt lat="43.01149200887609" lon="2.4919605044092585"><ele>299.0</ele><time>2026-03-22T14:39:25Z</time></trkpt><trkpt lat="43.01143622814581" lon="2.491831954770923"><ele>298.0</ele><time>2026-03-22T14:39:26Z</time></trkpt><trkpt lat="43.01137947770342" lon="2.4917031227609883"><ele>297.0</ele><time>2026-03-22T14:39:27Z</time></trkpt><trkpt lat="43.01133500806879" lon="2.491561996347764"><ele>296.0</ele><time>2026-03-22T14:39:28Z</time></trkpt><trkpt lat="43.01130947292281" lon="2.4914219882637516"><ele>295.0</ele><time>2026-03-22T14:39:29Z</time></trkpt><trkpt lat="43.01130658633707" lon="2.491282466612197"><ele>294.0</ele><time>2026-03-22T14:39:30Z</time></trkpt><trkpt lat="43.01130940903018" lon="2.491140252712887"><ele>293.8</ele><time>2026-03-22T14:39:31Z</time></trkpt><trkpt lat="43.01133670300698" lon="2.491011246685514"><ele>293.59999999999997</ele><time>2026-03-22T14:39:32Z</time></trkpt><trkpt lat="43.011405974194965" lon="2.490866530397067"><ele>293.4</ele><time>2026-03-22T14:39:33Z</time></trkpt><trkpt lat="43.01145277859244" lon="2.4907349685264824"><ele>293.2</ele><time>2026-03-22T14:39:34Z</time></trkpt><trkpt lat="43.01151202591727" lon="2.490599746784914"><ele>293.0</ele><time>2026-03-22T14:39:35Z</time></trkpt><trkpt lat="43.01156784496685" lon="2.490469324780465"><ele>294.5</ele><time>2026-03-22T14:39:36Z</time></trkpt><trkpt lat="43.01161676148317" lon="2.4903250699643946"><ele>296.0</ele><time>2026-03-22T14:39:37Z</time></trkpt><trkpt lat="43.011638170073205" lon="2.4901560612605294"><ele>297.5</ele><time>2026-03-22T14:39:38Z</time></trkpt><trkpt lat="43.01164094889586" lon="2.4899440320593427"><ele>299.0</ele><time>2026-03-22T14:39:39Z</time></trkpt><trkpt lat="43.011617018339436" lon="2.489729388309356"><ele>298.6666666666667</ele><time>2026-03-22T14:39:40Z</time></trkpt><trkpt lat="43.01160395432818" lon="2.489526420730285"><ele>298.3333333333333</ele><time>2026-03-22T14:39:41Z</time></trkpt><trkpt lat="43.01163984615782" lon="2.4893215464316607"><ele>298.0</ele><time>2026-03-22T14:39:42Z</time></trkpt><trkpt lat="43.01170095109319" lon="2.489117970769772"><ele>297.25</ele><time>2026-03-22T14:39:43Z</time></trkpt><trkpt lat="43.01175557443264" lon="2.488946724872445"><ele>296.5</ele><time>2026-03-22T14:39:44Z</time></trkpt><trkpt lat="43.01181682214051" lon="2.488779832610145"><ele>295.75</ele><time>2026-03-22T14:39:45Z</time></trkpt><trkpt lat="43.01184125044779" lon="2.488623081386131"><ele>295.0</ele><time>2026-03-22T14:39:46Z</time></trkpt><trkpt lat="43.011829762578074" lon="2.488454203934453"><ele>295.0</ele><time>2026-03-22T14:39:47Z</time></trkpt><trkpt lat="43.01180904975564" lon="2.488247032090975"><ele>295.0</ele><time>2026-03-22T14:39:48Z</time></trkpt><trkpt lat="43.01176078344324" lon="2.4880443014794675"><ele>295.0</ele><time>2026-03-22T14:39:49Z</time></trkpt><trkpt lat="43.01174055341008" lon="2.4878366218800028"><ele>295.25</ele><time>2026-03-22T14:39:50Z</time></trkpt><trkpt lat="43.011721847445784" lon="2.4876393370647847"><ele>295.5</ele><time>2026-03-22T14:39:51Z</time></trkpt><trkpt lat="43.011712497456465" lon="2.4874547648493626"><ele>295.75</ele><time>2026-03-22T14:39:52Z</time></trkpt><trkpt lat="43.0117133667988" lon="2.4872811787430122"><ele>296.0</ele><time>2026-03-22T14:39:53Z</time></trkpt><trkpt lat="43.0117083488433" lon="2.487095655767549"><ele>296.5</ele><time>2026-03-22T14:39:54Z</time></trkpt><trkpt lat="43.01169675988396" lon="2.4869075082625782"><ele>297.0</ele><time>2026-03-22T14:39:55Z</time></trkpt><trkpt lat="43.01168464971569" lon="2.4867283986970294"><ele>297.5</ele><time>2026-03-22T14:39:56Z</time></trkpt><trkpt lat="43.01161975374654" lon="2.4865408524977086"><ele>298.0</ele><time>2026-03-22T14:39:57Z</time></trkpt><trkpt lat="43.01152868516543" lon="2.4863534743631828"><ele>298.5</ele><time>2026-03-22T14:39:58Z</time></trkpt><trkpt lat="43.01147210528441" lon="2.4861553147759934"><ele>299.0</ele><time>2026-03-22T14:39:59Z</time></trkpt><trkpt lat="43.01140248327735" lon="2.4860459676657145"><ele>299.5</ele><time>2026-03-22T14:40:00Z</time></trkpt><trkpt lat="43.01137418261497" lon="2.4859193886569377"><ele>300.0</ele><time>2026-03-22T14:40:01Z</time></trkpt><trkpt lat="43.011368740696355" lon="2.485757656116831"><ele>300.0</ele><time>2026-03-22T14:40:02Z</time></trkpt><trkpt lat="43.011383269277" lon="2.485585351341972"><ele>300.0</ele><time>2026-03-22T14:40:03Z</time></trkpt><trkpt lat="43.01141689358355" lon="2.4854026345268534"><ele>300.0</ele><time>2026-03-22T14:40:04Z</time></trkpt><trkpt lat="43.0114091003911" lon="2.4852158138433142"><ele>300.0</ele><time>2026-03-22T14:40:05Z</time></trkpt><trkpt lat="43.011365277043346" lon="2.4850257341754944"><ele>300.25</ele><time>2026-03-22T14:40:06Z</time></trkpt><trkpt lat="43.01133029719712" lon="2.484855597340942"><ele>300.5</ele><time>2026-03-22T14:40:07Z</time></trkpt><trkpt lat="43.01132378922062" lon="2.484687714243864"><ele>300.75</ele><time>2026-03-22T14:40:08Z</time></trkpt><trkpt lat="43.01135123116456" lon="2.4844975312716033"><ele>301.0</ele><time>2026-03-22T14:40:09Z</time></trkpt><trkpt lat="43.011408435766384" lon="2.4842952641177973"><ele>302.0</ele><time>2026-03-22T14:40:10Z</time></trkpt><trkpt lat="43.01146819017123" lon="2.4840858057708797"><ele>303.0</ele><time>2026-03-22T14:40:11Z</time></trkpt><trkpt lat="43.01151927270155" lon="2.483869733425224"><ele>304.0</ele><time>2026-03-22T14:40:12Z</time></trkpt><trkpt lat="43.01156702963835" lon="2.483672783685889"><ele>305.0</ele><time>2026-03-22T14:40:13Z</time></trkpt><trkpt lat="43.01162384413995" lon="2.4835032489301425"><ele>306.0</ele><time>2026-03-22T14:40:14Z</time></trkpt><trkpt lat="43.01166808917309" lon="2.48333316867527"><ele>307.0</ele><time>2026-03-22T14:40:15Z</time></trkpt><trkpt lat="43.0117062603916" lon="2.483157567208058"><ele>308.0</ele><time>2026-03-22T14:40:16Z</time></trkpt><trkpt lat="43.01175659200246" lon="2.4829752442666075"><ele>310.75</ele><time>2026-03-22T14:40:17Z</time></trkpt><trkpt lat="43.011800446320265" lon="2.482814676454447"><ele>313.5</ele><time>2026-03-22T14:40:18Z</time></trkpt><trkpt lat="43.01184114803472" lon="2.4826539443380358"><ele>316.25</ele><time>2026-03-22T14:40:19Z</time></trkpt><trkpt lat="43.01188472263268" lon="2.4824843973046957"><ele>319.0</ele><time>2026-03-22T14:40:20Z</time></trkpt><trkpt lat="43.011935032053096" lon="2.482342022270379"><ele>319.0</ele><time>2026-03-22T14:40:21Z</time></trkpt><trkpt lat="43.01198311994355" lon="2.4822138951472805"><ele>319.0</ele><time>2026-03-22T14:40:22Z</time></trkpt><trkpt lat="43.01203259206611" lon="2.4821062334377326"><ele>319.0</ele><time>2026-03-22T14:40:23Z</time></trkpt><trkpt lat="43.01207358041665" lon="2.4820152677255107"><ele>319.0</ele><time>2026-03-22T14:40:24Z</time></trkpt><trkpt lat="43.012127591918684" lon="2.481911450540753"><ele>319.0</ele><time>2026-03-22T14:40:25Z</time></trkpt><trkpt lat="43.01218068849362" lon="2.4817678219675265"><ele>320.75</ele><time>2026-03-22T14:40:26Z</time></trkpt><trkpt lat="43.01224359004701" lon="2.4816270416026485"><ele>322.5</ele><time>2026-03-22T14:40:27Z</time></trkpt><trkpt lat="43.01231024095343" lon="2.4814935182198705"><ele>324.25</ele><time>2026-03-22T14:40:28Z</time></trkpt><trkpt lat="43.0123783294132" lon="2.4813586868136546"><ele>326.0</ele><time>2026-03-22T14:40:29Z</time></trkpt><trkpt lat="43.0124762291424" lon="2.481177465284961"><ele>328.5</ele><time>2026-03-22T14:40:29.999Z</time></trkpt><trkpt lat="43.012582309841214" lon="2.48101905976844"><ele>331.0</ele><time>2026-03-22T14:40:30.999Z</time></trkpt><trkpt lat="43.01266721996039" lon="2.4808794839366386"><ele>333.5</ele><time>2026-03-22T14:40:31.999Z</time></trkpt><trkpt lat="43.012744224365825" lon="2.4807466053728837"><ele>336.0</ele><time>2026-03-22T14:40:32.999Z</time></trkpt><trkpt lat="43.01282614898655" lon="2.4806155965242427"><ele>336.0</ele><time>2026-03-22T14:40:33.999Z</time></trkpt><trkpt lat="43.01288462655271" lon="2.480517195594755"><ele>336.0</ele><time>2026-03-22T14:40:34.999Z</time></trkpt><trkpt lat="43.01296631948518" lon="2.480411088878603"><ele>336.0</ele><time>2026-03-22T14:40:36.999Z</time></trkpt><trkpt lat="43.01307530546131" lon="2.4803660359821573"><ele>336.0</ele><time>2026-03-22T14:40:38.999Z</time></trkpt><trkpt lat="43.013180832588745" lon="2.480475302727684"><ele>336.0</ele><time>2026-03-22T14:40:40.999Z</time></trkpt><trkpt lat="43.01319743095694" lon="2.480569578857717"><ele>336.0</ele><time>2026-03-22T14:40:41.999Z</time></trkpt><trkpt lat="43.01316179693909" lon="2.480664946128836"><ele>336.0</ele><time>2026-03-22T14:40:42.999Z</time></trkpt><trkpt lat="43.013094473778025" lon="2.480738501172825"><ele>336.0</ele><time>2026-03-22T14:40:43.999Z</time></trkpt><trkpt lat="43.013026681129716" lon="2.4808165631456007"><ele>336.0</ele><time>2026-03-22T14:40:44.999Z</time></trkpt><trkpt lat="43.012930477072" lon="2.480979784376821"><ele>336.0</ele><time>2026-03-22T14:40:45.999Z</time></trkpt><trkpt lat="43.01287218078865" lon="2.4811861792474974"><ele>336.0</ele><time>2026-03-22T14:40:46.999Z</time></trkpt><trkpt lat="43.012811299123406" lon="2.481397850225404"><ele>336.0</ele><time>2026-03-22T14:40:47.999Z</time></trkpt><trkpt lat="43.01274288544474" lon="2.4815775266987874"><ele>334.6666666666667</ele><time>2026-03-22T14:40:48.999Z</time></trkpt><trkpt lat="43.0127099795108" lon="2.481724523016565"><ele>333.3333333333333</ele><time>2026-03-22T14:40:49.999Z</time></trkpt><trkpt lat="43.01266941808557" lon="2.481849950432685"><ele>332.0</ele><time>2026-03-22T14:40:50.999Z</time></trkpt><trkpt lat="43.01265629720313" lon="2.481950319382685"><ele>330.66666666666663</ele><time>2026-03-22T14:40:51.999Z</time></trkpt><trkpt lat="43.01264942481013" lon="2.4820391090105973"><ele>329.3333333333333</ele><time>2026-03-22T14:40:52.999Z</time></trkpt><trkpt lat="43.01264110742463" lon="2.4821559930007595"><ele>328.0</ele><time>2026-03-22T14:40:53.999Z</time></trkpt><trkpt lat="43.01265497374952" lon="2.482246840620382"><ele>327.0</ele><time>2026-03-22T14:40:54.999Z</time></trkpt><trkpt lat="43.01269179746714" lon="2.482348750208769"><ele>326.0</ele><time>2026-03-22T14:40:55.999Z</time></trkpt><trkpt lat="43.012760867804204" lon="2.482437236892703"><ele>325.0</ele><time>2026-03-22T14:40:56.999Z</time></trkpt><trkpt lat="43.0128630827568" lon="2.482491408971855"><ele>324.0</ele><time>2026-03-22T14:40:57.999Z</time></trkpt><trkpt lat="43.012970986450014" lon="2.48256048967506"><ele>323.0</ele><time>2026-03-22T14:40:58.999Z</time></trkpt><trkpt lat="43.013083741263785" lon="2.4826368054799324"><ele>323.0</ele><time>2026-03-22T14:40:59.999Z</time></trkpt><trkpt lat="43.01318659549214" lon="2.4827108679656686"><ele>323.0</ele><time>2026-03-22T14:41:00.999Z</time></trkpt><trkpt lat="43.01333149429778" lon="2.4827927812398207"><ele>323.0</ele><time>2026-03-22T14:41:01.999Z</time></trkpt><trkpt lat="43.01341669198113" lon="2.482931404745099"><ele>323.0</ele><time>2026-03-22T14:41:02.999Z</time></trkpt><trkpt lat="43.013506033235046" lon="2.4830103443224187"><ele>326.1666666666667</ele><time>2026-03-22T14:41:03.999Z</time></trkpt><trkpt lat="43.01357901216912" lon="2.483081157364601"><ele>329.33333333333337</ele><time>2026-03-22T14:41:04.999Z</time></trkpt><trkpt lat="43.01363809608891" lon="2.4831491902683838"><ele>332.5</ele><time>2026-03-22T14:41:05.999Z</time></trkpt><trkpt lat="43.013681883394334" lon="2.483217961879134"><ele>335.6666666666667</ele><time>2026-03-22T14:41:06.999Z</time></trkpt><trkpt lat="43.01371590461443" lon="2.4832964498698806"><ele>338.8333333333333</ele><time>2026-03-22T14:41:07.999Z</time></trkpt><trkpt lat="43.0136501379446" lon="2.4833789508048563"><ele>342.0</ele><time>2026-03-22T14:41:09.999Z</time></trkpt><trkpt lat="43.01357041812169" lon="2.483417577387136"><ele>342.0</ele><time>2026-03-22T14:41:11.999Z</time></trkpt><trkpt lat="43.01350758410541" lon="2.4834016724410684"><ele>342.0</ele><time>2026-03-22T14:41:12.999Z</time></trkpt><trkpt lat="43.013393203022844" lon="2.4833878541485186"><ele>342.0</ele><time>2026-03-22T14:41:13.999Z</time></trkpt><trkpt lat="43.013260805395255" lon="2.4833893284620716"><ele>342.0</ele><time>2026-03-22T14:41:14.999Z</time></trkpt><trkpt lat="43.013125652755534" lon="2.4834143742382473"><ele>342.0</ele><time>2026-03-22T14:41:15.999Z</time></trkpt><trkpt lat="43.01300762608441" lon="2.4834560621612067"><ele>341.20000000000005</ele><time>2026-03-22T14:41:16.999Z</time></trkpt><trkpt lat="43.01288463733845" lon="2.4835045636994786"><ele>340.4</ele><time>2026-03-22T14:41:17.999Z</time></trkpt><trkpt lat="43.012815506637715" lon="2.4835429454109157"><ele>339.6</ele><time>2026-03-22T14:41:18.999Z</time></trkpt><trkpt lat="43.012744334952856" lon="2.4835943104727916"><ele>338.79999999999995</ele><time>2026-03-22T14:41:19.999Z</time></trkpt><trkpt lat="43.01264048523454" lon="2.4837671254943663"><ele>338.0</ele><time>2026-03-22T14:41:20.999Z</time></trkpt><trkpt lat="43.01260507777802" lon="2.4839353573964504"><ele>338.0</ele><time>2026-03-22T14:41:21.999Z</time></trkpt><trkpt lat="43.01257524619983" lon="2.4841040920111577"><ele>338.0</ele><time>2026-03-22T14:41:22.999Z</time></trkpt><trkpt lat="43.01255232902672" lon="2.484303232027437"><ele>338.0</ele><time>2026-03-22T14:41:23.999Z</time></trkpt><trkpt lat="43.01252808841589" lon="2.484555051375998"><ele>340.0</ele><time>2026-03-22T14:41:24.999Z</time></trkpt><trkpt lat="43.01251130926958" lon="2.4847795832097654"><ele>342.0</ele><time>2026-03-22T14:41:25.999Z</time></trkpt><trkpt lat="43.01249956916897" lon="2.484956010816793"><ele>344.0</ele><time>2026-03-22T14:41:26.999Z</time></trkpt><trkpt lat="43.01248878095596" lon="2.485108259040477"><ele>346.0</ele><time>2026-03-22T14:41:27.999Z</time></trkpt><trkpt lat="43.01247478008529" lon="2.4852419793879523"><ele>345.5</ele><time>2026-03-22T14:41:28.999Z</time></trkpt><trkpt lat="43.01246355390909" lon="2.4853821152633095"><ele>345.0</ele><time>2026-03-22T14:41:29.999Z</time></trkpt><trkpt lat="43.01246895446238" lon="2.485506820757757"><ele>344.5</ele><time>2026-03-22T14:41:31Z</time></trkpt><trkpt lat="43.01248333265299" lon="2.4856222687875538"><ele>344.0</ele><time>2026-03-22T14:41:32Z</time></trkpt><trkpt lat="43.01250406295506" lon="2.4857316123482134"><ele>343.5</ele><time>2026-03-22T14:41:33Z</time></trkpt><trkpt lat="43.01253809949969" lon="2.4858363768216076"><ele>343.0</ele><time>2026-03-22T14:41:34Z</time></trkpt><trkpt lat="43.0126161709514" lon="2.4859398080625534"><ele>343.0</ele><time>2026-03-22T14:41:35Z</time></trkpt><trkpt lat="43.012776060611735" lon="2.4859526238664924"><ele>343.0</ele><time>2026-03-22T14:41:36Z</time></trkpt><trkpt lat="43.01287814656646" lon="2.486023593446657"><ele>343.0</ele><time>2026-03-22T14:41:37Z</time></trkpt><trkpt lat="43.012958757178495" lon="2.486137414664714"><ele>343.0</ele><time>2026-03-22T14:41:38Z</time></trkpt><trkpt lat="43.013043683110936" lon="2.4863000039169307"><ele>339.25</ele><time>2026-03-22T14:41:39Z</time></trkpt><trkpt lat="43.01311470114106" lon="2.4864426470127188"><ele>335.5</ele><time>2026-03-22T14:41:40Z</time></trkpt><trkpt lat="43.01316443119703" lon="2.486571604501489"><ele>331.75</ele><time>2026-03-22T14:41:41Z</time></trkpt><trkpt lat="43.01321528197316" lon="2.4867157673424227"><ele>328.0</ele><time>2026-03-22T14:41:42Z</time></trkpt><trkpt lat="43.013260965978944" lon="2.486865196755132"><ele>328.0</ele><time>2026-03-22T14:41:43Z</time></trkpt><trkpt lat="43.01329242751065" lon="2.4870034002716594"><ele>328.0</ele><time>2026-03-22T14:41:44Z</time></trkpt><trkpt lat="43.0132997921753" lon="2.487145632337065"><ele>328.0</ele><time>2026-03-22T14:41:45Z</time></trkpt><trkpt lat="43.01330275052116" lon="2.487322649936564"><ele>328.0</ele><time>2026-03-22T14:41:46Z</time></trkpt><trkpt lat="43.01331237475939" lon="2.487478153361521"><ele>333.4</ele><time>2026-03-22T14:41:47Z</time></trkpt><trkpt lat="43.013325220990424" lon="2.4876237325257935"><ele>338.79999999999995</ele><time>2026-03-22T14:41:48Z</time></trkpt><trkpt lat="43.01336024829172" lon="2.487763278957479"><ele>344.2</ele><time>2026-03-22T14:41:49Z</time></trkpt><trkpt lat="43.01341320771867" lon="2.4878882077685693"><ele>349.6</ele><time>2026-03-22T14:41:50Z</time></trkpt><trkpt lat="43.01348454242119" lon="2.4879740532051464"><ele>355.0</ele><time>2026-03-22T14:41:51Z</time></trkpt><trkpt lat="43.01356518819409" lon="2.4880340140362542"><ele>355.0</ele><time>2026-03-22T14:41:52Z</time></trkpt><trkpt lat="43.01368172621327" lon="2.487991262476235"><ele>355.0</ele><time>2026-03-22T14:41:53Z</time></trkpt><trkpt lat="43.013766869318964" lon="2.487951897067248"><ele>355.0</ele><time>2026-03-22T14:41:54Z</time></trkpt><trkpt lat="43.01384682247725" lon="2.487870048632363"><ele>355.0</ele><time>2026-03-22T14:41:55Z</time></trkpt><trkpt lat="43.01386624855785" lon="2.4877529438955714"><ele>355.0</ele><time>2026-03-22T14:41:56Z</time></trkpt><trkpt lat="43.01388706348762" lon="2.487621089426929"><ele>355.8</ele><time>2026-03-22T14:41:57Z</time></trkpt><trkpt lat="43.01391020040693" lon="2.4874963439727686"><ele>356.6</ele><time>2026-03-22T14:41:58Z</time></trkpt><trkpt lat="43.01393900666855" lon="2.4873799045324976"><ele>357.4</ele><time>2026-03-22T14:41:59Z</time></trkpt><trkpt lat="43.01395452789929" lon="2.487269938972057"><ele>358.2</ele><time>2026-03-22T14:42:00Z</time></trkpt><trkpt lat="43.01399278724642" lon="2.487148617167644"><ele>359.0</ele><time>2026-03-22T14:42:01Z</time></trkpt><trkpt lat="43.0140286137576" lon="2.4870255515972572"><ele>359.5</ele><time>2026-03-22T14:42:02Z</time></trkpt><trkpt lat="43.01407512271914" lon="2.4868831004830314"><ele>360.0</ele><time>2026-03-22T14:42:03Z</time></trkpt><trkpt lat="43.01415883615093" lon="2.4867287145729082"><ele>360.5</ele><time>2026-03-22T14:42:04Z</time></trkpt><trkpt lat="43.014256200471976" lon="2.4865801191296915"><ele>361.0</ele><time>2026-03-22T14:42:05Z</time></trkpt><trkpt lat="43.01436759233892" lon="2.4864191004261933"><ele>362.75</ele><time>2026-03-22T14:42:06Z</time></trkpt><trkpt lat="43.014478210129525" lon="2.4862644860560534"><ele>364.5</ele><time>2026-03-22T14:42:07Z</time></trkpt><trkpt lat="43.01457039895692" lon="2.486157861696042"><ele>366.25</ele><time>2026-03-22T14:42:08Z</time></trkpt><trkpt lat="43.014657864107186" lon="2.4860651769138267"><ele>368.0</ele><time>2026-03-22T14:42:09Z</time></trkpt><trkpt lat="43.01475184148042" lon="2.485965061244837"><ele>368.75</ele><time>2026-03-22T14:42:10Z</time></trkpt><trkpt lat="43.01484836761059" lon="2.485851642008119"><ele>369.5</ele><time>2026-03-22T14:42:11Z</time></trkpt><trkpt lat="43.01494542480363" lon="2.4857311957003465"><ele>370.25</ele><time>2026-03-22T14:42:12Z</time></trkpt><trkpt lat="43.01504846294844" lon="2.4856121352518326"><ele>371.0</ele><time>2026-03-22T14:42:13Z</time></trkpt><trkpt lat="43.01512798252096" lon="2.4855078554982026"><ele>371.4</ele><time>2026-03-22T14:42:14Z</time></trkpt><trkpt lat="43.01519300448836" lon="2.4854132926505783"><ele>371.8</ele><time>2026-03-22T14:42:14.999Z</time></trkpt><trkpt lat="43.01525676827684" lon="2.485308254548976"><ele>372.2</ele><time>2026-03-22T14:42:15.999Z</time></trkpt><trkpt lat="43.01530588443603" lon="2.4851848310413778"><ele>372.59999999999997</ele><time>2026-03-22T14:42:16.999Z</time></trkpt><trkpt lat="43.015355986412494" lon="2.4850727516444326"><ele>373.0</ele><time>2026-03-22T14:42:17.999Z</time></trkpt><trkpt lat="43.015414125396426" lon="2.4849702795265047"><ele>373.0</ele><time>2026-03-22T14:42:18.999Z</time></trkpt><trkpt lat="43.01545520793132" lon="2.4848325055672484"><ele>373.0</ele><time>2026-03-22T14:42:19.999Z</time></trkpt><trkpt lat="43.01548193350325" lon="2.484715342398789"><ele>373.0</ele><time>2026-03-22T14:42:20.999Z</time></trkpt><trkpt lat="43.015513135172796" lon="2.484616319977835"><ele>373.0</ele><time>2026-03-22T14:42:21.999Z</time></trkpt><trkpt lat="43.01554032607379" lon="2.484514964665085"><ele>373.0</ele><time>2026-03-22T14:42:22.999Z</time></trkpt><trkpt lat="43.01559542294234" lon="2.48443802791175"><ele>373.0</ele><time>2026-03-22T14:42:23.999Z</time></trkpt><trkpt lat="43.015651036155546" lon="2.4843652259783453"><ele>372.57142857142856</ele><time>2026-03-22T14:42:24.999Z</time></trkpt><trkpt lat="43.0157088196536" lon="2.484291829518302"><ele>372.14285714285717</ele><time>2026-03-22T14:42:25.999Z</time></trkpt><trkpt lat="43.01574981662455" lon="2.484210182715484"><ele>371.71428571428567</ele><time>2026-03-22T14:42:26.999Z</time></trkpt><trkpt lat="43.01578298025619" lon="2.4841341649380255"><ele>371.2857142857143</ele><time>2026-03-22T14:42:27.999Z</time></trkpt><trkpt lat="43.01581708957491" lon="2.484045357536898"><ele>370.85714285714283</ele><time>2026-03-22T14:42:28.999Z</time></trkpt><trkpt lat="43.015855258165104" lon="2.483951167887403"><ele>370.4285714285714</ele><time>2026-03-22T14:42:29.999Z</time></trkpt><trkpt lat="43.015890464396826" lon="2.483852345986999"><ele>370.0</ele><time>2026-03-22T14:42:30.999Z</time></trkpt><trkpt lat="43.01592725296103" lon="2.483750157831931"><ele>374.6</ele><time>2026-03-22T14:42:31.999Z</time></trkpt><trkpt lat="43.015958872493194" lon="2.4836587525294385"><ele>379.2</ele><time>2026-03-22T14:42:32.999Z</time></trkpt><trkpt lat="43.01598468123175" lon="2.4835584270672757"><ele>383.79999999999995</ele><time>2026-03-22T14:42:33.999Z</time></trkpt><trkpt lat="43.01601995966433" lon="2.483447161447436"><ele>388.4</ele><time>2026-03-22T14:42:34.999Z</time></trkpt><trkpt lat="43.01606616076625" lon="2.4833293703353565"><ele>393.0</ele><time>2026-03-22T14:42:35.999Z</time></trkpt><trkpt lat="43.01613986384878" lon="2.4832072617418874"><ele>393.0</ele><time>2026-03-22T14:42:36.999Z</time></trkpt><trkpt lat="43.016244078768715" lon="2.4830610714584913"><ele>393.0</ele><time>2026-03-22T14:42:37.999Z</time></trkpt><trkpt lat="43.016312428861085" lon="2.482880887566119"><ele>393.0</ele><time>2026-03-22T14:42:38.999Z</time></trkpt><trkpt lat="43.0163605886545" lon="2.482657032616894"><ele>397.0</ele><time>2026-03-22T14:42:39.999Z</time></trkpt><trkpt lat="43.01640550544711" lon="2.4824772454321873"><ele>401.0</ele><time>2026-03-22T14:42:40.999Z</time></trkpt><trkpt lat="43.01645543726087" lon="2.482321536597394"><ele>405.0</ele><time>2026-03-22T14:42:41.999Z</time></trkpt><trkpt lat="43.01648245651073" lon="2.4821696578650188"><ele>409.0</ele><time>2026-03-22T14:42:42.999Z</time></trkpt><trkpt lat="43.01652988881349" lon="2.482020429592828"><ele>406.25</ele><time>2026-03-22T14:42:43.999Z</time></trkpt><trkpt lat="43.016575369505844" lon="2.481873565884829"><ele>403.5</ele><time>2026-03-22T14:42:44.999Z</time></trkpt><trkpt lat="43.01662866130755" lon="2.4817125410856167"><ele>400.75</ele><time>2026-03-22T14:42:45.999Z</time></trkpt><trkpt lat="43.01666975368055" lon="2.4815627161778635"><ele>398.0</ele><time>2026-03-22T14:42:46.999Z</time></trkpt><trkpt lat="43.01670637137324" lon="2.4814159076640343"><ele>398.0</ele><time>2026-03-22T14:42:47.999Z</time></trkpt><trkpt lat="43.01673974540203" lon="2.4812958143862724"><ele>398.0</ele><time>2026-03-22T14:42:48.999Z</time></trkpt><trkpt lat="43.01677779096751" lon="2.48117082991545"><ele>398.0</ele><time>2026-03-22T14:42:49.999Z</time></trkpt><trkpt lat="43.016818992484076" lon="2.4810360683056727"><ele>398.0</ele><time>2026-03-22T14:42:50.999Z</time></trkpt><trkpt lat="43.01686956397293" lon="2.4809271744883756"><ele>398.0</ele><time>2026-03-22T14:42:51.999Z</time></trkpt><trkpt lat="43.01694118337688" lon="2.4808265963956666"><ele>399.79999999999995</ele><time>2026-03-22T14:42:52.999Z</time></trkpt><trkpt lat="43.01701868712423" lon="2.480755245387553"><ele>401.6</ele><time>2026-03-22T14:42:53.999Z</time></trkpt><trkpt lat="43.01711978271644" lon="2.480715348094011"><ele>403.4</ele><time>2026-03-22T14:42:54.999Z</time></trkpt><trkpt lat="43.01723505624258" lon="2.480682598539682"><ele>405.20000000000005</ele><time>2026-03-22T14:42:55.999Z</time></trkpt><trkpt lat="43.01734449492852" lon="2.480664481188086"><ele>407.0</ele><time>2026-03-22T14:42:56.999Z</time></trkpt><trkpt lat="43.01744038975316" lon="2.4806240717921204"><ele>407.6</ele><time>2026-03-22T14:42:57.999Z</time></trkpt><trkpt lat="43.017529239542235" lon="2.4805876538533296"><ele>408.20000000000005</ele><time>2026-03-22T14:42:58.999Z</time></trkpt><trkpt lat="43.017619403809064" lon="2.4805466182018967"><ele>408.8</ele><time>2026-03-22T14:42:59.999Z</time></trkpt><trkpt lat="43.01770891017302" lon="2.480492666151188"><ele>409.4</ele><time>2026-03-22T14:43:00.999Z</time></trkpt><trkpt lat="43.01778673400645" lon="2.4804134339617945"><ele>410.0</ele><time>2026-03-22T14:43:01.999Z</time></trkpt><trkpt lat="43.01785031647019" lon="2.480290305889719"><ele>410.0</ele><time>2026-03-22T14:43:02.999Z</time></trkpt><trkpt lat="43.01791314309525" lon="2.4801295473406877"><ele>410.0</ele><time>2026-03-22T14:43:03.999Z</time></trkpt><trkpt lat="43.01801121747461" lon="2.4799474549330562"><ele>410.0</ele><time>2026-03-22T14:43:04.999Z</time></trkpt><trkpt lat="43.0181065375444" lon="2.4797377697308973"><ele>411.66666666666663</ele><time>2026-03-22T14:43:05.999Z</time></trkpt><trkpt lat="43.01819093996088" lon="2.479548515101399"><ele>413.33333333333337</ele><time>2026-03-22T14:43:06.999Z</time></trkpt><trkpt lat="43.018292725646404" lon="2.479336146476328"><ele>415.0</ele><time>2026-03-22T14:43:07.999Z</time></trkpt><trkpt lat="43.01837507215515" lon="2.479121433480226"><ele>415.0</ele><time>2026-03-22T14:43:08.999Z</time></trkpt><trkpt lat="43.01844950771507" lon="2.478959164557623"><ele>415.0</ele><time>2026-03-22T14:43:09.999Z</time></trkpt><trkpt lat="43.018521060714285" lon="2.4788052286867504"><ele>415.0</ele><time>2026-03-22T14:43:10.999Z</time></trkpt><trkpt lat="43.01859413861334" lon="2.47864801221235"><ele>415.0</ele><time>2026-03-22T14:43:11.999Z</time></trkpt><trkpt lat="43.018668387326855" lon="2.4784892133092415"><ele>420.0</ele><time>2026-03-22T14:43:12.999Z</time></trkpt><trkpt lat="43.018744037641284" lon="2.47832840140153"><ele>425.0</ele><time>2026-03-22T14:43:13.999Z</time></trkpt><trkpt lat="43.01882133691591" lon="2.4781640843030748"><ele>430.0</ele><time>2026-03-22T14:43:14.999Z</time></trkpt><trkpt lat="43.01889472632042" lon="2.477989668418647"><ele>435.0</ele><time>2026-03-22T14:43:15.999Z</time></trkpt><trkpt lat="43.01895293631404" lon="2.4777840123318793"><ele>438.0</ele><time>2026-03-22T14:43:16.999Z</time></trkpt><trkpt lat="43.01900263086877" lon="2.477531643765341"><ele>441.0</ele><time>2026-03-22T14:43:17.999Z</time></trkpt><trkpt lat="43.019081898856435" lon="2.4772935133332217"><ele>444.0</ele><time>2026-03-22T14:43:18.999Z</time></trkpt><trkpt lat="43.01918481884155" lon="2.4770861813551925"><ele>444.0</ele><time>2026-03-22T14:43:19.999Z</time></trkpt><trkpt lat="43.0192571814777" lon="2.4768997473676686"><ele>444.0</ele><time>2026-03-22T14:43:20.999Z</time></trkpt><trkpt lat="43.019346956299486" lon="2.476745055348849"><ele>444.0</ele><time>2026-03-22T14:43:21.999Z</time></trkpt><trkpt lat="43.01942528415195" lon="2.476607182437925"><ele>444.0</ele><time>2026-03-22T14:43:22.999Z</time></trkpt><trkpt lat="43.0194917048339" lon="2.4764929405120375"><ele>444.0</ele><time>2026-03-22T14:43:24Z</time></trkpt><trkpt lat="43.019531449904946" lon="2.476384677490242"><ele>444.0</ele><time>2026-03-22T14:43:25Z</time></trkpt><trkpt lat="43.01957462027624" lon="2.476304572560842"><ele>444.0</ele><time>2026-03-22T14:43:26Z</time></trkpt><trkpt lat="43.01962285075189" lon="2.476210158733255"><ele>444.0</ele><time>2026-03-22T14:43:27Z</time></trkpt><trkpt lat="43.01967291214614" lon="2.476097491927043"><ele>444.0</ele><time>2026-03-22T14:43:29Z</time></trkpt><trkpt lat="43.019690280528714" lon="2.4760043004328165"><ele>444.0</ele><time>2026-03-22T14:43:31Z</time></trkpt><trkpt lat="43.019628417495056" lon="2.475928576804864"><ele>444.0</ele><time>2026-03-22T14:43:33Z</time></trkpt><trkpt lat="43.019566548172925" lon="2.4758753078285296"><ele>444.0</ele><time>2026-03-22T14:43:34Z</time></trkpt><trkpt lat="43.019440997368086" lon="2.4760089647988623"><ele>444.0</ele><time>2026-03-22T14:43:35Z</time></trkpt><trkpt lat="43.0193881713245" lon="2.476129185503525"><ele>444.0</ele><time>2026-03-22T14:43:36Z</time></trkpt><trkpt lat="43.019328522477586" lon="2.4762590944567178"><ele>444.0</ele><time>2026-03-22T14:43:37Z</time></trkpt><trkpt lat="43.01924437339088" lon="2.4763854828905405"><ele>449.5</ele><time>2026-03-22T14:43:38Z</time></trkpt><trkpt lat="43.01915026467487" lon="2.476512481122739"><ele>455.0</ele><time>2026-03-22T14:43:39Z</time></trkpt><trkpt lat="43.01904141018026" lon="2.476655588561888"><ele>460.5</ele><time>2026-03-22T14:43:40Z</time></trkpt><trkpt lat="43.01893313976987" lon="2.4768046245307964"><ele>466.0</ele><time>2026-03-22T14:43:41Z</time></trkpt><trkpt lat="43.01880687975067" lon="2.4769545567342934"><ele>466.0</ele><time>2026-03-22T14:43:42Z</time></trkpt><trkpt lat="43.018683045444085" lon="2.4770891281905776"><ele>466.0</ele><time>2026-03-22T14:43:43Z</time></trkpt><trkpt lat="43.01855594347296" lon="2.477227037172288"><ele>466.0</ele><time>2026-03-22T14:43:44Z</time></trkpt><trkpt lat="43.01842980024213" lon="2.477364194867374"><ele>459.0</ele><time>2026-03-22T14:43:45Z</time></trkpt><trkpt lat="43.01831784526218" lon="2.4774859914570446"><ele>452.0</ele><time>2026-03-22T14:43:46Z</time></trkpt><trkpt lat="43.01822431963334" lon="2.4775877386173613"><ele>445.0</ele><time>2026-03-22T14:43:47Z</time></trkpt><trkpt lat="43.0181401341484" lon="2.477679324577487"><ele>438.0</ele><time>2026-03-22T14:43:48Z</time></trkpt><trkpt lat="43.01805995140841" lon="2.4777692786419467"><ele>438.0</ele><time>2026-03-22T14:43:49Z</time></trkpt><trkpt lat="43.01798324527364" lon="2.4778556057633985"><ele>437.99999999999994</ele><time>2026-03-22T14:43:50Z</time></trkpt><trkpt lat="43.017919038490874" lon="2.4779182268469757"><ele>437.99999999999994</ele><time>2026-03-22T14:43:51Z</time></trkpt><trkpt lat="43.017812550716684" lon="2.477971244121577"><ele>438.0</ele><time>2026-03-22T14:43:53Z</time></trkpt><trkpt lat="43.017768126734516" lon="2.4777975169938182"><ele>438.0</ele><time>2026-03-22T14:43:55Z</time></trkpt><trkpt lat="43.01777195541683" lon="2.4776993478416736"><ele>438.0</ele><time>2026-03-22T14:43:56Z</time></trkpt><trkpt lat="43.01781203706888" lon="2.477619971349713"><ele>437.99999999999994</ele><time>2026-03-22T14:43:57Z</time></trkpt><trkpt lat="43.01788875544729" lon="2.4775233162885715"><ele>437.99999999999994</ele><time>2026-03-22T14:43:58Z</time></trkpt><trkpt lat="43.01798897363869" lon="2.4774297663304705"><ele>438.0</ele><time>2026-03-22T14:43:59Z</time></trkpt><trkpt lat="43.018094052428744" lon="2.477305021984247"><ele>438.0</ele><time>2026-03-22T14:44:00Z</time></trkpt><trkpt lat="43.01819918525408" lon="2.4771743106159483"><ele>439.33333333333337</ele><time>2026-03-22T14:44:01Z</time></trkpt><trkpt lat="43.01830904169156" lon="2.477024688278843"><ele>440.6666666666667</ele><time>2026-03-22T14:44:02Z</time></trkpt><trkpt lat="43.018409314665" lon="2.4768865762665246"><ele>442.0</ele><time>2026-03-22T14:44:03Z</time></trkpt><trkpt lat="43.018522834205456" lon="2.476736814645157"><ele>448.0</ele><time>2026-03-22T14:44:04Z</time></trkpt><trkpt lat="43.01863147375301" lon="2.4765893343835352"><ele>454.0</ele><time>2026-03-22T14:44:05Z</time></trkpt><trkpt lat="43.018718149470025" lon="2.4764575862290292"><ele>460.0</ele><time>2026-03-22T14:44:06Z</time></trkpt><trkpt lat="43.01879759234146" lon="2.476318096884364"><ele>466.0</ele><time>2026-03-22T14:44:07Z</time></trkpt><trkpt lat="43.018894275245714" lon="2.4761320227827395"><ele>465.33333333333337</ele><time>2026-03-22T14:44:08Z</time></trkpt><trkpt lat="43.01899818482734" lon="2.475925660512085"><ele>464.66666666666663</ele><time>2026-03-22T14:44:09Z</time></trkpt><trkpt lat="43.01908717990473" lon="2.4757334059021843"><ele>464.0</ele><time>2026-03-22T14:44:10Z</time></trkpt><trkpt lat="43.01915835365528" lon="2.475583454149578"><ele>468.75</ele><time>2026-03-22T14:44:11Z</time></trkpt><trkpt lat="43.01924720684741" lon="2.47541637188678"><ele>473.5</ele><time>2026-03-22T14:44:12Z</time></trkpt><trkpt lat="43.01933432868355" lon="2.4752619821921127"><ele>478.25</ele><time>2026-03-22T14:44:13Z</time></trkpt><trkpt lat="43.01940061938699" lon="2.4751445076251057"><ele>483.0</ele><time>2026-03-22T14:44:14Z</time></trkpt><trkpt lat="43.0194474756385" lon="2.4750543257528355"><ele>483.0</ele><time>2026-03-22T14:44:15Z</time></trkpt><trkpt lat="43.01949226332913" lon="2.4749576802671647"><ele>482.99999999999994</ele><time>2026-03-22T14:44:16Z</time></trkpt><trkpt lat="43.019529314742606" lon="2.4748502073045686"><ele>482.99999999999994</ele><time>2026-03-22T14:44:17Z</time></trkpt><trkpt lat="43.019549452453305" lon="2.47473046570668"><ele>483.0</ele><time>2026-03-22T14:44:18Z</time></trkpt><trkpt lat="43.01954889835012" lon="2.4745726665988497"><ele>483.0</ele><time>2026-03-22T14:44:19Z</time></trkpt><trkpt lat="43.01956577046494" lon="2.47441452015697"><ele>487.0</ele><time>2026-03-22T14:44:20Z</time></trkpt><trkpt lat="43.01954629562607" lon="2.474269235094332"><ele>491.0</ele><time>2026-03-22T14:44:21Z</time></trkpt><trkpt lat="43.01956223124076" lon="2.474123321829992"><ele>495.0</ele><time>2026-03-22T14:44:22Z</time></trkpt><trkpt lat="43.01963563336309" lon="2.4739830266881055"><ele>499.0</ele><time>2026-03-22T14:44:23Z</time></trkpt><trkpt lat="43.01969548813788" lon="2.473837843187341"><ele>502.2</ele><time>2026-03-22T14:44:24Z</time></trkpt><trkpt lat="43.01973578268467" lon="2.473699343952007"><ele>505.4</ele><time>2026-03-22T14:44:25Z</time></trkpt><trkpt lat="43.01978500580756" lon="2.4735597164263434"><ele>508.6</ele><time>2026-03-22T14:44:26Z</time></trkpt><trkpt lat="43.01982892893281" lon="2.4734153085775645"><ele>511.8</ele><time>2026-03-22T14:44:27Z</time></trkpt><trkpt lat="43.019861528676806" lon="2.473283438795156"><ele>515.0</ele><time>2026-03-22T14:44:28Z</time></trkpt><trkpt lat="43.019914375379585" lon="2.473166608351985"><ele>513.2</ele><time>2026-03-22T14:44:29Z</time></trkpt><trkpt lat="43.019984873850355" lon="2.473067600458532"><ele>511.4</ele><time>2026-03-22T14:44:30Z</time></trkpt><trkpt lat="43.020074874570746" lon="2.4729863534199454"><ele>509.6</ele><time>2026-03-22T14:44:31Z</time></trkpt><trkpt lat="43.02015923788922" lon="2.4728970458819117"><ele>507.8</ele><time>2026-03-22T14:44:32Z</time></trkpt><trkpt lat="43.020223700016956" lon="2.472750762132499"><ele>506.0</ele><time>2026-03-22T14:44:33Z</time></trkpt><trkpt lat="43.020309366867366" lon="2.4726185865100856"><ele>506.0</ele><time>2026-03-22T14:44:34Z</time></trkpt><trkpt lat="43.02040034168078" lon="2.4724978919462566"><ele>506.0</ele><time>2026-03-22T14:44:35Z</time></trkpt><trkpt lat="43.02051150305585" lon="2.4723993425676944"><ele>506.0</ele><time>2026-03-22T14:44:36Z</time></trkpt><trkpt lat="43.020627313589266" lon="2.4723210745375486"><ele>506.0</ele><time>2026-03-22T14:44:37Z</time></trkpt><trkpt lat="43.020727958402944" lon="2.472285375240037"><ele>502.6</ele><time>2026-03-22T14:44:38Z</time></trkpt><trkpt lat="43.02082087200111" lon="2.4722906561928566"><ele>499.20000000000005</ele><time>2026-03-22T14:44:39Z</time></trkpt><trkpt lat="43.02089188229008" lon="2.472409376096178"><ele>495.79999999999995</ele><time>2026-03-22T14:44:40Z</time></trkpt><trkpt lat="43.0209955976815" lon="2.472431659146396"><ele>492.4</ele><time>2026-03-22T14:44:41Z</time></trkpt><trkpt lat="43.02107285708565" lon="2.4724736681480652"><ele>489.0</ele><time>2026-03-22T14:44:42Z</time></trkpt><trkpt lat="43.02115283037055" lon="2.472433373048057"><ele>489.0</ele><time>2026-03-22T14:44:43Z</time></trkpt><trkpt lat="43.02120456141995" lon="2.472329098756132"><ele>489.0</ele><time>2026-03-22T14:44:44Z</time></trkpt><trkpt lat="43.02123334391126" lon="2.4721995824068954"><ele>489.0</ele><time>2026-03-22T14:44:45Z</time></trkpt><trkpt lat="43.02129219923069" lon="2.472039762703463"><ele>489.0</ele><time>2026-03-22T14:44:46Z</time></trkpt><trkpt lat="43.02134464554904" lon="2.471817356396799"><ele>496.66666666666663</ele><time>2026-03-22T14:44:47Z</time></trkpt><trkpt lat="43.02143234618197" lon="2.4715595334942195"><ele>504.3333333333333</ele><time>2026-03-22T14:44:48Z</time></trkpt><trkpt lat="43.02153458301123" lon="2.4712904540080083"><ele>512.0</ele><time>2026-03-22T14:44:49Z</time></trkpt><trkpt lat="43.02162686971205" lon="2.471044664688514"><ele>509.3333333333333</ele><time>2026-03-22T14:44:50Z</time></trkpt><trkpt lat="43.02172641772242" lon="2.470839632230932"><ele>506.66666666666663</ele><time>2026-03-22T14:44:51Z</time></trkpt><trkpt lat="43.02179781360748" lon="2.4705934100883806"><ele>504.0</ele><time>2026-03-22T14:44:52Z</time></trkpt><trkpt lat="43.02188267212689" lon="2.4703891198860095"><ele>509.0</ele><time>2026-03-22T14:44:52.999Z</time></trkpt><trkpt lat="43.021934209150274" lon="2.4701913825378385"><ele>514.0</ele><time>2026-03-22T14:44:53.999Z</time></trkpt><trkpt lat="43.02198619637711" lon="2.4700223593001476"><ele>519.0</ele><time>2026-03-22T14:44:54.999Z</time></trkpt><trkpt lat="43.022032482277524" lon="2.4698565294439656"><ele>524.0</ele><time>2026-03-22T14:44:55.999Z</time></trkpt><trkpt lat="43.02207045066425" lon="2.4697063523328073"><ele>528.75</ele><time>2026-03-22T14:44:56.999Z</time></trkpt><trkpt lat="43.02212196351943" lon="2.469541598764812"><ele>533.5</ele><time>2026-03-22T14:44:57.999Z</time></trkpt><trkpt lat="43.02213699010655" lon="2.46937277734152"><ele>538.25</ele><time>2026-03-22T14:44:58.999Z</time></trkpt><trkpt lat="43.02217416297501" lon="2.4691901088547303"><ele>543.0</ele><time>2026-03-22T14:44:59.999Z</time></trkpt><trkpt lat="43.02220244169226" lon="2.4690028457294946"><ele>543.0</ele><time>2026-03-22T14:45:00.999Z</time></trkpt><trkpt lat="43.022221530018456" lon="2.4688141617764305"><ele>543.0</ele><time>2026-03-22T14:45:01.999Z</time></trkpt><trkpt lat="43.02224154912927" lon="2.468630199019414"><ele>543.0</ele><time>2026-03-22T14:45:02.999Z</time></trkpt><trkpt lat="43.0222664369801" lon="2.4684430552503294"><ele>543.0</ele><time>2026-03-22T14:45:03.999Z</time></trkpt><trkpt lat="43.022313361144406" lon="2.468257521864576"><ele>547.6666666666666</ele><time>2026-03-22T14:45:04.999Z</time></trkpt><trkpt lat="43.02237631694144" lon="2.4680700473679567"><ele>552.3333333333333</ele><time>2026-03-22T14:45:05.999Z</time></trkpt><trkpt lat="43.022421584178154" lon="2.4678757252390184"><ele>557.0</ele><time>2026-03-22T14:45:06.999Z</time></trkpt><trkpt lat="43.02248413664659" lon="2.4676722142452263"><ele>547.3333333333333</ele><time>2026-03-22T14:45:07.999Z</time></trkpt><trkpt lat="43.022530828632966" lon="2.4674524224653434"><ele>537.6666666666666</ele><time>2026-03-22T14:45:08.999Z</time></trkpt><trkpt lat="43.02259058740474" lon="2.4672358730344457"><ele>528.0</ele><time>2026-03-22T14:45:09.999Z</time></trkpt><trkpt lat="43.022651989880686" lon="2.467025242299275"><ele>528.0</ele><time>2026-03-22T14:45:10.999Z</time></trkpt><trkpt lat="43.0226756663412" lon="2.4668258136751198"><ele>528.0</ele><time>2026-03-22T14:45:11.999Z</time></trkpt><trkpt lat="43.022710760440035" lon="2.4666032781078915"><ele>528.0</ele><time>2026-03-22T14:45:12.999Z</time></trkpt><trkpt lat="43.02271914388836" lon="2.4663359549150963"><ele>530.25</ele><time>2026-03-22T14:45:13.999Z</time></trkpt><trkpt lat="43.022721116492235" lon="2.4661132297522528"><ele>532.5</ele><time>2026-03-22T14:45:14.999Z</time></trkpt><trkpt lat="43.02272201335799" lon="2.4659186709047867"><ele>534.75</ele><time>2026-03-22T14:45:15.999Z</time></trkpt><trkpt lat="43.02271697283624" lon="2.4657477253139213"><ele>537.0</ele><time>2026-03-22T14:45:16.999Z</time></trkpt><trkpt lat="43.02271087274885" lon="2.4655892581888144"><ele>538.0</ele><time>2026-03-22T14:45:17.999Z</time></trkpt><trkpt lat="43.02269619879126" lon="2.4654328971007504"><ele>539.0</ele><time>2026-03-22T14:45:18.999Z</time></trkpt><trkpt lat="43.022651080660154" lon="2.4652766092985967"><ele>540.0</ele><time>2026-03-22T14:45:19.999Z</time></trkpt><trkpt lat="43.0226127641305" lon="2.465111041560505"><ele>541.0</ele><time>2026-03-22T14:45:20.999Z</time></trkpt><trkpt lat="43.02256883064627" lon="2.464957201254067"><ele>541.0</ele><time>2026-03-22T14:45:21.999Z</time></trkpt><trkpt lat="43.022526710752146" lon="2.464808181914124"><ele>541.0</ele><time>2026-03-22T14:45:22.999Z</time></trkpt><trkpt lat="43.02245718313894" lon="2.4646782790631936"><ele>541.0</ele><time>2026-03-22T14:45:23.999Z</time></trkpt><trkpt lat="43.02241644489451" lon="2.4645092215389823"><ele>541.0</ele><time>2026-03-22T14:45:24.999Z</time></trkpt><trkpt lat="43.02236090669429" lon="2.464314415802428"><ele>558.0</ele><time>2026-03-22T14:45:25.999Z</time></trkpt><trkpt lat="43.02230657324356" lon="2.4640905865750704"><ele>575.0</ele><time>2026-03-22T14:45:26.999Z</time></trkpt><trkpt lat="43.02228218931413" lon="2.4638778594398913"><ele>592.0</ele><time>2026-03-22T14:45:27.999Z</time></trkpt><trkpt lat="43.02228178737959" lon="2.463686972903374"><ele>592.6666666666667</ele><time>2026-03-22T14:45:28.999Z</time></trkpt><trkpt lat="43.022300859325206" lon="2.4634845326049137"><ele>593.3333333333334</ele><time>2026-03-22T14:45:30Z</time></trkpt><trkpt lat="43.02234366717147" lon="2.4632590309213347"><ele>594.0</ele><time>2026-03-22T14:45:31Z</time></trkpt><trkpt lat="43.02239478086065" lon="2.463019354815198"><ele>596.6666666666666</ele><time>2026-03-22T14:45:32Z</time></trkpt><trkpt lat="43.022424899401855" lon="2.4627589638996663"><ele>599.3333333333333</ele><time>2026-03-22T14:45:33Z</time></trkpt><trkpt lat="43.02245105973727" lon="2.462496506697239"><ele>602.0</ele><time>2026-03-22T14:45:34Z</time></trkpt><trkpt lat="43.022445294395226" lon="2.4622403270661426"><ele>590.75</ele><time>2026-03-22T14:45:35Z</time></trkpt><trkpt lat="43.02248209083919" lon="2.462034054788719"><ele>579.5</ele><time>2026-03-22T14:45:36Z</time></trkpt><trkpt lat="43.02248199355494" lon="2.4618481967513226"><ele>568.25</ele><time>2026-03-22T14:45:37Z</time></trkpt><trkpt lat="43.022499715249424" lon="2.4616775574538265"><ele>557.0</ele><time>2026-03-22T14:45:38Z</time></trkpt><trkpt lat="43.02250457834712" lon="2.4615382484226385"><ele>557.0</ele><time>2026-03-22T14:45:39Z</time></trkpt><trkpt lat="43.022503547186375" lon="2.461391254069932"><ele>557.0</ele><time>2026-03-22T14:45:40Z</time></trkpt><trkpt lat="43.02248939651301" lon="2.4612127814020024"><ele>557.0</ele><time>2026-03-22T14:45:41Z</time></trkpt><trkpt lat="43.02247579463721" lon="2.4610354685235327"><ele>557.0</ele><time>2026-03-22T14:45:42Z</time></trkpt><trkpt lat="43.02246557659412" lon="2.460861570173219"><ele>567.75</ele><time>2026-03-22T14:45:43Z</time></trkpt><trkpt lat="43.022439261535816" lon="2.4607029503448357"><ele>578.5</ele><time>2026-03-22T14:45:44Z</time></trkpt><trkpt lat="43.02238056580132" lon="2.460539326829591"><ele>589.25</ele><time>2026-03-22T14:45:45Z</time></trkpt><trkpt lat="43.022327809975856" lon="2.4603524417532494"><ele>600.0</ele><time>2026-03-22T14:45:46Z</time></trkpt><trkpt lat="43.022273612247574" lon="2.4602108011844113"><ele>600.0</ele><time>2026-03-22T14:45:47Z</time></trkpt><trkpt lat="43.0222479264429" lon="2.46009547050508"><ele>600.0</ele><time>2026-03-22T14:45:48Z</time></trkpt><trkpt lat="43.022213856943296" lon="2.4599866475060543"><ele>600.0</ele><time>2026-03-22T14:45:49Z</time></trkpt><trkpt lat="43.02223260194265" lon="2.4598596009638665"><ele>600.0</ele><time>2026-03-22T14:45:50Z</time></trkpt><trkpt lat="43.02227341933229" lon="2.459759692738112"><ele>600.0</ele><time>2026-03-22T14:45:51Z</time></trkpt><trkpt lat="43.02236821832835" lon="2.459674806329689"><ele>603.25</ele><time>2026-03-22T14:45:52Z</time></trkpt><trkpt lat="43.022465102958" lon="2.4595425749310116"><ele>606.5</ele><time>2026-03-22T14:45:53Z</time></trkpt><trkpt lat="43.022605399934676" lon="2.4594440501421713"><ele>609.75</ele><time>2026-03-22T14:45:54Z</time></trkpt><trkpt lat="43.02270058337218" lon="2.4593232110988916"><ele>613.0</ele><time>2026-03-22T14:45:55Z</time></trkpt><trkpt lat="43.02276073226709" lon="2.4591861505094736"><ele>609.6666666666667</ele><time>2026-03-22T14:45:56Z</time></trkpt><trkpt lat="43.02280622032443" lon="2.458978356653029"><ele>606.3333333333334</ele><time>2026-03-22T14:45:57Z</time></trkpt><trkpt lat="43.02287638772197" lon="2.458740254173745"><ele>603.0</ele><time>2026-03-22T14:45:58Z</time></trkpt><trkpt lat="43.02298113985195" lon="2.458529213309137"><ele>603.0</ele><time>2026-03-22T14:45:59Z</time></trkpt><trkpt lat="43.02310689573843" lon="2.458311298377926"><ele>603.0</ele><time>2026-03-22T14:46:00Z</time></trkpt><trkpt lat="43.02325859901921" lon="2.458107129999439"><ele>603.0</ele><time>2026-03-22T14:46:01Z</time></trkpt><trkpt lat="43.023362376353795" lon="2.4579062153608215"><ele>600.0</ele><time>2026-03-22T14:46:02Z</time></trkpt><trkpt lat="43.02344723182611" lon="2.457740530595161"><ele>597.0</ele><time>2026-03-22T14:46:03Z</time></trkpt><trkpt lat="43.023523594097625" lon="2.457627847973043"><ele>594.0</ele><time>2026-03-22T14:46:04Z</time></trkpt><trkpt lat="43.023592614634055" lon="2.4575493584484542"><ele>591.0</ele><time>2026-03-22T14:46:05Z</time></trkpt><trkpt lat="43.023672067744634" lon="2.457502423534428"><ele>588.0</ele><time>2026-03-22T14:46:06Z</time></trkpt><trkpt lat="43.02376422388981" lon="2.4574949914579514"><ele>588.0</ele><time>2026-03-22T14:46:07Z</time></trkpt><trkpt lat="43.02386796759207" lon="2.4575251937546927"><ele>588.0</ele><time>2026-03-22T14:46:08Z</time></trkpt><trkpt lat="43.02395116131158" lon="2.457490707730296"><ele>588.0</ele><time>2026-03-22T14:46:09Z</time></trkpt><trkpt lat="43.02401495040561" lon="2.4574461266164147"><ele>588.0</ele><time>2026-03-22T14:46:10Z</time></trkpt><trkpt lat="43.024068333473416" lon="2.4573725664878165"><ele>588.0</ele><time>2026-03-22T14:46:11Z</time></trkpt><trkpt lat="43.024094168861566" lon="2.4572133430313357"><ele>589.0</ele><time>2026-03-22T14:46:12Z</time></trkpt><trkpt lat="43.024118973601944" lon="2.457012790658839"><ele>590.0</ele><time>2026-03-22T14:46:13Z</time></trkpt><trkpt lat="43.02413684391961" lon="2.4567909593156365"><ele>591.0</ele><time>2026-03-22T14:46:14Z</time></trkpt><trkpt lat="43.0241485607216" lon="2.4566180472434365"><ele>592.0</ele><time>2026-03-22T14:46:15Z</time></trkpt><trkpt lat="43.024137177074586" lon="2.456465749428998"><ele>595.0</ele><time>2026-03-22T14:46:16Z</time></trkpt><trkpt lat="43.024136160315905" lon="2.4562968705756627"><ele>598.0</ele><time>2026-03-22T14:46:17Z</time></trkpt><trkpt lat="43.02411276172853" lon="2.4561380826761057"><ele>601.0</ele><time>2026-03-22T14:46:18Z</time></trkpt><trkpt lat="43.024077638495314" lon="2.4559878093142036"><ele>604.0</ele><time>2026-03-22T14:46:19Z</time></trkpt><trkpt lat="43.02405466039472" lon="2.4558434965783853"><ele>604.75</ele><time>2026-03-22T14:46:20Z</time></trkpt><trkpt lat="43.02408458409216" lon="2.4556685962453524"><ele>605.5</ele><time>2026-03-22T14:46:21Z</time></trkpt><trkpt lat="43.02412649511281" lon="2.4554857461769455"><ele>606.25</ele><time>2026-03-22T14:46:22Z</time></trkpt><trkpt lat="43.02415727839467" lon="2.455330932433804"><ele>607.0</ele><time>2026-03-22T14:46:23Z</time></trkpt><trkpt lat="43.02418500722464" lon="2.4552230811915705"><ele>607.0</ele><time>2026-03-22T14:46:24Z</time></trkpt><trkpt lat="43.02423786204192" lon="2.455087535970082"><ele>607.0</ele><time>2026-03-22T14:46:26Z</time></trkpt><trkpt lat="43.024345183721294" lon="2.4549259685693103"><ele>607.0</ele><time>2026-03-22T14:46:28Z</time></trkpt><trkpt lat="43.02442684459543" lon="2.454836961623834"><ele>607.0</ele><time>2026-03-22T14:46:29Z</time></trkpt><trkpt lat="43.02454726082718" lon="2.4547444940650327"><ele>607.0</ele><time>2026-03-22T14:46:30Z</time></trkpt><trkpt lat="43.02466265532064" lon="2.4546460678834867"><ele>607.0</ele><time>2026-03-22T14:46:31Z</time></trkpt><trkpt lat="43.02475628727774" lon="2.4545569107225744"><ele>607.0</ele><time>2026-03-22T14:46:32Z</time></trkpt><trkpt lat="43.024831019097995" lon="2.4544482319933056"><ele>607.0</ele><time>2026-03-22T14:46:33Z</time></trkpt><trkpt lat="43.02490319601657" lon="2.4543249225648007"><ele>604.6666666666667</ele><time>2026-03-22T14:46:34Z</time></trkpt><trkpt lat="43.024984834490816" lon="2.454173928426143"><ele>602.3333333333334</ele><time>2026-03-22T14:46:35Z</time></trkpt><trkpt lat="43.02507633166003" lon="2.4539817222482676"><ele>600.0</ele><time>2026-03-22T14:46:36Z</time></trkpt><trkpt lat="43.02518214537236" lon="2.4537495117712838"><ele>599.0</ele><time>2026-03-22T14:46:37Z</time></trkpt><trkpt lat="43.02528094950262" lon="2.4535529516906953"><ele>598.0</ele><time>2026-03-22T14:46:38Z</time></trkpt><trkpt lat="43.025388474611496" lon="2.4533482196735448"><ele>597.0</ele><time>2026-03-22T14:46:39Z</time></trkpt><trkpt lat="43.025491307551924" lon="2.45313778626881"><ele>596.6666666666666</ele><time>2026-03-22T14:46:40Z</time></trkpt><trkpt lat="43.025589018449274" lon="2.452935294591052"><ele>596.3333333333333</ele><time>2026-03-22T14:46:41Z</time></trkpt><trkpt lat="43.02568076246093" lon="2.4527483117312117"><ele>596.0</ele><time>2026-03-22T14:46:42Z</time></trkpt><trkpt lat="43.02577074472812" lon="2.452567165134956"><ele>596.3333333333333</ele><time>2026-03-22T14:46:43Z</time></trkpt><trkpt lat="43.02586793741728" lon="2.452339248046203"><ele>596.6666666666666</ele><time>2026-03-22T14:46:44Z</time></trkpt><trkpt lat="43.025947717716484" lon="2.452091000136143"><ele>597.0</ele><time>2026-03-22T14:46:45Z</time></trkpt><trkpt lat="43.02601309169734" lon="2.4518570504641906"><ele>594.6666666666666</ele><time>2026-03-22T14:46:46Z</time></trkpt><trkpt lat="43.026081604046205" lon="2.4516445062870225"><ele>592.3333333333333</ele><time>2026-03-22T14:46:47Z</time></trkpt><trkpt lat="43.02614853185928" lon="2.4514519988605667"><ele>590.0</ele><time>2026-03-22T14:46:48Z</time></trkpt><trkpt lat="43.02621010168411" lon="2.4512641863029776"><ele>588.25</ele><time>2026-03-22T14:46:49Z</time></trkpt><trkpt lat="43.02626884989621" lon="2.451074952865177"><ele>586.5</ele><time>2026-03-22T14:46:50Z</time></trkpt><trkpt lat="43.02632416109437" lon="2.4508958626904707"><ele>584.75</ele><time>2026-03-22T14:46:51Z</time></trkpt><trkpt lat="43.02637343102585" lon="2.4507188478444557"><ele>583.0</ele><time>2026-03-22T14:46:52Z</time></trkpt><trkpt lat="43.026428100755986" lon="2.450553291275757"><ele>583.0</ele><time>2026-03-22T14:46:53Z</time></trkpt><trkpt lat="43.02648619395099" lon="2.4503981319601205"><ele>583.0</ele><time>2026-03-22T14:46:54Z</time></trkpt><trkpt lat="43.02654449199432" lon="2.4502208689664164"><ele>583.0</ele><time>2026-03-22T14:46:55Z</time></trkpt><trkpt lat="43.02662172218033" lon="2.450028144881619"><ele>583.0</ele><time>2026-03-22T14:46:56Z</time></trkpt><trkpt lat="43.02669351818135" lon="2.4498449510381493"><ele>582.6666666666667</ele><time>2026-03-22T14:46:57Z</time></trkpt><trkpt lat="43.02673695893367" lon="2.4496421058247435"><ele>582.3333333333334</ele><time>2026-03-22T14:46:58Z</time></trkpt><trkpt lat="43.026770343054146" lon="2.4493855607036763"><ele>582.0</ele><time>2026-03-22T14:46:59Z</time></trkpt><trkpt lat="43.02678578898936" lon="2.4490912738373996"><ele>582.0</ele><time>2026-03-22T14:47:00Z</time></trkpt><trkpt lat="43.026816878343645" lon="2.44882725520204"><ele>582.0</ele><time>2026-03-22T14:47:01Z</time></trkpt><trkpt lat="43.026845201383075" lon="2.4485957381753107"><ele>582.0</ele><time>2026-03-22T14:47:02Z</time></trkpt><trkpt lat="43.026896341105335" lon="2.448370671140524"><ele>580.5</ele><time>2026-03-22T14:47:03Z</time></trkpt><trkpt lat="43.026927489706516" lon="2.4481642833359873"><ele>579.0</ele><time>2026-03-22T14:47:04Z</time></trkpt><trkpt lat="43.02696186567214" lon="2.447983654386609"><ele>577.5</ele><time>2026-03-22T14:47:05Z</time></trkpt><trkpt lat="43.026994430470985" lon="2.447811093087762"><ele>576.0</ele><time>2026-03-22T14:47:06Z</time></trkpt><trkpt lat="43.02703598310827" lon="2.447650533015953"><ele>573.75</ele><time>2026-03-22T14:47:07Z</time></trkpt><trkpt lat="43.02709363798151" lon="2.4474875614697664"><ele>571.5</ele><time>2026-03-22T14:47:08Z</time></trkpt><trkpt lat="43.02716491665981" lon="2.447337514568179"><ele>569.25</ele><time>2026-03-22T14:47:09Z</time></trkpt><trkpt lat="43.02725517368762" lon="2.4472115600080384"><ele>567.0</ele><time>2026-03-22T14:47:10Z</time></trkpt><trkpt lat="43.02735081971004" lon="2.4471139602031173"><ele>566.3333333333334</ele><time>2026-03-22T14:47:11Z</time></trkpt><trkpt lat="43.027428897478096" lon="2.4470300986510742"><ele>565.6666666666666</ele><time>2026-03-22T14:47:12Z</time></trkpt><trkpt lat="43.0274761395147" lon="2.446937150543881"><ele>565.0</ele><time>2026-03-22T14:47:13Z</time></trkpt><trkpt lat="43.02750341882964" lon="2.446832666856927"><ele>564.3333333333333</ele><time>2026-03-22T14:47:14Z</time></trkpt><trkpt lat="43.02749534928858" lon="2.446724195895211"><ele>563.6666666666666</ele><time>2026-03-22T14:47:15Z</time></trkpt><trkpt lat="43.027451467068616" lon="2.446619490421621"><ele>563.0</ele><time>2026-03-22T14:47:16Z</time></trkpt><trkpt lat="43.02740055809785" lon="2.4465010354132644"><ele>563.0</ele><time>2026-03-22T14:47:17Z</time></trkpt><trkpt lat="43.02734494708164" lon="2.446386792942863"><ele>563.0</ele><time>2026-03-22T14:47:18Z</time></trkpt><trkpt lat="43.027308244261384" lon="2.4462473317866578"><ele>563.0</ele><time>2026-03-22T14:47:19Z</time></trkpt><trkpt lat="43.02730181145177" lon="2.4461093779706906"><ele>563.0</ele><time>2026-03-22T14:47:20Z</time></trkpt><trkpt lat="43.02730287990953" lon="2.4459599001771557"><ele>563.0</ele><time>2026-03-22T14:47:21Z</time></trkpt><trkpt lat="43.02732141227753" lon="2.445787695613136"><ele>563.0</ele><time>2026-03-22T14:47:22Z</time></trkpt><trkpt lat="43.027357717051714" lon="2.4455880515329356"><ele>563.0</ele><time>2026-03-22T14:47:23Z</time></trkpt><trkpt lat="43.02739947725078" lon="2.4454130402727294"><ele>563.0</ele><time>2026-03-22T14:47:24Z</time></trkpt><trkpt lat="43.02743218506406" lon="2.445259407000636"><ele>563.0</ele><time>2026-03-22T14:47:24.999Z</time></trkpt><trkpt lat="43.0274736688794" lon="2.4451097007989224"><ele>562.6666666666666</ele><time>2026-03-22T14:47:25.999Z</time></trkpt><trkpt lat="43.02753622007369" lon="2.444953706196989"><ele>562.3333333333334</ele><time>2026-03-22T14:47:26.999Z</time></trkpt><trkpt lat="43.02762804921913" lon="2.4447784031767466"><ele>562.0</ele><time>2026-03-22T14:47:27.999Z</time></trkpt><trkpt lat="43.027745191642744" lon="2.4446134895390563"><ele>562.0</ele><time>2026-03-22T14:47:28.999Z</time></trkpt><trkpt lat="43.027869691280465" lon="2.444454340180875"><ele>562.0</ele><time>2026-03-22T14:47:29.999Z</time></trkpt><trkpt lat="43.02797774085038" lon="2.4443005364414185"><ele>562.0</ele><time>2026-03-22T14:47:30.999Z</time></trkpt><trkpt lat="43.028087151707425" lon="2.4441211522807804"><ele>562.0</ele><time>2026-03-22T14:47:31.999Z</time></trkpt><trkpt lat="43.028187526875094" lon="2.443913861257721"><ele>562.0</ele><time>2026-03-22T14:47:32.999Z</time></trkpt><trkpt lat="43.028272925210004" lon="2.4436848030655525"><ele>562.0</ele><time>2026-03-22T14:47:33.999Z</time></trkpt><trkpt lat="43.02835396484366" lon="2.4434810618854423"><ele>561.0</ele><time>2026-03-22T14:47:34.999Z</time></trkpt><trkpt lat="43.02842807733069" lon="2.443280879576086"><ele>560.0</ele><time>2026-03-22T14:47:36Z</time></trkpt><trkpt lat="43.028504056841506" lon="2.4430790542720846"><ele>559.0</ele><time>2026-03-22T14:47:37Z</time></trkpt><trkpt lat="43.02856617868679" lon="2.442878255665153"><ele>559.0</ele><time>2026-03-22T14:47:38Z</time></trkpt><trkpt lat="43.02861845065697" lon="2.442671138109529"><ele>559.0</ele><time>2026-03-22T14:47:39Z</time></trkpt><trkpt lat="43.02865584286923" lon="2.442461794911204"><ele>559.0</ele><time>2026-03-22T14:47:40Z</time></trkpt><trkpt lat="43.02869093398447" lon="2.442280206745172"><ele>558.0</ele><time>2026-03-22T14:47:41Z</time></trkpt><trkpt lat="43.02873385576309" lon="2.4421223589791428"><ele>557.0</ele><time>2026-03-22T14:47:42Z</time></trkpt><trkpt lat="43.028786170416375" lon="2.441989015845311"><ele>556.0</ele><time>2026-03-22T14:47:43Z</time></trkpt><trkpt lat="43.028857752725536" lon="2.441888850337328"><ele>555.0</ele><time>2026-03-22T14:47:44Z</time></trkpt><trkpt lat="43.02893605867121" lon="2.441820147678973"><ele>554.0</ele><time>2026-03-22T14:47:45Z</time></trkpt><trkpt lat="43.02903440340982" lon="2.4417674163430294"><ele>554.0</ele><time>2026-03-22T14:47:46Z</time></trkpt><trkpt lat="43.02913079566945" lon="2.44170682839932"><ele>554.0</ele><time>2026-03-22T14:47:47Z</time></trkpt><trkpt lat="43.02920079867801" lon="2.441621041632518"><ele>554.0</ele><time>2026-03-22T14:47:48Z</time></trkpt><trkpt lat="43.02921425053464" lon="2.4414965999183096"><ele>554.0</ele><time>2026-03-22T14:47:49Z</time></trkpt><trkpt lat="43.02919567922866" lon="2.4413927186997957"><ele>554.0</ele><time>2026-03-22T14:47:50Z</time></trkpt><trkpt lat="43.029185020559" lon="2.4412355434959885"><ele>557.0</ele><time>2026-03-22T14:47:51Z</time></trkpt><trkpt lat="43.029163559061175" lon="2.4410811887187998"><ele>560.0</ele><time>2026-03-22T14:47:52Z</time></trkpt><trkpt lat="43.0291519439438" lon="2.4409349296910645"><ele>563.0</ele><time>2026-03-22T14:47:53Z</time></trkpt><trkpt lat="43.029150263895396" lon="2.4407722106304894"><ele>566.0</ele><time>2026-03-22T14:47:54Z</time></trkpt><trkpt lat="43.0291942651346" lon="2.4405962753241512"><ele>564.3333333333333</ele><time>2026-03-22T14:47:55Z</time></trkpt><trkpt lat="43.029249598358405" lon="2.440386376396627"><ele>562.6666666666666</ele><time>2026-03-22T14:47:56Z</time></trkpt><trkpt lat="43.02932604281807" lon="2.4401683752559284"><ele>561.0</ele><time>2026-03-22T14:47:57Z</time></trkpt><trkpt lat="43.02937617688019" lon="2.439959170714033"><ele>561.0</ele><time>2026-03-22T14:47:58Z</time></trkpt><trkpt lat="43.02943058145075" lon="2.4397722534744357"><ele>561.0</ele><time>2026-03-22T14:47:59Z</time></trkpt><trkpt lat="43.02948395928111" lon="2.439582756274355"><ele>561.0</ele><time>2026-03-22T14:48:00Z</time></trkpt><trkpt lat="43.029531990552584" lon="2.439387655118361"><ele>561.0</ele><time>2026-03-22T14:48:01Z</time></trkpt><trkpt lat="43.02958445580774" lon="2.439193522866665"><ele>560.2</ele><time>2026-03-22T14:48:02Z</time></trkpt><trkpt lat="43.029619900835335" lon="2.4390166897406536"><ele>559.4000000000001</ele><time>2026-03-22T14:48:03Z</time></trkpt><trkpt lat="43.02962960370684" lon="2.43885912800613"><ele>558.6</ele><time>2026-03-22T14:48:04Z</time></trkpt><trkpt lat="43.029671139377825" lon="2.4387283818006575"><ele>557.8000000000001</ele><time>2026-03-22T14:48:05Z</time></trkpt><trkpt lat="43.02969194492901" lon="2.438610477276209"><ele>557.0</ele><time>2026-03-22T14:48:06Z</time></trkpt><trkpt lat="43.02973529992162" lon="2.4384848905493484"><ele>556.1666666666666</ele><time>2026-03-22T14:48:08Z</time></trkpt><trkpt lat="43.029797372471265" lon="2.4384268033961343"><ele>555.3333333333333</ele><time>2026-03-22T14:48:10Z</time></trkpt><trkpt lat="43.02990456335445" lon="2.438439972669516"><ele>554.5</ele><time>2026-03-22T14:48:12Z</time></trkpt><trkpt lat="43.029911936493605" lon="2.4385448464809714"><ele>553.6666666666666</ele><time>2026-03-22T14:48:13Z</time></trkpt><trkpt lat="43.02992576172779" lon="2.4386329008262124"><ele>552.8333333333334</ele><time>2026-03-22T14:48:14Z</time></trkpt><trkpt lat="43.029957552537766" lon="2.438750545804005"><ele>552.0</ele><time>2026-03-22T14:48:15Z</time></trkpt><trkpt lat="43.029995122991394" lon="2.4389004581581095"><ele>554.6</ele><time>2026-03-22T14:48:16Z</time></trkpt><trkpt lat="43.03003793927923" lon="2.439066803778188"><ele>557.2</ele><time>2026-03-22T14:48:17Z</time></trkpt><trkpt lat="43.030075767628624" lon="2.4392100542132753"><ele>559.8</ele><time>2026-03-22T14:48:18Z</time></trkpt><trkpt lat="43.03011284242907" lon="2.439348311688966"><ele>562.4</ele><time>2026-03-22T14:48:19Z</time></trkpt><trkpt lat="43.03014551898277" lon="2.4394660088176163"><ele>565.0</ele><time>2026-03-22T14:48:20Z</time></trkpt><trkpt lat="43.030175127685936" lon="2.4395636244715053"><ele>565.5</ele><time>2026-03-22T14:48:21Z</time></trkpt><trkpt lat="43.03020892614519" lon="2.4396620098905513"><ele>566.0</ele><time>2026-03-22T14:48:22Z</time></trkpt><trkpt lat="43.030251318729384" lon="2.4397416438401534"><ele>566.5</ele><time>2026-03-22T14:48:23Z</time></trkpt><trkpt lat="43.0303425909248" lon="2.4397780847751376"><ele>567.0</ele><time>2026-03-22T14:48:24Z</time></trkpt><trkpt lat="43.03041022980796" lon="2.439790889381363"><ele>567.5</ele><time>2026-03-22T14:48:25Z</time></trkpt><trkpt lat="43.03050901871283" lon="2.43975481149078"><ele>568.0</ele><time>2026-03-22T14:48:26Z</time></trkpt><trkpt lat="43.03060410597824" lon="2.4396659346012486"><ele>567.25</ele><time>2026-03-22T14:48:27Z</time></trkpt><trkpt lat="43.0306518977375" lon="2.4395495102958655"><ele>566.5</ele><time>2026-03-22T14:48:28Z</time></trkpt><trkpt lat="43.0307169204973" lon="2.4394012681188455"><ele>565.75</ele><time>2026-03-22T14:48:29Z</time></trkpt><trkpt lat="43.03081674695979" lon="2.43921290559311"><ele>565.0</ele><time>2026-03-22T14:48:30Z</time></trkpt><trkpt lat="43.03089906782142" lon="2.4390675023239257"><ele>562.3333333333334</ele><time>2026-03-22T14:48:31Z</time></trkpt><trkpt lat="43.03100288892015" lon="2.438903144019601"><ele>559.6666666666666</ele><time>2026-03-22T14:48:32Z</time></trkpt><trkpt lat="43.03109152057093" lon="2.4387425294101512"><ele>557.0</ele><time>2026-03-22T14:48:33Z</time></trkpt><trkpt lat="43.03118224854037" lon="2.43856892419825"><ele>555.5</ele><time>2026-03-22T14:48:34Z</time></trkpt><trkpt lat="43.03126394269958" lon="2.438413152741635"><ele>554.0</ele><time>2026-03-22T14:48:35Z</time></trkpt><trkpt lat="43.03132740934944" lon="2.4382848128860988"><ele>552.5</ele><time>2026-03-22T14:48:36Z</time></trkpt><trkpt lat="43.0313925165818" lon="2.4381725401569647"><ele>551.0</ele><time>2026-03-22T14:48:37Z</time></trkpt><trkpt lat="43.03145515073731" lon="2.438071715036714"><ele>550.3333333333333</ele><time>2026-03-22T14:48:38Z</time></trkpt><trkpt lat="43.031500487739095" lon="2.4379677219241866"><ele>549.6666666666666</ele><time>2026-03-22T14:48:39Z</time></trkpt><trkpt lat="43.03154793073827" lon="2.437874139265537"><ele>549.0</ele><time>2026-03-22T14:48:40Z</time></trkpt><trkpt lat="43.03160380820068" lon="2.4378072722269835"><ele>548.3333333333334</ele><time>2026-03-22T14:48:41Z</time></trkpt><trkpt lat="43.03167141050243" lon="2.4377401125768197"><ele>547.6666666666667</ele><time>2026-03-22T14:48:42Z</time></trkpt><trkpt lat="43.03174518459014" lon="2.4377079451803403"><ele>547.0</ele><time>2026-03-22T14:48:43Z</time></trkpt><trkpt lat="43.03181654297287" lon="2.4376843850676426"><ele>546.0</ele><time>2026-03-22T14:48:44Z</time></trkpt><trkpt lat="43.031880357952986" lon="2.437648542770212"><ele>545.0</ele><time>2026-03-22T14:48:45Z</time></trkpt><trkpt lat="43.03196755513413" lon="2.437522674554137"><ele>544.0</ele><time>2026-03-22T14:48:47Z</time></trkpt><trkpt lat="43.03199860482766" lon="2.4374307103396022"><ele>543.0</ele><time>2026-03-22T14:48:48Z</time></trkpt><trkpt lat="43.03202330144077" lon="2.4373260038344293"><ele>542.0</ele><time>2026-03-22T14:48:49Z</time></trkpt><trkpt lat="43.0320566618651" lon="2.437160757683526"><ele>540.3333333333333</ele><time>2026-03-22T14:48:50Z</time></trkpt><trkpt lat="43.03210130623363" lon="2.436971094002873"><ele>538.6666666666666</ele><time>2026-03-22T14:48:51Z</time></trkpt><trkpt lat="43.03211671023678" lon="2.4367771714233424"><ele>537.0</ele><time>2026-03-22T14:48:52Z</time></trkpt><trkpt lat="43.032124739325845" lon="2.4365391229690627"><ele>537.0</ele><time>2026-03-22T14:48:53Z</time></trkpt><trkpt lat="43.03212570857202" lon="2.436324492381819"><ele>537.0</ele><time>2026-03-22T14:48:54Z</time></trkpt><trkpt lat="43.03212780725318" lon="2.436138461563622"><ele>537.0</ele><time>2026-03-22T14:48:55Z</time></trkpt><trkpt lat="43.03213468908965" lon="2.4359700280110146"><ele>537.0</ele><time>2026-03-22T14:48:56Z</time></trkpt><trkpt lat="43.03214821692652" lon="2.435804561070112"><ele>536.25</ele><time>2026-03-22T14:48:57Z</time></trkpt><trkpt lat="43.03218505456853" lon="2.4356368121582914"><ele>535.5</ele><time>2026-03-22T14:48:58Z</time></trkpt><trkpt lat="43.032236455642696" lon="2.4354620281918997"><ele>534.75</ele><time>2026-03-22T14:48:59Z</time></trkpt><trkpt lat="43.032272487434355" lon="2.435301270657101"><ele>534.0</ele><time>2026-03-22T14:49:00Z</time></trkpt><trkpt lat="43.03229149659875" lon="2.435112077793167"><ele>533.3333333333334</ele><time>2026-03-22T14:49:01Z</time></trkpt><trkpt lat="43.03228170688349" lon="2.4348675861802844"><ele>532.6666666666667</ele><time>2026-03-22T14:49:02Z</time></trkpt><trkpt lat="43.032263294508425" lon="2.4346242772599567"><ele>532.0</ele><time>2026-03-22T14:49:03Z</time></trkpt><trkpt lat="43.03225977881943" lon="2.4344213518772677"><ele>530.0</ele><time>2026-03-22T14:49:04Z</time></trkpt><trkpt lat="43.03226524479162" lon="2.434221578354522"><ele>528.0</ele><time>2026-03-22T14:49:05Z</time></trkpt><trkpt lat="43.032262003222186" lon="2.434023114687206"><ele>526.0</ele><time>2026-03-22T14:49:06Z</time></trkpt><trkpt lat="43.032245972929395" lon="2.4338051283593676"><ele>524.0</ele><time>2026-03-22T14:49:07Z</time></trkpt><trkpt lat="43.03220739468827" lon="2.433588836078026"><ele>522.0</ele><time>2026-03-22T14:49:08Z</time></trkpt><trkpt lat="43.032187730834266" lon="2.433394422997146"><ele>520.0</ele><time>2026-03-22T14:49:09Z</time></trkpt><trkpt lat="43.03216898775234" lon="2.433215598492311"><ele>518.0</ele><time>2026-03-22T14:49:10Z</time></trkpt><trkpt lat="43.03215621544341" lon="2.433059108649866"><ele>518.1999999999999</ele><time>2026-03-22T14:49:11Z</time></trkpt><trkpt lat="43.032156115840806" lon="2.432901045088098"><ele>518.4</ele><time>2026-03-22T14:49:12Z</time></trkpt><trkpt lat="43.03217649686136" lon="2.4327498713007594"><ele>518.5999999999999</ele><time>2026-03-22T14:49:13Z</time></trkpt><trkpt lat="43.03221078935936" lon="2.432625664855953"><ele>518.8</ele><time>2026-03-22T14:49:14Z</time></trkpt><trkpt lat="43.032265136407396" lon="2.4325498745548426"><ele>519.0</ele><time>2026-03-22T14:49:15Z</time></trkpt><trkpt lat="43.032341950924355" lon="2.4324856388818077"><ele>519.0</ele><time>2026-03-22T14:49:16Z</time></trkpt><trkpt lat="43.03244629452746" lon="2.4324235140914503"><ele>519.0</ele><time>2026-03-22T14:49:17Z</time></trkpt><trkpt lat="43.03251934370084" lon="2.4323357825839986"><ele>519.0</ele><time>2026-03-22T14:49:18Z</time></trkpt><trkpt lat="43.032543145489235" lon="2.4321883892606615"><ele>519.0</ele><time>2026-03-22T14:49:19Z</time></trkpt><trkpt lat="43.03253075427134" lon="2.432034983899737"><ele>519.0</ele><time>2026-03-22T14:49:20Z</time></trkpt><trkpt lat="43.03253383761046" lon="2.4318318789838167"><ele>517.75</ele><time>2026-03-22T14:49:21Z</time></trkpt><trkpt lat="43.032540412830656" lon="2.431641946352529"><ele>516.5</ele><time>2026-03-22T14:49:22Z</time></trkpt><trkpt lat="43.03254097828509" lon="2.431467631083572"><ele>515.25</ele><time>2026-03-22T14:49:23Z</time></trkpt><trkpt lat="43.03254745085552" lon="2.431277376428736"><ele>514.0</ele><time>2026-03-22T14:49:24Z</time></trkpt><trkpt lat="43.03253094928316" lon="2.4310734358060655"><ele>512.0</ele><time>2026-03-22T14:49:24.999Z</time></trkpt><trkpt lat="43.03253953312244" lon="2.4308708284990876"><ele>510.0</ele><time>2026-03-22T14:49:25.999Z</time></trkpt><trkpt lat="43.032496383691736" lon="2.4306807628918"><ele>508.0</ele><time>2026-03-22T14:49:26.999Z</time></trkpt><trkpt lat="43.03248628883148" lon="2.43047609267052"><ele>506.0</ele><time>2026-03-22T14:49:27.999Z</time></trkpt><trkpt lat="43.03245481439281" lon="2.430259772402283"><ele>505.5</ele><time>2026-03-22T14:49:28.999Z</time></trkpt><trkpt lat="43.03242500485842" lon="2.430062009568344"><ele>505.0</ele><time>2026-03-22T14:49:29.999Z</time></trkpt><trkpt lat="43.032403911152485" lon="2.4298664447064375"><ele>504.5</ele><time>2026-03-22T14:49:30.999Z</time></trkpt><trkpt lat="43.0323771653877" lon="2.429672453804693"><ele>504.0</ele><time>2026-03-22T14:49:31.999Z</time></trkpt><trkpt lat="43.03234554038083" lon="2.4294543374208937"><ele>502.0</ele><time>2026-03-22T14:49:32.999Z</time></trkpt><trkpt lat="43.03231342316408" lon="2.429236236345847"><ele>500.0</ele><time>2026-03-22T14:49:33.999Z</time></trkpt><trkpt lat="43.03228682924624" lon="2.4290128723290554"><ele>498.0</ele><time>2026-03-22T14:49:34.999Z</time></trkpt><trkpt lat="43.03226883710232" lon="2.4287824585362436"><ele>496.33333333333337</ele><time>2026-03-22T14:49:35.999Z</time></trkpt><trkpt lat="43.032267450555665" lon="2.4285472537204575"><ele>494.6666666666667</ele><time>2026-03-22T14:49:36.999Z</time></trkpt><trkpt lat="43.03226973763213" lon="2.428331586258642"><ele>493.0</ele><time>2026-03-22T14:49:37.999Z</time></trkpt><trkpt lat="43.03227452566836" lon="2.428131359080727"><ele>491.5</ele><time>2026-03-22T14:49:38.999Z</time></trkpt><trkpt lat="43.03226757743495" lon="2.4279334041092246"><ele>490.0</ele><time>2026-03-22T14:49:39.999Z</time></trkpt><trkpt lat="43.03225423878987" lon="2.4277461914508773"><ele>488.5</ele><time>2026-03-22T14:49:40.999Z</time></trkpt><trkpt lat="43.03222407798043" lon="2.427561229948727"><ele>487.0</ele><time>2026-03-22T14:49:42Z</time></trkpt><trkpt lat="43.03218926930676" lon="2.4273795536505274"><ele>487.0</ele><time>2026-03-22T14:49:43Z</time></trkpt><trkpt lat="43.032161628166925" lon="2.427208637852292"><ele>487.0</ele><time>2026-03-22T14:49:44Z</time></trkpt><trkpt lat="43.03213385243003" lon="2.4270399416385016"><ele>487.0</ele><time>2026-03-22T14:49:45Z</time></trkpt><trkpt lat="43.03210809758705" lon="2.426870529459463"><ele>487.0</ele><time>2026-03-22T14:49:46Z</time></trkpt><trkpt lat="43.032093707771" lon="2.426686492953565"><ele>486.33333333333337</ele><time>2026-03-22T14:49:47Z</time></trkpt><trkpt lat="43.03210816004738" lon="2.4264602754297298"><ele>485.66666666666663</ele><time>2026-03-22T14:49:48Z</time></trkpt><trkpt lat="43.032141638339354" lon="2.4262478295456305"><ele>485.0</ele><time>2026-03-22T14:49:49Z</time></trkpt><trkpt lat="43.03215993154456" lon="2.4260236962828787"><ele>485.0</ele><time>2026-03-22T14:49:50Z</time></trkpt><trkpt lat="43.03214557289692" lon="2.425776786129893"><ele>485.0</ele><time>2026-03-22T14:49:51Z</time></trkpt><trkpt lat="43.03213343269442" lon="2.4255450446965043"><ele>485.0</ele><time>2026-03-22T14:49:52Z</time></trkpt><trkpt lat="43.03213753654601" lon="2.4253409429957866"><ele>485.5</ele><time>2026-03-22T14:49:53Z</time></trkpt><trkpt lat="43.03213691747269" lon="2.4251703835246397"><ele>486.0</ele><time>2026-03-22T14:49:54Z</time></trkpt><trkpt lat="43.03213623042935" lon="2.425015416548944"><ele>486.5</ele><time>2026-03-22T14:49:55Z</time></trkpt><trkpt lat="43.032140055380566" lon="2.42486436053154"><ele>487.0</ele><time>2026-03-22T14:49:56Z</time></trkpt><trkpt lat="43.03214753043111" lon="2.424721838917484"><ele>486.75</ele><time>2026-03-22T14:49:57Z</time></trkpt><trkpt lat="43.0322340410228" lon="2.424586603718063"><ele>486.5</ele><time>2026-03-22T14:49:58Z</time></trkpt><trkpt lat="43.032306264609495" lon="2.424460065170101"><ele>486.25</ele><time>2026-03-22T14:49:59Z</time></trkpt><trkpt lat="43.03233379289703" lon="2.4243290083391527"><ele>486.0</ele><time>2026-03-22T14:50:00Z</time></trkpt><trkpt lat="43.03235258011751" lon="2.424170250040769"><ele>486.0</ele><time>2026-03-22T14:50:01Z</time></trkpt><trkpt lat="43.032321113838826" lon="2.423954371159503"><ele>486.0</ele><time>2026-03-22T14:50:02Z</time></trkpt><trkpt lat="43.03228855900278" lon="2.423714499623716"><ele>486.0</ele><time>2026-03-22T14:50:03Z</time></trkpt><trkpt lat="43.03226433844567" lon="2.4234747045096903"><ele>483.66666666666663</ele><time>2026-03-22T14:50:04Z</time></trkpt><trkpt lat="43.032247657330245" lon="2.423246806826591"><ele>481.3333333333333</ele><time>2026-03-22T14:50:05Z</time></trkpt><trkpt lat="43.03220969112061" lon="2.4230440557777544"><ele>479.0</ele><time>2026-03-22T14:50:06Z</time></trkpt><trkpt lat="43.032179614686996" lon="2.4228399006677406"><ele>476.3333333333333</ele><time>2026-03-22T14:50:07Z</time></trkpt><trkpt lat="43.032145772113374" lon="2.4226164687396685"><ele>473.66666666666663</ele><time>2026-03-22T14:50:08Z</time></trkpt><trkpt lat="43.03212447744331" lon="2.422366927555293"><ele>471.0</ele><time>2026-03-22T14:50:09Z</time></trkpt><trkpt lat="43.03206956830786" lon="2.4220902325988254"><ele>467.66666666666663</ele><time>2026-03-22T14:50:10Z</time></trkpt><trkpt lat="43.03201083547836" lon="2.4218031153563997"><ele>464.3333333333333</ele><time>2026-03-22T14:50:11Z</time></trkpt><trkpt lat="43.03195600949708" lon="2.42153246377429"><ele>461.0</ele><time>2026-03-22T14:50:12Z</time></trkpt><trkpt lat="43.03192403174478" lon="2.421284619885374"><ele>459.66666666666663</ele><time>2026-03-22T14:50:13Z</time></trkpt><trkpt lat="43.03187987794665" lon="2.421051903607088"><ele>458.33333333333337</ele><time>2026-03-22T14:50:14Z</time></trkpt><trkpt lat="43.03184495568422" lon="2.4208471992126563"><ele>457.0</ele><time>2026-03-22T14:50:15Z</time></trkpt><trkpt lat="43.031803472206335" lon="2.4206548191050827"><ele>456.75</ele><time>2026-03-22T14:50:16Z</time></trkpt><trkpt lat="43.0317617038004" lon="2.420477877929146"><ele>456.5</ele><time>2026-03-22T14:50:17Z</time></trkpt><trkpt lat="43.03171574223396" lon="2.4203123051441486"><ele>456.25</ele><time>2026-03-22T14:50:18Z</time></trkpt><trkpt lat="43.03166129348598" lon="2.420163863089383"><ele>456.0</ele><time>2026-03-22T14:50:19Z</time></trkpt><trkpt lat="43.03160252607265" lon="2.420024153077314"><ele>460.0</ele><time>2026-03-22T14:50:20Z</time></trkpt><trkpt lat="43.03154723192248" lon="2.4198913230957664"><ele>464.0</ele><time>2026-03-22T14:50:21Z</time></trkpt><trkpt lat="43.031520466592056" lon="2.419739078598061"><ele>468.0</ele><time>2026-03-22T14:50:22Z</time></trkpt><trkpt lat="43.03150174484371" lon="2.4195650177733987"><ele>472.0</ele><time>2026-03-22T14:50:23Z</time></trkpt><trkpt lat="43.03150077932993" lon="2.4193940470094746"><ele>472.00000000000006</ele><time>2026-03-22T14:50:24Z</time></trkpt><trkpt lat="43.03152036828473" lon="2.419248155743466"><ele>472.0</ele><time>2026-03-22T14:50:25Z</time></trkpt><trkpt lat="43.031527300842846" lon="2.4191115765484548"><ele>472.0</ele><time>2026-03-22T14:50:26Z</time></trkpt><trkpt lat="43.03153015138413" lon="2.419008553317615"><ele>472.0</ele><time>2026-03-22T14:50:27Z</time></trkpt><trkpt lat="43.031516803840724" lon="2.4189230411300278"><ele>472.00000000000006</ele><time>2026-03-22T14:50:28Z</time></trkpt><trkpt lat="43.03146560146861" lon="2.418859064762362"><ele>472.0</ele><time>2026-03-22T14:50:29Z</time></trkpt><trkpt lat="43.03139502598451" lon="2.418823581577178"><ele>469.0</ele><time>2026-03-22T14:50:30Z</time></trkpt><trkpt lat="43.031277113347066" lon="2.418723264609425"><ele>466.0</ele><time>2026-03-22T14:50:32Z</time></trkpt><trkpt lat="43.031205107116925" lon="2.4186192319997013"><ele>463.0</ele><time>2026-03-22T14:50:33Z</time></trkpt><trkpt lat="43.031130877642525" lon="2.4184762129664894"><ele>460.0</ele><time>2026-03-22T14:50:34Z</time></trkpt><trkpt lat="43.03106983504879" lon="2.4182453186062793"><ele>460.0</ele><time>2026-03-22T14:50:35Z</time></trkpt><trkpt lat="43.031032499409605" lon="2.41807544580804"><ele>460.0</ele><time>2026-03-22T14:50:36Z</time></trkpt><trkpt lat="43.03099423962165" lon="2.417912805337463"><ele>460.0</ele><time>2026-03-22T14:50:37Z</time></trkpt><trkpt lat="43.03097579906727" lon="2.417718382508117"><ele>460.0</ele><time>2026-03-22T14:50:38Z</time></trkpt><trkpt lat="43.03095581609998" lon="2.4174962762087286"><ele>456.0</ele><time>2026-03-22T14:50:39Z</time></trkpt><trkpt lat="43.03092747921271" lon="2.417307474041703"><ele>452.0</ele><time>2026-03-22T14:50:40Z</time></trkpt><trkpt lat="43.030877303222034" lon="2.4171172822291505"><ele>448.0</ele><time>2026-03-22T14:50:41Z</time></trkpt><trkpt lat="43.03081534382347" lon="2.416925131195779"><ele>444.0</ele><time>2026-03-22T14:50:42Z</time></trkpt><trkpt lat="43.03075371141687" lon="2.4167573536325833"><ele>442.5</ele><time>2026-03-22T14:50:43Z</time></trkpt><trkpt lat="43.030698540636436" lon="2.4165906303308504"><ele>441.0</ele><time>2026-03-22T14:50:44Z</time></trkpt><trkpt lat="43.030650506730716" lon="2.41643663503883"><ele>439.5</ele><time>2026-03-22T14:50:45Z</time></trkpt><trkpt lat="43.03059815978631" lon="2.416299694827776"><ele>438.0</ele><time>2026-03-22T14:50:46Z</time></trkpt><trkpt lat="43.030552305815185" lon="2.4161534232674824"><ele>437.4</ele><time>2026-03-22T14:50:47Z</time></trkpt><trkpt lat="43.03051082596154" lon="2.4160021693135336"><ele>436.79999999999995</ele><time>2026-03-22T14:50:48Z</time></trkpt><trkpt lat="43.03047214175485" lon="2.4158788227685464"><ele>436.2</ele><time>2026-03-22T14:50:49Z</time></trkpt><trkpt lat="43.03043794278935" lon="2.415773704935446"><ele>435.6</ele><time>2026-03-22T14:50:50Z</time></trkpt><trkpt lat="43.030404800289915" lon="2.4156755131738468"><ele>435.0</ele><time>2026-03-22T14:50:51Z</time></trkpt><trkpt lat="43.03035459034446" lon="2.4155395852116626"><ele>437.75</ele><time>2026-03-22T14:50:52Z</time></trkpt><trkpt lat="43.0302969843547" lon="2.4153710256521803"><ele>440.5</ele><time>2026-03-22T14:50:53Z</time></trkpt><trkpt lat="43.03022464072963" lon="2.4151806004384273"><ele>443.25</ele><time>2026-03-22T14:50:54Z</time></trkpt><trkpt lat="43.030172743982696" lon="2.4150191914495407"><ele>446.0</ele><time>2026-03-22T14:50:55Z</time></trkpt><trkpt lat="43.030108522981344" lon="2.4148351183960335"><ele>446.3333333333333</ele><time>2026-03-22T14:50:56Z</time></trkpt><trkpt lat="43.03005184775013" lon="2.414626263541614"><ele>446.66666666666663</ele><time>2026-03-22T14:50:57Z</time></trkpt><trkpt lat="43.030005045834315" lon="2.414401994248395"><ele>447.0</ele><time>2026-03-22T14:50:58Z</time></trkpt><trkpt lat="43.02992040577078" lon="2.4141460712813907"><ele>457.66666666666663</ele><time>2026-03-22T14:50:59Z</time></trkpt><trkpt lat="43.029830685897196" lon="2.413897092364601"><ele>468.3333333333333</ele><time>2026-03-22T14:51:00Z</time></trkpt><trkpt lat="43.029728746286246" lon="2.4136636924426527"><ele>479.0</ele><time>2026-03-22T14:51:01Z</time></trkpt><trkpt lat="43.02965983779566" lon="2.4134368319708877"><ele>479.0</ele><time>2026-03-22T14:51:02Z</time></trkpt><trkpt lat="43.0295798823295" lon="2.413247640860968"><ele>479.0</ele><time>2026-03-22T14:51:03Z</time></trkpt><trkpt lat="43.02953617320733" lon="2.4130757166390464"><ele>479.0</ele><time>2026-03-22T14:51:04Z</time></trkpt><trkpt lat="43.029471224225084" lon="2.4129003059155973"><ele>479.0</ele><time>2026-03-22T14:51:05Z</time></trkpt><trkpt lat="43.02942296141687" lon="2.4127240783358337"><ele>476.75</ele><time>2026-03-22T14:51:06Z</time></trkpt><trkpt lat="43.029377756386246" lon="2.4125457803345856"><ele>474.5</ele><time>2026-03-22T14:51:07Z</time></trkpt><trkpt lat="43.029328099987865" lon="2.4123571703081845"><ele>472.25</ele><time>2026-03-22T14:51:08Z</time></trkpt><trkpt lat="43.02927999327446" lon="2.412167252063099"><ele>470.0</ele><time>2026-03-22T14:51:09Z</time></trkpt><trkpt lat="43.02921296019699" lon="2.411942955425493"><ele>481.3333333333333</ele><time>2026-03-22T14:51:10Z</time></trkpt><trkpt lat="43.02913392981529" lon="2.4117598324747496"><ele>492.66666666666663</ele><time>2026-03-22T14:51:11Z</time></trkpt><trkpt lat="43.029050445668425" lon="2.4115832061671747"><ele>504.0</ele><time>2026-03-22T14:51:12Z</time></trkpt><trkpt lat="43.0289463197647" lon="2.4113977217917038"><ele>496.66666666666663</ele><time>2026-03-22T14:51:13Z</time></trkpt><trkpt lat="43.02883961548777" lon="2.4112268918653847"><ele>489.3333333333333</ele><time>2026-03-22T14:51:14Z</time></trkpt><trkpt lat="43.02874072490911" lon="2.411053116043417"><ele>482.0</ele><time>2026-03-22T14:51:15Z</time></trkpt><trkpt lat="43.028625477449424" lon="2.410914297706054"><ele>482.0</ele><time>2026-03-22T14:51:16Z</time></trkpt><trkpt lat="43.02851664351783" lon="2.4107703162824325"><ele>482.0</ele><time>2026-03-22T14:51:17Z</time></trkpt><trkpt lat="43.02841617562397" lon="2.410651114103102"><ele>482.0</ele><time>2026-03-22T14:51:18Z</time></trkpt><trkpt lat="43.028321594669116" lon="2.4105488508880493"><ele>482.0</ele><time>2026-03-22T14:51:19Z</time></trkpt><trkpt lat="43.028239440373625" lon="2.4104296647710433"><ele>483.0</ele><time>2026-03-22T14:51:20Z</time></trkpt><trkpt lat="43.02816275259618" lon="2.4103204735924924"><ele>484.0</ele><time>2026-03-22T14:51:21Z</time></trkpt><trkpt lat="43.028057689680494" lon="2.410238515481749"><ele>485.0</ele><time>2026-03-22T14:51:22Z</time></trkpt><trkpt lat="43.027948637863524" lon="2.410146709243358"><ele>486.0</ele><time>2026-03-22T14:51:23Z</time></trkpt><trkpt lat="43.02782222661755" lon="2.4100840269698702"><ele>486.0</ele><time>2026-03-22T14:51:24Z</time></trkpt><trkpt lat="43.027701346779324" lon="2.4100632016455563"><ele>486.0</ele><time>2026-03-22T14:51:25Z</time></trkpt><trkpt lat="43.02757245283785" lon="2.410063996347688"><ele>486.0</ele><time>2026-03-22T14:51:26Z</time></trkpt><trkpt lat="43.027419900086805" lon="2.410109522140023"><ele>486.0</ele><time>2026-03-22T14:51:27Z</time></trkpt><trkpt lat="43.02725747126848" lon="2.4101788736736567"><ele>488.25</ele><time>2026-03-22T14:51:28Z</time></trkpt><trkpt lat="43.02712488675194" lon="2.410233407519113"><ele>490.5</ele><time>2026-03-22T14:51:28.999Z</time></trkpt><trkpt lat="43.02701812250521" lon="2.410279673252625"><ele>492.75</ele><time>2026-03-22T14:51:29.999Z</time></trkpt><trkpt lat="43.02688380400438" lon="2.410395237985828"><ele>495.0</ele><time>2026-03-22T14:51:30.999Z</time></trkpt><trkpt lat="43.02676038221887" lon="2.410541037691778"><ele>495.8</ele><time>2026-03-22T14:51:31.999Z</time></trkpt><trkpt lat="43.026651571804926" lon="2.4106399273594015"><ele>496.6</ele><time>2026-03-22T14:51:32.999Z</time></trkpt><trkpt lat="43.02655379239303" lon="2.4107035519316775"><ele>497.4</ele><time>2026-03-22T14:51:33.999Z</time></trkpt><trkpt lat="43.026467925594524" lon="2.41074979116603"><ele>498.2</ele><time>2026-03-22T14:51:34.999Z</time></trkpt><trkpt lat="43.02639173572902" lon="2.4107653683615387"><ele>499.0</ele><time>2026-03-22T14:51:35.999Z</time></trkpt><trkpt lat="43.02630821923255" lon="2.4107688026217664"><ele>501.2</ele><time>2026-03-22T14:51:36.999Z</time></trkpt><trkpt lat="43.02622915008741" lon="2.4107635028057595"><ele>503.4</ele><time>2026-03-22T14:51:37.999Z</time></trkpt><trkpt lat="43.026134281053096" lon="2.4107488284137153"><ele>505.6</ele><time>2026-03-22T14:51:39.999Z</time></trkpt><trkpt lat="43.02606885475271" lon="2.4105993876104526"><ele>507.8</ele><time>2026-03-22T14:51:41.999Z</time></trkpt><trkpt lat="43.02609079689882" lon="2.410498565174038"><ele>510.0</ele><time>2026-03-22T14:51:42.999Z</time></trkpt><trkpt lat="43.026128145379055" lon="2.4104021536202174"><ele>512.25</ele><time>2026-03-22T14:51:43.999Z</time></trkpt><trkpt lat="43.02619824717714" lon="2.4102929594624327"><ele>514.5</ele><time>2026-03-22T14:51:44.999Z</time></trkpt><trkpt lat="43.02628003641809" lon="2.41018194973573"><ele>516.75</ele><time>2026-03-22T14:51:45.999Z</time></trkpt><trkpt lat="43.02640634917859" lon="2.410011319597145"><ele>519.0</ele><time>2026-03-22T14:51:46.999Z</time></trkpt><trkpt lat="43.02649944550071" lon="2.409786379573441"><ele>519.25</ele><time>2026-03-22T14:51:48Z</time></trkpt><trkpt lat="43.02659294960962" lon="2.4096080968471942"><ele>519.5</ele><time>2026-03-22T14:51:49Z</time></trkpt><trkpt lat="43.02667441519436" lon="2.4094925003765586"><ele>519.75</ele><time>2026-03-22T14:51:50Z</time></trkpt><trkpt lat="43.026737626521076" lon="2.409376045742412"><ele>520.0</ele><time>2026-03-22T14:51:51Z</time></trkpt><trkpt lat="43.026787091635725" lon="2.4093159267907427"><ele>520.0</ele><time>2026-03-22T14:51:52Z</time></trkpt><trkpt lat="43.0268764992761" lon="2.409304702111962"><ele>520.0</ele><time>2026-03-22T14:51:53Z</time></trkpt><trkpt lat="43.02697401985772" lon="2.409306802402531"><ele>520.0</ele><time>2026-03-22T14:51:54Z</time></trkpt><trkpt lat="43.02707660860849" lon="2.409356773676671"><ele>520.0</ele><time>2026-03-22T14:51:55Z</time></trkpt><trkpt lat="43.02717081569211" lon="2.4093117429298037"><ele>520.0</ele><time>2026-03-22T14:51:56Z</time></trkpt><trkpt lat="43.02728424141312" lon="2.4092234247788324"><ele>520.0</ele><time>2026-03-22T14:51:57Z</time></trkpt><trkpt lat="43.027405737120425" lon="2.4091502495510264"><ele>520.0</ele><time>2026-03-22T14:51:58Z</time></trkpt><trkpt lat="43.02750065401787" lon="2.409076362268042"><ele>520.0</ele><time>2026-03-22T14:51:59Z</time></trkpt><trkpt lat="43.02760535714286" lon="2.4090009825713103"><ele>520.0</ele><time>2026-03-22T14:52:00Z</time></trkpt><trkpt lat="43.027742050346774" lon="2.408946641821046"><ele>516.5</ele><time>2026-03-22T14:52:01Z</time></trkpt><trkpt lat="43.02788142862955" lon="2.408935066465484"><ele>513.0</ele><time>2026-03-22T14:52:02Z</time></trkpt><trkpt lat="43.02798843856111" lon="2.4089178769916693"><ele>509.5</ele><time>2026-03-22T14:52:03Z</time></trkpt><trkpt lat="43.02808122943366" lon="2.408864412403856"><ele>506.0</ele><time>2026-03-22T14:52:04Z</time></trkpt><trkpt lat="43.02814921537107" lon="2.408741993946188"><ele>505.20000000000005</ele><time>2026-03-22T14:52:05Z</time></trkpt><trkpt lat="43.02821390357461" lon="2.4086997476152647"><ele>504.40000000000003</ele><time>2026-03-22T14:52:06Z</time></trkpt><trkpt lat="43.02827418485103" lon="2.4086698074481547"><ele>503.6</ele><time>2026-03-22T14:52:07Z</time></trkpt><trkpt lat="43.02835912136452" lon="2.4086872039467835"><ele>502.8</ele><time>2026-03-22T14:52:08Z</time></trkpt><trkpt lat="43.02840008063321" lon="2.4088649005740805"><ele>502.0</ele><time>2026-03-22T14:52:09Z</time></trkpt><trkpt lat="43.02850244901365" lon="2.4089458509155652"><ele>502.0</ele><time>2026-03-22T14:52:10Z</time></trkpt><trkpt lat="43.02863435077307" lon="2.409005768459462"><ele>502.0</ele><time>2026-03-22T14:52:11Z</time></trkpt><trkpt lat="43.028753729732045" lon="2.409103521806316"><ele>502.0</ele><time>2026-03-22T14:52:12Z</time></trkpt><trkpt lat="43.02885543546124" lon="2.4091343676185466"><ele>502.0</ele><time>2026-03-22T14:52:13Z</time></trkpt><trkpt lat="43.02893784060554" lon="2.409164703203163"><ele>502.0</ele><time>2026-03-22T14:52:14Z</time></trkpt><trkpt lat="43.02901161550792" lon="2.409145657233097"><ele>502.00000000000006</ele><time>2026-03-22T14:52:15Z</time></trkpt><trkpt lat="43.02907845657902" lon="2.4090717268318476"><ele>502.00000000000006</ele><time>2026-03-22T14:52:16Z</time></trkpt><trkpt lat="43.02914245230368" lon="2.4089807696984677"><ele>502.0</ele><time>2026-03-22T14:52:17Z</time></trkpt><trkpt lat="43.02919628296212" lon="2.408874860701621"><ele>502.0</ele><time>2026-03-22T14:52:18Z</time></trkpt><trkpt lat="43.02925073948474" lon="2.4087543702376224"><ele>510.0</ele><time>2026-03-22T14:52:19Z</time></trkpt><trkpt lat="43.029307769602624" lon="2.4086202103921384"><ele>518.0</ele><time>2026-03-22T14:52:20Z</time></trkpt><trkpt lat="43.029365267937756" lon="2.40847330796756"><ele>526.0</ele><time>2026-03-22T14:52:21Z</time></trkpt><trkpt lat="43.0294176125029" lon="2.4083233184835215"><ele>534.0</ele><time>2026-03-22T14:52:22Z</time></trkpt><trkpt lat="43.02946014234054" lon="2.408181741718341"><ele>534.0</ele><time>2026-03-22T14:52:23Z</time></trkpt><trkpt lat="43.029504594022306" lon="2.408051314768022"><ele>534.0</ele><time>2026-03-22T14:52:24Z</time></trkpt><trkpt lat="43.02952139407778" lon="2.407907885456522"><ele>534.0</ele><time>2026-03-22T14:52:25Z</time></trkpt><trkpt lat="43.02954729605342" lon="2.4077691613153367"><ele>534.0</ele><time>2026-03-22T14:52:26Z</time></trkpt><trkpt lat="43.02954310468432" lon="2.407654611854753"><ele>534.0</ele><time>2026-03-22T14:52:27Z</time></trkpt><trkpt lat="43.02954235625214" lon="2.407546445200143"><ele>538.2</ele><time>2026-03-22T14:52:28Z</time></trkpt><trkpt lat="43.029561073299995" lon="2.407459530574689"><ele>542.4</ele><time>2026-03-22T14:52:29Z</time></trkpt><trkpt lat="43.02962911958602" lon="2.4073211524202716"><ele>546.6</ele><time>2026-03-22T14:52:31Z</time></trkpt><trkpt lat="43.0297162203185" lon="2.4073433859888413"><ele>550.8</ele><time>2026-03-22T14:52:32Z</time></trkpt><trkpt lat="43.02977273898119" lon="2.4074813592673454"><ele>555.0</ele><time>2026-03-22T14:52:33Z</time></trkpt><trkpt lat="43.02982933614664" lon="2.407564331234509"><ele>555.0</ele><time>2026-03-22T14:52:34Z</time></trkpt><trkpt lat="43.02992274226803" lon="2.4076910947417076"><ele>555.0</ele><time>2026-03-22T14:52:35Z</time></trkpt><trkpt lat="43.03005745406019" lon="2.407871435772359"><ele>555.0</ele><time>2026-03-22T14:52:36Z</time></trkpt><trkpt lat="43.030158451370596" lon="2.408010576991764"><ele>547.2</ele><time>2026-03-22T14:52:37Z</time></trkpt><trkpt lat="43.0302155279877" lon="2.408130611514249"><ele>539.4</ele><time>2026-03-22T14:52:38Z</time></trkpt><trkpt lat="43.03027074938079" lon="2.4082549495992156"><ele>531.6</ele><time>2026-03-22T14:52:39Z</time></trkpt><trkpt lat="43.03032519855931" lon="2.408359648025426"><ele>523.8</ele><time>2026-03-22T14:52:40Z</time></trkpt><trkpt lat="43.03038088598468" lon="2.408439220046522"><ele>516.0</ele><time>2026-03-22T14:52:41Z</time></trkpt><trkpt lat="43.03045623664541" lon="2.40846653137644"><ele>516.0</ele><time>2026-03-22T14:52:42Z</time></trkpt><trkpt lat="43.03053686981019" lon="2.4084825426927416"><ele>516.0</ele><time>2026-03-22T14:52:43Z</time></trkpt><trkpt lat="43.030626324870425" lon="2.4084297667295824"><ele>516.0</ele><time>2026-03-22T14:52:44Z</time></trkpt><trkpt lat="43.03073014308428" lon="2.4083743148064802"><ele>516.0</ele><time>2026-03-22T14:52:45Z</time></trkpt><trkpt lat="43.03081792651864" lon="2.4083025282419492"><ele>516.0</ele><time>2026-03-22T14:52:46Z</time></trkpt><trkpt lat="43.03090257827267" lon="2.408254778602783"><ele>517.0</ele><time>2026-03-22T14:52:47Z</time></trkpt><trkpt lat="43.03099147900631" lon="2.408179395307368"><ele>518.0</ele><time>2026-03-22T14:52:48Z</time></trkpt><trkpt lat="43.03105165130283" lon="2.408099367488457"><ele>519.0</ele><time>2026-03-22T14:52:49Z</time></trkpt><trkpt lat="43.03114200451562" lon="2.4080133226536398"><ele>520.0</ele><time>2026-03-22T14:52:51Z</time></trkpt><trkpt lat="43.03119969188956" lon="2.407934507560474"><ele>521.0</ele><time>2026-03-22T14:52:52Z</time></trkpt><trkpt lat="43.0312743107448" lon="2.407783077297982"><ele>523.0</ele><time>2026-03-22T14:52:53Z</time></trkpt><trkpt lat="43.031367407071144" lon="2.407583275651454"><ele>525.0</ele><time>2026-03-22T14:52:54Z</time></trkpt><trkpt lat="43.03146299978115" lon="2.4073688385272276"><ele>527.0</ele><time>2026-03-22T14:52:55Z</time></trkpt><trkpt lat="43.031550867698684" lon="2.40720476783102"><ele>529.25</ele><time>2026-03-22T14:52:56Z</time></trkpt><trkpt lat="43.031622500656205" lon="2.407036686914665"><ele>531.5</ele><time>2026-03-22T14:52:57Z</time></trkpt><trkpt lat="43.03169679147375" lon="2.406870185948069"><ele>533.75</ele><time>2026-03-22T14:52:58Z</time></trkpt><trkpt lat="43.03175019027586" lon="2.4066893600267285"><ele>536.0</ele><time>2026-03-22T14:52:59Z</time></trkpt><trkpt lat="43.03181358643718" lon="2.406493049719159"><ele>530.0</ele><time>2026-03-22T14:53:00Z</time></trkpt><trkpt lat="43.031886457560724" lon="2.406259131450736"><ele>524.0</ele><time>2026-03-22T14:53:01Z</time></trkpt><trkpt lat="43.03194564607114" lon="2.405960904521302"><ele>518.0</ele><time>2026-03-22T14:53:02Z</time></trkpt><trkpt lat="43.032027042319925" lon="2.4056494180970582"><ele>519.3333333333333</ele><time>2026-03-22T14:53:03Z</time></trkpt><trkpt lat="43.03211152472233" lon="2.405370560190826"><ele>520.6666666666666</ele><time>2026-03-22T14:53:04Z</time></trkpt><trkpt lat="43.03218676010207" lon="2.405122480568334"><ele>522.0</ele><time>2026-03-22T14:53:05Z</time></trkpt><trkpt lat="43.03224259229439" lon="2.4048743747501633"><ele>523.6666666666666</ele><time>2026-03-22T14:53:06Z</time></trkpt><trkpt lat="43.03230980322521" lon="2.4046616600815742"><ele>525.3333333333333</ele><time>2026-03-22T14:53:07Z</time></trkpt><trkpt lat="43.03238835952502" lon="2.404459469264861"><ele>527.0</ele><time>2026-03-22T14:53:08Z</time></trkpt><trkpt lat="43.03244883805034" lon="2.4042688949528555"><ele>521.5</ele><time>2026-03-22T14:53:09Z</time></trkpt><trkpt lat="43.0325015339512" lon="2.4040908860312324"><ele>516.0</ele><time>2026-03-22T14:53:10Z</time></trkpt><trkpt lat="43.03255609894139" lon="2.4039200445141655"><ele>510.5</ele><time>2026-03-22T14:53:11Z</time></trkpt><trkpt lat="43.032622231685124" lon="2.4037638253738174"><ele>505.0</ele><time>2026-03-22T14:53:12Z</time></trkpt><trkpt lat="43.0326652912136" lon="2.4035940224400445"><ele>504.5</ele><time>2026-03-22T14:53:13Z</time></trkpt><trkpt lat="43.03271973901059" lon="2.403398354003525"><ele>504.0</ele><time>2026-03-22T14:53:14Z</time></trkpt><trkpt lat="43.032765088140614" lon="2.4032035950016732"><ele>503.5</ele><time>2026-03-22T14:53:15Z</time></trkpt><trkpt lat="43.03280529378457" lon="2.4030189402970903"><ele>503.0</ele><time>2026-03-22T14:53:16Z</time></trkpt><trkpt lat="43.03284874978323" lon="2.4028476361815554"><ele>503.0</ele><time>2026-03-22T14:53:16.999Z</time></trkpt><trkpt lat="43.032892481934574" lon="2.40268648634781"><ele>503.0</ele><time>2026-03-22T14:53:17.999Z</time></trkpt><trkpt lat="43.032942557223095" lon="2.402507023328984"><ele>503.0</ele><time>2026-03-22T14:53:18.999Z</time></trkpt><trkpt lat="43.032984941936874" lon="2.402301643284725"><ele>503.0</ele><time>2026-03-22T14:53:19.999Z</time></trkpt><trkpt lat="43.03302471051371" lon="2.402085354517748"><ele>503.66666666666663</ele><time>2026-03-22T14:53:20.999Z</time></trkpt><trkpt lat="43.0330563823297" lon="2.4018684653813795"><ele>504.33333333333337</ele><time>2026-03-22T14:53:21.999Z</time></trkpt><trkpt lat="43.033079167231364" lon="2.4016590764239747"><ele>505.0</ele><time>2026-03-22T14:53:22.999Z</time></trkpt><trkpt lat="43.03309026767193" lon="2.4014484522898814"><ele>504.25</ele><time>2026-03-22T14:53:23.999Z</time></trkpt><trkpt lat="43.03309816223735" lon="2.401242718775662"><ele>503.5</ele><time>2026-03-22T14:53:24.999Z</time></trkpt><trkpt lat="43.03309816125365" lon="2.4010474714481878"><ele>502.75</ele><time>2026-03-22T14:53:25.999Z</time></trkpt><trkpt lat="43.03310212874525" lon="2.400867861720106"><ele>502.0</ele><time>2026-03-22T14:53:26.999Z</time></trkpt><trkpt lat="43.03311515103074" lon="2.4006980111339975"><ele>502.0</ele><time>2026-03-22T14:53:27.999Z</time></trkpt><trkpt lat="43.033156219061" lon="2.400531773210101"><ele>502.0</ele><time>2026-03-22T14:53:28.999Z</time></trkpt><trkpt lat="43.03321234992058" lon="2.4003836395049714"><ele>502.0</ele><time>2026-03-22T14:53:29.999Z</time></trkpt><trkpt lat="43.03327265568269" lon="2.400226527747769"><ele>502.0</ele><time>2026-03-22T14:53:30.999Z</time></trkpt><trkpt lat="43.03327775185482" lon="2.4000527784229444"><ele>502.40000000000003</ele><time>2026-03-22T14:53:31.999Z</time></trkpt><trkpt lat="43.0332858413263" lon="2.3999015578961895"><ele>502.80000000000007</ele><time>2026-03-22T14:53:32.999Z</time></trkpt><trkpt lat="43.03328809136469" lon="2.399747756910163"><ele>503.2</ele><time>2026-03-22T14:53:33.999Z</time></trkpt><trkpt lat="43.033260268011674" lon="2.3995913217142864"><ele>503.6</ele><time>2026-03-22T14:53:34.999Z</time></trkpt><trkpt lat="43.033231603896446" lon="2.3994511675921317"><ele>504.0</ele><time>2026-03-22T14:53:35.999Z</time></trkpt><trkpt lat="43.03321983132624" lon="2.399325911427037"><ele>502.79999999999995</ele><time>2026-03-22T14:53:36.999Z</time></trkpt><trkpt lat="43.033250289464746" lon="2.39920718716221"><ele>501.59999999999997</ele><time>2026-03-22T14:53:37.999Z</time></trkpt><trkpt lat="43.03330988141866" lon="2.399100024200846"><ele>500.4</ele><time>2026-03-22T14:53:38.999Z</time></trkpt><trkpt lat="43.03338383011634" lon="2.3990296303890077"><ele>499.2</ele><time>2026-03-22T14:53:39.999Z</time></trkpt><trkpt lat="43.03345217027871" lon="2.3989604299291214"><ele>498.0</ele><time>2026-03-22T14:53:40.999Z</time></trkpt><trkpt lat="43.03347684426545" lon="2.3988181220883353"><ele>491.0</ele><time>2026-03-22T14:53:41.999Z</time></trkpt><trkpt lat="43.03348557720141" lon="2.3986754220235507"><ele>484.0</ele><time>2026-03-22T14:53:42.999Z</time></trkpt><trkpt lat="43.0334749717739" lon="2.3985286611421137"><ele>477.0</ele><time>2026-03-22T14:53:43.999Z</time></trkpt><trkpt lat="43.03343056980407" lon="2.398379891843882"><ele>470.0</ele><time>2026-03-22T14:53:44.999Z</time></trkpt><trkpt lat="43.03336853600557" lon="2.3982299336701147"><ele>473.25</ele><time>2026-03-22T14:53:45.999Z</time></trkpt><trkpt lat="43.03328009955803" lon="2.3980878661574927"><ele>476.5</ele><time>2026-03-22T14:53:46.999Z</time></trkpt><trkpt lat="43.03316819022167" lon="2.397938449443688"><ele>479.75</ele><time>2026-03-22T14:53:47.999Z</time></trkpt><trkpt lat="43.03306355741959" lon="2.3978009613254607"><ele>483.0</ele><time>2026-03-22T14:53:48.999Z</time></trkpt><trkpt lat="43.03297334961243" lon="2.397682863673586"><ele>483.0</ele><time>2026-03-22T14:53:49.999Z</time></trkpt><trkpt lat="43.03288671733526" lon="2.397575675114643"><ele>483.0</ele><time>2026-03-22T14:53:50.999Z</time></trkpt><trkpt lat="43.03280301482467" lon="2.3974568636006524"><ele>483.0</ele><time>2026-03-22T14:53:51.999Z</time></trkpt><trkpt lat="43.03273458625432" lon="2.3973049766927756"><ele>483.0</ele><time>2026-03-22T14:53:52.999Z</time></trkpt><trkpt lat="43.03269708843116" lon="2.397132997592461"><ele>482.5</ele><time>2026-03-22T14:53:54Z</time></trkpt><trkpt lat="43.03265852647618" lon="2.3969698998087545"><ele>482.0</ele><time>2026-03-22T14:53:55Z</time></trkpt><trkpt lat="43.03262500988172" lon="2.3967704793222255"><ele>481.5</ele><time>2026-03-22T14:53:56Z</time></trkpt><trkpt lat="43.03262288311579" lon="2.3965436977979264"><ele>481.0</ele><time>2026-03-22T14:53:57Z</time></trkpt><trkpt lat="43.032615955299676" lon="2.3963574561224834"><ele>481.0</ele><time>2026-03-22T14:53:58Z</time></trkpt><trkpt lat="43.03252645235761" lon="2.3961932920900053"><ele>481.0</ele><time>2026-03-22T14:53:59Z</time></trkpt><trkpt lat="43.03245480121204" lon="2.3960374822774155"><ele>481.0</ele><time>2026-03-22T14:54:00Z</time></trkpt><trkpt lat="43.032400086759814" lon="2.3958933321862577"><ele>481.0</ele><time>2026-03-22T14:54:01Z</time></trkpt><trkpt lat="43.032342114472854" lon="2.395769375822804"><ele>483.0</ele><time>2026-03-22T14:54:02Z</time></trkpt><trkpt lat="43.03228571227959" lon="2.395651845676984"><ele>485.0</ele><time>2026-03-22T14:54:03Z</time></trkpt><trkpt lat="43.03224905576994" lon="2.395481889916838"><ele>487.0</ele><time>2026-03-22T14:54:04Z</time></trkpt><trkpt lat="43.03223362061062" lon="2.395275385784276"><ele>489.0</ele><time>2026-03-22T14:54:05Z</time></trkpt><trkpt lat="43.032234886644936" lon="2.3950796917387933"><ele>489.0</ele><time>2026-03-22T14:54:06Z</time></trkpt><trkpt lat="43.03223351867944" lon="2.3948973999690404"><ele>489.0</ele><time>2026-03-22T14:54:07Z</time></trkpt><trkpt lat="43.03221515585398" lon="2.394706449253588"><ele>489.0</ele><time>2026-03-22T14:54:08Z</time></trkpt><trkpt lat="43.032190925429305" lon="2.3945056417777897"><ele>489.0</ele><time>2026-03-22T14:54:09Z</time></trkpt><trkpt lat="43.03217499997579" lon="2.3943029361358588"><ele>487.5</ele><time>2026-03-22T14:54:10Z</time></trkpt><trkpt lat="43.032178177268776" lon="2.394118245435624"><ele>486.0</ele><time>2026-03-22T14:54:11Z</time></trkpt><trkpt lat="43.032176486115695" lon="2.393925001652949"><ele>484.5</ele><time>2026-03-22T14:54:12Z</time></trkpt><trkpt lat="43.03216295881823" lon="2.3937060911343515"><ele>483.0</ele><time>2026-03-22T14:54:13Z</time></trkpt><trkpt lat="43.03215682458954" lon="2.393502936135879"><ele>480.75</ele><time>2026-03-22T14:54:14Z</time></trkpt><trkpt lat="43.03215468215343" lon="2.393310282107057"><ele>478.5</ele><time>2026-03-22T14:54:15Z</time></trkpt><trkpt lat="43.03217089628504" lon="2.393123264645217"><ele>476.25</ele><time>2026-03-22T14:54:16Z</time></trkpt><trkpt lat="43.03218932803136" lon="2.392946801462657"><ele>474.0</ele><time>2026-03-22T14:54:17Z</time></trkpt><trkpt lat="43.032207312217245" lon="2.3927619209792974"><ele>473.75</ele><time>2026-03-22T14:54:18Z</time></trkpt><trkpt lat="43.03219781602472" lon="2.39257338439521"><ele>473.5</ele><time>2026-03-22T14:54:19Z</time></trkpt><trkpt lat="43.03218010212446" lon="2.392371958814999"><ele>473.25</ele><time>2026-03-22T14:54:20Z</time></trkpt><trkpt lat="43.03214525659149" lon="2.3921719541038593"><ele>473.0</ele><time>2026-03-22T14:54:21Z</time></trkpt><trkpt lat="43.032102909943866" lon="2.391979164919431"><ele>471.0</ele><time>2026-03-22T14:54:22Z</time></trkpt><trkpt lat="43.032061415242" lon="2.3917967404664853"><ele>469.0</ele><time>2026-03-22T14:54:23Z</time></trkpt><trkpt lat="43.032032881358376" lon="2.3915985045714"><ele>467.0</ele><time>2026-03-22T14:54:24Z</time></trkpt><trkpt lat="43.03201464751419" lon="2.39140191111132"><ele>465.0</ele><time>2026-03-22T14:54:25Z</time></trkpt><trkpt lat="43.031995438122266" lon="2.39122080167844"><ele>464.25</ele><time>2026-03-22T14:54:26Z</time></trkpt><trkpt lat="43.03197744013239" lon="2.3910470770469487"><ele>463.5</ele><time>2026-03-22T14:54:27Z</time></trkpt><trkpt lat="43.03198273575318" lon="2.3908711945718615"><ele>462.75</ele><time>2026-03-22T14:54:28Z</time></trkpt><trkpt lat="43.03200238726177" lon="2.390679361581254"><ele>462.0</ele><time>2026-03-22T14:54:29Z</time></trkpt><trkpt lat="43.03202267716754" lon="2.3904768712555513"><ele>461.25</ele><time>2026-03-22T14:54:30Z</time></trkpt><trkpt lat="43.032054989189994" lon="2.390279892679113"><ele>460.5</ele><time>2026-03-22T14:54:31Z</time></trkpt><trkpt lat="43.03207973184836" lon="2.3900860339207153"><ele>459.75</ele><time>2026-03-22T14:54:32Z</time></trkpt><trkpt lat="43.03211313757736" lon="2.3898956766125434"><ele>459.0</ele><time>2026-03-22T14:54:33Z</time></trkpt><trkpt lat="43.03215283019301" lon="2.3897106844244407"><ele>460.5</ele><time>2026-03-22T14:54:34Z</time></trkpt><trkpt lat="43.03218941494575" lon="2.389531783546688"><ele>462.0</ele><time>2026-03-22T14:54:35Z</time></trkpt><trkpt lat="43.03222158494785" lon="2.389358328435139"><ele>463.5</ele><time>2026-03-22T14:54:36Z</time></trkpt><trkpt lat="43.03224616471821" lon="2.389177250427817"><ele>465.0</ele><time>2026-03-22T14:54:37Z</time></trkpt><trkpt lat="43.032274580028854" lon="2.3889903722390358"><ele>462.25</ele><time>2026-03-22T14:54:38Z</time></trkpt><trkpt lat="43.03231959657921" lon="2.3888187529453795"><ele>459.5</ele><time>2026-03-22T14:54:39Z</time></trkpt><trkpt lat="43.03238251061857" lon="2.388661673477018"><ele>456.75</ele><time>2026-03-22T14:54:40Z</time></trkpt><trkpt lat="43.03244661005861" lon="2.3885068542326615"><ele>454.0</ele><time>2026-03-22T14:54:41Z</time></trkpt><trkpt lat="43.032541312213745" lon="2.3883281392339257"><ele>450.0</ele><time>2026-03-22T14:54:42Z</time></trkpt><trkpt lat="43.03265545295532" lon="2.3881674152043684"><ele>446.0</ele><time>2026-03-22T14:54:43Z</time></trkpt><trkpt lat="43.03274543201979" lon="2.388019883853457"><ele>442.0</ele><time>2026-03-22T14:54:44Z</time></trkpt><trkpt lat="43.03282050085949" lon="2.3878654418449066"><ele>438.0</ele><time>2026-03-22T14:54:45Z</time></trkpt><trkpt lat="43.032894665492044" lon="2.387713314955264"><ele>435.5</ele><time>2026-03-22T14:54:46Z</time></trkpt><trkpt lat="43.032953139094204" lon="2.387573888092469"><ele>433.0</ele><time>2026-03-22T14:54:47Z</time></trkpt><trkpt lat="43.03301647492625" lon="2.387440391551545"><ele>430.5</ele><time>2026-03-22T14:54:48Z</time></trkpt><trkpt lat="43.03307565668103" lon="2.3872992695624804"><ele>428.0</ele><time>2026-03-22T14:54:49Z</time></trkpt><trkpt lat="43.03312475813451" lon="2.387153592831176"><ele>428.0</ele><time>2026-03-22T14:54:50Z</time></trkpt><trkpt lat="43.0331640055424" lon="2.38699944977963"><ele>427.99999999999994</ele><time>2026-03-22T14:54:51Z</time></trkpt><trkpt lat="43.03318528025786" lon="2.3868623702556926"><ele>427.99999999999994</ele><time>2026-03-22T14:54:52Z</time></trkpt><trkpt lat="43.03318869546522" lon="2.3867401531196517"><ele>428.0</ele><time>2026-03-22T14:54:53Z</time></trkpt><trkpt lat="43.03317194946912" lon="2.3866150675481204"><ele>428.0</ele><time>2026-03-22T14:54:54Z</time></trkpt><trkpt lat="43.03311550682377" lon="2.386460697927789"><ele>428.5</ele><time>2026-03-22T14:54:55Z</time></trkpt><trkpt lat="43.03307001374181" lon="2.3863021163170828"><ele>429.0</ele><time>2026-03-22T14:54:56Z</time></trkpt><trkpt lat="43.03303299867527" lon="2.386146491439045"><ele>429.5</ele><time>2026-03-22T14:54:57Z</time></trkpt><trkpt lat="43.032980210742856" lon="2.38600196768731"><ele>430.0</ele><time>2026-03-22T14:54:58Z</time></trkpt><trkpt lat="43.032935889551716" lon="2.385859343377909"><ele>430.0</ele><time>2026-03-22T14:54:59Z</time></trkpt><trkpt lat="43.03288140442083" lon="2.3857301663345107"><ele>430.0</ele><time>2026-03-22T14:55:00Z</time></trkpt><trkpt lat="43.03280580529311" lon="2.38562809988329"><ele>430.0</ele><time>2026-03-22T14:55:01Z</time></trkpt><trkpt lat="43.03272269482441" lon="2.385537873492061"><ele>430.0</ele><time>2026-03-22T14:55:02Z</time></trkpt><trkpt lat="43.03268120458619" lon="2.3854506470959804"><ele>430.0</ele><time>2026-03-22T14:55:03Z</time></trkpt><trkpt lat="43.03267194637769" lon="2.385343977371248"><ele>431.4</ele><time>2026-03-22T14:55:04Z</time></trkpt><trkpt lat="43.032659321915" lon="2.385217291806588"><ele>432.8</ele><time>2026-03-22T14:55:05Z</time></trkpt><trkpt lat="43.03269776405364" lon="2.3850677861519047"><ele>434.20000000000005</ele><time>2026-03-22T14:55:06Z</time></trkpt><trkpt lat="43.03275476871245" lon="2.384929112311582"><ele>435.6</ele><time>2026-03-22T14:55:07Z</time></trkpt><trkpt lat="43.03279244276353" lon="2.3848015512573726"><ele>437.0</ele><time>2026-03-22T14:55:08Z</time></trkpt><trkpt lat="43.0328129767845" lon="2.3846833744477296"><ele>440.25</ele><time>2026-03-22T14:55:09Z</time></trkpt><trkpt lat="43.03286725910265" lon="2.3845679408156597"><ele>443.5</ele><time>2026-03-22T14:55:10Z</time></trkpt><trkpt lat="43.03292053925794" lon="2.38444707477302"><ele>446.75</ele><time>2026-03-22T14:55:11Z</time></trkpt><trkpt lat="43.03301002868437" lon="2.38433196312016"><ele>450.0</ele><time>2026-03-22T14:55:12Z</time></trkpt><trkpt lat="43.03311996152732" lon="2.3842307490694594"><ele>450.0</ele><time>2026-03-22T14:55:13Z</time></trkpt><trkpt lat="43.03323027886143" lon="2.3841327476566114"><ele>450.0</ele><time>2026-03-22T14:55:14Z</time></trkpt><trkpt lat="43.03334510282138" lon="2.3839930659484283"><ele>450.0</ele><time>2026-03-22T14:55:15Z</time></trkpt><trkpt lat="43.03344472208642" lon="2.3838513714534093"><ele>450.0</ele><time>2026-03-22T14:55:16Z</time></trkpt><trkpt lat="43.03352775483893" lon="2.383749122153805"><ele>449.2</ele><time>2026-03-22T14:55:17Z</time></trkpt><trkpt lat="43.033642102909006" lon="2.3836578478638866"><ele>448.4</ele><time>2026-03-22T14:55:18Z</time></trkpt><trkpt lat="43.03376594673916" lon="2.383592684652977"><ele>447.6</ele><time>2026-03-22T14:55:19Z</time></trkpt><trkpt lat="43.03385521913387" lon="2.383542687658935"><ele>446.8</ele><time>2026-03-22T14:55:20Z</time></trkpt><trkpt lat="43.03392079077175" lon="2.3834654189727953"><ele>446.0</ele><time>2026-03-22T14:55:21Z</time></trkpt><trkpt lat="43.03395473910532" lon="2.383368559087115"><ele>446.0</ele><time>2026-03-22T14:55:22Z</time></trkpt><trkpt lat="43.03398283946797" lon="2.3832311699643878"><ele>446.0</ele><time>2026-03-22T14:55:23Z</time></trkpt><trkpt lat="43.03402407530027" lon="2.383074907275682"><ele>446.0</ele><time>2026-03-22T14:55:24Z</time></trkpt><trkpt lat="43.03410338991688" lon="2.3829296174359498"><ele>446.0</ele><time>2026-03-22T14:55:24.999Z</time></trkpt><trkpt lat="43.034202851330775" lon="2.382782208775989"><ele>445.5</ele><time>2026-03-22T14:55:25.999Z</time></trkpt><trkpt lat="43.03428354473106" lon="2.3826423652247426"><ele>445.0</ele><time>2026-03-22T14:55:26.999Z</time></trkpt><trkpt lat="43.03437020380911" lon="2.3825026301012"><ele>444.5</ele><time>2026-03-22T14:55:27.999Z</time></trkpt><trkpt lat="43.034433403142266" lon="2.3823481618176237"><ele>444.0</ele><time>2026-03-22T14:55:28.999Z</time></trkpt><trkpt lat="43.034471738893565" lon="2.382170338623723"><ele>444.0</ele><time>2026-03-22T14:55:29.999Z</time></trkpt><trkpt lat="43.034491210992066" lon="2.3819970851518506"><ele>444.0</ele><time>2026-03-22T14:55:30.999Z</time></trkpt><trkpt lat="43.0344927663092" lon="2.381822594715457"><ele>444.0</ele><time>2026-03-22T14:55:31.999Z</time></trkpt><trkpt lat="43.03447786532838" lon="2.381624373897774"><ele>444.0</ele><time>2026-03-22T14:55:32.999Z</time></trkpt><trkpt lat="43.0344464515299" lon="2.381410040958272"><ele>444.5</ele><time>2026-03-22T14:55:33.999Z</time></trkpt><trkpt lat="43.03443513086295" lon="2.381206721069957"><ele>445.0</ele><time>2026-03-22T14:55:34.999Z</time></trkpt><trkpt lat="43.03443040942734" lon="2.3810181879351062"><ele>445.5</ele><time>2026-03-22T14:55:35.999Z</time></trkpt><trkpt lat="43.03443481287126" lon="2.3808561283401106"><ele>446.0</ele><time>2026-03-22T14:55:36.999Z</time></trkpt><trkpt lat="43.03444048475084" lon="2.380693498874632"><ele>446.0</ele><time>2026-03-22T14:55:37.999Z</time></trkpt><trkpt lat="43.03443621372489" lon="2.3805360463989"><ele>446.0</ele><time>2026-03-22T14:55:38.999Z</time></trkpt><trkpt lat="43.034376832342254" lon="2.380387398611177"><ele>446.0</ele><time>2026-03-22T14:55:39.999Z</time></trkpt><trkpt lat="43.034279880598326" lon="2.3802494707416453"><ele>446.0</ele><time>2026-03-22T14:55:40.999Z</time></trkpt><trkpt lat="43.034173801398374" lon="2.3801306311511707"><ele>448.75</ele><time>2026-03-22T14:55:41.999Z</time></trkpt><trkpt lat="43.03408730077112" lon="2.379991585821513"><ele>451.5</ele><time>2026-03-22T14:55:42.999Z</time></trkpt><trkpt lat="43.03403603420563" lon="2.3798117270193173"><ele>454.25</ele><time>2026-03-22T14:55:43.999Z</time></trkpt><trkpt lat="43.03400672119238" lon="2.3796301918961826"><ele>457.0</ele><time>2026-03-22T14:55:44.999Z</time></trkpt><trkpt lat="43.03398622630084" lon="2.3794293010491945"><ele>457.0</ele><time>2026-03-22T14:55:45.999Z</time></trkpt><trkpt lat="43.034000008141" lon="2.3792388486499685"><ele>457.0</ele><time>2026-03-22T14:55:46.999Z</time></trkpt><trkpt lat="43.03401371802946" lon="2.379055479182848"><ele>457.0</ele><time>2026-03-22T14:55:47.999Z</time></trkpt><trkpt lat="43.034028641118525" lon="2.378869785199839"><ele>457.0</ele><time>2026-03-22T14:55:48.999Z</time></trkpt><trkpt lat="43.03405753478313" lon="2.3786794035154277"><ele>457.6666666666667</ele><time>2026-03-22T14:55:49.999Z</time></trkpt><trkpt lat="43.03411417459462" lon="2.378484616106023"><ele>458.33333333333337</ele><time>2026-03-22T14:55:50.999Z</time></trkpt><trkpt lat="43.03419160301114" lon="2.3782665902829008"><ele>459.0</ele><time>2026-03-22T14:55:51.999Z</time></trkpt><trkpt lat="43.03425071872637" lon="2.378039561152718"><ele>460.66666666666663</ele><time>2026-03-22T14:55:52.999Z</time></trkpt><trkpt lat="43.034306657285605" lon="2.377799199692736"><ele>462.3333333333333</ele><time>2026-03-22T14:55:53.999Z</time></trkpt><trkpt lat="43.03435135429868" lon="2.377558308610316"><ele>464.0</ele><time>2026-03-22T14:55:54.999Z</time></trkpt><trkpt lat="43.03438905839043" lon="2.3773468743740747"><ele>464.75</ele><time>2026-03-22T14:55:55.999Z</time></trkpt><trkpt lat="43.03442124682712" lon="2.377159803189351"><ele>465.5</ele><time>2026-03-22T14:55:56.999Z</time></trkpt><trkpt lat="43.03444855922538" lon="2.376980389132128"><ele>466.25</ele><time>2026-03-22T14:55:57.999Z</time></trkpt><trkpt lat="43.03446355129719" lon="2.3768221961120326"><ele>467.0</ele><time>2026-03-22T14:55:58.999Z</time></trkpt><trkpt lat="43.03446748012668" lon="2.3766502007411474"><ele>467.0</ele><time>2026-03-22T14:56:00Z</time></trkpt><trkpt lat="43.03443365153595" lon="2.376457871247035"><ele>467.0</ele><time>2026-03-22T14:56:01Z</time></trkpt><trkpt lat="43.034405656355226" lon="2.376245950025143"><ele>467.0</ele><time>2026-03-22T14:56:02Z</time></trkpt><trkpt lat="43.034349569551644" lon="2.376024628446515"><ele>467.0</ele><time>2026-03-22T14:56:03Z</time></trkpt><trkpt lat="43.03430074518369" lon="2.3758218648310283"><ele>467.0</ele><time>2026-03-22T14:56:04Z</time></trkpt><trkpt lat="43.03425788230426" lon="2.375635543263729"><ele>467.0</ele><time>2026-03-22T14:56:05Z</time></trkpt><trkpt lat="43.03422863554827" lon="2.3754650376809057"><ele>467.0</ele><time>2026-03-22T14:56:06Z</time></trkpt><trkpt lat="43.034191934368764" lon="2.375314491891638"><ele>467.8</ele><time>2026-03-22T14:56:07Z</time></trkpt><trkpt lat="43.034190904494515" lon="2.3751575988530216"><ele>468.6</ele><time>2026-03-22T14:56:08Z</time></trkpt><trkpt lat="43.034206074467775" lon="2.3749761969371073"><ele>469.40000000000003</ele><time>2026-03-22T14:56:09Z</time></trkpt><trkpt lat="43.03422419364136" lon="2.374822824198936"><ele>470.20000000000005</ele><time>2026-03-22T14:56:10Z</time></trkpt><trkpt lat="43.03423302707641" lon="2.3747190081099983"><ele>471.0</ele><time>2026-03-22T14:56:11Z</time></trkpt><trkpt lat="43.03423199146096" lon="2.3745536849158286"><ele>471.0</ele><time>2026-03-22T14:56:13Z</time></trkpt><trkpt lat="43.03417170477372" lon="2.3744933960508803"><ele>471.0</ele><time>2026-03-22T14:56:14Z</time></trkpt><trkpt lat="43.03402935529985" lon="2.374436381716521"><ele>471.0</ele><time>2026-03-22T14:56:16Z</time></trkpt><trkpt lat="43.03392569656517" lon="2.374502858956016"><ele>471.0</ele><time>2026-03-22T14:56:17Z</time></trkpt><trkpt lat="43.03385706764896" lon="2.3745789482045088"><ele>471.0</ele><time>2026-03-22T14:56:18Z</time></trkpt><trkpt lat="43.03376130996496" lon="2.3746186166228065"><ele>472.25</ele><time>2026-03-22T14:56:20Z</time></trkpt><trkpt lat="43.033727288689086" lon="2.374532682839952"><ele>473.5</ele><time>2026-03-22T14:56:21Z</time></trkpt><trkpt lat="43.03370412735936" lon="2.3744016510228896"><ele>474.75</ele><time>2026-03-22T14:56:22Z</time></trkpt><trkpt lat="43.03368574124798" lon="2.374224578400868"><ele>476.0</ele><time>2026-03-22T14:56:23Z</time></trkpt><trkpt lat="43.03364410340515" lon="2.3740150342704616"><ele>476.0</ele><time>2026-03-22T14:56:24Z</time></trkpt><trkpt lat="43.03363810715859" lon="2.373839493554826"><ele>476.0</ele><time>2026-03-22T14:56:25Z</time></trkpt><trkpt lat="43.03361386791875" lon="2.373671121616021"><ele>476.0</ele><time>2026-03-22T14:56:26Z</time></trkpt><trkpt lat="43.033587434431375" lon="2.373486444736696"><ele>476.0</ele><time>2026-03-22T14:56:27Z</time></trkpt><trkpt lat="43.03355657003853" lon="2.3733109227266542"><ele>475.99999999999994</ele><time>2026-03-22T14:56:28Z</time></trkpt><trkpt lat="43.03353826981564" lon="2.3731771052316435"><ele>476.0</ele><time>2026-03-22T14:56:29Z</time></trkpt><trkpt lat="43.03352658908591" lon="2.373082816584003"><ele>476.0</ele><time>2026-03-22T14:56:30Z</time></trkpt><trkpt lat="43.033508323408334" lon="2.3729463809293523"><ele>476.0</ele><time>2026-03-22T14:56:32Z</time></trkpt><trkpt lat="43.033490462887514" lon="2.372838289807525"><ele>475.99999999999994</ele><time>2026-03-22T14:56:34Z</time></trkpt><trkpt lat="43.033469925566806" lon="2.3727230803736106"><ele>476.0</ele><time>2026-03-22T14:56:36Z</time></trkpt><trkpt lat="43.03344480482884" lon="2.3725729161312645"><ele>475.66666666666663</ele><time>2026-03-22T14:56:38Z</time></trkpt><trkpt lat="43.033593759550946" lon="2.372345762284865"><ele>475.33333333333337</ele><time>2026-03-22T14:56:40Z</time></trkpt><trkpt lat="43.03366728505365" lon="2.3722005377241944"><ele>475.0</ele><time>2026-03-22T14:56:41Z</time></trkpt><trkpt lat="43.03369017746846" lon="2.371991100892427"><ele>474.75</ele><time>2026-03-22T14:56:42Z</time></trkpt><trkpt lat="43.03371206133905" lon="2.3718196599322634"><ele>474.5</ele><time>2026-03-22T14:56:43Z</time></trkpt><trkpt lat="43.03372802874107" lon="2.37166045421118"><ele>474.25</ele><time>2026-03-22T14:56:44Z</time></trkpt><trkpt lat="43.033741162996336" lon="2.371508915973512"><ele>474.0</ele><time>2026-03-22T14:56:45Z</time></trkpt><trkpt lat="43.03375658100698" lon="2.371375001183646"><ele>473.79999999999995</ele><time>2026-03-22T14:56:46Z</time></trkpt><trkpt lat="43.03378920178925" lon="2.3712626338125276"><ele>473.59999999999997</ele><time>2026-03-22T14:56:47Z</time></trkpt><trkpt lat="43.033852544018465" lon="2.371177750827416"><ele>473.4</ele><time>2026-03-22T14:56:48Z</time></trkpt><trkpt lat="43.03396783689608" lon="2.37120791158194"><ele>473.2</ele><time>2026-03-22T14:56:49Z</time></trkpt><trkpt lat="43.03406127431891" lon="2.371217982131727"><ele>473.0</ele><time>2026-03-22T14:56:50Z</time></trkpt><trkpt lat="43.03415938318253" lon="2.371257066429195"><ele>472.99999999999994</ele><time>2026-03-22T14:56:51Z</time></trkpt><trkpt lat="43.03424593427466" lon="2.371279809305659"><ele>473.0</ele><time>2026-03-22T14:56:52Z</time></trkpt><trkpt lat="43.034323314643544" lon="2.3712916489171287"><ele>473.0</ele><time>2026-03-22T14:56:53Z</time></trkpt><trkpt lat="43.0343863934841" lon="2.3712883820570494"><ele>473.0</ele><time>2026-03-22T14:56:54Z</time></trkpt><trkpt lat="43.03443680245668" lon="2.371212387597216"><ele>472.99999999999994</ele><time>2026-03-22T14:56:55Z</time></trkpt><trkpt lat="43.03447856225641" lon="2.3711126074863835"><ele>473.0</ele><time>2026-03-22T14:56:56Z</time></trkpt><trkpt lat="43.03451126061342" lon="2.370975784088162"><ele>473.0</ele><time>2026-03-22T14:56:57Z</time></trkpt><trkpt lat="43.03450679429668" lon="2.3708345431740936"><ele>473.0</ele><time>2026-03-22T14:56:58Z</time></trkpt><trkpt lat="43.034486275744186" lon="2.370656755128152"><ele>473.0</ele><time>2026-03-22T14:56:59Z</time></trkpt><trkpt lat="43.03443878471634" lon="2.3704890533614518"><ele>473.0</ele><time>2026-03-22T14:57:00Z</time></trkpt><trkpt lat="43.034403654802226" lon="2.3703462447563624"><ele>471.4</ele><time>2026-03-22T14:57:01Z</time></trkpt><trkpt lat="43.03438888687418" lon="2.370208207089517"><ele>469.79999999999995</ele><time>2026-03-22T14:57:02Z</time></trkpt><trkpt lat="43.03436778385519" lon="2.37007496338085"><ele>468.2</ele><time>2026-03-22T14:57:03Z</time></trkpt><trkpt lat="43.03440657948646" lon="2.3699252412844074"><ele>466.6</ele><time>2026-03-22T14:57:04Z</time></trkpt><trkpt lat="43.034481417525534" lon="2.369804267936023"><ele>465.0</ele><time>2026-03-22T14:57:05Z</time></trkpt><trkpt lat="43.034547886526965" lon="2.369690787493917"><ele>462.75</ele><time>2026-03-22T14:57:06Z</time></trkpt><trkpt lat="43.03461064313539" lon="2.369568109027232"><ele>460.5</ele><time>2026-03-22T14:57:07Z</time></trkpt><trkpt lat="43.03465737546104" lon="2.3694454812893984"><ele>458.25</ele><time>2026-03-22T14:57:08Z</time></trkpt><trkpt lat="43.03469562686015" lon="2.369278287450354"><ele>456.0</ele><time>2026-03-22T14:57:09Z</time></trkpt><trkpt lat="43.034736030481824" lon="2.3690584247197375"><ele>455.0</ele><time>2026-03-22T14:57:10Z</time></trkpt><trkpt lat="43.034753223078" lon="2.36883886201435"><ele>454.0</ele><time>2026-03-22T14:57:11Z</time></trkpt><trkpt lat="43.03476072681392" lon="2.3686100905174303"><ele>453.0</ele><time>2026-03-22T14:57:12Z</time></trkpt><trkpt lat="43.034768856261564" lon="2.368397488850984"><ele>453.0</ele><time>2026-03-22T14:57:13Z</time></trkpt><trkpt lat="43.03477518276844" lon="2.3681956801440243"><ele>453.0</ele><time>2026-03-22T14:57:14Z</time></trkpt><trkpt lat="43.03478629789211" lon="2.368001170815282"><ele>453.0</ele><time>2026-03-22T14:57:15Z</time></trkpt><trkpt lat="43.0348016060834" lon="2.367812046909077"><ele>453.0</ele><time>2026-03-22T14:57:16Z</time></trkpt><trkpt lat="43.03482021992685" lon="2.367618944118796"><ele>452.5</ele><time>2026-03-22T14:57:17Z</time></trkpt><trkpt lat="43.03481854163842" lon="2.3674300852764043"><ele>452.0</ele><time>2026-03-22T14:57:18Z</time></trkpt><trkpt lat="43.03481101168363" lon="2.3672611844217086"><ele>451.5</ele><time>2026-03-22T14:57:19Z</time></trkpt><trkpt lat="43.03479821045475" lon="2.3671033774791486"><ele>451.0</ele><time>2026-03-22T14:57:20Z</time></trkpt><trkpt lat="43.034778444340034" lon="2.3669542846436187"><ele>450.0</ele><time>2026-03-22T14:57:21Z</time></trkpt><trkpt lat="43.03476201036132" lon="2.366807412198338"><ele>449.0</ele><time>2026-03-22T14:57:22Z</time></trkpt><trkpt lat="43.03474316225203" lon="2.366681976786497"><ele>448.0</ele><time>2026-03-22T14:57:23Z</time></trkpt><trkpt lat="43.03472765167362" lon="2.366564409010522"><ele>447.0</ele><time>2026-03-22T14:57:24Z</time></trkpt><trkpt lat="43.034707680122885" lon="2.36645168199567"><ele>446.0</ele><time>2026-03-22T14:57:25Z</time></trkpt><trkpt lat="43.03473563933101" lon="2.3663167420249827"><ele>444.8</ele><time>2026-03-22T14:57:26Z</time></trkpt><trkpt lat="43.034824167807024" lon="2.3662376390323887"><ele>443.6</ele><time>2026-03-22T14:57:27Z</time></trkpt><trkpt lat="43.03493911058004" lon="2.366235259991752"><ele>442.4</ele><time>2026-03-22T14:57:28Z</time></trkpt><trkpt lat="43.03504976913343" lon="2.3662036871245884"><ele>441.2</ele><time>2026-03-22T14:57:29Z</time></trkpt><trkpt lat="43.035137100381476" lon="2.3661175353643693"><ele>440.0</ele><time>2026-03-22T14:57:30Z</time></trkpt><trkpt lat="43.03518741735141" lon="2.365957791936666"><ele>442.0</ele><time>2026-03-22T14:57:30.999Z</time></trkpt><trkpt lat="43.03522629338913" lon="2.36578459672488"><ele>444.0</ele><time>2026-03-22T14:57:31.999Z</time></trkpt><trkpt lat="43.03524934204719" lon="2.3656228470404903"><ele>446.0</ele><time>2026-03-22T14:57:32.999Z</time></trkpt><trkpt lat="43.03527145809942" lon="2.365465081697087"><ele>448.0</ele><time>2026-03-22T14:57:33.999Z</time></trkpt><trkpt lat="43.03529546520511" lon="2.3653096218608174"><ele>448.0</ele><time>2026-03-22T14:57:34.999Z</time></trkpt><trkpt lat="43.03532148352387" lon="2.3651411382602863"><ele>448.0</ele><time>2026-03-22T14:57:35.999Z</time></trkpt><trkpt lat="43.03534823649796" lon="2.3649734400494227"><ele>448.0</ele><time>2026-03-22T14:57:36.999Z</time></trkpt><trkpt lat="43.035387362431486" lon="2.3648200024310855"><ele>448.0</ele><time>2026-03-22T14:57:37.999Z</time></trkpt><trkpt lat="43.03539148458261" lon="2.364672651866702"><ele>446.0</ele><time>2026-03-22T14:57:38.999Z</time></trkpt><trkpt lat="43.03536051851319" lon="2.3645010202615127"><ele>444.0</ele><time>2026-03-22T14:57:39.999Z</time></trkpt><trkpt lat="43.03529980398265" lon="2.364318901460584"><ele>442.0</ele><time>2026-03-22T14:57:40.999Z</time></trkpt><trkpt lat="43.03526532202466" lon="2.3641432446893673"><ele>440.0</ele><time>2026-03-22T14:57:41.999Z</time></trkpt><trkpt lat="43.035249718740516" lon="2.363982348012965"><ele>438.2</ele><time>2026-03-22T14:57:42.999Z</time></trkpt><trkpt lat="43.03523732331564" lon="2.363839346175013"><ele>436.4</ele><time>2026-03-22T14:57:43.999Z</time></trkpt><trkpt lat="43.03524233840017" lon="2.3637034298039072"><ele>434.6</ele><time>2026-03-22T14:57:44.999Z</time></trkpt><trkpt lat="43.03527111688703" lon="2.363582936433743"><ele>432.8</ele><time>2026-03-22T14:57:45.999Z</time></trkpt><trkpt lat="43.03533674285003" lon="2.3634802761652103"><ele>431.0</ele><time>2026-03-22T14:57:46.999Z</time></trkpt><trkpt lat="43.03542022516209" lon="2.363417136528328"><ele>431.0</ele><time>2026-03-22T14:57:47.999Z</time></trkpt><trkpt lat="43.03552812158082" lon="2.36337348360937"><ele>431.0</ele><time>2026-03-22T14:57:48.999Z</time></trkpt><trkpt lat="43.03562296517729" lon="2.3633253236380876"><ele>431.0</ele><time>2026-03-22T14:57:49.999Z</time></trkpt><trkpt lat="43.03571306691458" lon="2.3632421763932223"><ele>431.0</ele><time>2026-03-22T14:57:50.999Z</time></trkpt><trkpt lat="43.03577874801894" lon="2.3631409042910776"><ele>431.0</ele><time>2026-03-22T14:57:51.999Z</time></trkpt><trkpt lat="43.03580172950018" lon="2.3630079953872998"><ele>429.25</ele><time>2026-03-22T14:57:52.999Z</time></trkpt><trkpt lat="43.03582384033616" lon="2.36285914619857"><ele>427.5</ele><time>2026-03-22T14:57:53.999Z</time></trkpt><trkpt lat="43.03582865646407" lon="2.362696698791116"><ele>425.75</ele><time>2026-03-22T14:57:54.999Z</time></trkpt><trkpt lat="43.03578682036927" lon="2.3625452805095892"><ele>424.0</ele><time>2026-03-22T14:57:55.999Z</time></trkpt><trkpt lat="43.03570813527417" lon="2.3623824146004195"><ele>424.0</ele><time>2026-03-22T14:57:56.999Z</time></trkpt><trkpt lat="43.03564186322257" lon="2.362239993611875"><ele>424.0</ele><time>2026-03-22T14:57:57.999Z</time></trkpt><trkpt lat="43.03558955318768" lon="2.362103074609637"><ele>424.0</ele><time>2026-03-22T14:57:58.999Z</time></trkpt><trkpt lat="43.035558941398655" lon="2.361955818888456"><ele>424.0</ele><time>2026-03-22T14:57:59.999Z</time></trkpt><trkpt lat="43.0355373565839" lon="2.3617930429832112"><ele>424.0</ele><time>2026-03-22T14:58:00.999Z</time></trkpt><trkpt lat="43.03552582869169" lon="2.361622832700055"><ele>424.0</ele><time>2026-03-22T14:58:01.999Z</time></trkpt><trkpt lat="43.035537542920395" lon="2.361437517865309"><ele>424.0</ele><time>2026-03-22T14:58:02.999Z</time></trkpt><trkpt lat="43.0355619026776" lon="2.361259948042002"><ele>424.0</ele><time>2026-03-22T14:58:03.999Z</time></trkpt><trkpt lat="43.03559372407587" lon="2.361106497116456"><ele>422.6</ele><time>2026-03-22T14:58:04.999Z</time></trkpt><trkpt lat="43.03562268228055" lon="2.3609657919008744"><ele>421.2</ele><time>2026-03-22T14:58:06Z</time></trkpt><trkpt lat="43.035638881451355" lon="2.3608362671172314"><ele>419.8</ele><time>2026-03-22T14:58:07Z</time></trkpt><trkpt lat="43.035704031376994" lon="2.36074564010403"><ele>418.40000000000003</ele><time>2026-03-22T14:58:08Z</time></trkpt><trkpt lat="43.03578446533829" lon="2.360662767794997"><ele>417.0</ele><time>2026-03-22T14:58:09Z</time></trkpt><trkpt lat="43.03589200749551" lon="2.360608565169186"><ele>419.20000000000005</ele><time>2026-03-22T14:58:10Z</time></trkpt><trkpt lat="43.03600397219043" lon="2.360569875802517"><ele>421.4</ele><time>2026-03-22T14:58:11Z</time></trkpt><trkpt lat="43.03609741634097" lon="2.360528320893072"><ele>423.59999999999997</ele><time>2026-03-22T14:58:12Z</time></trkpt><trkpt lat="43.03618226370147" lon="2.360483452198904"><ele>425.79999999999995</ele><time>2026-03-22T14:58:13Z</time></trkpt><trkpt lat="43.036259347967366" lon="2.360442297759008"><ele>428.0</ele><time>2026-03-22T14:58:14Z</time></trkpt><trkpt lat="43.03634762889845" lon="2.360402237128647"><ele>428.0</ele><time>2026-03-22T14:58:15Z</time></trkpt><trkpt lat="43.036440449312984" lon="2.3603315452474978"><ele>427.99999999999994</ele><time>2026-03-22T14:58:16Z</time></trkpt><trkpt lat="43.03648928511401" lon="2.360228112957056"><ele>427.99999999999994</ele><time>2026-03-22T14:58:17Z</time></trkpt><trkpt lat="43.0365218258797" lon="2.360091000201039"><ele>428.0</ele><time>2026-03-22T14:58:18Z</time></trkpt><trkpt lat="43.036510334011204" lon="2.359948765879964"><ele>428.0</ele><time>2026-03-22T14:58:19Z</time></trkpt><trkpt lat="43.03645203751477" lon="2.359796337601217"><ele>428.0</ele><time>2026-03-22T14:58:20Z</time></trkpt><trkpt lat="43.0363627627339" lon="2.3596603499039603"><ele>428.0</ele><time>2026-03-22T14:58:21Z</time></trkpt><trkpt lat="43.03626477094251" lon="2.359545061923656"><ele>428.0</ele><time>2026-03-22T14:58:22Z</time></trkpt><trkpt lat="43.036165232490795" lon="2.359440913823258"><ele>428.0</ele><time>2026-03-22T14:58:23Z</time></trkpt><trkpt lat="43.03606206895191" lon="2.3593369479262303"><ele>428.0</ele><time>2026-03-22T14:58:24Z</time></trkpt><trkpt lat="43.035963396612104" lon="2.3592298066297164"><ele>428.0</ele><time>2026-03-22T14:58:25Z</time></trkpt><trkpt lat="43.03586465934951" lon="2.359128988488316"><ele>428.0</ele><time>2026-03-22T14:58:26Z</time></trkpt><trkpt lat="43.03577607747555" lon="2.3590372560765074"><ele>428.0</ele><time>2026-03-22T14:58:27Z</time></trkpt><trkpt lat="43.035703683115045" lon="2.3589501273506053"><ele>422.0</ele><time>2026-03-22T14:58:28Z</time></trkpt><trkpt lat="43.03565291529866" lon="2.358843402797068"><ele>416.0</ele><time>2026-03-22T14:58:29Z</time></trkpt><trkpt lat="43.03561822902379" lon="2.3586951259530973"><ele>410.0</ele><time>2026-03-22T14:58:30Z</time></trkpt><trkpt lat="43.035621444217576" lon="2.358530402511456"><ele>404.0</ele><time>2026-03-22T14:58:31Z</time></trkpt><trkpt lat="43.03565198152954" lon="2.358363208310085"><ele>403.99999999999994</ele><time>2026-03-22T14:58:32Z</time></trkpt><trkpt lat="43.035706281923154" lon="2.3582134976796976"><ele>404.0</ele><time>2026-03-22T14:58:33Z</time></trkpt><trkpt lat="43.03575071452595" lon="2.3581040237669995"><ele>404.0</ele><time>2026-03-22T14:58:34Z</time></trkpt><trkpt lat="43.03580590188099" lon="2.3580286402103825"><ele>404.0</ele><time>2026-03-22T14:58:35Z</time></trkpt><trkpt lat="43.035879734087416" lon="2.3579887081255255"><ele>403.99999999999994</ele><time>2026-03-22T14:58:36Z</time></trkpt><trkpt lat="43.03595040813956" lon="2.357999193805055"><ele>404.0</ele><time>2026-03-22T14:58:37Z</time></trkpt><trkpt lat="43.03599354797482" lon="2.35808079056209"><ele>407.49999999999994</ele><time>2026-03-22T14:58:38Z</time></trkpt><trkpt lat="43.036049140776605" lon="2.358165048243825"><ele>411.0</ele><time>2026-03-22T14:58:39Z</time></trkpt><trkpt lat="43.03610317755474" lon="2.3582356389493397"><ele>414.5</ele><time>2026-03-22T14:58:40Z</time></trkpt><trkpt lat="43.03617792590447" lon="2.3582651551305553"><ele>418.0</ele><time>2026-03-22T14:58:41Z</time></trkpt><trkpt lat="43.03626524914975" lon="2.358245554369261"><ele>421.49999999999994</ele><time>2026-03-22T14:58:42Z</time></trkpt><trkpt lat="43.036338823948576" lon="2.3581821145054587"><ele>425.0</ele><time>2026-03-22T14:58:43Z</time></trkpt><trkpt lat="43.036388284531654" lon="2.3580632552617566"><ele>422.75</ele><time>2026-03-22T14:58:44Z</time></trkpt><trkpt lat="43.03644349602087" lon="2.3579138903133323"><ele>420.5</ele><time>2026-03-22T14:58:45Z</time></trkpt><trkpt lat="43.03650871641093" lon="2.35777416991471"><ele>418.25</ele><time>2026-03-22T14:58:46Z</time></trkpt><trkpt lat="43.0365672625111" lon="2.3576432620477457"><ele>416.0</ele><time>2026-03-22T14:58:47Z</time></trkpt><trkpt lat="43.03662752800262" lon="2.357507940829101"><ele>416.25</ele><time>2026-03-22T14:58:48Z</time></trkpt><trkpt lat="43.03668826887272" lon="2.357363938123337"><ele>416.5</ele><time>2026-03-22T14:58:49Z</time></trkpt><trkpt lat="43.036751043374" lon="2.357213655359791"><ele>416.75</ele><time>2026-03-22T14:58:50Z</time></trkpt><trkpt lat="43.036816639385464" lon="2.3570634905560275"><ele>417.0</ele><time>2026-03-22T14:58:51Z</time></trkpt><trkpt lat="43.036883744873336" lon="2.356908261469455"><ele>417.0</ele><time>2026-03-22T14:58:52Z</time></trkpt><trkpt lat="43.036932608911634" lon="2.356766652272199"><ele>417.0</ele><time>2026-03-22T14:58:53Z</time></trkpt><trkpt lat="43.03698584918592" lon="2.3566343979185955"><ele>417.0</ele><time>2026-03-22T14:58:54Z</time></trkpt><trkpt lat="43.03703513125456" lon="2.3565159558503077"><ele>417.0</ele><time>2026-03-22T14:58:55Z</time></trkpt><trkpt lat="43.037074981611205" lon="2.3563869463260336"><ele>417.0</ele><time>2026-03-22T14:58:56Z</time></trkpt><trkpt lat="43.03708348311169" lon="2.3562734025362753"><ele>415.8</ele><time>2026-03-22T14:58:57Z</time></trkpt><trkpt lat="43.037062529346706" lon="2.3561594929828376"><ele>414.6</ele><time>2026-03-22T14:58:58Z</time></trkpt><trkpt lat="43.03700629564846" lon="2.356061171558507"><ele>413.40000000000003</ele><time>2026-03-22T14:58:59Z</time></trkpt><trkpt lat="43.03695030615143" lon="2.355937277288216"><ele>412.20000000000005</ele><time>2026-03-22T14:59:00Z</time></trkpt><trkpt lat="43.03690197969264" lon="2.3557769685652126"><ele>411.0</ele><time>2026-03-22T14:59:01Z</time></trkpt><trkpt lat="43.03687598015874" lon="2.355636636067942"><ele>411.0</ele><time>2026-03-22T14:59:02Z</time></trkpt><trkpt lat="43.03685641533521" lon="2.355470322520553"><ele>411.0</ele><time>2026-03-22T14:59:03Z</time></trkpt><trkpt lat="43.03682838348945" lon="2.3552901670807787"><ele>411.0</ele><time>2026-03-22T14:59:04Z</time></trkpt><trkpt lat="43.03679596889713" lon="2.3551104054055934"><ele>411.0</ele><time>2026-03-22T14:59:05Z</time></trkpt><trkpt lat="43.03676238444335" lon="2.354929506772466"><ele>411.0</ele><time>2026-03-22T14:59:06Z</time></trkpt><trkpt lat="43.03673324585376" lon="2.3547512211682244"><ele>411.0</ele><time>2026-03-22T14:59:07Z</time></trkpt><trkpt lat="43.036705228940185" lon="2.354576531493453"><ele>411.0</ele><time>2026-03-22T14:59:08Z</time></trkpt><trkpt lat="43.03667331455847" lon="2.354407361050009"><ele>411.0</ele><time>2026-03-22T14:59:09Z</time></trkpt><trkpt lat="43.03664580014098" lon="2.3542421858688325"><ele>410.6</ele><time>2026-03-22T14:59:10Z</time></trkpt><trkpt lat="43.036651003371645" lon="2.354091733200174"><ele>410.20000000000005</ele><time>2026-03-22T14:59:11Z</time></trkpt><trkpt lat="43.036670828752044" lon="2.3539507260483035"><ele>409.79999999999995</ele><time>2026-03-22T14:59:12Z</time></trkpt><trkpt lat="43.03673768992461" lon="2.353851502374495"><ele>409.4</ele><time>2026-03-22T14:59:13Z</time></trkpt><trkpt lat="43.03685259204487" lon="2.353799138276356"><ele>409.0</ele><time>2026-03-22T14:59:14Z</time></trkpt><trkpt lat="43.03697374148456" lon="2.353756527412585"><ele>408.0</ele><time>2026-03-22T14:59:15Z</time></trkpt><trkpt lat="43.03711175098084" lon="2.353726049805057"><ele>407.0</ele><time>2026-03-22T14:59:16Z</time></trkpt><trkpt lat="43.037240689328954" lon="2.3536958761236124"><ele>406.0</ele><time>2026-03-22T14:59:17Z</time></trkpt><trkpt lat="43.037342144429175" lon="2.353666029318551"><ele>405.0</ele><time>2026-03-22T14:59:18Z</time></trkpt><trkpt lat="43.037436940248035" lon="2.3536259689417682"><ele>406.75</ele><time>2026-03-22T14:59:19Z</time></trkpt><trkpt lat="43.037523435425264" lon="2.3535448193580857"><ele>408.5</ele><time>2026-03-22T14:59:20Z</time></trkpt><trkpt lat="43.03757094306539" lon="2.3534062910757783"><ele>410.25</ele><time>2026-03-22T14:59:21Z</time></trkpt><trkpt lat="43.03759284838399" lon="2.353266751663655"><ele>412.0</ele><time>2026-03-22T14:59:22Z</time></trkpt><trkpt lat="43.03762335266683" lon="2.353067269843655"><ele>410.25</ele><time>2026-03-22T14:59:23Z</time></trkpt><trkpt lat="43.037646183498204" lon="2.3529122327646297"><ele>408.5</ele><time>2026-03-22T14:59:24Z</time></trkpt><trkpt lat="43.037664219466784" lon="2.3527636243304966"><ele>406.75</ele><time>2026-03-22T14:59:25Z</time></trkpt><trkpt lat="43.03764262621597" lon="2.3525969996020324"><ele>405.0</ele><time>2026-03-22T14:59:26Z</time></trkpt><trkpt lat="43.03757795157166" lon="2.3524227433941634"><ele>405.0</ele><time>2026-03-22T14:59:27Z</time></trkpt><trkpt lat="43.037493736032914" lon="2.352236644901663"><ele>405.0</ele><time>2026-03-22T14:59:28Z</time></trkpt><trkpt lat="43.03745088712008" lon="2.3520611056827443"><ele>405.0</ele><time>2026-03-22T14:59:29Z</time></trkpt><trkpt lat="43.037431236592504" lon="2.351892865121311"><ele>405.0</ele><time>2026-03-22T14:59:30Z</time></trkpt><trkpt lat="43.037446892579084" lon="2.351711735545891"><ele>405.0</ele><time>2026-03-22T14:59:31Z</time></trkpt><trkpt lat="43.0374945312279" lon="2.3515199579585233"><ele>405.0</ele><time>2026-03-22T14:59:32Z</time></trkpt><trkpt lat="43.03754281090254" lon="2.3513253720892324"><ele>405.0</ele><time>2026-03-22T14:59:32.999Z</time></trkpt><trkpt lat="43.037603348667886" lon="2.351147624092318"><ele>405.0</ele><time>2026-03-22T14:59:33.999Z</time></trkpt><trkpt lat="43.03764581154755" lon="2.351016509335734"><ele>404.8333333333333</ele><time>2026-03-22T14:59:34.999Z</time></trkpt><trkpt lat="43.03767665401219" lon="2.35089884658115"><ele>404.66666666666663</ele><time>2026-03-22T14:59:35.999Z</time></trkpt><trkpt lat="43.03769162070439" lon="2.3507867954018358"><ele>404.5</ele><time>2026-03-22T14:59:36.999Z</time></trkpt><trkpt lat="43.03769488061867" lon="2.3506869116743165"><ele>404.3333333333333</ele><time>2026-03-22T14:59:37.999Z</time></trkpt><trkpt lat="43.037686033118185" lon="2.3505770365338314"><ele>404.16666666666663</ele><time>2026-03-22T14:59:38.999Z</time></trkpt><trkpt lat="43.03765337315088" lon="2.350457958019385"><ele>404.0</ele><time>2026-03-22T14:59:39.999Z</time></trkpt><trkpt lat="43.03758551872187" lon="2.3503402351826153"><ele>399.3333333333333</ele><time>2026-03-22T14:59:40.999Z</time></trkpt><trkpt lat="43.037445881367134" lon="2.350287580221582"><ele>394.66666666666663</ele><time>2026-03-22T14:59:41.999Z</time></trkpt><trkpt lat="43.03729103270994" lon="2.3502088443177347"><ele>390.0</ele><time>2026-03-22T14:59:42.999Z</time></trkpt><trkpt lat="43.03715482803962" lon="2.350115865674927"><ele>390.0</ele><time>2026-03-22T14:59:43.999Z</time></trkpt><trkpt lat="43.03703089350353" lon="2.3500521622482826"><ele>390.0</ele><time>2026-03-22T14:59:44.999Z</time></trkpt><trkpt lat="43.03691457350156" lon="2.349992768409495"><ele>390.0</ele><time>2026-03-22T14:59:45.999Z</time></trkpt><trkpt lat="43.03680363690752" lon="2.349936123367984"><ele>390.0</ele><time>2026-03-22T14:59:46.999Z</time></trkpt><trkpt lat="43.0366844304561" lon="2.3498883907913024"><ele>386.25</ele><time>2026-03-22T14:59:47.999Z</time></trkpt><trkpt lat="43.03659699879765" lon="2.349776934328985"><ele>382.5</ele><time>2026-03-22T14:59:48.999Z</time></trkpt><trkpt lat="43.036511448751305" lon="2.3496243248040165"><ele>378.75</ele><time>2026-03-22T14:59:49.999Z</time></trkpt><trkpt lat="43.03645449598352" lon="2.3494650749241486"><ele>375.0</ele><time>2026-03-22T14:59:50.999Z</time></trkpt><trkpt lat="43.03642666924118" lon="2.3492871783377667"><ele>375.0</ele><time>2026-03-22T14:59:51.999Z</time></trkpt><trkpt lat="43.03640837789669" lon="2.349104595759344"><ele>375.0</ele><time>2026-03-22T14:59:52.999Z</time></trkpt><trkpt lat="43.03643074256435" lon="2.348941245402793"><ele>375.0</ele><time>2026-03-22T14:59:53.999Z</time></trkpt><trkpt lat="43.03647019639022" lon="2.3488005601792996"><ele>375.0</ele><time>2026-03-22T14:59:54.999Z</time></trkpt><trkpt lat="43.03652931683081" lon="2.348683796936334"><ele>374.5</ele><time>2026-03-22T14:59:55.999Z</time></trkpt><trkpt lat="43.03662848079789" lon="2.3486036468146003"><ele>374.0</ele><time>2026-03-22T14:59:56.999Z</time></trkpt><trkpt lat="43.036732611991546" lon="2.3485229354305095"><ele>373.5</ele><time>2026-03-22T14:59:57.999Z</time></trkpt><trkpt lat="43.03684720444828" lon="2.348471276402678"><ele>373.0</ele><time>2026-03-22T14:59:58.999Z</time></trkpt><trkpt lat="43.03696028473107" lon="2.3484609789903574"><ele>376.5</ele><time>2026-03-22T14:59:59.999Z</time></trkpt><trkpt lat="43.037082146228265" lon="2.3484746015457576"><ele>380.0</ele><time>2026-03-22T15:00:00.999Z</time></trkpt><trkpt lat="43.03719189564871" lon="2.3484728006012423"><ele>383.5</ele><time>2026-03-22T15:00:01.999Z</time></trkpt><trkpt lat="43.03730021027431" lon="2.3484315859463756"><ele>387.0</ele><time>2026-03-22T15:00:02.999Z</time></trkpt><trkpt lat="43.037401254471256" lon="2.3483449827096163"><ele>387.0</ele><time>2026-03-22T15:00:03.999Z</time></trkpt><trkpt lat="43.037463651437676" lon="2.3481923725094678"><ele>387.0</ele><time>2026-03-22T15:00:04.999Z</time></trkpt><trkpt lat="43.037508180013155" lon="2.348042972349435"><ele>387.0</ele><time>2026-03-22T15:00:05.999Z</time></trkpt><trkpt lat="43.03753339916482" lon="2.347893685510716"><ele>387.0</ele><time>2026-03-22T15:00:06.999Z</time></trkpt><trkpt lat="43.03754298712941" lon="2.3477338691499803"><ele>387.25</ele><time>2026-03-22T15:00:07.999Z</time></trkpt><trkpt lat="43.0375371770229" lon="2.3475404716041566"><ele>387.5</ele><time>2026-03-22T15:00:08.999Z</time></trkpt><trkpt lat="43.037529805723516" lon="2.347356886503817"><ele>387.75</ele><time>2026-03-22T15:00:09.999Z</time></trkpt><trkpt lat="43.03749451818882" lon="2.347188904388045"><ele>388.0</ele><time>2026-03-22T15:00:10.999Z</time></trkpt><trkpt lat="43.037456798755215" lon="2.347021871267451"><ele>384.79999999999995</ele><time>2026-03-22T15:00:12Z</time></trkpt><trkpt lat="43.03741733923014" lon="2.3468721419123466"><ele>381.6</ele><time>2026-03-22T15:00:13Z</time></trkpt><trkpt lat="43.037392046098816" lon="2.3467350013228536"><ele>378.4</ele><time>2026-03-22T15:00:14Z</time></trkpt><trkpt lat="43.03735258948789" lon="2.346615502722977"><ele>375.20000000000005</ele><time>2026-03-22T15:00:15Z</time></trkpt><trkpt lat="43.037278276693186" lon="2.346501635862952"><ele>372.0</ele><time>2026-03-22T15:00:16Z</time></trkpt><trkpt lat="43.03718533682785" lon="2.346414716806852"><ele>373.5</ele><time>2026-03-22T15:00:17Z</time></trkpt><trkpt lat="43.03706074120421" lon="2.346305230452863"><ele>375.0</ele><time>2026-03-22T15:00:18Z</time></trkpt><trkpt lat="43.03693763921183" lon="2.346238213509296"><ele>376.5</ele><time>2026-03-22T15:00:19Z</time></trkpt><trkpt lat="43.036831293142804" lon="2.346194829417504"><ele>378.0</ele><time>2026-03-22T15:00:20Z</time></trkpt><trkpt lat="43.036755174664606" lon="2.346090814780021"><ele>378.0</ele><time>2026-03-22T15:00:21Z</time></trkpt><trkpt lat="43.03669594607513" lon="2.345950435326569"><ele>378.0</ele><time>2026-03-22T15:00:22Z</time></trkpt><trkpt lat="43.036675945085264" lon="2.3458095157951746"><ele>378.0</ele><time>2026-03-22T15:00:23Z</time></trkpt><trkpt lat="43.03668046326274" lon="2.3456546681903028"><ele>378.0</ele><time>2026-03-22T15:00:24Z</time></trkpt><trkpt lat="43.036692226172875" lon="2.3454725606836417"><ele>375.6666666666667</ele><time>2026-03-22T15:00:25Z</time></trkpt><trkpt lat="43.03673729497902" lon="2.345255327731947"><ele>373.33333333333337</ele><time>2026-03-22T15:00:26Z</time></trkpt><trkpt lat="43.03677925431778" lon="2.3450793911665593"><ele>371.0</ele><time>2026-03-22T15:00:27Z</time></trkpt><trkpt lat="43.036842215127535" lon="2.3448899284863454"><ele>368.6666666666667</ele><time>2026-03-22T15:00:28Z</time></trkpt><trkpt lat="43.03692989167788" lon="2.344697010203492"><ele>366.3333333333333</ele><time>2026-03-22T15:00:29Z</time></trkpt><trkpt lat="43.03704014487007" lon="2.3445379888647384"><ele>364.0</ele><time>2026-03-22T15:00:30Z</time></trkpt><trkpt lat="43.037126594467225" lon="2.3443732263770563"><ele>364.0</ele><time>2026-03-22T15:00:31Z</time></trkpt><trkpt lat="43.03720117761762" lon="2.3442187177919216"><ele>364.0</ele><time>2026-03-22T15:00:32Z</time></trkpt><trkpt lat="43.03726516915852" lon="2.3440619745232634"><ele>364.0</ele><time>2026-03-22T15:00:33Z</time></trkpt><trkpt lat="43.03734492466668" lon="2.3439380889716253"><ele>364.0</ele><time>2026-03-22T15:00:34Z</time></trkpt><trkpt lat="43.03742045742361" lon="2.3438161457732263"><ele>364.75</ele><time>2026-03-22T15:00:35Z</time></trkpt><trkpt lat="43.03752012656895" lon="2.3437123536570468"><ele>365.5</ele><time>2026-03-22T15:00:36Z</time></trkpt><trkpt lat="43.03763957674555" lon="2.343654671383262"><ele>366.25</ele><time>2026-03-22T15:00:37Z</time></trkpt><trkpt lat="43.03774562285988" lon="2.343600644880318"><ele>367.0</ele><time>2026-03-22T15:00:38Z</time></trkpt><trkpt lat="43.03783506642297" lon="2.3435492329612675"><ele>367.0</ele><time>2026-03-22T15:00:39Z</time></trkpt><trkpt lat="43.03791263355286" lon="2.343493850275473"><ele>367.0</ele><time>2026-03-22T15:00:40Z</time></trkpt><trkpt lat="43.03795677909515" lon="2.343408005134898"><ele>367.0</ele><time>2026-03-22T15:00:41Z</time></trkpt><trkpt lat="43.03799863671493" lon="2.3433151609181024"><ele>367.0</ele><time>2026-03-22T15:00:42Z</time></trkpt><trkpt lat="43.0380070442815" lon="2.3431777822257036"><ele>367.0</ele><time>2026-03-22T15:00:43Z</time></trkpt><trkpt lat="43.03799614651099" lon="2.3430574803178046"><ele>367.0</ele><time>2026-03-22T15:00:44Z</time></trkpt><trkpt lat="43.037934934429884" lon="2.342958627731211"><ele>366.5</ele><time>2026-03-22T15:00:45Z</time></trkpt><trkpt lat="43.037838898956515" lon="2.3428858843737084"><ele>366.0</ele><time>2026-03-22T15:00:46Z</time></trkpt><trkpt lat="43.03770400048416" lon="2.3428129158917907"><ele>365.5</ele><time>2026-03-22T15:00:47Z</time></trkpt><trkpt lat="43.03758301414361" lon="2.3427201803487425"><ele>365.0</ele><time>2026-03-22T15:00:48Z</time></trkpt><trkpt lat="43.03751385190076" lon="2.3425937950394378"><ele>365.0</ele><time>2026-03-22T15:00:49Z</time></trkpt><trkpt lat="43.03747286715277" lon="2.342455503592953"><ele>365.0</ele><time>2026-03-22T15:00:50Z</time></trkpt><trkpt lat="43.0374350642039" lon="2.342284384963652"><ele>365.0</ele><time>2026-03-22T15:00:51Z</time></trkpt><trkpt lat="43.03741620254257" lon="2.3421015715944438"><ele>365.0</ele><time>2026-03-22T15:00:52Z</time></trkpt><trkpt lat="43.03742793269082" lon="2.3419267899196794"><ele>360.75</ele><time>2026-03-22T15:00:53Z</time></trkpt><trkpt lat="43.03745069845383" lon="2.3417351896341096"><ele>356.5</ele><time>2026-03-22T15:00:54Z</time></trkpt><trkpt lat="43.03746148623904" lon="2.3415644052418254"><ele>352.25</ele><time>2026-03-22T15:00:55Z</time></trkpt><trkpt lat="43.037450917644485" lon="2.341400124289083"><ele>348.0</ele><time>2026-03-22T15:00:56Z</time></trkpt><trkpt lat="43.03741958341019" lon="2.3412305250280045"><ele>348.0</ele><time>2026-03-22T15:00:57Z</time></trkpt><trkpt lat="43.03737422478106" lon="2.3410476320303233"><ele>348.0</ele><time>2026-03-22T15:00:58Z</time></trkpt><trkpt lat="43.037315789835915" lon="2.340869216439472"><ele>348.0</ele><time>2026-03-22T15:00:59Z</time></trkpt><trkpt lat="43.03724147927725" lon="2.3407037658608774"><ele>348.0</ele><time>2026-03-22T15:01:00Z</time></trkpt><trkpt lat="43.03714994752715" lon="2.3405534233012766"><ele>348.5</ele><time>2026-03-22T15:01:01Z</time></trkpt><trkpt lat="43.037046537954815" lon="2.3404070905803014"><ele>349.0</ele><time>2026-03-22T15:01:02Z</time></trkpt><trkpt lat="43.03695518221474" lon="2.3402693382277477"><ele>349.5</ele><time>2026-03-22T15:01:03Z</time></trkpt><trkpt lat="43.036893661197745" lon="2.3401250751578537"><ele>350.0</ele><time>2026-03-22T15:01:04Z</time></trkpt><trkpt lat="43.036848893047306" lon="2.3399815992829"><ele>350.0</ele><time>2026-03-22T15:01:05Z</time></trkpt><trkpt lat="43.03681407970319" lon="2.3398273070540636"><ele>350.0</ele><time>2026-03-22T15:01:06Z</time></trkpt><trkpt lat="43.0368089828876" lon="2.3396558455280467"><ele>350.0</ele><time>2026-03-22T15:01:07Z</time></trkpt><trkpt lat="43.03682964827642" lon="2.339448954264051"><ele>350.0</ele><time>2026-03-22T15:01:08Z</time></trkpt><trkpt lat="43.03688003077588" lon="2.3392509082153836"><ele>349.25</ele><time>2026-03-22T15:01:09Z</time></trkpt><trkpt lat="43.03692246794205" lon="2.3390924205810633"><ele>348.5</ele><time>2026-03-22T15:01:10Z</time></trkpt><trkpt lat="43.03696169470497" lon="2.3389419756228627"><ele>347.75</ele><time>2026-03-22T15:01:11Z</time></trkpt><trkpt lat="43.03700302879845" lon="2.338785184988617"><ele>347.0</ele><time>2026-03-22T15:01:12Z</time></trkpt><trkpt lat="43.0370462671386" lon="2.3386359929612883"><ele>346.5</ele><time>2026-03-22T15:01:13Z</time></trkpt><trkpt lat="43.03711023697595" lon="2.3385045116817684"><ele>346.0</ele><time>2026-03-22T15:01:14Z</time></trkpt><trkpt lat="43.03718418141231" lon="2.3383706871694536"><ele>345.5</ele><time>2026-03-22T15:01:15Z</time></trkpt><trkpt lat="43.037290816327896" lon="2.3382657004270713"><ele>345.0</ele><time>2026-03-22T15:01:16Z</time></trkpt><trkpt lat="43.03740785591763" lon="2.3382429919970558"><ele>345.25</ele><time>2026-03-22T15:01:17Z</time></trkpt><trkpt lat="43.03753583930725" lon="2.338276324415814"><ele>345.5</ele><time>2026-03-22T15:01:18Z</time></trkpt><trkpt lat="43.03764632264755" lon="2.338358703063011"><ele>345.75</ele><time>2026-03-22T15:01:19Z</time></trkpt><trkpt lat="43.037747963650446" lon="2.3384335861469485"><ele>346.0</ele><time>2026-03-22T15:01:20Z</time></trkpt><trkpt lat="43.037838832201984" lon="2.338499199820341"><ele>346.0</ele><time>2026-03-22T15:01:21Z</time></trkpt><trkpt lat="43.03794191430882" lon="2.3385203837073325"><ele>346.0</ele><time>2026-03-22T15:01:22Z</time></trkpt><trkpt lat="43.03804965916059" lon="2.3384904824618755"><ele>346.0</ele><time>2026-03-22T15:01:23Z</time></trkpt><trkpt lat="43.03814813101914" lon="2.3384186851064217"><ele>346.0</ele><time>2026-03-22T15:01:24Z</time></trkpt><trkpt lat="43.03821064330207" lon="2.3382827864307942"><ele>346.0</ele><time>2026-03-22T15:01:25Z</time></trkpt><trkpt lat="43.038282915740474" lon="2.3380960552433256"><ele>343.75</ele><time>2026-03-22T15:01:26Z</time></trkpt><trkpt lat="43.03834742645289" lon="2.3379374249182376"><ele>341.5</ele><time>2026-03-22T15:01:27Z</time></trkpt><trkpt lat="43.03840768262582" lon="2.3377858296726126"><ele>339.25</ele><time>2026-03-22T15:01:28Z</time></trkpt><trkpt lat="43.03847202307165" lon="2.3376217992961523"><ele>337.0</ele><time>2026-03-22T15:01:29Z</time></trkpt><trkpt lat="43.03854066590603" lon="2.3374544618021615"><ele>337.0</ele><time>2026-03-22T15:01:30Z</time></trkpt><trkpt lat="43.03861108190925" lon="2.3372828016363023"><ele>337.0</ele><time>2026-03-22T15:01:31Z</time></trkpt><trkpt lat="43.03867297620318" lon="2.3371319155601853"><ele>337.0</ele><time>2026-03-22T15:01:32Z</time></trkpt><trkpt lat="43.03872711465822" lon="2.3369843826418477"><ele>337.0</ele><time>2026-03-22T15:01:33Z</time></trkpt><trkpt lat="43.03877430903103" lon="2.3368442171453134"><ele>336.0</ele><time>2026-03-22T15:01:34Z</time></trkpt><trkpt lat="43.038774708110786" lon="2.3367015435990037"><ele>335.0</ele><time>2026-03-22T15:01:35Z</time></trkpt><trkpt lat="43.038756912282814" lon="2.3365499197113624"><ele>334.0</ele><time>2026-03-22T15:01:36Z</time></trkpt><trkpt lat="43.038718825495046" lon="2.3364067763866174"><ele>333.0</ele><time>2026-03-22T15:01:37Z</time></trkpt><trkpt lat="43.03865919861694" lon="2.336260001239504"><ele>333.0</ele><time>2026-03-22T15:01:38Z</time></trkpt><trkpt lat="43.03856622046558" lon="2.3360752687811632"><ele>333.0</ele><time>2026-03-22T15:01:39Z</time></trkpt><trkpt lat="43.03847138263042" lon="2.3358730803781835"><ele>333.0</ele><time>2026-03-22T15:01:40Z</time></trkpt><trkpt lat="43.03838502010578" lon="2.335685510623434"><ele>333.0</ele><time>2026-03-22T15:01:40.999Z</time></trkpt><trkpt lat="43.038302901277014" lon="2.3355064844120568"><ele>333.0</ele><time>2026-03-22T15:01:41.999Z</time></trkpt><trkpt lat="43.03822888381444" lon="2.335313840153731"><ele>333.0</ele><time>2026-03-22T15:01:42.999Z</time></trkpt><trkpt lat="43.03814041155992" lon="2.3351439950150206"><ele>333.25</ele><time>2026-03-22T15:01:43.999Z</time></trkpt><trkpt lat="43.03808018504954" lon="2.334958894557546"><ele>333.5</ele><time>2026-03-22T15:01:44.999Z</time></trkpt><trkpt lat="43.038022611285044" lon="2.3347758527490114"><ele>333.75</ele><time>2026-03-22T15:01:45.999Z</time></trkpt><trkpt lat="43.03799215253153" lon="2.334583152753579"><ele>334.0</ele><time>2026-03-22T15:01:46.999Z</time></trkpt><trkpt lat="43.03798647694694" lon="2.334376477365295"><ele>332.5</ele><time>2026-03-22T15:01:47.999Z</time></trkpt><trkpt lat="43.03801912362362" lon="2.3341764340339384"><ele>331.0</ele><time>2026-03-22T15:01:48.999Z</time></trkpt><trkpt lat="43.038056167118725" lon="2.3339913320567867"><ele>329.5</ele><time>2026-03-22T15:01:49.999Z</time></trkpt><trkpt lat="43.038049781312914" lon="2.333800570730358"><ele>328.0</ele><time>2026-03-22T15:01:50.999Z</time></trkpt><trkpt lat="43.03802239845968" lon="2.3336020889458666"><ele>326.66666666666663</ele><time>2026-03-22T15:01:51.999Z</time></trkpt><trkpt lat="43.03796960105744" lon="2.3333953274715604"><ele>325.3333333333333</ele><time>2026-03-22T15:01:52.999Z</time></trkpt><trkpt lat="43.03790838773117" lon="2.3331500449837654"><ele>324.0</ele><time>2026-03-22T15:01:53.999Z</time></trkpt><trkpt lat="43.03784061416315" lon="2.3329040536517285"><ele>322.3333333333333</ele><time>2026-03-22T15:01:54.999Z</time></trkpt><trkpt lat="43.03778258309916" lon="2.3326835757125"><ele>320.66666666666663</ele><time>2026-03-22T15:01:55.999Z</time></trkpt><trkpt lat="43.037715290681184" lon="2.332494612204588"><ele>319.0</ele><time>2026-03-22T15:01:56.999Z</time></trkpt><trkpt lat="43.03766355799087" lon="2.3323057826146614"><ele>317.3333333333333</ele><time>2026-03-22T15:01:57.999Z</time></trkpt><trkpt lat="43.03761540120803" lon="2.3321208383740077"><ele>315.6666666666667</ele><time>2026-03-22T15:01:58.999Z</time></trkpt><trkpt lat="43.03756424350719" lon="2.3319232017093636"><ele>314.0</ele><time>2026-03-22T15:01:59.999Z</time></trkpt><trkpt lat="43.03752804367838" lon="2.3317154453200195"><ele>314.0</ele><time>2026-03-22T15:02:00.999Z</time></trkpt><trkpt lat="43.03751237271257" lon="2.3315202885087634"><ele>314.0</ele><time>2026-03-22T15:02:01.999Z</time></trkpt><trkpt lat="43.03749098140725" lon="2.331317499451895"><ele>314.0</ele><time>2026-03-22T15:02:02.999Z</time></trkpt><trkpt lat="43.03751053414192" lon="2.3311217603990393"><ele>314.0</ele><time>2026-03-22T15:02:03.999Z</time></trkpt><trkpt lat="43.037552422644616" lon="2.3309442293590386"><ele>313.4</ele><time>2026-03-22T15:02:04.999Z</time></trkpt><trkpt lat="43.03759283987919" lon="2.3307845558406775"><ele>312.79999999999995</ele><time>2026-03-22T15:02:05.999Z</time></trkpt><trkpt lat="43.03762358416698" lon="2.3306372060402167"><ele>312.20000000000005</ele><time>2026-03-22T15:02:06.999Z</time></trkpt><trkpt lat="43.03762628144728" lon="2.3305098484793687"><ele>311.6</ele><time>2026-03-22T15:02:07.999Z</time></trkpt><trkpt lat="43.03761818988572" lon="2.330382136895715"><ele>311.0</ele><time>2026-03-22T15:02:08.999Z</time></trkpt><trkpt lat="43.03753436050508" lon="2.3302730599889188"><ele>309.0</ele><time>2026-03-22T15:02:09.999Z</time></trkpt><trkpt lat="43.037423358371946" lon="2.3301828756149034"><ele>307.0</ele><time>2026-03-22T15:02:10.999Z</time></trkpt><trkpt lat="43.03729116329086" lon="2.3301162071459443"><ele>305.0</ele><time>2026-03-22T15:02:11.999Z</time></trkpt><trkpt lat="43.03713930772494" lon="2.3300763941260545"><ele>303.0</ele><time>2026-03-22T15:02:12.999Z</time></trkpt><trkpt lat="43.03701282030137" lon="2.3300647587279797"><ele>303.0</ele><time>2026-03-22T15:02:13.999Z</time></trkpt><trkpt lat="43.03690314880004" lon="2.3300393783102074"><ele>303.0</ele><time>2026-03-22T15:02:14.999Z</time></trkpt><trkpt lat="43.036822668984065" lon="2.33001436889696"><ele>303.0</ele><time>2026-03-22T15:02:15.999Z</time></trkpt><trkpt lat="43.036779611669026" lon="2.329892656087543"><ele>303.0</ele><time>2026-03-22T15:02:16.999Z</time></trkpt><trkpt lat="43.036745353548696" lon="2.329729547680442"><ele>303.0</ele><time>2026-03-22T15:02:18Z</time></trkpt><trkpt lat="43.03673920667098" lon="2.3295442143986604"><ele>302.5</ele><time>2026-03-22T15:02:19Z</time></trkpt><trkpt lat="43.03673894616497" lon="2.3293475646259494"><ele>302.0</ele><time>2026-03-22T15:02:20Z</time></trkpt><trkpt lat="43.036738801461034" lon="2.32915923164307"><ele>301.5</ele><time>2026-03-22T15:02:21Z</time></trkpt><trkpt lat="43.03671573700856" lon="2.3289966780225257"><ele>301.0</ele><time>2026-03-22T15:02:22Z</time></trkpt><trkpt lat="43.03667560970469" lon="2.3288197371374477"><ele>299.75</ele><time>2026-03-22T15:02:23Z</time></trkpt><trkpt lat="43.0366404469356" lon="2.3286515586208476"><ele>298.5</ele><time>2026-03-22T15:02:24Z</time></trkpt><trkpt lat="43.03663648810687" lon="2.3284783781859786"><ele>297.25</ele><time>2026-03-22T15:02:25Z</time></trkpt><trkpt lat="43.03666969720323" lon="2.328281689067134"><ele>296.0</ele><time>2026-03-22T15:02:26Z</time></trkpt><trkpt lat="43.03670907133797" lon="2.328085842530999"><ele>294.5</ele><time>2026-03-22T15:02:27Z</time></trkpt><trkpt lat="43.03672932493989" lon="2.3278911275882663"><ele>293.0</ele><time>2026-03-22T15:02:28Z</time></trkpt><trkpt lat="43.03676171831716" lon="2.327705161728864"><ele>291.5</ele><time>2026-03-22T15:02:29Z</time></trkpt><trkpt lat="43.03679241433709" lon="2.3275254395948055"><ele>290.0</ele><time>2026-03-22T15:02:30Z</time></trkpt><trkpt lat="43.036823034146806" lon="2.3273461613782906"><ele>289.0</ele><time>2026-03-22T15:02:31Z</time></trkpt><trkpt lat="43.036853167987545" lon="2.327157066746391"><ele>288.0</ele><time>2026-03-22T15:02:32Z</time></trkpt><trkpt lat="43.03688571880772" lon="2.326970594087595"><ele>287.0</ele><time>2026-03-22T15:02:33Z</time></trkpt><trkpt lat="43.03694544560398" lon="2.326815428308698"><ele>286.0</ele><time>2026-03-22T15:02:34Z</time></trkpt><trkpt lat="43.03702035670103" lon="2.326651815421777"><ele>286.0</ele><time>2026-03-22T15:02:35Z</time></trkpt><trkpt lat="43.03712224171233" lon="2.3265039015042186"><ele>286.0</ele><time>2026-03-22T15:02:36Z</time></trkpt><trkpt lat="43.037230764851294" lon="2.326385697572051"><ele>286.0</ele><time>2026-03-22T15:02:37Z</time></trkpt><trkpt lat="43.037296786424406" lon="2.32624802809156"><ele>286.0</ele><time>2026-03-22T15:02:38Z</time></trkpt><trkpt lat="43.037352136117974" lon="2.3261275779262753"><ele>286.0</ele><time>2026-03-22T15:02:39Z</time></trkpt><trkpt lat="43.03738110472815" lon="2.325972904737356"><ele>286.0</ele><time>2026-03-22T15:02:40Z</time></trkpt><trkpt lat="43.03738198987526" lon="2.3257863244885786"><ele>286.0</ele><time>2026-03-22T15:02:41Z</time></trkpt><trkpt lat="43.03734276475184" lon="2.3255710599711135"><ele>286.0</ele><time>2026-03-22T15:02:42Z</time></trkpt><trkpt lat="43.03734810650497" lon="2.325352098031932"><ele>286.3333333333333</ele><time>2026-03-22T15:02:43Z</time></trkpt><trkpt lat="43.03735428898831" lon="2.3251167083479154"><ele>286.6666666666667</ele><time>2026-03-22T15:02:44Z</time></trkpt><trkpt lat="43.03739398473806" lon="2.324895752196172"><ele>287.0</ele><time>2026-03-22T15:02:45Z</time></trkpt><trkpt lat="43.03741632864981" lon="2.324716125852961"><ele>287.0</ele><time>2026-03-22T15:02:46Z</time></trkpt><trkpt lat="43.03742299371514" lon="2.3245371833777213"><ele>287.0</ele><time>2026-03-22T15:02:47Z</time></trkpt><trkpt lat="43.03741268609643" lon="2.324339473723442"><ele>287.0</ele><time>2026-03-22T15:02:48Z</time></trkpt><trkpt lat="43.03738857150328" lon="2.3241487052268512"><ele>287.0</ele><time>2026-03-22T15:02:49Z</time></trkpt><trkpt lat="43.03736190445892" lon="2.3239596975814067"><ele>286.33333333333337</ele><time>2026-03-22T15:02:50Z</time></trkpt><trkpt lat="43.03729089938238" lon="2.323760178404433"><ele>285.6666666666667</ele><time>2026-03-22T15:02:51Z</time></trkpt><trkpt lat="43.03718743144916" lon="2.3235342922506685"><ele>285.0</ele><time>2026-03-22T15:02:52Z</time></trkpt><trkpt lat="43.03709705491983" lon="2.3233298048975684"><ele>285.0</ele><time>2026-03-22T15:02:53Z</time></trkpt><trkpt lat="43.037016173751745" lon="2.3231323250124536"><ele>285.0</ele><time>2026-03-22T15:02:54Z</time></trkpt><trkpt lat="43.03694626983283" lon="2.32294794147792"><ele>285.0</ele><time>2026-03-22T15:02:55Z</time></trkpt><trkpt lat="43.036895021898786" lon="2.3227727981346002"><ele>283.6666666666667</ele><time>2026-03-22T15:02:56Z</time></trkpt><trkpt lat="43.03686241975501" lon="2.3225735706618327"><ele>282.33333333333337</ele><time>2026-03-22T15:02:57Z</time></trkpt><trkpt lat="43.03686086282357" lon="2.3223264808687714"><ele>281.0</ele><time>2026-03-22T15:02:58Z</time></trkpt><trkpt lat="43.036854121863044" lon="2.3220432017808412"><ele>280.6666666666667</ele><time>2026-03-22T15:02:59Z</time></trkpt><trkpt lat="43.03685745612352" lon="2.32174911260711"><ele>280.3333333333333</ele><time>2026-03-22T15:03:00Z</time></trkpt><trkpt lat="43.03686156261814" lon="2.3214867520920914"><ele>280.0</ele><time>2026-03-22T15:03:01Z</time></trkpt><trkpt lat="43.03686521044799" lon="2.3212586142105542"><ele>279.75</ele><time>2026-03-22T15:03:02Z</time></trkpt><trkpt lat="43.03686871412293" lon="2.3210394943634007"><ele>279.5</ele><time>2026-03-22T15:03:03Z</time></trkpt><trkpt lat="43.036872981138956" lon="2.3208367946144883"><ele>279.25</ele><time>2026-03-22T15:03:04Z</time></trkpt><trkpt lat="43.036876696938016" lon="2.3206476266945715"><ele>279.0</ele><time>2026-03-22T15:03:05Z</time></trkpt><trkpt lat="43.03688007046805" lon="2.3204758834168047"><ele>278.25</ele><time>2026-03-22T15:03:06Z</time></trkpt><trkpt lat="43.03688362164287" lon="2.3202950961167086"><ele>277.5</ele><time>2026-03-22T15:03:07Z</time></trkpt><trkpt lat="43.036887344746155" lon="2.3200832396385036"><ele>276.75</ele><time>2026-03-22T15:03:08Z</time></trkpt><trkpt lat="43.036890752834154" lon="2.319876386487558"><ele>276.0</ele><time>2026-03-22T15:03:09Z</time></trkpt><trkpt lat="43.03689519949277" lon="2.319689616772903"><ele>276.0</ele><time>2026-03-22T15:03:10Z</time></trkpt><trkpt lat="43.036899123403934" lon="2.319524123625043"><ele>276.0</ele><time>2026-03-22T15:03:11Z</time></trkpt><trkpt lat="43.036902085606506" lon="2.319354673601965"><ele>276.0</ele><time>2026-03-22T15:03:12Z</time></trkpt><trkpt lat="43.03690897206175" lon="2.3191608139948277"><ele>276.0</ele><time>2026-03-22T15:03:13Z</time></trkpt><trkpt lat="43.03692858613231" lon="2.3189811280720725"><ele>275.3333333333333</ele><time>2026-03-22T15:03:14Z</time></trkpt><trkpt lat="43.03701230317754" lon="2.3187740804329517"><ele>274.66666666666663</ele><time>2026-03-22T15:03:15Z</time></trkpt><trkpt lat="43.03710604304921" lon="2.3185683707648286"><ele>274.0</ele><time>2026-03-22T15:03:16Z</time></trkpt><trkpt lat="43.0372052175458" lon="2.318365407629008"><ele>274.0</ele><time>2026-03-22T15:03:17Z</time></trkpt><trkpt lat="43.037293318797055" lon="2.3181963999001605"><ele>274.0</ele><time>2026-03-22T15:03:18Z</time></trkpt><trkpt lat="43.037370968946554" lon="2.318026936467709"><ele>274.0</ele><time>2026-03-22T15:03:19Z</time></trkpt><trkpt lat="43.03744237890787" lon="2.3178146436761007"><ele>274.3333333333333</ele><time>2026-03-22T15:03:20Z</time></trkpt><trkpt lat="43.03749671854018" lon="2.3175553423948396"><ele>274.6666666666667</ele><time>2026-03-22T15:03:21Z</time></trkpt><trkpt lat="43.03756873533178" lon="2.317255150169708"><ele>275.0</ele><time>2026-03-22T15:03:22Z</time></trkpt><trkpt lat="43.03761655701767" lon="2.3169980470325817"><ele>274.0</ele><time>2026-03-22T15:03:23Z</time></trkpt><trkpt lat="43.03764520699495" lon="2.3167635807067666"><ele>273.0</ele><time>2026-03-22T15:03:24Z</time></trkpt><trkpt lat="43.03768771536668" lon="2.3165301634444373"><ele>272.0</ele><time>2026-03-22T15:03:25Z</time></trkpt><trkpt lat="43.037728086749965" lon="2.316308480535837"><ele>271.6666666666667</ele><time>2026-03-22T15:03:26Z</time></trkpt><trkpt lat="43.03776522309395" lon="2.3161045616240608"><ele>271.3333333333333</ele><time>2026-03-22T15:03:27Z</time></trkpt><trkpt lat="43.03780640605684" lon="2.3158784228836073"><ele>271.0</ele><time>2026-03-22T15:03:28Z</time></trkpt><trkpt lat="43.03786261840622" lon="2.315645485222807"><ele>270.0</ele><time>2026-03-22T15:03:29Z</time></trkpt><trkpt lat="43.037947131130935" lon="2.3154649463781736"><ele>269.0</ele><time>2026-03-22T15:03:30Z</time></trkpt><trkpt lat="43.03803941154031" lon="2.3153040764327733"><ele>268.0</ele><time>2026-03-22T15:03:31Z</time></trkpt><trkpt lat="43.038163133916306" lon="2.315134963308919"><ele>268.0</ele><time>2026-03-22T15:03:32Z</time></trkpt><trkpt lat="43.038302172041845" lon="2.314987147245506"><ele>268.0</ele><time>2026-03-22T15:03:33Z</time></trkpt><trkpt lat="43.03842742865109" lon="2.3148313976792387"><ele>268.0</ele><time>2026-03-22T15:03:34Z</time></trkpt><trkpt lat="43.03851555310033" lon="2.314638207204623"><ele>268.0</ele><time>2026-03-22T15:03:35Z</time></trkpt><trkpt lat="43.03860003181353" lon="2.3144073549127615"><ele>268.0</ele><time>2026-03-22T15:03:36Z</time></trkpt><trkpt lat="43.03868164925863" lon="2.314145620974275"><ele>268.0</ele><time>2026-03-22T15:03:37Z</time></trkpt><trkpt lat="43.03875008246226" lon="2.313926595229658"><ele>267.66666666666663</ele><time>2026-03-22T15:03:38Z</time></trkpt><trkpt lat="43.03881634060758" lon="2.3137299332186494"><ele>267.3333333333333</ele><time>2026-03-22T15:03:39Z</time></trkpt><trkpt lat="43.03889279428355" lon="2.3135439815350267"><ele>267.0</ele><time>2026-03-22T15:03:40Z</time></trkpt><trkpt lat="43.038950909508074" lon="2.313354932697666"><ele>267.0</ele><time>2026-03-22T15:03:41Z</time></trkpt><trkpt lat="43.03900167585557" lon="2.3131673812803624"><ele>267.0</ele><time>2026-03-22T15:03:42Z</time></trkpt><trkpt lat="43.039054714161786" lon="2.313013415129469"><ele>267.0</ele><time>2026-03-22T15:03:43Z</time></trkpt><trkpt lat="43.03912986460739" lon="2.3128746484946165"><ele>267.0</ele><time>2026-03-22T15:03:44Z</time></trkpt><trkpt lat="43.039237065569665" lon="2.312715233504512"><ele>267.3333333333333</ele><time>2026-03-22T15:03:45Z</time></trkpt><trkpt lat="43.039370424885846" lon="2.312593072094402"><ele>267.66666666666663</ele><time>2026-03-22T15:03:46Z</time></trkpt><trkpt lat="43.03950278256365" lon="2.3124849627007373"><ele>268.0</ele><time>2026-03-22T15:03:47Z</time></trkpt><trkpt lat="43.03963715700354" lon="2.312443506294095"><ele>268.0</ele><time>2026-03-22T15:03:48Z</time></trkpt><trkpt lat="43.03974578285866" lon="2.31239868606412"><ele>268.0</ele><time>2026-03-22T15:03:49Z</time></trkpt><trkpt lat="43.0398351969448" lon="2.3123384159563662"><ele>268.0</ele><time>2026-03-22T15:03:49.999Z</time></trkpt><trkpt lat="43.03988815628762" lon="2.3122056246389864"><ele>268.0</ele><time>2026-03-22T15:03:50.999Z</time></trkpt><trkpt lat="43.03994098459511" lon="2.3120778267970983"><ele>268.0</ele><time>2026-03-22T15:03:51.999Z</time></trkpt><trkpt lat="43.039967777966964" lon="2.311941244146172"><ele>267.4</ele><time>2026-03-22T15:03:52.999Z</time></trkpt><trkpt lat="43.03998022332372" lon="2.3117902463124733"><ele>266.8</ele><time>2026-03-22T15:03:53.999Z</time></trkpt><trkpt lat="43.03996718567028" lon="2.3116459391830104"><ele>266.2</ele><time>2026-03-22T15:03:54.999Z</time></trkpt><trkpt lat="43.03993529180502" lon="2.311495812821421"><ele>265.6</ele><time>2026-03-22T15:03:55.999Z</time></trkpt><trkpt lat="43.039876513607965" lon="2.311370139710506"><ele>265.0</ele><time>2026-03-22T15:03:56.999Z</time></trkpt><trkpt lat="43.03979940074605" lon="2.311228584602034"><ele>264.66666666666663</ele><time>2026-03-22T15:03:57.999Z</time></trkpt><trkpt lat="43.03970277471804" lon="2.3110442167680514"><ele>264.3333333333333</ele><time>2026-03-22T15:03:58.999Z</time></trkpt><trkpt lat="43.03958775990702" lon="2.3108505658299303"><ele>264.0</ele><time>2026-03-22T15:03:59.999Z</time></trkpt><trkpt lat="43.03950216953388" lon="2.3106834330752988"><ele>263.5</ele><time>2026-03-22T15:04:00.999Z</time></trkpt><trkpt lat="43.03943301205606" lon="2.3105232486589786"><ele>263.0</ele><time>2026-03-22T15:04:01.999Z</time></trkpt><trkpt lat="43.03938092949929" lon="2.310366527576356"><ele>262.5</ele><time>2026-03-22T15:04:02.999Z</time></trkpt><trkpt lat="43.03936605530108" lon="2.3101810980781337"><ele>262.0</ele><time>2026-03-22T15:04:03.999Z</time></trkpt><trkpt lat="43.039390904743456" lon="2.309999452588012"><ele>262.0</ele><time>2026-03-22T15:04:04.999Z</time></trkpt><trkpt lat="43.039445552701544" lon="2.3098386593148805"><ele>262.0</ele><time>2026-03-22T15:04:05.999Z</time></trkpt><trkpt lat="43.03952547870345" lon="2.3096831506415403"><ele>262.0</ele><time>2026-03-22T15:04:06.999Z</time></trkpt><trkpt lat="43.039647266055034" lon="2.3095373732008495"><ele>262.0</ele><time>2026-03-22T15:04:07.999Z</time></trkpt><trkpt lat="43.03976598365077" lon="2.3094282541867464"><ele>262.25</ele><time>2026-03-22T15:04:08.999Z</time></trkpt><trkpt lat="43.03987688495573" lon="2.309347750011602"><ele>262.5</ele><time>2026-03-22T15:04:09.999Z</time></trkpt><trkpt lat="43.04001839217463" lon="2.30926830894145"><ele>262.75</ele><time>2026-03-22T15:04:10.999Z</time></trkpt><trkpt lat="43.04016971790546" lon="2.3091952954343187"><ele>263.0</ele><time>2026-03-22T15:04:11.999Z</time></trkpt><trkpt lat="43.04031171569861" lon="2.3091230413178137"><ele>263.0</ele><time>2026-03-22T15:04:12.999Z</time></trkpt><trkpt lat="43.04046502738694" lon="2.309032645209998"><ele>263.0</ele><time>2026-03-22T15:04:13.999Z</time></trkpt><trkpt lat="43.04060544175262" lon="2.3089097763501307"><ele>263.0</ele><time>2026-03-22T15:04:14.999Z</time></trkpt><trkpt lat="43.04073974355684" lon="2.308714662965328"><ele>261.6666666666667</ele><time>2026-03-22T15:04:15.999Z</time></trkpt><trkpt lat="43.04086982504494" lon="2.308515377288402"><ele>260.3333333333333</ele><time>2026-03-22T15:04:16.999Z</time></trkpt><trkpt lat="43.04099509447081" lon="2.3083530864081836"><ele>259.0</ele><time>2026-03-22T15:04:17.999Z</time></trkpt><trkpt lat="43.04114576162834" lon="2.3082342319850953"><ele>259.0</ele><time>2026-03-22T15:04:18.999Z</time></trkpt><trkpt lat="43.041291363593494" lon="2.308139524391907"><ele>259.0</ele><time>2026-03-22T15:04:19.999Z</time></trkpt><trkpt lat="43.04142570630945" lon="2.308028857801266"><ele>259.0</ele><time>2026-03-22T15:04:20.999Z</time></trkpt><trkpt lat="43.04156221999566" lon="2.307885563869563"><ele>257.3333333333333</ele><time>2026-03-22T15:04:21.999Z</time></trkpt><trkpt lat="43.04169486610971" lon="2.307723999934448"><ele>255.66666666666669</ele><time>2026-03-22T15:04:22.999Z</time></trkpt><trkpt lat="43.041815922595006" lon="2.3075670475755787"><ele>254.0</ele><time>2026-03-22T15:04:24Z</time></trkpt><trkpt lat="43.04192333432361" lon="2.307425029199579"><ele>254.0</ele><time>2026-03-22T15:04:25Z</time></trkpt><trkpt lat="43.04203000906338" lon="2.3072846354624286"><ele>254.0</ele><time>2026-03-22T15:04:26Z</time></trkpt><trkpt lat="43.042129609839" lon="2.3071452949997604"><ele>254.0</ele><time>2026-03-22T15:04:27Z</time></trkpt><trkpt lat="43.04222131768413" lon="2.3070113814652813"><ele>254.0</ele><time>2026-03-22T15:04:28Z</time></trkpt><trkpt lat="43.0423124858099" lon="2.3068457284793658"><ele>253.66666666666669</ele><time>2026-03-22T15:04:29Z</time></trkpt><trkpt lat="43.04240115799635" lon="2.306641348740813"><ele>253.33333333333331</ele><time>2026-03-22T15:04:30Z</time></trkpt><trkpt lat="43.04245164533797" lon="2.3064411553910387"><ele>253.0</ele><time>2026-03-22T15:04:31Z</time></trkpt><trkpt lat="43.04251947906679" lon="2.3062383612405983"><ele>253.0</ele><time>2026-03-22T15:04:32Z</time></trkpt><trkpt lat="43.04256586101837" lon="2.3060267143575888"><ele>253.0</ele><time>2026-03-22T15:04:33Z</time></trkpt><trkpt lat="43.0426201477114" lon="2.3058079807023297"><ele>253.0</ele><time>2026-03-22T15:04:34Z</time></trkpt><trkpt lat="43.04267746034049" lon="2.3055656066905423"><ele>252.75</ele><time>2026-03-22T15:04:35Z</time></trkpt><trkpt lat="43.04273106225027" lon="2.305355854398788"><ele>252.5</ele><time>2026-03-22T15:04:36Z</time></trkpt><trkpt lat="43.042778721126" lon="2.305167011817436"><ele>252.25</ele><time>2026-03-22T15:04:37Z</time></trkpt><trkpt lat="43.042824490566446" lon="2.3049906667652937"><ele>252.0</ele><time>2026-03-22T15:04:38Z</time></trkpt><trkpt lat="43.04284703232039" lon="2.304810748724695"><ele>252.0</ele><time>2026-03-22T15:04:39Z</time></trkpt><trkpt lat="43.042889287691246" lon="2.304598116750324"><ele>252.0</ele><time>2026-03-22T15:04:40Z</time></trkpt><trkpt lat="43.04289200648516" lon="2.3043445522527244"><ele>252.0</ele><time>2026-03-22T15:04:41Z</time></trkpt><trkpt lat="43.04286222543901" lon="2.3041128325730575"><ele>252.66666666666669</ele><time>2026-03-22T15:04:42Z</time></trkpt><trkpt lat="43.04280557375817" lon="2.3039082412348093"><ele>253.33333333333334</ele><time>2026-03-22T15:04:43Z</time></trkpt><trkpt lat="43.04273045700453" lon="2.3037232019339244"><ele>254.0</ele><time>2026-03-22T15:04:44Z</time></trkpt><trkpt lat="43.04262700577134" lon="2.303542818678008"><ele>254.0</ele><time>2026-03-22T15:04:45Z</time></trkpt><trkpt lat="43.04250270728538" lon="2.3033770847809705"><ele>254.0</ele><time>2026-03-22T15:04:46Z</time></trkpt><trkpt lat="43.04239295600894" lon="2.3032416210008066"><ele>254.0</ele><time>2026-03-22T15:04:47Z</time></trkpt><trkpt lat="43.0422938045162" lon="2.3031297166500675"><ele>253.75</ele><time>2026-03-22T15:04:48Z</time></trkpt><trkpt lat="43.04219930237853" lon="2.303029635337265"><ele>253.5</ele><time>2026-03-22T15:04:49Z</time></trkpt><trkpt lat="43.04210390905906" lon="2.3029441568175817"><ele>253.25</ele><time>2026-03-22T15:04:50Z</time></trkpt><trkpt lat="43.042006471099626" lon="2.3028794046892993"><ele>253.0</ele><time>2026-03-22T15:04:51Z</time></trkpt><trkpt lat="43.04190012157826" lon="2.3028050673114024"><ele>253.0</ele><time>2026-03-22T15:04:52Z</time></trkpt><trkpt lat="43.04179636365902" lon="2.302700166506386"><ele>253.0</ele><time>2026-03-22T15:04:53Z</time></trkpt><trkpt lat="43.041671548728644" lon="2.302624931996222"><ele>253.0</ele><time>2026-03-22T15:04:54Z</time></trkpt><trkpt lat="43.041565282884" lon="2.3025388796989033"><ele>253.0</ele><time>2026-03-22T15:04:55Z</time></trkpt><trkpt lat="43.041469645799076" lon="2.3024656141102295"><ele>252.75</ele><time>2026-03-22T15:04:56Z</time></trkpt><trkpt lat="43.04137176535363" lon="2.3023694127536185"><ele>252.5</ele><time>2026-03-22T15:04:57Z</time></trkpt><trkpt lat="43.04128708599184" lon="2.30225795008706"><ele>252.25</ele><time>2026-03-22T15:04:58Z</time></trkpt><trkpt lat="43.04120221019827" lon="2.3021071297853815"><ele>252.0</ele><time>2026-03-22T15:04:59Z</time></trkpt><trkpt lat="43.041138010859974" lon="2.301964614116129"><ele>252.0</ele><time>2026-03-22T15:05:00Z</time></trkpt><trkpt lat="43.041074137156166" lon="2.30183783207474"><ele>252.0</ele><time>2026-03-22T15:05:01Z</time></trkpt><trkpt lat="43.041016015970385" lon="2.3017237652058546"><ele>252.0</ele><time>2026-03-22T15:05:02Z</time></trkpt><trkpt lat="43.04094043833249" lon="2.3016297474022145"><ele>252.0</ele><time>2026-03-22T15:05:03Z</time></trkpt><trkpt lat="43.040837728423796" lon="2.3015648763468315"><ele>252.0</ele><time>2026-03-22T15:05:04Z</time></trkpt><trkpt lat="43.040708993343706" lon="2.301498383132168"><ele>250.0</ele><time>2026-03-22T15:05:05Z</time></trkpt><trkpt lat="43.04055256788255" lon="2.301488588103217"><ele>248.0</ele><time>2026-03-22T15:05:06Z</time></trkpt><trkpt lat="43.04042783270187" lon="2.3014835932127937"><ele>246.0</ele><time>2026-03-22T15:05:07Z</time></trkpt><trkpt lat="43.04032030042512" lon="2.3014700356835958"><ele>244.0</ele><time>2026-03-22T15:05:08Z</time></trkpt><trkpt lat="43.0402144830303" lon="2.3014263850492678"><ele>245.0</ele><time>2026-03-22T15:05:09Z</time></trkpt><trkpt lat="43.0400855820952" lon="2.301318245343139"><ele>246.0</ele><time>2026-03-22T15:05:10Z</time></trkpt><trkpt lat="43.039978581605176" lon="2.3011726702942292"><ele>247.0</ele><time>2026-03-22T15:05:11Z</time></trkpt><trkpt lat="43.03989084921234" lon="2.301050868565443"><ele>248.0</ele><time>2026-03-22T15:05:12Z</time></trkpt><trkpt lat="43.03981015014683" lon="2.3009327975690694"><ele>248.0</ele><time>2026-03-22T15:05:13Z</time></trkpt><trkpt lat="43.039726597381716" lon="2.3007941067257454"><ele>248.0</ele><time>2026-03-22T15:05:14Z</time></trkpt><trkpt lat="43.03966396259963" lon="2.3006232735904786"><ele>248.0</ele><time>2026-03-22T15:05:15Z</time></trkpt><trkpt lat="43.039626077308824" lon="2.3004056334789795"><ele>248.0</ele><time>2026-03-22T15:05:16Z</time></trkpt><trkpt lat="43.0395922784771" lon="2.300169657677569"><ele>246.5</ele><time>2026-03-22T15:05:17Z</time></trkpt><trkpt lat="43.039555539024924" lon="2.299963581015799"><ele>245.0</ele><time>2026-03-22T15:05:18Z</time></trkpt><trkpt lat="43.03952388932885" lon="2.2997720570062237"><ele>243.5</ele><time>2026-03-22T15:05:19Z</time></trkpt><trkpt lat="43.039495274232316" lon="2.299591582660818"><ele>242.0</ele><time>2026-03-22T15:05:20Z</time></trkpt><trkpt lat="43.039465821111406" lon="2.299424030852256"><ele>241.8</ele><time>2026-03-22T15:05:21Z</time></trkpt><trkpt lat="43.03943919418755" lon="2.2992693153671087"><ele>241.6</ele><time>2026-03-22T15:05:22Z</time></trkpt><trkpt lat="43.039412534826084" lon="2.2991282731992895"><ele>241.40000000000003</ele><time>2026-03-22T15:05:23Z</time></trkpt><trkpt lat="43.039397897684346" lon="2.2989927419100082"><ele>241.20000000000002</ele><time>2026-03-22T15:05:24Z</time></trkpt><trkpt lat="43.03937218201872" lon="2.2988382965897465"><ele>241.0</ele><time>2026-03-22T15:05:25Z</time></trkpt><trkpt lat="43.03939937284496" lon="2.2986589696176516"><ele>240.75</ele><time>2026-03-22T15:05:26Z</time></trkpt><trkpt lat="43.03946431421505" lon="2.29848332206655"><ele>240.5</ele><time>2026-03-22T15:05:27Z</time></trkpt><trkpt lat="43.03954323882565" lon="2.29830761603019"><ele>240.25</ele><time>2026-03-22T15:05:28Z</time></trkpt><trkpt lat="43.039613496006744" lon="2.298148940280344"><ele>240.0</ele><time>2026-03-22T15:05:29Z</time></trkpt><trkpt lat="43.039685338436804" lon="2.297986683975419"><ele>240.0</ele><time>2026-03-22T15:05:30Z</time></trkpt><trkpt lat="43.03976716453549" lon="2.297798680690703"><ele>240.0</ele><time>2026-03-22T15:05:31Z</time></trkpt><trkpt lat="43.03984949817245" lon="2.297599073195917"><ele>240.0</ele><time>2026-03-22T15:05:32Z</time></trkpt><trkpt lat="43.03992612124939" lon="2.2974308990076104"><ele>240.75</ele><time>2026-03-22T15:05:33Z</time></trkpt><trkpt lat="43.03999479281311" lon="2.297274842089558"><ele>241.5</ele><time>2026-03-22T15:05:34Z</time></trkpt><trkpt lat="43.040053842650615" lon="2.297125411015186"><ele>242.25</ele><time>2026-03-22T15:05:35Z</time></trkpt><trkpt lat="43.040104331600766" lon="2.2969876834329264"><ele>243.0</ele><time>2026-03-22T15:05:36Z</time></trkpt><trkpt lat="43.040141888746284" lon="2.2968507656427652"><ele>243.0</ele><time>2026-03-22T15:05:37Z</time></trkpt><trkpt lat="43.04017054559892" lon="2.296696169444237"><ele>243.0</ele><time>2026-03-22T15:05:38Z</time></trkpt><trkpt lat="43.04018313491991" lon="2.2965403653033682"><ele>243.0</ele><time>2026-03-22T15:05:39Z</time></trkpt><trkpt lat="43.04018368653809" lon="2.296373513582643"><ele>243.0</ele><time>2026-03-22T15:05:40Z</time></trkpt><trkpt lat="43.040164912264714" lon="2.296195851057142"><ele>243.25</ele><time>2026-03-22T15:05:41Z</time></trkpt><trkpt lat="43.04014159724349" lon="2.2960264442999945"><ele>243.5</ele><time>2026-03-22T15:05:42Z</time></trkpt><trkpt lat="43.0400762566553" lon="2.2958628164191968"><ele>243.75</ele><time>2026-03-22T15:05:43Z</time></trkpt><trkpt lat="43.04001125259758" lon="2.2956830728285906"><ele>244.0</ele><time>2026-03-22T15:05:44Z</time></trkpt><trkpt lat="43.03993794876754" lon="2.295492524754521"><ele>241.75</ele><time>2026-03-22T15:05:45Z</time></trkpt><trkpt lat="43.039870454128604" lon="2.29530275992476"><ele>239.5</ele><time>2026-03-22T15:05:46Z</time></trkpt><trkpt lat="43.03980641033732" lon="2.295124438097566"><ele>237.25</ele><time>2026-03-22T15:05:47Z</time></trkpt><trkpt lat="43.0397657257398" lon="2.2949573310140474"><ele>235.0</ele><time>2026-03-22T15:05:48Z</time></trkpt><trkpt lat="43.03975154506579" lon="2.2947577855919654"><ele>234.75</ele><time>2026-03-22T15:05:49Z</time></trkpt><trkpt lat="43.03976487578702" lon="2.2945578984779056"><ele>234.5</ele><time>2026-03-22T15:05:50Z</time></trkpt><trkpt lat="43.039788088547596" lon="2.2943825705356775"><ele>234.25</ele><time>2026-03-22T15:05:51Z</time></trkpt><trkpt lat="43.03979868440675" lon="2.2942178160034397"><ele>234.0</ele><time>2026-03-22T15:05:52Z</time></trkpt><trkpt lat="43.03984482840548" lon="2.294064228688432"><ele>233.75</ele><time>2026-03-22T15:05:53Z</time></trkpt><trkpt lat="43.039934590667876" lon="2.2939173248841542"><ele>233.5</ele><time>2026-03-22T15:05:54Z</time></trkpt><trkpt lat="43.04006039439046" lon="2.2938522432005297"><ele>233.25</ele><time>2026-03-22T15:05:55Z</time></trkpt><trkpt lat="43.04016388640867" lon="2.293798267407151"><ele>233.0</ele><time>2026-03-22T15:05:55.999Z</time></trkpt><trkpt lat="43.04026761916378" lon="2.2937534837557783"><ele>232.5</ele><time>2026-03-22T15:05:56.999Z</time></trkpt><trkpt lat="43.040360287526916" lon="2.293680042049703"><ele>232.0</ele><time>2026-03-22T15:05:57.999Z</time></trkpt><trkpt lat="43.040455136947855" lon="2.293600181284405"><ele>231.5</ele><time>2026-03-22T15:05:58.999Z</time></trkpt><trkpt lat="43.040518939050955" lon="2.2934794478955127"><ele>231.0</ele><time>2026-03-22T15:05:59.999Z</time></trkpt><trkpt lat="43.04054036814109" lon="2.293314313722617"><ele>231.0</ele><time>2026-03-22T15:06:00.999Z</time></trkpt><trkpt lat="43.040579120398306" lon="2.2931219272537393"><ele>231.0</ele><time>2026-03-22T15:06:01.999Z</time></trkpt><trkpt lat="43.040630319125995" lon="2.292920504505662"><ele>231.0</ele><time>2026-03-22T15:06:02.999Z</time></trkpt><trkpt lat="43.040691151137345" lon="2.292760247374324"><ele>231.0</ele><time>2026-03-22T15:06:03.999Z</time></trkpt><trkpt lat="43.04076683641422" lon="2.2926243817585776"><ele>231.25</ele><time>2026-03-22T15:06:04.999Z</time></trkpt><trkpt lat="43.04082711257736" lon="2.2924856313473843"><ele>231.5</ele><time>2026-03-22T15:06:05.999Z</time></trkpt><trkpt lat="43.040895420535186" lon="2.2923234658305787"><ele>231.75</ele><time>2026-03-22T15:06:06.999Z</time></trkpt><trkpt lat="43.040953560804866" lon="2.2921771397428334"><ele>232.0</ele><time>2026-03-22T15:06:07.999Z</time></trkpt><trkpt lat="43.04101227744994" lon="2.2920339838494006"><ele>231.2</ele><time>2026-03-22T15:06:08.999Z</time></trkpt><trkpt lat="43.04106657437" lon="2.2918911475360697"><ele>230.39999999999998</ele><time>2026-03-22T15:06:09.999Z</time></trkpt><trkpt lat="43.041115735556545" lon="2.2917712284039387"><ele>229.60000000000002</ele><time>2026-03-22T15:06:10.999Z</time></trkpt><trkpt lat="43.04116469931201" lon="2.2916637763055125"><ele>228.8</ele><time>2026-03-22T15:06:11.999Z</time></trkpt><trkpt lat="43.041213786527045" lon="2.291553744219953"><ele>228.0</ele><time>2026-03-22T15:06:12.999Z</time></trkpt><trkpt lat="43.04126361674206" lon="2.29144335314778"><ele>227.8</ele><time>2026-03-22T15:06:13.999Z</time></trkpt><trkpt lat="43.04132032522345" lon="2.2913094083048673"><ele>227.60000000000002</ele><time>2026-03-22T15:06:14.999Z</time></trkpt><trkpt lat="43.04136080776705" lon="2.291177932704312"><ele>227.39999999999998</ele><time>2026-03-22T15:06:15.999Z</time></trkpt><trkpt lat="43.04141472967253" lon="2.2910411957759274"><ele>227.2</ele><time>2026-03-22T15:06:16.999Z</time></trkpt><trkpt lat="43.04145826607009" lon="2.2909250564862615"><ele>227.0</ele><time>2026-03-22T15:06:17.999Z</time></trkpt><trkpt lat="43.041484216398324" lon="2.2908204317909817"><ele>227.0</ele><time>2026-03-22T15:06:18.999Z</time></trkpt><trkpt lat="43.0414984636882" lon="2.290733779296287"><ele>227.0</ele><time>2026-03-22T15:06:19.999Z</time></trkpt><trkpt lat="43.041508627840166" lon="2.2905779453536845"><ele>227.0</ele><time>2026-03-22T15:06:21.999Z</time></trkpt><trkpt lat="43.04150336193129" lon="2.2904414320689477"><ele>227.0</ele><time>2026-03-22T15:06:23.999Z</time></trkpt><trkpt lat="43.041490084274244" lon="2.2903205896074774"><ele>227.0</ele><time>2026-03-22T15:06:25.999Z</time></trkpt><trkpt lat="43.041474243435275" lon="2.290169313190726"><ele>227.16666666666669</ele><time>2026-03-22T15:06:27.999Z</time></trkpt><trkpt lat="43.04147312849173" lon="2.2900168478561107"><ele>227.33333333333334</ele><time>2026-03-22T15:06:30Z</time></trkpt><trkpt lat="43.041451641353504" lon="2.2898561063757508"><ele>227.5</ele><time>2026-03-22T15:06:32Z</time></trkpt><trkpt lat="43.0414389372719" lon="2.28974340318067"><ele>227.66666666666669</ele><time>2026-03-22T15:06:34Z</time></trkpt><trkpt lat="43.04142737943471" lon="2.2896524292716802"><ele>227.83333333333334</ele><time>2026-03-22T15:06:36Z</time></trkpt><trkpt lat="43.041401930892405" lon="2.2895664871956027"><ele>228.0</ele><time>2026-03-22T15:06:39Z</time></trkpt><trkpt lat="43.04138340731055" lon="2.289407652170037"><ele>228.0</ele><time>2026-03-22T15:06:42Z</time></trkpt><trkpt lat="43.041371264970685" lon="2.2893091297566293"><ele>228.0</ele><time>2026-03-22T15:06:43Z</time></trkpt><trkpt lat="43.04135363618418" lon="2.2891555501520826"><ele>228.0</ele><time>2026-03-22T15:06:45Z</time></trkpt><trkpt lat="43.041343990352665" lon="2.2890675960973836"><ele>228.0</ele><time>2026-03-22T15:06:46Z</time></trkpt><trkpt lat="43.041327923940806" lon="2.2889210972037883"><ele>228.0</ele><time>2026-03-22T15:06:48Z</time></trkpt><trkpt lat="43.04131099874218" lon="2.288766769483618"><ele>228.16666666666666</ele><time>2026-03-22T15:06:50Z</time></trkpt><trkpt lat="43.04129776139869" lon="2.2886460698320907"><ele>228.33333333333331</ele><time>2026-03-22T15:06:52Z</time></trkpt><trkpt lat="43.04128570050859" lon="2.288548164303465"><ele>228.5</ele><time>2026-03-22T15:06:55Z</time></trkpt><trkpt lat="43.04126740806086" lon="2.2883879211651244"><ele>228.66666666666666</ele><time>2026-03-22T15:06:57Z</time></trkpt><trkpt lat="43.04126428454496" lon="2.2882680146945544"><ele>228.83333333333331</ele><time>2026-03-22T15:06:58Z</time></trkpt><trkpt lat="43.041257748508414" lon="2.288174814710584"><ele>229.0</ele><time>2026-03-22T15:06:59Z</time></trkpt><trkpt lat="43.041238795027446" lon="2.2880281624925862"><ele>228.66666666666666</ele><time>2026-03-22T15:07:01Z</time></trkpt><trkpt lat="43.041235078976364" lon="2.2879296215482317"><ele>228.33333333333331</ele><time>2026-03-22T15:07:03Z</time></trkpt><trkpt lat="43.04120773297611" lon="2.2878315348432343"><ele>228.0</ele><time>2026-03-22T15:07:07Z</time></trkpt><trkpt lat="43.0411921501959" lon="2.287719700955119"><ele>227.66666666666669</ele><time>2026-03-22T15:07:56.999Z</time></trkpt><trkpt lat="43.041183306405685" lon="2.2875767017451074"><ele>227.33333333333334</ele><time>2026-03-22T15:07:58.999Z</time></trkpt><trkpt lat="43.04116093973315" lon="2.287443838579903"><ele>227.0</ele><time>2026-03-22T15:08:00.999Z</time></trkpt><trkpt lat="43.041150974920846" lon="2.2873380719174152"><ele>226.83333333333334</ele><time>2026-03-22T15:08:02.999Z</time></trkpt><trkpt lat="43.041127877024486" lon="2.2871972146866164"><ele>226.66666666666669</ele><time>2026-03-22T15:08:04.999Z</time></trkpt><trkpt lat="43.04111889152136" lon="2.287111546725797"><ele>226.5</ele><time>2026-03-22T15:08:05.999Z</time></trkpt><trkpt lat="43.041125186999835" lon="2.2870153560877435"><ele>226.33333333333331</ele><time>2026-03-22T15:08:06.999Z</time></trkpt><trkpt lat="43.04111170829744" lon="2.286915270929396"><ele>226.16666666666666</ele><time>2026-03-22T15:08:07.999Z</time></trkpt><trkpt lat="43.04109074161216" lon="2.286811949936711"><ele>226.0</ele><time>2026-03-22T15:08:08.999Z</time></trkpt><trkpt lat="43.041082767378136" lon="2.2866944853286895"><ele>226.0</ele><time>2026-03-22T15:08:09.999Z</time></trkpt><trkpt lat="43.041073512423246" lon="2.28658028049153"><ele>226.00000000000003</ele><time>2026-03-22T15:08:10.999Z</time></trkpt><trkpt lat="43.04106153231333" lon="2.286456061263412"><ele>226.00000000000003</ele><time>2026-03-22T15:08:11.999Z</time></trkpt><trkpt lat="43.04103906325787" lon="2.28632505142077"><ele>226.0</ele><time>2026-03-22T15:08:12.999Z</time></trkpt><trkpt lat="43.04102689260322" lon="2.2861879674387593"><ele>226.0</ele><time>2026-03-22T15:08:13.999Z</time></trkpt><trkpt lat="43.04101433752068" lon="2.286053498611058"><ele>226.0</ele><time>2026-03-22T15:08:14.999Z</time></trkpt><trkpt lat="43.0409955112811" lon="2.285924891223449"><ele>226.00000000000003</ele><time>2026-03-22T15:08:15.999Z</time></trkpt><trkpt lat="43.04098581683523" lon="2.2858096932886305"><ele>226.00000000000003</ele><time>2026-03-22T15:08:16.999Z</time></trkpt><trkpt lat="43.04097436889623" lon="2.2856975013717267"><ele>226.0</ele><time>2026-03-22T15:08:17.999Z</time></trkpt><trkpt lat="43.04095433471241" lon="2.2855599031460683"><ele>226.0</ele><time>2026-03-22T15:08:18.999Z</time></trkpt><trkpt lat="43.04091527346264" lon="2.2854201468983057"><ele>226.8</ele><time>2026-03-22T15:08:19.999Z</time></trkpt><trkpt lat="43.040881363808566" lon="2.285295766492674"><ele>227.60000000000002</ele><time>2026-03-22T15:08:20.999Z</time></trkpt><trkpt lat="43.04084114370243" lon="2.2851710888549324"><ele>228.4</ele><time>2026-03-22T15:08:21.999Z</time></trkpt><trkpt lat="43.04078765276737" lon="2.2850488726231855"><ele>229.2</ele><time>2026-03-22T15:08:22.999Z</time></trkpt><trkpt lat="43.04072114687781" lon="2.284929755813573"><ele>230.0</ele><time>2026-03-22T15:08:23.999Z</time></trkpt><trkpt lat="43.040655218607874" lon="2.2848243449340635"><ele>229.0</ele><time>2026-03-22T15:08:24.999Z</time></trkpt><trkpt lat="43.04058465991076" lon="2.284717020275951"><ele>228.0</ele><time>2026-03-22T15:08:25.999Z</time></trkpt><trkpt lat="43.040501576503004" lon="2.284608038701415"><ele>227.0</ele><time>2026-03-22T15:08:26.999Z</time></trkpt><trkpt lat="43.04042774501065" lon="2.284508843705394"><ele>226.0</ele><time>2026-03-22T15:08:27.999Z</time></trkpt><trkpt lat="43.0403503461596" lon="2.284404631154995"><ele>225.0</ele><time>2026-03-22T15:08:28.999Z</time></trkpt><trkpt lat="43.04027198984495" lon="2.284297048134594"><ele>225.0</ele><time>2026-03-22T15:08:29.999Z</time></trkpt><trkpt lat="43.04019087785106" lon="2.2841939978575847"><ele>225.0</ele><time>2026-03-22T15:08:30.999Z</time></trkpt><trkpt lat="43.04011191626706" lon="2.2840878031030867"><ele>225.0</ele><time>2026-03-22T15:08:31.999Z</time></trkpt><trkpt lat="43.04002921476463" lon="2.283973425165467"><ele>225.0</ele><time>2026-03-22T15:08:32.999Z</time></trkpt><trkpt lat="43.03994136002852" lon="2.2838433470749644"><ele>223.75</ele><time>2026-03-22T15:08:33.999Z</time></trkpt><trkpt lat="43.039859650336496" lon="2.2837047007562017"><ele>222.5</ele><time>2026-03-22T15:08:34.999Z</time></trkpt><trkpt lat="43.03979924958019" lon="2.283552946608313"><ele>221.25</ele><time>2026-03-22T15:08:36Z</time></trkpt><trkpt lat="43.03972477761793" lon="2.283385474742709"><ele>220.0</ele><time>2026-03-22T15:08:37Z</time></trkpt><trkpt lat="43.03968879376082" lon="2.283151534473485"><ele>219.75</ele><time>2026-03-22T15:08:38Z</time></trkpt><trkpt lat="43.03967613895898" lon="2.2829528171638835"><ele>219.5</ele><time>2026-03-22T15:08:39Z</time></trkpt><trkpt lat="43.039677204072774" lon="2.282763658702628"><ele>219.25</ele><time>2026-03-22T15:08:40Z</time></trkpt><trkpt lat="43.03969581039912" lon="2.282563615052621"><ele>219.0</ele><time>2026-03-22T15:08:41Z</time></trkpt><trkpt lat="43.03971612417189" lon="2.282352544527952"><ele>218.66666666666669</ele><time>2026-03-22T15:08:42Z</time></trkpt><trkpt lat="43.039739939918675" lon="2.282142228112108"><ele>218.33333333333334</ele><time>2026-03-22T15:08:43Z</time></trkpt><trkpt lat="43.03976009056925" lon="2.2819426366203985"><ele>218.0</ele><time>2026-03-22T15:08:44Z</time></trkpt><trkpt lat="43.03978318508604" lon="2.281713334998041"><ele>218.0</ele><time>2026-03-22T15:08:45Z</time></trkpt><trkpt lat="43.03980911761476" lon="2.2814675192477134"><ele>218.0</ele><time>2026-03-22T15:08:46Z</time></trkpt><trkpt lat="43.039830211350235" lon="2.281260437100076"><ele>218.0</ele><time>2026-03-22T15:08:47Z</time></trkpt><trkpt lat="43.03984857402274" lon="2.2810779230876235"><ele>217.25</ele><time>2026-03-22T15:08:48Z</time></trkpt><trkpt lat="43.03986560691768" lon="2.2809086266575345"><ele>216.5</ele><time>2026-03-22T15:08:49Z</time></trkpt><trkpt lat="43.03988150343774" lon="2.2807506249109064"><ele>215.75</ele><time>2026-03-22T15:08:50Z</time></trkpt><trkpt lat="43.039894782594956" lon="2.280607568863674"><ele>215.0</ele><time>2026-03-22T15:08:51Z</time></trkpt><trkpt lat="43.039904619643856" lon="2.2804409756209583"><ele>215.0</ele><time>2026-03-22T15:08:52Z</time></trkpt><trkpt lat="43.03989796318786" lon="2.280260810880864"><ele>215.0</ele><time>2026-03-22T15:08:53Z</time></trkpt><trkpt lat="43.03985575799976" lon="2.2800504810066227"><ele>215.0</ele><time>2026-03-22T15:08:54Z</time></trkpt><trkpt lat="43.03978325688653" lon="2.2798281062040364"><ele>215.33333333333334</ele><time>2026-03-22T15:08:55Z</time></trkpt><trkpt lat="43.039654415912906" lon="2.279642469373826"><ele>215.66666666666669</ele><time>2026-03-22T15:08:56Z</time></trkpt><trkpt lat="43.03951139979764" lon="2.279478742818616"><ele>216.0</ele><time>2026-03-22T15:08:57Z</time></trkpt><trkpt lat="43.039393108352925" lon="2.2793290454172497"><ele>216.0</ele><time>2026-03-22T15:08:58Z</time></trkpt><trkpt lat="43.039289717081196" lon="2.2791733432836203"><ele>216.0</ele><time>2026-03-22T15:08:59Z</time></trkpt><trkpt lat="43.03918089115854" lon="2.2790194930858356"><ele>216.0</ele><time>2026-03-22T15:09:00Z</time></trkpt><trkpt lat="43.039073276353705" lon="2.278875783497252"><ele>215.5</ele><time>2026-03-22T15:09:01Z</time></trkpt><trkpt lat="43.03896970787953" lon="2.278735929302828"><ele>215.0</ele><time>2026-03-22T15:09:02Z</time></trkpt><trkpt lat="43.03886899270161" lon="2.2786030453271"><ele>214.5</ele><time>2026-03-22T15:09:03Z</time></trkpt><trkpt lat="43.038773173935944" lon="2.2784731924792188"><ele>214.0</ele><time>2026-03-22T15:09:04Z</time></trkpt><trkpt lat="43.038685291681205" lon="2.2783494878536894"><ele>214.0</ele><time>2026-03-22T15:09:05Z</time></trkpt><trkpt lat="43.03859060092604" lon="2.278224371724865"><ele>214.0</ele><time>2026-03-22T15:09:06Z</time></trkpt><trkpt lat="43.038494389457306" lon="2.278098106099939"><ele>214.0</ele><time>2026-03-22T15:09:07Z</time></trkpt><trkpt lat="43.03840271519363" lon="2.2779727518028148"><ele>214.0</ele><time>2026-03-22T15:09:08Z</time></trkpt><trkpt lat="43.03831396554746" lon="2.277848944842161"><ele>212.75</ele><time>2026-03-22T15:09:09Z</time></trkpt><trkpt lat="43.03822068063124" lon="2.277718367088633"><ele>211.5</ele><time>2026-03-22T15:09:10Z</time></trkpt><trkpt lat="43.03812715437916" lon="2.277590137853126"><ele>210.25</ele><time>2026-03-22T15:09:11Z</time></trkpt><trkpt lat="43.0380348958033" lon="2.2774681858201267"><ele>209.0</ele><time>2026-03-22T15:09:12Z</time></trkpt><trkpt lat="43.03794026180266" lon="2.277337587410754"><ele>210.5</ele><time>2026-03-22T15:09:13Z</time></trkpt><trkpt lat="43.03785103891336" lon="2.2771958057819144"><ele>212.0</ele><time>2026-03-22T15:09:14Z</time></trkpt><trkpt lat="43.03775894795181" lon="2.2770308305678335"><ele>213.5</ele><time>2026-03-22T15:09:15Z</time></trkpt><trkpt lat="43.037665519353475" lon="2.276852801882464"><ele>215.0</ele><time>2026-03-22T15:09:16Z</time></trkpt><trkpt lat="43.037604596123266" lon="2.2766421915301187"><ele>216.0</ele><time>2026-03-22T15:09:17Z</time></trkpt><trkpt lat="43.037541519876015" lon="2.276384850258623"><ele>217.0</ele><time>2026-03-22T15:09:18Z</time></trkpt><trkpt lat="43.03751609435535" lon="2.2760813329419403"><ele>218.0</ele><time>2026-03-22T15:09:19Z</time></trkpt><trkpt lat="43.03749617754831" lon="2.275757146030738"><ele>218.66666666666669</ele><time>2026-03-22T15:09:20Z</time></trkpt><trkpt lat="43.037477793236576" lon="2.275484660594705"><ele>219.33333333333331</ele><time>2026-03-22T15:09:21Z</time></trkpt><trkpt lat="43.037460990845844" lon="2.2752416629397594"><ele>220.0</ele><time>2026-03-22T15:09:22Z</time></trkpt><trkpt lat="43.03744539585558" lon="2.275009088964032"><ele>215.33333333333331</ele><time>2026-03-22T15:09:23Z</time></trkpt><trkpt lat="43.03743249769728" lon="2.27480071188699"><ele>210.66666666666669</ele><time>2026-03-22T15:09:24Z</time></trkpt><trkpt lat="43.03742324322931" lon="2.2746014977896607"><ele>206.0</ele><time>2026-03-22T15:09:25Z</time></trkpt><trkpt lat="43.03742038224148" lon="2.2743947618857323"><ele>206.0</ele><time>2026-03-22T15:09:26Z</time></trkpt><trkpt lat="43.037421349090486" lon="2.2741756983300476"><ele>206.0</ele><time>2026-03-22T15:09:27Z</time></trkpt><trkpt lat="43.03742668914729" lon="2.2739537361778552"><ele>206.0</ele><time>2026-03-22T15:09:28Z</time></trkpt><trkpt lat="43.037432199835344" lon="2.273727900385904"><ele>206.0</ele><time>2026-03-22T15:09:29Z</time></trkpt><trkpt lat="43.0374364048899" lon="2.273493616341869"><ele>206.0</ele><time>2026-03-22T15:09:30Z</time></trkpt><trkpt lat="43.03744237186708" lon="2.2732410791335567"><ele>206.0</ele><time>2026-03-22T15:09:31Z</time></trkpt><trkpt lat="43.03744884403537" lon="2.27297770575994"><ele>205.33333333333334</ele><time>2026-03-22T15:09:32Z</time></trkpt><trkpt lat="43.037454911505" lon="2.272728092635766"><ele>204.66666666666669</ele><time>2026-03-22T15:09:33Z</time></trkpt><trkpt lat="43.037459973200406" lon="2.2724683642075894"><ele>204.0</ele><time>2026-03-22T15:09:34Z</time></trkpt><trkpt lat="43.03746513870383" lon="2.2722033096771277"><ele>206.0</ele><time>2026-03-22T15:09:35Z</time></trkpt><trkpt lat="43.037470466051865" lon="2.2719299500852395"><ele>208.0</ele><time>2026-03-22T15:09:36Z</time></trkpt><trkpt lat="43.037475691441976" lon="2.271661822413437"><ele>210.0</ele><time>2026-03-22T15:09:37Z</time></trkpt><trkpt lat="43.0374808430023" lon="2.271397483481951"><ele>210.66666666666669</ele><time>2026-03-22T15:09:38Z</time></trkpt><trkpt lat="43.03748635760191" lon="2.271140224521349"><ele>211.33333333333334</ele><time>2026-03-22T15:09:39Z</time></trkpt><trkpt lat="43.037495392264525" lon="2.270854126959011"><ele>212.0</ele><time>2026-03-22T15:09:40Z</time></trkpt><trkpt lat="43.037501692476916" lon="2.270559288789732"><ele>210.0</ele><time>2026-03-22T15:09:41Z</time></trkpt><trkpt lat="43.037525549960925" lon="2.270222420676843"><ele>208.0</ele><time>2026-03-22T15:09:42Z</time></trkpt><trkpt lat="43.03753890635174" lon="2.2698635496736013"><ele>206.0</ele><time>2026-03-22T15:09:43Z</time></trkpt><trkpt lat="43.037579088418006" lon="2.269505387359264"><ele>204.0</ele><time>2026-03-22T15:09:44Z</time></trkpt><trkpt lat="43.037592584382736" lon="2.269162333092219"><ele>205.5</ele><time>2026-03-22T15:09:45Z</time></trkpt><trkpt lat="43.03759692221787" lon="2.2688022574922293"><ele>207.0</ele><time>2026-03-22T15:09:46Z</time></trkpt><trkpt lat="43.0376021277557" lon="2.268405123014936"><ele>209.0</ele><time>2026-03-22T15:09:47Z</time></trkpt><trkpt lat="43.03757450682101" lon="2.2680019219948164"><ele>211.0</ele><time>2026-03-22T15:09:48Z</time></trkpt><trkpt lat="43.037522864562305" lon="2.2676466428037205"><ele>211.0</ele><time>2026-03-22T15:09:49Z</time></trkpt><trkpt lat="43.03748874246212" lon="2.2673265449936983"><ele>211.0</ele><time>2026-03-22T15:09:50Z</time></trkpt><trkpt lat="43.037458257986664" lon="2.2670259560195842"><ele>207.33333333333331</ele><time>2026-03-22T15:09:51Z</time></trkpt><trkpt lat="43.037431665268656" lon="2.266754239826614"><ele>203.66666666666669</ele><time>2026-03-22T15:09:52Z</time></trkpt><trkpt lat="43.0374211913717" lon="2.2664905798160566"><ele>200.0</ele><time>2026-03-22T15:09:53Z</time></trkpt><trkpt lat="43.037379173948146" lon="2.2662697907154468"><ele>199.75</ele><time>2026-03-22T15:09:54Z</time></trkpt><trkpt lat="43.03735588747181" lon="2.2660770941775494"><ele>199.5</ele><time>2026-03-22T15:09:55Z</time></trkpt><trkpt lat="43.03733386648017" lon="2.2658823258950704"><ele>199.25</ele><time>2026-03-22T15:09:56Z</time></trkpt><trkpt lat="43.03732190566453" lon="2.265684705363044"><ele>199.0</ele><time>2026-03-22T15:09:57Z</time></trkpt><trkpt lat="43.03732971354162" lon="2.2654791693819565"><ele>198.0</ele><time>2026-03-22T15:09:58Z</time></trkpt><trkpt lat="43.037354403102796" lon="2.2652657105620193"><ele>197.0</ele><time>2026-03-22T15:09:59Z</time></trkpt><trkpt lat="43.03738013689963" lon="2.2650327453212147"><ele>196.0</ele><time>2026-03-22T15:09:59.999Z</time></trkpt><trkpt lat="43.03741334481491" lon="2.2648071020891205"><ele>195.33333333333331</ele><time>2026-03-22T15:10:00.999Z</time></trkpt><trkpt lat="43.03746559816234" lon="2.26459836479163"><ele>194.66666666666669</ele><time>2026-03-22T15:10:01.999Z</time></trkpt><trkpt lat="43.03754241268186" lon="2.2643769255443478"><ele>194.0</ele><time>2026-03-22T15:10:02.999Z</time></trkpt><trkpt lat="43.03760661074029" lon="2.2641519129061227"><ele>195.66666666666669</ele><time>2026-03-22T15:10:03.999Z</time></trkpt><trkpt lat="43.0376576613123" lon="2.2638968547636846"><ele>197.33333333333331</ele><time>2026-03-22T15:10:04.999Z</time></trkpt><trkpt lat="43.037704838525784" lon="2.263644953625791"><ele>199.0</ele><time>2026-03-22T15:10:05.999Z</time></trkpt><trkpt lat="43.03776299698798" lon="2.263434875095121"><ele>199.0</ele><time>2026-03-22T15:10:06.999Z</time></trkpt><trkpt lat="43.03783365835387" lon="2.2632599929966637"><ele>199.0</ele><time>2026-03-22T15:10:07.999Z</time></trkpt><trkpt lat="43.03790271476931" lon="2.2631019349037254"><ele>199.0</ele><time>2026-03-22T15:10:08.999Z</time></trkpt><trkpt lat="43.03797452006944" lon="2.2629424855961333"><ele>199.0</ele><time>2026-03-22T15:10:09.999Z</time></trkpt><trkpt lat="43.03805632254118" lon="2.262780547820612"><ele>200.0</ele><time>2026-03-22T15:10:10.999Z</time></trkpt><trkpt lat="43.03813872597638" lon="2.2626126439704923"><ele>201.0</ele><time>2026-03-22T15:10:11.999Z</time></trkpt><trkpt lat="43.03822407937028" lon="2.2624382661850233"><ele>202.0</ele><time>2026-03-22T15:10:12.999Z</time></trkpt><trkpt lat="43.03831449627218" lon="2.2622518113209167"><ele>202.0</ele><time>2026-03-22T15:10:13.999Z</time></trkpt><trkpt lat="43.03840169235466" lon="2.262057630202875"><ele>202.0</ele><time>2026-03-22T15:10:14.999Z</time></trkpt><trkpt lat="43.03846118134731" lon="2.2618746342439056"><ele>202.0</ele><time>2026-03-22T15:10:15.999Z</time></trkpt><trkpt lat="43.038498454291506" lon="2.2617081795988776"><ele>202.0</ele><time>2026-03-22T15:10:16.999Z</time></trkpt><trkpt lat="43.038514425358414" lon="2.2615507459569097"><ele>201.0</ele><time>2026-03-22T15:10:17.999Z</time></trkpt><trkpt lat="43.03852850705012" lon="2.2613656364115537"><ele>200.0</ele><time>2026-03-22T15:10:18.999Z</time></trkpt><trkpt lat="43.038544930702905" lon="2.261149741343221"><ele>199.0</ele><time>2026-03-22T15:10:19.999Z</time></trkpt><trkpt lat="43.03856195961381" lon="2.2609258892711863"><ele>199.0</ele><time>2026-03-22T15:10:20.999Z</time></trkpt><trkpt lat="43.03858019067009" lon="2.260686234876783"><ele>199.0</ele><time>2026-03-22T15:10:21.999Z</time></trkpt><trkpt lat="43.03859958688139" lon="2.2604316473761012"><ele>199.0</ele><time>2026-03-22T15:10:22.999Z</time></trkpt><trkpt lat="43.038622497869596" lon="2.260164894468005"><ele>198.0</ele><time>2026-03-22T15:10:23.999Z</time></trkpt><trkpt lat="43.03864626157895" lon="2.2598882133421467"><ele>197.0</ele><time>2026-03-22T15:10:24.999Z</time></trkpt><trkpt lat="43.03866920297087" lon="2.2596211064184835"><ele>196.0</ele><time>2026-03-22T15:10:25.999Z</time></trkpt><trkpt lat="43.03869121707032" lon="2.2593641821468533"><ele>196.0</ele><time>2026-03-22T15:10:26.999Z</time></trkpt><trkpt lat="43.0387105843722" lon="2.259131774953307"><ele>196.0</ele><time>2026-03-22T15:10:27.999Z</time></trkpt><trkpt lat="43.038730634095195" lon="2.258891178269909"><ele>196.0</ele><time>2026-03-22T15:10:28.999Z</time></trkpt><trkpt lat="43.03875206544172" lon="2.258634002033458"><ele>194.66666666666666</ele><time>2026-03-22T15:10:29.999Z</time></trkpt><trkpt lat="43.03877383069548" lon="2.258372819033972"><ele>193.33333333333331</ele><time>2026-03-22T15:10:30.999Z</time></trkpt><trkpt lat="43.038794700867626" lon="2.2581102769193304"><ele>192.0</ele><time>2026-03-22T15:10:31.999Z</time></trkpt><trkpt lat="43.03881528984671" lon="2.257851424472135"><ele>191.33333333333334</ele><time>2026-03-22T15:10:32.999Z</time></trkpt><trkpt lat="43.038835222711555" lon="2.2576302056695323"><ele>190.66666666666669</ele><time>2026-03-22T15:10:33.999Z</time></trkpt><trkpt lat="43.03885099145692" lon="2.2574073956261462"><ele>190.0</ele><time>2026-03-22T15:10:34.999Z</time></trkpt><trkpt lat="43.03885456729739" lon="2.257222485160671"><ele>190.0</ele><time>2026-03-22T15:10:35.999Z</time></trkpt><trkpt lat="43.03883798417909" lon="2.257059619644979"><ele>190.0</ele><time>2026-03-22T15:10:36.999Z</time></trkpt><trkpt lat="43.03881051698665" lon="2.2568724607428554"><ele>190.0</ele><time>2026-03-22T15:10:37.999Z</time></trkpt><trkpt lat="43.038715712555764" lon="2.2566899113312546"><ele>190.0</ele><time>2026-03-22T15:10:38.999Z</time></trkpt><trkpt lat="43.03858177778211" lon="2.2564648384416786"><ele>190.5</ele><time>2026-03-22T15:10:39.999Z</time></trkpt><trkpt lat="43.038433283116476" lon="2.2562157350944787"><ele>191.0</ele><time>2026-03-22T15:10:40.999Z</time></trkpt><trkpt lat="43.03828114351231" lon="2.2559363957194054"><ele>191.0</ele><time>2026-03-22T15:10:42Z</time></trkpt><trkpt lat="43.03814510784635" lon="2.2556812906122055"><ele>191.0</ele><time>2026-03-22T15:10:43Z</time></trkpt><trkpt lat="43.038031074882305" lon="2.2554684680562995"><ele>191.0</ele><time>2026-03-22T15:10:44Z</time></trkpt><trkpt lat="43.037934236444954" lon="2.2552805980160415"><ele>190.75</ele><time>2026-03-22T15:10:45Z</time></trkpt><trkpt lat="43.03783978065849" lon="2.255112524150668"><ele>190.5</ele><time>2026-03-22T15:10:46Z</time></trkpt><trkpt lat="43.03775507228891" lon="2.254954942148541"><ele>190.25</ele><time>2026-03-22T15:10:47Z</time></trkpt><trkpt lat="43.03768097569235" lon="2.25479454805738"><ele>190.0</ele><time>2026-03-22T15:10:48Z</time></trkpt><trkpt lat="43.03762047525934" lon="2.2546328005899734"><ele>190.0</ele><time>2026-03-22T15:10:49Z</time></trkpt><trkpt lat="43.03757420502634" lon="2.254455457011183"><ele>190.0</ele><time>2026-03-22T15:10:50Z</time></trkpt><trkpt lat="43.03754742949061" lon="2.2542842165300594"><ele>190.0</ele><time>2026-03-22T15:10:51Z</time></trkpt><trkpt lat="43.037510564308256" lon="2.2541201781548996"><ele>190.0</ele><time>2026-03-22T15:10:52Z</time></trkpt><trkpt lat="43.0375164814789" lon="2.25393873276937"><ele>189.5</ele><time>2026-03-22T15:10:53Z</time></trkpt><trkpt lat="43.037536275704646" lon="2.2537651118312483"><ele>189.0</ele><time>2026-03-22T15:10:54Z</time></trkpt><trkpt lat="43.037581832468945" lon="2.2535874395052935"><ele>188.5</ele><time>2026-03-22T15:10:55Z</time></trkpt><trkpt lat="43.03764675811234" lon="2.2534300378604186"><ele>188.0</ele><time>2026-03-22T15:10:56Z</time></trkpt><trkpt lat="43.037730827893505" lon="2.2532893038757513"><ele>188.0</ele><time>2026-03-22T15:10:57Z</time></trkpt><trkpt lat="43.03782003245519" lon="2.2531757223143676"><ele>188.0</ele><time>2026-03-22T15:10:58Z</time></trkpt><trkpt lat="43.03791232326604" lon="2.253066727358959"><ele>188.0</ele><time>2026-03-22T15:10:59Z</time></trkpt><trkpt lat="43.038041998179544" lon="2.2529228328987285"><ele>188.0</ele><time>2026-03-22T15:11:00Z</time></trkpt><trkpt lat="43.03820294669465" lon="2.2527506648355193"><ele>188.33333333333331</ele><time>2026-03-22T15:11:01Z</time></trkpt><trkpt lat="43.0383649789108" lon="2.2525719281395067"><ele>188.66666666666666</ele><time>2026-03-22T15:11:02Z</time></trkpt><trkpt lat="43.038494717267135" lon="2.2524263809633123"><ele>189.0</ele><time>2026-03-22T15:11:03Z</time></trkpt><trkpt lat="43.03862751511447" lon="2.2522922363569498"><ele>186.75</ele><time>2026-03-22T15:11:04Z</time></trkpt><trkpt lat="43.03876104523747" lon="2.252201902026973"><ele>184.5</ele><time>2026-03-22T15:11:05Z</time></trkpt><trkpt lat="43.03887224184225" lon="2.252124211505783"><ele>182.25</ele><time>2026-03-22T15:11:06Z</time></trkpt><trkpt lat="43.03896460130294" lon="2.2520673605351984"><ele>180.0</ele><time>2026-03-22T15:11:07Z</time></trkpt><trkpt lat="43.03903529805941" lon="2.2520066453324694"><ele>180.0</ele><time>2026-03-22T15:11:08Z</time></trkpt><trkpt lat="43.03909694220057" lon="2.2519526099678537"><ele>180.0</ele><time>2026-03-22T15:11:09Z</time></trkpt><trkpt lat="43.039140377083356" lon="2.251885459848569"><ele>180.0</ele><time>2026-03-22T15:11:10Z</time></trkpt><trkpt lat="43.03916178128996" lon="2.2517891879786083"><ele>180.0</ele><time>2026-03-22T15:11:11Z</time></trkpt><trkpt lat="43.0391618475568" lon="2.251685724971248"><ele>180.0</ele><time>2026-03-22T15:11:12Z</time></trkpt><trkpt lat="43.039133112974405" lon="2.251544635700282"><ele>180.0</ele><time>2026-03-22T15:11:14Z</time></trkpt><trkpt lat="43.03915982077993" lon="2.251455833394084"><ele>180.0</ele><time>2026-03-22T15:11:15Z</time></trkpt><trkpt lat="43.03916259848398" lon="2.2513303726685048"><ele>180.0</ele><time>2026-03-22T15:11:16Z</time></trkpt><trkpt lat="43.03919513133243" lon="2.25118205756793"><ele>180.0</ele><time>2026-03-22T15:11:17Z</time></trkpt><trkpt lat="43.03926529325513" lon="2.2510250592467727"><ele>180.0</ele><time>2026-03-22T15:11:18Z</time></trkpt><trkpt lat="43.039342120254766" lon="2.250863201496745"><ele>180.0</ele><time>2026-03-22T15:11:19Z</time></trkpt><trkpt lat="43.03945072261271" lon="2.2507078611288915"><ele>180.0</ele><time>2026-03-22T15:11:20Z</time></trkpt><trkpt lat="43.039547185809276" lon="2.2505700311187975"><ele>180.0</ele><time>2026-03-22T15:11:21Z</time></trkpt><trkpt lat="43.03964979788887" lon="2.250423644532278"><ele>180.0</ele><time>2026-03-22T15:11:22Z</time></trkpt><trkpt lat="43.03976298907972" lon="2.250264377587872"><ele>179.66666666666666</ele><time>2026-03-22T15:11:23Z</time></trkpt><trkpt lat="43.0399059831316" lon="2.2501064629015963"><ele>179.33333333333331</ele><time>2026-03-22T15:11:24Z</time></trkpt><trkpt lat="43.04005052362417" lon="2.24992142092867"><ele>179.0</ele><time>2026-03-22T15:11:25Z</time></trkpt><trkpt lat="43.0401785753807" lon="2.2497763619551843"><ele>179.0</ele><time>2026-03-22T15:11:26Z</time></trkpt><trkpt lat="43.0403046925018" lon="2.249635843554018"><ele>179.0</ele><time>2026-03-22T15:11:27Z</time></trkpt><trkpt lat="43.0404247676161" lon="2.2495027292617022"><ele>179.0</ele><time>2026-03-22T15:11:28Z</time></trkpt><trkpt lat="43.04054634103232" lon="2.2493659314669894"><ele>179.0</ele><time>2026-03-22T15:11:29Z</time></trkpt><trkpt lat="43.04067759150037" lon="2.2492094787361743"><ele>179.0</ele><time>2026-03-22T15:11:30Z</time></trkpt><trkpt lat="43.040821164810595" lon="2.2490234531574007"><ele>179.0</ele><time>2026-03-22T15:11:31Z</time></trkpt><trkpt lat="43.040941902940716" lon="2.2488605769974708"><ele>179.0</ele><time>2026-03-22T15:11:32Z</time></trkpt><trkpt lat="43.04104415786177" lon="2.248709766357727"><ele>179.0</ele><time>2026-03-22T15:11:33Z</time></trkpt><trkpt lat="43.04114354996472" lon="2.2485602694409765"><ele>179.0</ele><time>2026-03-22T15:11:34Z</time></trkpt><trkpt lat="43.041257690047495" lon="2.248388130947164"><ele>179.0</ele><time>2026-03-22T15:11:35Z</time></trkpt><trkpt lat="43.04137937217234" lon="2.248204142826985"><ele>179.0</ele><time>2026-03-22T15:11:36Z</time></trkpt><trkpt lat="43.04149636456872" lon="2.2480208552900636"><ele>179.0</ele><time>2026-03-22T15:11:37Z</time></trkpt><trkpt lat="43.041605279455396" lon="2.2478369753898386"><ele>178.66666666666666</ele><time>2026-03-22T15:11:38Z</time></trkpt><trkpt lat="43.041713316787586" lon="2.2476562055844314"><ele>178.33333333333334</ele><time>2026-03-22T15:11:39Z</time></trkpt><trkpt lat="43.04181775418019" lon="2.247489406506122"><ele>178.0</ele><time>2026-03-22T15:11:40Z</time></trkpt><trkpt lat="43.04193115168411" lon="2.247315889998891"><ele>177.66666666666669</ele><time>2026-03-22T15:11:41Z</time></trkpt><trkpt lat="43.04205084900551" lon="2.247135434651467"><ele>177.33333333333334</ele><time>2026-03-22T15:11:42Z</time></trkpt><trkpt lat="43.04217332292821" lon="2.2469526054661175"><ele>177.0</ele><time>2026-03-22T15:11:43Z</time></trkpt><trkpt lat="43.042296171378155" lon="2.246769253084807"><ele>177.0</ele><time>2026-03-22T15:11:44Z</time></trkpt><trkpt lat="43.042415784991974" lon="2.2465887430350517"><ele>177.0</ele><time>2026-03-22T15:11:45Z</time></trkpt><trkpt lat="43.042538177654684" lon="2.2464031250229244"><ele>177.0</ele><time>2026-03-22T15:11:46Z</time></trkpt><trkpt lat="43.04265524547926" lon="2.2462255826111113"><ele>177.33333333333334</ele><time>2026-03-22T15:11:47Z</time></trkpt><trkpt lat="43.04277859326764" lon="2.246042910547385"><ele>177.66666666666669</ele><time>2026-03-22T15:11:48Z</time></trkpt><trkpt lat="43.042907691487414" lon="2.245855805302063"><ele>178.0</ele><time>2026-03-22T15:11:49Z</time></trkpt><trkpt lat="43.04303337260059" lon="2.245673217664052"><ele>177.66666666666669</ele><time>2026-03-22T15:11:50Z</time></trkpt><trkpt lat="43.043152838604435" lon="2.2454894156073593"><ele>177.33333333333334</ele><time>2026-03-22T15:11:51Z</time></trkpt><trkpt lat="43.04327803002891" lon="2.245302858900402"><ele>177.0</ele><time>2026-03-22T15:11:52Z</time></trkpt><trkpt lat="43.04342648769387" lon="2.2451285837307946"><ele>177.0</ele><time>2026-03-22T15:11:53Z</time></trkpt><trkpt lat="43.043581584442094" lon="2.244954457439806"><ele>177.0</ele><time>2026-03-22T15:11:54Z</time></trkpt><trkpt lat="43.04376220586561" lon="2.2447613414065715"><ele>177.0</ele><time>2026-03-22T15:11:55Z</time></trkpt><trkpt lat="43.04395132364661" lon="2.2445679132515144"><ele>176.66666666666666</ele><time>2026-03-22T15:11:56Z</time></trkpt><trkpt lat="43.044129069087425" lon="2.244387026688794"><ele>176.33333333333331</ele><time>2026-03-22T15:11:57Z</time></trkpt><trkpt lat="43.04429223672682" lon="2.2442217987183994"><ele>176.0</ele><time>2026-03-22T15:11:58Z</time></trkpt><trkpt lat="43.04445341813126" lon="2.244066879565713"><ele>176.33333333333331</ele><time>2026-03-22T15:11:59Z</time></trkpt><trkpt lat="43.04460025552201" lon="2.2439227195786877"><ele>176.66666666666666</ele><time>2026-03-22T15:12:00Z</time></trkpt><trkpt lat="43.044752179707224" lon="2.2437737832161204"><ele>177.0</ele><time>2026-03-22T15:12:01Z</time></trkpt><trkpt lat="43.04490068217436" lon="2.2436298726643154"><ele>176.33333333333334</ele><time>2026-03-22T15:12:02Z</time></trkpt><trkpt lat="43.04504750630379" lon="2.2434799185369756"><ele>175.66666666666669</ele><time>2026-03-22T15:12:03Z</time></trkpt><trkpt lat="43.04521355428091" lon="2.2433169706280425"><ele>175.0</ele><time>2026-03-22T15:12:03.999Z</time></trkpt><trkpt lat="43.04535831287708" lon="2.243177771439186"><ele>175.0</ele><time>2026-03-22T15:12:04.999Z</time></trkpt><trkpt lat="43.04549152974116" lon="2.2430489431376675"><ele>175.0</ele><time>2026-03-22T15:12:05.999Z</time></trkpt><trkpt lat="43.045620156936806" lon="2.242921028512611"><ele>175.0</ele><time>2026-03-22T15:12:06.999Z</time></trkpt><trkpt lat="43.045763711537404" lon="2.2427741377944166"><ele>175.66666666666669</ele><time>2026-03-22T15:12:07.999Z</time></trkpt><trkpt lat="43.04589841253822" lon="2.242623101118231"><ele>176.33333333333334</ele><time>2026-03-22T15:12:08.999Z</time></trkpt><trkpt lat="43.04600498574895" lon="2.242476661594908"><ele>177.0</ele><time>2026-03-22T15:12:09.999Z</time></trkpt><trkpt lat="43.04608786177963" lon="2.242321747668561"><ele>177.0</ele><time>2026-03-22T15:12:10.999Z</time></trkpt><trkpt lat="43.046170935518305" lon="2.242148570715894"><ele>177.0</ele><time>2026-03-22T15:12:11.999Z</time></trkpt><trkpt lat="43.046219237161814" lon="2.241954587897659"><ele>177.0</ele><time>2026-03-22T15:12:12.999Z</time></trkpt><trkpt lat="43.04625280866259" lon="2.2417313456167878"><ele>177.0</ele><time>2026-03-22T15:12:13.999Z</time></trkpt><trkpt lat="43.046277391333085" lon="2.2414733445813164"><ele>177.0</ele><time>2026-03-22T15:12:14.999Z</time></trkpt><trkpt lat="43.04630232861862" lon="2.2412087826662543"><ele>177.0</ele><time>2026-03-22T15:12:15.999Z</time></trkpt><trkpt lat="43.04632669686218" lon="2.2409426063841686"><ele>175.66666666666666</ele><time>2026-03-22T15:12:16.999Z</time></trkpt><trkpt lat="43.046351319436404" lon="2.2406736520434634"><ele>174.33333333333331</ele><time>2026-03-22T15:12:17.999Z</time></trkpt><trkpt lat="43.04637516049932" lon="2.24040470782645"><ele>173.0</ele><time>2026-03-22T15:12:18.999Z</time></trkpt><trkpt lat="43.046398055325774" lon="2.240140783999716"><ele>173.0</ele><time>2026-03-22T15:12:19.999Z</time></trkpt><trkpt lat="43.04641986156584" lon="2.2398933109994905"><ele>173.0</ele><time>2026-03-22T15:12:20.999Z</time></trkpt><trkpt lat="43.04643886675902" lon="2.239680512816552"><ele>173.0</ele><time>2026-03-22T15:12:21.999Z</time></trkpt><trkpt lat="43.046458273514915" lon="2.2394632186046692"><ele>173.0</ele><time>2026-03-22T15:12:22.999Z</time></trkpt><trkpt lat="43.04647911112549" lon="2.2392397638059633"><ele>173.0</ele><time>2026-03-22T15:12:23.999Z</time></trkpt><trkpt lat="43.0464989929202" lon="2.239030972354031"><ele>173.0</ele><time>2026-03-22T15:12:24.999Z</time></trkpt><trkpt lat="43.04651734755733" lon="2.2388382183549536"><ele>173.0</ele><time>2026-03-22T15:12:25.999Z</time></trkpt><trkpt lat="43.04653442013587" lon="2.2386385193692977"><ele>173.0</ele><time>2026-03-22T15:12:26.999Z</time></trkpt><trkpt lat="43.046549921327056" lon="2.2384390919602333"><ele>173.0</ele><time>2026-03-22T15:12:27.999Z</time></trkpt><trkpt lat="43.04656178246977" lon="2.238237398481095"><ele>173.0</ele><time>2026-03-22T15:12:28.999Z</time></trkpt><trkpt lat="43.04657064301489" lon="2.2380259112655017"><ele>173.66666666666666</ele><time>2026-03-22T15:12:29.999Z</time></trkpt><trkpt lat="43.04657688264627" lon="2.237813700314872"><ele>174.33333333333334</ele><time>2026-03-22T15:12:30.999Z</time></trkpt><trkpt lat="43.0465831826602" lon="2.2375994354569273"><ele>175.0</ele><time>2026-03-22T15:12:31.999Z</time></trkpt><trkpt lat="43.04658938278566" lon="2.2373885698492595"><ele>174.5</ele><time>2026-03-22T15:12:32.999Z</time></trkpt><trkpt lat="43.04659379208791" lon="2.2371900309496544"><ele>174.0</ele><time>2026-03-22T15:12:33.999Z</time></trkpt><trkpt lat="43.04659842930925" lon="2.2369944424762642"><ele>173.5</ele><time>2026-03-22T15:12:34.999Z</time></trkpt><trkpt lat="43.04660357730856" lon="2.2367871459013835"><ele>173.0</ele><time>2026-03-22T15:12:35.999Z</time></trkpt><trkpt lat="43.04661533341407" lon="2.2365806416843563"><ele>173.66666666666666</ele><time>2026-03-22T15:12:36.999Z</time></trkpt><trkpt lat="43.0466418876546" lon="2.2363662327973173"><ele>174.33333333333334</ele><time>2026-03-22T15:12:37.999Z</time></trkpt><trkpt lat="43.04667713536304" lon="2.236138380763225"><ele>175.0</ele><time>2026-03-22T15:12:38.999Z</time></trkpt><trkpt lat="43.04671340874899" lon="2.2359344545205824"><ele>175.0</ele><time>2026-03-22T15:12:39.999Z</time></trkpt><trkpt lat="43.04675124200625" lon="2.2357274917086483"><ele>175.0</ele><time>2026-03-22T15:12:40.999Z</time></trkpt><trkpt lat="43.046790197150536" lon="2.235514392672894"><ele>175.0</ele><time>2026-03-22T15:12:41.999Z</time></trkpt><trkpt lat="43.04682845514223" lon="2.2352985894605903"><ele>175.0</ele><time>2026-03-22T15:12:42.999Z</time></trkpt><trkpt lat="43.04686671049714" lon="2.235083418861726"><ele>175.0</ele><time>2026-03-22T15:12:43.999Z</time></trkpt><trkpt lat="43.046906589467845" lon="2.2348623575405235"><ele>175.0</ele><time>2026-03-22T15:12:44.999Z</time></trkpt><trkpt lat="43.04694634385876" lon="2.234643156721994"><ele>175.0</ele><time>2026-03-22T15:12:45.999Z</time></trkpt><trkpt lat="43.0469838006969" lon="2.23443662411925"><ele>175.0</ele><time>2026-03-22T15:12:46.999Z</time></trkpt><trkpt lat="43.04702047228708" lon="2.234234423638338"><ele>175.0</ele><time>2026-03-22T15:12:48Z</time></trkpt><trkpt lat="43.04705833092889" lon="2.234027805045009"><ele>174.66666666666669</ele><time>2026-03-22T15:12:49Z</time></trkpt><trkpt lat="43.04709608625763" lon="2.2338284533629347"><ele>174.33333333333334</ele><time>2026-03-22T15:12:50Z</time></trkpt><trkpt lat="43.04713587242584" lon="2.233627585889908"><ele>174.0</ele><time>2026-03-22T15:12:51Z</time></trkpt><trkpt lat="43.04717970570055" lon="2.233424787130261"><ele>174.0</ele><time>2026-03-22T15:12:52Z</time></trkpt><trkpt lat="43.047224597425334" lon="2.233237700222478"><ele>174.0</ele><time>2026-03-22T15:12:53Z</time></trkpt><trkpt lat="43.04727964301926" lon="2.2330285377808603"><ele>174.0</ele><time>2026-03-22T15:12:54Z</time></trkpt><trkpt lat="43.04734858087622" lon="2.23281700883029"><ele>174.0</ele><time>2026-03-22T15:12:55Z</time></trkpt><trkpt lat="43.047419079655036" lon="2.2325946132707233"><ele>174.0</ele><time>2026-03-22T15:12:56Z</time></trkpt><trkpt lat="43.04748403180813" lon="2.232391088762412"><ele>174.0</ele><time>2026-03-22T15:12:57Z</time></trkpt><trkpt lat="43.047551711154576" lon="2.232180449068451"><ele>174.33333333333334</ele><time>2026-03-22T15:12:58Z</time></trkpt><trkpt lat="43.0476182236688" lon="2.2319734417083175"><ele>174.66666666666669</ele><time>2026-03-22T15:12:59Z</time></trkpt><trkpt lat="43.04767990826046" lon="2.2317746567942214"><ele>175.0</ele><time>2026-03-22T15:13:00Z</time></trkpt><trkpt lat="43.04773771952162" lon="2.231567068983561"><ele>174.75</ele><time>2026-03-22T15:13:01Z</time></trkpt><trkpt lat="43.047783901872315" lon="2.2313770201916934"><ele>174.5</ele><time>2026-03-22T15:13:02Z</time></trkpt><trkpt lat="43.04782516176878" lon="2.2311858754745213"><ele>174.25</ele><time>2026-03-22T15:13:03Z</time></trkpt><trkpt lat="43.04785259298178" lon="2.231009535843851"><ele>174.0</ele><time>2026-03-22T15:13:04Z</time></trkpt><trkpt lat="43.04787207288441" lon="2.230837244124109"><ele>174.0</ele><time>2026-03-22T15:13:05Z</time></trkpt><trkpt lat="43.04788082890202" lon="2.23066832339292"><ele>174.0</ele><time>2026-03-22T15:13:06Z</time></trkpt><trkpt lat="43.04788474666524" lon="2.2305239160759127"><ele>174.0</ele><time>2026-03-22T15:13:07Z</time></trkpt><trkpt lat="43.047886301436954" lon="2.2303950598023543"><ele>174.0</ele><time>2026-03-22T15:13:08Z</time></trkpt><trkpt lat="43.04788721478701" lon="2.2302738243545344"><ele>174.0</ele><time>2026-03-22T15:13:09Z</time></trkpt><trkpt lat="43.04788745847623" lon="2.2301690021525635"><ele>174.0</ele><time>2026-03-22T15:13:10Z</time></trkpt><trkpt lat="43.047887250681526" lon="2.23007609369833"><ele>174.0</ele><time>2026-03-22T15:13:11Z</time></trkpt><trkpt lat="43.04788695924563" lon="2.229945791612022"><ele>174.0</ele><time>2026-03-22T15:13:13Z</time></trkpt><trkpt lat="43.04788595652403" lon="2.229765467761948"><ele>174.0</ele><time>2026-03-22T15:13:15Z</time></trkpt><trkpt lat="43.047884701352004" lon="2.2296686010928224"><ele>174.0</ele><time>2026-03-22T15:13:16Z</time></trkpt><trkpt lat="43.04788344549032" lon="2.2295716816806825"><ele>174.0</ele><time>2026-03-22T15:13:17Z</time></trkpt><trkpt lat="43.04788203376237" lon="2.2294627331590924"><ele>174.0</ele><time>2026-03-22T15:13:18Z</time></trkpt><trkpt lat="43.04788063926326" lon="2.2293551143567543"><ele>174.0</ele><time>2026-03-22T15:13:19Z</time></trkpt><trkpt lat="43.047879183522404" lon="2.229242771329022"><ele>174.0</ele><time>2026-03-22T15:13:20Z</time></trkpt><trkpt lat="43.047877772435406" lon="2.229120827486261"><ele>174.0</ele><time>2026-03-22T15:13:21Z</time></trkpt><trkpt lat="43.04787626834625" lon="2.2289949526801434"><ele>174.0</ele><time>2026-03-22T15:13:22Z</time></trkpt><trkpt lat="43.04787730843913" lon="2.228866880820061"><ele>174.0</ele><time>2026-03-22T15:13:23Z</time></trkpt><trkpt lat="43.04787759927835" lon="2.228743790767482"><ele>173.79999999999998</ele><time>2026-03-22T15:13:24Z</time></trkpt><trkpt lat="43.047877886612376" lon="2.228622190421104"><ele>173.6</ele><time>2026-03-22T15:13:25Z</time></trkpt><trkpt lat="43.047879512813104" lon="2.228483204561727"><ele>173.4</ele><time>2026-03-22T15:13:26Z</time></trkpt><trkpt lat="43.04788301149848" lon="2.2283274848305616"><ele>173.2</ele><time>2026-03-22T15:13:27Z</time></trkpt><trkpt lat="43.04788542950657" lon="2.2281939225509744"><ele>173.0</ele><time>2026-03-22T15:13:28Z</time></trkpt><trkpt lat="43.047888759400266" lon="2.228069623650086"><ele>173.0</ele><time>2026-03-22T15:13:29Z</time></trkpt><trkpt lat="43.04789224226733" lon="2.2279278910702995"><ele>173.0</ele><time>2026-03-22T15:13:30Z</time></trkpt><trkpt lat="43.0478993754706" lon="2.2277845091283295"><ele>173.0</ele><time>2026-03-22T15:13:31Z</time></trkpt><trkpt lat="43.04790797323462" lon="2.2276399286100297"><ele>173.0</ele><time>2026-03-22T15:13:32Z</time></trkpt><trkpt lat="43.0479219629859" lon="2.227492584359883"><ele>173.0</ele><time>2026-03-22T15:13:33Z</time></trkpt><trkpt lat="43.04794326133787" lon="2.2273316618961974"><ele>173.25</ele><time>2026-03-22T15:13:34Z</time></trkpt><trkpt lat="43.047964959743446" lon="2.2271754391539362"><ele>173.5</ele><time>2026-03-22T15:13:35Z</time></trkpt><trkpt lat="43.04798689360032" lon="2.227018560465312"><ele>173.75</ele><time>2026-03-22T15:13:36Z</time></trkpt><trkpt lat="43.048010407675704" lon="2.226850379428559"><ele>174.0</ele><time>2026-03-22T15:13:37Z</time></trkpt><trkpt lat="43.04803280395015" lon="2.2266901932320744"><ele>174.0</ele><time>2026-03-22T15:13:38Z</time></trkpt><trkpt lat="43.04805265921072" lon="2.226548181363738"><ele>174.0</ele><time>2026-03-22T15:13:39Z</time></trkpt><trkpt lat="43.048074560880266" lon="2.2263915326710273"><ele>174.0</ele><time>2026-03-22T15:13:40Z</time></trkpt><trkpt lat="43.04809755900463" lon="2.226227042053021"><ele>174.0</ele><time>2026-03-22T15:13:41Z</time></trkpt><trkpt lat="43.04811862123411" lon="2.22607640017694"><ele>174.2</ele><time>2026-03-22T15:13:42Z</time></trkpt><trkpt lat="43.048139778875736" lon="2.225928395957045"><ele>174.39999999999998</ele><time>2026-03-22T15:13:43Z</time></trkpt><trkpt lat="43.0481772559885" lon="2.2257834356517248"><ele>174.6</ele><time>2026-03-22T15:13:44Z</time></trkpt><trkpt lat="43.04818299882628" lon="2.225638702536871"><ele>174.8</ele><time>2026-03-22T15:13:45Z</time></trkpt><trkpt lat="43.04820337574304" lon="2.225508838479541"><ele>175.0</ele><time>2026-03-22T15:13:46Z</time></trkpt><trkpt lat="43.048227194654785" lon="2.2253662275032084"><ele>175.0</ele><time>2026-03-22T15:13:47Z</time></trkpt><trkpt lat="43.04825459201522" lon="2.225217660796727"><ele>175.0</ele><time>2026-03-22T15:13:48Z</time></trkpt><trkpt lat="43.0482859843638" lon="2.2250844798616964"><ele>175.0</ele><time>2026-03-22T15:13:49Z</time></trkpt><trkpt lat="43.04832297899594" lon="2.22496105164339"><ele>175.0</ele><time>2026-03-22T15:13:50Z</time></trkpt><trkpt lat="43.04836503004553" lon="2.2248373405508843"><ele>175.0</ele><time>2026-03-22T15:13:51Z</time></trkpt><trkpt lat="43.0484212032187" lon="2.2247031201391367"><ele>174.5</ele><time>2026-03-22T15:13:52Z</time></trkpt><trkpt lat="43.048487611245164" lon="2.2245594990649766"><ele>174.0</ele><time>2026-03-22T15:13:53Z</time></trkpt><trkpt lat="43.0485565805473" lon="2.2244218915051874"><ele>173.5</ele><time>2026-03-22T15:13:54Z</time></trkpt><trkpt lat="43.04863742609482" lon="2.2242801297536583"><ele>173.0</ele><time>2026-03-22T15:13:55Z</time></trkpt><trkpt lat="43.04871617384236" lon="2.2241454965625547"><ele>173.0</ele><time>2026-03-22T15:13:56Z</time></trkpt><trkpt lat="43.0487897566242" lon="2.2240224337551906"><ele>173.0</ele><time>2026-03-22T15:13:57Z</time></trkpt><trkpt lat="43.04886520224146" lon="2.2238992737331804"><ele>173.0</ele><time>2026-03-22T15:13:58Z</time></trkpt><trkpt lat="43.048951845650606" lon="2.2237781789263327"><ele>173.0</ele><time>2026-03-22T15:13:59Z</time></trkpt><trkpt lat="43.049039717123016" lon="2.2236787318742643"><ele>172.0</ele><time>2026-03-22T15:14:00Z</time></trkpt><trkpt lat="43.04914155251012" lon="2.223606683736647"><ele>171.0</ele><time>2026-03-22T15:14:01Z</time></trkpt><trkpt lat="43.04924079079847" lon="2.2235133819655784"><ele>170.0</ele><time>2026-03-22T15:14:02Z</time></trkpt><trkpt lat="43.04934165704626" lon="2.2234252956563276"><ele>169.0</ele><time>2026-03-22T15:14:03Z</time></trkpt><trkpt lat="43.04943110440349" lon="2.223347592668578"><ele>169.0</ele><time>2026-03-22T15:14:04Z</time></trkpt><trkpt lat="43.04951300037015" lon="2.2232911635880264"><ele>169.0</ele><time>2026-03-22T15:14:05Z</time></trkpt><trkpt lat="43.0495904308883" lon="2.2232344586303254"><ele>169.0</ele><time>2026-03-22T15:14:06Z</time></trkpt><trkpt lat="43.04967083600572" lon="2.2231633184353483"><ele>169.0</ele><time>2026-03-22T15:14:07Z</time></trkpt><trkpt lat="43.04976759929664" lon="2.223083783969733"><ele>169.0</ele><time>2026-03-22T15:14:08Z</time></trkpt><trkpt lat="43.049865140301904" lon="2.22299988176628"><ele>168.5</ele><time>2026-03-22T15:14:08.999Z</time></trkpt><trkpt lat="43.049991901152886" lon="2.2229092975727642"><ele>168.0</ele><time>2026-03-22T15:14:09.999Z</time></trkpt><trkpt lat="43.0501147801774" lon="2.2228348644683376"><ele>167.5</ele><time>2026-03-22T15:14:10.999Z</time></trkpt><trkpt lat="43.05022900905213" lon="2.2227655878889827"><ele>167.0</ele><time>2026-03-22T15:14:11.999Z</time></trkpt><trkpt lat="43.05034303941769" lon="2.2226972406926437"><ele>167.0</ele><time>2026-03-22T15:14:12.999Z</time></trkpt><trkpt lat="43.05047127411475" lon="2.222610633321135"><ele>167.0</ele><time>2026-03-22T15:14:13.999Z</time></trkpt><trkpt lat="43.05059174223461" lon="2.222538185278906"><ele>167.0</ele><time>2026-03-22T15:14:14.999Z</time></trkpt><trkpt lat="43.05069878858437" lon="2.2224780706344993"><ele>167.0</ele><time>2026-03-22T15:14:15.999Z</time></trkpt><trkpt lat="43.05079869598813" lon="2.22243238447773"><ele>167.2</ele><time>2026-03-22T15:14:16.999Z</time></trkpt><trkpt lat="43.05089453182279" lon="2.2223808424725786"><ele>167.39999999999998</ele><time>2026-03-22T15:14:17.999Z</time></trkpt><trkpt lat="43.05100045318854" lon="2.2223321142803063"><ele>167.60000000000002</ele><time>2026-03-22T15:14:18.999Z</time></trkpt><trkpt lat="43.05110034671226" lon="2.222288520363163"><ele>167.8</ele><time>2026-03-22T15:14:19.999Z</time></trkpt><trkpt lat="43.05119079253231" lon="2.222247551341337"><ele>168.0</ele><time>2026-03-22T15:14:20.999Z</time></trkpt><trkpt lat="43.05128371214541" lon="2.2222018503960137"><ele>168.0</ele><time>2026-03-22T15:14:21.999Z</time></trkpt><trkpt lat="43.051377121372184" lon="2.22216303529225"><ele>168.0</ele><time>2026-03-22T15:14:22.999Z</time></trkpt><trkpt lat="43.05147459899289" lon="2.22212894721475"><ele>168.0</ele><time>2026-03-22T15:14:23.999Z</time></trkpt><trkpt lat="43.051535616799015" lon="2.222040266568039"><ele>168.0</ele><time>2026-03-22T15:14:24.999Z</time></trkpt><trkpt lat="43.05160523242827" lon="2.2220069776973093"><ele>168.0</ele><time>2026-03-22T15:14:25.999Z</time></trkpt><trkpt lat="43.05168524824818" lon="2.221969450775149"><ele>168.0</ele><time>2026-03-22T15:14:27.999Z</time></trkpt><trkpt lat="43.051745159689794" lon="2.221941358197821"><ele>168.0</ele><time>2026-03-22T15:14:33.999Z</time></trkpt><trkpt lat="43.051824029288525" lon="2.2218586209579296"><ele>168.0</ele><time>2026-03-22T15:14:38.999Z</time></trkpt><trkpt lat="43.05178078253514" lon="2.2217459303461116"><ele>168.0</ele><time>2026-03-22T15:14:40.999Z</time></trkpt><trkpt lat="43.05173319129913" lon="2.2216487306070145"><ele>168.0</ele><time>2026-03-22T15:14:41.999Z</time></trkpt><trkpt lat="43.05169818021089" lon="2.221545880767174"><ele>168.0</ele><time>2026-03-22T15:14:42.999Z</time></trkpt><trkpt lat="43.05165722273445" lon="2.2214701455389174"><ele>168.0</ele><time>2026-03-22T15:14:43.999Z</time></trkpt><trkpt lat="43.05161964946844" lon="2.2213880564525477"><ele>168.4</ele><time>2026-03-22T15:14:44.999Z</time></trkpt><trkpt lat="43.05156135944501" lon="2.221255885116078"><ele>168.8</ele><time>2026-03-22T15:14:46.999Z</time></trkpt><trkpt lat="43.05148625807609" lon="2.221097392558642"><ele>169.2</ele><time>2026-03-22T15:14:48.999Z</time></trkpt><trkpt lat="43.05143188362084" lon="2.2209859251952553"><ele>169.6</ele><time>2026-03-22T15:14:49.999Z</time></trkpt><trkpt lat="43.05138638175337" lon="2.220900324002544"><ele>170.0</ele><time>2026-03-22T15:14:50.999Z</time></trkpt><trkpt lat="43.05130583329869" lon="2.220779788746234"><ele>170.0</ele><time>2026-03-22T15:14:52.999Z</time></trkpt><trkpt lat="43.05124360356753" lon="2.2207422394074423"><ele>170.0</ele><time>2026-03-22T15:14:54Z</time></trkpt><trkpt lat="43.05117731403793" lon="2.2207258276182604"><ele>170.0</ele><time>2026-03-22T15:14:55Z</time></trkpt><trkpt lat="43.05105505617135" lon="2.2206748304662516"><ele>170.0</ele><time>2026-03-22T15:14:57Z</time></trkpt><trkpt lat="43.05097899467487" lon="2.2206502319959833"><ele>170.0</ele><time>2026-03-22T15:14:58Z</time></trkpt><trkpt lat="43.050906054974206" lon="2.2206286231539676"><ele>170.0</ele><time>2026-03-22T15:14:59Z</time></trkpt><trkpt lat="43.050832189738756" lon="2.2206028220435763"><ele>170.5</ele><time>2026-03-22T15:15:00Z</time></trkpt><trkpt lat="43.050747432262725" lon="2.220594817551001"><ele>171.0</ele><time>2026-03-22T15:15:01Z</time></trkpt><trkpt lat="43.05066791263299" lon="2.220561449896377"><ele>171.5</ele><time>2026-03-22T15:15:02Z</time></trkpt><trkpt lat="43.05057551464383" lon="2.220527885983726"><ele>172.0</ele><time>2026-03-22T15:15:03Z</time></trkpt><trkpt lat="43.050499749054254" lon="2.220494190257318"><ele>172.5</ele><time>2026-03-22T15:15:04Z</time></trkpt><trkpt lat="43.050413420401846" lon="2.220464808544883"><ele>173.0</ele><time>2026-03-22T15:15:05Z</time></trkpt><trkpt lat="43.05033341425616" lon="2.2204326439646556"><ele>173.0</ele><time>2026-03-22T15:15:06Z</time></trkpt><trkpt lat="43.0502492298258" lon="2.220399937337063"><ele>173.0</ele><time>2026-03-22T15:15:07Z</time></trkpt><trkpt lat="43.0501660207255" lon="2.2203651368259654"><ele>173.0</ele><time>2026-03-22T15:15:08Z</time></trkpt><trkpt lat="43.05008590460476" lon="2.2203337843067197"><ele>173.0</ele><time>2026-03-22T15:15:09Z</time></trkpt><trkpt lat="43.05000571899823" lon="2.220305067043027"><ele>173.0</ele><time>2026-03-22T15:15:10Z</time></trkpt><trkpt lat="43.04992214905048" lon="2.2202723481186153"><ele>173.0</ele><time>2026-03-22T15:15:11Z</time></trkpt><trkpt lat="43.04984696680661" lon="2.2202371504252714"><ele>173.16666666666666</ele><time>2026-03-22T15:15:12Z</time></trkpt><trkpt lat="43.04977583348769" lon="2.220213134014885"><ele>173.33333333333331</ele><time>2026-03-22T15:15:13Z</time></trkpt><trkpt lat="43.049710711089205" lon="2.2201907900931053"><ele>173.5</ele><time>2026-03-22T15:15:14Z</time></trkpt><trkpt lat="43.04961886533251" lon="2.2201561626019486"><ele>173.66666666666666</ele><time>2026-03-22T15:15:16Z</time></trkpt><trkpt lat="43.04952652956599" lon="2.220125965381807"><ele>173.83333333333334</ele><time>2026-03-22T15:15:18Z</time></trkpt><trkpt lat="43.04945425223375" lon="2.2200817057029854"><ele>174.0</ele><time>2026-03-22T15:15:20Z</time></trkpt><trkpt lat="43.04938753790172" lon="2.2200214456917475"><ele>174.0</ele><time>2026-03-22T15:15:23Z</time></trkpt><trkpt lat="43.04942781098308" lon="2.2198390390657408"><ele>174.0</ele><time>2026-03-22T15:15:25Z</time></trkpt><trkpt lat="43.0494711998017" lon="2.219763154177595"><ele>174.0</ele><time>2026-03-22T15:15:26Z</time></trkpt><trkpt lat="43.04953219717705" lon="2.2196827069362786"><ele>174.0</ele><time>2026-03-22T15:15:27Z</time></trkpt><trkpt lat="43.049610062588314" lon="2.2195977391960553"><ele>174.0</ele><time>2026-03-22T15:15:28Z</time></trkpt><trkpt lat="43.04968617333783" lon="2.2195061974367083"><ele>174.0</ele><time>2026-03-22T15:15:29Z</time></trkpt><trkpt lat="43.049755731307584" lon="2.2194275815937083"><ele>174.0</ele><time>2026-03-22T15:15:30Z</time></trkpt><trkpt lat="43.049813581775254" lon="2.2193553364754806"><ele>174.0</ele><time>2026-03-22T15:15:31Z</time></trkpt><trkpt lat="43.04988169819296" lon="2.219273007504829"><ele>174.0</ele><time>2026-03-22T15:15:32Z</time></trkpt><trkpt lat="43.04993529963261" lon="2.2191814026272976"><ele>174.0</ele><time>2026-03-22T15:15:33Z</time></trkpt><trkpt lat="43.05001437605071" lon="2.219089482817784"><ele>174.0</ele><time>2026-03-22T15:15:34Z</time></trkpt><trkpt lat="43.05010515852393" lon="2.2190262408463264"><ele>174.0</ele><time>2026-03-22T15:15:35Z</time></trkpt><trkpt lat="43.05017037095986" lon="2.2189548557865737"><ele>174.0</ele><time>2026-03-22T15:15:36Z</time></trkpt><trkpt lat="43.050223548724105" lon="2.218846271426747"><ele>174.0</ele><time>2026-03-22T15:15:37Z</time></trkpt><trkpt lat="43.0503098099256" lon="2.2187529988403196"><ele>174.0</ele><time>2026-03-22T15:15:38Z</time></trkpt><trkpt lat="43.05039496738678" lon="2.218681846501466"><ele>174.0</ele><time>2026-03-22T15:15:39Z</time></trkpt><trkpt lat="43.05047925028343" lon="2.2186277330545656"><ele>174.0</ele><time>2026-03-22T15:15:40Z</time></trkpt><trkpt lat="43.05056991428798" lon="2.218578598146004"><ele>174.0</ele><time>2026-03-22T15:15:41Z</time></trkpt><trkpt lat="43.05063279736305" lon="2.2185130565925446"><ele>174.0</ele><time>2026-03-22T15:15:42Z</time></trkpt><trkpt lat="43.05071868821273" lon="2.218444584924295"><ele>174.0</ele><time>2026-03-22T15:15:44Z</time></trkpt><trkpt lat="43.05077334702638" lon="2.2183242521275526"><ele>174.0</ele><time>2026-03-22T15:15:46Z</time></trkpt><trkpt lat="43.05081872828487" lon="2.218232085878779"><ele>174.0</ele><time>2026-03-22T15:15:47Z</time></trkpt><trkpt lat="43.05085365871988" lon="2.218140861786822"><ele>174.0</ele><time>2026-03-22T15:15:48Z</time></trkpt><trkpt lat="43.05089136518955" lon="2.2180288934203416"><ele>174.0</ele><time>2026-03-22T15:15:49Z</time></trkpt><trkpt lat="43.05094591198104" lon="2.2179000559574997"><ele>174.0</ele><time>2026-03-22T15:15:50Z</time></trkpt><trkpt lat="43.05106181962835" lon="2.217814594186767"><ele>174.0</ele><time>2026-03-22T15:15:51Z</time></trkpt><trkpt lat="43.05114266487327" lon="2.2177132658137464"><ele>174.0</ele><time>2026-03-22T15:15:52Z</time></trkpt><trkpt lat="43.05121431514613" lon="2.2176214593469132"><ele>174.0</ele><time>2026-03-22T15:15:53Z</time></trkpt><trkpt lat="43.05129284974231" lon="2.217515477175383"><ele>174.0</ele><time>2026-03-22T15:15:54Z</time></trkpt><trkpt lat="43.05138640916801" lon="2.217394779752826"><ele>174.0</ele><time>2026-03-22T15:15:55Z</time></trkpt><trkpt lat="43.05147707953628" lon="2.2172761104255727"><ele>174.2</ele><time>2026-03-22T15:15:56Z</time></trkpt><trkpt lat="43.05155576398523" lon="2.2171717968516704"><ele>174.39999999999998</ele><time>2026-03-22T15:15:57Z</time></trkpt><trkpt lat="43.051628782204" lon="2.2170804744106833"><ele>174.6</ele><time>2026-03-22T15:15:58Z</time></trkpt><trkpt lat="43.05169109967978" lon="2.2169955240830888"><ele>174.8</ele><time>2026-03-22T15:15:59Z</time></trkpt><trkpt lat="43.05174572390129" lon="2.2169215216806575"><ele>175.0</ele><time>2026-03-22T15:16:00Z</time></trkpt><trkpt lat="43.05179903899975" lon="2.216846386162669"><ele>175.0</ele><time>2026-03-22T15:16:01Z</time></trkpt><trkpt lat="43.05184337214353" lon="2.216780358493017"><ele>175.0</ele><time>2026-03-22T15:16:02Z</time></trkpt><trkpt lat="43.051906677984995" lon="2.216692847554181"><ele>175.0</ele><time>2026-03-22T15:16:03Z</time></trkpt><trkpt lat="43.05198158129212" lon="2.2165803821179044"><ele>175.0</ele><time>2026-03-22T15:16:04Z</time></trkpt><trkpt lat="43.05204137185009" lon="2.216495760794381"><ele>175.0</ele><time>2026-03-22T15:16:05Z</time></trkpt><trkpt lat="43.05212966321352" lon="2.216368239284775"><ele>176.5</ele><time>2026-03-22T15:16:07Z</time></trkpt><trkpt lat="43.0521676357837" lon="2.216294215916792"><ele>178.0</ele><time>2026-03-22T15:16:08Z</time></trkpt><trkpt lat="43.052210996242174" lon="2.21622054917688"><ele>179.5</ele><time>2026-03-22T15:16:09Z</time></trkpt><trkpt lat="43.05225642677074" lon="2.2161397708062314"><ele>181.0</ele><time>2026-03-22T15:16:10Z</time></trkpt><trkpt lat="43.05231456103065" lon="2.216046005372127"><ele>182.5</ele><time>2026-03-22T15:16:11Z</time></trkpt><trkpt lat="43.05237592704198" lon="2.2159490650703857"><ele>184.0</ele><time>2026-03-22T15:16:12Z</time></trkpt><trkpt lat="43.052428671582014" lon="2.2158686826133107"><ele>183.2</ele><time>2026-03-22T15:16:13Z</time></trkpt><trkpt lat="43.05248131925608" lon="2.2157855846346197"><ele>182.39999999999998</ele><time>2026-03-22T15:16:14Z</time></trkpt><trkpt lat="43.05253772174966" lon="2.2156961456745807"><ele>181.6</ele><time>2026-03-22T15:16:15Z</time></trkpt><trkpt lat="43.052593706893184" lon="2.2156046954166255"><ele>180.8</ele><time>2026-03-22T15:16:16Z</time></trkpt><trkpt lat="43.05266103041863" lon="2.2155048740649295"><ele>180.0</ele><time>2026-03-22T15:16:17Z</time></trkpt><trkpt lat="43.05273043358674" lon="2.2153945437656684"><ele>180.0</ele><time>2026-03-22T15:16:18Z</time></trkpt><trkpt lat="43.05279825021447" lon="2.2152870729608316"><ele>180.0</ele><time>2026-03-22T15:16:19Z</time></trkpt><trkpt lat="43.05286639540953" lon="2.215182675999496"><ele>180.0</ele><time>2026-03-22T15:16:20Z</time></trkpt><trkpt lat="43.05293660352816" lon="2.2150742508615386"><ele>180.0</ele><time>2026-03-22T15:16:21Z</time></trkpt><trkpt lat="43.05300438555682" lon="2.214967339453451"><ele>180.0</ele><time>2026-03-22T15:16:22Z</time></trkpt><trkpt lat="43.05306479212188" lon="2.2148730748564023"><ele>180.8</ele><time>2026-03-22T15:16:23Z</time></trkpt><trkpt lat="43.05312317477952" lon="2.214785624185021"><ele>181.6</ele><time>2026-03-22T15:16:23.999Z</time></trkpt><trkpt lat="43.05317868587398" lon="2.2147019723354955"><ele>182.39999999999998</ele><time>2026-03-22T15:16:24.999Z</time></trkpt><trkpt lat="43.05323411210516" lon="2.214610823197998"><ele>183.2</ele><time>2026-03-22T15:16:25.999Z</time></trkpt><trkpt lat="43.053298634599145" lon="2.2145134134199687"><ele>184.0</ele><time>2026-03-22T15:16:26.999Z</time></trkpt><trkpt lat="43.05336624746867" lon="2.214408588488523"><ele>183.39999999999998</ele><time>2026-03-22T15:16:27.999Z</time></trkpt><trkpt lat="43.0534374241255" lon="2.214297757611804"><ele>182.8</ele><time>2026-03-22T15:16:28.999Z</time></trkpt><trkpt lat="43.053514882453804" lon="2.214196996527259"><ele>182.2</ele><time>2026-03-22T15:16:29.999Z</time></trkpt><trkpt lat="43.05359226508504" lon="2.2141121380521938"><ele>181.60000000000002</ele><time>2026-03-22T15:16:30.999Z</time></trkpt><trkpt lat="43.053664358424435" lon="2.2140316821595243"><ele>181.0</ele><time>2026-03-22T15:16:31.999Z</time></trkpt><trkpt lat="43.053736335225004" lon="2.2139540803304465"><ele>181.0</ele><time>2026-03-22T15:16:32.999Z</time></trkpt><trkpt lat="43.053810190384986" lon="2.2138853254889685"><ele>181.0</ele><time>2026-03-22T15:16:33.999Z</time></trkpt><trkpt lat="43.053877186930336" lon="2.213813764701325"><ele>181.0</ele><time>2026-03-22T15:16:34.999Z</time></trkpt><trkpt lat="43.05393982890509" lon="2.2137404734765544"><ele>181.0</ele><time>2026-03-22T15:16:35.999Z</time></trkpt><trkpt lat="43.05400459460739" lon="2.213676293969288"><ele>181.0</ele><time>2026-03-22T15:16:36.999Z</time></trkpt><trkpt lat="43.05408830956038" lon="2.213591453178337"><ele>181.0</ele><time>2026-03-22T15:16:37.999Z</time></trkpt><trkpt lat="43.05416103321115" lon="2.213521543864657"><ele>179.83333333333334</ele><time>2026-03-22T15:16:38.999Z</time></trkpt><trkpt lat="43.05423069428143" lon="2.2134561174588057"><ele>178.66666666666669</ele><time>2026-03-22T15:16:39.999Z</time></trkpt><trkpt lat="43.05430219654493" lon="2.2134062161086985"><ele>177.5</ele><time>2026-03-22T15:16:40.999Z</time></trkpt><trkpt lat="43.054329413822245" lon="2.213302257254006"><ele>176.33333333333334</ele><time>2026-03-22T15:16:41.999Z</time></trkpt><trkpt lat="43.05438221650885" lon="2.213246104139315"><ele>175.16666666666666</ele><time>2026-03-22T15:16:42.999Z</time></trkpt><trkpt lat="43.054453075833614" lon="2.213245129963803"><ele>174.0</ele><time>2026-03-22T15:16:43.999Z</time></trkpt><trkpt lat="43.05453693268496" lon="2.2132208541901743"><ele>174.0</ele><time>2026-03-22T15:16:44.999Z</time></trkpt><trkpt lat="43.054617420439314" lon="2.2131956758674476"><ele>174.0</ele><time>2026-03-22T15:16:45.999Z</time></trkpt><trkpt lat="43.054697764471875" lon="2.213164089461152"><ele>174.0</ele><time>2026-03-22T15:16:46.999Z</time></trkpt><trkpt lat="43.05479053484443" lon="2.213136185159692"><ele>174.0</ele><time>2026-03-22T15:16:47.999Z</time></trkpt><trkpt lat="43.05487739753207" lon="2.2131298366754524"><ele>174.0</ele><time>2026-03-22T15:16:48.999Z</time></trkpt><trkpt lat="43.05496703703962" lon="2.213142109947993"><ele>174.0</ele><time>2026-03-22T15:16:49.999Z</time></trkpt><trkpt lat="43.055065913023974" lon="2.2131664820663666"><ele>174.0</ele><time>2026-03-22T15:16:50.999Z</time></trkpt><trkpt lat="43.05515672481877" lon="2.2131904579722934"><ele>174.0</ele><time>2026-03-22T15:16:51.999Z</time></trkpt><trkpt lat="43.055255267288615" lon="2.213202074208596"><ele>174.0</ele><time>2026-03-22T15:16:52.999Z</time></trkpt><trkpt lat="43.05536494941855" lon="2.213219567514677"><ele>174.0</ele><time>2026-03-22T15:16:53.999Z</time></trkpt><trkpt lat="43.05546576611164" lon="2.213254072088398"><ele>174.0</ele><time>2026-03-22T15:16:54.999Z</time></trkpt><trkpt lat="43.05555546058629" lon="2.213276735094712"><ele>174.0</ele><time>2026-03-22T15:16:55.999Z</time></trkpt><trkpt lat="43.05563872241313" lon="2.213300189711169"><ele>174.0</ele><time>2026-03-22T15:16:56.999Z</time></trkpt><trkpt lat="43.05571864573903" lon="2.213323558119552"><ele>174.0</ele><time>2026-03-22T15:16:57.999Z</time></trkpt><trkpt lat="43.05578283618627" lon="2.213349850020453"><ele>174.0</ele><time>2026-03-22T15:16:58.999Z</time></trkpt><trkpt lat="43.05588634195274" lon="2.213384886428838"><ele>174.0</ele><time>2026-03-22T15:17:01Z</time></trkpt><trkpt lat="43.05595448204314" lon="2.213405927512276"><ele>174.0</ele><time>2026-03-22T15:17:03Z</time></trkpt><trkpt lat="43.05602760409846" lon="2.213421167606939"><ele>173.6</ele><time>2026-03-22T15:17:06Z</time></trkpt><trkpt lat="43.05611645910314" lon="2.213406250725298"><ele>173.2</ele><time>2026-03-22T15:18:50.999Z</time></trkpt><trkpt lat="43.056195332399085" lon="2.2134282392439304"><ele>172.79999999999998</ele><time>2026-03-22T15:18:51.999Z</time></trkpt><trkpt lat="43.05629954567497" lon="2.2134575974210318"><ele>172.39999999999998</ele><time>2026-03-22T15:18:52.999Z</time></trkpt><trkpt lat="43.056402111920995" lon="2.2134889291244604"><ele>172.0</ele><time>2026-03-22T15:18:53.999Z</time></trkpt><trkpt lat="43.0565094927345" lon="2.2135217316093234"><ele>172.0</ele><time>2026-03-22T15:18:54.999Z</time></trkpt><trkpt lat="43.05658812253633" lon="2.2135457512475383"><ele>172.0</ele><time>2026-03-22T15:18:55.999Z</time></trkpt><trkpt lat="43.05666243982231" lon="2.2135476805554797"><ele>172.0</ele><time>2026-03-22T15:18:56.999Z</time></trkpt><trkpt lat="43.05672707986759" lon="2.213569827201983"><ele>172.0</ele><time>2026-03-22T15:18:57.999Z</time></trkpt><trkpt lat="43.056857134929515" lon="2.213613113312992"><ele>172.0</ele><time>2026-03-22T15:18:59.999Z</time></trkpt><trkpt lat="43.0569619087638" lon="2.2136637002756814"><ele>171.6</ele><time>2026-03-22T15:19:00.999Z</time></trkpt><trkpt lat="43.05708060167454" lon="2.2137178313302184"><ele>171.2</ele><time>2026-03-22T15:19:01.999Z</time></trkpt><trkpt lat="43.05717442906119" lon="2.2137459394627115"><ele>170.8</ele><time>2026-03-22T15:19:02.999Z</time></trkpt><trkpt lat="43.05727474853701" lon="2.2137464441395673"><ele>170.4</ele><time>2026-03-22T15:19:03.999Z</time></trkpt><trkpt lat="43.05739751414948" lon="2.2137170803531494"><ele>170.0</ele><time>2026-03-22T15:19:04.999Z</time></trkpt><trkpt lat="43.057529930344124" lon="2.2136713870010114"><ele>169.5</ele><time>2026-03-22T15:19:06Z</time></trkpt><trkpt lat="43.05765725946603" lon="2.2136343566245507"><ele>169.0</ele><time>2026-03-22T15:19:07Z</time></trkpt><trkpt lat="43.057780645077635" lon="2.213607233482783"><ele>168.5</ele><time>2026-03-22T15:19:08Z</time></trkpt><trkpt lat="43.05788974246703" lon="2.2135921820464346"><ele>168.0</ele><time>2026-03-22T15:19:09Z</time></trkpt><trkpt lat="43.05799110194377" lon="2.2135929744248517"><ele>168.0</ele><time>2026-03-22T15:19:10Z</time></trkpt><trkpt lat="43.058106655843" lon="2.2136007377322398"><ele>168.0</ele><time>2026-03-22T15:19:11Z</time></trkpt><trkpt lat="43.05822241081563" lon="2.213615831076874"><ele>168.0</ele><time>2026-03-22T15:19:12Z</time></trkpt><trkpt lat="43.05832962328142" lon="2.213635376613829"><ele>168.0</ele><time>2026-03-22T15:19:13Z</time></trkpt><trkpt lat="43.058420746949906" lon="2.213656131301403"><ele>168.0</ele><time>2026-03-22T15:19:14Z</time></trkpt><trkpt lat="43.05850318837399" lon="2.2136828803079536"><ele>169.2</ele><time>2026-03-22T15:19:15Z</time></trkpt><trkpt lat="43.05858433689573" lon="2.213701448177529"><ele>170.4</ele><time>2026-03-22T15:19:16Z</time></trkpt><trkpt lat="43.05868836961686" lon="2.2137376558782513"><ele>171.6</ele><time>2026-03-22T15:19:18Z</time></trkpt><trkpt lat="43.058750718862406" lon="2.2137844938946696"><ele>172.79999999999998</ele><time>2026-03-22T15:19:20Z</time></trkpt><trkpt lat="43.05881903748256" lon="2.2138159608170085"><ele>174.0</ele><time>2026-03-22T15:19:24Z</time></trkpt><trkpt lat="43.05888247554653" lon="2.213964133388496"><ele>174.0</ele><time>2026-03-22T15:19:26Z</time></trkpt><trkpt lat="43.058946717399635" lon="2.213955887905622"><ele>174.0</ele><time>2026-03-22T15:19:28Z</time></trkpt><trkpt lat="43.059010417617024" lon="2.213927951655281"><ele>174.0</ele><time>2026-03-22T15:19:32Z</time></trkpt><trkpt lat="43.05905687238633" lon="2.213856710612495"><ele>174.0</ele><time>2026-03-22T15:23:53Z</time></trkpt><trkpt lat="43.059113105762" lon="2.213798654877839"><ele>174.0</ele><time>2026-03-22T15:23:55Z</time></trkpt><trkpt lat="43.05924977793435" lon="2.2138158889462916"><ele>174.0</ele><time>2026-03-22T15:23:57Z</time></trkpt><trkpt lat="43.05932941679301" lon="2.213832875096356"><ele>176.0</ele><time>2026-03-22T15:23:58Z</time></trkpt><trkpt lat="43.059457978070434" lon="2.2138514584665256"><ele>178.0</ele><time>2026-03-22T15:24:00Z</time></trkpt><trkpt lat="43.0595478807947" lon="2.2138627874109065"><ele>180.0</ele><time>2026-03-22T15:24:01Z</time></trkpt><trkpt lat="43.05962981904747" lon="2.2138760209537964"><ele>182.0</ele><time>2026-03-22T15:24:02Z</time></trkpt><trkpt lat="43.05971611245741" lon="2.2138818383705354"><ele>184.0</ele><time>2026-03-22T15:24:03Z</time></trkpt><trkpt lat="43.05982659838546" lon="2.2138899513958465"><ele>185.25</ele><time>2026-03-22T15:24:04Z</time></trkpt><trkpt lat="43.05995147505565" lon="2.2139243475626196"><ele>186.5</ele><time>2026-03-22T15:24:05Z</time></trkpt><trkpt lat="43.06005753774888" lon="2.213940274926249"><ele>187.75</ele><time>2026-03-22T15:24:06Z</time></trkpt><trkpt lat="43.06017832270978" lon="2.2139725838128648"><ele>189.0</ele><time>2026-03-22T15:24:07Z</time></trkpt><trkpt lat="43.06029785673374" lon="2.2140234100811584"><ele>184.0</ele><time>2026-03-22T15:24:08Z</time></trkpt><trkpt lat="43.06041352853209" lon="2.2140866474238217"><ele>179.0</ele><time>2026-03-22T15:24:09Z</time></trkpt><trkpt lat="43.06052180536243" lon="2.2141533645596136"><ele>174.0</ele><time>2026-03-22T15:24:10Z</time></trkpt><trkpt lat="43.06062673644536" lon="2.2142308616535553"><ele>169.0</ele><time>2026-03-22T15:24:11Z</time></trkpt><trkpt lat="43.060731067255226" lon="2.214307120933481"><ele>170.0</ele><time>2026-03-22T15:24:12Z</time></trkpt><trkpt lat="43.06083456147069" lon="2.2143819955658985"><ele>171.0</ele><time>2026-03-22T15:24:13Z</time></trkpt><trkpt lat="43.0609422425603" lon="2.2144514856371402"><ele>172.0</ele><time>2026-03-22T15:24:14Z</time></trkpt><trkpt lat="43.061055619533036" lon="2.2145152346103636"><ele>173.0</ele><time>2026-03-22T15:24:15Z</time></trkpt><trkpt lat="43.06117172597908" lon="2.21457204219035"><ele>173.0</ele><time>2026-03-22T15:24:16Z</time></trkpt><trkpt lat="43.061292157744376" lon="2.2146276874488215"><ele>173.0</ele><time>2026-03-22T15:24:17Z</time></trkpt><trkpt lat="43.06141270670035" lon="2.2146804466543033"><ele>173.0</ele><time>2026-03-22T15:24:18Z</time></trkpt><trkpt lat="43.06152687392685" lon="2.2147496725973452"><ele>173.0</ele><time>2026-03-22T15:24:19Z</time></trkpt><trkpt lat="43.06164211252355" lon="2.214805372063882"><ele>171.66666666666666</ele><time>2026-03-22T15:24:20Z</time></trkpt><trkpt lat="43.06173855294495" lon="2.2148519857488607"><ele>170.33333333333331</ele><time>2026-03-22T15:24:21Z</time></trkpt><trkpt lat="43.061831108408434" lon="2.214894536538279"><ele>169.0</ele><time>2026-03-22T15:24:22Z</time></trkpt><trkpt lat="43.06191649668677" lon="2.2149291522626657"><ele>167.66666666666666</ele><time>2026-03-22T15:24:23Z</time></trkpt><trkpt lat="43.061988007299675" lon="2.2149589479856595"><ele>166.33333333333334</ele><time>2026-03-22T15:24:24Z</time></trkpt><trkpt lat="43.06205017914118" lon="2.2149911631644366"><ele>165.0</ele><time>2026-03-22T15:24:25Z</time></trkpt><trkpt lat="43.06211153600432" lon="2.215024703075573"><ele>166.25</ele><time>2026-03-22T15:24:26Z</time></trkpt><trkpt lat="43.06221050339085" lon="2.214759402741355"><ele>167.5</ele><time>2026-03-22T15:24:27Z</time></trkpt><trkpt lat="43.062286131601866" lon="2.2146691373183316"><ele>168.75</ele><time>2026-03-22T15:24:28Z</time></trkpt><trkpt lat="43.0623609990979" lon="2.214586598294097"><ele>170.0</ele><time>2026-03-22T15:24:29Z</time></trkpt><trkpt lat="43.06244147808443" lon="2.2144983952220625"><ele>170.0</ele><time>2026-03-22T15:24:30Z</time></trkpt><trkpt lat="43.06257640883796" lon="2.2144877695983887"><ele>170.0</ele><time>2026-03-22T15:24:31Z</time></trkpt><trkpt lat="43.0626961605718" lon="2.214430401432498"><ele>170.0</ele><time>2026-03-22T15:24:32Z</time></trkpt><trkpt lat="43.062798276826136" lon="2.2143836763495215"><ele>170.0</ele><time>2026-03-22T15:24:33Z</time></trkpt><trkpt lat="43.06290603632223" lon="2.214328927194264"><ele>170.0</ele><time>2026-03-22T15:24:34Z</time></trkpt><trkpt lat="43.063018535485696" lon="2.2142773690528816"><ele>170.0</ele><time>2026-03-22T15:24:35Z</time></trkpt><trkpt lat="43.06312836866368" lon="2.214229071214798"><ele>170.0</ele><time>2026-03-22T15:24:36Z</time></trkpt><trkpt lat="43.063235714741495" lon="2.214178648216132"><ele>170.0</ele><time>2026-03-22T15:24:37Z</time></trkpt><trkpt lat="43.063344011737" lon="2.2141341949873548"><ele>170.75</ele><time>2026-03-22T15:24:38Z</time></trkpt><trkpt lat="43.06346082502927" lon="2.2140788634611157"><ele>171.5</ele><time>2026-03-22T15:24:39Z</time></trkpt><trkpt lat="43.06357930111442" lon="2.214020544082206"><ele>172.25</ele><time>2026-03-22T15:24:40Z</time></trkpt><trkpt lat="43.06370040902379" lon="2.2139631928662395"><ele>173.0</ele><time>2026-03-22T15:24:41Z</time></trkpt><trkpt lat="43.06381719109073" lon="2.213908639043914"><ele>173.0</ele><time>2026-03-22T15:24:42Z</time></trkpt><trkpt lat="43.06393887762493" lon="2.213849940865235"><ele>173.0</ele><time>2026-03-22T15:24:43Z</time></trkpt><trkpt lat="43.06406486207718" lon="2.213790791647091"><ele>173.0</ele><time>2026-03-22T15:24:44Z</time></trkpt><trkpt lat="43.06418867808772" lon="2.213731431097464"><ele>173.0</ele><time>2026-03-22T15:24:45Z</time></trkpt><trkpt lat="43.06431185672479" lon="2.213669214486964"><ele>172.5</ele><time>2026-03-22T15:24:46Z</time></trkpt><trkpt lat="43.06443128518143" lon="2.213615426634773"><ele>172.0</ele><time>2026-03-22T15:24:47Z</time></trkpt><trkpt lat="43.06454631037078" lon="2.213562186872461"><ele>171.5</ele><time>2026-03-22T15:24:48Z</time></trkpt><trkpt lat="43.064661025618314" lon="2.2135084139216064"><ele>171.0</ele><time>2026-03-22T15:24:49Z</time></trkpt><trkpt lat="43.064774793782775" lon="2.213460723790894"><ele>171.0</ele><time>2026-03-22T15:24:50Z</time></trkpt><trkpt lat="43.06488843292105" lon="2.213408795646276"><ele>171.0</ele><time>2026-03-22T15:24:51Z</time></trkpt><trkpt lat="43.065007285697945" lon="2.2133507909490904"><ele>171.0</ele><time>2026-03-22T15:24:52Z</time></trkpt><trkpt lat="43.06513144703482" lon="2.2132906549381177"><ele>171.0</ele><time>2026-03-22T15:24:53Z</time></trkpt><trkpt lat="43.06525708139279" lon="2.213240118926056"><ele>170.25</ele><time>2026-03-22T15:24:54Z</time></trkpt><trkpt lat="43.06537870458857" lon="2.2131777629901697"><ele>169.5</ele><time>2026-03-22T15:24:55Z</time></trkpt><trkpt lat="43.06550281492202" lon="2.2131272860052946"><ele>168.75</ele><time>2026-03-22T15:24:56Z</time></trkpt><trkpt lat="43.06562447027554" lon="2.213067362613102"><ele>168.0</ele><time>2026-03-22T15:24:57Z</time></trkpt><trkpt lat="43.0657675869481" lon="2.2130075217034757"><ele>170.66666666666666</ele><time>2026-03-22T15:24:58Z</time></trkpt><trkpt lat="43.06593063460047" lon="2.2129385508819985"><ele>173.33333333333331</ele><time>2026-03-22T15:24:58.999Z</time></trkpt><trkpt lat="43.0660679183415" lon="2.2128806384838726"><ele>176.0</ele><time>2026-03-22T15:24:59.999Z</time></trkpt><trkpt lat="43.06622111731438" lon="2.2128252828727457"><ele>176.0</ele><time>2026-03-22T15:25:00.999Z</time></trkpt><trkpt lat="43.066370924239905" lon="2.212755328912429"><ele>176.0</ele><time>2026-03-22T15:25:01.999Z</time></trkpt><trkpt lat="43.066516464153246" lon="2.2126906446110124"><ele>176.0</ele><time>2026-03-22T15:25:02.999Z</time></trkpt><trkpt lat="43.06665865285311" lon="2.212626991339506"><ele>175.5</ele><time>2026-03-22T15:25:03.999Z</time></trkpt><trkpt lat="43.0667881986813" lon="2.212553083710472"><ele>175.0</ele><time>2026-03-22T15:25:04.999Z</time></trkpt><trkpt lat="43.06691935219217" lon="2.2124927482845154"><ele>174.5</ele><time>2026-03-22T15:25:05.999Z</time></trkpt><trkpt lat="43.06704049554747" lon="2.2124362567706304"><ele>174.0</ele><time>2026-03-22T15:25:06.999Z</time></trkpt><trkpt lat="43.067151596344324" lon="2.212385538984069"><ele>174.0</ele><time>2026-03-22T15:25:07.999Z</time></trkpt><trkpt lat="43.06725155784709" lon="2.2123437656297695"><ele>174.0</ele><time>2026-03-22T15:25:08.999Z</time></trkpt><trkpt lat="43.067361471109415" lon="2.2122957902163343"><ele>174.0</ele><time>2026-03-22T15:25:09.999Z</time></trkpt><trkpt lat="43.06747009049874" lon="2.2122443442988877"><ele>174.0</ele><time>2026-03-22T15:25:10.999Z</time></trkpt><trkpt lat="43.0675621446002" lon="2.21219760263662"><ele>174.0</ele><time>2026-03-22T15:25:11.999Z</time></trkpt><trkpt lat="43.06763015457955" lon="2.212121623446545"><ele>174.2</ele><time>2026-03-22T15:25:12.999Z</time></trkpt><trkpt lat="43.067682259965636" lon="2.211997409361798"><ele>174.39999999999998</ele><time>2026-03-22T15:25:13.999Z</time></trkpt><trkpt lat="43.0677154524492" lon="2.211846004468938"><ele>174.6</ele><time>2026-03-22T15:25:14.999Z</time></trkpt><trkpt lat="43.06772546174668" lon="2.2117005980008764"><ele>174.8</ele><time>2026-03-22T15:25:15.999Z</time></trkpt><trkpt lat="43.0677045260169" lon="2.2115415731041685"><ele>175.0</ele><time>2026-03-22T15:25:16.999Z</time></trkpt><trkpt lat="43.06769524987897" lon="2.2113803580243365"><ele>175.25</ele><time>2026-03-22T15:25:17.999Z</time></trkpt><trkpt lat="43.067686538617025" lon="2.211208358667712"><ele>175.5</ele><time>2026-03-22T15:25:18.999Z</time></trkpt><trkpt lat="43.067674655477" lon="2.2110244407936275"><ele>175.75</ele><time>2026-03-22T15:25:19.999Z</time></trkpt><trkpt lat="43.067658957837985" lon="2.210825775716994"><ele>176.0</ele><time>2026-03-22T15:25:20.999Z</time></trkpt><trkpt lat="43.06764722343338" lon="2.210625712443814"><ele>176.75</ele><time>2026-03-22T15:25:21.999Z</time></trkpt><trkpt lat="43.06763485708416" lon="2.2104250272790575"><ele>177.5</ele><time>2026-03-22T15:25:22.999Z</time></trkpt><trkpt lat="43.067622037115676" lon="2.210230183785086"><ele>178.25</ele><time>2026-03-22T15:25:24Z</time></trkpt><trkpt lat="43.06761353788714" lon="2.210039524463341"><ele>179.0</ele><time>2026-03-22T15:25:25Z</time></trkpt><trkpt lat="43.06761212471121" lon="2.2098505932624803"><ele>179.5</ele><time>2026-03-22T15:25:26Z</time></trkpt><trkpt lat="43.067625739220524" lon="2.2096645398709844"><ele>180.0</ele><time>2026-03-22T15:25:27Z</time></trkpt><trkpt lat="43.06765941668147" lon="2.2094869595787396"><ele>180.5</ele><time>2026-03-22T15:25:28Z</time></trkpt><trkpt lat="43.06772080018087" lon="2.2093051623330964"><ele>181.0</ele><time>2026-03-22T15:25:29Z</time></trkpt><trkpt lat="43.06781181321482" lon="2.2091220284389093"><ele>181.5</ele><time>2026-03-22T15:25:30Z</time></trkpt><trkpt lat="43.06789607557092" lon="2.2089585690488103"><ele>182.0</ele><time>2026-03-22T15:25:31Z</time></trkpt><trkpt lat="43.06796796721821" lon="2.2088129946932185"><ele>182.5</ele><time>2026-03-22T15:25:32Z</time></trkpt><trkpt lat="43.06803944758121" lon="2.2086641560635965"><ele>183.0</ele><time>2026-03-22T15:25:33Z</time></trkpt><trkpt lat="43.06811151694802" lon="2.2085112569551573"><ele>183.0</ele><time>2026-03-22T15:25:34Z</time></trkpt><trkpt lat="43.068182183141836" lon="2.2083655082202314"><ele>183.0</ele><time>2026-03-22T15:25:35Z</time></trkpt><trkpt lat="43.068250588423965" lon="2.2082141297105746"><ele>183.0</ele><time>2026-03-22T15:25:36Z</time></trkpt><trkpt lat="43.06831235659668" lon="2.2080812970571704"><ele>183.0</ele><time>2026-03-22T15:25:37Z</time></trkpt><trkpt lat="43.068370937870434" lon="2.20795597674973"><ele>183.60000000000002</ele><time>2026-03-22T15:25:38Z</time></trkpt><trkpt lat="43.06842823933512" lon="2.2078206326624605"><ele>184.20000000000002</ele><time>2026-03-22T15:25:39Z</time></trkpt><trkpt lat="43.06848229598126" lon="2.2076973502080963"><ele>184.8</ele><time>2026-03-22T15:25:40Z</time></trkpt><trkpt lat="43.068528076844245" lon="2.2075956557494756"><ele>185.4</ele><time>2026-03-22T15:25:41Z</time></trkpt><trkpt lat="43.06857000542706" lon="2.2074990540243977"><ele>186.0</ele><time>2026-03-22T15:25:42Z</time></trkpt><trkpt lat="43.06860311051771" lon="2.2074200077395085"><ele>186.0</ele><time>2026-03-22T15:25:43Z</time></trkpt><trkpt lat="43.068626908895226" lon="2.2073227545663854"><ele>186.0</ele><time>2026-03-22T15:25:44Z</time></trkpt><trkpt lat="43.06868062233834" lon="2.207230923532353"><ele>186.0</ele><time>2026-03-22T15:25:45Z</time></trkpt><trkpt lat="43.06870433662264" lon="2.2071243997401235"><ele>186.0</ele><time>2026-03-22T15:25:46Z</time></trkpt><trkpt lat="43.06872941280681" lon="2.2069904850229607"><ele>186.0</ele><time>2026-03-22T15:25:47Z</time></trkpt><trkpt lat="43.068792450620066" lon="2.2069076544134973"><ele>186.0</ele><time>2026-03-22T15:25:48Z</time></trkpt><trkpt lat="43.06885797890083" lon="2.206821259497253"><ele>186.0</ele><time>2026-03-22T15:25:49Z</time></trkpt><trkpt lat="43.06895879363097" lon="2.20678976734191"><ele>186.0</ele><time>2026-03-22T15:25:50Z</time></trkpt><trkpt lat="43.06897936746153" lon="2.2066859724098595"><ele>186.0</ele><time>2026-03-22T15:25:51Z</time></trkpt><trkpt lat="43.06899952147023" lon="2.206537214870168"><ele>186.0</ele><time>2026-03-22T15:25:52Z</time></trkpt><trkpt lat="43.06906567675335" lon="2.2063873723003287"><ele>186.0</ele><time>2026-03-22T15:25:53Z</time></trkpt><trkpt lat="43.06915105659792" lon="2.2062196781222343"><ele>186.33333333333334</ele><time>2026-03-22T15:25:54Z</time></trkpt><trkpt lat="43.06925207081585" lon="2.2060165491783246"><ele>186.66666666666669</ele><time>2026-03-22T15:25:55Z</time></trkpt><trkpt lat="43.06935691926273" lon="2.20582232435068"><ele>187.0</ele><time>2026-03-22T15:25:56Z</time></trkpt><trkpt lat="43.06945531615194" lon="2.2056306067147853"><ele>187.33333333333334</ele><time>2026-03-22T15:25:57Z</time></trkpt><trkpt lat="43.06955837022355" lon="2.205421286087285"><ele>187.66666666666666</ele><time>2026-03-22T15:25:58Z</time></trkpt><trkpt lat="43.069659997183166" lon="2.205208577526345"><ele>188.0</ele><time>2026-03-22T15:25:59Z</time></trkpt><trkpt lat="43.069762728018524" lon="2.2049998614857746"><ele>188.66666666666666</ele><time>2026-03-22T15:26:00Z</time></trkpt><trkpt lat="43.06986030721115" lon="2.204797815616012"><ele>189.33333333333334</ele><time>2026-03-22T15:26:01Z</time></trkpt><trkpt lat="43.0699565146012" lon="2.204598536156978"><ele>190.0</ele><time>2026-03-22T15:26:02Z</time></trkpt><trkpt lat="43.070045638494136" lon="2.2044215604366753"><ele>192.0</ele><time>2026-03-22T15:26:03Z</time></trkpt><trkpt lat="43.07013073767215" lon="2.204238651972056"><ele>194.0</ele><time>2026-03-22T15:26:04Z</time></trkpt><trkpt lat="43.07022058255277" lon="2.204045835832789"><ele>196.0</ele><time>2026-03-22T15:26:05Z</time></trkpt><trkpt lat="43.07030883929701" lon="2.203857973064082"><ele>196.66666666666666</ele><time>2026-03-22T15:26:06Z</time></trkpt><trkpt lat="43.070398761388205" lon="2.2036682495610402"><ele>197.33333333333331</ele><time>2026-03-22T15:26:07Z</time></trkpt><trkpt lat="43.070483360722434" lon="2.2034864288724685"><ele>198.0</ele><time>2026-03-22T15:26:08Z</time></trkpt><trkpt lat="43.07058429356191" lon="2.2032719065968798"><ele>198.66666666666669</ele><time>2026-03-22T15:26:09Z</time></trkpt><trkpt lat="43.07070121067491" lon="2.2030260981280874"><ele>199.33333333333334</ele><time>2026-03-22T15:26:10Z</time></trkpt><trkpt lat="43.070826453876066" lon="2.2027711709925626"><ele>200.0</ele><time>2026-03-22T15:26:11Z</time></trkpt><trkpt lat="43.07095032336165" lon="2.202526132765877"><ele>202.0</ele><time>2026-03-22T15:26:12Z</time></trkpt><trkpt lat="43.07107364270742" lon="2.202285061794031"><ele>204.0</ele><time>2026-03-22T15:26:13Z</time></trkpt><trkpt lat="43.071197632815384" lon="2.202051725191363"><ele>206.0</ele><time>2026-03-22T15:26:14Z</time></trkpt><trkpt lat="43.071325714268774" lon="2.201819178890127"><ele>206.0</ele><time>2026-03-22T15:26:15Z</time></trkpt><trkpt lat="43.071461929826846" lon="2.2015885393245815"><ele>206.0</ele><time>2026-03-22T15:26:16Z</time></trkpt><trkpt lat="43.07160266427739" lon="2.2013580025639756"><ele>206.0</ele><time>2026-03-22T15:26:17Z</time></trkpt><trkpt lat="43.071743439431614" lon="2.201130032825769"><ele>209.33333333333334</ele><time>2026-03-22T15:26:18Z</time></trkpt><trkpt lat="43.07187805584976" lon="2.2009154868975123"><ele>212.66666666666669</ele><time>2026-03-22T15:26:19Z</time></trkpt><trkpt lat="43.072006096734555" lon="2.200717261457578"><ele>216.0</ele><time>2026-03-22T15:26:20Z</time></trkpt><trkpt lat="43.07213034789015" lon="2.200530638919708"><ele>217.33333333333331</ele><time>2026-03-22T15:26:21Z</time></trkpt><trkpt lat="43.07225459544361" lon="2.2003516802680463"><ele>218.66666666666666</ele><time>2026-03-22T15:26:22Z</time></trkpt><trkpt lat="43.07237059152935" lon="2.2001771145724662"><ele>220.0</ele><time>2026-03-22T15:26:23Z</time></trkpt><trkpt lat="43.07248122975668" lon="2.2000019410124656"><ele>224.33333333333331</ele><time>2026-03-22T15:26:24Z</time></trkpt><trkpt lat="43.072594899234446" lon="2.1998263573720642"><ele>228.66666666666669</ele><time>2026-03-22T15:26:25Z</time></trkpt><trkpt lat="43.07270866422478" lon="2.1996543095909034"><ele>233.0</ele><time>2026-03-22T15:26:26Z</time></trkpt><trkpt lat="43.07281913336266" lon="2.1994866026355337"><ele>233.0</ele><time>2026-03-22T15:26:27Z</time></trkpt><trkpt lat="43.07292726229657" lon="2.1993221171794697"><ele>233.0</ele><time>2026-03-22T15:26:28Z</time></trkpt><trkpt lat="43.07303472944383" lon="2.1991548545901294"><ele>233.0</ele><time>2026-03-22T15:26:29Z</time></trkpt><trkpt lat="43.07314431117308" lon="2.198985872216296"><ele>235.33333333333334</ele><time>2026-03-22T15:26:30Z</time></trkpt><trkpt lat="43.07325752792921" lon="2.198810540788821"><ele>237.66666666666669</ele><time>2026-03-22T15:26:31Z</time></trkpt><trkpt lat="43.073379233301" lon="2.1986275779935855"><ele>240.0</ele><time>2026-03-22T15:26:32Z</time></trkpt><trkpt lat="43.07350796476447" lon="2.198429974119059"><ele>240.66666666666669</ele><time>2026-03-22T15:26:33Z</time></trkpt><trkpt lat="43.073643876747965" lon="2.198233428780704"><ele>241.33333333333334</ele><time>2026-03-22T15:26:34Z</time></trkpt><trkpt lat="43.07378351334629" lon="2.198067033793439"><ele>242.0</ele><time>2026-03-22T15:26:35Z</time></trkpt><trkpt lat="43.07392372383486" lon="2.197916066890839"><ele>242.0</ele><time>2026-03-22T15:26:36Z</time></trkpt><trkpt lat="43.07407076384857" lon="2.197789170546283"><ele>242.0</ele><time>2026-03-22T15:26:37Z</time></trkpt><trkpt lat="43.07422804864104" lon="2.197677097966347"><ele>242.0</ele><time>2026-03-22T15:26:38Z</time></trkpt><trkpt lat="43.07438944720281" lon="2.197580783073378"><ele>242.0</ele><time>2026-03-22T15:26:39Z</time></trkpt><trkpt lat="43.074553545965344" lon="2.1974958623214573"><ele>242.0</ele><time>2026-03-22T15:26:40Z</time></trkpt><trkpt lat="43.07472057557989" lon="2.1974214305483333"><ele>242.0</ele><time>2026-03-22T15:26:41Z</time></trkpt><trkpt lat="43.0748961104669" lon="2.197352269048694"><ele>241.33333333333334</ele><time>2026-03-22T15:26:42Z</time></trkpt><trkpt lat="43.0750742375742" lon="2.197286956093422"><ele>240.66666666666669</ele><time>2026-03-22T15:26:43Z</time></trkpt><trkpt lat="43.07525605418894" lon="2.197224971120071"><ele>240.0</ele><time>2026-03-22T15:26:44Z</time></trkpt><trkpt lat="43.07543237580918" lon="2.1971525702296932"><ele>240.0</ele><time>2026-03-22T15:26:45Z</time></trkpt><trkpt lat="43.075592068844415" lon="2.197062194379454"><ele>240.0</ele><time>2026-03-22T15:26:46Z</time></trkpt><trkpt lat="43.075756662471434" lon="2.1969484080288257"><ele>240.0</ele><time>2026-03-22T15:26:47Z</time></trkpt><trkpt lat="43.07590015967695" lon="2.1968207704082285"><ele>238.33333333333331</ele><time>2026-03-22T15:26:48Z</time></trkpt><trkpt lat="43.0760382297039" lon="2.1966815373580255"><ele>236.66666666666666</ele><time>2026-03-22T15:26:49Z</time></trkpt><trkpt lat="43.076163116272916" lon="2.19652263362288"><ele>235.0</ele><time>2026-03-22T15:26:50Z</time></trkpt><trkpt lat="43.07628240266798" lon="2.1963327036492815"><ele>235.0</ele><time>2026-03-22T15:26:51Z</time></trkpt><trkpt lat="43.07637951339597" lon="2.196102360343629"><ele>235.0</ele><time>2026-03-22T15:26:52Z</time></trkpt><trkpt lat="43.0764853637792" lon="2.195878275954704"><ele>235.0</ele><time>2026-03-22T15:26:53Z</time></trkpt><trkpt lat="43.07657925132083" lon="2.195672128634109"><ele>231.0</ele><time>2026-03-22T15:26:54Z</time></trkpt><trkpt lat="43.07667020830088" lon="2.195471126295568"><ele>227.0</ele><time>2026-03-22T15:26:55Z</time></trkpt><trkpt lat="43.07676431921883" lon="2.195263154023834"><ele>223.0</ele><time>2026-03-22T15:26:56Z</time></trkpt><trkpt lat="43.07685577378118" lon="2.195057760500645"><ele>223.0</ele><time>2026-03-22T15:26:57Z</time></trkpt><trkpt lat="43.076956527391744" lon="2.1948537139719977"><ele>223.0</ele><time>2026-03-22T15:26:58Z</time></trkpt><trkpt lat="43.0770715241145" lon="2.194654593817722"><ele>223.0</ele><time>2026-03-22T15:26:59Z</time></trkpt><trkpt lat="43.07719720638705" lon="2.1944744150978415"><ele>222.0</ele><time>2026-03-22T15:27:00Z</time></trkpt><trkpt lat="43.07733776737301" lon="2.1943401060150856"><ele>221.0</ele><time>2026-03-22T15:27:01Z</time></trkpt><trkpt lat="43.07748555227545" lon="2.194201937012758"><ele>220.0</ele><time>2026-03-22T15:27:02Z</time></trkpt><trkpt lat="43.07764014336836" lon="2.194081337482373"><ele>215.66666666666666</ele><time>2026-03-22T15:27:03Z</time></trkpt><trkpt lat="43.07780748237188" lon="2.193966052950098"><ele>211.33333333333331</ele><time>2026-03-22T15:27:04Z</time></trkpt><trkpt lat="43.07797074171086" lon="2.19386981671249"><ele>207.0</ele><time>2026-03-22T15:27:05Z</time></trkpt><trkpt lat="43.07814467260492" lon="2.1937682692683773"><ele>206.33333333333331</ele><time>2026-03-22T15:27:06Z</time></trkpt><trkpt lat="43.07832098806565" lon="2.19366601640942"><ele>205.66666666666666</ele><time>2026-03-22T15:27:07Z</time></trkpt><trkpt lat="43.07849408522675" lon="2.1935643997081136"><ele>205.0</ele><time>2026-03-22T15:27:07.999Z</time></trkpt><trkpt lat="43.07867362481523" lon="2.1934602954576605"><ele>205.0</ele><time>2026-03-22T15:27:08.999Z</time></trkpt><trkpt lat="43.07884247250742" lon="2.193362810735262"><ele>205.0</ele><time>2026-03-22T15:27:09.999Z</time></trkpt><trkpt lat="43.07901239174998" lon="2.1932674053442947"><ele>205.0</ele><time>2026-03-22T15:27:10.999Z</time></trkpt><trkpt lat="43.079182200608535" lon="2.1931705014760814"><ele>202.33333333333331</ele><time>2026-03-22T15:27:11.999Z</time></trkpt><trkpt lat="43.079348190753905" lon="2.1930694252179195"><ele>199.66666666666669</ele><time>2026-03-22T15:27:12.999Z</time></trkpt><trkpt lat="43.079501137276075" lon="2.1929727536851717"><ele>197.0</ele><time>2026-03-22T15:27:13.999Z</time></trkpt><trkpt lat="43.0796592088955" lon="2.1928776999087343"><ele>197.0</ele><time>2026-03-22T15:27:14.999Z</time></trkpt><trkpt lat="43.07982178398758" lon="2.1927797826704816"><ele>197.0</ele><time>2026-03-22T15:27:15.999Z</time></trkpt><trkpt lat="43.0799880101062" lon="2.1926843226962527"><ele>197.0</ele><time>2026-03-22T15:27:16.999Z</time></trkpt><trkpt lat="43.080150416214416" lon="2.192584689385478"><ele>196.66666666666669</ele><time>2026-03-22T15:27:17.999Z</time></trkpt><trkpt lat="43.08031757027147" lon="2.1924820742080193"><ele>196.33333333333331</ele><time>2026-03-22T15:27:18.999Z</time></trkpt><trkpt lat="43.0804934055982" lon="2.192378120823117"><ele>196.0</ele><time>2026-03-22T15:27:19.999Z</time></trkpt><trkpt lat="43.08066222916348" lon="2.1922806188364956"><ele>194.33333333333331</ele><time>2026-03-22T15:27:20.999Z</time></trkpt><trkpt lat="43.08082228437649" lon="2.192179984217945"><ele>192.66666666666666</ele><time>2026-03-22T15:27:21.999Z</time></trkpt><trkpt lat="43.08097934942728" lon="2.1920851647374437"><ele>191.0</ele><time>2026-03-22T15:27:22.999Z</time></trkpt><trkpt lat="43.08113241318333" lon="2.1919906877098265"><ele>191.0</ele><time>2026-03-22T15:27:23.999Z</time></trkpt><trkpt lat="43.08129090371845" lon="2.1918904655546068"><ele>191.0</ele><time>2026-03-22T15:27:24.999Z</time></trkpt><trkpt lat="43.081438044491954" lon="2.191800444207867"><ele>191.0</ele><time>2026-03-22T15:27:25.999Z</time></trkpt><trkpt lat="43.08158408988941" lon="2.1917030785982847"><ele>190.33333333333331</ele><time>2026-03-22T15:27:26.999Z</time></trkpt><trkpt lat="43.08172260937789" lon="2.191595636422343"><ele>189.66666666666666</ele><time>2026-03-22T15:27:27.999Z</time></trkpt><trkpt lat="43.08186491762101" lon="2.191454384409589"><ele>189.0</ele><time>2026-03-22T15:27:28.999Z</time></trkpt><trkpt lat="43.0819989521589" lon="2.1912935133238487"><ele>188.66666666666666</ele><time>2026-03-22T15:27:30Z</time></trkpt><trkpt lat="43.082131079712056" lon="2.191118884758322"><ele>188.33333333333331</ele><time>2026-03-22T15:27:31Z</time></trkpt><trkpt lat="43.08226608257932" lon="2.190950341207903"><ele>188.0</ele><time>2026-03-22T15:27:32Z</time></trkpt><trkpt lat="43.08239219666958" lon="2.190781313668754"><ele>187.0</ele><time>2026-03-22T15:27:33Z</time></trkpt><trkpt lat="43.08250269315166" lon="2.1906007251030046"><ele>186.0</ele><time>2026-03-22T15:27:34Z</time></trkpt><trkpt lat="43.082637937577125" lon="2.1904478193670216"><ele>185.0</ele><time>2026-03-22T15:27:35Z</time></trkpt><trkpt lat="43.08276155132097" lon="2.190278156126922"><ele>185.0</ele><time>2026-03-22T15:27:36Z</time></trkpt><trkpt lat="43.08288419335264" lon="2.19010792673639"><ele>185.0</ele><time>2026-03-22T15:27:37Z</time></trkpt><trkpt lat="43.08300956390264" lon="2.189939637757466"><ele>185.0</ele><time>2026-03-22T15:27:38Z</time></trkpt><trkpt lat="43.08313170872121" lon="2.189776730990235"><ele>186.0</ele><time>2026-03-22T15:27:39Z</time></trkpt><trkpt lat="43.08324137732235" lon="2.1895994475116005"><ele>187.0</ele><time>2026-03-22T15:27:40Z</time></trkpt><trkpt lat="43.08335551240818" lon="2.1894431702687105"><ele>188.0</ele><time>2026-03-22T15:27:41Z</time></trkpt><trkpt lat="43.083462313569974" lon="2.1893003644662272"><ele>185.66666666666666</ele><time>2026-03-22T15:27:42Z</time></trkpt><trkpt lat="43.083571348373155" lon="2.189149818646787"><ele>183.33333333333334</ele><time>2026-03-22T15:27:43Z</time></trkpt><trkpt lat="43.08368376339963" lon="2.1889977239826335"><ele>181.0</ele><time>2026-03-22T15:27:44Z</time></trkpt><trkpt lat="43.08381127576704" lon="2.188851286159288"><ele>181.0</ele><time>2026-03-22T15:27:45Z</time></trkpt><trkpt lat="43.083931721074286" lon="2.188687827914477"><ele>181.0</ele><time>2026-03-22T15:27:46Z</time></trkpt><trkpt lat="43.08404873635754" lon="2.18852295399109"><ele>181.0</ele><time>2026-03-22T15:27:47Z</time></trkpt><trkpt lat="43.08417360485135" lon="2.1883554116392334"><ele>180.33333333333334</ele><time>2026-03-22T15:27:48Z</time></trkpt><trkpt lat="43.08432081979845" lon="2.1881537917493246"><ele>179.66666666666666</ele><time>2026-03-22T15:27:49Z</time></trkpt><trkpt lat="43.08445340523791" lon="2.1879759317370064"><ele>179.0</ele><time>2026-03-22T15:27:50Z</time></trkpt><trkpt lat="43.08458430876085" lon="2.1877935440595118"><ele>179.0</ele><time>2026-03-22T15:27:51Z</time></trkpt><trkpt lat="43.08471494781943" lon="2.187607296180338"><ele>179.0</ele><time>2026-03-22T15:27:52Z</time></trkpt><trkpt lat="43.0848333016908" lon="2.187435539774749"><ele>179.0</ele><time>2026-03-22T15:27:53Z</time></trkpt><trkpt lat="43.08495222292327" lon="2.1872604039187253"><ele>178.33333333333331</ele><time>2026-03-22T15:27:54Z</time></trkpt><trkpt lat="43.085059744189444" lon="2.1870733963498914"><ele>177.66666666666666</ele><time>2026-03-22T15:27:55Z</time></trkpt><trkpt lat="43.085163235148855" lon="2.1868921398303263"><ele>177.0</ele><time>2026-03-22T15:27:56Z</time></trkpt><trkpt lat="43.08526408986437" lon="2.186737303997405"><ele>177.0</ele><time>2026-03-22T15:27:57Z</time></trkpt><trkpt lat="43.08537931293985" lon="2.1865770338374095"><ele>177.0</ele><time>2026-03-22T15:27:58Z</time></trkpt><trkpt lat="43.085514186023175" lon="2.186450037223696"><ele>177.0</ele><time>2026-03-22T15:27:59Z</time></trkpt><trkpt lat="43.08568874136013" lon="2.1863560632295704"><ele>178.0</ele><time>2026-03-22T15:28:00Z</time></trkpt><trkpt lat="43.085871745999476" lon="2.1862912892166277"><ele>179.0</ele><time>2026-03-22T15:28:01Z</time></trkpt><trkpt lat="43.08603785912787" lon="2.186274044442437"><ele>180.0</ele><time>2026-03-22T15:28:02Z</time></trkpt><trkpt lat="43.08621263441905" lon="2.186285045515432"><ele>180.0</ele><time>2026-03-22T15:28:03Z</time></trkpt><trkpt lat="43.08638637550459" lon="2.1862942756525"><ele>180.0</ele><time>2026-03-22T15:28:04Z</time></trkpt><trkpt lat="43.08655474076196" lon="2.186305667967975"><ele>180.0</ele><time>2026-03-22T15:28:05Z</time></trkpt><trkpt lat="43.08672116505206" lon="2.1863218171313554"><ele>180.66666666666666</ele><time>2026-03-22T15:28:06Z</time></trkpt><trkpt lat="43.08689190031653" lon="2.1863524486179426"><ele>181.33333333333331</ele><time>2026-03-22T15:28:07Z</time></trkpt><trkpt lat="43.087060667631896" lon="2.186395435364347"><ele>182.0</ele><time>2026-03-22T15:28:08Z</time></trkpt><trkpt lat="43.08723031506029" lon="2.186454636691401"><ele>181.0</ele><time>2026-03-22T15:28:09Z</time></trkpt><trkpt lat="43.08740319767076" lon="2.186520827155366"><ele>180.0</ele><time>2026-03-22T15:28:10Z</time></trkpt><trkpt lat="43.08756582947054" lon="2.186581841703386"><ele>179.0</ele><time>2026-03-22T15:28:11Z</time></trkpt><trkpt lat="43.08770713954271" lon="2.186635060201267"><ele>180.75</ele><time>2026-03-22T15:28:12Z</time></trkpt><trkpt lat="43.087842105047706" lon="2.186680013133373"><ele>182.5</ele><time>2026-03-22T15:28:13Z</time></trkpt><trkpt lat="43.08797752848728" lon="2.1867175450315894"><ele>184.25</ele><time>2026-03-22T15:28:14Z</time></trkpt><trkpt lat="43.08810488025598" lon="2.1867414880464495"><ele>186.0</ele><time>2026-03-22T15:28:15Z</time></trkpt><trkpt lat="43.08823305391844" lon="2.186740318175816"><ele>188.33333333333331</ele><time>2026-03-22T15:28:16Z</time></trkpt><trkpt lat="43.08837966491732" lon="2.186705570367456"><ele>190.66666666666666</ele><time>2026-03-22T15:28:17Z</time></trkpt><trkpt lat="43.088532430003866" lon="2.186632315046544"><ele>193.0</ele><time>2026-03-22T15:28:18Z</time></trkpt><trkpt lat="43.088667689996015" lon="2.1865344922683834"><ele>194.66666666666666</ele><time>2026-03-22T15:28:19Z</time></trkpt><trkpt lat="43.08878469617825" lon="2.1864163982007336"><ele>196.33333333333331</ele><time>2026-03-22T15:28:20Z</time></trkpt><trkpt lat="43.08889361610342" lon="2.186264311575402"><ele>198.0</ele><time>2026-03-22T15:28:21Z</time></trkpt><trkpt lat="43.08899188252558" lon="2.1860946952261333"><ele>198.0</ele><time>2026-03-22T15:28:22Z</time></trkpt><trkpt lat="43.08908529336858" lon="2.1859016601645798"><ele>198.0</ele><time>2026-03-22T15:28:23Z</time></trkpt><trkpt lat="43.089168961239" lon="2.185716577620105"><ele>198.0</ele><time>2026-03-22T15:28:24Z</time></trkpt><trkpt lat="43.089254294420535" lon="2.1855211827521224"><ele>196.66666666666669</ele><time>2026-03-22T15:28:25Z</time></trkpt><trkpt lat="43.089345139276716" lon="2.1853175079355283"><ele>195.33333333333334</ele><time>2026-03-22T15:28:26Z</time></trkpt><trkpt lat="43.08945104712013" lon="2.1851113822099473"><ele>194.0</ele><time>2026-03-22T15:28:27Z</time></trkpt><trkpt lat="43.089559755391406" lon="2.1849133416939783"><ele>194.66666666666669</ele><time>2026-03-22T15:28:28Z</time></trkpt><trkpt lat="43.08967959187019" lon="2.1847267417783205"><ele>195.33333333333331</ele><time>2026-03-22T15:28:29Z</time></trkpt><trkpt lat="43.08980648898742" lon="2.184538478251843"><ele>196.0</ele><time>2026-03-22T15:28:30Z</time></trkpt><trkpt lat="43.08993552066692" lon="2.1843416069356647"><ele>192.66666666666666</ele><time>2026-03-22T15:28:31Z</time></trkpt><trkpt lat="43.09008046118792" lon="2.1841298332009482"><ele>189.33333333333331</ele><time>2026-03-22T15:28:32Z</time></trkpt><trkpt lat="43.09023277133503" lon="2.183906480385203"><ele>186.0</ele><time>2026-03-22T15:28:33Z</time></trkpt><trkpt lat="43.09038365191539" lon="2.183679210904374"><ele>186.0</ele><time>2026-03-22T15:28:34Z</time></trkpt><trkpt lat="43.09052863737029" lon="2.1834499183364975"><ele>186.0</ele><time>2026-03-22T15:28:35Z</time></trkpt><trkpt lat="43.09070604581036" lon="2.183198060133226"><ele>186.5</ele><time>2026-03-22T15:28:36Z</time></trkpt><trkpt lat="43.09087687897022" lon="2.182949434899509"><ele>187.0</ele><time>2026-03-22T15:28:37Z</time></trkpt><trkpt lat="43.0910342122567" lon="2.18272165241473"><ele>187.0</ele><time>2026-03-22T15:28:38Z</time></trkpt><trkpt lat="43.09120017311136" lon="2.1824614506793605"><ele>187.0</ele><time>2026-03-22T15:28:39Z</time></trkpt><trkpt lat="43.09139198944038" lon="2.182183933191831"><ele>188.5</ele><time>2026-03-22T15:28:40Z</time></trkpt><trkpt lat="43.09158868975132" lon="2.1818940292891673"><ele>190.0</ele><time>2026-03-22T15:28:41Z</time></trkpt><trkpt lat="43.09178835702835" lon="2.18160048879845"><ele>191.5</ele><time>2026-03-22T15:28:42Z</time></trkpt><trkpt lat="43.09200004755851" lon="2.1813006093209375"><ele>193.0</ele><time>2026-03-22T15:28:43Z</time></trkpt><trkpt lat="43.0922000745531" lon="2.181022347842579"><ele>193.0</ele><time>2026-03-22T15:28:44Z</time></trkpt><trkpt lat="43.09237549624451" lon="2.1807757662694733"><ele>193.0</ele><time>2026-03-22T15:28:45Z</time></trkpt><trkpt lat="43.09253336366928" lon="2.1805476522169247"><ele>194.33333333333331</ele><time>2026-03-22T15:28:46Z</time></trkpt><trkpt lat="43.092680375067566" lon="2.1803333284495974"><ele>195.66666666666669</ele><time>2026-03-22T15:28:47Z</time></trkpt><trkpt lat="43.09281308912157" lon="2.1801384434825684"><ele>197.0</ele><time>2026-03-22T15:28:48Z</time></trkpt><trkpt lat="43.09293807627061" lon="2.1799541697018605"><ele>196.33333333333334</ele><time>2026-03-22T15:28:49Z</time></trkpt><trkpt lat="43.093061951055134" lon="2.17977341028997"><ele>195.66666666666669</ele><time>2026-03-22T15:28:50Z</time></trkpt><trkpt lat="43.093167518525526" lon="2.179595076341593"><ele>195.0</ele><time>2026-03-22T15:28:51Z</time></trkpt><trkpt lat="43.09328716307967" lon="2.1794255151590303"><ele>194.66666666666669</ele><time>2026-03-22T15:28:52Z</time></trkpt><trkpt lat="43.09340188335277" lon="2.179259685818776"><ele>194.33333333333334</ele><time>2026-03-22T15:28:53Z</time></trkpt><trkpt lat="43.09352427394991" lon="2.179093790392391"><ele>194.0</ele><time>2026-03-22T15:28:54Z</time></trkpt><trkpt lat="43.09364582053058" lon="2.178926128563321"><ele>194.0</ele><time>2026-03-22T15:28:55Z</time></trkpt><trkpt lat="43.09375886494218" lon="2.1787705096595658"><ele>194.0</ele><time>2026-03-22T15:28:56Z</time></trkpt><trkpt lat="43.093866582521436" lon="2.1786186774173935"><ele>194.0</ele><time>2026-03-22T15:28:57Z</time></trkpt><trkpt lat="43.0939718270958" lon="2.178471909799003"><ele>194.0</ele><time>2026-03-22T15:28:58Z</time></trkpt><trkpt lat="43.09407489883772" lon="2.1783261565165337"><ele>194.0</ele><time>2026-03-22T15:28:59Z</time></trkpt><trkpt lat="43.09418168624084" lon="2.1781731819359953"><ele>194.0</ele><time>2026-03-22T15:29:00Z</time></trkpt><trkpt lat="43.094289347838476" lon="2.178014293557714"><ele>194.33333333333334</ele><time>2026-03-22T15:29:01Z</time></trkpt><trkpt lat="43.09440221475727" lon="2.1778496687592"><ele>194.66666666666669</ele><time>2026-03-22T15:29:01.999Z</time></trkpt><trkpt lat="43.094517910944234" lon="2.1776841702486776"><ele>195.0</ele><time>2026-03-22T15:29:02.999Z</time></trkpt><trkpt lat="43.09463225687998" lon="2.177518544439661"><ele>195.0</ele><time>2026-03-22T15:29:03.999Z</time></trkpt><trkpt lat="43.094744925887255" lon="2.1773570111374774"><ele>195.0</ele><time>2026-03-22T15:29:04.999Z</time></trkpt><trkpt lat="43.094859545377425" lon="2.1772050078009397"><ele>195.0</ele><time>2026-03-22T15:29:05.999Z</time></trkpt><trkpt lat="43.094961501825786" lon="2.1770572309799086"><ele>195.25</ele><time>2026-03-22T15:29:06.999Z</time></trkpt><trkpt lat="43.09506361642202" lon="2.176909210381205"><ele>195.5</ele><time>2026-03-22T15:29:07.999Z</time></trkpt><trkpt lat="43.09516926566938" lon="2.176760486674604"><ele>195.75</ele><time>2026-03-22T15:29:08.999Z</time></trkpt><trkpt lat="43.095270144245426" lon="2.1766139837684024"><ele>196.0</ele><time>2026-03-22T15:29:09.999Z</time></trkpt><trkpt lat="43.09536500515269" lon="2.1764762715847827"><ele>195.5</ele><time>2026-03-22T15:29:10.999Z</time></trkpt><trkpt lat="43.095453318301004" lon="2.1763486260067944"><ele>195.0</ele><time>2026-03-22T15:29:11.999Z</time></trkpt><trkpt lat="43.09553610050189" lon="2.1762287020243356"><ele>194.5</ele><time>2026-03-22T15:29:12.999Z</time></trkpt><trkpt lat="43.095623705732216" lon="2.1761021021794456"><ele>194.0</ele><time>2026-03-22T15:29:13.999Z</time></trkpt><trkpt lat="43.09571594863378" lon="2.1759662187634463"><ele>194.25</ele><time>2026-03-22T15:29:14.999Z</time></trkpt><trkpt lat="43.095812859788275" lon="2.175825714497415"><ele>194.5</ele><time>2026-03-22T15:29:15.999Z</time></trkpt><trkpt lat="43.09591030218886" lon="2.1756830643984393"><ele>194.75</ele><time>2026-03-22T15:29:16.999Z</time></trkpt><trkpt lat="43.09600132656842" lon="2.1755492328253685"><ele>195.0</ele><time>2026-03-22T15:29:17.999Z</time></trkpt><trkpt lat="43.096105412118405" lon="2.1753967805211936"><ele>195.0</ele><time>2026-03-22T15:29:18.999Z</time></trkpt><trkpt lat="43.09619508051387" lon="2.1752496876599268"><ele>195.0</ele><time>2026-03-22T15:29:19.999Z</time></trkpt><trkpt lat="43.09628062454138" lon="2.175108450579784"><ele>195.0</ele><time>2026-03-22T15:29:20.999Z</time></trkpt><trkpt lat="43.09636511550813" lon="2.17497740788051"><ele>195.0</ele><time>2026-03-22T15:29:21.999Z</time></trkpt><trkpt lat="43.09644919403281" lon="2.174862352060903"><ele>195.25</ele><time>2026-03-22T15:29:22.999Z</time></trkpt><trkpt lat="43.096536188882894" lon="2.1747460039237043"><ele>195.5</ele><time>2026-03-22T15:29:23.999Z</time></trkpt><trkpt lat="43.09661846766232" lon="2.1746185871867154"><ele>195.75</ele><time>2026-03-22T15:29:24.999Z</time></trkpt><trkpt lat="43.09669529686844" lon="2.1744994104559736"><ele>196.0</ele><time>2026-03-22T15:29:25.999Z</time></trkpt><trkpt lat="43.096763744615025" lon="2.1743953016748585"><ele>194.8</ele><time>2026-03-22T15:29:26.999Z</time></trkpt><trkpt lat="43.09682340569942" lon="2.1742978819414565"><ele>193.60000000000002</ele><time>2026-03-22T15:29:27.999Z</time></trkpt><trkpt lat="43.09689980532313" lon="2.1742033198277233"><ele>192.4</ele><time>2026-03-22T15:29:28.999Z</time></trkpt><trkpt lat="43.09699725915868" lon="2.1741387844228113"><ele>191.2</ele><time>2026-03-22T15:29:29.999Z</time></trkpt><trkpt lat="43.09711185577422" lon="2.174119303855674"><ele>190.0</ele><time>2026-03-22T15:29:30.999Z</time></trkpt><trkpt lat="43.0972194052904" lon="2.174144884358266"><ele>190.0</ele><time>2026-03-22T15:29:31.999Z</time></trkpt><trkpt lat="43.097319515108794" lon="2.1741712202242995"><ele>190.0</ele><time>2026-03-22T15:29:32.999Z</time></trkpt><trkpt lat="43.09741171813826" lon="2.17418372159034"><ele>190.0</ele><time>2026-03-22T15:29:33.999Z</time></trkpt><trkpt lat="43.09749989867235" lon="2.174191748817693"><ele>190.0</ele><time>2026-03-22T15:29:34.999Z</time></trkpt><trkpt lat="43.097600871773835" lon="2.1742051109392553"><ele>190.0</ele><time>2026-03-22T15:29:36Z</time></trkpt><trkpt lat="43.09769105884569" lon="2.174223055328956"><ele>190.4</ele><time>2026-03-22T15:29:37Z</time></trkpt><trkpt lat="43.09777010725803" lon="2.1742401976381447"><ele>190.8</ele><time>2026-03-22T15:29:38Z</time></trkpt><trkpt lat="43.097837126130415" lon="2.174249274814818"><ele>191.2</ele><time>2026-03-22T15:29:39Z</time></trkpt><trkpt lat="43.09797009186794" lon="2.174272263682884"><ele>191.6</ele><time>2026-03-22T15:29:41Z</time></trkpt><trkpt lat="43.09804345070191" lon="2.1742318526303053"><ele>192.0</ele><time>2026-03-22T15:29:42Z</time></trkpt><trkpt lat="43.09809395700384" lon="2.174125716282606"><ele>192.0</ele><time>2026-03-22T15:29:43Z</time></trkpt><trkpt lat="43.09811636560053" lon="2.174037680528525"><ele>192.0</ele><time>2026-03-22T15:29:44Z</time></trkpt><trkpt lat="43.09814996263093" lon="2.173900594164254"><ele>192.0</ele><time>2026-03-22T15:29:46Z</time></trkpt><trkpt lat="43.098172438553796" lon="2.173816961071949"><ele>192.0</ele><time>2026-03-22T15:29:47Z</time></trkpt><trkpt lat="43.098197963757684" lon="2.1737226619453085"><ele>192.0</ele><time>2026-03-22T15:29:48Z</time></trkpt><trkpt lat="43.09822449338826" lon="2.173609765710598"><ele>192.0</ele><time>2026-03-22T15:29:49Z</time></trkpt><trkpt lat="43.0982525841178" lon="2.17348291659945"><ele>192.8</ele><time>2026-03-22T15:29:50Z</time></trkpt><trkpt lat="43.09827737144559" lon="2.1733535541890396"><ele>193.6</ele><time>2026-03-22T15:29:51Z</time></trkpt><trkpt lat="43.098315681850785" lon="2.173195160988448"><ele>194.4</ele><time>2026-03-22T15:29:52Z</time></trkpt><trkpt lat="43.09836570126156" lon="2.173056337865684"><ele>195.20000000000002</ele><time>2026-03-22T15:29:53Z</time></trkpt><trkpt lat="43.09842818684695" lon="2.172930087601361"><ele>196.0</ele><time>2026-03-22T15:29:54Z</time></trkpt><trkpt lat="43.09849321430066" lon="2.172826314520588"><ele>196.0</ele><time>2026-03-22T15:29:55Z</time></trkpt><trkpt lat="43.098561280677835" lon="2.1727453485186667"><ele>196.0</ele><time>2026-03-22T15:29:56Z</time></trkpt><trkpt lat="43.098673782034076" lon="2.172683497063285"><ele>196.0</ele><time>2026-03-22T15:29:57Z</time></trkpt><trkpt lat="43.098794724215146" lon="2.1725975679467315"><ele>196.0</ele><time>2026-03-22T15:29:58Z</time></trkpt><trkpt lat="43.098908964991736" lon="2.172523563732723"><ele>196.0</ele><time>2026-03-22T15:29:59Z</time></trkpt><trkpt lat="43.099028629326654" lon="2.1724344225423664"><ele>196.0</ele><time>2026-03-22T15:30:00Z</time></trkpt><trkpt lat="43.09915177048532" lon="2.1723485207332742"><ele>196.0</ele><time>2026-03-22T15:30:01Z</time></trkpt><trkpt lat="43.099274696213556" lon="2.172267617755316"><ele>196.0</ele><time>2026-03-22T15:30:02Z</time></trkpt><trkpt lat="43.09938368763711" lon="2.1721803821635324"><ele>196.25</ele><time>2026-03-22T15:30:03Z</time></trkpt><trkpt lat="43.09949317595103" lon="2.1721064734980846"><ele>196.5</ele><time>2026-03-22T15:30:04Z</time></trkpt><trkpt lat="43.09961019167011" lon="2.172036162531106"><ele>196.75</ele><time>2026-03-22T15:30:05Z</time></trkpt><trkpt lat="43.09973374511591" lon="2.1719455530765357"><ele>197.0</ele><time>2026-03-22T15:30:06Z</time></trkpt><trkpt lat="43.099858799681776" lon="2.1718709097029825"><ele>197.0</ele><time>2026-03-22T15:30:07Z</time></trkpt><trkpt lat="43.09997553893923" lon="2.171768457406384"><ele>197.0</ele><time>2026-03-22T15:30:08Z</time></trkpt><trkpt lat="43.100100007706494" lon="2.1716958436134948"><ele>197.0</ele><time>2026-03-22T15:30:09Z</time></trkpt><trkpt lat="43.10020064050725" lon="2.171631739030713"><ele>197.0</ele><time>2026-03-22T15:30:10Z</time></trkpt><trkpt lat="43.100313214573575" lon="2.1715496401722483"><ele>197.0</ele><time>2026-03-22T15:30:11Z</time></trkpt><trkpt lat="43.1004073615066" lon="2.171477810071961"><ele>197.0</ele><time>2026-03-22T15:30:12Z</time></trkpt><trkpt lat="43.100508296841916" lon="2.171407191289402"><ele>197.0</ele><time>2026-03-22T15:30:13Z</time></trkpt><trkpt lat="43.10061710187612" lon="2.171335418850522"><ele>197.0</ele><time>2026-03-22T15:30:14Z</time></trkpt><trkpt lat="43.10073208777034" lon="2.171263906760693"><ele>197.25</ele><time>2026-03-22T15:30:15Z</time></trkpt><trkpt lat="43.10083996391081" lon="2.171188620258171"><ele>197.5</ele><time>2026-03-22T15:30:16Z</time></trkpt><trkpt lat="43.10093765556009" lon="2.1711165660277136"><ele>197.75</ele><time>2026-03-22T15:30:17Z</time></trkpt><trkpt lat="43.10104237694884" lon="2.1710487327625043"><ele>198.0</ele><time>2026-03-22T15:30:18Z</time></trkpt><trkpt lat="43.10116400991675" lon="2.1709725284958576"><ele>198.0</ele><time>2026-03-22T15:30:19Z</time></trkpt><trkpt lat="43.101290399244746" lon="2.170882174015994"><ele>198.0</ele><time>2026-03-22T15:30:20Z</time></trkpt><trkpt lat="43.10140864526279" lon="2.170804759833897"><ele>198.0</ele><time>2026-03-22T15:30:21Z</time></trkpt><trkpt lat="43.10153208004534" lon="2.1707292720229883"><ele>198.0</ele><time>2026-03-22T15:30:22Z</time></trkpt><trkpt lat="43.1016491088079" lon="2.1706521854481653"><ele>198.25</ele><time>2026-03-22T15:30:23Z</time></trkpt><trkpt lat="43.10175591370232" lon="2.1705805125250786"><ele>198.5</ele><time>2026-03-22T15:30:24Z</time></trkpt><trkpt lat="43.101862182927015" lon="2.170518508341655"><ele>198.75</ele><time>2026-03-22T15:30:25Z</time></trkpt><trkpt lat="43.10196535586753" lon="2.170446869546782"><ele>199.0</ele><time>2026-03-22T15:30:26Z</time></trkpt><trkpt lat="43.10206633157515" lon="2.170380102791064"><ele>199.0</ele><time>2026-03-22T15:30:27Z</time></trkpt><trkpt lat="43.102163636571305" lon="2.170303668957238"><ele>199.0</ele><time>2026-03-22T15:30:28Z</time></trkpt><trkpt lat="43.102272347785444" lon="2.1702339240627406"><ele>199.0</ele><time>2026-03-22T15:30:29Z</time></trkpt><trkpt lat="43.102380644050044" lon="2.1701604851681093"><ele>199.0</ele><time>2026-03-22T15:30:30Z</time></trkpt><trkpt lat="43.102496294373424" lon="2.1700889264005654"><ele>199.25</ele><time>2026-03-22T15:30:31Z</time></trkpt><trkpt lat="43.102616534061994" lon="2.170021340072144"><ele>199.5</ele><time>2026-03-22T15:30:32Z</time></trkpt><trkpt lat="43.102738728540686" lon="2.1699385036216747"><ele>199.75</ele><time>2026-03-22T15:30:33Z</time></trkpt><trkpt lat="43.10287611663857" lon="2.1698583832244824"><ele>200.0</ele><time>2026-03-22T15:30:34Z</time></trkpt><trkpt lat="43.103022612475385" lon="2.16973969316643"><ele>200.0</ele><time>2026-03-22T15:30:35Z</time></trkpt><trkpt lat="43.10318045895589" lon="2.1696289707701277"><ele>200.0</ele><time>2026-03-22T15:30:36Z</time></trkpt><trkpt lat="43.10332935116406" lon="2.1695208045332537"><ele>200.0</ele><time>2026-03-22T15:30:37Z</time></trkpt><trkpt lat="43.10349569893864" lon="2.169406029267464"><ele>201.0</ele><time>2026-03-22T15:30:38Z</time></trkpt><trkpt lat="43.10366486463126" lon="2.1692892202545266"><ele>202.0</ele><time>2026-03-22T15:30:39Z</time></trkpt><trkpt lat="43.10385832297188" lon="2.1691509437603615"><ele>203.0</ele><time>2026-03-22T15:30:40Z</time></trkpt><trkpt lat="43.104049842101766" lon="2.169027379218135"><ele>202.33333333333334</ele><time>2026-03-22T15:30:41Z</time></trkpt><trkpt lat="43.10422041690659" lon="2.168918323308547"><ele>201.66666666666669</ele><time>2026-03-22T15:30:42Z</time></trkpt><trkpt lat="43.1043900888853" lon="2.168801802821735"><ele>201.0</ele><time>2026-03-22T15:30:43Z</time></trkpt><trkpt lat="43.104556791065995" lon="2.16868224683091"><ele>201.0</ele><time>2026-03-22T15:30:44Z</time></trkpt><trkpt lat="43.10472334120043" lon="2.168567934326778"><ele>201.0</ele><time>2026-03-22T15:30:45Z</time></trkpt><trkpt lat="43.10489239656764" lon="2.168460681677335"><ele>201.0</ele><time>2026-03-22T15:30:46Z</time></trkpt><trkpt lat="43.10505188385709" lon="2.168351143039974"><ele>201.33333333333331</ele><time>2026-03-22T15:30:47Z</time></trkpt><trkpt lat="43.10521149601253" lon="2.168243865150832"><ele>201.66666666666666</ele><time>2026-03-22T15:30:48Z</time></trkpt><trkpt lat="43.10540225704714" lon="2.1681150171417714"><ele>202.0</ele><time>2026-03-22T15:30:49Z</time></trkpt><trkpt lat="43.10559103354794" lon="2.1679860183769897"><ele>202.0</ele><time>2026-03-22T15:30:50Z</time></trkpt><trkpt lat="43.10576235640902" lon="2.1678710561770593"><ele>202.0</ele><time>2026-03-22T15:30:51Z</time></trkpt><trkpt lat="43.10591900393922" lon="2.167765420269128"><ele>202.0</ele><time>2026-03-22T15:30:52Z</time></trkpt><trkpt lat="43.10608777892786" lon="2.1676518858953315"><ele>202.0</ele><time>2026-03-22T15:30:53Z</time></trkpt><trkpt lat="43.10625850301459" lon="2.1675314600501023"><ele>202.0</ele><time>2026-03-22T15:30:54Z</time></trkpt><trkpt lat="43.106434434292204" lon="2.1674104183375396"><ele>202.0</ele><time>2026-03-22T15:30:55Z</time></trkpt><trkpt lat="43.106612603398055" lon="2.1672930228447247"><ele>201.66666666666666</ele><time>2026-03-22T15:30:56Z</time></trkpt><trkpt lat="43.10678345175172" lon="2.1671756989003335"><ele>201.33333333333331</ele><time>2026-03-22T15:30:57Z</time></trkpt><trkpt lat="43.10695105445941" lon="2.1670606576183284"><ele>201.0</ele><time>2026-03-22T15:30:58Z</time></trkpt><trkpt lat="43.10712012692688" lon="2.166945835838379"><ele>201.0</ele><time>2026-03-22T15:30:59Z</time></trkpt><trkpt lat="43.10727760867359" lon="2.166829878959406"><ele>201.0</ele><time>2026-03-22T15:31:00Z</time></trkpt><trkpt lat="43.10743557504619" lon="2.1666966015255973"><ele>201.0</ele><time>2026-03-22T15:31:01Z</time></trkpt><trkpt lat="43.107601007415205" lon="2.1665285262225797"><ele>201.5</ele><time>2026-03-22T15:31:02Z</time></trkpt><trkpt lat="43.10777437184694" lon="2.16632457613432"><ele>202.0</ele><time>2026-03-22T15:31:03Z</time></trkpt><trkpt lat="43.107955304430426" lon="2.1660886985481573"><ele>202.0</ele><time>2026-03-22T15:31:04Z</time></trkpt><trkpt lat="43.10814264944772" lon="2.165836277235269"><ele>202.0</ele><time>2026-03-22T15:31:05Z</time></trkpt><trkpt lat="43.10833567306121" lon="2.1655727635992914"><ele>203.0</ele><time>2026-03-22T15:31:06Z</time></trkpt><trkpt lat="43.10850474157281" lon="2.16534183497849"><ele>204.0</ele><time>2026-03-22T15:31:07Z</time></trkpt><trkpt lat="43.10865804583494" lon="2.16513291162043"><ele>204.0</ele><time>2026-03-22T15:31:08Z</time></trkpt><trkpt lat="43.10879606226153" lon="2.1649466234527392"><ele>204.0</ele><time>2026-03-22T15:31:09Z</time></trkpt><trkpt lat="43.10892408504413" lon="2.164769124738556"><ele>204.0</ele><time>2026-03-22T15:31:10Z</time></trkpt><trkpt lat="43.109048160435805" lon="2.1645964079308597"><ele>204.33333333333331</ele><time>2026-03-22T15:31:11Z</time></trkpt><trkpt lat="43.10917818144288" lon="2.1644172764564256"><ele>204.66666666666666</ele><time>2026-03-22T15:31:12Z</time></trkpt><trkpt lat="43.1093090546144" lon="2.1642371174177377"><ele>205.0</ele><time>2026-03-22T15:31:13Z</time></trkpt><trkpt lat="43.109440381361196" lon="2.164054230386741"><ele>205.33333333333331</ele><time>2026-03-22T15:31:14Z</time></trkpt><trkpt lat="43.10956976336835" lon="2.1638711571986415"><ele>205.66666666666669</ele><time>2026-03-22T15:31:15Z</time></trkpt><trkpt lat="43.10970088915393" lon="2.1636876254301884"><ele>206.0</ele><time>2026-03-22T15:31:16Z</time></trkpt><trkpt lat="43.10983577353488" lon="2.163502090627762"><ele>205.66666666666669</ele><time>2026-03-22T15:31:17Z</time></trkpt><trkpt lat="43.1099754087908" lon="2.163311960861263"><ele>205.33333333333331</ele><time>2026-03-22T15:31:18Z</time></trkpt><trkpt lat="43.110116301798044" lon="2.1631153707977284"><ele>205.0</ele><time>2026-03-22T15:31:19Z</time></trkpt><trkpt lat="43.110256108529036" lon="2.162913798791169"><ele>205.0</ele><time>2026-03-22T15:31:20Z</time></trkpt><trkpt lat="43.11038611606966" lon="2.1626997711543647"><ele>205.0</ele><time>2026-03-22T15:31:20.999Z</time></trkpt><trkpt lat="43.1105209426639" lon="2.162437945033461"><ele>205.0</ele><time>2026-03-22T15:31:21.999Z</time></trkpt><trkpt lat="43.11065130837489" lon="2.162168410272467"><ele>205.5</ele><time>2026-03-22T15:31:22.999Z</time></trkpt><trkpt lat="43.11077950370024" lon="2.1618830496763524"><ele>206.0</ele><time>2026-03-22T15:31:23.999Z</time></trkpt><trkpt lat="43.11090132337648" lon="2.1616082051486583"><ele>206.33333333333334</ele><time>2026-03-22T15:31:24.999Z</time></trkpt><trkpt lat="43.111010739686265" lon="2.1613614885029313"><ele>206.66666666666669</ele><time>2026-03-22T15:31:25.999Z</time></trkpt><trkpt lat="43.111115727880325" lon="2.1611282226357265"><ele>207.0</ele><time>2026-03-22T15:31:26.999Z</time></trkpt><trkpt lat="43.11121570128222" lon="2.160901626272782"><ele>207.0</ele><time>2026-03-22T15:31:27.999Z</time></trkpt><trkpt lat="43.111316485248615" lon="2.160675033671505"><ele>207.0</ele><time>2026-03-22T15:31:28.999Z</time></trkpt><trkpt lat="43.11141597214241" lon="2.1604496850259567"><ele>207.0</ele><time>2026-03-22T15:31:29.999Z</time></trkpt><trkpt lat="43.11150490465681" lon="2.160239232998237"><ele>206.33333333333331</ele><time>2026-03-22T15:31:30.999Z</time></trkpt><trkpt lat="43.11159615360197" lon="2.160034094627389"><ele>205.66666666666666</ele><time>2026-03-22T15:31:31.999Z</time></trkpt><trkpt lat="43.11169524646765" lon="2.159812215086596"><ele>205.0</ele><time>2026-03-22T15:31:32.999Z</time></trkpt><trkpt lat="43.1117862127774" lon="2.1595994116149746"><ele>205.0</ele><time>2026-03-22T15:31:33.999Z</time></trkpt><trkpt lat="43.11187153947184" lon="2.159393819723416"><ele>205.0</ele><time>2026-03-22T15:31:34.999Z</time></trkpt><trkpt lat="43.111959423716556" lon="2.159189049207553"><ele>205.0</ele><time>2026-03-22T15:31:35.999Z</time></trkpt><trkpt lat="43.11205195443275" lon="2.1589765314397242"><ele>205.33333333333331</ele><time>2026-03-22T15:31:36.999Z</time></trkpt><trkpt lat="43.11214975416432" lon="2.1587514193173325"><ele>205.66666666666669</ele><time>2026-03-22T15:31:37.999Z</time></trkpt><trkpt lat="43.11224957451987" lon="2.1585235066023367"><ele>206.0</ele><time>2026-03-22T15:31:38.999Z</time></trkpt><trkpt lat="43.112345266647395" lon="2.1583018316184113"><ele>201.66666666666669</ele><time>2026-03-22T15:31:39.999Z</time></trkpt><trkpt lat="43.112442764999294" lon="2.15807565896707"><ele>197.33333333333331</ele><time>2026-03-22T15:31:40.999Z</time></trkpt><trkpt lat="43.11254560411683" lon="2.1578428178138935"><ele>193.0</ele><time>2026-03-22T15:31:42Z</time></trkpt><trkpt lat="43.11264476906803" lon="2.157609579135273"><ele>193.0</ele><time>2026-03-22T15:31:43Z</time></trkpt><trkpt lat="43.11274114072125" lon="2.1573821348737856"><ele>193.0</ele><time>2026-03-22T15:31:44Z</time></trkpt><trkpt lat="43.112835231151806" lon="2.1571500125751757"><ele>193.0</ele><time>2026-03-22T15:31:45Z</time></trkpt><trkpt lat="43.11292392391996" lon="2.1568887795059055"><ele>193.5</ele><time>2026-03-22T15:31:46Z</time></trkpt><trkpt lat="43.113001495791636" lon="2.156597631225135"><ele>194.0</ele><time>2026-03-22T15:31:47Z</time></trkpt><trkpt lat="43.1130574845633" lon="2.1562848419168037"><ele>194.0</ele><time>2026-03-22T15:31:48Z</time></trkpt><trkpt lat="43.113097240006226" lon="2.15595254574674"><ele>194.0</ele><time>2026-03-22T15:31:49Z</time></trkpt><trkpt lat="43.113124446367145" lon="2.155644345512945"><ele>194.0</ele><time>2026-03-22T15:31:50Z</time></trkpt><trkpt lat="43.11315137861627" lon="2.155362799649621"><ele>194.0</ele><time>2026-03-22T15:31:51Z</time></trkpt><trkpt lat="43.11316498274694" lon="2.1550764104247397"><ele>194.0</ele><time>2026-03-22T15:31:52Z</time></trkpt><trkpt lat="43.11318254288456" lon="2.154788120792086"><ele>193.66666666666669</ele><time>2026-03-22T15:31:53Z</time></trkpt><trkpt lat="43.11320340560439" lon="2.154521859674292"><ele>193.33333333333331</ele><time>2026-03-22T15:31:54Z</time></trkpt><trkpt lat="43.11323127194628" lon="2.154253014623138"><ele>193.0</ele><time>2026-03-22T15:31:55Z</time></trkpt><trkpt lat="43.113261556290844" lon="2.15399244071549"><ele>193.0</ele><time>2026-03-22T15:31:56Z</time></trkpt><trkpt lat="43.11330389441884" lon="2.153752053368879"><ele>193.0</ele><time>2026-03-22T15:31:57Z</time></trkpt><trkpt lat="43.11334861015536" lon="2.1535104029933323"><ele>193.0</ele><time>2026-03-22T15:31:58Z</time></trkpt><trkpt lat="43.11340934677617" lon="2.1532673742146"><ele>193.0</ele><time>2026-03-22T15:31:59Z</time></trkpt><trkpt lat="43.11349106032727" lon="2.1530232216224063"><ele>193.0</ele><time>2026-03-22T15:32:00Z</time></trkpt><trkpt lat="43.11359164830971" lon="2.1527757397633174"><ele>193.0</ele><time>2026-03-22T15:32:01Z</time></trkpt><trkpt lat="43.11370325612901" lon="2.1525297406134243"><ele>194.0</ele><time>2026-03-22T15:32:02Z</time></trkpt><trkpt lat="43.113806807501184" lon="2.152313760727817"><ele>195.0</ele><time>2026-03-22T15:32:03Z</time></trkpt><trkpt lat="43.11391313911036" lon="2.1520971969244433"><ele>196.0</ele><time>2026-03-22T15:32:04Z</time></trkpt><trkpt lat="43.11402412999994" lon="2.1518684887928514"><ele>196.0</ele><time>2026-03-22T15:32:05Z</time></trkpt><trkpt lat="43.11413349404182" lon="2.1516440741327707"><ele>196.0</ele><time>2026-03-22T15:32:06Z</time></trkpt><trkpt lat="43.11424140629924" lon="2.151418714928087"><ele>196.0</ele><time>2026-03-22T15:32:07Z</time></trkpt><trkpt lat="43.11434731743249" lon="2.15120538595641"><ele>196.0</ele><time>2026-03-22T15:32:08Z</time></trkpt><trkpt lat="43.114451856973666" lon="2.150988224039407"><ele>196.0</ele><time>2026-03-22T15:32:09Z</time></trkpt><trkpt lat="43.114558720019254" lon="2.1507696419896685"><ele>196.0</ele><time>2026-03-22T15:32:10Z</time></trkpt><trkpt lat="43.114660937646846" lon="2.1505604629099877"><ele>195.66666666666666</ele><time>2026-03-22T15:32:11Z</time></trkpt><trkpt lat="43.114758788960074" lon="2.1503536990424243"><ele>195.33333333333331</ele><time>2026-03-22T15:32:12Z</time></trkpt><trkpt lat="43.114855854778085" lon="2.1501511995716585"><ele>195.0</ele><time>2026-03-22T15:32:13Z</time></trkpt><trkpt lat="43.114955859464864" lon="2.1499474393156457"><ele>195.0</ele><time>2026-03-22T15:32:14Z</time></trkpt><trkpt lat="43.11505141541912" lon="2.1497484888011362"><ele>195.0</ele><time>2026-03-22T15:32:15Z</time></trkpt><trkpt lat="43.115145093539304" lon="2.1495522875504687"><ele>195.0</ele><time>2026-03-22T15:32:16Z</time></trkpt><trkpt lat="43.11523936721578" lon="2.149352317614114"><ele>195.0</ele><time>2026-03-22T15:32:17Z</time></trkpt><trkpt lat="43.1153372498804" lon="2.149146207940933"><ele>195.0</ele><time>2026-03-22T15:32:18Z</time></trkpt><trkpt lat="43.11544074183168" lon="2.1489368667073183"><ele>195.0</ele><time>2026-03-22T15:32:19Z</time></trkpt><trkpt lat="43.11554508433981" lon="2.1487213130480427"><ele>195.0</ele><time>2026-03-22T15:32:20Z</time></trkpt><trkpt lat="43.115647784034095" lon="2.1485053499830515"><ele>195.0</ele><time>2026-03-22T15:32:21Z</time></trkpt><trkpt lat="43.115750666440306" lon="2.148292490347276"><ele>195.0</ele><time>2026-03-22T15:32:22Z</time></trkpt><trkpt lat="43.11584475930533" lon="2.148095824153994"><ele>195.0</ele><time>2026-03-22T15:32:23Z</time></trkpt><trkpt lat="43.115941354432174" lon="2.147899004586104"><ele>195.0</ele><time>2026-03-22T15:32:24Z</time></trkpt><trkpt lat="43.11603710065169" lon="2.1477020991440114"><ele>195.0</ele><time>2026-03-22T15:32:25Z</time></trkpt><trkpt lat="43.1161327512311" lon="2.1475011606038445"><ele>195.0</ele><time>2026-03-22T15:32:26Z</time></trkpt><trkpt lat="43.116228697314284" lon="2.147294085381705"><ele>195.0</ele><time>2026-03-22T15:32:27Z</time></trkpt><trkpt lat="43.116326429901086" lon="2.1470866877013237"><ele>195.0</ele><time>2026-03-22T15:32:28Z</time></trkpt><trkpt lat="43.11642611313798" lon="2.146878438507143"><ele>195.0</ele><time>2026-03-22T15:32:29Z</time></trkpt><trkpt lat="43.11652906101292" lon="2.1466669424668696"><ele>195.0</ele><time>2026-03-22T15:32:30Z</time></trkpt><trkpt lat="43.116625371222796" lon="2.146455831935983"><ele>195.0</ele><time>2026-03-22T15:32:31Z</time></trkpt><trkpt lat="43.116709072128984" lon="2.146226702379105"><ele>195.0</ele><time>2026-03-22T15:32:32Z</time></trkpt><trkpt lat="43.11678969532128" lon="2.145987913574148"><ele>195.0</ele><time>2026-03-22T15:32:33Z</time></trkpt><trkpt lat="43.11685741512902" lon="2.145705600270957"><ele>195.0</ele><time>2026-03-22T15:32:34Z</time></trkpt><trkpt lat="43.116923221589865" lon="2.1454251369954296"><ele>195.0</ele><time>2026-03-22T15:32:35Z</time></trkpt><trkpt lat="43.11699232686573" lon="2.145140293365054"><ele>195.0</ele><time>2026-03-22T15:32:36Z</time></trkpt><trkpt lat="43.11706195391101" lon="2.1448516015018124"><ele>195.0</ele><time>2026-03-22T15:32:37Z</time></trkpt><trkpt lat="43.117136921175074" lon="2.144551211434139"><ele>196.0</ele><time>2026-03-22T15:32:38Z</time></trkpt><trkpt lat="43.11721608663713" lon="2.1442452852933247"><ele>197.0</ele><time>2026-03-22T15:32:39Z</time></trkpt><trkpt lat="43.11728710142592" lon="2.1439467554525673"><ele>197.0</ele><time>2026-03-22T15:32:40Z</time></trkpt><trkpt lat="43.117360284293284" lon="2.1436598595837117"><ele>197.0</ele><time>2026-03-22T15:32:41Z</time></trkpt><trkpt lat="43.117432019652924" lon="2.1433814952052765"><ele>197.0</ele><time>2026-03-22T15:32:42Z</time></trkpt><trkpt lat="43.11750861066212" lon="2.1430806285783968"><ele>197.0</ele><time>2026-03-22T15:32:43Z</time></trkpt><trkpt lat="43.117586147283" lon="2.1428016002119175"><ele>197.0</ele><time>2026-03-22T15:32:44Z</time></trkpt><trkpt lat="43.11765529472111" lon="2.1425378753430557"><ele>197.0</ele><time>2026-03-22T15:32:45Z</time></trkpt><trkpt lat="43.11772181774914" lon="2.1422796625610045"><ele>198.33333333333334</ele><time>2026-03-22T15:32:46Z</time></trkpt><trkpt lat="43.11778375027272" lon="2.142021109000692"><ele>199.66666666666669</ele><time>2026-03-22T15:32:47Z</time></trkpt><trkpt lat="43.11784850094581" lon="2.141762067726176"><ele>201.0</ele><time>2026-03-22T15:32:48Z</time></trkpt><trkpt lat="43.117905037250075" lon="2.1415115577656176"><ele>202.0</ele><time>2026-03-22T15:32:49Z</time></trkpt><trkpt lat="43.11796395296901" lon="2.1412505474501438"><ele>203.0</ele><time>2026-03-22T15:32:50Z</time></trkpt><trkpt lat="43.11802083936049" lon="2.140990727687198"><ele>204.0</ele><time>2026-03-22T15:32:51Z</time></trkpt><trkpt lat="43.11808066856967" lon="2.1407257084957276"><ele>204.0</ele><time>2026-03-22T15:32:52Z</time></trkpt><trkpt lat="43.11814087438844" lon="2.1404552348745707"><ele>204.0</ele><time>2026-03-22T15:32:53Z</time></trkpt><trkpt lat="43.118200047586015" lon="2.140185638348965"><ele>204.0</ele><time>2026-03-22T15:32:54Z</time></trkpt><trkpt lat="43.1182620198796" lon="2.139915075634552"><ele>202.33333333333331</ele><time>2026-03-22T15:32:55Z</time></trkpt><trkpt lat="43.11832482958798" lon="2.1396417141805424"><ele>200.66666666666666</ele><time>2026-03-22T15:32:56Z</time></trkpt><trkpt lat="43.11839161730367" lon="2.139366384062184"><ele>199.0</ele><time>2026-03-22T15:32:57Z</time></trkpt><trkpt lat="43.1184556961654" lon="2.139098803274113"><ele>199.33333333333331</ele><time>2026-03-22T15:32:58Z</time></trkpt><trkpt lat="43.11852013646514" lon="2.138831692130883"><ele>199.66666666666669</ele><time>2026-03-22T15:32:59Z</time></trkpt><trkpt lat="43.11858003838028" lon="2.138574319862944"><ele>200.0</ele><time>2026-03-22T15:33:00Z</time></trkpt><trkpt lat="43.11863749839988" lon="2.138311768462653"><ele>199.66666666666669</ele><time>2026-03-22T15:33:01Z</time></trkpt><trkpt lat="43.11869699611905" lon="2.1380489580826136"><ele>199.33333333333331</ele><time>2026-03-22T15:33:02Z</time></trkpt><trkpt lat="43.1187579491114" lon="2.137787928917069"><ele>199.0</ele><time>2026-03-22T15:33:03Z</time></trkpt><trkpt lat="43.118817653478295" lon="2.13752407390526"><ele>200.0</ele><time>2026-03-22T15:33:04Z</time></trkpt><trkpt lat="43.11888248901609" lon="2.137257164482935"><ele>201.0</ele><time>2026-03-22T15:33:05Z</time></trkpt><trkpt lat="43.118954509544935" lon="2.1369905967154113"><ele>202.0</ele><time>2026-03-22T15:33:06Z</time></trkpt><trkpt lat="43.11902321418272" lon="2.136720252984333"><ele>200.66666666666666</ele><time>2026-03-22T15:33:07Z</time></trkpt><trkpt lat="43.119089778716045" lon="2.1364493424368134"><ele>199.33333333333331</ele><time>2026-03-22T15:33:08Z</time></trkpt><trkpt lat="43.11915437789067" lon="2.1361765357489153"><ele>198.0</ele><time>2026-03-22T15:33:09Z</time></trkpt><trkpt lat="43.11921808938036" lon="2.135903588350431"><ele>198.33333333333331</ele><time>2026-03-22T15:33:10Z</time></trkpt><trkpt lat="43.1192838348641" lon="2.1356326863021056"><ele>198.66666666666666</ele><time>2026-03-22T15:33:11Z</time></trkpt><trkpt lat="43.11934807332026" lon="2.1353760258402836"><ele>199.0</ele><time>2026-03-22T15:33:12Z</time></trkpt><trkpt lat="43.119413378526886" lon="2.135114561251255"><ele>200.0</ele><time>2026-03-22T15:33:13Z</time></trkpt><trkpt lat="43.119476949741845" lon="2.1348446555682807"><ele>201.0</ele><time>2026-03-22T15:33:14Z</time></trkpt><trkpt lat="43.11953806730579" lon="2.1345838191419966"><ele>202.0</ele><time>2026-03-22T15:33:15Z</time></trkpt><trkpt lat="43.11959547963548" lon="2.1343396154912804"><ele>202.0</ele><time>2026-03-22T15:33:16Z</time></trkpt><trkpt lat="43.11965245956856" lon="2.1340946793005737"><ele>202.0</ele><time>2026-03-22T15:33:17Z</time></trkpt><trkpt lat="43.11971271439649" lon="2.13384643233134"><ele>202.0</ele><time>2026-03-22T15:33:18Z</time></trkpt><trkpt lat="43.11977395433785" lon="2.1336006098923"><ele>200.66666666666666</ele><time>2026-03-22T15:33:19Z</time></trkpt><trkpt lat="43.11983218966126" lon="2.1333556846056734"><ele>199.33333333333331</ele><time>2026-03-22T15:33:20Z</time></trkpt><trkpt lat="43.11988808790482" lon="2.1331230238319"><ele>198.0</ele><time>2026-03-22T15:33:21Z</time></trkpt><trkpt lat="43.11994569247653" lon="2.1328820513023534"><ele>198.0</ele><time>2026-03-22T15:33:22Z</time></trkpt><trkpt lat="43.12000011887635" lon="2.13265054571122"><ele>198.0</ele><time>2026-03-22T15:33:23Z</time></trkpt><trkpt lat="43.12005391588383" lon="2.1324113529473263"><ele>198.0</ele><time>2026-03-22T15:33:24Z</time></trkpt><trkpt lat="43.120113547651094" lon="2.132170755565973"><ele>199.66666666666669</ele><time>2026-03-22T15:33:25Z</time></trkpt><trkpt lat="43.12019489217968" lon="2.131928030396737"><ele>201.33333333333334</ele><time>2026-03-22T15:33:26Z</time></trkpt><trkpt lat="43.120296009910014" lon="2.1316849645049936"><ele>203.0</ele><time>2026-03-22T15:33:27Z</time></trkpt><trkpt lat="43.12041305125057" lon="2.1314530758623604"><ele>202.0</ele><time>2026-03-22T15:33:28Z</time></trkpt><trkpt lat="43.12053988783831" lon="2.131234219300696"><ele>201.0</ele><time>2026-03-22T15:33:29Z</time></trkpt><trkpt lat="43.12068388548277" lon="2.131019853339612"><ele>200.0</ele><time>2026-03-22T15:33:30Z</time></trkpt><trkpt lat="43.12079283224753" lon="2.1307647984137574"><ele>199.5</ele><time>2026-03-22T15:33:31Z</time></trkpt><trkpt lat="43.12102576298335" lon="2.1306061329792763"><ele>199.0</ele><time>2026-03-22T15:33:32Z</time></trkpt><trkpt lat="43.121197612957694" lon="2.1304099954744182"><ele>199.0</ele><time>2026-03-22T15:33:33Z</time></trkpt><trkpt lat="43.1213660901675" lon="2.130212364074295"><ele>199.0</ele><time>2026-03-22T15:33:33.999Z</time></trkpt><trkpt lat="43.12153340929609" lon="2.1300173528443898"><ele>199.0</ele><time>2026-03-22T15:33:34.999Z</time></trkpt><trkpt lat="43.121693927278656" lon="2.129824240166075"><ele>198.66666666666666</ele><time>2026-03-22T15:33:35.999Z</time></trkpt><trkpt lat="43.12185325609554" lon="2.1296314633287006"><ele>198.33333333333331</ele><time>2026-03-22T15:33:36.999Z</time></trkpt><trkpt lat="43.12201085214543" lon="2.1294413042490072"><ele>198.0</ele><time>2026-03-22T15:33:37.999Z</time></trkpt><trkpt lat="43.122172699175394" lon="2.129254463627598"><ele>198.0</ele><time>2026-03-22T15:33:38.999Z</time></trkpt><trkpt lat="43.12233667732286" lon="2.1290759879231826"><ele>198.0</ele><time>2026-03-22T15:33:39.999Z</time></trkpt><trkpt lat="43.12249677911459" lon="2.1289043950595676"><ele>198.0</ele><time>2026-03-22T15:33:40.999Z</time></trkpt><trkpt lat="43.12265522460532" lon="2.1287257229765797"><ele>197.66666666666669</ele><time>2026-03-22T15:33:41.999Z</time></trkpt><trkpt lat="43.12281068214796" lon="2.128548229089951"><ele>197.33333333333334</ele><time>2026-03-22T15:33:42.999Z</time></trkpt><trkpt lat="43.12297017284474" lon="2.1283693381382984"><ele>197.0</ele><time>2026-03-22T15:33:43.999Z</time></trkpt><trkpt lat="43.12313117897803" lon="2.128193007699195"><ele>197.33333333333334</ele><time>2026-03-22T15:33:44.999Z</time></trkpt><trkpt lat="43.12328281484557" lon="2.1280316527346415"><ele>197.66666666666669</ele><time>2026-03-22T15:33:45.999Z</time></trkpt><trkpt lat="43.12343598226373" lon="2.1278840118529745"><ele>198.0</ele><time>2026-03-22T15:33:46.999Z</time></trkpt><trkpt lat="43.123590818757215" lon="2.127727882149992"><ele>198.0</ele><time>2026-03-22T15:33:48Z</time></trkpt><trkpt lat="43.12374720917755" lon="2.127554289168665"><ele>198.0</ele><time>2026-03-22T15:33:49Z</time></trkpt><trkpt lat="43.12390317783713" lon="2.1273755242202155"><ele>198.0</ele><time>2026-03-22T15:33:50Z</time></trkpt><trkpt lat="43.124061272588584" lon="2.127195324704519"><ele>198.33333333333331</ele><time>2026-03-22T15:33:51Z</time></trkpt><trkpt lat="43.12422192178869" lon="2.127010866259938"><ele>198.66666666666666</ele><time>2026-03-22T15:33:52Z</time></trkpt><trkpt lat="43.124382230224846" lon="2.1268227400403896"><ele>199.0</ele><time>2026-03-22T15:33:53Z</time></trkpt><trkpt lat="43.124540966035404" lon="2.1266298757014424"><ele>199.33333333333331</ele><time>2026-03-22T15:33:54Z</time></trkpt><trkpt lat="43.12469633202862" lon="2.1264341779114115"><ele>199.66666666666669</ele><time>2026-03-22T15:33:55Z</time></trkpt><trkpt lat="43.12485281141795" lon="2.12623844359421"><ele>200.0</ele><time>2026-03-22T15:33:56Z</time></trkpt><trkpt lat="43.12500991183969" lon="2.126043923426007"><ele>200.0</ele><time>2026-03-22T15:33:57Z</time></trkpt><trkpt lat="43.12517029909331" lon="2.125851592864959"><ele>200.0</ele><time>2026-03-22T15:33:58Z</time></trkpt><trkpt lat="43.12533954466965" lon="2.125658985471584"><ele>200.0</ele><time>2026-03-22T15:33:59Z</time></trkpt><trkpt lat="43.1255061897072" lon="2.1254653363228355"><ele>200.0</ele><time>2026-03-22T15:34:00Z</time></trkpt><trkpt lat="43.12566832032765" lon="2.125276086993757"><ele>200.0</ele><time>2026-03-22T15:34:01Z</time></trkpt><trkpt lat="43.12585058930048" lon="2.1250671216615102"><ele>200.5</ele><time>2026-03-22T15:34:02Z</time></trkpt><trkpt lat="43.126036093141245" lon="2.12484807287411"><ele>201.0</ele><time>2026-03-22T15:34:03Z</time></trkpt><trkpt lat="43.126231300444836" lon="2.1246166901026107"><ele>201.0</ele><time>2026-03-22T15:34:04Z</time></trkpt><trkpt lat="43.12643832042329" lon="2.1243743005051177"><ele>201.0</ele><time>2026-03-22T15:34:05Z</time></trkpt><trkpt lat="43.12664978816847" lon="2.1241129424274394"><ele>200.5</ele><time>2026-03-22T15:34:06Z</time></trkpt><trkpt lat="43.126875532578154" lon="2.1238351767800974"><ele>200.0</ele><time>2026-03-22T15:34:07Z</time></trkpt><trkpt lat="43.12711682169889" lon="2.123557548862226"><ele>200.0</ele><time>2026-03-22T15:34:08Z</time></trkpt><trkpt lat="43.127363700849884" lon="2.123274881178499"><ele>200.0</ele><time>2026-03-22T15:34:09Z</time></trkpt><trkpt lat="43.12758491510522" lon="2.1230193525403283"><ele>201.0</ele><time>2026-03-22T15:34:10Z</time></trkpt><trkpt lat="43.12779687291011" lon="2.122789367665374"><ele>202.0</ele><time>2026-03-22T15:34:11Z</time></trkpt><trkpt lat="43.12800491349491" lon="2.1225685676389134"><ele>202.0</ele><time>2026-03-22T15:34:12Z</time></trkpt><trkpt lat="43.12819359089021" lon="2.1223575375619546"><ele>202.0</ele><time>2026-03-22T15:34:13Z</time></trkpt><trkpt lat="43.12837649913777" lon="2.122148330608577"><ele>202.0</ele><time>2026-03-22T15:34:14Z</time></trkpt><trkpt lat="43.12856222159377" lon="2.1219343225697367"><ele>202.0</ele><time>2026-03-22T15:34:15Z</time></trkpt><trkpt lat="43.12874832570331" lon="2.121719415203483"><ele>202.5</ele><time>2026-03-22T15:34:16Z</time></trkpt><trkpt lat="43.12893765911429" lon="2.1215073188308575"><ele>203.0</ele><time>2026-03-22T15:34:17Z</time></trkpt><trkpt lat="43.12911406985833" lon="2.1213005459307746"><ele>203.0</ele><time>2026-03-22T15:34:18Z</time></trkpt><trkpt lat="43.12928578193296" lon="2.1210999921534195"><ele>203.0</ele><time>2026-03-22T15:34:19Z</time></trkpt><trkpt lat="43.129455513692704" lon="2.1209008283926027"><ele>203.0</ele><time>2026-03-22T15:34:20Z</time></trkpt><trkpt lat="43.129628807336644" lon="2.120702141234018"><ele>203.33333333333334</ele><time>2026-03-22T15:34:21Z</time></trkpt><trkpt lat="43.12980183754264" lon="2.120505468308034"><ele>203.66666666666669</ele><time>2026-03-22T15:34:22Z</time></trkpt><trkpt lat="43.129972586276175" lon="2.1203078291810655"><ele>204.0</ele><time>2026-03-22T15:34:23Z</time></trkpt><trkpt lat="43.13015064152031" lon="2.1201157976624487"><ele>204.0</ele><time>2026-03-22T15:34:24Z</time></trkpt><trkpt lat="43.130346872174925" lon="2.1199395439608004"><ele>204.0</ele><time>2026-03-22T15:34:25Z</time></trkpt><trkpt lat="43.130565832304654" lon="2.1197814901393275"><ele>204.5</ele><time>2026-03-22T15:34:26Z</time></trkpt><trkpt lat="43.13079445943981" lon="2.119643367458795"><ele>205.0</ele><time>2026-03-22T15:34:27Z</time></trkpt><trkpt lat="43.1309980897483" lon="2.1195180126302264"><ele>205.0</ele><time>2026-03-22T15:34:28Z</time></trkpt><trkpt lat="43.1312011681251" lon="2.119393121388981"><ele>205.0</ele><time>2026-03-22T15:34:29Z</time></trkpt><trkpt lat="43.13141299720488" lon="2.1192641379149157"><ele>204.5</ele><time>2026-03-22T15:34:30Z</time></trkpt><trkpt lat="43.13162155262452" lon="2.119135993182307"><ele>204.0</ele><time>2026-03-22T15:34:31Z</time></trkpt><trkpt lat="43.13184055100331" lon="2.119006619537576"><ele>205.0</ele><time>2026-03-22T15:34:32Z</time></trkpt><trkpt lat="43.13206665117651" lon="2.118875394574202"><ele>206.0</ele><time>2026-03-22T15:34:33Z</time></trkpt><trkpt lat="43.13228136287107" lon="2.118759118285709"><ele>206.66666666666669</ele><time>2026-03-22T15:34:34Z</time></trkpt><trkpt lat="43.132487803581085" lon="2.118658285466206"><ele>207.33333333333331</ele><time>2026-03-22T15:34:35Z</time></trkpt><trkpt lat="43.132693611040054" lon="2.1185747423903947"><ele>208.0</ele><time>2026-03-22T15:34:36Z</time></trkpt><trkpt lat="43.132903499804826" lon="2.1185040865223006"><ele>208.0</ele><time>2026-03-22T15:34:37Z</time></trkpt><trkpt lat="43.13310584129923" lon="2.118450904524407"><ele>208.0</ele><time>2026-03-22T15:34:38Z</time></trkpt><trkpt lat="43.13330190896624" lon="2.11841124561437"><ele>208.0</ele><time>2026-03-22T15:34:39Z</time></trkpt><trkpt lat="43.133482155604966" lon="2.1183831827543425"><ele>208.0</ele><time>2026-03-22T15:34:40Z</time></trkpt><trkpt lat="43.133635758419906" lon="2.1183570302679975"><ele>208.0</ele><time>2026-03-22T15:34:41Z</time></trkpt><trkpt lat="43.13376199711641" lon="2.1183355238176853"><ele>208.0</ele><time>2026-03-22T15:34:42Z</time></trkpt><trkpt lat="43.13388637667748" lon="2.118321385446581"><ele>208.0</ele><time>2026-03-22T15:34:43Z</time></trkpt><trkpt lat="43.13400989947353" lon="2.118311096209699"><ele>207.60000000000002</ele><time>2026-03-22T15:34:44Z</time></trkpt><trkpt lat="43.13414112610178" lon="2.1183011801586633"><ele>207.20000000000002</ele><time>2026-03-22T15:34:45Z</time></trkpt><trkpt lat="43.1342516421978" lon="2.118294562000935"><ele>206.8</ele><time>2026-03-22T15:34:46Z</time></trkpt><trkpt lat="43.134345647100766" lon="2.1182924148285514"><ele>206.4</ele><time>2026-03-22T15:34:47Z</time></trkpt><trkpt lat="43.13443132604636" lon="2.1182901789422677"><ele>206.0</ele><time>2026-03-22T15:34:48Z</time></trkpt><trkpt lat="43.13450685112388" lon="2.1182934578737043"><ele>206.00000000000003</ele><time>2026-03-22T15:34:49Z</time></trkpt><trkpt lat="43.134587960030736" lon="2.118308208697045"><ele>206.0</ele><time>2026-03-22T15:34:50Z</time></trkpt><trkpt lat="43.134664812864315" lon="2.1183498538661163"><ele>206.0</ele><time>2026-03-22T15:34:51Z</time></trkpt><trkpt lat="43.13473472271541" lon="2.118408043645424"><ele>206.0</ele><time>2026-03-22T15:34:52Z</time></trkpt><trkpt lat="43.13479710077776" lon="2.1184515190819773"><ele>206.00000000000003</ele><time>2026-03-22T15:34:53Z</time></trkpt><trkpt lat="43.134874144441895" lon="2.118442688753384"><ele>206.0</ele><time>2026-03-22T15:34:54Z</time></trkpt><trkpt lat="43.13494125360374" lon="2.118349251321876"><ele>206.0</ele><time>2026-03-22T15:34:55Z</time></trkpt><trkpt lat="43.13504371234474" lon="2.1182570931949107"><ele>206.0</ele><time>2026-03-22T15:34:56Z</time></trkpt><trkpt lat="43.135168278470736" lon="2.1182038142476953"><ele>206.0</ele><time>2026-03-22T15:34:57Z</time></trkpt><trkpt lat="43.13534596970615" lon="2.118241010604691"><ele>206.0</ele><time>2026-03-22T15:34:58Z</time></trkpt><trkpt lat="43.13553545487341" lon="2.118244120283156"><ele>206.0</ele><time>2026-03-22T15:34:59Z</time></trkpt><trkpt lat="43.13575222665728" lon="2.1182801715100794"><ele>206.0</ele><time>2026-03-22T15:35:00Z</time></trkpt><trkpt lat="43.1359686695209" lon="2.1183274883346255"><ele>206.0</ele><time>2026-03-22T15:35:01Z</time></trkpt><trkpt lat="43.136161112834664" lon="2.118365705113645"><ele>206.0</ele><time>2026-03-22T15:35:02Z</time></trkpt><trkpt lat="43.13636291058205" lon="2.1184217891507164"><ele>206.0</ele><time>2026-03-22T15:35:03Z</time></trkpt><trkpt lat="43.136575276862764" lon="2.11848496011496"><ele>206.0</ele><time>2026-03-22T15:35:04Z</time></trkpt><trkpt lat="43.13679755447014" lon="2.1185539574318004"><ele>205.5</ele><time>2026-03-22T15:35:05Z</time></trkpt><trkpt lat="43.1370391273001" lon="2.1186295526266883"><ele>205.0</ele><time>2026-03-22T15:35:06Z</time></trkpt><trkpt lat="43.13729092475994" lon="2.1187109748779136"><ele>205.0</ele><time>2026-03-22T15:35:07Z</time></trkpt><trkpt lat="43.13753622800522" lon="2.1187938726250195"><ele>205.0</ele><time>2026-03-22T15:35:08Z</time></trkpt><trkpt lat="43.13777400596341" lon="2.118879552509225"><ele>205.0</ele><time>2026-03-22T15:35:09Z</time></trkpt><trkpt lat="43.13800648909225" lon="2.1189608918108633"><ele>205.0</ele><time>2026-03-22T15:35:10Z</time></trkpt><trkpt lat="43.13824045136369" lon="2.119044221545028"><ele>205.0</ele><time>2026-03-22T15:35:11Z</time></trkpt><trkpt lat="43.13846791339241" lon="2.1191306200499915"><ele>205.0</ele><time>2026-03-22T15:35:11.999Z</time></trkpt><trkpt lat="43.13870363284999" lon="2.11923007171579"><ele>205.0</ele><time>2026-03-22T15:35:12.999Z</time></trkpt><trkpt lat="43.13893435299285" lon="2.119329769038266"><ele>205.0</ele><time>2026-03-22T15:35:13.999Z</time></trkpt><trkpt lat="43.13915413302793" lon="2.1194393393583995"><ele>205.5</ele><time>2026-03-22T15:35:14.999Z</time></trkpt><trkpt lat="43.13936625275661" lon="2.1195497582912814"><ele>206.0</ele><time>2026-03-22T15:35:15.999Z</time></trkpt><trkpt lat="43.139571656089224" lon="2.1196922134986553"><ele>206.0</ele><time>2026-03-22T15:35:16.999Z</time></trkpt><trkpt lat="43.13978694487592" lon="2.119790728373903"><ele>206.0</ele><time>2026-03-22T15:35:17.999Z</time></trkpt><trkpt lat="43.13998789290254" lon="2.1199112507242304"><ele>206.0</ele><time>2026-03-22T15:35:18.999Z</time></trkpt><trkpt lat="43.14018470168136" lon="2.120031996433876"><ele>206.33333333333334</ele><time>2026-03-22T15:35:19.999Z</time></trkpt><trkpt lat="43.14038925192555" lon="2.1201526460373032"><ele>206.66666666666669</ele><time>2026-03-22T15:35:20.999Z</time></trkpt><trkpt lat="43.140585743980246" lon="2.120265060911293"><ele>207.0</ele><time>2026-03-22T15:35:21.999Z</time></trkpt><trkpt lat="43.14075938317247" lon="2.120363430142556"><ele>208.66666666666669</ele><time>2026-03-22T15:35:22.999Z</time></trkpt><trkpt lat="43.14091835810971" lon="2.1204545220872606"><ele>210.33333333333334</ele><time>2026-03-22T15:35:23.999Z</time></trkpt><trkpt lat="43.141066617669644" lon="2.120539247771737"><ele>212.0</ele><time>2026-03-22T15:35:24.999Z</time></trkpt><trkpt lat="43.141220306975185" lon="2.1206132265112565"><ele>212.0</ele><time>2026-03-22T15:35:25.999Z</time></trkpt><trkpt lat="43.14139657655408" lon="2.120654519196994"><ele>212.0</ele><time>2026-03-22T15:35:26.999Z</time></trkpt><trkpt lat="43.141574731297425" lon="2.1206640491262454"><ele>212.0</ele><time>2026-03-22T15:35:27.999Z</time></trkpt><trkpt lat="43.141725753843254" lon="2.120640052295412"><ele>215.0</ele><time>2026-03-22T15:35:28.999Z</time></trkpt><trkpt lat="43.14187851085083" lon="2.120564980952006"><ele>218.0</ele><time>2026-03-22T15:35:29.999Z</time></trkpt><trkpt lat="43.14203903453828" lon="2.1204329096320924"><ele>221.0</ele><time>2026-03-22T15:35:30.999Z</time></trkpt><trkpt lat="43.14220617984501" lon="2.1202545605790526"><ele>222.0</ele><time>2026-03-22T15:35:31.999Z</time></trkpt><trkpt lat="43.142387158536145" lon="2.1200740264151987"><ele>223.0</ele><time>2026-03-22T15:35:32.999Z</time></trkpt><trkpt lat="43.14257364055801" lon="2.119895140671727"><ele>223.66666666666666</ele><time>2026-03-22T15:35:33.999Z</time></trkpt><trkpt lat="43.14274636266625" lon="2.1197287050158344"><ele>224.33333333333331</ele><time>2026-03-22T15:35:34.999Z</time></trkpt><trkpt lat="43.14292855613735" lon="2.119544963390162"><ele>225.0</ele><time>2026-03-22T15:35:35.999Z</time></trkpt><trkpt lat="43.14310754807166" lon="2.1193548254895536"><ele>226.0</ele><time>2026-03-22T15:35:36.999Z</time></trkpt><trkpt lat="43.143294739902196" lon="2.119166641737498"><ele>227.0</ele><time>2026-03-22T15:35:37.999Z</time></trkpt><trkpt lat="43.14349364079502" lon="2.11896552109248"><ele>229.0</ele><time>2026-03-22T15:35:38.999Z</time></trkpt><trkpt lat="43.14368879381546" lon="2.1187770325756734"><ele>231.0</ele><time>2026-03-22T15:35:39.999Z</time></trkpt><trkpt lat="43.14389086566925" lon="2.11857910468261"><ele>232.0</ele><time>2026-03-22T15:35:40.999Z</time></trkpt><trkpt lat="43.14410449972971" lon="2.1183663412290765"><ele>233.0</ele><time>2026-03-22T15:35:41.999Z</time></trkpt><trkpt lat="43.14431656612758" lon="2.118158650710759"><ele>233.0</ele><time>2026-03-22T15:35:42.999Z</time></trkpt><trkpt lat="43.14453044112189" lon="2.1179490138046613"><ele>233.0</ele><time>2026-03-22T15:35:43.999Z</time></trkpt><trkpt lat="43.14474139495899" lon="2.117746520586485"><ele>230.5</ele><time>2026-03-22T15:35:44.999Z</time></trkpt><trkpt lat="43.144948673928766" lon="2.1175475382963787"><ele>228.0</ele><time>2026-03-22T15:35:45.999Z</time></trkpt><trkpt lat="43.14515552599052" lon="2.117344277942216"><ele>228.0</ele><time>2026-03-22T15:35:46.999Z</time></trkpt><trkpt lat="43.145359443514785" lon="2.1171388728284355"><ele>228.0</ele><time>2026-03-22T15:35:47.999Z</time></trkpt><trkpt lat="43.14556921775895" lon="2.116925819620548"><ele>225.5</ele><time>2026-03-22T15:35:48.999Z</time></trkpt><trkpt lat="43.14578270545092" lon="2.116710918735189"><ele>223.0</ele><time>2026-03-22T15:35:49.999Z</time></trkpt><trkpt lat="43.14600462361178" lon="2.1164954496296087"><ele>223.0</ele><time>2026-03-22T15:35:50.999Z</time></trkpt><trkpt lat="43.14622240176465" lon="2.1162844479878005"><ele>223.0</ele><time>2026-03-22T15:35:51.999Z</time></trkpt><trkpt lat="43.146430632175054" lon="2.1160804719715114"><ele>225.5</ele><time>2026-03-22T15:35:52.999Z</time></trkpt><trkpt lat="43.1466271117239" lon="2.1158868713149017"><ele>228.0</ele><time>2026-03-22T15:35:54Z</time></trkpt><trkpt lat="43.146823457714994" lon="2.115695670908135"><ele>228.0</ele><time>2026-03-22T15:35:55Z</time></trkpt><trkpt lat="43.147015080149025" lon="2.1155092279488925"><ele>228.0</ele><time>2026-03-22T15:35:56Z</time></trkpt><trkpt lat="43.14720104376285" lon="2.1153230733858406"><ele>229.5</ele><time>2026-03-22T15:35:57Z</time></trkpt><trkpt lat="43.14738650715904" lon="2.1151348258248444"><ele>231.0</ele><time>2026-03-22T15:35:58Z</time></trkpt><trkpt lat="43.147577090125196" lon="2.114949298841053"><ele>232.0</ele><time>2026-03-22T15:35:59Z</time></trkpt><trkpt lat="43.1477685746316" lon="2.114759240169457"><ele>233.0</ele><time>2026-03-22T15:36:00Z</time></trkpt><trkpt lat="43.147962062835745" lon="2.114567426200932"><ele>233.0</ele><time>2026-03-22T15:36:01Z</time></trkpt><trkpt lat="43.14815165497738" lon="2.114378291745975"><ele>233.0</ele><time>2026-03-22T15:36:02Z</time></trkpt><trkpt lat="43.1483444198982" lon="2.114186772307479"><ele>234.66666666666669</ele><time>2026-03-22T15:36:03Z</time></trkpt><trkpt lat="43.1485353571367" lon="2.11399903223232"><ele>236.33333333333331</ele><time>2026-03-22T15:36:04Z</time></trkpt><trkpt lat="43.14870873387945" lon="2.1138284659526225"><ele>238.0</ele><time>2026-03-22T15:36:05Z</time></trkpt><trkpt lat="43.148868975370064" lon="2.11367880127323"><ele>238.0</ele><time>2026-03-22T15:36:06Z</time></trkpt><trkpt lat="43.149033943922056" lon="2.1135437701401902"><ele>238.0</ele><time>2026-03-22T15:36:07Z</time></trkpt><trkpt lat="43.149208157032206" lon="2.1134217825686106"><ele>238.0</ele><time>2026-03-22T15:36:08Z</time></trkpt><trkpt lat="43.149383852350724" lon="2.113332433331067"><ele>239.66666666666666</ele><time>2026-03-22T15:36:09Z</time></trkpt><trkpt lat="43.14956580885952" lon="2.1132030586527795"><ele>241.33333333333331</ele><time>2026-03-22T15:36:10Z</time></trkpt><trkpt lat="43.14977264786093" lon="2.113074064135923"><ele>243.0</ele><time>2026-03-22T15:36:11Z</time></trkpt><trkpt lat="43.15005686142771" lon="2.113124915821843"><ele>243.0</ele><time>2026-03-22T15:36:12Z</time></trkpt><trkpt lat="43.15031444771372" lon="2.113043959262308"><ele>243.0</ele><time>2026-03-22T15:36:13Z</time></trkpt><trkpt lat="43.150585173415664" lon="2.1129614013774205"><ele>241.0</ele><time>2026-03-22T15:36:14Z</time></trkpt><trkpt lat="43.150871323987886" lon="2.11287659506729"><ele>239.0</ele><time>2026-03-22T15:36:15Z</time></trkpt><trkpt lat="43.15114257053539" lon="2.1127974766142437"><ele>239.0</ele><time>2026-03-22T15:36:16Z</time></trkpt><trkpt lat="43.151405787555895" lon="2.1127184260879996"><ele>239.0</ele><time>2026-03-22T15:36:17Z</time></trkpt><trkpt lat="43.15165843348486" lon="2.1126437049748783"><ele>237.0</ele><time>2026-03-22T15:36:18Z</time></trkpt><trkpt lat="43.15190428313642" lon="2.1125670405045205"><ele>235.0</ele><time>2026-03-22T15:36:19Z</time></trkpt><trkpt lat="43.152148880300565" lon="2.1124922172027483"><ele>235.0</ele><time>2026-03-22T15:36:20Z</time></trkpt><trkpt lat="43.15239267469558" lon="2.1124177470128314"><ele>235.0</ele><time>2026-03-22T15:36:21Z</time></trkpt><trkpt lat="43.152638749143684" lon="2.112344917095923"><ele>235.0</ele><time>2026-03-22T15:36:22Z</time></trkpt><trkpt lat="43.152880329399835" lon="2.1122723251820767"><ele>235.0</ele><time>2026-03-22T15:36:23Z</time></trkpt><trkpt lat="43.153141884517744" lon="2.112193585370461"><ele>235.0</ele><time>2026-03-22T15:36:24Z</time></trkpt><trkpt lat="43.15337646932177" lon="2.1121337538053875"><ele>235.0</ele><time>2026-03-22T15:36:25Z</time></trkpt><trkpt lat="43.15358664089782" lon="2.1120726384617576"><ele>235.0</ele><time>2026-03-22T15:36:26Z</time></trkpt><trkpt lat="43.15377825277424" lon="2.1120141637287384"><ele>235.0</ele><time>2026-03-22T15:36:27Z</time></trkpt><trkpt lat="43.153963426177754" lon="2.1119567734769604"><ele>235.0</ele><time>2026-03-22T15:36:28Z</time></trkpt><trkpt lat="43.15413397163703" lon="2.1119058531719483"><ele>234.33333333333331</ele><time>2026-03-22T15:36:29Z</time></trkpt><trkpt lat="43.154306641371505" lon="2.1118648848915598"><ele>233.66666666666669</ele><time>2026-03-22T15:36:30Z</time></trkpt><trkpt lat="43.15448404733553" lon="2.111852756618964"><ele>233.0</ele><time>2026-03-22T15:36:31Z</time></trkpt><trkpt lat="43.15465729458539" lon="2.1118769622808893"><ele>233.0</ele><time>2026-03-22T15:36:32Z</time></trkpt><trkpt lat="43.15483585990232" lon="2.1119384611450367"><ele>233.0</ele><time>2026-03-22T15:36:33Z</time></trkpt><trkpt lat="43.15502475311772" lon="2.1120263172031244"><ele>233.0</ele><time>2026-03-22T15:36:34Z</time></trkpt><trkpt lat="43.15521794118969" lon="2.1121115757346423"><ele>232.33333333333334</ele><time>2026-03-22T15:36:35Z</time></trkpt><trkpt lat="43.155420472458125" lon="2.112193619448115"><ele>231.66666666666669</ele><time>2026-03-22T15:36:36Z</time></trkpt><trkpt lat="43.155625140944814" lon="2.1122764163402623"><ele>231.0</ele><time>2026-03-22T15:36:37Z</time></trkpt><trkpt lat="43.15584027396106" lon="2.1123638911752294"><ele>230.5</ele><time>2026-03-22T15:36:38Z</time></trkpt><trkpt lat="43.15607273814912" lon="2.1124589825476954"><ele>230.0</ele><time>2026-03-22T15:36:39Z</time></trkpt><trkpt lat="43.156299715046735" lon="2.112554617001401"><ele>230.0</ele><time>2026-03-22T15:36:40Z</time></trkpt><trkpt lat="43.15652140118526" lon="2.1126402137562112"><ele>230.0</ele><time>2026-03-22T15:36:41Z</time></trkpt><trkpt lat="43.156733007621156" lon="2.1127240220282397"><ele>228.33333333333334</ele><time>2026-03-22T15:36:42Z</time></trkpt><trkpt lat="43.15691532739969" lon="2.1127924423799533"><ele>226.66666666666669</ele><time>2026-03-22T15:36:43Z</time></trkpt><trkpt lat="43.157092730462736" lon="2.1128615098578525"><ele>225.0</ele><time>2026-03-22T15:36:44Z</time></trkpt><trkpt lat="43.157277679462254" lon="2.112934774361206"><ele>224.66666666666669</ele><time>2026-03-22T15:36:45Z</time></trkpt><trkpt lat="43.15746496311324" lon="2.1130108884228154"><ele>224.33333333333334</ele><time>2026-03-22T15:36:46Z</time></trkpt><trkpt lat="43.157646541994374" lon="2.113081597483402"><ele>224.0</ele><time>2026-03-22T15:36:47Z</time></trkpt><trkpt lat="43.15783220432312" lon="2.1131665507668718"><ele>224.66666666666669</ele><time>2026-03-22T15:36:48Z</time></trkpt><trkpt lat="43.158010800132494" lon="2.1132442037354133"><ele>225.33333333333331</ele><time>2026-03-22T15:36:49Z</time></trkpt><trkpt lat="43.15817603574548" lon="2.113305772932258"><ele>226.0</ele><time>2026-03-22T15:36:50Z</time></trkpt><trkpt lat="43.158351099537725" lon="2.113352825161722"><ele>224.33333333333331</ele><time>2026-03-22T15:36:51Z</time></trkpt><trkpt lat="43.158551653644786" lon="2.1133735936790554"><ele>222.66666666666669</ele><time>2026-03-22T15:36:52Z</time></trkpt><trkpt lat="43.15876178736591" lon="2.11337090351683"><ele>221.0</ele><time>2026-03-22T15:36:53Z</time></trkpt><trkpt lat="43.15897975563142" lon="2.1133391907743246"><ele>219.33333333333334</ele><time>2026-03-22T15:36:54Z</time></trkpt><trkpt lat="43.15917231308678" lon="2.113280058285906"><ele>217.66666666666669</ele><time>2026-03-22T15:36:55Z</time></trkpt><trkpt lat="43.15935485669754" lon="2.1132077951466295"><ele>216.0</ele><time>2026-03-22T15:36:56Z</time></trkpt><trkpt lat="43.159533408058" lon="2.1131359801217022"><ele>215.0</ele><time>2026-03-22T15:36:57Z</time></trkpt><trkpt lat="43.15971672018496" lon="2.1130719180350197"><ele>214.0</ele><time>2026-03-22T15:36:58Z</time></trkpt><trkpt lat="43.159907806336484" lon="2.1130219324847337"><ele>213.0</ele><time>2026-03-22T15:36:59Z</time></trkpt><trkpt lat="43.160100198618636" lon="2.1129965030648075"><ele>212.33333333333331</ele><time>2026-03-22T15:37:00Z</time></trkpt><trkpt lat="43.1603026063025" lon="2.1130216004307196"><ele>211.66666666666666</ele><time>2026-03-22T15:37:01Z</time></trkpt><trkpt lat="43.16050972410597" lon="2.113099943360425"><ele>211.0</ele><time>2026-03-22T15:37:02Z</time></trkpt><trkpt lat="43.16072485467638" lon="2.113215998709741"><ele>211.0</ele><time>2026-03-22T15:37:03Z</time></trkpt><trkpt lat="43.160961664717576" lon="2.11335675991371"><ele>211.0</ele><time>2026-03-22T15:37:04Z</time></trkpt><trkpt lat="43.16120318256248" lon="2.1134965934433287"><ele>211.0</ele><time>2026-03-22T15:37:05Z</time></trkpt><trkpt lat="43.1614357043071" lon="2.1136258324082626"><ele>211.0</ele><time>2026-03-22T15:37:06Z</time></trkpt><trkpt lat="43.161663810186106" lon="2.1137547828464673"><ele>213.0</ele><time>2026-03-22T15:37:07Z</time></trkpt><trkpt lat="43.161894636094004" lon="2.1138841421761643"><ele>215.0</ele><time>2026-03-22T15:37:08Z</time></trkpt><trkpt lat="43.16211604021198" lon="2.1140138730843843"><ele>215.0</ele><time>2026-03-22T15:37:09Z</time></trkpt><trkpt lat="43.1623375156928" lon="2.1141408062379536"><ele>215.0</ele><time>2026-03-22T15:37:10Z</time></trkpt><trkpt lat="43.16255423866489" lon="2.1142653400908773"><ele>215.0</ele><time>2026-03-22T15:37:11Z</time></trkpt><trkpt lat="43.16276683804962" lon="2.114386606758229"><ele>215.0</ele><time>2026-03-22T15:37:12Z</time></trkpt><trkpt lat="43.162974538424415" lon="2.114502566415781"><ele>215.0</ele><time>2026-03-22T15:37:13Z</time></trkpt><trkpt lat="43.163169335890636" lon="2.114615186544511"><ele>215.0</ele><time>2026-03-22T15:37:14Z</time></trkpt><trkpt lat="43.16334766435097" lon="2.1147181576285616"><ele>215.0</ele><time>2026-03-22T15:37:15Z</time></trkpt><trkpt lat="43.163511680100164" lon="2.1148130916374153"><ele>216.66666666666669</ele><time>2026-03-22T15:37:16Z</time></trkpt><trkpt lat="43.1636712800363" lon="2.1149058082346093"><ele>218.33333333333331</ele><time>2026-03-22T15:37:17Z</time></trkpt><trkpt lat="43.16383496574899" lon="2.114997887610436"><ele>220.0</ele><time>2026-03-22T15:37:18Z</time></trkpt><trkpt lat="43.16398395276921" lon="2.115077316828064"><ele>221.66666666666666</ele><time>2026-03-22T15:37:19Z</time></trkpt><trkpt lat="43.16414144333925" lon="2.1151362768556723"><ele>223.33333333333331</ele><time>2026-03-22T15:37:20Z</time></trkpt><trkpt lat="43.164300490373904" lon="2.115161016563847"><ele>225.0</ele><time>2026-03-22T15:37:21Z</time></trkpt><trkpt lat="43.16446094145721" lon="2.1151506584999895"><ele>225.0</ele><time>2026-03-22T15:37:22Z</time></trkpt><trkpt lat="43.164608865540536" lon="2.115098699127432"><ele>225.0</ele><time>2026-03-22T15:37:23Z</time></trkpt><trkpt lat="43.16475649850728" lon="2.1150024838140857"><ele>225.0</ele><time>2026-03-22T15:37:24Z</time></trkpt><trkpt lat="43.16490669589764" lon="2.1148646750968587"><ele>225.33333333333331</ele><time>2026-03-22T15:37:25Z</time></trkpt><trkpt lat="43.165056938116166" lon="2.1147035222744273"><ele>225.66666666666666</ele><time>2026-03-22T15:37:26Z</time></trkpt><trkpt lat="43.165198740609455" lon="2.114514652864932"><ele>226.0</ele><time>2026-03-22T15:37:27Z</time></trkpt><trkpt lat="43.165335238286644" lon="2.114309605650577"><ele>226.0</ele><time>2026-03-22T15:37:28Z</time></trkpt><trkpt lat="43.165465749672755" lon="2.114093636480923"><ele>226.0</ele><time>2026-03-22T15:37:29Z</time></trkpt><trkpt lat="43.165576943944025" lon="2.1138534724129805"><ele>226.0</ele><time>2026-03-22T15:37:30Z</time></trkpt><trkpt lat="43.16566834769814" lon="2.113580800792376"><ele>225.5</ele><time>2026-03-22T15:37:30.999Z</time></trkpt><trkpt lat="43.16574926686616" lon="2.1132711655805174"><ele>225.0</ele><time>2026-03-22T15:37:31.999Z</time></trkpt><trkpt lat="43.1658365658788" lon="2.112970187243973"><ele>226.66666666666669</ele><time>2026-03-22T15:37:32.999Z</time></trkpt><trkpt lat="43.16592717144254" lon="2.112671477113845"><ele>228.33333333333334</ele><time>2026-03-22T15:37:33.999Z</time></trkpt><trkpt lat="43.166006845375115" lon="2.112400356767782"><ele>230.0</ele><time>2026-03-22T15:37:34.999Z</time></trkpt><trkpt lat="43.16608569075139" lon="2.112143798958929"><ele>231.0</ele><time>2026-03-22T15:37:35.999Z</time></trkpt><trkpt lat="43.16616252108353" lon="2.1118809765746076"><ele>232.0</ele><time>2026-03-22T15:37:36.999Z</time></trkpt><trkpt lat="43.166237853931385" lon="2.111623091849957"><ele>233.0</ele><time>2026-03-22T15:37:37.999Z</time></trkpt><trkpt lat="43.166312503468134" lon="2.1113665497490812"><ele>234.0</ele><time>2026-03-22T15:37:38.999Z</time></trkpt><trkpt lat="43.16640091750925" lon="2.1111067534388352"><ele>235.0</ele><time>2026-03-22T15:37:39.999Z</time></trkpt><trkpt lat="43.16650204727695" lon="2.110864608768475"><ele>236.0</ele><time>2026-03-22T15:37:40.999Z</time></trkpt><trkpt lat="43.16661604012965" lon="2.110649694883362"><ele>237.0</ele><time>2026-03-22T15:37:41.999Z</time></trkpt><trkpt lat="43.166736931050494" lon="2.110457696575584"><ele>238.0</ele><time>2026-03-22T15:37:42.999Z</time></trkpt><trkpt lat="43.166881306831414" lon="2.110275256093259"><ele>239.0</ele><time>2026-03-22T15:37:43.999Z</time></trkpt><trkpt lat="43.167023887442625" lon="2.110075729354853"><ele>240.0</ele><time>2026-03-22T15:37:44.999Z</time></trkpt><trkpt lat="43.167159809957944" lon="2.109873170926635"><ele>241.0</ele><time>2026-03-22T15:37:45.999Z</time></trkpt><trkpt lat="43.167295264874035" lon="2.1096673539560586"><ele>242.0</ele><time>2026-03-22T15:37:46.999Z</time></trkpt><trkpt lat="43.16743290947525" lon="2.1094598466"><ele>242.33333333333334</ele><time>2026-03-22T15:37:47.999Z</time></trkpt><trkpt lat="43.167573203107644" lon="2.109248178095412"><ele>242.66666666666669</ele><time>2026-03-22T15:37:48.999Z</time></trkpt><trkpt lat="43.16771650138937" lon="2.1090268002485506"><ele>243.0</ele><time>2026-03-22T15:37:49.999Z</time></trkpt><trkpt lat="43.16786357093129" lon="2.1088013061075155"><ele>245.5</ele><time>2026-03-22T15:37:50.999Z</time></trkpt><trkpt lat="43.16801414400682" lon="2.108575550142321"><ele>248.0</ele><time>2026-03-22T15:37:51.999Z</time></trkpt><trkpt lat="43.16818155966474" lon="2.1083404488631317"><ele>247.66666666666669</ele><time>2026-03-22T15:37:52.999Z</time></trkpt><trkpt lat="43.16833975920373" lon="2.108140903864049"><ele>247.33333333333331</ele><time>2026-03-22T15:37:53.999Z</time></trkpt><trkpt lat="43.168468141870356" lon="2.1079724539601767"><ele>247.0</ele><time>2026-03-22T15:37:54.999Z</time></trkpt><trkpt lat="43.16861389413779" lon="2.1077811803853317"><ele>247.0</ele><time>2026-03-22T15:37:55.999Z</time></trkpt><trkpt lat="43.168767934098256" lon="2.1075748456596073"><ele>247.0</ele><time>2026-03-22T15:37:56.999Z</time></trkpt><trkpt lat="43.168924145446304" lon="2.1073634989537378"><ele>247.0</ele><time>2026-03-22T15:37:57.999Z</time></trkpt><trkpt lat="43.16908253234449" lon="2.1071435575781408"><ele>243.5</ele><time>2026-03-22T15:37:58.999Z</time></trkpt><trkpt lat="43.16924879543542" lon="2.1068982627611588"><ele>240.0</ele><time>2026-03-22T15:38:00Z</time></trkpt><trkpt lat="43.16943002381641" lon="2.1066175544529275"><ele>239.5</ele><time>2026-03-22T15:38:01Z</time></trkpt><trkpt lat="43.169606476131094" lon="2.1063543269251226"><ele>239.0</ele><time>2026-03-22T15:38:02Z</time></trkpt><trkpt lat="43.16976335309951" lon="2.106120198807234"><ele>238.0</ele><time>2026-03-22T15:38:03Z</time></trkpt><trkpt lat="43.16991540509068" lon="2.105887118112864"><ele>237.0</ele><time>2026-03-22T15:38:04Z</time></trkpt><trkpt lat="43.17006154603943" lon="2.1056612592882122"><ele>236.0</ele><time>2026-03-22T15:38:05Z</time></trkpt><trkpt lat="43.17020848790745" lon="2.10543038336431"><ele>236.0</ele><time>2026-03-22T15:38:06Z</time></trkpt><trkpt lat="43.17035547565987" lon="2.1051914468493926"><ele>236.0</ele><time>2026-03-22T15:38:07Z</time></trkpt><trkpt lat="43.17050043711976" lon="2.1049463921296288"><ele>234.0</ele><time>2026-03-22T15:38:08Z</time></trkpt><trkpt lat="43.170638865778166" lon="2.10469241620153"><ele>232.0</ele><time>2026-03-22T15:38:09Z</time></trkpt><trkpt lat="43.17077545449952" lon="2.104423760190301"><ele>230.5</ele><time>2026-03-22T15:38:10Z</time></trkpt><trkpt lat="43.1709162025594" lon="2.1041518655299467"><ele>229.0</ele><time>2026-03-22T15:38:11Z</time></trkpt><trkpt lat="43.171058264064435" lon="2.1038756530813476"><ele>227.5</ele><time>2026-03-22T15:38:12Z</time></trkpt><trkpt lat="43.17119772713675" lon="2.1035977262532684"><ele>226.0</ele><time>2026-03-22T15:38:13Z</time></trkpt><trkpt lat="43.171333780286574" lon="2.1033272769759948"><ele>226.5</ele><time>2026-03-22T15:38:14Z</time></trkpt><trkpt lat="43.171469711207735" lon="2.10305203271927"><ele>227.0</ele><time>2026-03-22T15:38:15Z</time></trkpt><trkpt lat="43.17159689645249" lon="2.1027931237437767"><ele>226.0</ele><time>2026-03-22T15:38:16Z</time></trkpt><trkpt lat="43.171721051304665" lon="2.10254267771785"><ele>225.0</ele><time>2026-03-22T15:38:17Z</time></trkpt><trkpt lat="43.17183812323315" lon="2.102303345721914"><ele>224.0</ele><time>2026-03-22T15:38:18Z</time></trkpt><trkpt lat="43.17195938619884" lon="2.1020677580598313"><ele>224.0</ele><time>2026-03-22T15:38:19Z</time></trkpt><trkpt lat="43.17208455087811" lon="2.1018260123462715"><ele>224.0</ele><time>2026-03-22T15:38:20Z</time></trkpt><trkpt lat="43.172205007018384" lon="2.1015917916972096"><ele>224.0</ele><time>2026-03-22T15:38:21Z</time></trkpt><trkpt lat="43.17231810102841" lon="2.1013672386065254"><ele>221.66666666666669</ele><time>2026-03-22T15:38:22Z</time></trkpt><trkpt lat="43.1724335231337" lon="2.101140151805991"><ele>219.33333333333331</ele><time>2026-03-22T15:38:23Z</time></trkpt><trkpt lat="43.172549794697396" lon="2.1009067660964207"><ele>217.0</ele><time>2026-03-22T15:38:24Z</time></trkpt><trkpt lat="43.172664610618774" lon="2.100678102313686"><ele>216.33333333333331</ele><time>2026-03-22T15:38:25Z</time></trkpt><trkpt lat="43.17278373366597" lon="2.1004448075562165"><ele>215.66666666666669</ele><time>2026-03-22T15:38:26Z</time></trkpt><trkpt lat="43.172901608454474" lon="2.100214541341197"><ele>215.0</ele><time>2026-03-22T15:38:27Z</time></trkpt><trkpt lat="43.17302098650119" lon="2.099985188085577"><ele>215.33333333333334</ele><time>2026-03-22T15:38:28Z</time></trkpt><trkpt lat="43.17314231730877" lon="2.0997562421371567"><ele>215.66666666666669</ele><time>2026-03-22T15:38:29Z</time></trkpt><trkpt lat="43.17324757479422" lon="2.0995234465937793"><ele>216.0</ele><time>2026-03-22T15:38:30Z</time></trkpt><trkpt lat="43.173365512944535" lon="2.0992822946709975"><ele>216.66666666666669</ele><time>2026-03-22T15:38:31Z</time></trkpt><trkpt lat="43.173472457431004" lon="2.0990140161965924"><ele>217.33333333333334</ele><time>2026-03-22T15:38:32Z</time></trkpt><trkpt lat="43.173596243618334" lon="2.0987663949719666"><ele>218.0</ele><time>2026-03-22T15:38:33Z</time></trkpt><trkpt lat="43.173725879613215" lon="2.098547786462522"><ele>218.0</ele><time>2026-03-22T15:38:34Z</time></trkpt><trkpt lat="43.173841963067055" lon="2.098321845562466"><ele>218.0</ele><time>2026-03-22T15:38:35Z</time></trkpt><trkpt lat="43.173951810669614" lon="2.098089569115736"><ele>218.0</ele><time>2026-03-22T15:38:36Z</time></trkpt><trkpt lat="43.17406660488052" lon="2.0978522345636055"><ele>219.66666666666669</ele><time>2026-03-22T15:38:37Z</time></trkpt><trkpt lat="43.174184735195446" lon="2.0976172339211208"><ele>221.33333333333331</ele><time>2026-03-22T15:38:38Z</time></trkpt><trkpt lat="43.17430012127245" lon="2.097376779293474"><ele>223.0</ele><time>2026-03-22T15:38:39Z</time></trkpt><trkpt lat="43.1744185311013" lon="2.0971379369663588"><ele>224.0</ele><time>2026-03-22T15:38:40Z</time></trkpt><trkpt lat="43.17453861609357" lon="2.0968988073818045"><ele>225.0</ele><time>2026-03-22T15:38:41Z</time></trkpt><trkpt lat="43.17465225517418" lon="2.0966687017962427"><ele>226.0</ele><time>2026-03-22T15:38:42Z</time></trkpt><trkpt lat="43.17476252639356" lon="2.096440026801643"><ele>224.33333333333331</ele><time>2026-03-22T15:38:43Z</time></trkpt><trkpt lat="43.17487377004972" lon="2.09620588778769"><ele>222.66666666666669</ele><time>2026-03-22T15:38:44Z</time></trkpt><trkpt lat="43.174989815935405" lon="2.095957909054196"><ele>221.0</ele><time>2026-03-22T15:38:45Z</time></trkpt><trkpt lat="43.17510991539727" lon="2.0957060031540165"><ele>221.0</ele><time>2026-03-22T15:38:46Z</time></trkpt><trkpt lat="43.17523411360826" lon="2.0954522293127074"><ele>221.0</ele><time>2026-03-22T15:38:47Z</time></trkpt><trkpt lat="43.17535721280726" lon="2.095202288396562"><ele>221.0</ele><time>2026-03-22T15:38:48Z</time></trkpt><trkpt lat="43.175477322337954" lon="2.0949495625150543"><ele>222.0</ele><time>2026-03-22T15:38:49Z</time></trkpt><trkpt lat="43.17559621363397" lon="2.094694779492241"><ele>223.0</ele><time>2026-03-22T15:38:50Z</time></trkpt><trkpt lat="43.17571886047147" lon="2.09444355431291"><ele>224.0</ele><time>2026-03-22T15:38:51Z</time></trkpt><trkpt lat="43.17584212770951" lon="2.0941850840297223"><ele>222.0</ele><time>2026-03-22T15:38:52Z</time></trkpt><trkpt lat="43.17596976568191" lon="2.0939193361234234"><ele>220.0</ele><time>2026-03-22T15:38:53Z</time></trkpt><trkpt lat="43.17609755216981" lon="2.093647096145775"><ele>220.0</ele><time>2026-03-22T15:38:54Z</time></trkpt><trkpt lat="43.176223630498164" lon="2.093379567396315"><ele>220.0</ele><time>2026-03-22T15:38:55Z</time></trkpt><trkpt lat="43.17634994833029" lon="2.093113746167235"><ele>220.5</ele><time>2026-03-22T15:38:56Z</time></trkpt><trkpt lat="43.17647501135502" lon="2.0928517585734188"><ele>221.0</ele><time>2026-03-22T15:38:57Z</time></trkpt><trkpt lat="43.17659902118636" lon="2.092588218729213"><ele>218.0</ele><time>2026-03-22T15:38:58Z</time></trkpt><trkpt lat="43.176723294178636" lon="2.0923290135025314"><ele>215.0</ele><time>2026-03-22T15:38:59Z</time></trkpt><trkpt lat="43.17684916844872" lon="2.09207154604001"><ele>215.0</ele><time>2026-03-22T15:39:00Z</time></trkpt><trkpt lat="43.17696929808293" lon="2.091819187598822"><ele>215.0</ele><time>2026-03-22T15:39:01Z</time></trkpt><trkpt lat="43.17708646977304" lon="2.091572064511376"><ele>215.0</ele><time>2026-03-22T15:39:02Z</time></trkpt><trkpt lat="43.17720556523268" lon="2.0913276792495825"><ele>215.33333333333334</ele><time>2026-03-22T15:39:03Z</time></trkpt><trkpt lat="43.17732528988332" lon="2.0910840608308123"><ele>215.66666666666669</ele><time>2026-03-22T15:39:04Z</time></trkpt><trkpt lat="43.17744598195134" lon="2.090836364151003"><ele>216.0</ele><time>2026-03-22T15:39:05Z</time></trkpt><trkpt lat="43.17756572289372" lon="2.0905890146209716"><ele>216.66666666666669</ele><time>2026-03-22T15:39:06Z</time></trkpt><trkpt lat="43.17768062838795" lon="2.0903544692735565"><ele>217.33333333333334</ele><time>2026-03-22T15:39:07Z</time></trkpt><trkpt lat="43.17778913282288" lon="2.0901378593067217"><ele>218.0</ele><time>2026-03-22T15:39:08Z</time></trkpt><trkpt lat="43.17789657888522" lon="2.0899261101790443"><ele>218.0</ele><time>2026-03-22T15:39:09Z</time></trkpt><trkpt lat="43.177998900550435" lon="2.0897184339811115"><ele>218.0</ele><time>2026-03-22T15:39:10Z</time></trkpt><trkpt lat="43.17809371492648" lon="2.0895251754360844"><ele>218.0</ele><time>2026-03-22T15:39:11Z</time></trkpt><trkpt lat="43.17818924170498" lon="2.0893283396330267"><ele>219.0</ele><time>2026-03-22T15:39:12Z</time></trkpt><trkpt lat="43.17827938680142" lon="2.0891358198352186"><ele>220.0</ele><time>2026-03-22T15:39:13Z</time></trkpt><trkpt lat="43.17836412674575" lon="2.0889556978445647"><ele>221.0</ele><time>2026-03-22T15:39:14Z</time></trkpt><trkpt lat="43.178443785474876" lon="2.0887899788776783"><ele>221.5</ele><time>2026-03-22T15:39:15Z</time></trkpt><trkpt lat="43.178524134822545" lon="2.0886266985724697"><ele>222.0</ele><time>2026-03-22T15:39:16Z</time></trkpt><trkpt lat="43.17859987143899" lon="2.0884750659587836"><ele>222.5</ele><time>2026-03-22T15:39:17Z</time></trkpt><trkpt lat="43.17866464911326" lon="2.0883397505343195"><ele>223.0</ele><time>2026-03-22T15:39:18Z</time></trkpt><trkpt lat="43.17873005989562" lon="2.0882014558774777"><ele>224.75</ele><time>2026-03-22T15:39:19Z</time></trkpt><trkpt lat="43.17879694976941" lon="2.0880601600576996"><ele>226.5</ele><time>2026-03-22T15:39:20Z</time></trkpt><trkpt lat="43.17886434362601" lon="2.087920245216094"><ele>228.25</ele><time>2026-03-22T15:39:21Z</time></trkpt><trkpt lat="43.17892737269781" lon="2.087785318347717"><ele>230.0</ele><time>2026-03-22T15:39:22Z</time></trkpt><trkpt lat="43.17898880800597" lon="2.0876565616377527"><ele>230.0</ele><time>2026-03-22T15:39:22.999Z</time></trkpt><trkpt lat="43.17904639553172" lon="2.0875349134507006"><ele>230.0</ele><time>2026-03-22T15:39:23.999Z</time></trkpt><trkpt lat="43.17909925652062" lon="2.0874257810241073"><ele>230.0</ele><time>2026-03-22T15:39:24.999Z</time></trkpt><trkpt lat="43.17915089120992" lon="2.087322277735059"><ele>230.0</ele><time>2026-03-22T15:39:25.999Z</time></trkpt><trkpt lat="43.17920170465546" lon="2.0872135501953735"><ele>230.0</ele><time>2026-03-22T15:39:26.999Z</time></trkpt><trkpt lat="43.17925720489718" lon="2.0871051561282132"><ele>230.6</ele><time>2026-03-22T15:39:27.999Z</time></trkpt><trkpt lat="43.179319312371454" lon="2.08699783278279"><ele>231.2</ele><time>2026-03-22T15:39:28.999Z</time></trkpt><trkpt lat="43.179383532827494" lon="2.0868903008766777"><ele>231.8</ele><time>2026-03-22T15:39:29.999Z</time></trkpt><trkpt lat="43.17945591960064" lon="2.086779098665707"><ele>232.4</ele><time>2026-03-22T15:39:30.999Z</time></trkpt><trkpt lat="43.17953411385085" lon="2.0866647571607237"><ele>233.0</ele><time>2026-03-22T15:39:31.999Z</time></trkpt><trkpt lat="43.17961646221552" lon="2.0865473928352705"><ele>233.75</ele><time>2026-03-22T15:39:32.999Z</time></trkpt><trkpt lat="43.179703011757056" lon="2.08642088456436"><ele>234.5</ele><time>2026-03-22T15:39:33.999Z</time></trkpt><trkpt lat="43.17979810960404" lon="2.0862892932156094"><ele>235.25</ele><time>2026-03-22T15:39:34.999Z</time></trkpt><trkpt lat="43.17989894422089" lon="2.086141453969745"><ele>236.0</ele><time>2026-03-22T15:39:35.999Z</time></trkpt><trkpt lat="43.180017763460825" lon="2.085984948054317"><ele>234.0</ele><time>2026-03-22T15:39:36.999Z</time></trkpt><trkpt lat="43.18013733883019" lon="2.0858194558689465"><ele>232.0</ele><time>2026-03-22T15:39:37.999Z</time></trkpt><trkpt lat="43.18025367957023" lon="2.0856564402184996"><ele>230.0</ele><time>2026-03-22T15:39:38.999Z</time></trkpt><trkpt lat="43.18037767785508" lon="2.0854876957291535"><ele>230.0</ele><time>2026-03-22T15:39:39.999Z</time></trkpt><trkpt lat="43.180497616490506" lon="2.08530930955248"><ele>230.0</ele><time>2026-03-22T15:39:40.999Z</time></trkpt><trkpt lat="43.18061301221933" lon="2.0851484858146176"><ele>230.0</ele><time>2026-03-22T15:39:41.999Z</time></trkpt><trkpt lat="43.180719675021486" lon="2.0849939739071313"><ele>228.0</ele><time>2026-03-22T15:39:42.999Z</time></trkpt><trkpt lat="43.180825591036296" lon="2.0848396453365154"><ele>226.0</ele><time>2026-03-22T15:39:43.999Z</time></trkpt><trkpt lat="43.180934170835386" lon="2.084678451540557"><ele>224.0</ele><time>2026-03-22T15:39:44.999Z</time></trkpt><trkpt lat="43.18103830478788" lon="2.08452892645475"><ele>224.0</ele><time>2026-03-22T15:39:45.999Z</time></trkpt><trkpt lat="43.18114550935448" lon="2.08438071188203"><ele>224.0</ele><time>2026-03-22T15:39:46.999Z</time></trkpt><trkpt lat="43.1812497429498" lon="2.0842324573333912"><ele>224.0</ele><time>2026-03-22T15:39:47.999Z</time></trkpt><trkpt lat="43.18135120964003" lon="2.084085236103758"><ele>223.75</ele><time>2026-03-22T15:39:48.999Z</time></trkpt><trkpt lat="43.18144872055932" lon="2.08394465839566"><ele>223.5</ele><time>2026-03-22T15:39:49.999Z</time></trkpt><trkpt lat="43.181551731209254" lon="2.0838011006014736"><ele>223.25</ele><time>2026-03-22T15:39:50.999Z</time></trkpt><trkpt lat="43.181650603119024" lon="2.083664414479433"><ele>223.0</ele><time>2026-03-22T15:39:51.999Z</time></trkpt><trkpt lat="43.18175205330861" lon="2.083520979685627"><ele>222.75</ele><time>2026-03-22T15:39:52.999Z</time></trkpt><trkpt lat="43.181846470569816" lon="2.083390645527395"><ele>222.5</ele><time>2026-03-22T15:39:53.999Z</time></trkpt><trkpt lat="43.181938149740354" lon="2.0832587366394706"><ele>222.25</ele><time>2026-03-22T15:39:54.999Z</time></trkpt><trkpt lat="43.182031964470056" lon="2.0831263393141057"><ele>222.0</ele><time>2026-03-22T15:39:55.999Z</time></trkpt><trkpt lat="43.18213101255456" lon="2.082988867805454"><ele>222.0</ele><time>2026-03-22T15:39:56.999Z</time></trkpt><trkpt lat="43.18222761628665" lon="2.0828458820817453"><ele>222.0</ele><time>2026-03-22T15:39:57.999Z</time></trkpt><trkpt lat="43.18233112410516" lon="2.08270501691867"><ele>222.0</ele><time>2026-03-22T15:39:58.999Z</time></trkpt><trkpt lat="43.18242632573373" lon="2.082571480798639"><ele>222.0</ele><time>2026-03-22T15:39:59.999Z</time></trkpt><trkpt lat="43.1825181313691" lon="2.0824389661488594"><ele>222.0</ele><time>2026-03-22T15:40:00.999Z</time></trkpt><trkpt lat="43.18261589940945" lon="2.0823017726498443"><ele>222.0</ele><time>2026-03-22T15:40:01.999Z</time></trkpt><trkpt lat="43.182715401065934" lon="2.082165819490333"><ele>222.0</ele><time>2026-03-22T15:40:02.999Z</time></trkpt><trkpt lat="43.18281233877903" lon="2.0820227360039456"><ele>222.0</ele><time>2026-03-22T15:40:03.999Z</time></trkpt><trkpt lat="43.18291782414812" lon="2.081875421826183"><ele>222.0</ele><time>2026-03-22T15:40:04.999Z</time></trkpt><trkpt lat="43.18302654276441" lon="2.081714628998899"><ele>222.0</ele><time>2026-03-22T15:40:06Z</time></trkpt><trkpt lat="43.183158850014316" lon="2.0815237569401264"><ele>222.0</ele><time>2026-03-22T15:40:07Z</time></trkpt><trkpt lat="43.18331098968618" lon="2.0812980897179894"><ele>221.5</ele><time>2026-03-22T15:40:08Z</time></trkpt><trkpt lat="43.18345922685396" lon="2.0810812637338474"><ele>221.0</ele><time>2026-03-22T15:40:09Z</time></trkpt><trkpt lat="43.183643721026534" lon="2.080825807546247"><ele>221.0</ele><time>2026-03-22T15:40:10Z</time></trkpt><trkpt lat="43.183817040110036" lon="2.080578183055195"><ele>221.0</ele><time>2026-03-22T15:40:11Z</time></trkpt><trkpt lat="43.18398737929394" lon="2.080328550687647"><ele>221.5</ele><time>2026-03-22T15:40:12Z</time></trkpt><trkpt lat="43.184154336402194" lon="2.0800828421910924"><ele>222.0</ele><time>2026-03-22T15:40:13Z</time></trkpt><trkpt lat="43.184335508834984" lon="2.079812059136592"><ele>222.0</ele><time>2026-03-22T15:40:14Z</time></trkpt><trkpt lat="43.18449821052435" lon="2.0795811605675962"><ele>222.0</ele><time>2026-03-22T15:40:15Z</time></trkpt><trkpt lat="43.18464948161576" lon="2.0793698989465987"><ele>222.0</ele><time>2026-03-22T15:40:16Z</time></trkpt><trkpt lat="43.18479321013107" lon="2.0791754519795536"><ele>222.0</ele><time>2026-03-22T15:40:17Z</time></trkpt><trkpt lat="43.184927087548694" lon="2.0789954711422864"><ele>222.0</ele><time>2026-03-22T15:40:18Z</time></trkpt><trkpt lat="43.18506305470087" lon="2.0788187140719554"><ele>222.0</ele><time>2026-03-22T15:40:19Z</time></trkpt><trkpt lat="43.185183777076006" lon="2.0786460442326673"><ele>222.0</ele><time>2026-03-22T15:40:20Z</time></trkpt><trkpt lat="43.185306807261966" lon="2.078467986764195"><ele>222.0</ele><time>2026-03-22T15:40:21Z</time></trkpt><trkpt lat="43.18542809967125" lon="2.0782915668877404"><ele>222.0</ele><time>2026-03-22T15:40:22Z</time></trkpt><trkpt lat="43.18554189185114" lon="2.07812429284749"><ele>222.0</ele><time>2026-03-22T15:40:23Z</time></trkpt><trkpt lat="43.185658352487096" lon="2.077943956614091"><ele>222.0</ele><time>2026-03-22T15:40:24Z</time></trkpt><trkpt lat="43.18578792838376" lon="2.0777541088973845"><ele>222.0</ele><time>2026-03-22T15:40:25Z</time></trkpt><trkpt lat="43.18592867432171" lon="2.0775507605618984"><ele>222.0</ele><time>2026-03-22T15:40:26Z</time></trkpt><trkpt lat="43.18608244284302" lon="2.0773323534052204"><ele>222.0</ele><time>2026-03-22T15:40:27Z</time></trkpt><trkpt lat="43.18624667518193" lon="2.0770978970697596"><ele>222.5</ele><time>2026-03-22T15:40:28Z</time></trkpt><trkpt lat="43.18641824335851" lon="2.076845237298537"><ele>223.0</ele><time>2026-03-22T15:40:29Z</time></trkpt><trkpt lat="43.18659856895652" lon="2.0765801028401856"><ele>223.0</ele><time>2026-03-22T15:40:30Z</time></trkpt><trkpt lat="43.18679744021217" lon="2.0762977830887386"><ele>223.0</ele><time>2026-03-22T15:40:31Z</time></trkpt><trkpt lat="43.18700549116845" lon="2.0760026874980455"><ele>223.5</ele><time>2026-03-22T15:40:32Z</time></trkpt><trkpt lat="43.18721521780886" lon="2.0757061300906754"><ele>224.0</ele><time>2026-03-22T15:40:33Z</time></trkpt><trkpt lat="43.18741301431686" lon="2.0754485109071332"><ele>223.0</ele><time>2026-03-22T15:40:34Z</time></trkpt><trkpt lat="43.187599591278016" lon="2.075208833527008"><ele>222.0</ele><time>2026-03-22T15:40:35Z</time></trkpt><trkpt lat="43.18776813549388" lon="2.0749753694723925"><ele>223.5</ele><time>2026-03-22T15:40:36Z</time></trkpt><trkpt lat="43.18792312013713" lon="2.0747492964630156"><ele>225.0</ele><time>2026-03-22T15:40:37Z</time></trkpt><trkpt lat="43.18807763986549" lon="2.074525010407832"><ele>224.33333333333331</ele><time>2026-03-22T15:40:38Z</time></trkpt><trkpt lat="43.18821504755101" lon="2.074319382968806"><ele>223.66666666666666</ele><time>2026-03-22T15:40:39Z</time></trkpt><trkpt lat="43.188349583620685" lon="2.0741320370674448"><ele>223.0</ele><time>2026-03-22T15:40:40Z</time></trkpt><trkpt lat="43.18848821539986" lon="2.073938169756063"><ele>222.0</ele><time>2026-03-22T15:40:41Z</time></trkpt><trkpt lat="43.18864155282114" lon="2.0737256262303054"><ele>221.0</ele><time>2026-03-22T15:40:42Z</time></trkpt><trkpt lat="43.188793506732466" lon="2.0735126921145928"><ele>220.0</ele><time>2026-03-22T15:40:43Z</time></trkpt><trkpt lat="43.18894712203848" lon="2.07329760833986"><ele>217.5</ele><time>2026-03-22T15:40:44Z</time></trkpt><trkpt lat="43.18909878686126" lon="2.073082645710526"><ele>215.0</ele><time>2026-03-22T15:40:45Z</time></trkpt><trkpt lat="43.18926347948194" lon="2.0728522155127775"><ele>215.0</ele><time>2026-03-22T15:40:46Z</time></trkpt><trkpt lat="43.189450053202975" lon="2.0725899322431274"><ele>215.0</ele><time>2026-03-22T15:40:47Z</time></trkpt><trkpt lat="43.18964967312671" lon="2.072310710106182"><ele>213.0</ele><time>2026-03-22T15:40:48Z</time></trkpt><trkpt lat="43.18985897553105" lon="2.0720135464314025"><ele>211.0</ele><time>2026-03-22T15:40:49Z</time></trkpt><trkpt lat="43.19006055720754" lon="2.0717246557008737"><ele>213.0</ele><time>2026-03-22T15:40:50Z</time></trkpt><trkpt lat="43.19024629789683" lon="2.0714628792598915"><ele>215.0</ele><time>2026-03-22T15:40:51Z</time></trkpt><trkpt lat="43.1904303150866" lon="2.071208301497969"><ele>215.0</ele><time>2026-03-22T15:40:52Z</time></trkpt><trkpt lat="43.19060875243277" lon="2.0709603156513694"><ele>215.0</ele><time>2026-03-22T15:40:53Z</time></trkpt><trkpt lat="43.19078301887967" lon="2.070720699500342"><ele>217.5</ele><time>2026-03-22T15:40:54Z</time></trkpt><trkpt lat="43.190945957642384" lon="2.0704923427084285"><ele>220.0</ele><time>2026-03-22T15:40:55Z</time></trkpt><trkpt lat="43.19110158218578" lon="2.0702792748830547"><ele>220.0</ele><time>2026-03-22T15:40:56Z</time></trkpt><trkpt lat="43.19125482852858" lon="2.0700671100664816"><ele>220.0</ele><time>2026-03-22T15:40:57Z</time></trkpt><trkpt lat="43.191407160105406" lon="2.0698565362110846"><ele>220.0</ele><time>2026-03-22T15:40:58Z</time></trkpt><trkpt lat="43.191555160535806" lon="2.069644361362358"><ele>219.0</ele><time>2026-03-22T15:40:59Z</time></trkpt><trkpt lat="43.19170406001731" lon="2.0694318884028085"><ele>218.0</ele><time>2026-03-22T15:41:00Z</time></trkpt><trkpt lat="43.19185808800463" lon="2.0692150917319108"><ele>217.0</ele><time>2026-03-22T15:41:01Z</time></trkpt><trkpt lat="43.19201792225349" lon="2.068982685928195"><ele>217.0</ele><time>2026-03-22T15:41:02Z</time></trkpt><trkpt lat="43.192181390357575" lon="2.0687543164376954"><ele>217.0</ele><time>2026-03-22T15:41:03Z</time></trkpt><trkpt lat="43.19233043627785" lon="2.068544897693377"><ele>217.0</ele><time>2026-03-22T15:41:04Z</time></trkpt><trkpt lat="43.19247903328995" lon="2.068332019426968"><ele>215.0</ele><time>2026-03-22T15:41:05Z</time></trkpt><trkpt lat="43.19262155758078" lon="2.0681240402224113"><ele>213.0</ele><time>2026-03-22T15:41:06Z</time></trkpt><trkpt lat="43.19275157452761" lon="2.067907181604869"><ele>211.0</ele><time>2026-03-22T15:41:07Z</time></trkpt><trkpt lat="43.192871577467024" lon="2.06767480613782"><ele>212.0</ele><time>2026-03-22T15:41:08Z</time></trkpt><trkpt lat="43.19298005773846" lon="2.067426429053396"><ele>213.0</ele><time>2026-03-22T15:41:09Z</time></trkpt><trkpt lat="43.19306643464798" lon="2.0671575471105577"><ele>214.0</ele><time>2026-03-22T15:41:10Z</time></trkpt><trkpt lat="43.19313725034039" lon="2.0668528914029105"><ele>211.5</ele><time>2026-03-22T15:41:11Z</time></trkpt><trkpt lat="43.19320063418624" lon="2.066526910380725"><ele>209.0</ele><time>2026-03-22T15:41:12Z</time></trkpt><trkpt lat="43.19326084385643" lon="2.0661874586788995"><ele>209.0</ele><time>2026-03-22T15:41:13Z</time></trkpt><trkpt lat="43.19330560925277" lon="2.065875652672345"><ele>209.0</ele><time>2026-03-22T15:41:14Z</time></trkpt><trkpt lat="43.193340291608564" lon="2.065582187598208"><ele>209.0</ele><time>2026-03-22T15:41:15Z</time></trkpt><trkpt lat="43.19336301341522" lon="2.0652955408295304"><ele>209.33333333333334</ele><time>2026-03-22T15:41:16Z</time></trkpt><trkpt lat="43.1933760759929" lon="2.065007411669725"><ele>209.66666666666669</ele><time>2026-03-22T15:41:17Z</time></trkpt><trkpt lat="43.193376832676904" lon="2.0647307022591255"><ele>210.0</ele><time>2026-03-22T15:41:18Z</time></trkpt><trkpt lat="43.193361033652465" lon="2.0644540221868213"><ele>210.0</ele><time>2026-03-22T15:41:19Z</time></trkpt><trkpt lat="43.19333907893247" lon="2.064156633764787"><ele>210.0</ele><time>2026-03-22T15:41:20Z</time></trkpt><trkpt lat="43.19331162114583" lon="2.0638433137497207"><ele>210.0</ele><time>2026-03-22T15:41:21Z</time></trkpt><trkpt lat="43.193275308121635" lon="2.0635123596052662"><ele>208.33333333333331</ele><time>2026-03-22T15:41:22Z</time></trkpt><trkpt lat="43.19324456443465" lon="2.0632013135451066"><ele>206.66666666666666</ele><time>2026-03-22T15:41:23Z</time></trkpt><trkpt lat="43.19321370213691" lon="2.0629116920517436"><ele>205.0</ele><time>2026-03-22T15:41:24Z</time></trkpt><trkpt lat="43.193182121717115" lon="2.062629669374911"><ele>206.66666666666666</ele><time>2026-03-22T15:41:25Z</time></trkpt><trkpt lat="43.19315128220187" lon="2.0623422274350753"><ele>208.33333333333331</ele><time>2026-03-22T15:41:26Z</time></trkpt><trkpt lat="43.19312188438597" lon="2.0620616139213754"><ele>210.0</ele><time>2026-03-22T15:41:27Z</time></trkpt><trkpt lat="43.1930919205612" lon="2.061782063722274"><ele>208.66666666666669</ele><time>2026-03-22T15:41:28Z</time></trkpt><trkpt lat="43.19306368937607" lon="2.0615051917610088"><ele>207.33333333333334</ele><time>2026-03-22T15:41:29Z</time></trkpt><trkpt lat="43.19303313789616" lon="2.0612252320406155"><ele>206.0</ele><time>2026-03-22T15:41:30Z</time></trkpt><trkpt lat="43.19299818301445" lon="2.060932328486397"><ele>205.0</ele><time>2026-03-22T15:41:31Z</time></trkpt><trkpt lat="43.19296396824978" lon="2.0606392812101766"><ele>204.0</ele><time>2026-03-22T15:41:32Z</time></trkpt><trkpt lat="43.1929364831681" lon="2.0603693281191777"><ele>203.0</ele><time>2026-03-22T15:41:32.999Z</time></trkpt><trkpt lat="43.19291018444845" lon="2.060113570276363"><ele>202.0</ele><time>2026-03-22T15:41:33.999Z</time></trkpt><trkpt lat="43.19290075607387" lon="2.059852271339183"><ele>201.0</ele><time>2026-03-22T15:41:34.999Z</time></trkpt><trkpt lat="43.1929188379693" lon="2.0595865511539917"><ele>200.0</ele><time>2026-03-22T15:41:35.999Z</time></trkpt><trkpt lat="43.19296762491892" lon="2.0593141238483477"><ele>201.5</ele><time>2026-03-22T15:41:36.999Z</time></trkpt><trkpt lat="43.19304025952995" lon="2.0590152362564496"><ele>203.0</ele><time>2026-03-22T15:41:37.999Z</time></trkpt><trkpt lat="43.19312495628382" lon="2.0586958516551968"><ele>203.33333333333334</ele><time>2026-03-22T15:41:38.999Z</time></trkpt><trkpt lat="43.193197169793876" lon="2.058388733158589"><ele>203.66666666666669</ele><time>2026-03-22T15:41:39.999Z</time></trkpt><trkpt lat="43.193260021752856" lon="2.0581179193628807"><ele>204.0</ele><time>2026-03-22T15:41:40.999Z</time></trkpt><trkpt lat="43.19332676402048" lon="2.0578584679415037"><ele>204.0</ele><time>2026-03-22T15:41:41.999Z</time></trkpt><trkpt lat="43.19339181864489" lon="2.057590806103623"><ele>204.0</ele><time>2026-03-22T15:41:42.999Z</time></trkpt><trkpt lat="43.193456454452686" lon="2.05730639271497"><ele>204.0</ele><time>2026-03-22T15:41:43.999Z</time></trkpt><trkpt lat="43.19351547838935" lon="2.05705835789649"><ele>205.0</ele><time>2026-03-22T15:41:44.999Z</time></trkpt><trkpt lat="43.193564325118814" lon="2.0568363943147183"><ele>206.0</ele><time>2026-03-22T15:41:45.999Z</time></trkpt><trkpt lat="43.193602522826055" lon="2.0566396908870552"><ele>207.0</ele><time>2026-03-22T15:41:46.999Z</time></trkpt><trkpt lat="43.19362071003668" lon="2.0564589146696934"><ele>207.2</ele><time>2026-03-22T15:41:47.999Z</time></trkpt><trkpt lat="43.1936227913139" lon="2.0562889311802173"><ele>207.39999999999998</ele><time>2026-03-22T15:41:48.999Z</time></trkpt><trkpt lat="43.19362613449861" lon="2.05612365479354"><ele>207.60000000000002</ele><time>2026-03-22T15:41:49.999Z</time></trkpt><trkpt lat="43.19363903888382" lon="2.0559833351780643"><ele>207.8</ele><time>2026-03-22T15:41:50.999Z</time></trkpt><trkpt lat="43.19364063149038" lon="2.055867300407668"><ele>208.0</ele><time>2026-03-22T15:41:51.999Z</time></trkpt><trkpt lat="43.193639953291346" lon="2.0557656468695917"><ele>208.16666666666666</ele><time>2026-03-22T15:41:52.999Z</time></trkpt><trkpt lat="43.19364474294613" lon="2.0556690696294777"><ele>208.33333333333331</ele><time>2026-03-22T15:41:53.999Z</time></trkpt><trkpt lat="43.19365876514219" lon="2.0555648970222147"><ele>208.5</ele><time>2026-03-22T15:41:54.999Z</time></trkpt><trkpt lat="43.19369279921527" lon="2.0554636860200963"><ele>208.66666666666669</ele><time>2026-03-22T15:41:55.999Z</time></trkpt><trkpt lat="43.193760225483715" lon="2.055374681964198"><ele>208.83333333333334</ele><time>2026-03-22T15:41:56.999Z</time></trkpt><trkpt lat="43.193847261060725" lon="2.0552765193541016"><ele>209.0</ele><time>2026-03-22T15:41:57.999Z</time></trkpt><trkpt lat="43.19390655555889" lon="2.0551508136424466"><ele>209.0</ele><time>2026-03-22T15:41:58.999Z</time></trkpt><trkpt lat="43.19392327783796" lon="2.0549994340285913"><ele>209.0</ele><time>2026-03-22T15:41:59.999Z</time></trkpt><trkpt lat="43.19390962606679" lon="2.054820647211954"><ele>209.0</ele><time>2026-03-22T15:42:00.999Z</time></trkpt><trkpt lat="43.19391478043768" lon="2.0546445078288906"><ele>209.0</ele><time>2026-03-22T15:42:01.999Z</time></trkpt><trkpt lat="43.19393344918437" lon="2.0544765735182025"><ele>208.66666666666669</ele><time>2026-03-22T15:42:02.999Z</time></trkpt><trkpt lat="43.19404316998125" lon="2.054390115266366"><ele>208.33333333333331</ele><time>2026-03-22T15:42:03.999Z</time></trkpt><trkpt lat="43.194181637402785" lon="2.054289237406286"><ele>208.0</ele><time>2026-03-22T15:42:04.999Z</time></trkpt><trkpt lat="43.194342019456926" lon="2.0541960843807257"><ele>208.33333333333331</ele><time>2026-03-22T15:42:05.999Z</time></trkpt><trkpt lat="43.194515115683636" lon="2.0541011248148826"><ele>208.66666666666669</ele><time>2026-03-22T15:42:06.999Z</time></trkpt><trkpt lat="43.19468549287088" lon="2.0540131889540065"><ele>209.0</ele><time>2026-03-22T15:42:07.999Z</time></trkpt><trkpt lat="43.194855271804755" lon="2.0539159617097704"><ele>207.33333333333334</ele><time>2026-03-22T15:42:08.999Z</time></trkpt><trkpt lat="43.19504258658849" lon="2.053811150819224"><ele>205.66666666666669</ele><time>2026-03-22T15:42:09.999Z</time></trkpt><trkpt lat="43.195227103711886" lon="2.053705884397441"><ele>204.0</ele><time>2026-03-22T15:42:10.999Z</time></trkpt><trkpt lat="43.19541091024192" lon="2.053600220283334"><ele>204.0</ele><time>2026-03-22T15:42:12Z</time></trkpt><trkpt lat="43.195602038851575" lon="2.053485133591514"><ele>204.0</ele><time>2026-03-22T15:42:13Z</time></trkpt><trkpt lat="43.19580028475381" lon="2.0533688614704926"><ele>204.0</ele><time>2026-03-22T15:42:14Z</time></trkpt><trkpt lat="43.19599031787562" lon="2.053261685643597"><ele>203.0</ele><time>2026-03-22T15:42:15Z</time></trkpt><trkpt lat="43.19618760023879" lon="2.0531489967449192"><ele>202.0</ele><time>2026-03-22T15:42:16Z</time></trkpt><trkpt lat="43.1963915250754" lon="2.0530367030850405"><ele>201.0</ele><time>2026-03-22T15:42:17Z</time></trkpt><trkpt lat="43.196595533353005" lon="2.0529240416704897"><ele>200.33333333333331</ele><time>2026-03-22T15:42:18Z</time></trkpt><trkpt lat="43.196800917331615" lon="2.052812547579935"><ele>199.66666666666666</ele><time>2026-03-22T15:42:19Z</time></trkpt><trkpt lat="43.19699308277089" lon="2.052699195484078"><ele>199.0</ele><time>2026-03-22T15:42:20Z</time></trkpt><trkpt lat="43.19717611036267" lon="2.052596085212142"><ele>198.33333333333331</ele><time>2026-03-22T15:42:21Z</time></trkpt><trkpt lat="43.19734986108413" lon="2.052473405105746"><ele>197.66666666666669</ele><time>2026-03-22T15:42:22Z</time></trkpt><trkpt lat="43.197516931182705" lon="2.052359356364561"><ele>197.0</ele><time>2026-03-22T15:42:23Z</time></trkpt><trkpt lat="43.1977164960652" lon="2.0522540577171218"><ele>197.0</ele><time>2026-03-22T15:42:24Z</time></trkpt><trkpt lat="43.19793298678409" lon="2.0521336717384253"><ele>197.0</ele><time>2026-03-22T15:42:25Z</time></trkpt><trkpt lat="43.19812514840061" lon="2.0520272271963877"><ele>197.0</ele><time>2026-03-22T15:42:26Z</time></trkpt><trkpt lat="43.198311010940415" lon="2.051924436328268"><ele>197.0</ele><time>2026-03-22T15:42:27Z</time></trkpt><trkpt lat="43.1985079761427" lon="2.0518155051553424"><ele>197.0</ele><time>2026-03-22T15:42:28Z</time></trkpt><trkpt lat="43.19871706078906" lon="2.0516998713557997"><ele>197.0</ele><time>2026-03-22T15:42:29Z</time></trkpt><trkpt lat="43.198906420939736" lon="2.0515951461421102"><ele>196.33333333333334</ele><time>2026-03-22T15:42:30Z</time></trkpt><trkpt lat="43.19908713625484" lon="2.051475495916542"><ele>195.66666666666669</ele><time>2026-03-22T15:42:31Z</time></trkpt><trkpt lat="43.19927348197075" lon="2.051379336433218"><ele>195.0</ele><time>2026-03-22T15:42:32Z</time></trkpt><trkpt lat="43.199459498924256" lon="2.051280204092827"><ele>195.0</ele><time>2026-03-22T15:42:33Z</time></trkpt><trkpt lat="43.199647615558696" lon="2.051182087311332"><ele>195.0</ele><time>2026-03-22T15:42:34Z</time></trkpt><trkpt lat="43.19982887998982" lon="2.0510903255705846"><ele>195.0</ele><time>2026-03-22T15:42:35Z</time></trkpt><trkpt lat="43.20000580297227" lon="2.050999339190933"><ele>193.33333333333334</ele><time>2026-03-22T15:42:36Z</time></trkpt><trkpt lat="43.2001895895543" lon="2.0509035134408085"><ele>191.66666666666669</ele><time>2026-03-22T15:42:37Z</time></trkpt><trkpt lat="43.20037671692664" lon="2.050795603833896"><ele>190.0</ele><time>2026-03-22T15:42:38Z</time></trkpt><trkpt lat="43.20056765905739" lon="2.0506880477319225"><ele>188.33333333333334</ele><time>2026-03-22T15:42:39Z</time></trkpt><trkpt lat="43.200766968819785" lon="2.0505864830809237"><ele>186.66666666666666</ele><time>2026-03-22T15:42:40Z</time></trkpt><trkpt lat="43.200967164761266" lon="2.0504749641609252"><ele>185.0</ele><time>2026-03-22T15:42:41Z</time></trkpt><trkpt lat="43.20116624224714" lon="2.0503652868686"><ele>185.0</ele><time>2026-03-22T15:42:42Z</time></trkpt><trkpt lat="43.20136465664438" lon="2.0502510902099425"><ele>185.0</ele><time>2026-03-22T15:42:43Z</time></trkpt><trkpt lat="43.20156748368142" lon="2.0501386663191803"><ele>185.0</ele><time>2026-03-22T15:42:44Z</time></trkpt><trkpt lat="43.20176971024216" lon="2.0500303885015136"><ele>185.0</ele><time>2026-03-22T15:42:45Z</time></trkpt><trkpt lat="43.20197219527823" lon="2.049924909538697"><ele>185.0</ele><time>2026-03-22T15:42:46Z</time></trkpt><trkpt lat="43.2021638622183" lon="2.0498270584544356"><ele>185.0</ele><time>2026-03-22T15:42:47Z</time></trkpt><trkpt lat="43.202352768978805" lon="2.0497287193469966"><ele>187.0</ele><time>2026-03-22T15:42:48Z</time></trkpt><trkpt lat="43.202533921728524" lon="2.049627945813128"><ele>189.0</ele><time>2026-03-22T15:42:49Z</time></trkpt><trkpt lat="43.20271153449684" lon="2.0495275895814506"><ele>191.0</ele><time>2026-03-22T15:42:50Z</time></trkpt><trkpt lat="43.20289114605957" lon="2.0494275497995833"><ele>191.0</ele><time>2026-03-22T15:42:51Z</time></trkpt><trkpt lat="43.20306270769477" lon="2.0493272245835534"><ele>191.0</ele><time>2026-03-22T15:42:52Z</time></trkpt><trkpt lat="43.20322975395138" lon="2.0492173218878005"><ele>191.0</ele><time>2026-03-22T15:42:53Z</time></trkpt><trkpt lat="43.203387518885165" lon="2.0490852215887174"><ele>193.0</ele><time>2026-03-22T15:42:54Z</time></trkpt><trkpt lat="43.20354114418633" lon="2.048916466066603"><ele>195.0</ele><time>2026-03-22T15:42:55Z</time></trkpt><trkpt lat="43.20371805079076" lon="2.0487188254924544"><ele>197.0</ele><time>2026-03-22T15:42:56Z</time></trkpt><trkpt lat="43.203885741032224" lon="2.0485372308706875"><ele>197.33333333333334</ele><time>2026-03-22T15:42:57Z</time></trkpt><trkpt lat="43.2040358028113" lon="2.04837031585638"><ele>197.66666666666669</ele><time>2026-03-22T15:42:58Z</time></trkpt><trkpt lat="43.204177212351155" lon="2.0482124359131553"><ele>198.0</ele><time>2026-03-22T15:42:59Z</time></trkpt><trkpt lat="43.20431660324932" lon="2.0480522029631776"><ele>198.0</ele><time>2026-03-22T15:43:00Z</time></trkpt><trkpt lat="43.20447538937546" lon="2.0478782257185646"><ele>198.0</ele><time>2026-03-22T15:43:01Z</time></trkpt><trkpt lat="43.204632379079634" lon="2.0477097664878685"><ele>198.0</ele><time>2026-03-22T15:43:02Z</time></trkpt><trkpt lat="43.20477727563221" lon="2.0475489660036934"><ele>198.33333333333331</ele><time>2026-03-22T15:43:03Z</time></trkpt><trkpt lat="43.20491802633736" lon="2.0473891815446503"><ele>198.66666666666666</ele><time>2026-03-22T15:43:04Z</time></trkpt><trkpt lat="43.205061216395436" lon="2.0472286799021497"><ele>199.0</ele><time>2026-03-22T15:43:05Z</time></trkpt><trkpt lat="43.20520377657586" lon="2.047068839855468"><ele>199.0</ele><time>2026-03-22T15:43:06Z</time></trkpt><trkpt lat="43.20534402250692" lon="2.0469120356968613"><ele>199.0</ele><time>2026-03-22T15:43:07Z</time></trkpt><trkpt lat="43.20548065040452" lon="2.04676032424723"><ele>199.0</ele><time>2026-03-22T15:43:08Z</time></trkpt><trkpt lat="43.2056132284715" lon="2.0466061778026776"><ele>199.33333333333331</ele><time>2026-03-22T15:43:09Z</time></trkpt><trkpt lat="43.205753864905645" lon="2.0464576100688614"><ele>199.66666666666669</ele><time>2026-03-22T15:43:10Z</time></trkpt><trkpt lat="43.205886861342485" lon="2.046315488267266"><ele>200.0</ele><time>2026-03-22T15:43:11Z</time></trkpt><trkpt lat="43.20602128975379" lon="2.046180283605106"><ele>200.0</ele><time>2026-03-22T15:43:12Z</time></trkpt><trkpt lat="43.20614451030235" lon="2.046062010595614"><ele>200.0</ele><time>2026-03-22T15:43:13Z</time></trkpt><trkpt lat="43.20627215220646" lon="2.045950169747997"><ele>200.0</ele><time>2026-03-22T15:43:14Z</time></trkpt><trkpt lat="43.20642164153623" lon="2.0458615933746196"><ele>199.66666666666669</ele><time>2026-03-22T15:43:15Z</time></trkpt><trkpt lat="43.20658085270276" lon="2.045790176176127"><ele>199.33333333333331</ele><time>2026-03-22T15:43:16Z</time></trkpt><trkpt lat="43.20674929023846" lon="2.045741908889514"><ele>199.0</ele><time>2026-03-22T15:43:17Z</time></trkpt><trkpt lat="43.20693696996642" lon="2.0457049524385797"><ele>199.0</ele><time>2026-03-22T15:43:18Z</time></trkpt><trkpt lat="43.20710819926505" lon="2.0456787563725007"><ele>199.0</ele><time>2026-03-22T15:43:19Z</time></trkpt><trkpt lat="43.207284735842904" lon="2.045637670217725"><ele>199.0</ele><time>2026-03-22T15:43:20Z</time></trkpt><trkpt lat="43.20747259278596" lon="2.045598018803295"><ele>198.33333333333331</ele><time>2026-03-22T15:43:20.999Z</time></trkpt><trkpt lat="43.20766524986282" lon="2.0455535713819684"><ele>197.66666666666669</ele><time>2026-03-22T15:43:21.999Z</time></trkpt><trkpt lat="43.207865438083786" lon="2.045510529921316"><ele>197.0</ele><time>2026-03-22T15:43:22.999Z</time></trkpt><trkpt lat="43.2080657926989" lon="2.0454724519473664"><ele>196.33333333333334</ele><time>2026-03-22T15:43:23.999Z</time></trkpt><trkpt lat="43.20825410833157" lon="2.04543520544742"><ele>195.66666666666669</ele><time>2026-03-22T15:43:24.999Z</time></trkpt><trkpt lat="43.2084458018622" lon="2.045397499594571"><ele>195.0</ele><time>2026-03-22T15:43:25.999Z</time></trkpt><trkpt lat="43.20864113261373" lon="2.045357503687676"><ele>195.0</ele><time>2026-03-22T15:43:26.999Z</time></trkpt><trkpt lat="43.20883817883365" lon="2.04531650889"><ele>195.0</ele><time>2026-03-22T15:43:27.999Z</time></trkpt><trkpt lat="43.20904956462376" lon="2.0452749145393025"><ele>195.0</ele><time>2026-03-22T15:43:28.999Z</time></trkpt><trkpt lat="43.209249772903995" lon="2.0452376457535903"><ele>194.66666666666669</ele><time>2026-03-22T15:43:29.999Z</time></trkpt><trkpt lat="43.20945091641185" lon="2.045195257632261"><ele>194.33333333333334</ele><time>2026-03-22T15:43:30.999Z</time></trkpt><trkpt lat="43.209661528189926" lon="2.045152754611791"><ele>194.0</ele><time>2026-03-22T15:43:31.999Z</time></trkpt><trkpt lat="43.20985510865847" lon="2.045113774798495"><ele>193.0</ele><time>2026-03-22T15:43:32.999Z</time></trkpt><trkpt lat="43.21004542578914" lon="2.0450754459798923"><ele>192.0</ele><time>2026-03-22T15:43:33.999Z</time></trkpt><trkpt lat="43.21024004084695" lon="2.0450338271425426"><ele>191.0</ele><time>2026-03-22T15:43:34.999Z</time></trkpt><trkpt lat="43.210435882125736" lon="2.044994283002216"><ele>191.0</ele><time>2026-03-22T15:43:35.999Z</time></trkpt><trkpt lat="43.210630664172044" lon="2.0449547069047305"><ele>191.0</ele><time>2026-03-22T15:43:36.999Z</time></trkpt><trkpt lat="43.21082613708732" lon="2.0449158830324"><ele>191.0</ele><time>2026-03-22T15:43:37.999Z</time></trkpt><trkpt lat="43.211018267354085" lon="2.0448786756176784"><ele>191.0</ele><time>2026-03-22T15:43:38.999Z</time></trkpt><trkpt lat="43.21120670480129" lon="2.044838253837297"><ele>191.0</ele><time>2026-03-22T15:43:39.999Z</time></trkpt><trkpt lat="43.21139810824684" lon="2.044797197287329"><ele>191.0</ele><time>2026-03-22T15:43:40.999Z</time></trkpt><trkpt lat="43.211584520927964" lon="2.044760435498538"><ele>191.0</ele><time>2026-03-22T15:43:41.999Z</time></trkpt><trkpt lat="43.211769840439736" lon="2.044723103785857"><ele>191.0</ele><time>2026-03-22T15:43:42.999Z</time></trkpt><trkpt lat="43.2119684893271" lon="2.0446864788856134"><ele>191.0</ele><time>2026-03-22T15:43:43.999Z</time></trkpt><trkpt lat="43.21215427358565" lon="2.0446519534766656"><ele>191.33333333333331</ele><time>2026-03-22T15:43:44.999Z</time></trkpt><trkpt lat="43.21233761961675" lon="2.044619439798341"><ele>191.66666666666666</ele><time>2026-03-22T15:43:45.999Z</time></trkpt><trkpt lat="43.21252365486755" lon="2.044580892282897"><ele>192.0</ele><time>2026-03-22T15:43:46.999Z</time></trkpt><trkpt lat="43.21271920269789" lon="2.0445353058528983"><ele>192.0</ele><time>2026-03-22T15:43:47.999Z</time></trkpt><trkpt lat="43.212925347743834" lon="2.0444972180248127"><ele>192.0</ele><time>2026-03-22T15:43:48.999Z</time></trkpt><trkpt lat="43.21313189872041" lon="2.0444565452511103"><ele>192.0</ele><time>2026-03-22T15:43:49.999Z</time></trkpt><trkpt lat="43.21333673748256" lon="2.0444165370165543"><ele>192.66666666666669</ele><time>2026-03-22T15:43:50.999Z</time></trkpt><trkpt lat="43.21354683822546" lon="2.044375705624398"><ele>193.33333333333334</ele><time>2026-03-22T15:43:51.999Z</time></trkpt><trkpt lat="43.213750817525906" lon="2.0443326822134944"><ele>194.0</ele><time>2026-03-22T15:43:52.999Z</time></trkpt><trkpt lat="43.21395506182395" lon="2.0442892866508124"><ele>193.66666666666669</ele><time>2026-03-22T15:43:53.999Z</time></trkpt><trkpt lat="43.214145161081994" lon="2.044250881097368"><ele>193.33333333333331</ele><time>2026-03-22T15:43:54.999Z</time></trkpt><trkpt lat="43.214322089050704" lon="2.0442202817675335"><ele>193.0</ele><time>2026-03-22T15:43:55.999Z</time></trkpt><trkpt lat="43.214500131955596" lon="2.0441846441449703"><ele>193.0</ele><time>2026-03-22T15:43:56.999Z</time></trkpt><trkpt lat="43.21466833900152" lon="2.044141835634629"><ele>193.0</ele><time>2026-03-22T15:43:57.999Z</time></trkpt><trkpt lat="43.21484570406838" lon="2.0440719013162147"><ele>193.0</ele><time>2026-03-22T15:43:58.999Z</time></trkpt><trkpt lat="43.21503770275065" lon="2.043973959160553"><ele>193.66666666666666</ele><time>2026-03-22T15:43:59.999Z</time></trkpt><trkpt lat="43.21520773423149" lon="2.0438809804839053"><ele>194.33333333333331</ele><time>2026-03-22T15:44:00.999Z</time></trkpt><trkpt lat="43.21538281067784" lon="2.043766247817402"><ele>195.0</ele><time>2026-03-22T15:44:01.999Z</time></trkpt><trkpt lat="43.21557118691796" lon="2.0436522869775895"><ele>195.66666666666669</ele><time>2026-03-22T15:44:02.999Z</time></trkpt><trkpt lat="43.21575884193355" lon="2.043539173792781"><ele>196.33333333333334</ele><time>2026-03-22T15:44:03.999Z</time></trkpt><trkpt lat="43.21593105873325" lon="2.0434360568089054"><ele>197.0</ele><time>2026-03-22T15:44:04.999Z</time></trkpt><trkpt lat="43.216100013110086" lon="2.043338393878087"><ele>196.66666666666669</ele><time>2026-03-22T15:44:05.999Z</time></trkpt><trkpt lat="43.21625856460735" lon="2.043242540018883"><ele>196.33333333333331</ele><time>2026-03-22T15:44:06.999Z</time></trkpt><trkpt lat="43.21640649129516" lon="2.0431590449545896"><ele>196.0</ele><time>2026-03-22T15:44:07.999Z</time></trkpt><trkpt lat="43.21654506113424" lon="2.0430706108749233"><ele>196.0</ele><time>2026-03-22T15:44:08.999Z</time></trkpt><trkpt lat="43.216675647619" lon="2.0429877349215513"><ele>196.0</ele><time>2026-03-22T15:44:09.999Z</time></trkpt><trkpt lat="43.21679004105737" lon="2.042916600881933"><ele>196.0</ele><time>2026-03-22T15:44:10.999Z</time></trkpt><trkpt lat="43.216910725323814" lon="2.0428430870844387"><ele>196.0</ele><time>2026-03-22T15:44:11.999Z</time></trkpt><trkpt lat="43.217034545377544" lon="2.04276742158464"><ele>196.0</ele><time>2026-03-22T15:44:12.999Z</time></trkpt><trkpt lat="43.21715527568945" lon="2.042700374621557"><ele>196.0</ele><time>2026-03-22T15:44:13.999Z</time></trkpt><trkpt lat="43.21726861836578" lon="2.0426328564756555"><ele>196.0</ele><time>2026-03-22T15:44:14.999Z</time></trkpt><trkpt lat="43.217371630897176" lon="2.0425699069994763"><ele>196.0</ele><time>2026-03-22T15:44:15.999Z</time></trkpt><trkpt lat="43.217470754229474" lon="2.0425039097262734"><ele>196.75</ele><time>2026-03-22T15:44:16.999Z</time></trkpt><trkpt lat="43.21757632632374" lon="2.042441979353833"><ele>197.5</ele><time>2026-03-22T15:44:18Z</time></trkpt><trkpt lat="43.21768151208336" lon="2.0423845035848998"><ele>198.25</ele><time>2026-03-22T15:44:19Z</time></trkpt><trkpt lat="43.217792064297306" lon="2.0423195438657253"><ele>199.0</ele><time>2026-03-22T15:44:20Z</time></trkpt><trkpt lat="43.21789655091193" lon="2.042259097485157"><ele>199.0</ele><time>2026-03-22T15:44:21Z</time></trkpt><trkpt lat="43.21799547500309" lon="2.0422107048946683"><ele>199.0</ele><time>2026-03-22T15:44:22Z</time></trkpt><trkpt lat="43.21808572750812" lon="2.0421584417688816"><ele>199.0</ele><time>2026-03-22T15:44:23Z</time></trkpt><trkpt lat="43.218168590792935" lon="2.042105939040454"><ele>199.0</ele><time>2026-03-22T15:44:24Z</time></trkpt><trkpt lat="43.21825838911201" lon="2.042045838102251"><ele>199.0</ele><time>2026-03-22T15:44:25Z</time></trkpt><trkpt lat="43.2183509361209" lon="2.0419873203093486"><ele>200.49999999999997</ele><time>2026-03-22T15:44:26Z</time></trkpt><trkpt lat="43.21843321047433" lon="2.0419281420066113"><ele>202.0</ele><time>2026-03-22T15:44:27Z</time></trkpt><trkpt lat="43.21850446354291" lon="2.041868421517892"><ele>203.5</ele><time>2026-03-22T15:44:28Z</time></trkpt><trkpt lat="43.218579238171856" lon="2.0418229013925826"><ele>205.0</ele><time>2026-03-22T15:44:29Z</time></trkpt><trkpt lat="43.2186368012362" lon="2.041780188918806"><ele>206.49999999999997</ele><time>2026-03-22T15:44:30Z</time></trkpt><trkpt lat="43.218693629225235" lon="2.041741070842242"><ele>208.0</ele><time>2026-03-22T15:44:31Z</time></trkpt><trkpt lat="43.218797691258246" lon="2.041665580140641"><ele>207.0</ele><time>2026-03-22T15:44:33Z</time></trkpt><trkpt lat="43.21888515307195" lon="2.0416148973428556"><ele>206.0</ele><time>2026-03-22T15:44:35Z</time></trkpt><trkpt lat="43.21898422970937" lon="2.0415288285794486"><ele>205.0</ele><time>2026-03-22T15:44:37Z</time></trkpt><trkpt lat="43.21908755588217" lon="2.041429164023555"><ele>204.0</ele><time>2026-03-22T15:44:39Z</time></trkpt><trkpt lat="43.21914327605527" lon="2.0413747810317218"><ele>203.0</ele><time>2026-03-22T15:44:40Z</time></trkpt><trkpt lat="43.21919955764714" lon="2.041316233866572"><ele>204.66666666666669</ele><time>2026-03-22T15:44:41Z</time></trkpt><trkpt lat="43.21925534087499" lon="2.041258415243348"><ele>206.33333333333334</ele><time>2026-03-22T15:44:42Z</time></trkpt><trkpt lat="43.219307848163204" lon="2.0411986884929454"><ele>208.0</ele><time>2026-03-22T15:44:43Z</time></trkpt><trkpt lat="43.21935420246409" lon="2.0411222376709537"><ele>209.66666666666669</ele><time>2026-03-22T15:44:44Z</time></trkpt><trkpt lat="43.2194022922379" lon="2.0410385577879118"><ele>211.33333333333334</ele><time>2026-03-22T15:44:45Z</time></trkpt><trkpt lat="43.21945232988455" lon="2.040940048719136"><ele>213.0</ele><time>2026-03-22T15:44:46Z</time></trkpt><trkpt lat="43.21950103126702" lon="2.0408252824439397"><ele>212.5</ele><time>2026-03-22T15:44:47Z</time></trkpt><trkpt lat="43.219550894930045" lon="2.0407181168950124"><ele>212.0</ele><time>2026-03-22T15:44:48Z</time></trkpt><trkpt lat="43.21960111104026" lon="2.0405999627995657"><ele>211.5</ele><time>2026-03-22T15:44:49Z</time></trkpt><trkpt lat="43.21965291822488" lon="2.0404813286764734"><ele>211.0</ele><time>2026-03-22T15:44:50Z</time></trkpt><trkpt lat="43.21970074355869" lon="2.0403903403392536"><ele>210.5</ele><time>2026-03-22T15:44:51Z</time></trkpt><trkpt lat="43.21974024081695" lon="2.040306714851854"><ele>210.0</ele><time>2026-03-22T15:44:52Z</time></trkpt><trkpt lat="43.21977569312721" lon="2.0402218654524757"><ele>210.0</ele><time>2026-03-22T15:44:53Z</time></trkpt><trkpt lat="43.2198110439476" lon="2.0401203857159578"><ele>210.0</ele><time>2026-03-22T15:44:54Z</time></trkpt><trkpt lat="43.219839089384976" lon="2.040038478786777"><ele>210.0</ele><time>2026-03-22T15:44:55Z</time></trkpt><trkpt lat="43.21988986523128" lon="2.0399127379933413"><ele>210.0</ele><time>2026-03-22T15:44:57Z</time></trkpt><trkpt lat="43.21993110206426" lon="2.039805587384916"><ele>210.0</ele><time>2026-03-22T15:44:59Z</time></trkpt><trkpt lat="43.21998516229188" lon="2.039689134745185"><ele>210.0</ele><time>2026-03-22T15:45:01Z</time></trkpt><trkpt lat="43.22003640033996" lon="2.0395563922853213"><ele>209.83333333333334</ele><time>2026-03-22T15:45:03Z</time></trkpt><trkpt lat="43.22007943081896" lon="2.0394713568954757"><ele>209.66666666666669</ele><time>2026-03-22T15:45:04Z</time></trkpt><trkpt lat="43.22012686501322" lon="2.039385540302096"><ele>209.5</ele><time>2026-03-22T15:45:05Z</time></trkpt><trkpt lat="43.220162957002586" lon="2.039309659724315"><ele>209.33333333333334</ele><time>2026-03-22T15:45:06Z</time></trkpt><trkpt lat="43.22020364104102" lon="2.0392321372740487"><ele>209.16666666666669</ele><time>2026-03-22T15:45:07Z</time></trkpt><trkpt lat="43.22025384216624" lon="2.0391374060062453"><ele>209.0</ele><time>2026-03-22T15:45:08Z</time></trkpt><trkpt lat="43.22032510018425" lon="2.0390307705866784"><ele>209.00000000000003</ele><time>2026-03-22T15:45:09Z</time></trkpt><trkpt lat="43.220389224822206" lon="2.0389389197267187"><ele>209.0</ele><time>2026-03-22T15:45:10Z</time></trkpt><trkpt lat="43.22044965824676" lon="2.038856905323962"><ele>209.0</ele><time>2026-03-22T15:45:11Z</time></trkpt><trkpt lat="43.22051209552775" lon="2.038781150007385"><ele>209.0</ele><time>2026-03-22T15:45:12Z</time></trkpt><trkpt lat="43.22056938986094" lon="2.0387103719169763"><ele>209.00000000000003</ele><time>2026-03-22T15:45:13Z</time></trkpt><trkpt lat="43.220647106928894" lon="2.0386226878008347"><ele>209.0</ele><time>2026-03-22T15:45:14Z</time></trkpt><trkpt lat="43.22074702948779" lon="2.03851911006095"><ele>208.39999999999998</ele><time>2026-03-22T15:45:15Z</time></trkpt><trkpt lat="43.22082486429236" lon="2.038432705100738"><ele>207.8</ele><time>2026-03-22T15:45:16Z</time></trkpt><trkpt lat="43.22089890484627" lon="2.038351930241214"><ele>207.2</ele><time>2026-03-22T15:45:17Z</time></trkpt><trkpt lat="43.22097046650941" lon="2.038277201096191"><ele>206.60000000000002</ele><time>2026-03-22T15:45:18Z</time></trkpt><trkpt lat="43.221035818054766" lon="2.0382031617830734"><ele>206.0</ele><time>2026-03-22T15:45:19Z</time></trkpt><trkpt lat="43.22110293834257" lon="2.038129560976824"><ele>203.5</ele><time>2026-03-22T15:45:20Z</time></trkpt><trkpt lat="43.22119630759629" lon="2.0380296791871917"><ele>201.0</ele><time>2026-03-22T15:45:21Z</time></trkpt><trkpt lat="43.22129933844168" lon="2.037918173176014"><ele>198.5</ele><time>2026-03-22T15:45:22Z</time></trkpt><trkpt lat="43.22138963928595" lon="2.0378199770333314"><ele>196.0</ele><time>2026-03-22T15:45:23Z</time></trkpt><trkpt lat="43.22146312665681" lon="2.0377313859969672"><ele>196.75</ele><time>2026-03-22T15:45:24Z</time></trkpt><trkpt lat="43.221543532061546" lon="2.0376343186754715"><ele>197.5</ele><time>2026-03-22T15:45:25Z</time></trkpt><trkpt lat="43.22163560914016" lon="2.0375168201843024"><ele>198.25</ele><time>2026-03-22T15:45:26Z</time></trkpt><trkpt lat="43.221722839210415" lon="2.0374161456986086"><ele>199.0</ele><time>2026-03-22T15:45:27Z</time></trkpt><trkpt lat="43.22181031400884" lon="2.0373238970225525"><ele>196.39999999999998</ele><time>2026-03-22T15:45:28Z</time></trkpt><trkpt lat="43.22189190388693" lon="2.0372399648492574"><ele>193.8</ele><time>2026-03-22T15:45:29Z</time></trkpt><trkpt lat="43.22196884958833" lon="2.0371483862875217"><ele>191.2</ele><time>2026-03-22T15:45:30Z</time></trkpt><trkpt lat="43.222046935734646" lon="2.0370651845753787"><ele>188.60000000000002</ele><time>2026-03-22T15:45:31Z</time></trkpt><trkpt lat="43.22213796256114" lon="2.036966719708234"><ele>186.0</ele><time>2026-03-22T15:45:32Z</time></trkpt><trkpt lat="43.22224621335184" lon="2.0368674001647546"><ele>186.66666666666666</ele><time>2026-03-22T15:45:33Z</time></trkpt><trkpt lat="43.2223686739121" lon="2.036767271543518"><ele>187.33333333333331</ele><time>2026-03-22T15:45:34Z</time></trkpt><trkpt lat="43.22250515620157" lon="2.0366693035360792"><ele>188.0</ele><time>2026-03-22T15:45:35Z</time></trkpt><trkpt lat="43.22264890533668" lon="2.0365630014338056"><ele>184.66666666666666</ele><time>2026-03-22T15:45:36Z</time></trkpt><trkpt lat="43.222805165007316" lon="2.036449262601803"><ele>181.33333333333334</ele><time>2026-03-22T15:45:37Z</time></trkpt><trkpt lat="43.222964505292836" lon="2.036336250256136"><ele>178.0</ele><time>2026-03-22T15:45:38Z</time></trkpt><trkpt lat="43.22312070171894" lon="2.0362348900234624"><ele>178.0</ele><time>2026-03-22T15:45:39Z</time></trkpt><trkpt lat="43.22328780426871" lon="2.0361138178406484"><ele>178.0</ele><time>2026-03-22T15:45:40Z</time></trkpt><trkpt lat="43.22345616911118" lon="2.0359893744576967"><ele>178.0</ele><time>2026-03-22T15:45:41Z</time></trkpt><trkpt lat="43.22361571385449" lon="2.0358583416506875"><ele>178.0</ele><time>2026-03-22T15:45:42Z</time></trkpt><trkpt lat="43.22377437527715" lon="2.0357361513240693"><ele>178.0</ele><time>2026-03-22T15:45:43Z</time></trkpt><trkpt lat="43.223954614263604" lon="2.035632294694406"><ele>178.0</ele><time>2026-03-22T15:45:44Z</time></trkpt><trkpt lat="43.22412147719587" lon="2.0355119906754378"><ele>177.33333333333334</ele><time>2026-03-22T15:45:44.999Z</time></trkpt><trkpt lat="43.22429061289825" lon="2.035400335033385"><ele>176.66666666666666</ele><time>2026-03-22T15:45:45.999Z</time></trkpt><trkpt lat="43.224481048007" lon="2.0352722297047787"><ele>176.0</ele><time>2026-03-22T15:45:46.999Z</time></trkpt><trkpt lat="43.22466212763429" lon="2.0351519492837045"><ele>175.33333333333331</ele><time>2026-03-22T15:45:47.999Z</time></trkpt><trkpt lat="43.22482802531753" lon="2.035048744107519"><ele>174.66666666666666</ele><time>2026-03-22T15:45:48.999Z</time></trkpt><trkpt lat="43.22500827588487" lon="2.0349395285486787"><ele>174.0</ele><time>2026-03-22T15:45:49.999Z</time></trkpt><trkpt lat="43.225171620439184" lon="2.034843775482245"><ele>174.0</ele><time>2026-03-22T15:45:50.999Z</time></trkpt><trkpt lat="43.22534107711426" lon="2.0347473700799"><ele>174.0</ele><time>2026-03-22T15:45:51.999Z</time></trkpt><trkpt lat="43.22541092463564" lon="2.034638279440685"><ele>174.0</ele><time>2026-03-22T15:45:52.999Z</time></trkpt><trkpt lat="43.22552597406056" lon="2.034557681491272"><ele>174.0</ele><time>2026-03-22T15:45:53.999Z</time></trkpt><trkpt lat="43.22562412886758" lon="2.0344851865212985"><ele>174.2</ele><time>2026-03-22T15:45:54.999Z</time></trkpt><trkpt lat="43.225712208979985" lon="2.0344145291919933"><ele>174.39999999999998</ele><time>2026-03-22T15:45:55.999Z</time></trkpt><trkpt lat="43.225789792355705" lon="2.034356315942269"><ele>174.6</ele><time>2026-03-22T15:45:56.999Z</time></trkpt><trkpt lat="43.22584890979291" lon="2.034316055738396"><ele>174.8</ele><time>2026-03-22T15:45:57.999Z</time></trkpt><trkpt lat="43.22593481835069" lon="2.034304697002834"><ele>175.0</ele><time>2026-03-22T15:45:59.999Z</time></trkpt><trkpt lat="43.225937472143826" lon="2.034555173483338"><ele>175.0</ele><time>2026-03-22T15:46:01.999Z</time></trkpt><trkpt lat="43.22598890857966" lon="2.0346584415723847"><ele>175.0</ele><time>2026-03-22T15:46:02.999Z</time></trkpt><trkpt lat="43.22607238179149" lon="2.034824826893545"><ele>175.0</ele><time>2026-03-22T15:46:03.999Z</time></trkpt><trkpt lat="43.22614548135003" lon="2.034975356624472"><ele>175.0</ele><time>2026-03-22T15:46:04.999Z</time></trkpt><trkpt lat="43.22620811191214" lon="2.0350993022713584"><ele>174.25</ele><time>2026-03-22T15:46:05.999Z</time></trkpt><trkpt lat="43.22629323448466" lon="2.0352108000391227"><ele>173.5</ele><time>2026-03-22T15:46:06.999Z</time></trkpt><trkpt lat="43.2263699154154" lon="2.0353324994194275"><ele>172.75</ele><time>2026-03-22T15:46:07.999Z</time></trkpt><trkpt lat="43.226463008155505" lon="2.035416114414235"><ele>172.0</ele><time>2026-03-22T15:46:08.999Z</time></trkpt><trkpt lat="43.22658661943936" lon="2.0354812682776826"><ele>172.0</ele><time>2026-03-22T15:46:09.999Z</time></trkpt><trkpt lat="43.22671762932114" lon="2.035539202346716"><ele>172.0</ele><time>2026-03-22T15:46:10.999Z</time></trkpt><trkpt lat="43.22682717991915" lon="2.0355791596848505"><ele>172.0</ele><time>2026-03-22T15:46:11.999Z</time></trkpt><trkpt lat="43.226927666252884" lon="2.035609909566163"><ele>172.0</ele><time>2026-03-22T15:46:12.999Z</time></trkpt><trkpt lat="43.22701390929507" lon="2.0356250203928625"><ele>172.0</ele><time>2026-03-22T15:46:13.999Z</time></trkpt><trkpt lat="43.22710704125865" lon="2.0355878850846176"><ele>172.0</ele><time>2026-03-22T15:46:14.999Z</time></trkpt><trkpt lat="43.22721174465904" lon="2.03554359044452"><ele>172.0</ele><time>2026-03-22T15:46:15.999Z</time></trkpt><trkpt lat="43.2273391805492" lon="2.035457248539929"><ele>172.0</ele><time>2026-03-22T15:46:16.999Z</time></trkpt><trkpt lat="43.227478482297556" lon="2.035387988720096"><ele>172.0</ele><time>2026-03-22T15:46:17.999Z</time></trkpt><trkpt lat="43.227617140604295" lon="2.0353675357993515"><ele>171.66666666666669</ele><time>2026-03-22T15:46:18.999Z</time></trkpt><trkpt lat="43.22778328891512" lon="2.035393588567988"><ele>171.33333333333334</ele><time>2026-03-22T15:46:19.999Z</time></trkpt><trkpt lat="43.22796275670145" lon="2.035439464105712"><ele>171.0</ele><time>2026-03-22T15:46:20.999Z</time></trkpt><trkpt lat="43.2281273089189" lon="2.0354784277142346"><ele>170.25</ele><time>2026-03-22T15:46:21.999Z</time></trkpt><trkpt lat="43.22826757609835" lon="2.035501324038282"><ele>169.5</ele><time>2026-03-22T15:46:22.999Z</time></trkpt><trkpt lat="43.22840792313703" lon="2.0355053067623947"><ele>168.75</ele><time>2026-03-22T15:46:24Z</time></trkpt><trkpt lat="43.22856799554075" lon="2.0355037130650158"><ele>168.0</ele><time>2026-03-22T15:46:25Z</time></trkpt><trkpt lat="43.22872613785935" lon="2.0355024886081905"><ele>168.0</ele><time>2026-03-22T15:46:26Z</time></trkpt><trkpt lat="43.228884832413854" lon="2.035531681197162"><ele>168.0</ele><time>2026-03-22T15:46:27Z</time></trkpt><trkpt lat="43.2290518735688" lon="2.0355862442477473"><ele>168.0</ele><time>2026-03-22T15:46:28Z</time></trkpt><trkpt lat="43.22920506895303" lon="2.0356733673300256"><ele>167.25</ele><time>2026-03-22T15:46:29Z</time></trkpt><trkpt lat="43.22933704366245" lon="2.0357908069321105"><ele>166.5</ele><time>2026-03-22T15:46:30Z</time></trkpt><trkpt lat="43.229470893685374" lon="2.0358469074414995"><ele>165.75</ele><time>2026-03-22T15:46:31Z</time></trkpt><trkpt lat="43.22959061212868" lon="2.035897070414376"><ele>165.0</ele><time>2026-03-22T15:46:32Z</time></trkpt><trkpt lat="43.229711351669216" lon="2.035912575856016"><ele>165.0</ele><time>2026-03-22T15:46:33Z</time></trkpt><trkpt lat="43.22985569009346" lon="2.035902047851677"><ele>165.0</ele><time>2026-03-22T15:46:34Z</time></trkpt><trkpt lat="43.230004611832605" lon="2.035894531892974"><ele>165.0</ele><time>2026-03-22T15:46:35Z</time></trkpt><trkpt lat="43.23014945684511" lon="2.035908944686849"><ele>165.0</ele><time>2026-03-22T15:46:36Z</time></trkpt><trkpt lat="43.230266584957654" lon="2.036004306446234"><ele>165.0</ele><time>2026-03-22T15:46:37Z</time></trkpt><trkpt lat="43.23040345868959" lon="2.0360804518243656"><ele>165.0</ele><time>2026-03-22T15:46:38Z</time></trkpt><trkpt lat="43.23053602545818" lon="2.036154312796165"><ele>165.0</ele><time>2026-03-22T15:46:39Z</time></trkpt><trkpt lat="43.23065716646705" lon="2.0362170737131287"><ele>165.0</ele><time>2026-03-22T15:46:40Z</time></trkpt><trkpt lat="43.23075655973864" lon="2.0362501716156802"><ele>164.6</ele><time>2026-03-22T15:46:41Z</time></trkpt><trkpt lat="43.230840285680834" lon="2.036286515925998"><ele>164.2</ele><time>2026-03-22T15:46:42Z</time></trkpt><trkpt lat="43.23093020404728" lon="2.036277604136602"><ele>163.8</ele><time>2026-03-22T15:46:43Z</time></trkpt><trkpt lat="43.231051461881265" lon="2.036232125854137"><ele>163.4</ele><time>2026-03-22T15:46:44Z</time></trkpt><trkpt lat="43.23117726112157" lon="2.036175430399274"><ele>163.0</ele><time>2026-03-22T15:46:45Z</time></trkpt><trkpt lat="43.23129519654085" lon="2.0361134345922443"><ele>163.0</ele><time>2026-03-22T15:46:46Z</time></trkpt><trkpt lat="43.23143075350626" lon="2.036044010946647"><ele>163.0</ele><time>2026-03-22T15:46:47Z</time></trkpt><trkpt lat="43.23157133431358" lon="2.0359700417966806"><ele>163.0</ele><time>2026-03-22T15:46:48Z</time></trkpt><trkpt lat="43.23172326077708" lon="2.0358982203454095"><ele>163.0</ele><time>2026-03-22T15:46:49Z</time></trkpt><trkpt lat="43.231874341790466" lon="2.0358192893556484"><ele>163.0</ele><time>2026-03-22T15:46:50Z</time></trkpt><trkpt lat="43.232025939884274" lon="2.035746654210798"><ele>163.0</ele><time>2026-03-22T15:46:51Z</time></trkpt><trkpt lat="43.23217969558307" lon="2.0356716333015332"><ele>163.0</ele><time>2026-03-22T15:46:52Z</time></trkpt><trkpt lat="43.232322509879936" lon="2.0356019647829395"><ele>163.0</ele><time>2026-03-22T15:46:53Z</time></trkpt><trkpt lat="43.232467673098675" lon="2.0355377285304863"><ele>163.0</ele><time>2026-03-22T15:46:54Z</time></trkpt><trkpt lat="43.232606981804985" lon="2.0354711910859287"><ele>163.0</ele><time>2026-03-22T15:46:55Z</time></trkpt><trkpt lat="43.232746595034286" lon="2.035408454356028"><ele>163.0</ele><time>2026-03-22T15:46:56Z</time></trkpt><trkpt lat="43.2328848758414" lon="2.0353543071547993"><ele>163.0</ele><time>2026-03-22T15:46:57Z</time></trkpt><trkpt lat="43.23303539083349" lon="2.0353149612573995"><ele>163.0</ele><time>2026-03-22T15:46:58Z</time></trkpt><trkpt lat="43.23321353999743" lon="2.0353456809406913"><ele>162.66666666666669</ele><time>2026-03-22T15:46:59Z</time></trkpt><trkpt lat="43.23337897778875" lon="2.035365913257699"><ele>162.33333333333334</ele><time>2026-03-22T15:47:00Z</time></trkpt><trkpt lat="43.23354334443904" lon="2.0353890056591926"><ele>162.0</ele><time>2026-03-22T15:47:01Z</time></trkpt><trkpt lat="43.233701922252635" lon="2.035414746891224"><ele>162.0</ele><time>2026-03-22T15:47:02Z</time></trkpt><trkpt lat="43.23384942070206" lon="2.0354232905669862"><ele>162.0</ele><time>2026-03-22T15:47:03Z</time></trkpt><trkpt lat="43.233989159141444" lon="2.0354840398646883"><ele>162.0</ele><time>2026-03-22T15:47:04Z</time></trkpt><trkpt lat="43.234132310456765" lon="2.0355299366719524"><ele>162.0</ele><time>2026-03-22T15:47:05Z</time></trkpt><trkpt lat="43.234273620447645" lon="2.0355642036415005"><ele>162.0</ele><time>2026-03-22T15:47:06Z</time></trkpt><trkpt lat="43.234406639252335" lon="2.035616842435461"><ele>162.0</ele><time>2026-03-22T15:47:07Z</time></trkpt><trkpt lat="43.2345404174183" lon="2.0356573489048286"><ele>162.0</ele><time>2026-03-22T15:47:08Z</time></trkpt><trkpt lat="43.2346645714964" lon="2.0357025777250226"><ele>162.0</ele><time>2026-03-22T15:47:09Z</time></trkpt><trkpt lat="43.23476934405908" lon="2.035745280029587"><ele>161.8</ele><time>2026-03-22T15:47:10Z</time></trkpt><trkpt lat="43.234880708463834" lon="2.0357915265412827"><ele>161.6</ele><time>2026-03-22T15:47:11Z</time></trkpt><trkpt lat="43.234962650837225" lon="2.035824269718066"><ele>161.4</ele><time>2026-03-22T15:47:12Z</time></trkpt><trkpt lat="43.23507186424279" lon="2.035861382286634"><ele>161.20000000000002</ele><time>2026-03-22T15:47:14Z</time></trkpt><trkpt lat="43.23516177022433" lon="2.035892373535109"><ele>161.0</ele><time>2026-03-22T15:47:16Z</time></trkpt><trkpt lat="43.23525452295281" lon="2.035926074277375"><ele>161.0</ele><time>2026-03-22T15:47:19Z</time></trkpt><trkpt lat="43.235329828775946" lon="2.0359552772476537"><ele>161.0</ele><time>2026-03-22T15:47:21Z</time></trkpt><trkpt lat="43.2354053687618" lon="2.0359848143038892"><ele>161.0</ele><time>2026-03-22T15:47:22Z</time></trkpt><trkpt lat="43.2355131031885" lon="2.0360221122057407"><ele>161.0</ele><time>2026-03-22T15:47:23Z</time></trkpt><trkpt lat="43.235635882218936" lon="2.0360607417647367"><ele>161.0</ele><time>2026-03-22T15:47:24Z</time></trkpt><trkpt lat="43.23575772901292" lon="2.0361168705282706"><ele>160.75</ele><time>2026-03-22T15:47:25Z</time></trkpt><trkpt lat="43.2358708717192" lon="2.0361387963123354"><ele>160.5</ele><time>2026-03-22T15:47:26Z</time></trkpt><trkpt lat="43.23601002182269" lon="2.036187545157516"><ele>160.25</ele><time>2026-03-22T15:47:27Z</time></trkpt><trkpt lat="43.236155908059665" lon="2.0362404471307545"><ele>160.0</ele><time>2026-03-22T15:47:28Z</time></trkpt><trkpt lat="43.236333384784444" lon="2.0363025880825902"><ele>159.33333333333334</ele><time>2026-03-22T15:47:29Z</time></trkpt><trkpt lat="43.23651193363314" lon="2.0363675793827887"><ele>158.66666666666666</ele><time>2026-03-22T15:47:30Z</time></trkpt><trkpt lat="43.236720242043816" lon="2.036460888457745"><ele>158.0</ele><time>2026-03-22T15:47:31Z</time></trkpt><trkpt lat="43.23694633587775" lon="2.0365419802186704"><ele>158.0</ele><time>2026-03-22T15:47:32Z</time></trkpt><trkpt lat="43.23719075927669" lon="2.0366050137077236"><ele>158.0</ele><time>2026-03-22T15:47:33Z</time></trkpt><trkpt lat="43.23739652151027" lon="2.0366819373787792"><ele>157.66666666666666</ele><time>2026-03-22T15:47:34Z</time></trkpt><trkpt lat="43.23758177179022" lon="2.0367482014073692"><ele>157.33333333333334</ele><time>2026-03-22T15:47:35Z</time></trkpt><trkpt lat="43.23775567461237" lon="2.0368073881576985"><ele>157.0</ele><time>2026-03-22T15:47:36Z</time></trkpt><trkpt lat="43.23793397956016" lon="2.0368680846824643"><ele>157.0</ele><time>2026-03-22T15:47:37Z</time></trkpt><trkpt lat="43.23811043310686" lon="2.0369305391868715"><ele>157.0</ele><time>2026-03-22T15:47:38Z</time></trkpt><trkpt lat="43.23827281885089" lon="2.0369883315676325"><ele>157.0</ele><time>2026-03-22T15:47:39Z</time></trkpt><trkpt lat="43.23842798713356" lon="2.037042135181367"><ele>157.0</ele><time>2026-03-22T15:47:40Z</time></trkpt><trkpt lat="43.23858448183516" lon="2.0370977277058993"><ele>157.0</ele><time>2026-03-22T15:47:41Z</time></trkpt><trkpt lat="43.238741018937056" lon="2.037152324327585"><ele>157.0</ele><time>2026-03-22T15:47:42Z</time></trkpt><trkpt lat="43.23889425240493" lon="2.037207454206923"><ele>156.66666666666669</ele><time>2026-03-22T15:47:43Z</time></trkpt><trkpt lat="43.239051143787506" lon="2.0372621698491384"><ele>156.33333333333334</ele><time>2026-03-22T15:47:44Z</time></trkpt><trkpt lat="43.239201713433246" lon="2.037314639076823"><ele>156.0</ele><time>2026-03-22T15:47:45Z</time></trkpt><trkpt lat="43.23935767182449" lon="2.037371074323174"><ele>156.0</ele><time>2026-03-22T15:47:46Z</time></trkpt><trkpt lat="43.239507007840984" lon="2.0374262843130246"><ele>156.0</ele><time>2026-03-22T15:47:47Z</time></trkpt><trkpt lat="43.23965660044244" lon="2.037476331839902"><ele>156.0</ele><time>2026-03-22T15:47:48Z</time></trkpt><trkpt lat="43.239805900391744" lon="2.037524998665806"><ele>156.0</ele><time>2026-03-22T15:47:49Z</time></trkpt><trkpt lat="43.239945623936116" lon="2.037553534354056"><ele>156.0</ele><time>2026-03-22T15:47:50Z</time></trkpt><trkpt lat="43.24008312749603" lon="2.0375514178413745"><ele>156.0</ele><time>2026-03-22T15:47:51Z</time></trkpt><trkpt lat="43.24022404663144" lon="2.037525100264578"><ele>156.0</ele><time>2026-03-22T15:47:52Z</time></trkpt><trkpt lat="43.24035358252783" lon="2.037490396177405"><ele>156.0</ele><time>2026-03-22T15:47:52.999Z</time></trkpt><trkpt lat="43.24047317946126" lon="2.0374678107602566"><ele>156.0</ele><time>2026-03-22T15:47:53.999Z</time></trkpt><trkpt lat="43.24059654197462" lon="2.0374516384587373"><ele>156.0</ele><time>2026-03-22T15:47:54.999Z</time></trkpt><trkpt lat="43.24069579263947" lon="2.0374597288372462"><ele>156.0</ele><time>2026-03-22T15:47:55.999Z</time></trkpt><trkpt lat="43.2408130757305" lon="2.0374489573459105"><ele>156.0</ele><time>2026-03-22T15:47:56.999Z</time></trkpt><trkpt lat="43.240959881882524" lon="2.0374567515998936"><ele>156.0</ele><time>2026-03-22T15:47:57.999Z</time></trkpt><trkpt lat="43.24110630881382" lon="2.0374672387509207"><ele>156.0</ele><time>2026-03-22T15:47:58.999Z</time></trkpt><trkpt lat="43.24123774450836" lon="2.0374836567300734"><ele>156.0</ele><time>2026-03-22T15:47:59.999Z</time></trkpt><trkpt lat="43.24136582577438" lon="2.0375153118392912"><ele>155.5</ele><time>2026-03-22T15:48:00.999Z</time></trkpt><trkpt lat="43.241472328897736" lon="2.0376049360980986"><ele>155.0</ele><time>2026-03-22T15:48:01.999Z</time></trkpt><trkpt lat="43.2415613396635" lon="2.0377033557872197"><ele>154.5</ele><time>2026-03-22T15:48:02.999Z</time></trkpt><trkpt lat="43.24168013555198" lon="2.037816071587313"><ele>154.0</ele><time>2026-03-22T15:48:03.999Z</time></trkpt><trkpt lat="43.2418176690914" lon="2.0379570013313044"><ele>154.0</ele><time>2026-03-22T15:48:04.999Z</time></trkpt><trkpt lat="43.241947091363265" lon="2.0380893718129944"><ele>154.0</ele><time>2026-03-22T15:48:05.999Z</time></trkpt><trkpt lat="43.242074050736015" lon="2.0381819256734315"><ele>154.0</ele><time>2026-03-22T15:48:06.999Z</time></trkpt><trkpt lat="43.242183511389534" lon="2.0382732644631827"><ele>154.0</ele><time>2026-03-22T15:48:07.999Z</time></trkpt><trkpt lat="43.24229937888261" lon="2.0383422080407074"><ele>153.75</ele><time>2026-03-22T15:48:08.999Z</time></trkpt><trkpt lat="43.24241606328388" lon="2.038391507306992"><ele>153.5</ele><time>2026-03-22T15:48:09.999Z</time></trkpt><trkpt lat="43.242545189269094" lon="2.0384262961903024"><ele>153.25</ele><time>2026-03-22T15:48:10.999Z</time></trkpt><trkpt lat="43.2427071780635" lon="2.0384615330071254"><ele>153.0</ele><time>2026-03-22T15:48:11.999Z</time></trkpt><trkpt lat="43.2428911028966" lon="2.0385124788228297"><ele>153.0</ele><time>2026-03-22T15:48:12.999Z</time></trkpt><trkpt lat="43.243072737654416" lon="2.0385705592714713"><ele>153.0</ele><time>2026-03-22T15:48:13.999Z</time></trkpt><trkpt lat="43.24322611474974" lon="2.038608596022982"><ele>153.0</ele><time>2026-03-22T15:48:14.999Z</time></trkpt><trkpt lat="43.2433946627648" lon="2.0386596580317247"><ele>153.25</ele><time>2026-03-22T15:48:15.999Z</time></trkpt><trkpt lat="43.24356100777317" lon="2.0387089713814657"><ele>153.5</ele><time>2026-03-22T15:48:16.999Z</time></trkpt><trkpt lat="43.24369819789663" lon="2.038752830395979"><ele>153.75</ele><time>2026-03-22T15:48:17.999Z</time></trkpt><trkpt lat="43.243818433383396" lon="2.0387881893576787"><ele>154.0</ele><time>2026-03-22T15:48:18.999Z</time></trkpt><trkpt lat="43.24391654945352" lon="2.038820156600602"><ele>153.33333333333334</ele><time>2026-03-22T15:48:19.999Z</time></trkpt><trkpt lat="43.24399220969634" lon="2.038844010901312"><ele>152.66666666666669</ele><time>2026-03-22T15:48:20.999Z</time></trkpt><trkpt lat="43.244059457495744" lon="2.0388612039965404"><ele>152.0</ele><time>2026-03-22T15:48:21.999Z</time></trkpt><trkpt lat="43.24413482109533" lon="2.038860995931026"><ele>151.33333333333334</ele><time>2026-03-22T15:48:22.999Z</time></trkpt><trkpt lat="43.244212194298264" lon="2.038823799354015"><ele>150.66666666666666</ele><time>2026-03-22T15:48:23.999Z</time></trkpt><trkpt lat="43.24425399888774" lon="2.0387331801274438"><ele>150.0</ele><time>2026-03-22T15:48:24.999Z</time></trkpt><trkpt lat="43.244299144053976" lon="2.038643494464458"><ele>150.0</ele><time>2026-03-22T15:48:25.999Z</time></trkpt><trkpt lat="43.24438307773075" lon="2.038491109727972"><ele>150.0</ele><time>2026-03-22T15:48:26.999Z</time></trkpt><trkpt lat="43.24447314900357" lon="2.038315104889466"><ele>150.0</ele><time>2026-03-22T15:48:27.999Z</time></trkpt><trkpt lat="43.24454780882713" lon="2.0381756590035103"><ele>150.0</ele><time>2026-03-22T15:48:28.999Z</time></trkpt><trkpt lat="43.24461286618941" lon="2.038062567270169"><ele>150.0</ele><time>2026-03-22T15:48:30Z</time></trkpt><trkpt lat="43.24466860489111" lon="2.0379585399693316"><ele>150.0</ele><time>2026-03-22T15:48:31Z</time></trkpt><trkpt lat="43.244718600496086" lon="2.037870778841938"><ele>150.0</ele><time>2026-03-22T15:48:32Z</time></trkpt><trkpt lat="43.24480503181588" lon="2.0377500513488096"><ele>150.0</ele><time>2026-03-22T15:48:34Z</time></trkpt><trkpt lat="43.24486841515535" lon="2.037724939122179"><ele>150.0</ele><time>2026-03-22T15:48:35Z</time></trkpt><trkpt lat="43.24494266152665" lon="2.037765693019069"><ele>150.0</ele><time>2026-03-22T15:48:36Z</time></trkpt><trkpt lat="43.24499813248811" lon="2.037866077530206"><ele>150.0</ele><time>2026-03-22T15:48:37Z</time></trkpt><trkpt lat="43.24506804437088" lon="2.037951932650291"><ele>150.0</ele><time>2026-03-22T15:48:38Z</time></trkpt><trkpt lat="43.245169446701794" lon="2.038080700824954"><ele>150.0</ele><time>2026-03-22T15:48:39Z</time></trkpt><trkpt lat="43.245304369215354" lon="2.0382424132551393"><ele>150.0</ele><time>2026-03-22T15:48:40Z</time></trkpt><trkpt lat="43.24541946078895" lon="2.0383800222148416"><ele>149.75</ele><time>2026-03-22T15:48:41Z</time></trkpt><trkpt lat="43.24553691406296" lon="2.038490560152167"><ele>149.5</ele><time>2026-03-22T15:48:42Z</time></trkpt><trkpt lat="43.24563226375853" lon="2.038618039847895"><ele>149.25</ele><time>2026-03-22T15:48:43Z</time></trkpt><trkpt lat="43.24574450886319" lon="2.0387473743493985"><ele>149.0</ele><time>2026-03-22T15:48:44Z</time></trkpt><trkpt lat="43.245859267662645" lon="2.038876658074949"><ele>149.0</ele><time>2026-03-22T15:48:45Z</time></trkpt><trkpt lat="43.2459805803402" lon="2.0390069401389797"><ele>149.0</ele><time>2026-03-22T15:48:46Z</time></trkpt><trkpt lat="43.24610612777014" lon="2.0391354896490776"><ele>149.0</ele><time>2026-03-22T15:48:47Z</time></trkpt><trkpt lat="43.24623289965426" lon="2.039263236347039"><ele>149.0</ele><time>2026-03-22T15:48:48Z</time></trkpt><trkpt lat="43.246360415588896" lon="2.039386908735605"><ele>149.0</ele><time>2026-03-22T15:48:49Z</time></trkpt><trkpt lat="43.24648768477551" lon="2.0395057256809395"><ele>149.0</ele><time>2026-03-22T15:48:50Z</time></trkpt><trkpt lat="43.246632766280314" lon="2.0396379283917097"><ele>149.0</ele><time>2026-03-22T15:48:51Z</time></trkpt><trkpt lat="43.24677548435179" lon="2.0397751697989266"><ele>149.0</ele><time>2026-03-22T15:48:52Z</time></trkpt><trkpt lat="43.24691623196674" lon="2.0399086713914603"><ele>149.0</ele><time>2026-03-22T15:48:53Z</time></trkpt><trkpt lat="43.247048834235045" lon="2.040032192501958"><ele>148.75</ele><time>2026-03-22T15:48:54Z</time></trkpt><trkpt lat="43.247156720021465" lon="2.0401337967050477"><ele>148.5</ele><time>2026-03-22T15:48:55Z</time></trkpt><trkpt lat="43.24724533779343" lon="2.0402160379640097"><ele>148.25</ele><time>2026-03-22T15:48:56Z</time></trkpt><trkpt lat="43.247334866734" lon="2.040289971743307"><ele>148.0</ele><time>2026-03-22T15:48:57Z</time></trkpt><trkpt lat="43.247436312797525" lon="2.0403452457606153"><ele>148.0</ele><time>2026-03-22T15:48:58Z</time></trkpt><trkpt lat="43.247553827500205" lon="2.0403683779889827"><ele>148.0</ele><time>2026-03-22T15:48:59Z</time></trkpt><trkpt lat="43.2476682441246" lon="2.0403664719701706"><ele>148.0</ele><time>2026-03-22T15:49:00Z</time></trkpt><trkpt lat="43.24777401822367" lon="2.0403400226784307"><ele>148.0</ele><time>2026-03-22T15:49:01Z</time></trkpt><trkpt lat="43.247903680711445" lon="2.040282181390997"><ele>148.0</ele><time>2026-03-22T15:49:02Z</time></trkpt><trkpt lat="43.24805320856129" lon="2.0402116130411043"><ele>148.0</ele><time>2026-03-22T15:49:03Z</time></trkpt><trkpt lat="43.24818608449563" lon="2.040153249477986"><ele>148.0</ele><time>2026-03-22T15:49:04Z</time></trkpt><trkpt lat="43.24833412624194" lon="2.0400912653384906"><ele>148.0</ele><time>2026-03-22T15:49:05Z</time></trkpt><trkpt lat="43.2484908633266" lon="2.040024032252565"><ele>148.0</ele><time>2026-03-22T15:49:06Z</time></trkpt><trkpt lat="43.24864165888826" lon="2.0399605805148258"><ele>148.0</ele><time>2026-03-22T15:49:07Z</time></trkpt><trkpt lat="43.24880927167469" lon="2.0398896154233443"><ele>148.25</ele><time>2026-03-22T15:49:08Z</time></trkpt><trkpt lat="43.248945637706214" lon="2.0398382061628015"><ele>148.5</ele><time>2026-03-22T15:49:09Z</time></trkpt><trkpt lat="43.249088807368906" lon="2.0397806468747492"><ele>148.75</ele><time>2026-03-22T15:49:10Z</time></trkpt><trkpt lat="43.249232698661196" lon="2.039721155189012"><ele>149.0</ele><time>2026-03-22T15:49:11Z</time></trkpt><trkpt lat="43.24937501603125" lon="2.0396615019022892"><ele>148.33333333333331</ele><time>2026-03-22T15:49:12Z</time></trkpt><trkpt lat="43.249521540218204" lon="2.039598562492968"><ele>147.66666666666666</ele><time>2026-03-22T15:49:13Z</time></trkpt><trkpt lat="43.2496775385648" lon="2.039542764864638"><ele>147.0</ele><time>2026-03-22T15:49:14Z</time></trkpt><trkpt lat="43.24981419634676" lon="2.0394952953414633"><ele>147.0</ele><time>2026-03-22T15:49:15Z</time></trkpt><trkpt lat="43.24993720412752" lon="2.039457055149129"><ele>147.0</ele><time>2026-03-22T15:49:16Z</time></trkpt><trkpt lat="43.250047351751824" lon="2.039431997097114"><ele>147.0</ele><time>2026-03-22T15:49:17Z</time></trkpt><trkpt lat="43.25017077454251" lon="2.0394379637702684"><ele>147.0</ele><time>2026-03-22T15:49:18Z</time></trkpt><trkpt lat="43.250303437775685" lon="2.0394685591799258"><ele>147.0</ele><time>2026-03-22T15:49:19Z</time></trkpt><trkpt lat="43.25042309855502" lon="2.0395443802407365"><ele>147.0</ele><time>2026-03-22T15:49:20Z</time></trkpt><trkpt lat="43.25054717395804" lon="2.0396199961304986"><ele>147.0</ele><time>2026-03-22T15:49:21Z</time></trkpt><trkpt lat="43.250699585646686" lon="2.039700723542632"><ele>147.0</ele><time>2026-03-22T15:49:22Z</time></trkpt><trkpt lat="43.250835009972775" lon="2.0398012573242146"><ele>146.75</ele><time>2026-03-22T15:49:23Z</time></trkpt><trkpt lat="43.25095773502003" lon="2.0398967151653697"><ele>146.5</ele><time>2026-03-22T15:49:24Z</time></trkpt><trkpt lat="43.25108100753954" lon="2.039997884856705"><ele>146.25</ele><time>2026-03-22T15:49:25Z</time></trkpt><trkpt lat="43.25120662112242" lon="2.0401049496621275"><ele>146.0</ele><time>2026-03-22T15:49:26Z</time></trkpt><trkpt lat="43.25135281518392" lon="2.0402236816797976"><ele>146.0</ele><time>2026-03-22T15:49:27Z</time></trkpt><trkpt lat="43.25150523660215" lon="2.040344818591355"><ele>146.0</ele><time>2026-03-22T15:49:28Z</time></trkpt><trkpt lat="43.25162716607565" lon="2.040467418232898"><ele>146.0</ele><time>2026-03-22T15:49:29Z</time></trkpt><trkpt lat="43.25176051968082" lon="2.04056352312722"><ele>146.0</ele><time>2026-03-22T15:49:30Z</time></trkpt><trkpt lat="43.25189768491936" lon="2.0406355920989103"><ele>146.0</ele><time>2026-03-22T15:49:31Z</time></trkpt><trkpt lat="43.25204347664958" lon="2.0407295417230378"><ele>146.0</ele><time>2026-03-22T15:49:32Z</time></trkpt><trkpt lat="43.252197706764015" lon="2.0408576988423155"><ele>145.33333333333331</ele><time>2026-03-22T15:49:33Z</time></trkpt><trkpt lat="43.25236057505796" lon="2.040965242786652"><ele>144.66666666666666</ele><time>2026-03-22T15:49:34Z</time></trkpt><trkpt lat="43.252516269517464" lon="2.041043238376311"><ele>144.0</ele><time>2026-03-22T15:49:35Z</time></trkpt><trkpt lat="43.252674389751604" lon="2.041148136919473"><ele>144.0</ele><time>2026-03-22T15:49:36Z</time></trkpt><trkpt lat="43.252859940728314" lon="2.0412716597834715"><ele>144.0</ele><time>2026-03-22T15:49:37Z</time></trkpt><trkpt lat="43.25301534307337" lon="2.041382393705872"><ele>144.0</ele><time>2026-03-22T15:49:38Z</time></trkpt><trkpt lat="43.25315790058605" lon="2.0414719215007735"><ele>144.0</ele><time>2026-03-22T15:49:39Z</time></trkpt><trkpt lat="43.25330604335341" lon="2.0415639810527595"><ele>144.0</ele><time>2026-03-22T15:49:40Z</time></trkpt><trkpt lat="43.253462306566966" lon="2.041664053559063"><ele>144.0</ele><time>2026-03-22T15:49:41Z</time></trkpt><trkpt lat="43.25361967587605" lon="2.0417630032622696"><ele>144.0</ele><time>2026-03-22T15:49:42Z</time></trkpt><trkpt lat="43.253780528309186" lon="2.0418647173643376"><ele>144.0</ele><time>2026-03-22T15:49:43Z</time></trkpt><trkpt lat="43.25394984255762" lon="2.041972605123457"><ele>144.0</ele><time>2026-03-22T15:49:44Z</time></trkpt><trkpt lat="43.25411515847074" lon="2.0420785885613415"><ele>144.25</ele><time>2026-03-22T15:49:45Z</time></trkpt><trkpt lat="43.25425832651676" lon="2.0421831899685525"><ele>144.5</ele><time>2026-03-22T15:49:46Z</time></trkpt><trkpt lat="43.25439114813742" lon="2.0422644589542527"><ele>144.75</ele><time>2026-03-22T15:49:47Z</time></trkpt><trkpt lat="43.254519337060984" lon="2.0423379602005034"><ele>145.0</ele><time>2026-03-22T15:49:48Z</time></trkpt><trkpt lat="43.2546373509947" lon="2.042410700800949"><ele>145.0</ele><time>2026-03-22T15:49:49Z</time></trkpt><trkpt lat="43.25476031696239" lon="2.0424390225963216"><ele>145.0</ele><time>2026-03-22T15:49:50Z</time></trkpt><trkpt lat="43.25489032665138" lon="2.0424583840418435"><ele>145.0</ele><time>2026-03-22T15:49:51Z</time></trkpt><trkpt lat="43.25503161848393" lon="2.042469831034147"><ele>145.0</ele><time>2026-03-22T15:49:52Z</time></trkpt><trkpt lat="43.255191717298025" lon="2.0424516215169524"><ele>144.0</ele><time>2026-03-22T15:49:53Z</time></trkpt><trkpt lat="43.25535540313801" lon="2.042402958940427"><ele>143.0</ele><time>2026-03-22T15:49:54Z</time></trkpt><trkpt lat="43.25552500412475" lon="2.0423175972752126"><ele>142.0</ele><time>2026-03-22T15:49:55Z</time></trkpt><trkpt lat="43.25569712366526" lon="2.0422467676292775"><ele>141.33333333333334</ele><time>2026-03-22T15:49:56Z</time></trkpt><trkpt lat="43.255869992534265" lon="2.0421893827451907"><ele>140.66666666666666</ele><time>2026-03-22T15:49:57Z</time></trkpt><trkpt lat="43.25602783223172" lon="2.042135302875877"><ele>140.0</ele><time>2026-03-22T15:49:57.999Z</time></trkpt><trkpt lat="43.256174832549966" lon="2.0420943573122736"><ele>140.0</ele><time>2026-03-22T15:49:58.999Z</time></trkpt><trkpt lat="43.25631272008179" lon="2.042065820871192"><ele>140.0</ele><time>2026-03-22T15:49:59.999Z</time></trkpt><trkpt lat="43.256459401057" lon="2.0420329414690976"><ele>140.0</ele><time>2026-03-22T15:50:00.999Z</time></trkpt><trkpt lat="43.25660215750705" lon="2.041998351980394"><ele>140.0</ele><time>2026-03-22T15:50:01.999Z</time></trkpt><trkpt lat="43.25676798111451" lon="2.041961924584172"><ele>140.33333333333331</ele><time>2026-03-22T15:50:02.999Z</time></trkpt><trkpt lat="43.25693590415075" lon="2.041933027521468"><ele>140.66666666666666</ele><time>2026-03-22T15:50:03.999Z</time></trkpt><trkpt lat="43.25710628359634" lon="2.041924864073834"><ele>141.0</ele><time>2026-03-22T15:50:04.999Z</time></trkpt><trkpt lat="43.25728874899688" lon="2.0419344092292344"><ele>141.0</ele><time>2026-03-22T15:50:05.999Z</time></trkpt><trkpt lat="43.25745148650581" lon="2.0419452904147963"><ele>141.0</ele><time>2026-03-22T15:50:06.999Z</time></trkpt><trkpt lat="43.2575982576736" lon="2.041958643773498"><ele>141.0</ele><time>2026-03-22T15:50:07.999Z</time></trkpt><trkpt lat="43.25775581789948" lon="2.041970394188522"><ele>141.0</ele><time>2026-03-22T15:50:08.999Z</time></trkpt><trkpt lat="43.25791580540364" lon="2.041986692412555"><ele>141.0</ele><time>2026-03-22T15:50:09.999Z</time></trkpt><trkpt lat="43.25808052281402" lon="2.041998073398872"><ele>141.0</ele><time>2026-03-22T15:50:10.999Z</time></trkpt><trkpt lat="43.25824128665733" lon="2.0420102639531157"><ele>141.0</ele><time>2026-03-22T15:50:11.999Z</time></trkpt><trkpt lat="43.25841345006267" lon="2.042017021269708"><ele>141.0</ele><time>2026-03-22T15:50:12.999Z</time></trkpt><trkpt lat="43.25858877125775" lon="2.0420285942280536"><ele>141.0</ele><time>2026-03-22T15:50:13.999Z</time></trkpt><trkpt lat="43.258760778892096" lon="2.0420316967430345"><ele>141.0</ele><time>2026-03-22T15:50:14.999Z</time></trkpt><trkpt lat="43.258929809003234" lon="2.0420263751959467"><ele>141.0</ele><time>2026-03-22T15:50:15.999Z</time></trkpt><trkpt lat="43.25908753914295" lon="2.0420243076200437"><ele>141.0</ele><time>2026-03-22T15:50:16.999Z</time></trkpt><trkpt lat="43.25923489249806" lon="2.0420297535999334"><ele>141.0</ele><time>2026-03-22T15:50:17.999Z</time></trkpt><trkpt lat="43.25936779660766" lon="2.0420473896594142"><ele>141.0</ele><time>2026-03-22T15:50:18.999Z</time></trkpt><trkpt lat="43.259501973057134" lon="2.0420725572709877"><ele>141.0</ele><time>2026-03-22T15:50:19.999Z</time></trkpt><trkpt lat="43.25962939123802" lon="2.042104548409213"><ele>141.0</ele><time>2026-03-22T15:50:20.999Z</time></trkpt><trkpt lat="43.25975466388875" lon="2.042148945744338"><ele>140.75</ele><time>2026-03-22T15:50:21.999Z</time></trkpt><trkpt lat="43.25988289006774" lon="2.0422015511816167"><ele>140.5</ele><time>2026-03-22T15:50:22.999Z</time></trkpt><trkpt lat="43.25998866472353" lon="2.0422474635755568"><ele>140.25</ele><time>2026-03-22T15:50:23.999Z</time></trkpt><trkpt lat="43.26008790571737" lon="2.042283108719822"><ele>140.0</ele><time>2026-03-22T15:50:24.999Z</time></trkpt><trkpt lat="43.26019072728602" lon="2.042303879380549"><ele>140.0</ele><time>2026-03-22T15:50:25.999Z</time></trkpt><trkpt lat="43.26029119345849" lon="2.0422660342434256"><ele>140.0</ele><time>2026-03-22T15:50:26.999Z</time></trkpt><trkpt lat="43.260407442098675" lon="2.042233182180918"><ele>140.0</ele><time>2026-03-22T15:50:27.999Z</time></trkpt><trkpt lat="43.260536101390784" lon="2.042152961281573"><ele>140.0</ele><time>2026-03-22T15:50:28.999Z</time></trkpt><trkpt lat="43.26067821865819" lon="2.0421218472995193"><ele>140.0</ele><time>2026-03-22T15:50:29.999Z</time></trkpt><trkpt lat="43.26080941028936" lon="2.042099438628517"><ele>140.0</ele><time>2026-03-22T15:50:30.999Z</time></trkpt><trkpt lat="43.26094320033037" lon="2.042081086376541"><ele>140.0</ele><time>2026-03-22T15:50:31.999Z</time></trkpt><trkpt lat="43.26108954592029" lon="2.0420552511587915"><ele>140.0</ele><time>2026-03-22T15:50:32.999Z</time></trkpt><trkpt lat="43.26125075603425" lon="2.0420325179940804"><ele>140.0</ele><time>2026-03-22T15:50:33.999Z</time></trkpt><trkpt lat="43.26141314160639" lon="2.0420166391881223"><ele>140.0</ele><time>2026-03-22T15:50:34.999Z</time></trkpt><trkpt lat="43.26156882797051" lon="2.0420168858686045"><ele>140.0</ele><time>2026-03-22T15:50:36Z</time></trkpt><trkpt lat="43.26171926654462" lon="2.0420257897872665"><ele>139.66666666666666</ele><time>2026-03-22T15:50:37Z</time></trkpt><trkpt lat="43.2618644867551" lon="2.042022343949711"><ele>139.33333333333334</ele><time>2026-03-22T15:50:38Z</time></trkpt><trkpt lat="43.26202203388488" lon="2.0419953993985485"><ele>139.0</ele><time>2026-03-22T15:50:39Z</time></trkpt><trkpt lat="43.262179501136394" lon="2.041954767784877"><ele>139.25</ele><time>2026-03-22T15:50:40Z</time></trkpt><trkpt lat="43.262320543776205" lon="2.0419370314922887"><ele>139.5</ele><time>2026-03-22T15:50:41Z</time></trkpt><trkpt lat="43.26244992920454" lon="2.041941016434848"><ele>139.75</ele><time>2026-03-22T15:50:42Z</time></trkpt><trkpt lat="43.26256932975717" lon="2.0419511766661635"><ele>140.0</ele><time>2026-03-22T15:50:43Z</time></trkpt><trkpt lat="43.262677253034994" lon="2.041957642141499"><ele>140.0</ele><time>2026-03-22T15:50:44Z</time></trkpt><trkpt lat="43.262778837741074" lon="2.041962737192313"><ele>140.0</ele><time>2026-03-22T15:50:45Z</time></trkpt><trkpt lat="43.262860539802475" lon="2.0419710352438667"><ele>140.0</ele><time>2026-03-22T15:50:46Z</time></trkpt><trkpt lat="43.26292807258122" lon="2.041982638227884"><ele>140.0</ele><time>2026-03-22T15:50:47Z</time></trkpt><trkpt lat="43.263053460521576" lon="2.04200609722581"><ele>140.0</ele><time>2026-03-22T15:50:49Z</time></trkpt><trkpt lat="43.26317169832372" lon="2.041785558381339"><ele>140.0</ele><time>2026-03-22T15:50:51Z</time></trkpt><trkpt lat="43.26322652651437" lon="2.0416407738530675"><ele>140.0</ele><time>2026-03-22T15:50:52Z</time></trkpt><trkpt lat="43.263291035478346" lon="2.0414651065872933"><ele>140.0</ele><time>2026-03-22T15:50:53Z</time></trkpt><trkpt lat="43.26336359243401" lon="2.041278155361448"><ele>140.0</ele><time>2026-03-22T15:50:54Z</time></trkpt><trkpt lat="43.26343151661185" lon="2.0411066159213282"><ele>140.33333333333331</ele><time>2026-03-22T15:50:55Z</time></trkpt><trkpt lat="43.263504549975785" lon="2.0409290451077173"><ele>140.66666666666666</ele><time>2026-03-22T15:50:56Z</time></trkpt><trkpt lat="43.26358096027367" lon="2.040736395768765"><ele>141.0</ele><time>2026-03-22T15:50:57Z</time></trkpt><trkpt lat="43.26365266649509" lon="2.0405360033523117"><ele>141.0</ele><time>2026-03-22T15:50:58Z</time></trkpt><trkpt lat="43.263721077673665" lon="2.040348406771284"><ele>141.0</ele><time>2026-03-22T15:50:59Z</time></trkpt><trkpt lat="43.263797824351165" lon="2.0401492441926825"><ele>141.0</ele><time>2026-03-22T15:51:00Z</time></trkpt><trkpt lat="43.26388351042892" lon="2.0399414807359944"><ele>140.66666666666666</ele><time>2026-03-22T15:51:01Z</time></trkpt><trkpt lat="43.26397608130379" lon="2.039711714208394"><ele>140.33333333333331</ele><time>2026-03-22T15:51:02Z</time></trkpt><trkpt lat="43.26408760717867" lon="2.039448728921408"><ele>140.0</ele><time>2026-03-22T15:51:03Z</time></trkpt><trkpt lat="43.264182198705825" lon="2.039216849134562"><ele>140.0</ele><time>2026-03-22T15:51:04Z</time></trkpt><trkpt lat="43.26427734074902" lon="2.0389898391646746"><ele>140.0</ele><time>2026-03-22T15:51:05Z</time></trkpt><trkpt lat="43.264374941498815" lon="2.0387545505803124"><ele>140.0</ele><time>2026-03-22T15:51:06Z</time></trkpt><trkpt lat="43.264468045855814" lon="2.0385314023147094"><ele>140.0</ele><time>2026-03-22T15:51:07Z</time></trkpt><trkpt lat="43.26455964481392" lon="2.0383087036037466"><ele>140.0</ele><time>2026-03-22T15:51:08Z</time></trkpt><trkpt lat="43.26465462016482" lon="2.038071205748013"><ele>140.0</ele><time>2026-03-22T15:51:09Z</time></trkpt><trkpt lat="43.264751610105" lon="2.0378378729580717"><ele>140.0</ele><time>2026-03-22T15:51:10Z</time></trkpt><trkpt lat="43.26483680710164" lon="2.03763588997772"><ele>140.0</ele><time>2026-03-22T15:51:11Z</time></trkpt><trkpt lat="43.26491616543151" lon="2.0374534042384016"><ele>140.0</ele><time>2026-03-22T15:51:12Z</time></trkpt><trkpt lat="43.26498960635614" lon="2.037273307845435"><ele>140.0</ele><time>2026-03-22T15:51:13Z</time></trkpt><trkpt lat="43.26505993705274" lon="2.0370968012354194"><ele>140.0</ele><time>2026-03-22T15:51:14Z</time></trkpt><trkpt lat="43.26512619588118" lon="2.0369291292786347"><ele>140.0</ele><time>2026-03-22T15:51:15Z</time></trkpt><trkpt lat="43.26518956543338" lon="2.036767470271783"><ele>140.0</ele><time>2026-03-22T15:51:16Z</time></trkpt><trkpt lat="43.2652506914817" lon="2.0366132069649856"><ele>140.0</ele><time>2026-03-22T15:51:17Z</time></trkpt><trkpt lat="43.265301599852826" lon="2.036479008057069"><ele>140.0</ele><time>2026-03-22T15:51:18Z</time></trkpt><trkpt lat="43.265336311045395" lon="2.0363767965920747"><ele>140.0</ele><time>2026-03-22T15:51:19Z</time></trkpt><trkpt lat="43.26538144658299" lon="2.036221222371396"><ele>140.0</ele><time>2026-03-22T15:51:21Z</time></trkpt><trkpt lat="43.26541497201597" lon="2.036097989781389"><ele>140.0</ele><time>2026-03-22T15:51:23Z</time></trkpt><trkpt lat="43.26543958510098" lon="2.035996695133577"><ele>140.25</ele><time>2026-03-22T15:51:26Z</time></trkpt><trkpt lat="43.265615863991755" lon="2.036077167421937"><ele>140.5</ele><time>2026-03-22T15:51:28Z</time></trkpt><trkpt lat="43.26572421761436" lon="2.0361190551892614"><ele>140.75</ele><time>2026-03-22T15:51:30Z</time></trkpt><trkpt lat="43.265809920505674" lon="2.036145105092205"><ele>141.0</ele><time>2026-03-22T15:51:31Z</time></trkpt><trkpt lat="43.26590794384435" lon="2.0361994074224454"><ele>141.0</ele><time>2026-03-22T15:51:32Z</time></trkpt><trkpt lat="43.26601343250982" lon="2.036212084165625"><ele>141.0</ele><time>2026-03-22T15:51:33Z</time></trkpt><trkpt lat="43.26611157853904" lon="2.0362432644100226"><ele>141.0</ele><time>2026-03-22T15:51:34Z</time></trkpt><trkpt lat="43.266210669624556" lon="2.036278876365267"><ele>141.0</ele><time>2026-03-22T15:51:35Z</time></trkpt><trkpt lat="43.26631810594164" lon="2.0363180749445964"><ele>141.0</ele><time>2026-03-22T15:51:36Z</time></trkpt><trkpt lat="43.26643126879433" lon="2.036359345782536"><ele>141.2</ele><time>2026-03-22T15:51:37Z</time></trkpt><trkpt lat="43.266530426458615" lon="2.036401061738881"><ele>141.39999999999998</ele><time>2026-03-22T15:51:38Z</time></trkpt><trkpt lat="43.26663495680003" lon="2.036443860081972"><ele>141.6</ele><time>2026-03-22T15:51:39Z</time></trkpt><trkpt lat="43.266734718139176" lon="2.036488644173018"><ele>141.79999999999998</ele><time>2026-03-22T15:51:40Z</time></trkpt><trkpt lat="43.26682581420926" lon="2.036529787753208"><ele>142.0</ele><time>2026-03-22T15:51:41Z</time></trkpt><trkpt lat="43.26689899612581" lon="2.0365827368579947"><ele>142.0</ele><time>2026-03-22T15:51:42Z</time></trkpt><trkpt lat="43.2669713204396" lon="2.036620717633489"><ele>142.0</ele><time>2026-03-22T15:51:43Z</time></trkpt><trkpt lat="43.2670354689967" lon="2.0366525483976834"><ele>142.0</ele><time>2026-03-22T15:51:44Z</time></trkpt><trkpt lat="43.26713160183097" lon="2.0367115640172937"><ele>142.0</ele><time>2026-03-22T15:51:46Z</time></trkpt><trkpt lat="43.26714977709904" lon="2.03681046249387"><ele>142.0</ele><time>2026-03-22T15:51:48Z</time></trkpt><trkpt lat="43.26714642145191" lon="2.036900098572745"><ele>142.0</ele><time>2026-03-22T15:51:49Z</time></trkpt><trkpt lat="43.26715633385529" lon="2.0370180079930034"><ele>142.33333333333334</ele><time>2026-03-22T15:51:49.999Z</time></trkpt><trkpt lat="43.26722797111437" lon="2.037078152939934"><ele>142.66666666666669</ele><time>2026-03-22T15:51:50.999Z</time></trkpt><trkpt lat="43.26729998527614" lon="2.0371185850227223"><ele>143.0</ele><time>2026-03-22T15:51:51.999Z</time></trkpt><trkpt lat="43.26735625034086" lon="2.037166635078999"><ele>143.33333333333334</ele><time>2026-03-22T15:51:52.999Z</time></trkpt><trkpt lat="43.26742713788899" lon="2.037239140907012"><ele>143.66666666666666</ele><time>2026-03-22T15:51:54.999Z</time></trkpt><trkpt lat="43.26749249389465" lon="2.0372597980453566"><ele>144.0</ele><time>2026-03-22T15:51:56.999Z</time></trkpt><trkpt lat="43.267426581810575" lon="2.037454325122115"><ele>143.8</ele><time>2026-03-22T15:52:00.999Z</time></trkpt><trkpt lat="43.267389370618226" lon="2.0375824745250317"><ele>143.60000000000002</ele><time>2026-03-22T15:52:01.999Z</time></trkpt><trkpt lat="43.26735673850897" lon="2.037704972125794"><ele>143.4</ele><time>2026-03-22T15:52:02.999Z</time></trkpt><trkpt lat="43.267324806138824" lon="2.037827742871826"><ele>143.20000000000002</ele><time>2026-03-22T15:52:03.999Z</time></trkpt><trkpt lat="43.26728526794947" lon="2.037972514242329"><ele>143.0</ele><time>2026-03-22T15:52:04.999Z</time></trkpt><trkpt lat="43.26723382365977" lon="2.038149702551579"><ele>143.0</ele><time>2026-03-22T15:52:05.999Z</time></trkpt><trkpt lat="43.26719092911733" lon="2.03829744331714"><ele>143.0</ele><time>2026-03-22T15:52:06.999Z</time></trkpt><trkpt lat="43.26715146655983" lon="2.0384340915493255"><ele>143.0</ele><time>2026-03-22T15:52:07.999Z</time></trkpt><trkpt lat="43.267111147624284" lon="2.0385747242990933"><ele>143.0</ele><time>2026-03-22T15:52:08.999Z</time></trkpt><trkpt lat="43.26706955497644" lon="2.0387197999010103"><ele>143.0</ele><time>2026-03-22T15:52:09.999Z</time></trkpt><trkpt lat="43.26703214586734" lon="2.0388502836124607"><ele>142.4</ele><time>2026-03-22T15:52:10.999Z</time></trkpt><trkpt lat="43.26699785750385" lon="2.0389698816514863"><ele>141.8</ele><time>2026-03-22T15:52:11.999Z</time></trkpt><trkpt lat="43.266964196121414" lon="2.039087292945092"><ele>141.2</ele><time>2026-03-22T15:52:12.999Z</time></trkpt><trkpt lat="43.266923406706816" lon="2.0392295672481255"><ele>140.6</ele><time>2026-03-22T15:52:13.999Z</time></trkpt><trkpt lat="43.26687861244726" lon="2.0393830343218466"><ele>140.0</ele><time>2026-03-22T15:52:14.999Z</time></trkpt><trkpt lat="43.266830693586165" lon="2.0395464638122305"><ele>140.0</ele><time>2026-03-22T15:52:15.999Z</time></trkpt><trkpt lat="43.26677661333077" lon="2.039716609200184"><ele>140.0</ele><time>2026-03-22T15:52:16.999Z</time></trkpt><trkpt lat="43.26670583922725" lon="2.0399086393025265"><ele>140.0</ele><time>2026-03-22T15:52:17.999Z</time></trkpt><trkpt lat="43.26662921790421" lon="2.0401121964880713"><ele>139.66666666666666</ele><time>2026-03-22T15:52:18.999Z</time></trkpt><trkpt lat="43.2665469302169" lon="2.040347472674604"><ele>139.33333333333334</ele><time>2026-03-22T15:52:19.999Z</time></trkpt><trkpt lat="43.266455270212305" lon="2.040622761164164"><ele>139.0</ele><time>2026-03-22T15:52:20.999Z</time></trkpt><trkpt lat="43.266418192382936" lon="2.040904279557558"><ele>139.0</ele><time>2026-03-22T15:52:21.999Z</time></trkpt><trkpt lat="43.26633750810748" lon="2.041123921765109"><ele>139.0</ele><time>2026-03-22T15:52:22.999Z</time></trkpt><trkpt lat="43.2662688143004" lon="2.041306697877847"><ele>139.0</ele><time>2026-03-22T15:52:23.999Z</time></trkpt><trkpt lat="43.26621546538647" lon="2.0414669484358865"><ele>139.0</ele><time>2026-03-22T15:52:24.999Z</time></trkpt><trkpt lat="43.26616201418564" lon="2.0416277176957895"><ele>139.0</ele><time>2026-03-22T15:52:25.999Z</time></trkpt><trkpt lat="43.266062056339905" lon="2.0417333880400768"><ele>139.0</ele><time>2026-03-22T15:52:26.999Z</time></trkpt><trkpt lat="43.26601412809228" lon="2.0418679578680936"><ele>139.0</ele><time>2026-03-22T15:52:27.999Z</time></trkpt><trkpt lat="43.26597112983834" lon="2.041988685260048"><ele>139.0</ele><time>2026-03-22T15:52:28.999Z</time></trkpt><trkpt lat="43.265933962508285" lon="2.0420930411635436"><ele>139.0</ele><time>2026-03-22T15:52:29.999Z</time></trkpt><trkpt lat="43.26590058358018" lon="2.042186610979922"><ele>139.0</ele><time>2026-03-22T15:52:30.999Z</time></trkpt><trkpt lat="43.26586974852037" lon="2.0422728600512263"><ele>139.0</ele><time>2026-03-22T15:52:31.999Z</time></trkpt><trkpt lat="43.265835916888925" lon="2.042367490906331"><ele>139.0</ele><time>2026-03-22T15:52:32.999Z</time></trkpt><trkpt lat="43.265799744219734" lon="2.0424686697423446"><ele>139.0</ele><time>2026-03-22T15:52:33.999Z</time></trkpt><trkpt lat="43.265758846663346" lon="2.042583064792716"><ele>138.66666666666669</ele><time>2026-03-22T15:52:35.999Z</time></trkpt><trkpt lat="43.26595695251382" lon="2.042736459993016"><ele>138.33333333333334</ele><time>2026-03-22T15:52:37.999Z</time></trkpt><trkpt lat="43.26605476886698" lon="2.042805677631966"><ele>138.0</ele><time>2026-03-22T15:52:38.999Z</time></trkpt><trkpt lat="43.266168668116975" lon="2.0428783898478438"><ele>138.0</ele><time>2026-03-22T15:52:39.999Z</time></trkpt><trkpt lat="43.26630858800622" lon="2.0429677133375086"><ele>138.0</ele><time>2026-03-22T15:52:40.999Z</time></trkpt><trkpt lat="43.26642133209512" lon="2.043039688283332"><ele>138.0</ele><time>2026-03-22T15:52:42Z</time></trkpt><trkpt lat="43.266558864435126" lon="2.0431127334666193"><ele>138.0</ele><time>2026-03-22T15:52:43Z</time></trkpt><trkpt lat="43.26672022334231" lon="2.0431839395932245"><ele>138.0</ele><time>2026-03-22T15:52:44Z</time></trkpt><trkpt lat="43.2668611837919" lon="2.0432604098325404"><ele>138.0</ele><time>2026-03-22T15:52:45Z</time></trkpt><trkpt lat="43.26700036589025" lon="2.04332724188158"><ele>138.0</ele><time>2026-03-22T15:52:46Z</time></trkpt><trkpt lat="43.26713037591116" lon="2.0433954407295762"><ele>138.0</ele><time>2026-03-22T15:52:47Z</time></trkpt><trkpt lat="43.267261315269984" lon="2.0434644603012835"><ele>138.25</ele><time>2026-03-22T15:52:48Z</time></trkpt><trkpt lat="43.26740429561764" lon="2.0435365954737366"><ele>138.5</ele><time>2026-03-22T15:52:49Z</time></trkpt><trkpt lat="43.26754500902784" lon="2.043611124209926"><ele>138.75</ele><time>2026-03-22T15:52:50Z</time></trkpt><trkpt lat="43.26766905297541" lon="2.04367912207146"><ele>139.0</ele><time>2026-03-22T15:52:51Z</time></trkpt><trkpt lat="43.26779616719078" lon="2.0437408234721235"><ele>139.0</ele><time>2026-03-22T15:52:52Z</time></trkpt><trkpt lat="43.267924051263485" lon="2.0438120355080347"><ele>139.0</ele><time>2026-03-22T15:52:53Z</time></trkpt><trkpt lat="43.26805749585481" lon="2.0438509731849464"><ele>139.0</ele><time>2026-03-22T15:52:54Z</time></trkpt><trkpt lat="43.268191604620625" lon="2.0438822123605647"><ele>139.0</ele><time>2026-03-22T15:52:55Z</time></trkpt><trkpt lat="43.26833822759263" lon="2.043913497074871"><ele>138.33333333333334</ele><time>2026-03-22T15:52:56Z</time></trkpt><trkpt lat="43.26849444829544" lon="2.0439425302751473"><ele>137.66666666666666</ele><time>2026-03-22T15:52:57Z</time></trkpt><trkpt lat="43.26865803900686" lon="2.0439777214792096"><ele>137.0</ele><time>2026-03-22T15:52:58Z</time></trkpt><trkpt lat="43.2688082011492" lon="2.0440155717649175"><ele>137.0</ele><time>2026-03-22T15:52:59Z</time></trkpt><trkpt lat="43.268941424673365" lon="2.0440399697320846"><ele>137.0</ele><time>2026-03-22T15:53:00Z</time></trkpt><trkpt lat="43.269072073835666" lon="2.0440674278183755"><ele>137.0</ele><time>2026-03-22T15:53:01Z</time></trkpt><trkpt lat="43.269209570652" lon="2.0440979258765"><ele>137.0</ele><time>2026-03-22T15:53:02Z</time></trkpt><trkpt lat="43.26935138962441" lon="2.0441296880934714"><ele>137.33333333333331</ele><time>2026-03-22T15:53:03Z</time></trkpt><trkpt lat="43.26949153285664" lon="2.0441822084808474"><ele>137.66666666666666</ele><time>2026-03-22T15:53:04Z</time></trkpt><trkpt lat="43.269639827918795" lon="2.044261387394153"><ele>138.0</ele><time>2026-03-22T15:53:05Z</time></trkpt><trkpt lat="43.26977834281036" lon="2.044362450193204"><ele>137.33333333333334</ele><time>2026-03-22T15:53:06Z</time></trkpt><trkpt lat="43.269929153052445" lon="2.044513549723786"><ele>136.66666666666669</ele><time>2026-03-22T15:53:07Z</time></trkpt><trkpt lat="43.27009688648525" lon="2.0446563793711667"><ele>136.0</ele><time>2026-03-22T15:53:08Z</time></trkpt><trkpt lat="43.27023925436525" lon="2.044775894290643"><ele>136.0</ele><time>2026-03-22T15:53:09Z</time></trkpt><trkpt lat="43.27037011438761" lon="2.0448833065230922"><ele>136.0</ele><time>2026-03-22T15:53:10Z</time></trkpt><trkpt lat="43.27050021673612" lon="2.0449976414374116"><ele>136.0</ele><time>2026-03-22T15:53:11Z</time></trkpt><trkpt lat="43.270641559983126" lon="2.0451132460033903"><ele>136.33333333333334</ele><time>2026-03-22T15:53:12Z</time></trkpt><trkpt lat="43.27079428434749" lon="2.0452323150893386"><ele>136.66666666666666</ele><time>2026-03-22T15:53:13Z</time></trkpt><trkpt lat="43.27095991043667" lon="2.0453477140345617"><ele>137.0</ele><time>2026-03-22T15:53:14Z</time></trkpt><trkpt lat="43.27113870055593" lon="2.0454353473299873"><ele>137.0</ele><time>2026-03-22T15:53:15Z</time></trkpt><trkpt lat="43.27132444414492" lon="2.045546077408501"><ele>137.0</ele><time>2026-03-22T15:53:16Z</time></trkpt><trkpt lat="43.27153968324777" lon="2.045670969579764"><ele>137.0</ele><time>2026-03-22T15:53:17Z</time></trkpt><trkpt lat="43.271743821872555" lon="2.045795008286802"><ele>137.0</ele><time>2026-03-22T15:53:18Z</time></trkpt><trkpt lat="43.271947171883596" lon="2.045913538805659"><ele>137.0</ele><time>2026-03-22T15:53:19Z</time></trkpt><trkpt lat="43.27214994014074" lon="2.0460303537767977"><ele>137.0</ele><time>2026-03-22T15:53:20Z</time></trkpt><trkpt lat="43.27233368244234" lon="2.046139004012468"><ele>136.66666666666666</ele><time>2026-03-22T15:53:21Z</time></trkpt><trkpt lat="43.272503086617384" lon="2.0462588165871534"><ele>136.33333333333334</ele><time>2026-03-22T15:53:22Z</time></trkpt><trkpt lat="43.27267665666096" lon="2.0463358790874584"><ele>136.0</ele><time>2026-03-22T15:53:23Z</time></trkpt><trkpt lat="43.27284096995468" lon="2.046456276702762"><ele>136.0</ele><time>2026-03-22T15:53:24Z</time></trkpt><trkpt lat="43.27302697914148" lon="2.0465410305173686"><ele>136.0</ele><time>2026-03-22T15:53:25Z</time></trkpt><trkpt lat="43.273211660573125" lon="2.046653565815494"><ele>136.0</ele><time>2026-03-22T15:53:26Z</time></trkpt><trkpt lat="43.27339717956456" lon="2.046785365551894"><ele>136.0</ele><time>2026-03-22T15:53:27Z</time></trkpt><trkpt lat="43.27360577399075" lon="2.046907686710379"><ele>136.0</ele><time>2026-03-22T15:53:28Z</time></trkpt><trkpt lat="43.273818967842615" lon="2.0470098426812005"><ele>135.5</ele><time>2026-03-22T15:53:29Z</time></trkpt><trkpt lat="43.274028651891555" lon="2.047132163446419"><ele>135.0</ele><time>2026-03-22T15:53:30Z</time></trkpt><trkpt lat="43.27423514022371" lon="2.0472537341491805"><ele>135.0</ele><time>2026-03-22T15:53:31Z</time></trkpt><trkpt lat="43.27443838416522" lon="2.047374324305509"><ele>135.0</ele><time>2026-03-22T15:53:32Z</time></trkpt><trkpt lat="43.27462972027806" lon="2.0474824498753184"><ele>135.0</ele><time>2026-03-22T15:53:33Z</time></trkpt><trkpt lat="43.27482981086487" lon="2.047598437566699"><ele>134.66666666666666</ele><time>2026-03-22T15:53:34Z</time></trkpt><trkpt lat="43.27501188709824" lon="2.0477099952129136"><ele>134.33333333333331</ele><time>2026-03-22T15:53:35Z</time></trkpt><trkpt lat="43.27518827505332" lon="2.047816133896162"><ele>134.0</ele><time>2026-03-22T15:53:36Z</time></trkpt><trkpt lat="43.275359389105375" lon="2.0479184667487695"><ele>134.0</ele><time>2026-03-22T15:53:37Z</time></trkpt><trkpt lat="43.27553101156969" lon="2.0480208839217826"><ele>134.0</ele><time>2026-03-22T15:53:38Z</time></trkpt><trkpt lat="43.275706767189064" lon="2.04812354092495"><ele>134.0</ele><time>2026-03-22T15:53:39Z</time></trkpt><trkpt lat="43.27588957027781" lon="2.048227892262068"><ele>134.0</ele><time>2026-03-22T15:53:40Z</time></trkpt><trkpt lat="43.27607801718304" lon="2.048326788898292"><ele>134.0</ele><time>2026-03-22T15:53:41Z</time></trkpt><trkpt lat="43.27626982313938" lon="2.0484207763589586"><ele>134.0</ele><time>2026-03-22T15:53:42Z</time></trkpt><trkpt lat="43.27647655474645" lon="2.0485064556277597"><ele>134.0</ele><time>2026-03-22T15:53:43Z</time></trkpt><trkpt lat="43.2766978508458" lon="2.048597231716468"><ele>134.0</ele><time>2026-03-22T15:53:44Z</time></trkpt><trkpt lat="43.27691178499724" lon="2.048691349349219"><ele>134.0</ele><time>2026-03-22T15:53:45Z</time></trkpt><trkpt lat="43.27712499760514" lon="2.0487903105859884"><ele>134.0</ele><time>2026-03-22T15:53:46Z</time></trkpt><trkpt lat="43.27733841786201" lon="2.0488809011351106"><ele>134.0</ele><time>2026-03-22T15:53:47Z</time></trkpt><trkpt lat="43.27754999279244" lon="2.0489683111881827"><ele>133.66666666666666</ele><time>2026-03-22T15:53:48Z</time></trkpt><trkpt lat="43.27775320776304" lon="2.0490577324722397"><ele>133.33333333333334</ele><time>2026-03-22T15:53:49Z</time></trkpt><trkpt lat="43.277942108458" lon="2.0491383294700714"><ele>133.0</ele><time>2026-03-22T15:53:50Z</time></trkpt><trkpt lat="43.27811711422906" lon="2.0492111624322575"><ele>133.0</ele><time>2026-03-22T15:53:51Z</time></trkpt><trkpt lat="43.2782883449862" lon="2.0492787577056673"><ele>133.0</ele><time>2026-03-22T15:53:52Z</time></trkpt><trkpt lat="43.27846090932747" lon="2.0493517436138045"><ele>133.0</ele><time>2026-03-22T15:53:53Z</time></trkpt><trkpt lat="43.27862731754632" lon="2.0494222308214582"><ele>133.0</ele><time>2026-03-22T15:53:54Z</time></trkpt><trkpt lat="43.27878780056271" lon="2.0494900286386577"><ele>133.0</ele><time>2026-03-22T15:53:55Z</time></trkpt><trkpt lat="43.27892572382261" lon="2.0495500653172045"><ele>133.0</ele><time>2026-03-22T15:53:56Z</time></trkpt><trkpt lat="43.27904586973698" lon="2.049603444472307"><ele>133.0</ele><time>2026-03-22T15:53:57Z</time></trkpt><trkpt lat="43.279172779941476" lon="2.0496487174393105"><ele>133.0</ele><time>2026-03-22T15:53:58Z</time></trkpt><trkpt lat="43.27930938086472" lon="2.0497089724582573"><ele>133.0</ele><time>2026-03-22T15:53:59Z</time></trkpt><trkpt lat="43.27942621301457" lon="2.049763732725"><ele>133.0</ele><time>2026-03-22T15:54:00Z</time></trkpt><trkpt lat="43.27955205420977" lon="2.049815434245966"><ele>133.0</ele><time>2026-03-22T15:54:01Z</time></trkpt><trkpt lat="43.27967680127044" lon="2.0498645468570724"><ele>133.20000000000002</ele><time>2026-03-22T15:54:02Z</time></trkpt><trkpt lat="43.27976885468124" lon="2.049924682817272"><ele>133.4</ele><time>2026-03-22T15:54:03Z</time></trkpt><trkpt lat="43.27985523639073" lon="2.049948932471902"><ele>133.60000000000002</ele><time>2026-03-22T15:54:03.999Z</time></trkpt><trkpt lat="43.27993443619209" lon="2.0499750560214363"><ele>133.8</ele><time>2026-03-22T15:54:04.999Z</time></trkpt><trkpt lat="43.28000056892821" lon="2.0500143516742666"><ele>134.0</ele><time>2026-03-22T15:54:05.999Z</time></trkpt><trkpt lat="43.28011743436288" lon="2.0500645833342928"><ele>134.0</ele><time>2026-03-22T15:54:07.999Z</time></trkpt><trkpt lat="43.28021099089524" lon="2.050129692946347"><ele>134.0</ele><time>2026-03-22T15:54:09.999Z</time></trkpt><trkpt lat="43.280315777175005" lon="2.050180652535356"><ele>134.0</ele><time>2026-03-22T15:54:11.999Z</time></trkpt><trkpt lat="43.28038203995674" lon="2.0501927232639896"><ele>134.0</ele><time>2026-03-22T15:54:12.999Z</time></trkpt><trkpt lat="43.280447365475716" lon="2.0501631837591217"><ele>134.0</ele><time>2026-03-22T15:54:13.999Z</time></trkpt><trkpt lat="43.28050330108913" lon="2.050103316041883"><ele>134.0</ele><time>2026-03-22T15:54:14.999Z</time></trkpt><trkpt lat="43.280534112160545" lon="2.0500258257921464"><ele>134.2</ele><time>2026-03-22T15:54:15.999Z</time></trkpt><trkpt lat="43.28054926758366" lon="2.049930990560401"><ele>134.4</ele><time>2026-03-22T15:54:16.999Z</time></trkpt><trkpt lat="43.28054467339768" lon="2.0498048645098486"><ele>134.6</ele><time>2026-03-22T15:54:17.999Z</time></trkpt><trkpt lat="43.28053690528044" lon="2.0496347161232125"><ele>134.8</ele><time>2026-03-22T15:54:18.999Z</time></trkpt><trkpt lat="43.280562069938355" lon="2.0494466174285226"><ele>135.0</ele><time>2026-03-22T15:54:19.999Z</time></trkpt><trkpt lat="43.28059985610999" lon="2.049269785018123"><ele>135.4</ele><time>2026-03-22T15:54:20.999Z</time></trkpt><trkpt lat="43.280639910608436" lon="2.0491035262213826"><ele>135.8</ele><time>2026-03-22T15:54:21.999Z</time></trkpt><trkpt lat="43.280688932061345" lon="2.048957111209498"><ele>136.2</ele><time>2026-03-22T15:54:22.999Z</time></trkpt><trkpt lat="43.28072720911036" lon="2.048841042859932"><ele>136.6</ele><time>2026-03-22T15:54:23.999Z</time></trkpt><trkpt lat="43.28076245746237" lon="2.048738101403809"><ele>137.0</ele><time>2026-03-22T15:54:24.999Z</time></trkpt><trkpt lat="43.28080293384437" lon="2.0486051872849957"><ele>137.0</ele><time>2026-03-22T15:54:25.999Z</time></trkpt><trkpt lat="43.280857368407354" lon="2.0484645183910453"><ele>137.0</ele><time>2026-03-22T15:54:26.999Z</time></trkpt><trkpt lat="43.280910960155616" lon="2.0483392015225834"><ele>137.0</ele><time>2026-03-22T15:54:27.999Z</time></trkpt><trkpt lat="43.28096689989455" lon="2.048203985106565"><ele>137.0</ele><time>2026-03-22T15:54:28.999Z</time></trkpt><trkpt lat="43.28102699511516" lon="2.0480522928642952"><ele>137.0</ele><time>2026-03-22T15:54:29.999Z</time></trkpt><trkpt lat="43.281096987327075" lon="2.047865902679858"><ele>137.0</ele><time>2026-03-22T15:54:30.999Z</time></trkpt><trkpt lat="43.2811709244143" lon="2.0476687004956133"><ele>137.0</ele><time>2026-03-22T15:54:31.999Z</time></trkpt><trkpt lat="43.28123588758169" lon="2.047476555500703"><ele>135.66666666666666</ele><time>2026-03-22T15:54:32.999Z</time></trkpt><trkpt lat="43.28130145275135" lon="2.0472789072814743"><ele>134.33333333333334</ele><time>2026-03-22T15:54:33.999Z</time></trkpt><trkpt lat="43.28137042815321" lon="2.047076229462247"><ele>133.0</ele><time>2026-03-22T15:54:34.999Z</time></trkpt><trkpt lat="43.28144296223945" lon="2.0468529567928546"><ele>133.33333333333334</ele><time>2026-03-22T15:54:35.999Z</time></trkpt><trkpt lat="43.28152923778342" lon="2.0466032985373626"><ele>133.66666666666666</ele><time>2026-03-22T15:54:36.999Z</time></trkpt><trkpt lat="43.281605530004974" lon="2.046373037410119"><ele>134.0</ele><time>2026-03-22T15:54:37.999Z</time></trkpt><trkpt lat="43.281672481172244" lon="2.0461735337746245"><ele>134.0</ele><time>2026-03-22T15:54:38.999Z</time></trkpt><trkpt lat="43.28173710857999" lon="2.045989003890722"><ele>134.0</ele><time>2026-03-22T15:54:39.999Z</time></trkpt><trkpt lat="43.28179847073742" lon="2.045817957410531"><ele>134.0</ele><time>2026-03-22T15:54:40.999Z</time></trkpt><trkpt lat="43.28185938391552" lon="2.0456408191597455"><ele>134.0</ele><time>2026-03-22T15:54:41.999Z</time></trkpt><trkpt lat="43.281921839617524" lon="2.0454393859983355"><ele>134.0</ele><time>2026-03-22T15:54:42.999Z</time></trkpt><trkpt lat="43.28198920822007" lon="2.045233331206217"><ele>134.0</ele><time>2026-03-22T15:54:43.999Z</time></trkpt><trkpt lat="43.28205976373782" lon="2.045027615705467"><ele>134.0</ele><time>2026-03-22T15:54:44.999Z</time></trkpt><trkpt lat="43.28213403616762" lon="2.0448129697599904"><ele>134.0</ele><time>2026-03-22T15:54:45.999Z</time></trkpt><trkpt lat="43.282205873295936" lon="2.044598028161103"><ele>134.0</ele><time>2026-03-22T15:54:46.999Z</time></trkpt><trkpt lat="43.282274152422495" lon="2.0443869973288167"><ele>134.0</ele><time>2026-03-22T15:54:48Z</time></trkpt><trkpt lat="43.28234231143114" lon="2.0441837170751045"><ele>134.0</ele><time>2026-03-22T15:54:49Z</time></trkpt><trkpt lat="43.282405440907034" lon="2.0439984777804"><ele>134.0</ele><time>2026-03-22T15:54:50Z</time></trkpt><trkpt lat="43.28246497513169" lon="2.043823390837382"><ele>134.0</ele><time>2026-03-22T15:54:51Z</time></trkpt><trkpt lat="43.28251977247533" lon="2.0436623478966283"><ele>134.0</ele><time>2026-03-22T15:54:52Z</time></trkpt><trkpt lat="43.28257051301419" lon="2.043501188434473"><ele>134.0</ele><time>2026-03-22T15:54:53Z</time></trkpt><trkpt lat="43.28261711960537" lon="2.0433612794301697"><ele>134.0</ele><time>2026-03-22T15:54:54Z</time></trkpt><trkpt lat="43.28266133926022" lon="2.043236558963861"><ele>134.0</ele><time>2026-03-22T15:54:55Z</time></trkpt><trkpt lat="43.28271380946888" lon="2.0431088535951996"><ele>134.0</ele><time>2026-03-22T15:54:56Z</time></trkpt><trkpt lat="43.28277855864105" lon="2.043029059160427"><ele>134.0</ele><time>2026-03-22T15:54:57Z</time></trkpt><trkpt lat="43.28285816609905" lon="2.0429739610068967"><ele>134.2</ele><time>2026-03-22T15:54:58Z</time></trkpt><trkpt lat="43.282938880323584" lon="2.0429456765983427"><ele>134.4</ele><time>2026-03-22T15:54:59Z</time></trkpt><trkpt lat="43.283035746536385" lon="2.042965022974869"><ele>134.6</ele><time>2026-03-22T15:55:00Z</time></trkpt><trkpt lat="43.28313989497906" lon="2.0430153259806745"><ele>134.8</ele><time>2026-03-22T15:55:01Z</time></trkpt><trkpt lat="43.28325662144099" lon="2.043146582249415"><ele>135.0</ele><time>2026-03-22T15:55:02Z</time></trkpt><trkpt lat="43.28341801804962" lon="2.043276640385885"><ele>135.0</ele><time>2026-03-22T15:55:03Z</time></trkpt><trkpt lat="43.2835921647389" lon="2.0434145857794253"><ele>135.0</ele><time>2026-03-22T15:55:04Z</time></trkpt><trkpt lat="43.28374483610736" lon="2.043541047192167"><ele>135.0</ele><time>2026-03-22T15:55:05Z</time></trkpt><trkpt lat="43.283877042611394" lon="2.0436554570004057"><ele>134.66666666666666</ele><time>2026-03-22T15:55:06Z</time></trkpt><trkpt lat="43.284044315766415" lon="2.0438033813420162"><ele>134.33333333333331</ele><time>2026-03-22T15:55:07Z</time></trkpt><trkpt lat="43.28421555694534" lon="2.0439605085206427"><ele>134.0</ele><time>2026-03-22T15:55:08Z</time></trkpt><trkpt lat="43.28436395470487" lon="2.0440967235253273"><ele>134.0</ele><time>2026-03-22T15:55:09Z</time></trkpt><trkpt lat="43.28450153863385" lon="2.0442195052684635"><ele>134.0</ele><time>2026-03-22T15:55:10Z</time></trkpt><trkpt lat="43.284652326526405" lon="2.0443099891098147"><ele>134.0</ele><time>2026-03-22T15:55:11Z</time></trkpt><trkpt lat="43.2848187436503" lon="2.044409020362133"><ele>134.66666666666666</ele><time>2026-03-22T15:55:12Z</time></trkpt><trkpt lat="43.28500715735283" lon="2.0445254458717574"><ele>135.33333333333334</ele><time>2026-03-22T15:55:13Z</time></trkpt><trkpt lat="43.28519093081267" lon="2.0446282996802334"><ele>136.0</ele><time>2026-03-22T15:55:14Z</time></trkpt><trkpt lat="43.285348343851055" lon="2.0446923672406516"><ele>136.0</ele><time>2026-03-22T15:55:15Z</time></trkpt><trkpt lat="43.285502419948855" lon="2.0447760031059623"><ele>136.0</ele><time>2026-03-22T15:55:16Z</time></trkpt><trkpt lat="43.28565876007631" lon="2.044844117821862"><ele>136.0</ele><time>2026-03-22T15:55:17Z</time></trkpt><trkpt lat="43.285806249158156" lon="2.044897247164474"><ele>137.25</ele><time>2026-03-22T15:55:18Z</time></trkpt><trkpt lat="43.28594341867021" lon="2.0449302359116364"><ele>138.5</ele><time>2026-03-22T15:55:19Z</time></trkpt><trkpt lat="43.286077537722036" lon="2.0449430345554718"><ele>139.75</ele><time>2026-03-22T15:55:20Z</time></trkpt><trkpt lat="43.28621350731953" lon="2.0449590583130774"><ele>141.0</ele><time>2026-03-22T15:55:21Z</time></trkpt><trkpt lat="43.286358059703" lon="2.0449837917555858"><ele>143.0</ele><time>2026-03-22T15:55:22Z</time></trkpt><trkpt lat="43.28650200552685" lon="2.045006510638337"><ele>145.0</ele><time>2026-03-22T15:55:23Z</time></trkpt><trkpt lat="43.28664762837084" lon="2.0450397024553264"><ele>147.0</ele><time>2026-03-22T15:55:24Z</time></trkpt><trkpt lat="43.28680995954283" lon="2.045089066379685"><ele>147.0</ele><time>2026-03-22T15:55:25Z</time></trkpt><trkpt lat="43.286985999752616" lon="2.0451454712255073"><ele>147.0</ele><time>2026-03-22T15:55:26Z</time></trkpt><trkpt lat="43.28714249580571" lon="2.0451940422829797"><ele>147.0</ele><time>2026-03-22T15:55:27Z</time></trkpt><trkpt lat="43.28728615685692" lon="2.0452362030495093"><ele>148.5</ele><time>2026-03-22T15:55:28Z</time></trkpt><trkpt lat="43.28741742812718" lon="2.0452776475923313"><ele>150.0</ele><time>2026-03-22T15:55:29Z</time></trkpt><trkpt lat="43.287534809172584" lon="2.0453168551006877"><ele>151.5</ele><time>2026-03-22T15:55:30Z</time></trkpt><trkpt lat="43.28764706548276" lon="2.0453534354728484"><ele>153.0</ele><time>2026-03-22T15:55:31Z</time></trkpt><trkpt lat="43.287748375563595" lon="2.045378336487753"><ele>153.0</ele><time>2026-03-22T15:55:32Z</time></trkpt><trkpt lat="43.28784640591099" lon="2.0453975038023633"><ele>153.0</ele><time>2026-03-22T15:55:33Z</time></trkpt><trkpt lat="43.28795968103185" lon="2.045410382909635"><ele>153.0</ele><time>2026-03-22T15:55:34Z</time></trkpt><trkpt lat="43.288072589354464" lon="2.045427708285089"><ele>153.0</ele><time>2026-03-22T15:55:35Z</time></trkpt><trkpt lat="43.28819879281489" lon="2.045438972100405"><ele>152.5</ele><time>2026-03-22T15:55:36Z</time></trkpt><trkpt lat="43.288327989937834" lon="2.0454537383609446"><ele>152.0</ele><time>2026-03-22T15:55:37Z</time></trkpt><trkpt lat="43.288459106536315" lon="2.0454715591446915"><ele>151.5</ele><time>2026-03-22T15:55:38Z</time></trkpt><trkpt lat="43.288588958087644" lon="2.045501455695979"><ele>151.0</ele><time>2026-03-22T15:55:39Z</time></trkpt><trkpt lat="43.28870867602014" lon="2.045533882066903"><ele>151.0</ele><time>2026-03-22T15:55:40Z</time></trkpt><trkpt lat="43.28882080323255" lon="2.045563518909174"><ele>151.0</ele><time>2026-03-22T15:55:41Z</time></trkpt><trkpt lat="43.288931533510286" lon="2.0455917653973557"><ele>151.0</ele><time>2026-03-22T15:55:42Z</time></trkpt><trkpt lat="43.2890489438235" lon="2.045621359006006"><ele>151.0</ele><time>2026-03-22T15:55:43Z</time></trkpt><trkpt lat="43.28917250850721" lon="2.045641358898846"><ele>150.25</ele><time>2026-03-22T15:55:44Z</time></trkpt><trkpt lat="43.289304839092274" lon="2.045650621662088"><ele>149.5</ele><time>2026-03-22T15:55:45Z</time></trkpt><trkpt lat="43.28943258491535" lon="2.0456487068183757"><ele>148.75</ele><time>2026-03-22T15:55:46Z</time></trkpt><trkpt lat="43.28954260779277" lon="2.0456459891208385"><ele>148.0</ele><time>2026-03-22T15:55:47Z</time></trkpt><trkpt lat="43.289640144725844" lon="2.045642965098461"><ele>148.0</ele><time>2026-03-22T15:55:48Z</time></trkpt><trkpt lat="43.2897362035921" lon="2.0456422049854925"><ele>148.0</ele><time>2026-03-22T15:55:49Z</time></trkpt><trkpt lat="43.28983394630639" lon="2.045640959407368"><ele>148.0</ele><time>2026-03-22T15:55:50Z</time></trkpt><trkpt lat="43.2899365424356" lon="2.045629128854441"><ele>148.0</ele><time>2026-03-22T15:55:51Z</time></trkpt><trkpt lat="43.29002712388743" lon="2.0456210078701154"><ele>148.0</ele><time>2026-03-22T15:55:52Z</time></trkpt><trkpt lat="43.29010785992526" lon="2.045612946993732"><ele>147.33333333333334</ele><time>2026-03-22T15:55:53Z</time></trkpt><trkpt lat="43.290186483715594" lon="2.0456115814579716"><ele>146.66666666666669</ele><time>2026-03-22T15:55:55Z</time></trkpt><trkpt lat="43.29026103391229" lon="2.0455814826174388"><ele>146.0</ele><time>2026-03-22T15:55:58Z</time></trkpt><trkpt lat="43.29035695683268" lon="2.0456815597745557"><ele>145.33333333333334</ele><time>2026-03-22T15:56:00Z</time></trkpt><trkpt lat="43.29042321475886" lon="2.0457411998343127"><ele>144.66666666666666</ele><time>2026-03-22T15:56:01Z</time></trkpt><trkpt lat="43.290491293589625" lon="2.0457720691897223"><ele>144.0</ele><time>2026-03-22T15:56:02Z</time></trkpt><trkpt lat="43.29057645636089" lon="2.0457709104046473"><ele>143.75</ele><time>2026-03-22T15:56:03Z</time></trkpt><trkpt lat="43.29067761554476" lon="2.045747549865201"><ele>143.5</ele><time>2026-03-22T15:56:04Z</time></trkpt><trkpt lat="43.29074243095451" lon="2.0456615503334343"><ele>143.25</ele><time>2026-03-22T15:56:05Z</time></trkpt><trkpt lat="43.29088039182296" lon="2.045796671207912"><ele>143.0</ele><time>2026-03-22T15:56:06Z</time></trkpt><trkpt lat="43.291007924453716" lon="2.0458960598877707"><ele>143.0</ele><time>2026-03-22T15:56:07Z</time></trkpt><trkpt lat="43.29113552160853" lon="2.045989170936461"><ele>143.0</ele><time>2026-03-22T15:56:08Z</time></trkpt><trkpt lat="43.29122705355883" lon="2.0460435801345747"><ele>143.0</ele><time>2026-03-22T15:56:09Z</time></trkpt><trkpt lat="43.29133391772047" lon="2.0460931893852097"><ele>143.0</ele><time>2026-03-22T15:56:10Z</time></trkpt><trkpt lat="43.29146101277821" lon="2.046151816254102"><ele>143.5</ele><time>2026-03-22T15:56:11Z</time></trkpt><trkpt lat="43.29159359998316" lon="2.0462103413218045"><ele>144.0</ele><time>2026-03-22T15:56:12Z</time></trkpt><trkpt lat="43.29172481690114" lon="2.0462605220996886"><ele>144.5</ele><time>2026-03-22T15:56:13Z</time></trkpt><trkpt lat="43.291852108314416" lon="2.046306264127665"><ele>145.0</ele><time>2026-03-22T15:56:14Z</time></trkpt><trkpt lat="43.29198680392107" lon="2.046349073495921"><ele>145.0</ele><time>2026-03-22T15:56:15Z</time></trkpt><trkpt lat="43.29212256258074" lon="2.0463915424617767"><ele>145.0</ele><time>2026-03-22T15:56:16Z</time></trkpt><trkpt lat="43.29223910667885" lon="2.0464272574543125"><ele>145.0</ele><time>2026-03-22T15:56:17Z</time></trkpt><trkpt lat="43.29234112408117" lon="2.0464520466251854"><ele>145.0</ele><time>2026-03-22T15:56:18Z</time></trkpt><trkpt lat="43.292434723632205" lon="2.0464748128485053"><ele>146.0</ele><time>2026-03-22T15:56:19Z</time></trkpt><trkpt lat="43.29254241400629" lon="2.0465059730492516"><ele>147.0</ele><time>2026-03-22T15:56:20Z</time></trkpt><trkpt lat="43.292654889711955" lon="2.04653788952809"><ele>148.0</ele><time>2026-03-22T15:56:21Z</time></trkpt><trkpt lat="43.29277225576491" lon="2.046566430434984"><ele>149.0</ele><time>2026-03-22T15:56:21.999Z</time></trkpt><trkpt lat="43.29288581281803" lon="2.0465910790607813"><ele>149.0</ele><time>2026-03-22T15:56:22.999Z</time></trkpt><trkpt lat="43.29298508426395" lon="2.0466054109860896"><ele>149.0</ele><time>2026-03-22T15:56:23.999Z</time></trkpt><trkpt lat="43.2930706340232" lon="2.046601747249401"><ele>149.0</ele><time>2026-03-22T15:56:24.999Z</time></trkpt><trkpt lat="43.293167439861605" lon="2.0465807084449334"><ele>149.0</ele><time>2026-03-22T15:56:25.999Z</time></trkpt><trkpt lat="43.2932879046689" lon="2.0465571001359524"><ele>149.0</ele><time>2026-03-22T15:56:26.999Z</time></trkpt><trkpt lat="43.29341800550319" lon="2.04653597004265"><ele>150.25</ele><time>2026-03-22T15:56:27.999Z</time></trkpt><trkpt lat="43.29354680318934" lon="2.0465131552760134"><ele>151.5</ele><time>2026-03-22T15:56:28.999Z</time></trkpt><trkpt lat="43.29367284754206" lon="2.0464949737375253"><ele>152.75</ele><time>2026-03-22T15:56:29.999Z</time></trkpt><trkpt lat="43.293798838237706" lon="2.0464862203601033"><ele>154.0</ele><time>2026-03-22T15:56:30.999Z</time></trkpt><trkpt lat="43.29390532310713" lon="2.0464782740397345"><ele>155.4</ele><time>2026-03-22T15:56:31.999Z</time></trkpt><trkpt lat="43.293979930286575" lon="2.046481414246758"><ele>156.8</ele><time>2026-03-22T15:56:32.999Z</time></trkpt><trkpt lat="43.294086019661705" lon="2.046512841731156"><ele>158.20000000000002</ele><time>2026-03-22T15:56:34.999Z</time></trkpt><trkpt lat="43.29422247875529" lon="2.0464928329159195"><ele>159.60000000000002</ele><time>2026-03-22T15:56:36.999Z</time></trkpt><trkpt lat="43.29431177499808" lon="2.046445807756556"><ele>161.0</ele><time>2026-03-22T15:56:37.999Z</time></trkpt><trkpt lat="43.29441203879738" lon="2.0463823850832226"><ele>161.0</ele><time>2026-03-22T15:56:38.999Z</time></trkpt><trkpt lat="43.29450080957218" lon="2.0463310718924927"><ele>161.0</ele><time>2026-03-22T15:56:39.999Z</time></trkpt><trkpt lat="43.294587566825946" lon="2.0462729693592374"><ele>161.0</ele><time>2026-03-22T15:56:40.999Z</time></trkpt><trkpt lat="43.294682760470906" lon="2.046216987703166"><ele>161.0</ele><time>2026-03-22T15:56:41.999Z</time></trkpt><trkpt lat="43.29476880569809" lon="2.046166641834762"><ele>161.0</ele><time>2026-03-22T15:56:42.999Z</time></trkpt><trkpt lat="43.294837804516" lon="2.0461258723286337"><ele>159.8</ele><time>2026-03-22T15:56:43.999Z</time></trkpt><trkpt lat="43.29490877012751" lon="2.0460993385883874"><ele>158.60000000000002</ele><time>2026-03-22T15:56:44.999Z</time></trkpt><trkpt lat="43.29498657564575" lon="2.0460875278745085"><ele>157.4</ele><time>2026-03-22T15:56:45.999Z</time></trkpt><trkpt lat="43.29507279951578" lon="2.0461434594843237"><ele>156.2</ele><time>2026-03-22T15:56:46.999Z</time></trkpt><trkpt lat="43.29516196412783" lon="2.046220502370962"><ele>155.0</ele><time>2026-03-22T15:56:47.999Z</time></trkpt><trkpt lat="43.29527162179775" lon="2.0463073191562846"><ele>155.0</ele><time>2026-03-22T15:56:48.999Z</time></trkpt><trkpt lat="43.29540549263458" lon="2.0464111382800416"><ele>155.0</ele><time>2026-03-22T15:56:49.999Z</time></trkpt><trkpt lat="43.2955235348864" lon="2.046478983398515"><ele>155.0</ele><time>2026-03-22T15:56:50.999Z</time></trkpt><trkpt lat="43.29563549321905" lon="2.046572147440118"><ele>155.0</ele><time>2026-03-22T15:56:51.999Z</time></trkpt><trkpt lat="43.29574567743306" lon="2.046651388429161"><ele>153.0</ele><time>2026-03-22T15:56:52.999Z</time></trkpt><trkpt lat="43.2958526420421" lon="2.046732975603643"><ele>151.0</ele><time>2026-03-22T15:56:54Z</time></trkpt><trkpt lat="43.295956868047064" lon="2.0468415544354355"><ele>149.0</ele><time>2026-03-22T15:56:55Z</time></trkpt><trkpt lat="43.296078163668525" lon="2.0469091612080863"><ele>147.0</ele><time>2026-03-22T15:56:56Z</time></trkpt><trkpt lat="43.296175246522736" lon="2.0470078303485875"><ele>147.0</ele><time>2026-03-22T15:56:57Z</time></trkpt><trkpt lat="43.29629466313908" lon="2.0470769182366997"><ele>147.0</ele><time>2026-03-22T15:56:58Z</time></trkpt><trkpt lat="43.296407204213146" lon="2.047164465232336"><ele>147.0</ele><time>2026-03-22T15:56:59Z</time></trkpt><trkpt lat="43.296515470431125" lon="2.0472534875651216"><ele>147.0</ele><time>2026-03-22T15:57:00Z</time></trkpt><trkpt lat="43.296616924156595" lon="2.047330568882102"><ele>145.6</ele><time>2026-03-22T15:57:01Z</time></trkpt><trkpt lat="43.2967108579383" lon="2.0474181949663968"><ele>144.2</ele><time>2026-03-22T15:57:02Z</time></trkpt><trkpt lat="43.29680205495914" lon="2.047429355152852"><ele>142.8</ele><time>2026-03-22T15:57:03Z</time></trkpt><trkpt lat="43.29688336738335" lon="2.0474416145356034"><ele>141.4</ele><time>2026-03-22T15:57:04Z</time></trkpt><trkpt lat="43.29697408364505" lon="2.047436554185286"><ele>140.0</ele><time>2026-03-22T15:57:05Z</time></trkpt><trkpt lat="43.29708219935855" lon="2.04744060820588"><ele>139.66666666666666</ele><time>2026-03-22T15:57:06Z</time></trkpt><trkpt lat="43.29722013338578" lon="2.0475097165581335"><ele>139.33333333333334</ele><time>2026-03-22T15:57:07Z</time></trkpt><trkpt lat="43.29739012407046" lon="2.047601405391875"><ele>139.0</ele><time>2026-03-22T15:57:08Z</time></trkpt><trkpt lat="43.2975687020198" lon="2.0476995486204475"><ele>138.66666666666669</ele><time>2026-03-22T15:57:09Z</time></trkpt><trkpt lat="43.29774785536604" lon="2.047798008078357"><ele>138.33333333333334</ele><time>2026-03-22T15:57:10Z</time></trkpt><trkpt lat="43.29794125020527" lon="2.0478843588713813"><ele>138.0</ele><time>2026-03-22T15:57:11Z</time></trkpt><trkpt lat="43.29811341447081" lon="2.0479882567234986"><ele>138.0</ele><time>2026-03-22T15:57:12Z</time></trkpt><trkpt lat="43.298270097904755" lon="2.0480731376638794"><ele>138.0</ele><time>2026-03-22T15:57:13Z</time></trkpt><trkpt lat="43.29841094215544" lon="2.0481538431152413"><ele>138.0</ele><time>2026-03-22T15:57:14Z</time></trkpt><trkpt lat="43.29854549582176" lon="2.0482320873256876"><ele>138.25</ele><time>2026-03-22T15:57:15Z</time></trkpt><trkpt lat="43.29868117862066" lon="2.048314870611691"><ele>138.5</ele><time>2026-03-22T15:57:16Z</time></trkpt><trkpt lat="43.29881276833319" lon="2.0483836663155004"><ele>138.75</ele><time>2026-03-22T15:57:17Z</time></trkpt><trkpt lat="43.298934752636654" lon="2.0484413091305966"><ele>139.0</ele><time>2026-03-22T15:57:18Z</time></trkpt><trkpt lat="43.29906400194163" lon="2.0485005544741326"><ele>139.0</ele><time>2026-03-22T15:57:19Z</time></trkpt><trkpt lat="43.29921678195679" lon="2.0485479919351186"><ele>139.0</ele><time>2026-03-22T15:57:20Z</time></trkpt><trkpt lat="43.299400491316725" lon="2.04859112070222"><ele>139.0</ele><time>2026-03-22T15:57:21Z</time></trkpt><trkpt lat="43.29957995014292" lon="2.0486319850907764"><ele>139.0</ele><time>2026-03-22T15:57:22Z</time></trkpt><trkpt lat="43.2997649703162" lon="2.048676097445374"><ele>139.0</ele><time>2026-03-22T15:57:23Z</time></trkpt><trkpt lat="43.29995510652128" lon="2.048718921722075"><ele>139.0</ele><time>2026-03-22T15:57:24Z</time></trkpt><trkpt lat="43.30013650665546" lon="2.048768065548887"><ele>139.0</ele><time>2026-03-22T15:57:25Z</time></trkpt><trkpt lat="43.3003218802374" lon="2.048843166670962"><ele>139.0</ele><time>2026-03-22T15:57:26Z</time></trkpt><trkpt lat="43.30051343959084" lon="2.0489460723818165"><ele>139.0</ele><time>2026-03-22T15:57:27Z</time></trkpt><trkpt lat="43.30069163223208" lon="2.049087789049061"><ele>141.5</ele><time>2026-03-22T15:57:28Z</time></trkpt><trkpt lat="43.30090146556378" lon="2.049222155095649"><ele>144.0</ele><time>2026-03-22T15:57:29Z</time></trkpt><trkpt lat="43.30111822492547" lon="2.049397831500297"><ele>144.0</ele><time>2026-03-22T15:57:30Z</time></trkpt><trkpt lat="43.301348426958995" lon="2.049578266502759"><ele>144.0</ele><time>2026-03-22T15:57:31Z</time></trkpt><trkpt lat="43.301589569405515" lon="2.0497659128949755"><ele>147.0</ele><time>2026-03-22T15:57:32Z</time></trkpt><trkpt lat="43.301797389122214" lon="2.0499424071685586"><ele>150.0</ele><time>2026-03-22T15:57:33Z</time></trkpt><trkpt lat="43.301998399435924" lon="2.0500896574638943"><ele>151.66666666666666</ele><time>2026-03-22T15:57:34Z</time></trkpt><trkpt lat="43.30220269479371" lon="2.0502473377278574"><ele>153.33333333333331</ele><time>2026-03-22T15:57:35Z</time></trkpt><trkpt lat="43.30238788943983" lon="2.050390608586816"><ele>155.0</ele><time>2026-03-22T15:57:36Z</time></trkpt><trkpt lat="43.30255303946778" lon="2.050521209391119"><ele>156.33333333333331</ele><time>2026-03-22T15:57:37Z</time></trkpt><trkpt lat="43.302698375153014" lon="2.0506351207173084"><ele>157.66666666666666</ele><time>2026-03-22T15:57:38Z</time></trkpt><trkpt lat="43.302833499499464" lon="2.050732180009629"><ele>159.0</ele><time>2026-03-22T15:57:39Z</time></trkpt><trkpt lat="43.302977735209154" lon="2.050822066406587"><ele>160.0</ele><time>2026-03-22T15:57:40Z</time></trkpt><trkpt lat="43.30313719065876" lon="2.0509015213454003"><ele>161.0</ele><time>2026-03-22T15:57:41Z</time></trkpt><trkpt lat="43.303325111221746" lon="2.0509737425282766"><ele>162.0</ele><time>2026-03-22T15:57:42Z</time></trkpt><trkpt lat="43.303508201241826" lon="2.051033559708622"><ele>162.0</ele><time>2026-03-22T15:57:43Z</time></trkpt><trkpt lat="43.30368040052292" lon="2.051074058554179"><ele>162.0</ele><time>2026-03-22T15:57:44Z</time></trkpt><trkpt lat="43.30387023530422" lon="2.0510901167246343"><ele>162.0</ele><time>2026-03-22T15:57:45Z</time></trkpt><trkpt lat="43.304072789315875" lon="2.051092568981859"><ele>162.5</ele><time>2026-03-22T15:57:46Z</time></trkpt><trkpt lat="43.3042920304451" lon="2.0510663101703095"><ele>163.0</ele><time>2026-03-22T15:57:47Z</time></trkpt><trkpt lat="43.30452180764017" lon="2.0510302942019973"><ele>162.5</ele><time>2026-03-22T15:57:48Z</time></trkpt><trkpt lat="43.30476164135989" lon="2.05098218672304"><ele>162.0</ele><time>2026-03-22T15:57:49Z</time></trkpt><trkpt lat="43.305006616853284" lon="2.050930704296528"><ele>162.0</ele><time>2026-03-22T15:57:50Z</time></trkpt><trkpt lat="43.30523908157631" lon="2.0508855086919864"><ele>162.0</ele><time>2026-03-22T15:57:51Z</time></trkpt><trkpt lat="43.305452109778855" lon="2.0508434576038868"><ele>162.33333333333334</ele><time>2026-03-22T15:57:52Z</time></trkpt><trkpt lat="43.305646258655564" lon="2.050802862685527"><ele>162.66666666666669</ele><time>2026-03-22T15:57:53Z</time></trkpt><trkpt lat="43.305845071801755" lon="2.0507614141478094"><ele>163.0</ele><time>2026-03-22T15:57:54Z</time></trkpt><trkpt lat="43.30604163016984" lon="2.0507213789272174"><ele>163.0</ele><time>2026-03-22T15:57:55Z</time></trkpt><trkpt lat="43.30622279324851" lon="2.050660315008428"><ele>163.0</ele><time>2026-03-22T15:57:56Z</time></trkpt><trkpt lat="43.30640382545819" lon="2.0505767587847066"><ele>163.0</ele><time>2026-03-22T15:57:57Z</time></trkpt><trkpt lat="43.30658688849851" lon="2.050476285721242"><ele>163.5</ele><time>2026-03-22T15:57:58Z</time></trkpt><trkpt lat="43.306785994395476" lon="2.0503387589539597"><ele>164.0</ele><time>2026-03-22T15:57:59Z</time></trkpt><trkpt lat="43.30700585652337" lon="2.0501893935949336"><ele>164.0</ele><time>2026-03-22T15:58:00Z</time></trkpt><trkpt lat="43.30721482494948" lon="2.050044153604141"><ele>164.0</ele><time>2026-03-22T15:58:01Z</time></trkpt><trkpt lat="43.30740188041665" lon="2.049913089558398"><ele>164.0</ele><time>2026-03-22T15:58:02Z</time></trkpt><trkpt lat="43.307577615098715" lon="2.04979054572893"><ele>164.66666666666666</ele><time>2026-03-22T15:58:03Z</time></trkpt><trkpt lat="43.30774690014317" lon="2.0496753423901657"><ele>165.33333333333334</ele><time>2026-03-22T15:58:04Z</time></trkpt><trkpt lat="43.307932033642835" lon="2.0495470974045835"><ele>166.0</ele><time>2026-03-22T15:58:05Z</time></trkpt><trkpt lat="43.30811130113384" lon="2.049421840316784"><ele>166.0</ele><time>2026-03-22T15:58:06Z</time></trkpt><trkpt lat="43.308295258991805" lon="2.0493024912337225"><ele>166.0</ele><time>2026-03-22T15:58:07Z</time></trkpt><trkpt lat="43.30850606138988" lon="2.049161659918265"><ele>166.0</ele><time>2026-03-22T15:58:08Z</time></trkpt><trkpt lat="43.30871161474372" lon="2.0490265321810575"><ele>166.0</ele><time>2026-03-22T15:58:09Z</time></trkpt><trkpt lat="43.30889247449273" lon="2.048899563964023"><ele>166.0</ele><time>2026-03-22T15:58:10Z</time></trkpt><trkpt lat="43.30906195865701" lon="2.0487801306033075"><ele>166.0</ele><time>2026-03-22T15:58:11Z</time></trkpt><trkpt lat="43.309244774815525" lon="2.048636122941752"><ele>166.0</ele><time>2026-03-22T15:58:12Z</time></trkpt><trkpt lat="43.3094348741446" lon="2.048470523832591"><ele>166.0</ele><time>2026-03-22T15:58:13Z</time></trkpt><trkpt lat="43.30962958515127" lon="2.0482885027963276"><ele>166.0</ele><time>2026-03-22T15:58:14Z</time></trkpt><trkpt lat="43.309843450574036" lon="2.048088021565154"><ele>166.0</ele><time>2026-03-22T15:58:15Z</time></trkpt><trkpt lat="43.310057702891534" lon="2.0478877877057244"><ele>166.0</ele><time>2026-03-22T15:58:16Z</time></trkpt><trkpt lat="43.31025352288491" lon="2.04771285192856"><ele>166.0</ele><time>2026-03-22T15:58:17Z</time></trkpt><trkpt lat="43.31043631918887" lon="2.04754683256896"><ele>166.66666666666669</ele><time>2026-03-22T15:58:18Z</time></trkpt><trkpt lat="43.31060712049729" lon="2.0473866421219187"><ele>167.33333333333334</ele><time>2026-03-22T15:58:18.999Z</time></trkpt><trkpt lat="43.310787484379986" lon="2.047214442282784"><ele>168.0</ele><time>2026-03-22T15:58:19.999Z</time></trkpt><trkpt lat="43.31097930112261" lon="2.047025483460383"><ele>168.0</ele><time>2026-03-22T15:58:20.999Z</time></trkpt><trkpt lat="43.31116687022785" lon="2.046839092738879"><ele>168.0</ele><time>2026-03-22T15:58:21.999Z</time></trkpt><trkpt lat="43.31134352218483" lon="2.046675054072657"><ele>168.0</ele><time>2026-03-22T15:58:22.999Z</time></trkpt><trkpt lat="43.31152835568659" lon="2.046515769658681"><ele>167.0</ele><time>2026-03-22T15:58:23.999Z</time></trkpt><trkpt lat="43.31171884477395" lon="2.0463568627742528"><ele>166.0</ele><time>2026-03-22T15:58:24.999Z</time></trkpt><trkpt lat="43.31191696136879" lon="2.0462110213204316"><ele>165.0</ele><time>2026-03-22T15:58:25.999Z</time></trkpt><trkpt lat="43.31212467961646" lon="2.046092756732353"><ele>165.5</ele><time>2026-03-22T15:58:26.999Z</time></trkpt><trkpt lat="43.31235235269297" lon="2.045987417151444"><ele>166.0</ele><time>2026-03-22T15:58:27.999Z</time></trkpt><trkpt lat="43.312587599990245" lon="2.0458763098937744"><ele>165.0</ele><time>2026-03-22T15:58:28.999Z</time></trkpt><trkpt lat="43.31282546395618" lon="2.0457470388142585"><ele>164.0</ele><time>2026-03-22T15:58:29.999Z</time></trkpt><trkpt lat="43.31305233966126" lon="2.0456254816049873"><ele>166.0</ele><time>2026-03-22T15:58:30.999Z</time></trkpt><trkpt lat="43.31326224013668" lon="2.0455086957952244"><ele>168.0</ele><time>2026-03-22T15:58:31.999Z</time></trkpt><trkpt lat="43.31346635096535" lon="2.04537953101373"><ele>168.0</ele><time>2026-03-22T15:58:32.999Z</time></trkpt><trkpt lat="43.3136734309699" lon="2.0452602091901855"><ele>168.0</ele><time>2026-03-22T15:58:33.999Z</time></trkpt><trkpt lat="43.31386425856215" lon="2.045157970868756"><ele>168.0</ele><time>2026-03-22T15:58:34.999Z</time></trkpt><trkpt lat="43.314052538115014" lon="2.0450605835397346"><ele>168.33333333333334</ele><time>2026-03-22T15:58:35.999Z</time></trkpt><trkpt lat="43.31424213517273" lon="2.044970726486862"><ele>168.66666666666669</ele><time>2026-03-22T15:58:36.999Z</time></trkpt><trkpt lat="43.31442770738016" lon="2.044884739522615"><ele>169.0</ele><time>2026-03-22T15:58:37.999Z</time></trkpt><trkpt lat="43.31460886006046" lon="2.0447988185883785"><ele>169.66666666666669</ele><time>2026-03-22T15:58:38.999Z</time></trkpt><trkpt lat="43.31478405200114" lon="2.0447181855174894"><ele>170.33333333333334</ele><time>2026-03-22T15:58:39.999Z</time></trkpt><trkpt lat="43.314962046201025" lon="2.044644335912887"><ele>171.0</ele><time>2026-03-22T15:58:40.999Z</time></trkpt><trkpt lat="43.31515074767526" lon="2.0445896863125115"><ele>171.0</ele><time>2026-03-22T15:58:41.999Z</time></trkpt><trkpt lat="43.31535434782207" lon="2.0445509031334597"><ele>171.0</ele><time>2026-03-22T15:58:42.999Z</time></trkpt><trkpt lat="43.31556560421119" lon="2.044541628760507"><ele>171.0</ele><time>2026-03-22T15:58:43.999Z</time></trkpt><trkpt lat="43.315753476231365" lon="2.04454159578393"><ele>171.33333333333334</ele><time>2026-03-22T15:58:44.999Z</time></trkpt><trkpt lat="43.31593423936268" lon="2.0445430534432867"><ele>171.66666666666669</ele><time>2026-03-22T15:58:45.999Z</time></trkpt><trkpt lat="43.31611655549266" lon="2.0445436847319374"><ele>172.0</ele><time>2026-03-22T15:58:46.999Z</time></trkpt><trkpt lat="43.316305057494155" lon="2.044542404164175"><ele>172.66666666666669</ele><time>2026-03-22T15:58:47.999Z</time></trkpt><trkpt lat="43.31650022119366" lon="2.0445446345213543"><ele>173.33333333333334</ele><time>2026-03-22T15:58:48.999Z</time></trkpt><trkpt lat="43.31668829559417" lon="2.0445505144941873"><ele>174.0</ele><time>2026-03-22T15:58:49.999Z</time></trkpt><trkpt lat="43.31685286804758" lon="2.0445657885400528"><ele>174.0</ele><time>2026-03-22T15:58:50.999Z</time></trkpt><trkpt lat="43.3170163900666" lon="2.044585810600695"><ele>174.0</ele><time>2026-03-22T15:58:51.999Z</time></trkpt><trkpt lat="43.31718973910185" lon="2.0446052634798897"><ele>174.0</ele><time>2026-03-22T15:58:52.999Z</time></trkpt><trkpt lat="43.31736066952421" lon="2.04462113325179"><ele>174.66666666666666</ele><time>2026-03-22T15:58:53.999Z</time></trkpt><trkpt lat="43.31753287843084" lon="2.0446326899954004"><ele>175.33333333333331</ele><time>2026-03-22T15:58:54.999Z</time></trkpt><trkpt lat="43.3177135713732" lon="2.0446505477841916"><ele>176.0</ele><time>2026-03-22T15:58:55.999Z</time></trkpt><trkpt lat="43.31789973582293" lon="2.044676766116731"><ele>177.0</ele><time>2026-03-22T15:58:56.999Z</time></trkpt><trkpt lat="43.3180739132173" lon="2.044697533176801"><ele>178.0</ele><time>2026-03-22T15:58:57.999Z</time></trkpt><trkpt lat="43.31824470169951" lon="2.0447197791516563"><ele>179.0</ele><time>2026-03-22T15:58:58.999Z</time></trkpt><trkpt lat="43.31841111478344" lon="2.0447434489275715"><ele>179.0</ele><time>2026-03-22T15:59:00Z</time></trkpt><trkpt lat="43.318570692768674" lon="2.044761625425295"><ele>179.0</ele><time>2026-03-22T15:59:01Z</time></trkpt><trkpt lat="43.318730825446714" lon="2.044763428319258"><ele>179.0</ele><time>2026-03-22T15:59:02Z</time></trkpt><trkpt lat="43.31888942933717" lon="2.044747924986942"><ele>178.33333333333331</ele><time>2026-03-22T15:59:03Z</time></trkpt><trkpt lat="43.31904027967463" lon="2.0447211634581186"><ele>177.66666666666666</ele><time>2026-03-22T15:59:04Z</time></trkpt><trkpt lat="43.319200487860535" lon="2.044684583396047"><ele>177.0</ele><time>2026-03-22T15:59:05Z</time></trkpt><trkpt lat="43.3193771066004" lon="2.0446401038126543"><ele>177.0</ele><time>2026-03-22T15:59:06Z</time></trkpt><trkpt lat="43.31957962507156" lon="2.0445849365891546"><ele>177.0</ele><time>2026-03-22T15:59:07Z</time></trkpt><trkpt lat="43.3197784979074" lon="2.044536731498661"><ele>177.0</ele><time>2026-03-22T15:59:08Z</time></trkpt><trkpt lat="43.31996496037628" lon="2.044496649778665"><ele>177.0</ele><time>2026-03-22T15:59:09Z</time></trkpt><trkpt lat="43.32015522824643" lon="2.044451184532532"><ele>177.0</ele><time>2026-03-22T15:59:10Z</time></trkpt><trkpt lat="43.320359436118004" lon="2.044404423653888"><ele>177.0</ele><time>2026-03-22T15:59:11Z</time></trkpt><trkpt lat="43.32057176895023" lon="2.0443536898887165"><ele>177.0</ele><time>2026-03-22T15:59:12Z</time></trkpt><trkpt lat="43.32076005361153" lon="2.0443124481462225"><ele>177.0</ele><time>2026-03-22T15:59:13Z</time></trkpt><trkpt lat="43.32092657534289" lon="2.0442767736682144"><ele>177.0</ele><time>2026-03-22T15:59:14Z</time></trkpt><trkpt lat="43.32108639677167" lon="2.0442282291929676"><ele>177.0</ele><time>2026-03-22T15:59:15Z</time></trkpt><trkpt lat="43.32124641551617" lon="2.044156457505989"><ele>177.0</ele><time>2026-03-22T15:59:16Z</time></trkpt><trkpt lat="43.32140683595468" lon="2.0440600180878477"><ele>177.0</ele><time>2026-03-22T15:59:17Z</time></trkpt><trkpt lat="43.321563483602496" lon="2.0439289523904507"><ele>177.66666666666666</ele><time>2026-03-22T15:59:18Z</time></trkpt><trkpt lat="43.321718172545246" lon="2.0437773143111513"><ele>178.33333333333331</ele><time>2026-03-22T15:59:19Z</time></trkpt><trkpt lat="43.32185632465535" lon="2.043598023790725"><ele>179.0</ele><time>2026-03-22T15:59:20Z</time></trkpt><trkpt lat="43.321987758424946" lon="2.0434074626096437"><ele>178.66666666666666</ele><time>2026-03-22T15:59:21Z</time></trkpt><trkpt lat="43.3220848877654" lon="2.043218616766576"><ele>178.33333333333334</ele><time>2026-03-22T15:59:22Z</time></trkpt><trkpt lat="43.32216856798619" lon="2.043009657630383"><ele>178.0</ele><time>2026-03-22T15:59:23Z</time></trkpt><trkpt lat="43.32224907727354" lon="2.0427405180057234"><ele>178.0</ele><time>2026-03-22T15:59:24Z</time></trkpt><trkpt lat="43.32234032058894" lon="2.0424423136814043"><ele>178.0</ele><time>2026-03-22T15:59:25Z</time></trkpt><trkpt lat="43.32243543007714" lon="2.0421189759938456"><ele>178.0</ele><time>2026-03-22T15:59:26Z</time></trkpt><trkpt lat="43.32252239759608" lon="2.0418303200120835"><ele>178.0</ele><time>2026-03-22T15:59:27Z</time></trkpt><trkpt lat="43.322614816369004" lon="2.041549588766119"><ele>177.0</ele><time>2026-03-22T15:59:28Z</time></trkpt><trkpt lat="43.32271318155867" lon="2.0412783824633802"><ele>176.0</ele><time>2026-03-22T15:59:29Z</time></trkpt><trkpt lat="43.32281943807662" lon="2.0410116501293927"><ele>175.0</ele><time>2026-03-22T15:59:30Z</time></trkpt><trkpt lat="43.32293926450259" lon="2.040757716565548"><ele>175.66666666666669</ele><time>2026-03-22T15:59:31Z</time></trkpt><trkpt lat="43.32305267094763" lon="2.040514079079361"><ele>176.33333333333334</ele><time>2026-03-22T15:59:32Z</time></trkpt><trkpt lat="43.323162437702386" lon="2.0402829657178905"><ele>177.0</ele><time>2026-03-22T15:59:33Z</time></trkpt><trkpt lat="43.32327939785778" lon="2.0400489280361622"><ele>175.66666666666666</ele><time>2026-03-22T15:59:34Z</time></trkpt><trkpt lat="43.323404691160825" lon="2.0398091406574794"><ele>174.33333333333331</ele><time>2026-03-22T15:59:35Z</time></trkpt><trkpt lat="43.32352961333812" lon="2.0395670751818695"><ele>173.0</ele><time>2026-03-22T15:59:36Z</time></trkpt><trkpt lat="43.32366553490983" lon="2.0393046464894753"><ele>173.0</ele><time>2026-03-22T15:59:37Z</time></trkpt><trkpt lat="43.32380126717008" lon="2.0390388190187916"><ele>173.0</ele><time>2026-03-22T15:59:38Z</time></trkpt><trkpt lat="43.3239377643044" lon="2.0387747779855467"><ele>173.0</ele><time>2026-03-22T15:59:39Z</time></trkpt><trkpt lat="43.32407158649438" lon="2.0385174780763577"><ele>173.0</ele><time>2026-03-22T15:59:40Z</time></trkpt><trkpt lat="43.32418785080075" lon="2.0382878912206577"><ele>173.0</ele><time>2026-03-22T15:59:41Z</time></trkpt><trkpt lat="43.32429655682396" lon="2.038068557901873"><ele>172.33333333333331</ele><time>2026-03-22T15:59:42Z</time></trkpt><trkpt lat="43.32440123709175" lon="2.0378658355831694"><ele>171.66666666666666</ele><time>2026-03-22T15:59:43Z</time></trkpt><trkpt lat="43.32450743954109" lon="2.0376763818117305"><ele>171.0</ele><time>2026-03-22T15:59:44Z</time></trkpt><trkpt lat="43.32461896295487" lon="2.0374995362392068"><ele>170.66666666666666</ele><time>2026-03-22T15:59:45Z</time></trkpt><trkpt lat="43.32473309841631" lon="2.0373148935235497"><ele>170.33333333333331</ele><time>2026-03-22T15:59:46Z</time></trkpt><trkpt lat="43.32484838295247" lon="2.037130179632187"><ele>170.0</ele><time>2026-03-22T15:59:47Z</time></trkpt><trkpt lat="43.324966851200905" lon="2.036945296631869"><ele>170.0</ele><time>2026-03-22T15:59:48Z</time></trkpt><trkpt lat="43.32508785366492" lon="2.0367577904521017"><ele>170.0</ele><time>2026-03-22T15:59:49Z</time></trkpt><trkpt lat="43.325209274117306" lon="2.036568069832282"><ele>170.0</ele><time>2026-03-22T15:59:50Z</time></trkpt><trkpt lat="43.325331735273814" lon="2.0363768925065204"><ele>169.0</ele><time>2026-03-22T15:59:51Z</time></trkpt><trkpt lat="43.32545598974024" lon="2.0361802040029517"><ele>168.0</ele><time>2026-03-22T15:59:52Z</time></trkpt><trkpt lat="43.32557735796156" lon="2.035988163281829"><ele>167.0</ele><time>2026-03-22T15:59:53Z</time></trkpt><trkpt lat="43.32570466220503" lon="2.0357919360515297"><ele>169.0</ele><time>2026-03-22T15:59:54Z</time></trkpt><trkpt lat="43.32583023900081" lon="2.03560634559307"><ele>171.0</ele><time>2026-03-22T15:59:55Z</time></trkpt><trkpt lat="43.32595155315889" lon="2.0354287368803448"><ele>173.0</ele><time>2026-03-22T15:59:56Z</time></trkpt><trkpt lat="43.32606876914594" lon="2.0352507937701794"><ele>173.0</ele><time>2026-03-22T15:59:57Z</time></trkpt><trkpt lat="43.326193358836896" lon="2.035067407439266"><ele>173.0</ele><time>2026-03-22T15:59:58Z</time></trkpt><trkpt lat="43.32631367625959" lon="2.034903682234191"><ele>173.0</ele><time>2026-03-22T15:59:59Z</time></trkpt><trkpt lat="43.32643105535904" lon="2.0347535000139736"><ele>172.33333333333331</ele><time>2026-03-22T16:00:00Z</time></trkpt><trkpt lat="43.32655865136857" lon="2.0346057127438404"><ele>171.66666666666666</ele><time>2026-03-22T16:00:01Z</time></trkpt><trkpt lat="43.32669273109352" lon="2.0344697485616736"><ele>171.0</ele><time>2026-03-22T16:00:02Z</time></trkpt><trkpt lat="43.32682619128787" lon="2.034345391763368"><ele>171.0</ele><time>2026-03-22T16:00:03Z</time></trkpt><trkpt lat="43.32695942220194" lon="2.034229333096155"><ele>171.0</ele><time>2026-03-22T16:00:04Z</time></trkpt><trkpt lat="43.32710345121055" lon="2.034128197127476"><ele>171.0</ele><time>2026-03-22T16:00:05Z</time></trkpt><trkpt lat="43.327259501341615" lon="2.034027001302652"><ele>170.0</ele><time>2026-03-22T16:00:06Z</time></trkpt><trkpt lat="43.327404724403195" lon="2.0338961392972856"><ele>169.0</ele><time>2026-03-22T16:00:07Z</time></trkpt><trkpt lat="43.32757883410014" lon="2.0338649881131627"><ele>168.0</ele><time>2026-03-22T16:00:08Z</time></trkpt><trkpt lat="43.32771350837192" lon="2.033816112441162"><ele>168.0</ele><time>2026-03-22T16:00:09Z</time></trkpt><trkpt lat="43.32783805269221" lon="2.03378275598127"><ele>168.0</ele><time>2026-03-22T16:00:10Z</time></trkpt><trkpt lat="43.32796140082243" lon="2.0337592268390203"><ele>168.0</ele><time>2026-03-22T16:00:11Z</time></trkpt><trkpt lat="43.32808290110512" lon="2.0337403143925665"><ele>168.0</ele><time>2026-03-22T16:00:12Z</time></trkpt><trkpt lat="43.32819903186288" lon="2.03372746812309"><ele>168.2</ele><time>2026-03-22T16:00:13Z</time></trkpt><trkpt lat="43.32830424047971" lon="2.0337085014519314"><ele>168.4</ele><time>2026-03-22T16:00:14Z</time></trkpt><trkpt lat="43.32840848505078" lon="2.0336926427902613"><ele>168.6</ele><time>2026-03-22T16:00:15Z</time></trkpt><trkpt lat="43.328510874966994" lon="2.0336791662344775"><ele>168.79999999999998</ele><time>2026-03-22T16:00:16Z</time></trkpt><trkpt lat="43.32860128560935" lon="2.03367116150826"><ele>169.0</ele><time>2026-03-22T16:00:17Z</time></trkpt><trkpt lat="43.3286789854852" lon="2.0336625911917223"><ele>169.0</ele><time>2026-03-22T16:00:18Z</time></trkpt><trkpt lat="43.32874346080117" lon="2.033656851225081"><ele>169.0</ele><time>2026-03-22T16:00:19Z</time></trkpt><trkpt lat="43.32883613105783" lon="2.03365995696468"><ele>169.0</ele><time>2026-03-22T16:00:21Z</time></trkpt><trkpt lat="43.32890783475272" lon="2.033703021138612"><ele>169.0</ele><time>2026-03-22T16:00:23Z</time></trkpt><trkpt lat="43.32897123881169" lon="2.033837874913902"><ele>169.0</ele><time>2026-03-22T16:00:24.999Z</time></trkpt><trkpt lat="43.3289952590635" lon="2.033964621450768"><ele>169.0</ele><time>2026-03-22T16:00:25.999Z</time></trkpt><trkpt lat="43.329029260701965" lon="2.0341019674379046"><ele>169.39999999999998</ele><time>2026-03-22T16:00:26.999Z</time></trkpt><trkpt lat="43.329087026961716" lon="2.0342187159511322"><ele>169.8</ele><time>2026-03-22T16:00:27.999Z</time></trkpt><trkpt lat="43.32917230562048" lon="2.0343218446837343"><ele>170.2</ele><time>2026-03-22T16:00:28.999Z</time></trkpt><trkpt lat="43.32926151752588" lon="2.034390720515745"><ele>170.60000000000002</ele><time>2026-03-22T16:00:29.999Z</time></trkpt><trkpt lat="43.32935639742351" lon="2.0344417969963433"><ele>171.0</ele><time>2026-03-22T16:00:30.999Z</time></trkpt><trkpt lat="43.32946999356009" lon="2.034480576949853"><ele>171.0</ele><time>2026-03-22T16:00:31.999Z</time></trkpt><trkpt lat="43.32957672483552" lon="2.0345137993635745"><ele>171.0</ele><time>2026-03-22T16:00:32.999Z</time></trkpt><trkpt lat="43.32966490680613" lon="2.0345468833630806"><ele>171.0</ele><time>2026-03-22T16:00:33.999Z</time></trkpt><trkpt lat="43.32975188758741" lon="2.0345817247527513"><ele>171.0</ele><time>2026-03-22T16:00:34.999Z</time></trkpt><trkpt lat="43.32982321108167" lon="2.0346048249149398"><ele>171.0</ele><time>2026-03-22T16:00:35.999Z</time></trkpt><trkpt lat="43.32989268281993" lon="2.034630916197037"><ele>171.0</ele><time>2026-03-22T16:00:36.999Z</time></trkpt><trkpt lat="43.33000097276709" lon="2.034670604167764"><ele>171.0</ele><time>2026-03-22T16:00:38.999Z</time></trkpt><trkpt lat="43.33009319160173" lon="2.034707471335141"><ele>171.0</ele><time>2026-03-22T16:00:40.999Z</time></trkpt><trkpt lat="43.330174481483574" lon="2.0347483841620826"><ele>171.0</ele><time>2026-03-22T16:00:42.999Z</time></trkpt><trkpt lat="43.330264429252466" lon="2.034785120471869"><ele>171.0</ele><time>2026-03-22T16:00:44.999Z</time></trkpt><trkpt lat="43.33037351671276" lon="2.034829528082033"><ele>171.0</ele><time>2026-03-22T16:00:46.999Z</time></trkpt><trkpt lat="43.330440338914094" lon="2.034900941838139"><ele>171.20000000000002</ele><time>2026-03-22T16:00:48.999Z</time></trkpt><trkpt lat="43.33045437573081" lon="2.0350598865653864"><ele>171.4</ele><time>2026-03-22T16:00:50.999Z</time></trkpt><trkpt lat="43.33047360450127" lon="2.0351950044846183"><ele>171.6</ele><time>2026-03-22T16:00:51.999Z</time></trkpt><trkpt lat="43.3304893674058" lon="2.0353311937441902"><ele>171.8</ele><time>2026-03-22T16:00:52.999Z</time></trkpt><trkpt lat="43.33050393257522" lon="2.0354491802292562"><ele>172.0</ele><time>2026-03-22T16:00:53.999Z</time></trkpt><trkpt lat="43.33052548671842" lon="2.0355568482114075"><ele>172.0</ele><time>2026-03-22T16:00:54.999Z</time></trkpt><trkpt lat="43.33054123154481" lon="2.0356641550253123"><ele>172.0</ele><time>2026-03-22T16:00:55.999Z</time></trkpt><trkpt lat="43.330554258728995" lon="2.0357698028704587"><ele>172.0</ele><time>2026-03-22T16:00:56.999Z</time></trkpt><trkpt lat="43.330567254885246" lon="2.035871133274385"><ele>172.0</ele><time>2026-03-22T16:00:57.999Z</time></trkpt><trkpt lat="43.33057883282082" lon="2.0359636433483557"><ele>172.0</ele><time>2026-03-22T16:00:58.999Z</time></trkpt><trkpt lat="43.33058960735396" lon="2.0360633749947814"><ele>172.0</ele><time>2026-03-22T16:00:59.999Z</time></trkpt><trkpt lat="43.330598989642915" lon="2.0361707121437904"><ele>172.33333333333334</ele><time>2026-03-22T16:01:00.999Z</time></trkpt><trkpt lat="43.33060756823989" lon="2.036277148492373"><ele>172.66666666666669</ele><time>2026-03-22T16:01:01.999Z</time></trkpt><trkpt lat="43.33061706557561" lon="2.036376619812378"><ele>173.0</ele><time>2026-03-22T16:01:02.999Z</time></trkpt><trkpt lat="43.33064336051872" lon="2.0365543262820487"><ele>173.33333333333334</ele><time>2026-03-22T16:01:04.999Z</time></trkpt><trkpt lat="43.330674646200265" lon="2.0366428527301936"><ele>173.66666666666666</ele><time>2026-03-22T16:01:06Z</time></trkpt><trkpt lat="43.330729056277434" lon="2.0367287555985634"><ele>174.0</ele><time>2026-03-22T16:01:07Z</time></trkpt><trkpt lat="43.330806687381646" lon="2.03681181611181"><ele>174.2</ele><time>2026-03-22T16:01:08Z</time></trkpt><trkpt lat="43.33089150875181" lon="2.0368763382509347"><ele>174.39999999999998</ele><time>2026-03-22T16:01:09Z</time></trkpt><trkpt lat="43.33098032551732" lon="2.0369244426890747"><ele>174.6</ele><time>2026-03-22T16:01:10Z</time></trkpt><trkpt lat="43.331059746413416" lon="2.036942837439104"><ele>174.8</ele><time>2026-03-22T16:01:11Z</time></trkpt><trkpt lat="43.33114935664575" lon="2.0369087910827637"><ele>175.0</ele><time>2026-03-22T16:01:12Z</time></trkpt><trkpt lat="43.33124607507874" lon="2.0369360694466647"><ele>175.0</ele><time>2026-03-22T16:01:13Z</time></trkpt><trkpt lat="43.33133417350045" lon="2.0369460738526195"><ele>175.0</ele><time>2026-03-22T16:01:14Z</time></trkpt><trkpt lat="43.33140797405324" lon="2.0369608453594767"><ele>175.0</ele><time>2026-03-22T16:01:15Z</time></trkpt><trkpt lat="43.33147143874112" lon="2.0369752059425714"><ele>175.0</ele><time>2026-03-22T16:01:16Z</time></trkpt><trkpt lat="43.331568901674075" lon="2.036999417519683"><ele>175.0</ele><time>2026-03-22T16:01:18Z</time></trkpt><trkpt lat="43.331649435261795" lon="2.037035655890445"><ele>175.0</ele><time>2026-03-22T16:01:20Z</time></trkpt><trkpt lat="43.33171615575718" lon="2.037063808802022"><ele>175.0</ele><time>2026-03-22T16:01:22Z</time></trkpt><trkpt lat="43.33174588439668" lon="2.036940192341793"><ele>175.0</ele><time>2026-03-22T16:01:23Z</time></trkpt><trkpt lat="43.33179597922278" lon="2.0368620212050232"><ele>175.0</ele><time>2026-03-22T16:01:24Z</time></trkpt><trkpt lat="43.33183971036101" lon="2.0367281168189195"><ele>175.0</ele><time>2026-03-22T16:01:25Z</time></trkpt><trkpt lat="43.331873534174896" lon="2.0366007082225384"><ele>175.0</ele><time>2026-03-22T16:01:26Z</time></trkpt><trkpt lat="43.33188235386527" lon="2.0364834978512394"><ele>174.8</ele><time>2026-03-22T16:01:27Z</time></trkpt><trkpt lat="43.3318725698013" lon="2.036374435491307"><ele>174.6</ele><time>2026-03-22T16:01:28Z</time></trkpt><trkpt lat="43.33186682258724" lon="2.0362838975857604"><ele>174.39999999999998</ele><time>2026-03-22T16:01:29Z</time></trkpt><trkpt lat="43.33183950107444" lon="2.036203861310187"><ele>174.2</ele><time>2026-03-22T16:01:30Z</time></trkpt><trkpt lat="43.33179538009328" lon="2.036058338408216"><ele>174.0</ele><time>2026-03-22T16:01:32Z</time></trkpt><trkpt lat="43.33195714049409" lon="2.0358451083949487"><ele>174.0</ele><time>2026-03-22T16:01:34Z</time></trkpt><trkpt lat="43.332046973162065" lon="2.0357541934561034"><ele>174.0</ele><time>2026-03-22T16:01:35Z</time></trkpt><trkpt lat="43.33215337640307" lon="2.035665831266869"><ele>174.0</ele><time>2026-03-22T16:01:36Z</time></trkpt><trkpt lat="43.332247097118795" lon="2.0355943801920446"><ele>174.0</ele><time>2026-03-22T16:01:37Z</time></trkpt><trkpt lat="43.3323386178905" lon="2.035526025465473"><ele>174.0</ele><time>2026-03-22T16:01:38Z</time></trkpt><trkpt lat="43.332440735172895" lon="2.0354498968698413"><ele>174.0</ele><time>2026-03-22T16:01:39Z</time></trkpt><trkpt lat="43.332542368538554" lon="2.0353757664658887"><ele>174.0</ele><time>2026-03-22T16:01:40Z</time></trkpt><trkpt lat="43.332644084450436" lon="2.035296643202287"><ele>174.0</ele><time>2026-03-22T16:01:41Z</time></trkpt><trkpt lat="43.33274657119784" lon="2.035215591108931"><ele>174.0</ele><time>2026-03-22T16:01:42Z</time></trkpt><trkpt lat="43.33283557462373" lon="2.035147732513911"><ele>174.0</ele><time>2026-03-22T16:01:43Z</time></trkpt><trkpt lat="43.33291977846556" lon="2.035082965423106"><ele>174.0</ele><time>2026-03-22T16:01:44Z</time></trkpt><trkpt lat="43.33302069727873" lon="2.0350046286501815"><ele>174.0</ele><time>2026-03-22T16:01:45Z</time></trkpt><trkpt lat="43.333140465534434" lon="2.034907846574237"><ele>174.0</ele><time>2026-03-22T16:01:46Z</time></trkpt><trkpt lat="43.333278435706994" lon="2.0348012906890687"><ele>175.66666666666666</ele><time>2026-03-22T16:01:47Z</time></trkpt><trkpt lat="43.33343209817633" lon="2.034675802300628"><ele>177.33333333333331</ele><time>2026-03-22T16:01:48Z</time></trkpt><trkpt lat="43.3335790093446" lon="2.034557175757141"><ele>179.0</ele><time>2026-03-22T16:01:49Z</time></trkpt><trkpt lat="43.33372324773954" lon="2.034446978128246"><ele>179.0</ele><time>2026-03-22T16:01:50Z</time></trkpt><trkpt lat="43.33385679378879" lon="2.0343435209591934"><ele>179.0</ele><time>2026-03-22T16:01:51Z</time></trkpt><trkpt lat="43.33399080328269" lon="2.0342423307041013"><ele>179.0</ele><time>2026-03-22T16:01:52Z</time></trkpt><trkpt lat="43.33412104017409" lon="2.0341778950347287"><ele>179.0</ele><time>2026-03-22T16:01:53Z</time></trkpt><trkpt lat="43.334231180329176" lon="2.0341251005538306"><ele>179.5</ele><time>2026-03-22T16:01:54Z</time></trkpt><trkpt lat="43.33434978533991" lon="2.0340915145144507"><ele>180.0</ele><time>2026-03-22T16:01:55Z</time></trkpt><trkpt lat="43.334478351294074" lon="2.0340915695107777"><ele>180.5</ele><time>2026-03-22T16:01:56Z</time></trkpt><trkpt lat="43.33460638716747" lon="2.034150791729913"><ele>181.0</ele><time>2026-03-22T16:01:57Z</time></trkpt><trkpt lat="43.33476081026805" lon="2.034195817311124"><ele>181.66666666666669</ele><time>2026-03-22T16:01:58Z</time></trkpt><trkpt lat="43.334937104249555" lon="2.03427581151016"><ele>182.33333333333334</ele><time>2026-03-22T16:01:59Z</time></trkpt><trkpt lat="43.33512395714906" lon="2.0343623213228645"><ele>183.0</ele><time>2026-03-22T16:02:00Z</time></trkpt><trkpt lat="43.335281407729006" lon="2.0344027491229943"><ele>183.0</ele><time>2026-03-22T16:02:01Z</time></trkpt><trkpt lat="43.33541915121252" lon="2.0344405898713758"><ele>183.0</ele><time>2026-03-22T16:02:02Z</time></trkpt><trkpt lat="43.33556650060475" lon="2.034470987502522"><ele>183.0</ele><time>2026-03-22T16:02:03Z</time></trkpt><trkpt lat="43.3357320064419" lon="2.034469302182832"><ele>184.33333333333334</ele><time>2026-03-22T16:02:04Z</time></trkpt><trkpt lat="43.33590263264353" lon="2.034452425870821"><ele>185.66666666666669</ele><time>2026-03-22T16:02:05Z</time></trkpt><trkpt lat="43.33607243713369" lon="2.034425078820557"><ele>187.0</ele><time>2026-03-22T16:02:06Z</time></trkpt><trkpt lat="43.33624319506177" lon="2.0343825193466505"><ele>187.5</ele><time>2026-03-22T16:02:07Z</time></trkpt><trkpt lat="43.336407297031" lon="2.034332979407008"><ele>188.0</ele><time>2026-03-22T16:02:08Z</time></trkpt><trkpt lat="43.33654243971291" lon="2.034261552173286"><ele>188.5</ele><time>2026-03-22T16:02:09Z</time></trkpt><trkpt lat="43.3366578759063" lon="2.034190549305009"><ele>189.0</ele><time>2026-03-22T16:02:10Z</time></trkpt><trkpt lat="43.33676075995946" lon="2.0341150151169236"><ele>190.25</ele><time>2026-03-22T16:02:11Z</time></trkpt><trkpt lat="43.3368509135102" lon="2.03402341460868"><ele>191.5</ele><time>2026-03-22T16:02:12Z</time></trkpt><trkpt lat="43.33694162839818" lon="2.033896578552978"><ele>192.75</ele><time>2026-03-22T16:02:13Z</time></trkpt><trkpt lat="43.33702318063688" lon="2.033744995055407"><ele>194.0</ele><time>2026-03-22T16:02:14Z</time></trkpt><trkpt lat="43.33710429205038" lon="2.0335699397620606"><ele>194.0</ele><time>2026-03-22T16:02:15Z</time></trkpt><trkpt lat="43.337189023257615" lon="2.0333951968381943"><ele>194.0</ele><time>2026-03-22T16:02:16Z</time></trkpt><trkpt lat="43.33727846036514" lon="2.0332274024710553"><ele>194.0</ele><time>2026-03-22T16:02:17Z</time></trkpt><trkpt lat="43.33736813477445" lon="2.0330524114117683"><ele>192.33333333333334</ele><time>2026-03-22T16:02:18Z</time></trkpt><trkpt lat="43.33745588216692" lon="2.0328768688612766"><ele>190.66666666666669</ele><time>2026-03-22T16:02:19Z</time></trkpt><trkpt lat="43.3375476161237" lon="2.0327069625089487"><ele>189.0</ele><time>2026-03-22T16:02:20Z</time></trkpt><trkpt lat="43.33763324842861" lon="2.032541351232598"><ele>186.66666666666666</ele><time>2026-03-22T16:02:21Z</time></trkpt><trkpt lat="43.337708742566846" lon="2.0323512478595873"><ele>184.33333333333331</ele><time>2026-03-22T16:02:22Z</time></trkpt><trkpt lat="43.33777606658752" lon="2.0321402778230855"><ele>182.0</ele><time>2026-03-22T16:02:23Z</time></trkpt><trkpt lat="43.337821283873495" lon="2.0319208658078143"><ele>182.0</ele><time>2026-03-22T16:02:23.999Z</time></trkpt><trkpt lat="43.33784823418373" lon="2.0317089673354625"><ele>182.0</ele><time>2026-03-22T16:02:24.999Z</time></trkpt><trkpt lat="43.33789157534478" lon="2.031519630335913"><ele>182.0</ele><time>2026-03-22T16:02:25.999Z</time></trkpt><trkpt lat="43.33795037998339" lon="2.031370136822768"><ele>182.0</ele><time>2026-03-22T16:02:26.999Z</time></trkpt><trkpt lat="43.33802948780005" lon="2.031235882779403"><ele>181.25</ele><time>2026-03-22T16:02:27.999Z</time></trkpt><trkpt lat="43.338126215392776" lon="2.0311307897058093"><ele>180.5</ele><time>2026-03-22T16:02:28.999Z</time></trkpt><trkpt lat="43.33825197706707" lon="2.031025051043109"><ele>179.75</ele><time>2026-03-22T16:02:29.999Z</time></trkpt><trkpt lat="43.338388050715324" lon="2.0309093420237487"><ele>179.0</ele><time>2026-03-22T16:02:30.999Z</time></trkpt><trkpt lat="43.33849919929562" lon="2.030778445786582"><ele>178.0</ele><time>2026-03-22T16:02:31.999Z</time></trkpt><trkpt lat="43.338606211274545" lon="2.0306170119871094"><ele>177.0</ele><time>2026-03-22T16:02:32.999Z</time></trkpt><trkpt lat="43.33870512481532" lon="2.0304134008747674"><ele>176.0</ele><time>2026-03-22T16:02:33.999Z</time></trkpt><trkpt lat="43.33881282041864" lon="2.0301578540066174"><ele>176.0</ele><time>2026-03-22T16:02:34.999Z</time></trkpt><trkpt lat="43.33892720334309" lon="2.029889754927784"><ele>176.0</ele><time>2026-03-22T16:02:35.999Z</time></trkpt><trkpt lat="43.339035138358355" lon="2.029639713950698"><ele>176.0</ele><time>2026-03-22T16:02:36.999Z</time></trkpt><trkpt lat="43.33912815227074" lon="2.0294143690785362"><ele>176.0</ele><time>2026-03-22T16:02:37.999Z</time></trkpt><trkpt lat="43.33922244682938" lon="2.029191464076314"><ele>176.0</ele><time>2026-03-22T16:02:38.999Z</time></trkpt><trkpt lat="43.339310384576265" lon="2.028973046454875"><ele>176.0</ele><time>2026-03-22T16:02:39.999Z</time></trkpt><trkpt lat="43.33940160568309" lon="2.028735184920243"><ele>176.66666666666666</ele><time>2026-03-22T16:02:40.999Z</time></trkpt><trkpt lat="43.33949304513361" lon="2.0284922049963257"><ele>177.33333333333334</ele><time>2026-03-22T16:02:41.999Z</time></trkpt><trkpt lat="43.339594508399436" lon="2.028223208577365"><ele>178.0</ele><time>2026-03-22T16:02:42.999Z</time></trkpt><trkpt lat="43.33970400263573" lon="2.0279380163403395"><ele>178.5</ele><time>2026-03-22T16:02:43.999Z</time></trkpt><trkpt lat="43.339824065153344" lon="2.0276376050845233"><ele>179.0</ele><time>2026-03-22T16:02:44.999Z</time></trkpt><trkpt lat="43.33994578063747" lon="2.0273305162946493"><ele>180.5</ele><time>2026-03-22T16:02:45.999Z</time></trkpt><trkpt lat="43.340071949223336" lon="2.0270153944692164"><ele>182.0</ele><time>2026-03-22T16:02:46.999Z</time></trkpt><trkpt lat="43.34018703433387" lon="2.026724761100586"><ele>184.0</ele><time>2026-03-22T16:02:47.999Z</time></trkpt><trkpt lat="43.340314718392484" lon="2.0264097946044095"><ele>186.0</ele><time>2026-03-22T16:02:48.999Z</time></trkpt><trkpt lat="43.34043372127048" lon="2.026108438865879"><ele>186.0</ele><time>2026-03-22T16:02:49.999Z</time></trkpt><trkpt lat="43.340554218334795" lon="2.0258143607373507"><ele>186.0</ele><time>2026-03-22T16:02:50.999Z</time></trkpt><trkpt lat="43.34066852540205" lon="2.0255423000529236"><ele>186.0</ele><time>2026-03-22T16:02:51.999Z</time></trkpt><trkpt lat="43.340774471236365" lon="2.0252876068487415"><ele>186.0</ele><time>2026-03-22T16:02:52.999Z</time></trkpt><trkpt lat="43.34088202812255" lon="2.0250339945422873"><ele>186.0</ele><time>2026-03-22T16:02:53.999Z</time></trkpt><trkpt lat="43.34099221663566" lon="2.024775780997352"><ele>187.33333333333334</ele><time>2026-03-22T16:02:54.999Z</time></trkpt><trkpt lat="43.34110037293094" lon="2.0245268019451017"><ele>188.66666666666669</ele><time>2026-03-22T16:02:55.999Z</time></trkpt><trkpt lat="43.34121289395026" lon="2.024298636728861"><ele>190.0</ele><time>2026-03-22T16:02:56.999Z</time></trkpt><trkpt lat="43.34132754754056" lon="2.0240842775221823"><ele>189.0</ele><time>2026-03-22T16:02:57.999Z</time></trkpt><trkpt lat="43.34144102356551" lon="2.023894237544133"><ele>188.0</ele><time>2026-03-22T16:02:58.999Z</time></trkpt><trkpt lat="43.34154979178238" lon="2.0237224135113894"><ele>187.0</ele><time>2026-03-22T16:02:59.999Z</time></trkpt><trkpt lat="43.341645936290895" lon="2.0235545699508855"><ele>187.0</ele><time>2026-03-22T16:03:00.999Z</time></trkpt><trkpt lat="43.341723729229024" lon="2.023376731268341"><ele>187.0</ele><time>2026-03-22T16:03:01.999Z</time></trkpt><trkpt lat="43.34180011728755" lon="2.023158588906608"><ele>187.0</ele><time>2026-03-22T16:03:02.999Z</time></trkpt><trkpt lat="43.34186446568453" lon="2.022924861605987"><ele>188.66666666666669</ele><time>2026-03-22T16:03:03.999Z</time></trkpt><trkpt lat="43.34193102843255" lon="2.0226754105969365"><ele>190.33333333333334</ele><time>2026-03-22T16:03:04.999Z</time></trkpt><trkpt lat="43.34199568936575" lon="2.022455438647104"><ele>192.0</ele><time>2026-03-22T16:03:05.999Z</time></trkpt><trkpt lat="43.34206304438954" lon="2.022253393654411"><ele>193.0</ele><time>2026-03-22T16:03:06.999Z</time></trkpt><trkpt lat="43.34214512078952" lon="2.022031514508147"><ele>194.0</ele><time>2026-03-22T16:03:07.999Z</time></trkpt><trkpt lat="43.34223971519299" lon="2.0218070512218898"><ele>195.0</ele><time>2026-03-22T16:03:08.999Z</time></trkpt><trkpt lat="43.34235621611076" lon="2.021579162965593"><ele>195.0</ele><time>2026-03-22T16:03:09.999Z</time></trkpt><trkpt lat="43.342486734832555" lon="2.0213407298729873"><ele>195.0</ele><time>2026-03-22T16:03:10.999Z</time></trkpt><trkpt lat="43.342623648100094" lon="2.0211310185768787"><ele>195.0</ele><time>2026-03-22T16:03:12Z</time></trkpt><trkpt lat="43.342770118085575" lon="2.0209244827220263"><ele>194.66666666666669</ele><time>2026-03-22T16:03:13Z</time></trkpt><trkpt lat="43.34291077671571" lon="2.020730170422548"><ele>194.33333333333334</ele><time>2026-03-22T16:03:14Z</time></trkpt><trkpt lat="43.343067228505355" lon="2.0205362192231466"><ele>194.0</ele><time>2026-03-22T16:03:15Z</time></trkpt><trkpt lat="43.343239146413964" lon="2.020346515262566"><ele>194.0</ele><time>2026-03-22T16:03:16Z</time></trkpt><trkpt lat="43.34341558593525" lon="2.0201626892086653"><ele>194.0</ele><time>2026-03-22T16:03:17Z</time></trkpt><trkpt lat="43.34356621352635" lon="2.0199825858641396"><ele>194.0</ele><time>2026-03-22T16:03:18Z</time></trkpt><trkpt lat="43.343698893114336" lon="2.0198001254708005"><ele>195.0</ele><time>2026-03-22T16:03:19Z</time></trkpt><trkpt lat="43.343833228929576" lon="2.019623391628363"><ele>196.0</ele><time>2026-03-22T16:03:20Z</time></trkpt><trkpt lat="43.3439621683192" lon="2.019471053864645"><ele>197.0</ele><time>2026-03-22T16:03:21Z</time></trkpt><trkpt lat="43.344090398151124" lon="2.0193343384522726"><ele>197.0</ele><time>2026-03-22T16:03:22Z</time></trkpt><trkpt lat="43.34420742133169" lon="2.019214485347271"><ele>197.0</ele><time>2026-03-22T16:03:23Z</time></trkpt><trkpt lat="43.3443132713659" lon="2.019083701339738"><ele>197.0</ele><time>2026-03-22T16:03:24Z</time></trkpt><trkpt lat="43.34440623171999" lon="2.0189255428289123"><ele>197.0</ele><time>2026-03-22T16:03:25Z</time></trkpt><trkpt lat="43.344484597596036" lon="2.0187309413092804"><ele>199.0</ele><time>2026-03-22T16:03:26Z</time></trkpt><trkpt lat="43.3445614454599" lon="2.0184993243045497"><ele>201.0</ele><time>2026-03-22T16:03:27Z</time></trkpt><trkpt lat="43.34462588875283" lon="2.018245127465205"><ele>203.0</ele><time>2026-03-22T16:03:28Z</time></trkpt><trkpt lat="43.34468770641576" lon="2.018009463412788"><ele>201.0</ele><time>2026-03-22T16:03:29Z</time></trkpt><trkpt lat="43.344743584523655" lon="2.0178009155209717"><ele>199.0</ele><time>2026-03-22T16:03:30Z</time></trkpt><trkpt lat="43.34480134400384" lon="2.017588362347432"><ele>197.0</ele><time>2026-03-22T16:03:31Z</time></trkpt><trkpt lat="43.34485952119765" lon="2.017361794744073"><ele>197.0</ele><time>2026-03-22T16:03:32Z</time></trkpt><trkpt lat="43.344919258151904" lon="2.017138738311775"><ele>197.0</ele><time>2026-03-22T16:03:33Z</time></trkpt><trkpt lat="43.344977817958664" lon="2.016931526665935"><ele>197.0</ele><time>2026-03-22T16:03:34Z</time></trkpt><trkpt lat="43.3450519853355" lon="2.016727978578824"><ele>196.33333333333334</ele><time>2026-03-22T16:03:35Z</time></trkpt><trkpt lat="43.345149969444165" lon="2.0165325315253346"><ele>195.66666666666669</ele><time>2026-03-22T16:03:36Z</time></trkpt><trkpt lat="43.34526452441038" lon="2.0163571035979744"><ele>195.0</ele><time>2026-03-22T16:03:37Z</time></trkpt><trkpt lat="43.34539568490285" lon="2.016199072629021"><ele>194.66666666666669</ele><time>2026-03-22T16:03:38Z</time></trkpt><trkpt lat="43.345553618357215" lon="2.016033360507508"><ele>194.33333333333334</ele><time>2026-03-22T16:03:39Z</time></trkpt><trkpt lat="43.34571580735542" lon="2.0158692829496285"><ele>194.0</ele><time>2026-03-22T16:03:40Z</time></trkpt><trkpt lat="43.34585528048595" lon="2.015735323044046"><ele>193.75</ele><time>2026-03-22T16:03:41Z</time></trkpt><trkpt lat="43.34598387659727" lon="2.015615460570681"><ele>193.5</ele><time>2026-03-22T16:03:42Z</time></trkpt><trkpt lat="43.346100854344336" lon="2.0154936622289736"><ele>193.25</ele><time>2026-03-22T16:03:43Z</time></trkpt><trkpt lat="43.34619388740425" lon="2.0153401436684684"><ele>193.0</ele><time>2026-03-22T16:03:44Z</time></trkpt><trkpt lat="43.34626813829541" lon="2.015155137804974"><ele>193.0</ele><time>2026-03-22T16:03:45Z</time></trkpt><trkpt lat="43.34632975084803" lon="2.014918957287132"><ele>193.0</ele><time>2026-03-22T16:03:46Z</time></trkpt><trkpt lat="43.34639470250892" lon="2.0146861889158307"><ele>193.0</ele><time>2026-03-22T16:03:47Z</time></trkpt><trkpt lat="43.34645402581078" lon="2.0145058638807187"><ele>193.0</ele><time>2026-03-22T16:03:48Z</time></trkpt><trkpt lat="43.34652086137672" lon="2.014378217541083"><ele>193.0</ele><time>2026-03-22T16:03:49Z</time></trkpt><trkpt lat="43.34661389488239" lon="2.014277158808808"><ele>193.0</ele><time>2026-03-22T16:03:50Z</time></trkpt><trkpt lat="43.34671105598804" lon="2.014187197617664"><ele>193.0</ele><time>2026-03-22T16:03:51Z</time></trkpt><trkpt lat="43.34682105740567" lon="2.0141031026289333"><ele>191.5</ele><time>2026-03-22T16:03:52Z</time></trkpt><trkpt lat="43.346938126018415" lon="2.0140272346178185"><ele>190.0</ele><time>2026-03-22T16:03:53Z</time></trkpt><trkpt lat="43.34703639387863" lon="2.01392368060158"><ele>188.5</ele><time>2026-03-22T16:03:54Z</time></trkpt><trkpt lat="43.34712313014272" lon="2.013785163483615"><ele>187.0</ele><time>2026-03-22T16:03:55Z</time></trkpt><trkpt lat="43.347190510165525" lon="2.013613738729377"><ele>192.66666666666669</ele><time>2026-03-22T16:03:56Z</time></trkpt><trkpt lat="43.34723040372855" lon="2.0134225970226076"><ele>198.33333333333334</ele><time>2026-03-22T16:03:57Z</time></trkpt><trkpt lat="43.34724757816353" lon="2.0132176391844294"><ele>204.0</ele><time>2026-03-22T16:03:58Z</time></trkpt><trkpt lat="43.34724248729815" lon="2.0129997202119276"><ele>204.0</ele><time>2026-03-22T16:03:59Z</time></trkpt><trkpt lat="43.34723762523278" lon="2.012780184225808"><ele>204.0</ele><time>2026-03-22T16:04:00Z</time></trkpt><trkpt lat="43.34721620486839" lon="2.012576097274601"><ele>204.0</ele><time>2026-03-22T16:04:01Z</time></trkpt><trkpt lat="43.34716995361565" lon="2.012366306442782"><ele>198.66666666666666</ele><time>2026-03-22T16:04:02Z</time></trkpt><trkpt lat="43.34709645830239" lon="2.0121726555749477"><ele>193.33333333333331</ele><time>2026-03-22T16:04:03Z</time></trkpt><trkpt lat="43.34700853145454" lon="2.0120060317516537"><ele>188.0</ele><time>2026-03-22T16:04:04Z</time></trkpt><trkpt lat="43.34691248982436" lon="2.0118542256582486"><ele>188.0</ele><time>2026-03-22T16:04:05Z</time></trkpt><trkpt lat="43.34683127496044" lon="2.011717293099916"><ele>188.0</ele><time>2026-03-22T16:04:06Z</time></trkpt><trkpt lat="43.34676174406287" lon="2.0115849448878866"><ele>188.0</ele><time>2026-03-22T16:04:07Z</time></trkpt><trkpt lat="43.3467080448876" lon="2.011467000344377"><ele>188.0</ele><time>2026-03-22T16:04:08Z</time></trkpt><trkpt lat="43.3466681989788" lon="2.011344381936179"><ele>188.0</ele><time>2026-03-22T16:04:09Z</time></trkpt><trkpt lat="43.34666078508589" lon="2.0112055851894293"><ele>188.0</ele><time>2026-03-22T16:04:10Z</time></trkpt><trkpt lat="43.34667461640869" lon="2.0110624425865957"><ele>188.0</ele><time>2026-03-22T16:04:11Z</time></trkpt><trkpt lat="43.34672709182684" lon="2.010943090195177"><ele>188.0</ele><time>2026-03-22T16:04:12Z</time></trkpt><trkpt lat="43.34679629243169" lon="2.010842346608173"><ele>188.0</ele><time>2026-03-22T16:04:13Z</time></trkpt><trkpt lat="43.34689829090886" lon="2.010760811485782"><ele>188.0</ele><time>2026-03-22T16:04:14Z</time></trkpt><trkpt lat="43.347017507480935" lon="2.0107021122133664"><ele>186.33333333333331</ele><time>2026-03-22T16:04:15Z</time></trkpt><trkpt lat="43.347168058850286" lon="2.0106747585310347"><ele>184.66666666666666</ele><time>2026-03-22T16:04:16Z</time></trkpt><trkpt lat="43.3473473388265" lon="2.010594216547187"><ele>183.0</ele><time>2026-03-22T16:04:17Z</time></trkpt><trkpt lat="43.3475421791581" lon="2.010545351308733"><ele>183.0</ele><time>2026-03-22T16:04:18Z</time></trkpt><trkpt lat="43.34770733334812" lon="2.010491514207784"><ele>183.0</ele><time>2026-03-22T16:04:19Z</time></trkpt><trkpt lat="43.34784714002028" lon="2.010443386153557"><ele>183.0</ele><time>2026-03-22T16:04:20Z</time></trkpt><trkpt lat="43.34798315112624" lon="2.0103880246292847"><ele>183.33333333333334</ele><time>2026-03-22T16:04:21Z</time></trkpt><trkpt lat="43.34810183935264" lon="2.0103010492573437"><ele>183.66666666666669</ele><time>2026-03-22T16:04:22Z</time></trkpt><trkpt lat="43.34822106471409" lon="2.01016303205517"><ele>184.0</ele><time>2026-03-22T16:04:23Z</time></trkpt><trkpt lat="43.348332175393494" lon="2.00998998987971"><ele>184.0</ele><time>2026-03-22T16:04:24Z</time></trkpt><trkpt lat="43.34841544014843" lon="2.0097883709217914"><ele>184.0</ele><time>2026-03-22T16:04:25Z</time></trkpt><trkpt lat="43.34848143651626" lon="2.0095668680444425"><ele>184.0</ele><time>2026-03-22T16:04:26Z</time></trkpt><trkpt lat="43.348550902936054" lon="2.0093327932511023"><ele>182.66666666666669</ele><time>2026-03-22T16:04:27Z</time></trkpt><trkpt lat="43.34864898307184" lon="2.0091083967882795"><ele>181.33333333333334</ele><time>2026-03-22T16:04:28Z</time></trkpt><trkpt lat="43.34874984375452" lon="2.0089072140441346"><ele>180.0</ele><time>2026-03-22T16:04:29Z</time></trkpt><trkpt lat="43.348843764949834" lon="2.0087381554267156"><ele>180.0</ele><time>2026-03-22T16:04:30Z</time></trkpt><trkpt lat="43.34893667296184" lon="2.008577706991441"><ele>180.0</ele><time>2026-03-22T16:04:31Z</time></trkpt><trkpt lat="43.349034856484266" lon="2.0084284380204163"><ele>180.0</ele><time>2026-03-22T16:04:32Z</time></trkpt><trkpt lat="43.349149759356806" lon="2.008288286972446"><ele>180.0</ele><time>2026-03-22T16:04:33Z</time></trkpt><trkpt lat="43.34928065637999" lon="2.008168044130543"><ele>180.0</ele><time>2026-03-22T16:04:34Z</time></trkpt><trkpt lat="43.349412744687186" lon="2.0080755210977834"><ele>180.0</ele><time>2026-03-22T16:04:35Z</time></trkpt><trkpt lat="43.34952688022673" lon="2.007994240153427"><ele>180.0</ele><time>2026-03-22T16:04:36Z</time></trkpt><trkpt lat="43.349621587307105" lon="2.0079319620398546"><ele>180.0</ele><time>2026-03-22T16:04:37Z</time></trkpt><trkpt lat="43.34970231249249" lon="2.0078686143054023"><ele>180.2</ele><time>2026-03-22T16:04:38Z</time></trkpt><trkpt lat="43.349765696076" lon="2.0077762416951903"><ele>180.4</ele><time>2026-03-22T16:04:38.999Z</time></trkpt><trkpt lat="43.34982255590347" lon="2.0076518247660777"><ele>180.60000000000002</ele><time>2026-03-22T16:04:39.999Z</time></trkpt><trkpt lat="43.3498469618808" lon="2.0075150357427285"><ele>180.8</ele><time>2026-03-22T16:04:40.999Z</time></trkpt><trkpt lat="43.34983658813474" lon="2.0073622956089494"><ele>181.0</ele><time>2026-03-22T16:04:41.999Z</time></trkpt><trkpt lat="43.34980420335801" lon="2.0072314363381945"><ele>181.25</ele><time>2026-03-22T16:04:42.999Z</time></trkpt><trkpt lat="43.34974763051156" lon="2.007106355329345"><ele>181.5</ele><time>2026-03-22T16:04:43.999Z</time></trkpt><trkpt lat="43.34967728177857" lon="2.006949281896667"><ele>181.75</ele><time>2026-03-22T16:04:44.999Z</time></trkpt><trkpt lat="43.34961833783406" lon="2.0067957384382833"><ele>182.0</ele><time>2026-03-22T16:04:45.999Z</time></trkpt><trkpt lat="43.34958716047561" lon="2.0066887252302297"><ele>182.0</ele><time>2026-03-22T16:04:46.999Z</time></trkpt><trkpt lat="43.349578528756325" lon="2.006582579485913"><ele>182.0</ele><time>2026-03-22T16:04:47.999Z</time></trkpt><trkpt lat="43.349598975841076" lon="2.006467230186991"><ele>182.0</ele><time>2026-03-22T16:04:48.999Z</time></trkpt><trkpt lat="43.34965728166836" lon="2.0063579647948995"><ele>182.0</ele><time>2026-03-22T16:04:49.999Z</time></trkpt><trkpt lat="43.34972702340543" lon="2.006270523837126"><ele>182.0</ele><time>2026-03-22T16:04:50.999Z</time></trkpt><trkpt lat="43.349822039891386" lon="2.00619284874542"><ele>182.25</ele><time>2026-03-22T16:04:51.999Z</time></trkpt><trkpt lat="43.349940782679695" lon="2.006118397641469"><ele>182.5</ele><time>2026-03-22T16:04:52.999Z</time></trkpt><trkpt lat="43.3500829194576" lon="2.006038586766448"><ele>182.75</ele><time>2026-03-22T16:04:53.999Z</time></trkpt><trkpt lat="43.35022544205502" lon="2.005948147723427"><ele>183.0</ele><time>2026-03-22T16:04:54.999Z</time></trkpt><trkpt lat="43.350371028378646" lon="2.0058598116865576"><ele>184.66666666666666</ele><time>2026-03-22T16:04:55.999Z</time></trkpt><trkpt lat="43.350513574400765" lon="2.0057740721347375"><ele>186.33333333333331</ele><time>2026-03-22T16:04:56.999Z</time></trkpt><trkpt lat="43.350653335720416" lon="2.0056950052279743"><ele>188.0</ele><time>2026-03-22T16:04:57.999Z</time></trkpt><trkpt lat="43.35080888958427" lon="2.0056318038267635"><ele>188.0</ele><time>2026-03-22T16:04:58.999Z</time></trkpt><trkpt lat="43.3509581203428" lon="2.005588279036729"><ele>188.0</ele><time>2026-03-22T16:04:59.999Z</time></trkpt><trkpt lat="43.35111907670466" lon="2.0055521487709727"><ele>188.0</ele><time>2026-03-22T16:05:00.999Z</time></trkpt><trkpt lat="43.35129029869717" lon="2.005515226735161"><ele>188.0</ele><time>2026-03-22T16:05:01.999Z</time></trkpt><trkpt lat="43.35147053755759" lon="2.0054766018998227"><ele>188.0</ele><time>2026-03-22T16:05:02.999Z</time></trkpt><trkpt lat="43.35164765590486" lon="2.005439358230903"><ele>188.0</ele><time>2026-03-22T16:05:03.999Z</time></trkpt><trkpt lat="43.35180494980258" lon="2.005396676027664"><ele>188.0</ele><time>2026-03-22T16:05:04.999Z</time></trkpt><trkpt lat="43.35196674020903" lon="2.005344041579476"><ele>188.0</ele><time>2026-03-22T16:05:05.999Z</time></trkpt><trkpt lat="43.35212301442874" lon="2.0052787033776482"><ele>188.0</ele><time>2026-03-22T16:05:06.999Z</time></trkpt><trkpt lat="43.35228080965291" lon="2.005195786269412"><ele>187.66666666666666</ele><time>2026-03-22T16:05:07.999Z</time></trkpt><trkpt lat="43.35245594833651" lon="2.0051040347005484"><ele>187.33333333333334</ele><time>2026-03-22T16:05:08.999Z</time></trkpt><trkpt lat="43.352611534868274" lon="2.005012860635007"><ele>187.0</ele><time>2026-03-22T16:05:09.999Z</time></trkpt><trkpt lat="43.35275016000671" lon="2.0049378780659035"><ele>188.0</ele><time>2026-03-22T16:05:10.999Z</time></trkpt><trkpt lat="43.352878218022205" lon="2.0048615090194954"><ele>189.0</ele><time>2026-03-22T16:05:11.999Z</time></trkpt><trkpt lat="43.35300115780649" lon="2.0047651694863116"><ele>190.0</ele><time>2026-03-22T16:05:12.999Z</time></trkpt><trkpt lat="43.353182653895516" lon="2.0046146863382557"><ele>190.0</ele><time>2026-03-22T16:05:13.999Z</time></trkpt><trkpt lat="43.35333821725591" lon="2.0044666744939534"><ele>190.0</ele><time>2026-03-22T16:05:14.999Z</time></trkpt><trkpt lat="43.35347908324242" lon="2.0043354777918374"><ele>190.0</ele><time>2026-03-22T16:05:15.999Z</time></trkpt><trkpt lat="43.353612658626005" lon="2.004221328569231"><ele>189.66666666666669</ele><time>2026-03-22T16:05:16.999Z</time></trkpt><trkpt lat="43.353750742907025" lon="2.0041038718360618"><ele>189.33333333333334</ele><time>2026-03-22T16:05:18Z</time></trkpt><trkpt lat="43.35388338649281" lon="2.003987343591649"><ele>189.0</ele><time>2026-03-22T16:05:19Z</time></trkpt><trkpt lat="43.3539977896642" lon="2.0038731161012673"><ele>189.0</ele><time>2026-03-22T16:05:20Z</time></trkpt><trkpt lat="43.354100380123576" lon="2.0037273261144355"><ele>189.0</ele><time>2026-03-22T16:05:21Z</time></trkpt><trkpt lat="43.35419597802152" lon="2.0035339793580245"><ele>189.0</ele><time>2026-03-22T16:05:22Z</time></trkpt><trkpt lat="43.354283044900704" lon="2.00333166503433"><ele>190.25</ele><time>2026-03-22T16:05:23Z</time></trkpt><trkpt lat="43.3543514223042" lon="2.0031579625626703"><ele>191.5</ele><time>2026-03-22T16:05:24Z</time></trkpt><trkpt lat="43.354431543379434" lon="2.0030111604643848"><ele>192.75</ele><time>2026-03-22T16:05:25Z</time></trkpt><trkpt lat="43.35454287063137" lon="2.00289383045946"><ele>194.0</ele><time>2026-03-22T16:05:26Z</time></trkpt><trkpt lat="43.35468940199818" lon="2.0027944289563875"><ele>194.66666666666669</ele><time>2026-03-22T16:05:27Z</time></trkpt><trkpt lat="43.35487298070868" lon="2.0027003167499307"><ele>195.33333333333331</ele><time>2026-03-22T16:05:28Z</time></trkpt><trkpt lat="43.35508762832624" lon="2.0025930295020546"><ele>196.0</ele><time>2026-03-22T16:05:29Z</time></trkpt><trkpt lat="43.355320287012866" lon="2.0024680089383335"><ele>194.0</ele><time>2026-03-22T16:05:30Z</time></trkpt><trkpt lat="43.355541478929844" lon="2.002350123652457"><ele>192.0</ele><time>2026-03-22T16:05:31Z</time></trkpt><trkpt lat="43.35574161233228" lon="2.0022452766180607"><ele>192.0</ele><time>2026-03-22T16:05:32Z</time></trkpt><trkpt lat="43.355959130059105" lon="2.002128021113833"><ele>192.0</ele><time>2026-03-22T16:05:33Z</time></trkpt><trkpt lat="43.356168329515484" lon="2.0020143989714967"><ele>190.5</ele><time>2026-03-22T16:05:34Z</time></trkpt><trkpt lat="43.35637613128825" lon="2.0018986287416327"><ele>189.0</ele><time>2026-03-22T16:05:35Z</time></trkpt><trkpt lat="43.3565888966309" lon="2.0017888818760556"><ele>189.0</ele><time>2026-03-22T16:05:36Z</time></trkpt><trkpt lat="43.356791647201824" lon="2.001681155786145"><ele>189.0</ele><time>2026-03-22T16:05:37Z</time></trkpt><trkpt lat="43.3570046631492" lon="2.0015683254532792"><ele>189.0</ele><time>2026-03-22T16:05:38Z</time></trkpt><trkpt lat="43.357226616601835" lon="2.001450870585327"><ele>192.0</ele><time>2026-03-22T16:05:39Z</time></trkpt><trkpt lat="43.35745271906179" lon="2.0013328870987332"><ele>195.0</ele><time>2026-03-22T16:05:40Z</time></trkpt><trkpt lat="43.357658389052006" lon="2.001221495008465"><ele>195.0</ele><time>2026-03-22T16:05:41Z</time></trkpt><trkpt lat="43.35784753849255" lon="2.0011208837594237"><ele>195.0</ele><time>2026-03-22T16:05:42Z</time></trkpt><trkpt lat="43.35805440401206" lon="2.0010082588898066"><ele>195.0</ele><time>2026-03-22T16:05:43Z</time></trkpt><trkpt lat="43.35826369156414" lon="2.00089593239157"><ele>198.0</ele><time>2026-03-22T16:05:44Z</time></trkpt><trkpt lat="43.35847828333965" lon="2.0007833168273073"><ele>201.0</ele><time>2026-03-22T16:05:45Z</time></trkpt><trkpt lat="43.35868812232763" lon="2.00067378494862"><ele>200.66666666666669</ele><time>2026-03-22T16:05:46Z</time></trkpt><trkpt lat="43.358885324899845" lon="2.000567407874193"><ele>200.33333333333334</ele><time>2026-03-22T16:05:47Z</time></trkpt><trkpt lat="43.35909164506147" lon="2.0004606474333784"><ele>200.0</ele><time>2026-03-22T16:05:48Z</time></trkpt><trkpt lat="43.35928723426463" lon="2.000355095674632"><ele>200.0</ele><time>2026-03-22T16:05:49Z</time></trkpt><trkpt lat="43.35947182445181" lon="2.000246646705825"><ele>200.0</ele><time>2026-03-22T16:05:50Z</time></trkpt><trkpt lat="43.359663352878705" lon="2.00012806969826"><ele>200.0</ele><time>2026-03-22T16:05:51Z</time></trkpt><trkpt lat="43.35985400803986" lon="2.0000017966036316"><ele>200.0</ele><time>2026-03-22T16:05:52Z</time></trkpt><trkpt lat="43.36004794303369" lon="1.999862534118786"><ele>200.0</ele><time>2026-03-22T16:05:53Z</time></trkpt><trkpt lat="43.36024889014298" lon="1.9997069367199656"><ele>200.0</ele><time>2026-03-22T16:05:54Z</time></trkpt><trkpt lat="43.3604401103165" lon="1.9995665769131181"><ele>198.66666666666669</ele><time>2026-03-22T16:05:55Z</time></trkpt><trkpt lat="43.36061052387223" lon="1.9994367726554887"><ele>197.33333333333331</ele><time>2026-03-22T16:05:56Z</time></trkpt><trkpt lat="43.36078273409108" lon="1.9993118665029304"><ele>196.0</ele><time>2026-03-22T16:05:57Z</time></trkpt><trkpt lat="43.36095970151903" lon="1.9991807667276225"><ele>197.33333333333331</ele><time>2026-03-22T16:05:58Z</time></trkpt><trkpt lat="43.36113475336459" lon="1.9990485954746529"><ele>198.66666666666669</ele><time>2026-03-22T16:05:59Z</time></trkpt><trkpt lat="43.36129870690998" lon="1.9989151066768776"><ele>200.0</ele><time>2026-03-22T16:06:00Z</time></trkpt><trkpt lat="43.36146120538197" lon="1.9987632654928098"><ele>200.0</ele><time>2026-03-22T16:06:01Z</time></trkpt><trkpt lat="43.36163090235204" lon="1.9985957633770013"><ele>200.0</ele><time>2026-03-22T16:06:02Z</time></trkpt><trkpt lat="43.36178851455035" lon="1.9984277201854312"><ele>200.0</ele><time>2026-03-22T16:06:03Z</time></trkpt><trkpt lat="43.36194175584498" lon="1.9982642868861717"><ele>202.0</ele><time>2026-03-22T16:06:04Z</time></trkpt><trkpt lat="43.36209502476105" lon="1.9981055855367686"><ele>204.0</ele><time>2026-03-22T16:06:05Z</time></trkpt><trkpt lat="43.36223552121248" lon="1.9979624965211766"><ele>206.0</ele><time>2026-03-22T16:06:06Z</time></trkpt><trkpt lat="43.36236184404088" lon="1.997831960495378"><ele>206.0</ele><time>2026-03-22T16:06:07Z</time></trkpt><trkpt lat="43.362493635019476" lon="1.997676072603753"><ele>206.0</ele><time>2026-03-22T16:06:08Z</time></trkpt><trkpt lat="43.3626224916866" lon="1.9975050366845515"><ele>206.0</ele><time>2026-03-22T16:06:09Z</time></trkpt><trkpt lat="43.36275253930933" lon="1.9973142310484435"><ele>207.66666666666669</ele><time>2026-03-22T16:06:10Z</time></trkpt><trkpt lat="43.362901882909526" lon="1.9971005320111443"><ele>209.33333333333331</ele><time>2026-03-22T16:06:11Z</time></trkpt><trkpt lat="43.36304672188563" lon="1.996894170672187"><ele>211.0</ele><time>2026-03-22T16:06:12Z</time></trkpt><trkpt lat="43.36317041727801" lon="1.9967199349608191"><ele>212.75</ele><time>2026-03-22T16:06:13Z</time></trkpt><trkpt lat="43.36327458595055" lon="1.9965558673872768"><ele>214.5</ele><time>2026-03-22T16:06:14Z</time></trkpt><trkpt lat="43.36336512086878" lon="1.9964089758084322"><ele>216.25</ele><time>2026-03-22T16:06:15Z</time></trkpt><trkpt lat="43.36344131899569" lon="1.996265166698716"><ele>218.0</ele><time>2026-03-22T16:06:16Z</time></trkpt><trkpt lat="43.363509589517044" lon="1.9961007368127874"><ele>218.0</ele><time>2026-03-22T16:06:17Z</time></trkpt><trkpt lat="43.36357516011635" lon="1.9958977102791684"><ele>218.0</ele><time>2026-03-22T16:06:18Z</time></trkpt><trkpt lat="43.36363473309962" lon="1.995683837877837"><ele>218.0</ele><time>2026-03-22T16:06:19Z</time></trkpt><trkpt lat="43.36368531756692" lon="1.9954833627283077"><ele>219.75</ele><time>2026-03-22T16:06:20Z</time></trkpt><trkpt lat="43.36373143351381" lon="1.9952971387294058"><ele>221.5</ele><time>2026-03-22T16:06:21Z</time></trkpt><trkpt lat="43.36377167801913" lon="1.9951132856113363"><ele>223.25</ele><time>2026-03-22T16:06:22Z</time></trkpt><trkpt lat="43.36381229696521" lon="1.9949478025826026"><ele>225.0</ele><time>2026-03-22T16:06:23Z</time></trkpt><trkpt lat="43.363851538360336" lon="1.9947938394096196"><ele>226.6</ele><time>2026-03-22T16:06:24Z</time></trkpt><trkpt lat="43.36389688713053" lon="1.994638871296124"><ele>228.2</ele><time>2026-03-22T16:06:25Z</time></trkpt><trkpt lat="43.363942530288504" lon="1.9945126821503887"><ele>229.8</ele><time>2026-03-22T16:06:26Z</time></trkpt><trkpt lat="43.36400699373822" lon="1.9943951192369216"><ele>231.4</ele><time>2026-03-22T16:06:27Z</time></trkpt><trkpt lat="43.3640918444794" lon="1.9942813322331285"><ele>233.0</ele><time>2026-03-22T16:06:28Z</time></trkpt><trkpt lat="43.36420100147417" lon="1.994174339860538"><ele>232.4</ele><time>2026-03-22T16:06:29Z</time></trkpt><trkpt lat="43.36431359252696" lon="1.994086176560466"><ele>231.8</ele><time>2026-03-22T16:06:30Z</time></trkpt><trkpt lat="43.36441339105289" lon="1.9940160072527275"><ele>231.2</ele><time>2026-03-22T16:06:31Z</time></trkpt><trkpt lat="43.3645024813143" lon="1.9939547573675074"><ele>230.6</ele><time>2026-03-22T16:06:32Z</time></trkpt><trkpt lat="43.36459014319238" lon="1.993890664168299"><ele>230.0</ele><time>2026-03-22T16:06:33Z</time></trkpt><trkpt lat="43.364695994892344" lon="1.993811284043076"><ele>231.25</ele><time>2026-03-22T16:06:34Z</time></trkpt><trkpt lat="43.36480447262234" lon="1.9937085011977767"><ele>232.5</ele><time>2026-03-22T16:06:35Z</time></trkpt><trkpt lat="43.364893013875154" lon="1.993600300841436"><ele>233.75</ele><time>2026-03-22T16:06:36Z</time></trkpt><trkpt lat="43.36496941888537" lon="1.9934865221967681"><ele>235.0</ele><time>2026-03-22T16:06:37Z</time></trkpt><trkpt lat="43.36504277034018" lon="1.9933544878182663"><ele>234.5</ele><time>2026-03-22T16:06:38Z</time></trkpt><trkpt lat="43.365116105424015" lon="1.9932080147572504"><ele>234.0</ele><time>2026-03-22T16:06:39Z</time></trkpt><trkpt lat="43.36517757076122" lon="1.9930755332043217"><ele>233.5</ele><time>2026-03-22T16:06:40Z</time></trkpt><trkpt lat="43.3652324267561" lon="1.9929493634566564"><ele>233.0</ele><time>2026-03-22T16:06:41Z</time></trkpt><trkpt lat="43.365284927591055" lon="1.9928211851951079"><ele>233.0</ele><time>2026-03-22T16:06:41.999Z</time></trkpt><trkpt lat="43.36533657656245" lon="1.9926907293372296"><ele>233.0</ele><time>2026-03-22T16:06:42.999Z</time></trkpt><trkpt lat="43.36538339834797" lon="1.992569914693761"><ele>233.0</ele><time>2026-03-22T16:06:43.999Z</time></trkpt><trkpt lat="43.36542331294514" lon="1.9924526875534991"><ele>233.0</ele><time>2026-03-22T16:06:44.999Z</time></trkpt><trkpt lat="43.365456646466974" lon="1.992349609467251"><ele>233.0</ele><time>2026-03-22T16:06:45.999Z</time></trkpt><trkpt lat="43.36548674275305" lon="1.9922555477758865"><ele>232.8</ele><time>2026-03-22T16:06:46.999Z</time></trkpt><trkpt lat="43.365525981184966" lon="1.9921014975577669"><ele>232.60000000000002</ele><time>2026-03-22T16:06:48.999Z</time></trkpt><trkpt lat="43.36554518476391" lon="1.9919568231602354"><ele>232.39999999999998</ele><time>2026-03-22T16:06:50.999Z</time></trkpt><trkpt lat="43.36554879205513" lon="1.9918436653314298"><ele>232.2</ele><time>2026-03-22T16:06:51.999Z</time></trkpt><trkpt lat="43.36552816192903" lon="1.9917114617432212"><ele>232.0</ele><time>2026-03-22T16:06:52.999Z</time></trkpt><trkpt lat="43.36552337804778" lon="1.9915984088505458"><ele>231.99999999999997</ele><time>2026-03-22T16:06:53.999Z</time></trkpt><trkpt lat="43.36551755536889" lon="1.9914989717925502"><ele>232.0</ele><time>2026-03-22T16:06:54.999Z</time></trkpt><trkpt lat="43.36552257586834" lon="1.9913896244377103"><ele>232.0</ele><time>2026-03-22T16:06:55.999Z</time></trkpt><trkpt lat="43.36553843028091" lon="1.9912972265229048"><ele>232.0</ele><time>2026-03-22T16:06:56.999Z</time></trkpt><trkpt lat="43.36556225212754" lon="1.991190943609565"><ele>231.99999999999997</ele><time>2026-03-22T16:06:57.999Z</time></trkpt><trkpt lat="43.36560306635197" lon="1.9910778232886113"><ele>232.0</ele><time>2026-03-22T16:06:58.999Z</time></trkpt><trkpt lat="43.36566125506109" lon="1.9909558917711616"><ele>231.6</ele><time>2026-03-22T16:06:59.999Z</time></trkpt><trkpt lat="43.36571716459274" lon="1.9908387267722574"><ele>231.2</ele><time>2026-03-22T16:07:00.999Z</time></trkpt><trkpt lat="43.36576853962291" lon="1.9907349084367456"><ele>230.8</ele><time>2026-03-22T16:07:01.999Z</time></trkpt><trkpt lat="43.36582895415319" lon="1.9906104530656719"><ele>230.4</ele><time>2026-03-22T16:07:02.999Z</time></trkpt><trkpt lat="43.365896579131935" lon="1.9904672544841788"><ele>230.0</ele><time>2026-03-22T16:07:03.999Z</time></trkpt><trkpt lat="43.36597350644687" lon="1.9903108922844475"><ele>230.0</ele><time>2026-03-22T16:07:04.999Z</time></trkpt><trkpt lat="43.36607391472512" lon="1.9901256841051502"><ele>230.0</ele><time>2026-03-22T16:07:05.999Z</time></trkpt><trkpt lat="43.366190116788054" lon="1.98995813122462"><ele>230.0</ele><time>2026-03-22T16:07:06.999Z</time></trkpt><trkpt lat="43.36631821705485" lon="1.9898107674421506"><ele>231.75</ele><time>2026-03-22T16:07:07.999Z</time></trkpt><trkpt lat="43.36643247008728" lon="1.9896885406197637"><ele>233.5</ele><time>2026-03-22T16:07:08.999Z</time></trkpt><trkpt lat="43.366537688464284" lon="1.9895749098571751"><ele>235.25</ele><time>2026-03-22T16:07:09.999Z</time></trkpt><trkpt lat="43.36663961763025" lon="1.9894617927285323"><ele>237.0</ele><time>2026-03-22T16:07:10.999Z</time></trkpt><trkpt lat="43.36674905349363" lon="1.9893341990575921"><ele>237.0</ele><time>2026-03-22T16:07:11.999Z</time></trkpt><trkpt lat="43.366859685037106" lon="1.9891856154103817"><ele>237.0</ele><time>2026-03-22T16:07:12.999Z</time></trkpt><trkpt lat="43.366970610670265" lon="1.9890086364700217"><ele>237.0</ele><time>2026-03-22T16:07:13.999Z</time></trkpt><trkpt lat="43.367084711418926" lon="1.9888562619913919"><ele>236.5</ele><time>2026-03-22T16:07:14.999Z</time></trkpt><trkpt lat="43.36719998142689" lon="1.9887259473113796"><ele>236.0</ele><time>2026-03-22T16:07:15.999Z</time></trkpt><trkpt lat="43.367313396388205" lon="1.9886112945683379"><ele>235.5</ele><time>2026-03-22T16:07:16.999Z</time></trkpt><trkpt lat="43.36743497889573" lon="1.9884999060648771"><ele>235.0</ele><time>2026-03-22T16:07:17.999Z</time></trkpt><trkpt lat="43.36754687427898" lon="1.9884165659005595"><ele>235.0</ele><time>2026-03-22T16:07:18.999Z</time></trkpt><trkpt lat="43.36763490355945" lon="1.988353737622962"><ele>235.0</ele><time>2026-03-22T16:07:19.999Z</time></trkpt><trkpt lat="43.36771609484042" lon="1.9882979282962974"><ele>235.0</ele><time>2026-03-22T16:07:20.999Z</time></trkpt><trkpt lat="43.367795102547376" lon="1.98823956656683"><ele>235.0</ele><time>2026-03-22T16:07:21.999Z</time></trkpt><trkpt lat="43.36786996731749" lon="1.9881921626651844"><ele>235.0</ele><time>2026-03-22T16:07:22.999Z</time></trkpt><trkpt lat="43.367951765594036" lon="1.9881367440883717"><ele>232.8</ele><time>2026-03-22T16:07:24Z</time></trkpt><trkpt lat="43.36804061953059" lon="1.9880903206828913"><ele>230.6</ele><time>2026-03-22T16:07:25Z</time></trkpt><trkpt lat="43.368123478501644" lon="1.9880467787282634"><ele>228.39999999999998</ele><time>2026-03-22T16:07:26Z</time></trkpt><trkpt lat="43.36820739528101" lon="1.9880194069648622"><ele>226.2</ele><time>2026-03-22T16:07:27Z</time></trkpt><trkpt lat="43.36827921229779" lon="1.9879959370946456"><ele>224.0</ele><time>2026-03-22T16:07:28Z</time></trkpt><trkpt lat="43.368400497010164" lon="1.9879451306005433"><ele>224.0</ele><time>2026-03-22T16:07:30Z</time></trkpt><trkpt lat="43.36846715769933" lon="1.9879084309633022"><ele>224.0</ele><time>2026-03-22T16:07:31Z</time></trkpt><trkpt lat="43.368522828832084" lon="1.987859164055447"><ele>224.0</ele><time>2026-03-22T16:07:32Z</time></trkpt><trkpt lat="43.3685689748795" lon="1.9877997290634515"><ele>224.0</ele><time>2026-03-22T16:07:33Z</time></trkpt><trkpt lat="43.36862418926475" lon="1.987738110632267"><ele>224.0</ele><time>2026-03-22T16:07:34Z</time></trkpt><trkpt lat="43.36868336303758" lon="1.9876785431478645"><ele>224.0</ele><time>2026-03-22T16:07:35Z</time></trkpt><trkpt lat="43.368735339597265" lon="1.987625944760931"><ele>224.0</ele><time>2026-03-22T16:07:36Z</time></trkpt><trkpt lat="43.36879988340203" lon="1.9875568968227784"><ele>222.5</ele><time>2026-03-22T16:07:37Z</time></trkpt><trkpt lat="43.36887557412434" lon="1.9874639563782814"><ele>221.0</ele><time>2026-03-22T16:07:38Z</time></trkpt><trkpt lat="43.368967058015876" lon="1.9873543175811095"><ele>219.5</ele><time>2026-03-22T16:07:39Z</time></trkpt><trkpt lat="43.369063389964765" lon="1.9872146623186255"><ele>218.0</ele><time>2026-03-22T16:07:40Z</time></trkpt><trkpt lat="43.369155232903395" lon="1.9870475804911163"><ele>218.0</ele><time>2026-03-22T16:07:41Z</time></trkpt><trkpt lat="43.36924448673968" lon="1.9868501500771536"><ele>218.0</ele><time>2026-03-22T16:07:42Z</time></trkpt><trkpt lat="43.36934320262392" lon="1.9865987135238052"><ele>218.0</ele><time>2026-03-22T16:07:43Z</time></trkpt><trkpt lat="43.36943750265536" lon="1.986321508058028"><ele>218.0</ele><time>2026-03-22T16:07:44Z</time></trkpt><trkpt lat="43.36954127851135" lon="1.9860146262663192"><ele>218.0</ele><time>2026-03-22T16:07:45Z</time></trkpt><trkpt lat="43.369628096220545" lon="1.9857790316189607"><ele>218.0</ele><time>2026-03-22T16:07:46Z</time></trkpt><trkpt lat="43.369698499948235" lon="1.9855600451527005"><ele>215.0</ele><time>2026-03-22T16:07:47Z</time></trkpt><trkpt lat="43.369774982858274" lon="1.9853508325119609"><ele>212.0</ele><time>2026-03-22T16:07:48Z</time></trkpt><trkpt lat="43.36985952325867" lon="1.9851505863466503"><ele>209.0</ele><time>2026-03-22T16:07:49Z</time></trkpt><trkpt lat="43.36993998178221" lon="1.9849467810521366"><ele>209.0</ele><time>2026-03-22T16:07:50Z</time></trkpt><trkpt lat="43.37002865704485" lon="1.9847309934307973"><ele>209.0</ele><time>2026-03-22T16:07:51Z</time></trkpt><trkpt lat="43.37011310827584" lon="1.9845000284865413"><ele>209.0</ele><time>2026-03-22T16:07:52Z</time></trkpt><trkpt lat="43.37019328870181" lon="1.9842519289310787"><ele>209.0</ele><time>2026-03-22T16:07:53Z</time></trkpt><trkpt lat="43.37026303310053" lon="1.9839936473151047"><ele>209.0</ele><time>2026-03-22T16:07:54Z</time></trkpt><trkpt lat="43.37032946698582" lon="1.9837013338946738"><ele>209.0</ele><time>2026-03-22T16:07:55Z</time></trkpt><trkpt lat="43.37038757528563" lon="1.9834108030039372"><ele>208.0</ele><time>2026-03-22T16:07:56Z</time></trkpt><trkpt lat="43.37044545449033" lon="1.9831460343763536"><ele>207.0</ele><time>2026-03-22T16:07:57Z</time></trkpt><trkpt lat="43.37051337607157" lon="1.9828651371150345"><ele>206.0</ele><time>2026-03-22T16:07:58Z</time></trkpt><trkpt lat="43.37061004432654" lon="1.9825631755531319"><ele>204.66666666666669</ele><time>2026-03-22T16:07:59Z</time></trkpt><trkpt lat="43.370713435923165" lon="1.9822716740317596"><ele>203.33333333333331</ele><time>2026-03-22T16:08:00Z</time></trkpt><trkpt lat="43.370802961190506" lon="1.9820121704121154"><ele>202.0</ele><time>2026-03-22T16:08:01Z</time></trkpt><trkpt lat="43.37087769467614" lon="1.9817812376755937"><ele>201.66666666666666</ele><time>2026-03-22T16:08:02Z</time></trkpt><trkpt lat="43.37095159746098" lon="1.9815708127595542"><ele>201.33333333333331</ele><time>2026-03-22T16:08:03Z</time></trkpt><trkpt lat="43.371020691153184" lon="1.9813754772151178"><ele>201.0</ele><time>2026-03-22T16:08:04Z</time></trkpt><trkpt lat="43.37108521351738" lon="1.9811944887564386"><ele>201.0</ele><time>2026-03-22T16:08:05Z</time></trkpt><trkpt lat="43.37115220249135" lon="1.981005176321982"><ele>201.0</ele><time>2026-03-22T16:08:06Z</time></trkpt><trkpt lat="43.371232329784824" lon="1.9808020587263566"><ele>201.0</ele><time>2026-03-22T16:08:07Z</time></trkpt><trkpt lat="43.37132170953296" lon="1.9805974849094972"><ele>201.33333333333331</ele><time>2026-03-22T16:08:08Z</time></trkpt><trkpt lat="43.371412504709056" lon="1.9803927384064433"><ele>201.66666666666666</ele><time>2026-03-22T16:08:09Z</time></trkpt><trkpt lat="43.3715019014524" lon="1.9801875770999886"><ele>202.0</ele><time>2026-03-22T16:08:10Z</time></trkpt><trkpt lat="43.37159308827256" lon="1.9799805410247004"><ele>200.33333333333331</ele><time>2026-03-22T16:08:11Z</time></trkpt><trkpt lat="43.371686734421445" lon="1.9797711539574105"><ele>198.66666666666669</ele><time>2026-03-22T16:08:12Z</time></trkpt><trkpt lat="43.37178482607097" lon="1.9795566376972302"><ele>197.0</ele><time>2026-03-22T16:08:13Z</time></trkpt><trkpt lat="43.371885209753344" lon="1.979336995278062"><ele>196.66666666666669</ele><time>2026-03-22T16:08:14Z</time></trkpt><trkpt lat="43.37198539554382" lon="1.9791157480622943"><ele>196.33333333333331</ele><time>2026-03-22T16:08:15Z</time></trkpt><trkpt lat="43.37208776165335" lon="1.978884441783649"><ele>196.0</ele><time>2026-03-22T16:08:16Z</time></trkpt><trkpt lat="43.3721895079891" lon="1.978648440297337"><ele>194.66666666666666</ele><time>2026-03-22T16:08:17Z</time></trkpt><trkpt lat="43.37229668697809" lon="1.9784237077721913"><ele>193.33333333333331</ele><time>2026-03-22T16:08:18Z</time></trkpt><trkpt lat="43.37240198464429" lon="1.9781918986411637"><ele>192.0</ele><time>2026-03-22T16:08:19Z</time></trkpt><trkpt lat="43.37250631648399" lon="1.9779613443010386"><ele>192.0</ele><time>2026-03-22T16:08:20Z</time></trkpt><trkpt lat="43.372609908095335" lon="1.9777263112224561"><ele>192.0</ele><time>2026-03-22T16:08:21Z</time></trkpt><trkpt lat="43.372714801718345" lon="1.9774878079476457"><ele>192.0</ele><time>2026-03-22T16:08:22Z</time></trkpt><trkpt lat="43.372820501468894" lon="1.9772443310209407"><ele>192.0</ele><time>2026-03-22T16:08:23Z</time></trkpt><trkpt lat="43.372929530796114" lon="1.9770098506664449"><ele>192.0</ele><time>2026-03-22T16:08:24Z</time></trkpt><trkpt lat="43.37304122192908" lon="1.9767642629534348"><ele>192.0</ele><time>2026-03-22T16:08:25Z</time></trkpt><trkpt lat="43.373150967551595" lon="1.9765162620639722"><ele>192.33333333333331</ele><time>2026-03-22T16:08:26Z</time></trkpt><trkpt lat="43.37326240036469" lon="1.9762655904998652"><ele>192.66666666666666</ele><time>2026-03-22T16:08:27Z</time></trkpt><trkpt lat="43.37337871153154" lon="1.976006798835792"><ele>193.0</ele><time>2026-03-22T16:08:28Z</time></trkpt><trkpt lat="43.37350726354001" lon="1.97571617240077"><ele>193.0</ele><time>2026-03-22T16:08:29Z</time></trkpt><trkpt lat="43.37363918687401" lon="1.9754227334828016"><ele>193.0</ele><time>2026-03-22T16:08:30Z</time></trkpt><trkpt lat="43.37375213894985" lon="1.9751720047449657"><ele>193.0</ele><time>2026-03-22T16:08:31Z</time></trkpt><trkpt lat="43.37384843184755" lon="1.9749517254186852"><ele>193.0</ele><time>2026-03-22T16:08:32Z</time></trkpt><trkpt lat="43.37393460014454" lon="1.9747549835278955"><ele>193.0</ele><time>2026-03-22T16:08:33Z</time></trkpt><trkpt lat="43.37402608733097" lon="1.9745720174167694"><ele>194.66666666666666</ele><time>2026-03-22T16:08:34Z</time></trkpt><trkpt lat="43.37413917128871" lon="1.9743907337552005"><ele>196.33333333333331</ele><time>2026-03-22T16:08:35Z</time></trkpt><trkpt lat="43.374272108434305" lon="1.9742187303795768"><ele>198.0</ele><time>2026-03-22T16:08:36Z</time></trkpt><trkpt lat="43.37441001550611" lon="1.9740812644008974"><ele>200.0</ele><time>2026-03-22T16:08:37Z</time></trkpt><trkpt lat="43.37455430647024" lon="1.9739759953054326"><ele>202.0</ele><time>2026-03-22T16:08:38Z</time></trkpt><trkpt lat="43.374706160090014" lon="1.9738932148929798"><ele>204.0</ele><time>2026-03-22T16:08:39Z</time></trkpt><trkpt lat="43.37484886237403" lon="1.973838463249349"><ele>204.5</ele><time>2026-03-22T16:08:40Z</time></trkpt><trkpt lat="43.3749753488592" lon="1.9738167518072027"><ele>205.0</ele><time>2026-03-22T16:08:41Z</time></trkpt><trkpt lat="43.375104818856855" lon="1.9738279102350564"><ele>205.5</ele><time>2026-03-22T16:08:42Z</time></trkpt><trkpt lat="43.37522709002732" lon="1.9739034785065808"><ele>206.0</ele><time>2026-03-22T16:08:43Z</time></trkpt><trkpt lat="43.37532370462434" lon="1.9740151716618928"><ele>206.0</ele><time>2026-03-22T16:08:44Z</time></trkpt><trkpt lat="43.375426912277796" lon="1.9741439510739731"><ele>206.0</ele><time>2026-03-22T16:08:45Z</time></trkpt><trkpt lat="43.37554252797055" lon="1.9743006000623429"><ele>206.0</ele><time>2026-03-22T16:08:46Z</time></trkpt><trkpt lat="43.37569213155457" lon="1.9745132135627415"><ele>207.33333333333334</ele><time>2026-03-22T16:08:47Z</time></trkpt><trkpt lat="43.3758325730113" lon="1.9747152366954699"><ele>208.66666666666669</ele><time>2026-03-22T16:08:48Z</time></trkpt><trkpt lat="43.37595031537556" lon="1.9748846074740098"><ele>210.0</ele><time>2026-03-22T16:08:49Z</time></trkpt><trkpt lat="43.37607263422921" lon="1.9750605614941872"><ele>210.0</ele><time>2026-03-22T16:08:50Z</time></trkpt><trkpt lat="43.37620380146489" lon="1.9752523429466982"><ele>210.0</ele><time>2026-03-22T16:08:51Z</time></trkpt><trkpt lat="43.37633494246066" lon="1.9754444170855596"><ele>210.0</ele><time>2026-03-22T16:08:52Z</time></trkpt><trkpt lat="43.3764627745713" lon="1.9756316448849167"><ele>213.33333333333331</ele><time>2026-03-22T16:08:53Z</time></trkpt><trkpt lat="43.37657877830127" lon="1.97580154840077"><ele>216.66666666666666</ele><time>2026-03-22T16:08:54Z</time></trkpt><trkpt lat="43.37667443912128" lon="1.9759546605848652"><ele>220.0</ele><time>2026-03-22T16:08:55Z</time></trkpt><trkpt lat="43.3767612424119" lon="1.9761020697547165"><ele>220.0</ele><time>2026-03-22T16:08:56Z</time></trkpt><trkpt lat="43.376834490911705" lon="1.9762423887655898"><ele>220.0</ele><time>2026-03-22T16:08:57Z</time></trkpt><trkpt lat="43.376894351618496" lon="1.9763786635535516"><ele>220.0</ele><time>2026-03-22T16:08:57.999Z</time></trkpt><trkpt lat="43.37695327419145" lon="1.9764895867061594"><ele>220.0</ele><time>2026-03-22T16:08:58.999Z</time></trkpt><trkpt lat="43.377009433438936" lon="1.9765803933589414"><ele>220.0</ele><time>2026-03-22T16:08:59.999Z</time></trkpt><trkpt lat="43.37709613442417" lon="1.9766592926120934"><ele>221.25</ele><time>2026-03-22T16:09:00.999Z</time></trkpt><trkpt lat="43.377203653706" lon="1.9766844930063001"><ele>222.5</ele><time>2026-03-22T16:09:01.999Z</time></trkpt><trkpt lat="43.377320253187065" lon="1.9766783697471375"><ele>223.75</ele><time>2026-03-22T16:09:02.999Z</time></trkpt><trkpt lat="43.377438302650404" lon="1.9766459455572858"><ele>225.0</ele><time>2026-03-22T16:09:03.999Z</time></trkpt><trkpt lat="43.37753880532439" lon="1.9765675334914883"><ele>225.0</ele><time>2026-03-22T16:09:04.999Z</time></trkpt><trkpt lat="43.3776295360619" lon="1.97648903589367"><ele>225.0</ele><time>2026-03-22T16:09:05.999Z</time></trkpt><trkpt lat="43.37769647461" lon="1.9763969965134671"><ele>225.0</ele><time>2026-03-22T16:09:06.999Z</time></trkpt><trkpt lat="43.37775910259408" lon="1.97628137489453"><ele>225.0</ele><time>2026-03-22T16:09:07.999Z</time></trkpt><trkpt lat="43.377832357572785" lon="1.9761507189476908"><ele>225.0</ele><time>2026-03-22T16:09:08.999Z</time></trkpt><trkpt lat="43.377922073860354" lon="1.9759925165261614"><ele>225.0</ele><time>2026-03-22T16:09:09.999Z</time></trkpt><trkpt lat="43.3780090860647" lon="1.9758629870005815"><ele>225.0</ele><time>2026-03-22T16:09:10.999Z</time></trkpt><trkpt lat="43.378099164882016" lon="1.9757368197793335"><ele>225.0</ele><time>2026-03-22T16:09:11.999Z</time></trkpt><trkpt lat="43.378201902478246" lon="1.9756129959533157"><ele>225.0</ele><time>2026-03-22T16:09:12.999Z</time></trkpt><trkpt lat="43.378302181524056" lon="1.9755014687472494"><ele>225.4</ele><time>2026-03-22T16:09:13.999Z</time></trkpt><trkpt lat="43.37837445183941" lon="1.975416382167031"><ele>225.8</ele><time>2026-03-22T16:09:14.999Z</time></trkpt><trkpt lat="43.37842820046344" lon="1.9753523223551062"><ele>226.2</ele><time>2026-03-22T16:09:15.999Z</time></trkpt><trkpt lat="43.37850222405712" lon="1.9752649305119099"><ele>226.6</ele><time>2026-03-22T16:09:17.999Z</time></trkpt><trkpt lat="43.37856933387546" lon="1.975189517625147"><ele>227.0</ele><time>2026-03-22T16:09:19.999Z</time></trkpt><trkpt lat="43.378601363685924" lon="1.9750584313638735"><ele>227.0</ele><time>2026-03-22T16:09:22.999Z</time></trkpt><trkpt lat="43.37875868594288" lon="1.9750529176344147"><ele>227.0</ele><time>2026-03-22T16:09:24.999Z</time></trkpt><trkpt lat="43.37883714170064" lon="1.975085331906433"><ele>227.0</ele><time>2026-03-22T16:09:25.999Z</time></trkpt><trkpt lat="43.37892438547151" lon="1.9751462455383069"><ele>227.0</ele><time>2026-03-22T16:09:26.999Z</time></trkpt><trkpt lat="43.379038381067396" lon="1.9752245124904257"><ele>227.66666666666669</ele><time>2026-03-22T16:09:27.999Z</time></trkpt><trkpt lat="43.379195527863025" lon="1.9753075984902069"><ele>228.33333333333331</ele><time>2026-03-22T16:09:28.999Z</time></trkpt><trkpt lat="43.37938343709659" lon="1.9753812223421616"><ele>229.0</ele><time>2026-03-22T16:09:30Z</time></trkpt><trkpt lat="43.37957526668327" lon="1.9754482781988383"><ele>231.0</ele><time>2026-03-22T16:09:31Z</time></trkpt><trkpt lat="43.3797439594038" lon="1.9754920047850741"><ele>233.0</ele><time>2026-03-22T16:09:32Z</time></trkpt><trkpt lat="43.379928561620666" lon="1.9755274682689503"><ele>235.0</ele><time>2026-03-22T16:09:33Z</time></trkpt><trkpt lat="43.38013584145137" lon="1.975553699230765"><ele>235.0</ele><time>2026-03-22T16:09:34Z</time></trkpt><trkpt lat="43.38035624600433" lon="1.9755600346286561"><ele>235.0</ele><time>2026-03-22T16:09:35Z</time></trkpt><trkpt lat="43.38058703445048" lon="1.9755522284851437"><ele>235.0</ele><time>2026-03-22T16:09:36Z</time></trkpt><trkpt lat="43.380806028121214" lon="1.9755374994155912"><ele>235.0</ele><time>2026-03-22T16:09:37Z</time></trkpt><trkpt lat="43.38102235111428" lon="1.9754994500182697"><ele>235.0</ele><time>2026-03-22T16:09:38Z</time></trkpt><trkpt lat="43.38126627287558" lon="1.9754479462624468"><ele>236.5</ele><time>2026-03-22T16:09:39Z</time></trkpt><trkpt lat="43.38151561315283" lon="1.9754108435760271"><ele>238.0</ele><time>2026-03-22T16:09:40Z</time></trkpt><trkpt lat="43.38175968425852" lon="1.9753812500357262"><ele>238.0</ele><time>2026-03-22T16:09:41Z</time></trkpt><trkpt lat="43.381998336322575" lon="1.975349786693312"><ele>238.0</ele><time>2026-03-22T16:09:42Z</time></trkpt><trkpt lat="43.382231796377624" lon="1.9753165344417967"><ele>239.0</ele><time>2026-03-22T16:09:43Z</time></trkpt><trkpt lat="43.38245845053838" lon="1.9752810564008039"><ele>240.0</ele><time>2026-03-22T16:09:44Z</time></trkpt><trkpt lat="43.38266994104273" lon="1.9752561380526057"><ele>241.0</ele><time>2026-03-22T16:09:45Z</time></trkpt><trkpt lat="43.382873439859466" lon="1.9752351504841905"><ele>242.0</ele><time>2026-03-22T16:09:46Z</time></trkpt><trkpt lat="43.38307213095923" lon="1.9752031810543553"><ele>243.0</ele><time>2026-03-22T16:09:47Z</time></trkpt><trkpt lat="43.38325897841533" lon="1.9751765732529318"><ele>244.0</ele><time>2026-03-22T16:09:48Z</time></trkpt><trkpt lat="43.38345384364783" lon="1.975146534583939"><ele>244.0</ele><time>2026-03-22T16:09:49Z</time></trkpt><trkpt lat="43.38366359558307" lon="1.9751152252609532"><ele>244.0</ele><time>2026-03-22T16:09:50Z</time></trkpt><trkpt lat="43.38387703115058" lon="1.975087431225427"><ele>244.0</ele><time>2026-03-22T16:09:51Z</time></trkpt><trkpt lat="43.38411373513679" lon="1.9750566093331499"><ele>246.5</ele><time>2026-03-22T16:09:52Z</time></trkpt><trkpt lat="43.38436724362597" lon="1.9750248672858761"><ele>249.0</ele><time>2026-03-22T16:09:53Z</time></trkpt><trkpt lat="43.384596505846716" lon="1.9749920610798226"><ele>252.0</ele><time>2026-03-22T16:09:54Z</time></trkpt><trkpt lat="43.38480614528375" lon="1.9749605302765314"><ele>255.0</ele><time>2026-03-22T16:09:55Z</time></trkpt><trkpt lat="43.38502244284427" lon="1.974925305654144"><ele>258.0</ele><time>2026-03-22T16:09:56Z</time></trkpt><trkpt lat="43.38524602346054" lon="1.9748828601813582"><ele>258.0</ele><time>2026-03-22T16:09:57Z</time></trkpt><trkpt lat="43.38546239932194" lon="1.9748356748265459"><ele>258.0</ele><time>2026-03-22T16:09:58Z</time></trkpt><trkpt lat="43.38568416715858" lon="1.9747825240089816"><ele>258.0</ele><time>2026-03-22T16:09:59Z</time></trkpt><trkpt lat="43.38591344746288" lon="1.9747257460761105"><ele>260.0</ele><time>2026-03-22T16:10:00Z</time></trkpt><trkpt lat="43.38614701386762" lon="1.974660325116168"><ele>262.0</ele><time>2026-03-22T16:10:01Z</time></trkpt><trkpt lat="43.386370825144056" lon="1.9745961778447647"><ele>262.5</ele><time>2026-03-22T16:10:02Z</time></trkpt><trkpt lat="43.38659737856037" lon="1.9745242449982996"><ele>263.0</ele><time>2026-03-22T16:10:03Z</time></trkpt><trkpt lat="43.38682188176352" lon="1.974449628266695"><ele>263.0</ele><time>2026-03-22T16:10:04Z</time></trkpt><trkpt lat="43.38705128819888" lon="1.9743648212785"><ele>263.0</ele><time>2026-03-22T16:10:05Z</time></trkpt><trkpt lat="43.387281158929696" lon="1.9742731409600034"><ele>264.5</ele><time>2026-03-22T16:10:06Z</time></trkpt><trkpt lat="43.387515357481924" lon="1.9741807276851915"><ele>266.0</ele><time>2026-03-22T16:10:07Z</time></trkpt><trkpt lat="43.38774906225373" lon="1.974079880052987"><ele>266.0</ele><time>2026-03-22T16:10:08Z</time></trkpt><trkpt lat="43.38798768455479" lon="1.9739709774128704"><ele>266.0</ele><time>2026-03-22T16:10:09Z</time></trkpt><trkpt lat="43.38822161860614" lon="1.9738581200105616"><ele>265.5</ele><time>2026-03-22T16:10:10Z</time></trkpt><trkpt lat="43.38845050586579" lon="1.9737471865727658"><ele>265.0</ele><time>2026-03-22T16:10:11Z</time></trkpt><trkpt lat="43.38866600266645" lon="1.9736287175467198"><ele>265.0</ele><time>2026-03-22T16:10:12Z</time></trkpt><trkpt lat="43.38888254839336" lon="1.9735066169093678"><ele>265.0</ele><time>2026-03-22T16:10:13Z</time></trkpt><trkpt lat="43.389097173060534" lon="1.9733806473481765"><ele>268.0</ele><time>2026-03-22T16:10:14Z</time></trkpt><trkpt lat="43.3893120930489" lon="1.9732488187647097"><ele>271.0</ele><time>2026-03-22T16:10:15Z</time></trkpt><trkpt lat="43.38952803756349" lon="1.9731154676119917"><ele>272.5</ele><time>2026-03-22T16:10:16Z</time></trkpt><trkpt lat="43.389739119605764" lon="1.9729742280968419"><ele>274.0</ele><time>2026-03-22T16:10:17Z</time></trkpt><trkpt lat="43.389946214175986" lon="1.9728287274567071"><ele>274.0</ele><time>2026-03-22T16:10:18Z</time></trkpt><trkpt lat="43.3901542453621" lon="1.9726802214382726"><ele>274.0</ele><time>2026-03-22T16:10:19Z</time></trkpt><trkpt lat="43.39035322062551" lon="1.9725343460424616"><ele>274.5</ele><time>2026-03-22T16:10:20Z</time></trkpt><trkpt lat="43.390558621631754" lon="1.9723817382680249"><ele>275.0</ele><time>2026-03-22T16:10:21Z</time></trkpt><trkpt lat="43.390777403568514" lon="1.9722051577614286"><ele>275.0</ele><time>2026-03-22T16:10:22Z</time></trkpt><trkpt lat="43.390996331550596" lon="1.972032714448922"><ele>275.0</ele><time>2026-03-22T16:10:23Z</time></trkpt><trkpt lat="43.391196937195126" lon="1.9718555330919327"><ele>276.0</ele><time>2026-03-22T16:10:24Z</time></trkpt><trkpt lat="43.39139193054388" lon="1.9716788315136609"><ele>277.0</ele><time>2026-03-22T16:10:25Z</time></trkpt><trkpt lat="43.391602094698875" lon="1.9714893547269836"><ele>277.0</ele><time>2026-03-22T16:10:26Z</time></trkpt><trkpt lat="43.39180998864081" lon="1.9712924730603103"><ele>277.0</ele><time>2026-03-22T16:10:27Z</time></trkpt><trkpt lat="43.39202014529445" lon="1.9710822704403528"><ele>277.5</ele><time>2026-03-22T16:10:28Z</time></trkpt><trkpt lat="43.39223066559832" lon="1.970871877895081"><ele>278.0</ele><time>2026-03-22T16:10:29Z</time></trkpt><trkpt lat="43.39244494855432" lon="1.9706606339303527"><ele>280.0</ele><time>2026-03-22T16:10:30Z</time></trkpt><trkpt lat="43.392653391768775" lon="1.970450258446756"><ele>282.0</ele><time>2026-03-22T16:10:31Z</time></trkpt><trkpt lat="43.39285793828172" lon="1.9702387774959056"><ele>281.5</ele><time>2026-03-22T16:10:32Z</time></trkpt><trkpt lat="43.393060108467154" lon="1.97002913108252"><ele>281.0</ele><time>2026-03-22T16:10:33Z</time></trkpt><trkpt lat="43.393267061613116" lon="1.9698183318626312"><ele>282.5</ele><time>2026-03-22T16:10:34Z</time></trkpt><trkpt lat="43.39347600640517" lon="1.9696033718664134"><ele>284.0</ele><time>2026-03-22T16:10:35Z</time></trkpt><trkpt lat="43.39366806885617" lon="1.9694039465556228"><ele>284.0</ele><time>2026-03-22T16:10:36Z</time></trkpt><trkpt lat="43.393848767192225" lon="1.969202660971638"><ele>284.0</ele><time>2026-03-22T16:10:37Z</time></trkpt><trkpt lat="43.3940136378997" lon="1.96901063869935"><ele>284.0</ele><time>2026-03-22T16:10:38Z</time></trkpt><trkpt lat="43.394174439847625" lon="1.9688310326978689"><ele>285.33333333333337</ele><time>2026-03-22T16:10:39Z</time></trkpt><trkpt lat="43.394338515659584" lon="1.9686525292665058"><ele>286.6666666666667</ele><time>2026-03-22T16:10:40Z</time></trkpt><trkpt lat="43.3945032255895" lon="1.968480195442017"><ele>288.0</ele><time>2026-03-22T16:10:41Z</time></trkpt><trkpt lat="43.39467160223074" lon="1.968348127513114"><ele>290.6666666666667</ele><time>2026-03-22T16:10:42Z</time></trkpt><trkpt lat="43.39486954168517" lon="1.9682236799259625"><ele>293.33333333333337</ele><time>2026-03-22T16:10:43Z</time></trkpt><trkpt lat="43.39503402358111" lon="1.9681053193357305"><ele>296.0</ele><time>2026-03-22T16:10:44Z</time></trkpt><trkpt lat="43.39543364616492" lon="1.967964307992985"><ele>297.5</ele><time>2026-03-22T16:10:45Z</time></trkpt><trkpt lat="43.39567368296818" lon="1.967833508417504"><ele>299.0</ele><time>2026-03-22T16:10:46Z</time></trkpt><trkpt lat="43.39590828195967" lon="1.9677083617163489"><ele>299.0</ele><time>2026-03-22T16:10:47Z</time></trkpt><trkpt lat="43.39613580600607" lon="1.9675800419133103"><ele>299.0</ele><time>2026-03-22T16:10:48Z</time></trkpt><trkpt lat="43.39635765171855" lon="1.9674598547632267"><ele>300.0</ele><time>2026-03-22T16:10:49Z</time></trkpt><trkpt lat="43.396570524560616" lon="1.9673426640008815"><ele>301.0</ele><time>2026-03-22T16:10:50Z</time></trkpt><trkpt lat="43.39678160685206" lon="1.96722498681355"><ele>301.0</ele><time>2026-03-22T16:10:51Z</time></trkpt><trkpt lat="43.396983020886836" lon="1.967115080939179"><ele>301.0</ele><time>2026-03-22T16:10:52Z</time></trkpt><trkpt lat="43.397154201444884" lon="1.9670048802225029"><ele>301.0</ele><time>2026-03-22T16:10:53Z</time></trkpt><trkpt lat="43.397343378367566" lon="1.9669228301737225"><ele>303.0</ele><time>2026-03-22T16:10:54Z</time></trkpt><trkpt lat="43.39754270366661" lon="1.966863651191832"><ele>305.0</ele><time>2026-03-22T16:10:55Z</time></trkpt><trkpt lat="43.397740509176124" lon="1.9668096788478917"><ele>307.0</ele><time>2026-03-22T16:10:56Z</time></trkpt><trkpt lat="43.39793545402409" lon="1.9667490935402694"><ele>307.0</ele><time>2026-03-22T16:10:57Z</time></trkpt><trkpt lat="43.398122818853736" lon="1.966686311210197"><ele>307.0</ele><time>2026-03-22T16:10:57.999Z</time></trkpt><trkpt lat="43.39829206620017" lon="1.9666096990471214"><ele>307.0</ele><time>2026-03-22T16:10:58.999Z</time></trkpt><trkpt lat="43.39846772114878" lon="1.9664977089221183"><ele>307.0</ele><time>2026-03-22T16:10:59.999Z</time></trkpt><trkpt lat="43.398639213197185" lon="1.9663570288858856"><ele>307.0</ele><time>2026-03-22T16:11:00.999Z</time></trkpt><trkpt lat="43.39880300518372" lon="1.9661783619267705"><ele>307.0</ele><time>2026-03-22T16:11:01.999Z</time></trkpt><trkpt lat="43.39894125297465" lon="1.965984155968808"><ele>308.0</ele><time>2026-03-22T16:11:02.999Z</time></trkpt><trkpt lat="43.399054598645726" lon="1.9657737085543707"><ele>309.0</ele><time>2026-03-22T16:11:03.999Z</time></trkpt><trkpt lat="43.39916634486022" lon="1.9655294574515065"><ele>310.0</ele><time>2026-03-22T16:11:04.999Z</time></trkpt><trkpt lat="43.39925700993715" lon="1.9652853461580893"><ele>307.5</ele><time>2026-03-22T16:11:05.999Z</time></trkpt><trkpt lat="43.39929351191814" lon="1.9649679400454085"><ele>305.0</ele><time>2026-03-22T16:11:06.999Z</time></trkpt><trkpt lat="43.3993837861108" lon="1.9646720656966912"><ele>305.0</ele><time>2026-03-22T16:11:07.999Z</time></trkpt><trkpt lat="43.39946388240719" lon="1.964382012907235"><ele>305.0</ele><time>2026-03-22T16:11:08.999Z</time></trkpt><trkpt lat="43.3995342377455" lon="1.9641033557778114"><ele>305.0</ele><time>2026-03-22T16:11:09.999Z</time></trkpt><trkpt lat="43.39960173275657" lon="1.963835270541077"><ele>306.6666666666667</ele><time>2026-03-22T16:11:10.999Z</time></trkpt><trkpt lat="43.39967360314929" lon="1.963567226382684"><ele>308.3333333333333</ele><time>2026-03-22T16:11:11.999Z</time></trkpt><trkpt lat="43.39974380988074" lon="1.9633106810997518"><ele>310.0</ele><time>2026-03-22T16:11:12.999Z</time></trkpt><trkpt lat="43.3998065464955" lon="1.9630704755475366"><ele>310.0</ele><time>2026-03-22T16:11:13.999Z</time></trkpt><trkpt lat="43.39986836736088" lon="1.9628324532932042"><ele>310.0</ele><time>2026-03-22T16:11:14.999Z</time></trkpt><trkpt lat="43.39992999155241" lon="1.9625920504921675"><ele>310.0</ele><time>2026-03-22T16:11:15.999Z</time></trkpt><trkpt lat="43.39999399561098" lon="1.9623600782661301"><ele>309.3333333333333</ele><time>2026-03-22T16:11:16.999Z</time></trkpt><trkpt lat="43.40005395990765" lon="1.9621303442818494"><ele>308.6666666666667</ele><time>2026-03-22T16:11:17.999Z</time></trkpt><trkpt lat="43.40011791754936" lon="1.9618958068950596"><ele>308.0</ele><time>2026-03-22T16:11:18.999Z</time></trkpt><trkpt lat="43.400185741450166" lon="1.96166169888966"><ele>307.33333333333337</ele><time>2026-03-22T16:11:19.999Z</time></trkpt><trkpt lat="43.400257624659794" lon="1.9614357617551363"><ele>306.6666666666667</ele><time>2026-03-22T16:11:20.999Z</time></trkpt><trkpt lat="43.40033464076839" lon="1.9612120741215109"><ele>306.0</ele><time>2026-03-22T16:11:21.999Z</time></trkpt><trkpt lat="43.4004159756068" lon="1.960985173207199"><ele>306.0</ele><time>2026-03-22T16:11:22.999Z</time></trkpt><trkpt lat="43.40050219467947" lon="1.9607666557057415"><ele>306.0</ele><time>2026-03-22T16:11:23.999Z</time></trkpt><trkpt lat="43.40059312114819" lon="1.960542574194471"><ele>306.0</ele><time>2026-03-22T16:11:24.999Z</time></trkpt><trkpt lat="43.40068964419774" lon="1.960321824157078"><ele>306.0</ele><time>2026-03-22T16:11:25.999Z</time></trkpt><trkpt lat="43.40079544193329" lon="1.9600950059802706"><ele>306.0</ele><time>2026-03-22T16:11:26.999Z</time></trkpt><trkpt lat="43.400917626563896" lon="1.9598790556283097"><ele>306.0</ele><time>2026-03-22T16:11:27.999Z</time></trkpt><trkpt lat="43.401050718417615" lon="1.959661399009798"><ele>305.6666666666667</ele><time>2026-03-22T16:11:28.999Z</time></trkpt><trkpt lat="43.40118428008856" lon="1.9594661832325582"><ele>305.33333333333337</ele><time>2026-03-22T16:11:29.999Z</time></trkpt><trkpt lat="43.4013159348119" lon="1.9592793861058404"><ele>305.0</ele><time>2026-03-22T16:11:30.999Z</time></trkpt><trkpt lat="43.40145460022874" lon="1.9591032295250035"><ele>302.33333333333337</ele><time>2026-03-22T16:11:31.999Z</time></trkpt><trkpt lat="43.40159960765313" lon="1.9589229299344275"><ele>299.6666666666667</ele><time>2026-03-22T16:11:32.999Z</time></trkpt><trkpt lat="43.4017555529744" lon="1.958757982833516"><ele>297.0</ele><time>2026-03-22T16:11:33.999Z</time></trkpt><trkpt lat="43.401921102143895" lon="1.9586036087827177"><ele>297.0</ele><time>2026-03-22T16:11:34.999Z</time></trkpt><trkpt lat="43.402098737921975" lon="1.9584553180338995"><ele>297.0</ele><time>2026-03-22T16:11:36Z</time></trkpt><trkpt lat="43.40227884828306" lon="1.9583146223654502"><ele>297.0</ele><time>2026-03-22T16:11:37Z</time></trkpt><trkpt lat="43.40246311359408" lon="1.9581890608371022"><ele>296.6666666666667</ele><time>2026-03-22T16:11:38Z</time></trkpt><trkpt lat="43.402642362513284" lon="1.9580915853697094"><ele>296.33333333333337</ele><time>2026-03-22T16:11:39Z</time></trkpt><trkpt lat="43.40282301196856" lon="1.9579874385270117"><ele>296.0</ele><time>2026-03-22T16:11:40Z</time></trkpt><trkpt lat="43.40300846373611" lon="1.9578980927712057"><ele>295.6666666666667</ele><time>2026-03-22T16:11:41Z</time></trkpt><trkpt lat="43.40319799926742" lon="1.9578174315249295"><ele>295.3333333333333</ele><time>2026-03-22T16:11:42Z</time></trkpt><trkpt lat="43.4033844184383" lon="1.9577480280206603"><ele>295.0</ele><time>2026-03-22T16:11:43Z</time></trkpt><trkpt lat="43.403576118891316" lon="1.957693164427383"><ele>295.0</ele><time>2026-03-22T16:11:44Z</time></trkpt><trkpt lat="43.40377451267791" lon="1.9576355690358875"><ele>295.0</ele><time>2026-03-22T16:11:45Z</time></trkpt><trkpt lat="43.403971422787535" lon="1.9575962447671427"><ele>295.0</ele><time>2026-03-22T16:11:46Z</time></trkpt><trkpt lat="43.40417309363622" lon="1.957555864835694"><ele>293.5</ele><time>2026-03-22T16:11:47Z</time></trkpt><trkpt lat="43.404395358250795" lon="1.957525216106502"><ele>292.0</ele><time>2026-03-22T16:11:48Z</time></trkpt><trkpt lat="43.40462755381739" lon="1.9574848187730556"><ele>289.5</ele><time>2026-03-22T16:11:49Z</time></trkpt><trkpt lat="43.40485176669437" lon="1.9574442313897313"><ele>287.0</ele><time>2026-03-22T16:11:50Z</time></trkpt><trkpt lat="43.40509688065138" lon="1.957395716523001"><ele>287.0</ele><time>2026-03-22T16:11:51Z</time></trkpt><trkpt lat="43.40534648929135" lon="1.9573429368038198"><ele>287.0</ele><time>2026-03-22T16:11:52Z</time></trkpt><trkpt lat="43.405616889673" lon="1.9573193334069066"><ele>281.5</ele><time>2026-03-22T16:11:53Z</time></trkpt><trkpt lat="43.405884738176454" lon="1.9572781972547266"><ele>276.0</ele><time>2026-03-22T16:11:54Z</time></trkpt><trkpt lat="43.40615885563217" lon="1.9572353905548767"><ele>274.0</ele><time>2026-03-22T16:11:55Z</time></trkpt><trkpt lat="43.406436701649355" lon="1.9571919946415397"><ele>272.0</ele><time>2026-03-22T16:11:56Z</time></trkpt><trkpt lat="43.406707566476385" lon="1.9571506551766107"><ele>272.0</ele><time>2026-03-22T16:11:57Z</time></trkpt><trkpt lat="43.40700737863536" lon="1.9571070921918896"><ele>272.0</ele><time>2026-03-22T16:11:58Z</time></trkpt><trkpt lat="43.4073172221085" lon="1.9570607943406702"><ele>269.0</ele><time>2026-03-22T16:11:59Z</time></trkpt><trkpt lat="43.4076271373652" lon="1.9570146601116638"><ele>266.0</ele><time>2026-03-22T16:12:00Z</time></trkpt><trkpt lat="43.407924991307915" lon="1.9569530832375923"><ele>263.5</ele><time>2026-03-22T16:12:01Z</time></trkpt><trkpt lat="43.40820389299218" lon="1.9569169393997285"><ele>261.0</ele><time>2026-03-22T16:12:02Z</time></trkpt><trkpt lat="43.408478605250025" lon="1.9568821882219836"><ele>261.0</ele><time>2026-03-22T16:12:03Z</time></trkpt><trkpt lat="43.40875399440446" lon="1.9568428012749155"><ele>261.0</ele><time>2026-03-22T16:12:04Z</time></trkpt><trkpt lat="43.40903163764183" lon="1.9568036881628712"><ele>260.5</ele><time>2026-03-22T16:12:05Z</time></trkpt><trkpt lat="43.40931579360955" lon="1.956769270752248"><ele>260.0</ele><time>2026-03-22T16:12:06Z</time></trkpt><trkpt lat="43.40960291268143" lon="1.9567331888353692"><ele>258.5</ele><time>2026-03-22T16:12:07Z</time></trkpt><trkpt lat="43.40988755189944" lon="1.95668869781794"><ele>257.0</ele><time>2026-03-22T16:12:08Z</time></trkpt><trkpt lat="43.41017411860756" lon="1.956643583370277"><ele>257.0</ele><time>2026-03-22T16:12:09Z</time></trkpt><trkpt lat="43.4104748353782" lon="1.9565989258341057"><ele>257.0</ele><time>2026-03-22T16:12:10Z</time></trkpt><trkpt lat="43.410768513640065" lon="1.9565562505615686"><ele>257.0</ele><time>2026-03-22T16:12:11Z</time></trkpt><trkpt lat="43.41105991749928" lon="1.956516704908993"><ele>257.0</ele><time>2026-03-22T16:12:12Z</time></trkpt><trkpt lat="43.41133164716018" lon="1.9564764189172892"><ele>257.5</ele><time>2026-03-22T16:12:13Z</time></trkpt><trkpt lat="43.41160285995219" lon="1.9564390984814108"><ele>258.0</ele><time>2026-03-22T16:12:14Z</time></trkpt><trkpt lat="43.41187494576037" lon="1.9563977680761033"><ele>258.0</ele><time>2026-03-22T16:12:15Z</time></trkpt><trkpt lat="43.412143783655196" lon="1.9563562968139048"><ele>258.0</ele><time>2026-03-22T16:12:16Z</time></trkpt><trkpt lat="43.41242174780635" lon="1.9563250788956443"><ele>258.0</ele><time>2026-03-22T16:12:17Z</time></trkpt><trkpt lat="43.41269414967817" lon="1.956273844876687"><ele>258.0</ele><time>2026-03-22T16:12:18Z</time></trkpt><trkpt lat="43.41296821720537" lon="1.956233926208503"><ele>256.5</ele><time>2026-03-22T16:12:19Z</time></trkpt><trkpt lat="43.4132370546395" lon="1.9561910081542493"><ele>255.0</ele><time>2026-03-22T16:12:20Z</time></trkpt><trkpt lat="43.41350490585021" lon="1.9561483780681508"><ele>255.0</ele><time>2026-03-22T16:12:21Z</time></trkpt><trkpt lat="43.41377175743987" lon="1.9561184717779356"><ele>255.0</ele><time>2026-03-22T16:12:22Z</time></trkpt><trkpt lat="43.41403328375976" lon="1.9560755492597965"><ele>253.0</ele><time>2026-03-22T16:12:23Z</time></trkpt><trkpt lat="43.41432054230689" lon="1.9560353132167172"><ele>251.0</ele><time>2026-03-22T16:12:24Z</time></trkpt><trkpt lat="43.41458676288137" lon="1.9559988335206158"><ele>248.0</ele><time>2026-03-22T16:12:25Z</time></trkpt><trkpt lat="43.414860510771675" lon="1.9559538234947975"><ele>245.0</ele><time>2026-03-22T16:12:26Z</time></trkpt><trkpt lat="43.41514075945457" lon="1.955913629586322"><ele>245.0</ele><time>2026-03-22T16:12:27Z</time></trkpt><trkpt lat="43.41542059752492" lon="1.955876217895349"><ele>245.0</ele><time>2026-03-22T16:12:28Z</time></trkpt><trkpt lat="43.41568588821075" lon="1.9558359004365442"><ele>244.0</ele><time>2026-03-22T16:12:29Z</time></trkpt><trkpt lat="43.41594264732163" lon="1.9557960050400798"><ele>243.0</ele><time>2026-03-22T16:12:30Z</time></trkpt><trkpt lat="43.416204948749126" lon="1.9557560590283072"><ele>242.5</ele><time>2026-03-22T16:12:31Z</time></trkpt><trkpt lat="43.41646472787017" lon="1.9557218627921436"><ele>242.0</ele><time>2026-03-22T16:12:32Z</time></trkpt><trkpt lat="43.41672189725962" lon="1.9556872156325538"><ele>242.0</ele><time>2026-03-22T16:12:33Z</time></trkpt><trkpt lat="43.41697864410243" lon="1.955649262044464"><ele>242.0</ele><time>2026-03-22T16:12:34Z</time></trkpt><trkpt lat="43.41723274712022" lon="1.9556104853614464"><ele>242.0</ele><time>2026-03-22T16:12:35Z</time></trkpt><trkpt lat="43.41749104577238" lon="1.9555730073192183"><ele>242.0</ele><time>2026-03-22T16:12:36Z</time></trkpt><trkpt lat="43.417751204437465" lon="1.955532084179597"><ele>241.0</ele><time>2026-03-22T16:12:37Z</time></trkpt><trkpt lat="43.4180124633461" lon="1.9554971805362928"><ele>240.0</ele><time>2026-03-22T16:12:38Z</time></trkpt><trkpt lat="43.41827821024636" lon="1.9554586819352209"><ele>240.0</ele><time>2026-03-22T16:12:39Z</time></trkpt><trkpt lat="43.41854661893721" lon="1.9554236187703742"><ele>240.0</ele><time>2026-03-22T16:12:40Z</time></trkpt><trkpt lat="43.41881570999755" lon="1.9553849281404916"><ele>236.5</ele><time>2026-03-22T16:12:41Z</time></trkpt><trkpt lat="43.41908670068727" lon="1.9553499169821806"><ele>233.0</ele><time>2026-03-22T16:12:42Z</time></trkpt><trkpt lat="43.41935301967201" lon="1.9553073791039846"><ele>233.0</ele><time>2026-03-22T16:12:43Z</time></trkpt><trkpt lat="43.41962124048626" lon="1.9552686512405537"><ele>233.0</ele><time>2026-03-22T16:12:44Z</time></trkpt><trkpt lat="43.41988235874548" lon="1.9552259941919432"><ele>231.5</ele><time>2026-03-22T16:12:45Z</time></trkpt><trkpt lat="43.420140881547724" lon="1.9551853009001494"><ele>230.0</ele><time>2026-03-22T16:12:46Z</time></trkpt><trkpt lat="43.42039836507162" lon="1.955149774416389"><ele>228.5</ele><time>2026-03-22T16:12:47Z</time></trkpt><trkpt lat="43.42064970066121" lon="1.9551127849446988"><ele>227.0</ele><time>2026-03-22T16:12:48Z</time></trkpt><trkpt lat="43.42090171404056" lon="1.955073387020778"><ele>227.0</ele><time>2026-03-22T16:12:49Z</time></trkpt><trkpt lat="43.42116376198553" lon="1.9550419661223393"><ele>227.0</ele><time>2026-03-22T16:12:50Z</time></trkpt><trkpt lat="43.42141364239606" lon="1.9549997697141728"><ele>226.5</ele><time>2026-03-22T16:12:51Z</time></trkpt><trkpt lat="43.42166949527524" lon="1.954959447513164"><ele>226.0</ele><time>2026-03-22T16:12:52Z</time></trkpt><trkpt lat="43.421930366420895" lon="1.954921587648647"><ele>225.5</ele><time>2026-03-22T16:12:53Z</time></trkpt><trkpt lat="43.422184533339845" lon="1.9548842950844922"><ele>225.0</ele><time>2026-03-22T16:12:54Z</time></trkpt><trkpt lat="43.42246653633851" lon="1.9548339684332314"><ele>225.0</ele><time>2026-03-22T16:12:55Z</time></trkpt><trkpt lat="43.422722409393984" lon="1.954803391131256"><ele>225.0</ele><time>2026-03-22T16:12:56Z</time></trkpt><trkpt lat="43.42298754988311" lon="1.9547651690580203"><ele>224.0</ele><time>2026-03-22T16:12:57Z</time></trkpt><trkpt lat="43.423248545354944" lon="1.9547241620905174"><ele>223.0</ele><time>2026-03-22T16:12:58Z</time></trkpt><trkpt lat="43.423511285809916" lon="1.9546820998752985"><ele>223.0</ele><time>2026-03-22T16:12:59Z</time></trkpt><trkpt lat="43.423772484103644" lon="1.954647261206921"><ele>223.0</ele><time>2026-03-22T16:13:00Z</time></trkpt><trkpt lat="43.42402967180393" lon="1.954611799690585"><ele>223.0</ele><time>2026-03-22T16:13:01Z</time></trkpt><trkpt lat="43.42428082279372" lon="1.9545759739358268"><ele>223.0</ele><time>2026-03-22T16:13:02Z</time></trkpt><trkpt lat="43.42453511239248" lon="1.95453699892797"><ele>222.0</ele><time>2026-03-22T16:13:03Z</time></trkpt><trkpt lat="43.42478377540312" lon="1.9545027337155738"><ele>221.0</ele><time>2026-03-22T16:13:04Z</time></trkpt><trkpt lat="43.42503232882897" lon="1.9544610248255212"><ele>221.0</ele><time>2026-03-22T16:13:05Z</time></trkpt><trkpt lat="43.425280461177124" lon="1.9544270659529186"><ele>221.0</ele><time>2026-03-22T16:13:05.999Z</time></trkpt><trkpt lat="43.42552501048292" lon="1.9543868041777808"><ele>220.5</ele><time>2026-03-22T16:13:06.999Z</time></trkpt><trkpt lat="43.42577241731337" lon="1.9543603895879105"><ele>220.0</ele><time>2026-03-22T16:13:07.999Z</time></trkpt><trkpt lat="43.42601916751105" lon="1.954336875301849"><ele>220.0</ele><time>2026-03-22T16:13:08.999Z</time></trkpt><trkpt lat="43.4262673330974" lon="1.9543270118615172"><ele>220.0</ele><time>2026-03-22T16:13:09.999Z</time></trkpt><trkpt lat="43.42651119879203" lon="1.954303779522146"><ele>220.0</ele><time>2026-03-22T16:13:10.999Z</time></trkpt><trkpt lat="43.42676258931676" lon="1.954260972059523"><ele>220.0</ele><time>2026-03-22T16:13:11.999Z</time></trkpt><trkpt lat="43.42701190215266" lon="1.9542183715967312"><ele>220.5</ele><time>2026-03-22T16:13:12.999Z</time></trkpt><trkpt lat="43.42726863788592" lon="1.954166246678226"><ele>221.0</ele><time>2026-03-22T16:13:13.999Z</time></trkpt><trkpt lat="43.42752515146259" lon="1.954108302320282"><ele>221.0</ele><time>2026-03-22T16:13:14.999Z</time></trkpt><trkpt lat="43.42778219347503" lon="1.954055852109876"><ele>221.0</ele><time>2026-03-22T16:13:15.999Z</time></trkpt><trkpt lat="43.42803856220195" lon="1.9540166984207337"><ele>221.0</ele><time>2026-03-22T16:13:16.999Z</time></trkpt><trkpt lat="43.42828333166468" lon="1.9539817304568405"><ele>221.0</ele><time>2026-03-22T16:13:17.999Z</time></trkpt><trkpt lat="43.42852850034744" lon="1.95394763681229"><ele>221.0</ele><time>2026-03-22T16:13:18.999Z</time></trkpt><trkpt lat="43.42873625708232" lon="1.9539238040247866"><ele>221.0</ele><time>2026-03-22T16:13:19.999Z</time></trkpt><trkpt lat="43.42893644145581" lon="1.953896562591033"><ele>221.0</ele><time>2026-03-22T16:13:20.999Z</time></trkpt><trkpt lat="43.42911818938027" lon="1.9538631598950977"><ele>220.33333333333334</ele><time>2026-03-22T16:13:21.999Z</time></trkpt><trkpt lat="43.429287621806125" lon="1.9538305923369241"><ele>219.66666666666669</ele><time>2026-03-22T16:13:22.999Z</time></trkpt><trkpt lat="43.42945043724815" lon="1.9538111077172806"><ele>219.0</ele><time>2026-03-22T16:13:23.999Z</time></trkpt><trkpt lat="43.429622175553604" lon="1.9537895991302465"><ele>219.33333333333331</ele><time>2026-03-22T16:13:24.999Z</time></trkpt><trkpt lat="43.42979692374107" lon="1.9537616764760908"><ele>219.66666666666666</ele><time>2026-03-22T16:13:25.999Z</time></trkpt><trkpt lat="43.42995944864854" lon="1.953737847979759"><ele>220.0</ele><time>2026-03-22T16:13:26.999Z</time></trkpt><trkpt lat="43.43011996161044" lon="1.9537222005294292"><ele>220.0</ele><time>2026-03-22T16:13:27.999Z</time></trkpt><trkpt lat="43.430278108145195" lon="1.953690240879536"><ele>220.0</ele><time>2026-03-22T16:13:28.999Z</time></trkpt><trkpt lat="43.430449988433445" lon="1.9536488085196595"><ele>220.0</ele><time>2026-03-22T16:13:29.999Z</time></trkpt><trkpt lat="43.430618559054906" lon="1.9536244708745667"><ele>219.66666666666666</ele><time>2026-03-22T16:13:30.999Z</time></trkpt><trkpt lat="43.43079916460154" lon="1.9535964552438623"><ele>219.33333333333331</ele><time>2026-03-22T16:13:31.999Z</time></trkpt><trkpt lat="43.43097670254423" lon="1.9535656294100643"><ele>219.0</ele><time>2026-03-22T16:13:32.999Z</time></trkpt><trkpt lat="43.4311594913978" lon="1.953537590101717"><ele>219.0</ele><time>2026-03-22T16:13:33.999Z</time></trkpt><trkpt lat="43.43134505490448" lon="1.9535047785708826"><ele>219.0</ele><time>2026-03-22T16:13:34.999Z</time></trkpt><trkpt lat="43.43153416183983" lon="1.9534732794558742"><ele>219.0</ele><time>2026-03-22T16:13:35.999Z</time></trkpt><trkpt lat="43.431731390941664" lon="1.9534472372869343"><ele>219.0</ele><time>2026-03-22T16:13:36.999Z</time></trkpt><trkpt lat="43.43193438485205" lon="1.953424764356131"><ele>219.0</ele><time>2026-03-22T16:13:37.999Z</time></trkpt><trkpt lat="43.432127571555775" lon="1.9533925756331463"><ele>219.0</ele><time>2026-03-22T16:13:38.999Z</time></trkpt><trkpt lat="43.43232720057487" lon="1.953359906230211"><ele>218.66666666666669</ele><time>2026-03-22T16:13:39.999Z</time></trkpt><trkpt lat="43.432530250428684" lon="1.9533314518445695"><ele>218.33333333333334</ele><time>2026-03-22T16:13:40.999Z</time></trkpt><trkpt lat="43.432735269946036" lon="1.9533072221004406"><ele>218.0</ele><time>2026-03-22T16:13:42Z</time></trkpt><trkpt lat="43.43294391220953" lon="1.953277071288235"><ele>218.0</ele><time>2026-03-22T16:13:43Z</time></trkpt><trkpt lat="43.43316739571543" lon="1.953253954725628"><ele>218.0</ele><time>2026-03-22T16:13:44Z</time></trkpt><trkpt lat="43.433402119127756" lon="1.9532236410953137"><ele>218.0</ele><time>2026-03-22T16:13:45Z</time></trkpt><trkpt lat="43.43362289004051" lon="1.9531910807805106"><ele>218.0</ele><time>2026-03-22T16:13:46Z</time></trkpt><trkpt lat="43.43384021582658" lon="1.9531631745512272"><ele>218.0</ele><time>2026-03-22T16:13:47Z</time></trkpt><trkpt lat="43.434059280465" lon="1.9531234521104213"><ele>216.5</ele><time>2026-03-22T16:13:48Z</time></trkpt><trkpt lat="43.4342909689427" lon="1.9530855263653049"><ele>215.0</ele><time>2026-03-22T16:13:49Z</time></trkpt><trkpt lat="43.434528680313576" lon="1.953048409882763"><ele>215.0</ele><time>2026-03-22T16:13:50Z</time></trkpt><trkpt lat="43.43476515426013" lon="1.9530096822571752"><ele>215.0</ele><time>2026-03-22T16:13:51Z</time></trkpt><trkpt lat="43.43500729572325" lon="1.952974440148517"><ele>215.0</ele><time>2026-03-22T16:13:52Z</time></trkpt><trkpt lat="43.43525744670804" lon="1.9529244183689884"><ele>215.0</ele><time>2026-03-22T16:13:53Z</time></trkpt><trkpt lat="43.43550514988478" lon="1.9528827381058496"><ele>215.5</ele><time>2026-03-22T16:13:54Z</time></trkpt><trkpt lat="43.435778357311825" lon="1.952853072337635"><ele>216.0</ele><time>2026-03-22T16:13:55Z</time></trkpt><trkpt lat="43.43608422915971" lon="1.9528278876432623"><ele>215.0</ele><time>2026-03-22T16:13:56Z</time></trkpt><trkpt lat="43.43640056309402" lon="1.9527918503485442"><ele>214.0</ele><time>2026-03-22T16:13:57Z</time></trkpt><trkpt lat="43.43670847658431" lon="1.9527308452790801"><ele>214.0</ele><time>2026-03-22T16:13:58Z</time></trkpt><trkpt lat="43.436984213164045" lon="1.9526821921824418"><ele>214.0</ele><time>2026-03-22T16:13:59Z</time></trkpt><trkpt lat="43.43725305069673" lon="1.9526402595661807"><ele>214.0</ele><time>2026-03-22T16:14:00Z</time></trkpt><trkpt lat="43.4375240850377" lon="1.952597572096717"><ele>214.0</ele><time>2026-03-22T16:14:01Z</time></trkpt><trkpt lat="43.43778926473758" lon="1.9525590338079797"><ele>214.0</ele><time>2026-03-22T16:14:02Z</time></trkpt><trkpt lat="43.438055922844235" lon="1.9525197181156104"><ele>214.0</ele><time>2026-03-22T16:14:03Z</time></trkpt><trkpt lat="43.438328664297565" lon="1.9524756393623899"><ele>214.0</ele><time>2026-03-22T16:14:04Z</time></trkpt><trkpt lat="43.43860400832349" lon="1.9524322166292265"><ele>214.0</ele><time>2026-03-22T16:14:05Z</time></trkpt><trkpt lat="43.438863002038026" lon="1.9523892452205018"><ele>214.0</ele><time>2026-03-22T16:14:06Z</time></trkpt><trkpt lat="43.43911792669657" lon="1.9523472571304423"><ele>214.0</ele><time>2026-03-22T16:14:07Z</time></trkpt><trkpt lat="43.439378517608944" lon="1.9523112764793467"><ele>215.5</ele><time>2026-03-22T16:14:08Z</time></trkpt><trkpt lat="43.43966605722974" lon="1.9522754081835323"><ele>217.0</ele><time>2026-03-22T16:14:09Z</time></trkpt><trkpt lat="43.43994836076882" lon="1.9522248803332807"><ele>217.0</ele><time>2026-03-22T16:14:10Z</time></trkpt><trkpt lat="43.44020157348798" lon="1.9521876899569433"><ele>217.0</ele><time>2026-03-22T16:14:11Z</time></trkpt><trkpt lat="43.440462886929026" lon="1.9521473090910442"><ele>216.5</ele><time>2026-03-22T16:14:12Z</time></trkpt><trkpt lat="43.44074137229962" lon="1.9521124075149192"><ele>216.0</ele><time>2026-03-22T16:14:13Z</time></trkpt><trkpt lat="43.44099791524445" lon="1.9520722001398638"><ele>216.0</ele><time>2026-03-22T16:14:14Z</time></trkpt><trkpt lat="43.44127221688895" lon="1.9520414436309004"><ele>216.0</ele><time>2026-03-22T16:14:15Z</time></trkpt><trkpt lat="43.44152011971054" lon="1.9519987472367768"><ele>215.0</ele><time>2026-03-22T16:14:16Z</time></trkpt><trkpt lat="43.44175768844675" lon="1.9519602686523445"><ele>214.0</ele><time>2026-03-22T16:14:17Z</time></trkpt><trkpt lat="43.44198175478534" lon="1.9519299014967169"><ele>215.0</ele><time>2026-03-22T16:14:18Z</time></trkpt><trkpt lat="43.44219800559828" lon="1.9518892468370295"><ele>216.0</ele><time>2026-03-22T16:14:19Z</time></trkpt><trkpt lat="43.44241584737943" lon="1.9518613379686607"><ele>217.0</ele><time>2026-03-22T16:14:20Z</time></trkpt><trkpt lat="43.44262191533746" lon="1.95183154162577"><ele>217.0</ele><time>2026-03-22T16:14:21Z</time></trkpt><trkpt lat="43.442830029282206" lon="1.9517998584481049"><ele>217.0</ele><time>2026-03-22T16:14:22Z</time></trkpt><trkpt lat="43.44302534896124" lon="1.9517707447185013"><ele>217.0</ele><time>2026-03-22T16:14:23Z</time></trkpt><trkpt lat="43.44320267636633" lon="1.9517349580963783"><ele>216.33333333333331</ele><time>2026-03-22T16:14:24Z</time></trkpt><trkpt lat="43.44337303465232" lon="1.9517028621451076"><ele>215.66666666666669</ele><time>2026-03-22T16:14:25Z</time></trkpt><trkpt lat="43.44353005222175" lon="1.9516722989833812"><ele>215.0</ele><time>2026-03-22T16:14:26Z</time></trkpt><trkpt lat="43.44369216058821" lon="1.9516498929541992"><ele>214.0</ele><time>2026-03-22T16:14:27Z</time></trkpt><trkpt lat="43.44384276276294" lon="1.9516257616493153"><ele>213.0</ele><time>2026-03-22T16:14:28Z</time></trkpt><trkpt lat="43.4440037302305" lon="1.9516252688802913"><ele>212.0</ele><time>2026-03-22T16:14:29Z</time></trkpt><trkpt lat="43.44414290877877" lon="1.951603591250708"><ele>212.0</ele><time>2026-03-22T16:14:30Z</time></trkpt><trkpt lat="43.44427035964288" lon="1.9515816077095116"><ele>212.0</ele><time>2026-03-22T16:14:31Z</time></trkpt><trkpt lat="43.44440722058778" lon="1.951587417460728"><ele>212.0</ele><time>2026-03-22T16:14:32Z</time></trkpt><trkpt lat="43.444530833014035" lon="1.9516027395007922"><ele>212.0</ele><time>2026-03-22T16:14:33Z</time></trkpt><trkpt lat="43.44465119512778" lon="1.9516377871456536"><ele>211.8</ele><time>2026-03-22T16:14:34Z</time></trkpt><trkpt lat="43.444756963879406" lon="1.9516665976040424"><ele>211.6</ele><time>2026-03-22T16:14:35Z</time></trkpt><trkpt lat="43.4448625453086" lon="1.951701605507737"><ele>211.4</ele><time>2026-03-22T16:14:36Z</time></trkpt><trkpt lat="43.444972442470124" lon="1.9517364088412537"><ele>211.20000000000002</ele><time>2026-03-22T16:14:37Z</time></trkpt><trkpt lat="43.44506723132753" lon="1.951788017562817"><ele>211.0</ele><time>2026-03-22T16:14:38Z</time></trkpt><trkpt lat="43.44512151753007" lon="1.951832845673951"><ele>210.99999999999997</ele><time>2026-03-22T16:14:39Z</time></trkpt><trkpt lat="43.445190642731944" lon="1.951899843760547"><ele>211.0</ele><time>2026-03-22T16:14:41Z</time></trkpt><trkpt lat="43.44526987342851" lon="1.9519591158658343"><ele>211.0</ele><time>2026-03-22T16:14:44Z</time></trkpt><trkpt lat="43.44540040800018" lon="1.951912344145184"><ele>211.0</ele><time>2026-03-22T16:14:46Z</time></trkpt><trkpt lat="43.445453257670394" lon="1.9518609980176431"><ele>210.99999999999997</ele><time>2026-03-22T16:14:47Z</time></trkpt><trkpt lat="43.44550117313283" lon="1.9517887746819185"><ele>211.0</ele><time>2026-03-22T16:14:48Z</time></trkpt><trkpt lat="43.445534303926024" lon="1.9517115672335679"><ele>210.8</ele><time>2026-03-22T16:14:49Z</time></trkpt><trkpt lat="43.44557220117875" lon="1.951583740328638"><ele>210.60000000000002</ele><time>2026-03-22T16:14:50Z</time></trkpt><trkpt lat="43.44558767701932" lon="1.9514483403040461"><ele>210.4</ele><time>2026-03-22T16:14:51Z</time></trkpt><trkpt lat="43.44559127063698" lon="1.951294787366908"><ele>210.2</ele><time>2026-03-22T16:14:52Z</time></trkpt><trkpt lat="43.44560105424253" lon="1.9511449191269696"><ele>210.0</ele><time>2026-03-22T16:14:53Z</time></trkpt><trkpt lat="43.445616970792" lon="1.9509503159292376"><ele>209.0</ele><time>2026-03-22T16:14:54Z</time></trkpt><trkpt lat="43.445639732895096" lon="1.9507077453769142"><ele>208.0</ele><time>2026-03-22T16:14:55Z</time></trkpt><trkpt lat="43.4456600632583" lon="1.9504608268080235"><ele>207.0</ele><time>2026-03-22T16:14:56Z</time></trkpt><trkpt lat="43.44568559081827" lon="1.9501763155190868"><ele>206.66666666666669</ele><time>2026-03-22T16:14:56.999Z</time></trkpt><trkpt lat="43.44571517996372" lon="1.9498833417596335"><ele>206.33333333333334</ele><time>2026-03-22T16:14:57.999Z</time></trkpt><trkpt lat="43.44574975466208" lon="1.9496261108381965"><ele>206.0</ele><time>2026-03-22T16:14:58.999Z</time></trkpt><trkpt lat="43.44577272892374" lon="1.9493685138641326"><ele>206.33333333333334</ele><time>2026-03-22T16:14:59.999Z</time></trkpt><trkpt lat="43.445797710066735" lon="1.9491429813590921"><ele>206.66666666666669</ele><time>2026-03-22T16:15:00.999Z</time></trkpt><trkpt lat="43.445821957314614" lon="1.9489156502146723"><ele>207.0</ele><time>2026-03-22T16:15:01.999Z</time></trkpt><trkpt lat="43.44583990770709" lon="1.9486624243896746"><ele>207.0</ele><time>2026-03-22T16:15:02.999Z</time></trkpt><trkpt lat="43.44586541163637" lon="1.9484041488638855"><ele>207.0</ele><time>2026-03-22T16:15:03.999Z</time></trkpt><trkpt lat="43.445887776574345" lon="1.948146940281788"><ele>207.0</ele><time>2026-03-22T16:15:04.999Z</time></trkpt><trkpt lat="43.44590993401757" lon="1.9478789721744278"><ele>207.0</ele><time>2026-03-22T16:15:05.999Z</time></trkpt><trkpt lat="43.44593447009056" lon="1.9476143512590374"><ele>207.0</ele><time>2026-03-22T16:15:06.999Z</time></trkpt><trkpt lat="43.44596049950866" lon="1.9473484173317752"><ele>207.0</ele><time>2026-03-22T16:15:07.999Z</time></trkpt><trkpt lat="43.44598973788955" lon="1.9470806887212555"><ele>207.0</ele><time>2026-03-22T16:15:08.999Z</time></trkpt><trkpt lat="43.44601257195501" lon="1.946805118170362"><ele>207.0</ele><time>2026-03-22T16:15:09.999Z</time></trkpt><trkpt lat="43.446036586529445" lon="1.9465234439898491"><ele>207.0</ele><time>2026-03-22T16:15:10.999Z</time></trkpt><trkpt lat="43.4460644472589" lon="1.9462144306784186"><ele>207.0</ele><time>2026-03-22T16:15:11.999Z</time></trkpt><trkpt lat="43.44608860257403" lon="1.9459287068839617"><ele>207.0</ele><time>2026-03-22T16:15:12.999Z</time></trkpt><trkpt lat="43.44609888468386" lon="1.9456735538142156"><ele>207.0</ele><time>2026-03-22T16:15:13.999Z</time></trkpt><trkpt lat="43.446107209000715" lon="1.9454233752202663"><ele>207.33333333333331</ele><time>2026-03-22T16:15:14.999Z</time></trkpt><trkpt lat="43.446127297093334" lon="1.9451650444240973"><ele>207.66666666666666</ele><time>2026-03-22T16:15:15.999Z</time></trkpt><trkpt lat="43.446150416121654" lon="1.9448792633769303"><ele>208.0</ele><time>2026-03-22T16:15:16.999Z</time></trkpt><trkpt lat="43.44623865901202" lon="1.9443502653121332"><ele>207.0</ele><time>2026-03-22T16:15:17.999Z</time></trkpt><trkpt lat="43.446267524529105" lon="1.9440165624494081"><ele>206.0</ele><time>2026-03-22T16:15:18.999Z</time></trkpt><trkpt lat="43.44629791314323" lon="1.9437154220750115"><ele>205.5</ele><time>2026-03-22T16:15:19.999Z</time></trkpt><trkpt lat="43.44632460899486" lon="1.943386998122105"><ele>205.0</ele><time>2026-03-22T16:15:20.999Z</time></trkpt><trkpt lat="43.446353854305485" lon="1.9430685081816803"><ele>205.66666666666666</ele><time>2026-03-22T16:15:21.999Z</time></trkpt><trkpt lat="43.446385731613965" lon="1.9427777756131586"><ele>206.33333333333331</ele><time>2026-03-22T16:15:22.999Z</time></trkpt><trkpt lat="43.446418743016054" lon="1.9424585490860822"><ele>207.0</ele><time>2026-03-22T16:15:23.999Z</time></trkpt><trkpt lat="43.44645285714401" lon="1.9421324150220454"><ele>207.0</ele><time>2026-03-22T16:15:24.999Z</time></trkpt><trkpt lat="43.44648263586434" lon="1.9418388095417904"><ele>207.0</ele><time>2026-03-22T16:15:25.999Z</time></trkpt><trkpt lat="43.44651412370212" lon="1.9415288769252124"><ele>207.0</ele><time>2026-03-22T16:15:26.999Z</time></trkpt><trkpt lat="43.44654432977906" lon="1.9412166683143621"><ele>207.0</ele><time>2026-03-22T16:15:27.999Z</time></trkpt><trkpt lat="43.446581126493626" lon="1.9408931766387432"><ele>207.0</ele><time>2026-03-22T16:15:28.999Z</time></trkpt><trkpt lat="43.44660965378871" lon="1.9405824232691817"><ele>207.0</ele><time>2026-03-22T16:15:29.999Z</time></trkpt><trkpt lat="43.44663254865366" lon="1.9402335687920786"><ele>207.0</ele><time>2026-03-22T16:15:30.999Z</time></trkpt><trkpt lat="43.44666947445728" lon="1.939936906034665"><ele>207.0</ele><time>2026-03-22T16:15:31.999Z</time></trkpt><trkpt lat="43.446694263600364" lon="1.939615928145132"><ele>207.0</ele><time>2026-03-22T16:15:32.999Z</time></trkpt><trkpt lat="43.44671993167897" lon="1.9392958015536519"><ele>206.5</ele><time>2026-03-22T16:15:33.999Z</time></trkpt><trkpt lat="43.44674994573072" lon="1.9389734780797665"><ele>206.0</ele><time>2026-03-22T16:15:34.999Z</time></trkpt><trkpt lat="43.44678318666422" lon="1.9386530029066313"><ele>207.0</ele><time>2026-03-22T16:15:35.999Z</time></trkpt><trkpt lat="43.446809269695585" lon="1.9383385018426218"><ele>208.0</ele><time>2026-03-22T16:15:36.999Z</time></trkpt><trkpt lat="43.44684819217101" lon="1.9380102509683077"><ele>208.0</ele><time>2026-03-22T16:15:37.999Z</time></trkpt><trkpt lat="43.446894732316714" lon="1.9376584189410315"><ele>208.0</ele><time>2026-03-22T16:15:38.999Z</time></trkpt><trkpt lat="43.44692385409625" lon="1.937265495887544"><ele>208.0</ele><time>2026-03-22T16:15:39.999Z</time></trkpt><trkpt lat="43.446955298474506" lon="1.9369271777814956"><ele>208.0</ele><time>2026-03-22T16:15:40.999Z</time></trkpt><trkpt lat="43.44698769881188" lon="1.9366060835872423"><ele>208.0</ele><time>2026-03-22T16:15:41.999Z</time></trkpt><trkpt lat="43.44701925943928" lon="1.9362845630847456"><ele>208.0</ele><time>2026-03-22T16:15:42.999Z</time></trkpt><trkpt lat="43.44705147096724" lon="1.9359529770926514"><ele>208.5</ele><time>2026-03-22T16:15:43.999Z</time></trkpt><trkpt lat="43.44708710266406" lon="1.9356139871306086"><ele>209.0</ele><time>2026-03-22T16:15:44.999Z</time></trkpt><trkpt lat="43.44711836142703" lon="1.9352655208975542"><ele>208.5</ele><time>2026-03-22T16:15:45.999Z</time></trkpt><trkpt lat="43.44715269763743" lon="1.9349012545707032"><ele>208.0</ele><time>2026-03-22T16:15:46.999Z</time></trkpt><trkpt lat="43.447244266135705" lon="1.9345551588034686"><ele>208.0</ele><time>2026-03-22T16:15:48Z</time></trkpt><trkpt lat="43.4473337215955" lon="1.9342684882778023"><ele>208.0</ele><time>2026-03-22T16:15:49Z</time></trkpt><trkpt lat="43.4474442413055" lon="1.9340320123174186"><ele>208.0</ele><time>2026-03-22T16:15:50Z</time></trkpt><trkpt lat="43.44772555006819" lon="1.9337512466046147"><ele>210.0</ele><time>2026-03-22T16:15:51Z</time></trkpt><trkpt lat="43.447312865835464" lon="1.933266063960986"><ele>210.0</ele><time>2026-03-22T16:15:52Z</time></trkpt><trkpt lat="43.447343084753356" lon="1.9329828209587017"><ele>210.0</ele><time>2026-03-22T16:15:53Z</time></trkpt><trkpt lat="43.447370679291836" lon="1.9326999710110497"><ele>210.0</ele><time>2026-03-22T16:15:54Z</time></trkpt><trkpt lat="43.44739650766227" lon="1.932438321769236"><ele>209.33333333333331</ele><time>2026-03-22T16:15:55Z</time></trkpt><trkpt lat="43.4474174247368" lon="1.9321836626560671"><ele>208.66666666666666</ele><time>2026-03-22T16:15:56Z</time></trkpt><trkpt lat="43.44743846791971" lon="1.9319332513786167"><ele>208.0</ele><time>2026-03-22T16:15:57Z</time></trkpt><trkpt lat="43.447464227790775" lon="1.9316862528460759"><ele>207.33333333333331</ele><time>2026-03-22T16:15:58Z</time></trkpt><trkpt lat="43.447485380452406" lon="1.9314455467014713"><ele>206.66666666666669</ele><time>2026-03-22T16:15:59Z</time></trkpt><trkpt lat="43.44751099811685" lon="1.931203313781691"><ele>206.0</ele><time>2026-03-22T16:16:00Z</time></trkpt><trkpt lat="43.44754207218762" lon="1.9309595293233857"><ele>206.0</ele><time>2026-03-22T16:16:01Z</time></trkpt><trkpt lat="43.447567237827066" lon="1.930711050667429"><ele>206.0</ele><time>2026-03-22T16:16:02Z</time></trkpt><trkpt lat="43.447590411228425" lon="1.930482612723979"><ele>206.0</ele><time>2026-03-22T16:16:03Z</time></trkpt><trkpt lat="43.44761241492319" lon="1.9302623050320074"><ele>205.66666666666669</ele><time>2026-03-22T16:16:04Z</time></trkpt><trkpt lat="43.447634567373164" lon="1.930043957979763"><ele>205.33333333333331</ele><time>2026-03-22T16:16:05Z</time></trkpt><trkpt lat="43.44765321730628" lon="1.9298079043439627"><ele>205.0</ele><time>2026-03-22T16:16:06Z</time></trkpt><trkpt lat="43.44767903582272" lon="1.9295332590484078"><ele>205.0</ele><time>2026-03-22T16:16:07Z</time></trkpt><trkpt lat="43.44770453975126" lon="1.929253118866175"><ele>205.0</ele><time>2026-03-22T16:16:08Z</time></trkpt><trkpt lat="43.44772758594017" lon="1.9289783911104303"><ele>205.0</ele><time>2026-03-22T16:16:09Z</time></trkpt><trkpt lat="43.44775208813402" lon="1.9286999739491055"><ele>205.0</ele><time>2026-03-22T16:16:10Z</time></trkpt><trkpt lat="43.44777840502922" lon="1.9284120197204213"><ele>205.0</ele><time>2026-03-22T16:16:11Z</time></trkpt><trkpt lat="43.4478041051818" lon="1.928100210525529"><ele>205.0</ele><time>2026-03-22T16:16:12Z</time></trkpt><trkpt lat="43.44783262662806" lon="1.9277594717456341"><ele>203.0</ele><time>2026-03-22T16:16:13Z</time></trkpt><trkpt lat="43.44786580123127" lon="1.927399054773004"><ele>201.0</ele><time>2026-03-22T16:16:14Z</time></trkpt><trkpt lat="43.44790067103039" lon="1.9270134334649167"><ele>201.0</ele><time>2026-03-22T16:16:15Z</time></trkpt><trkpt lat="43.44793332803537" lon="1.9266370336459544"><ele>201.0</ele><time>2026-03-22T16:16:16Z</time></trkpt><trkpt lat="43.44796273654171" lon="1.9262979472694288"><ele>201.0</ele><time>2026-03-22T16:16:17Z</time></trkpt><trkpt lat="43.44799548180996" lon="1.9259815140667245"><ele>201.0</ele><time>2026-03-22T16:16:18Z</time></trkpt><trkpt lat="43.448025843791434" lon="1.9256859452862263"><ele>201.0</ele><time>2026-03-22T16:16:19Z</time></trkpt><trkpt lat="43.44804727058601" lon="1.9254027877944053"><ele>201.0</ele><time>2026-03-22T16:16:20Z</time></trkpt><trkpt lat="43.44807370388211" lon="1.9251206219224988"><ele>201.0</ele><time>2026-03-22T16:16:21Z</time></trkpt><trkpt lat="43.44810652255556" lon="1.924832888859609"><ele>201.0</ele><time>2026-03-22T16:16:22Z</time></trkpt><trkpt lat="43.448133135420925" lon="1.9245398444491366"><ele>200.66666666666669</ele><time>2026-03-22T16:16:23Z</time></trkpt><trkpt lat="43.44816217062109" lon="1.9242410391490616"><ele>200.33333333333334</ele><time>2026-03-22T16:16:24Z</time></trkpt><trkpt lat="43.44819333355331" lon="1.9239423622042755"><ele>200.0</ele><time>2026-03-22T16:16:25Z</time></trkpt><trkpt lat="43.44819720004061" lon="1.9236334192349693"><ele>200.66666666666669</ele><time>2026-03-22T16:16:26Z</time></trkpt><trkpt lat="43.44823351505776" lon="1.9233452563516868"><ele>201.33333333333331</ele><time>2026-03-22T16:16:27Z</time></trkpt><trkpt lat="43.44827209670435" lon="1.9230362244580024"><ele>202.0</ele><time>2026-03-22T16:16:28Z</time></trkpt><trkpt lat="43.448303969899754" lon="1.922747716973264"><ele>202.0</ele><time>2026-03-22T16:16:29Z</time></trkpt><trkpt lat="43.44833232776875" lon="1.922479463922153"><ele>202.0</ele><time>2026-03-22T16:16:30Z</time></trkpt><trkpt lat="43.44835461142363" lon="1.922223746501333"><ele>202.0</ele><time>2026-03-22T16:16:31Z</time></trkpt><trkpt lat="43.4483706647327" lon="1.9219653456333734"><ele>202.0</ele><time>2026-03-22T16:16:32Z</time></trkpt><trkpt lat="43.44840084539262" lon="1.9217028225162722"><ele>202.0</ele><time>2026-03-22T16:16:33Z</time></trkpt><trkpt lat="43.44842790867392" lon="1.9214385213041123"><ele>202.0</ele><time>2026-03-22T16:16:34Z</time></trkpt><trkpt lat="43.44845410990602" lon="1.9211807305873219"><ele>202.0</ele><time>2026-03-22T16:16:35Z</time></trkpt><trkpt lat="43.44847891288951" lon="1.9209372257620014"><ele>202.0</ele><time>2026-03-22T16:16:36Z</time></trkpt><trkpt lat="43.448498765037286" lon="1.9206938713195292"><ele>202.0</ele><time>2026-03-22T16:16:37Z</time></trkpt><trkpt lat="43.44852163666943" lon="1.9204467635448084"><ele>202.0</ele><time>2026-03-22T16:16:38Z</time></trkpt><trkpt lat="43.448543317143994" lon="1.9202138304952512"><ele>202.0</ele><time>2026-03-22T16:16:39Z</time></trkpt><trkpt lat="43.44856650745386" lon="1.919973342084032"><ele>202.0</ele><time>2026-03-22T16:16:40Z</time></trkpt><trkpt lat="43.44858956577759" lon="1.9197341238002934"><ele>202.0</ele><time>2026-03-22T16:16:41Z</time></trkpt><trkpt lat="43.44860364526331" lon="1.9194972971588808"><ele>202.0</ele><time>2026-03-22T16:16:42Z</time></trkpt><trkpt lat="43.4486303875728" lon="1.9192479941304281"><ele>202.0</ele><time>2026-03-22T16:16:43Z</time></trkpt><trkpt lat="43.448652376861425" lon="1.9190039313908285"><ele>202.0</ele><time>2026-03-22T16:16:44Z</time></trkpt><trkpt lat="43.44867381406186" lon="1.9187514101849472"><ele>202.0</ele><time>2026-03-22T16:16:45Z</time></trkpt><trkpt lat="43.44870233786309" lon="1.9184863989267673"><ele>202.0</ele><time>2026-03-22T16:16:46Z</time></trkpt><trkpt lat="43.44872793897709" lon="1.9182317308028265"><ele>202.0</ele><time>2026-03-22T16:16:47Z</time></trkpt><trkpt lat="43.44875921628649" lon="1.9179547969942696"><ele>202.0</ele><time>2026-03-22T16:16:48Z</time></trkpt><trkpt lat="43.448789320130466" lon="1.9176813036634344"><ele>202.0</ele><time>2026-03-22T16:16:49Z</time></trkpt><trkpt lat="43.44882375951689" lon="1.9174051462649666"><ele>202.33333333333331</ele><time>2026-03-22T16:16:50Z</time></trkpt><trkpt lat="43.44885973964005" lon="1.9171242059204219"><ele>202.66666666666669</ele><time>2026-03-22T16:16:51Z</time></trkpt><trkpt lat="43.44889445689811" lon="1.9168690927081995"><ele>203.0</ele><time>2026-03-22T16:16:52Z</time></trkpt><trkpt lat="43.44892282089888" lon="1.916625145227163"><ele>203.0</ele><time>2026-03-22T16:16:53Z</time></trkpt><trkpt lat="43.44894673417823" lon="1.9163844191383526"><ele>203.0</ele><time>2026-03-22T16:16:54Z</time></trkpt><trkpt lat="43.44897338383261" lon="1.9161398453866445"><ele>203.0</ele><time>2026-03-22T16:16:55Z</time></trkpt><trkpt lat="43.4489967244638" lon="1.9158935254622083"><ele>203.0</ele><time>2026-03-22T16:16:56Z</time></trkpt><trkpt lat="43.44901594713077" lon="1.9156391917417488"><ele>203.0</ele><time>2026-03-22T16:16:57Z</time></trkpt><trkpt lat="43.44903416563771" lon="1.9153770470164577"><ele>203.0</ele><time>2026-03-22T16:16:58Z</time></trkpt><trkpt lat="43.449051990602094" lon="1.9150988444235668"><ele>204.0</ele><time>2026-03-22T16:16:59Z</time></trkpt><trkpt lat="43.44907355310018" lon="1.9148154947737501"><ele>205.0</ele><time>2026-03-22T16:17:00Z</time></trkpt><trkpt lat="43.44909920831782" lon="1.9145489407248877"><ele>206.0</ele><time>2026-03-22T16:17:01Z</time></trkpt><trkpt lat="43.44912058711493" lon="1.9142738057792448"><ele>206.66666666666669</ele><time>2026-03-22T16:17:02Z</time></trkpt><trkpt lat="43.44914500852352" lon="1.9139918436430847"><ele>207.33333333333331</ele><time>2026-03-22T16:17:03Z</time></trkpt><trkpt lat="43.44917200597149" lon="1.9137154179883276"><ele>208.0</ele><time>2026-03-22T16:17:04Z</time></trkpt><trkpt lat="43.449202714631284" lon="1.913489430167985"><ele>208.66666666666666</ele><time>2026-03-22T16:17:05Z</time></trkpt><trkpt lat="43.44922766188898" lon="1.913232286079608"><ele>209.33333333333331</ele><time>2026-03-22T16:17:06Z</time></trkpt><trkpt lat="43.44925087323127" lon="1.9129715116516555"><ele>210.0</ele><time>2026-03-22T16:17:07Z</time></trkpt><trkpt lat="43.4492908008117" lon="1.9127397776693897"><ele>210.33333333333331</ele><time>2026-03-22T16:17:08Z</time></trkpt><trkpt lat="43.44931274339745" lon="1.9124717869129944"><ele>210.66666666666666</ele><time>2026-03-22T16:17:09Z</time></trkpt><trkpt lat="43.44932505771283" lon="1.9122195384591427"><ele>211.0</ele><time>2026-03-22T16:17:09.999Z</time></trkpt><trkpt lat="43.449348459273715" lon="1.9119656499571045"><ele>211.33333333333331</ele><time>2026-03-22T16:17:10.999Z</time></trkpt><trkpt lat="43.44937567061792" lon="1.911732123330813"><ele>211.66666666666669</ele><time>2026-03-22T16:17:11.999Z</time></trkpt><trkpt lat="43.44939844428507" lon="1.9114816689845122"><ele>212.0</ele><time>2026-03-22T16:17:12.999Z</time></trkpt><trkpt lat="43.449423596714" lon="1.911242155707871"><ele>212.0</ele><time>2026-03-22T16:17:13.999Z</time></trkpt><trkpt lat="43.449440358355915" lon="1.9109945756427311"><ele>212.0</ele><time>2026-03-22T16:17:14.999Z</time></trkpt><trkpt lat="43.44946898277471" lon="1.9107419999666557"><ele>212.0</ele><time>2026-03-22T16:17:15.999Z</time></trkpt><trkpt lat="43.44949195271801" lon="1.9104747038168022"><ele>212.66666666666669</ele><time>2026-03-22T16:17:16.999Z</time></trkpt><trkpt lat="43.44952186631884" lon="1.9101884871728672"><ele>213.33333333333331</ele><time>2026-03-22T16:17:17.999Z</time></trkpt><trkpt lat="43.44954457957904" lon="1.9099291214280265"><ele>214.0</ele><time>2026-03-22T16:17:18.999Z</time></trkpt><trkpt lat="43.449568134997406" lon="1.9096680624141338"><ele>215.0</ele><time>2026-03-22T16:17:19.999Z</time></trkpt><trkpt lat="43.44959328325059" lon="1.9093994709920894"><ele>216.0</ele><time>2026-03-22T16:17:20.999Z</time></trkpt><trkpt lat="43.449617383743785" lon="1.909127521684138"><ele>217.0</ele><time>2026-03-22T16:17:21.999Z</time></trkpt><trkpt lat="43.4496413012277" lon="1.9088534733097637"><ele>218.66666666666666</ele><time>2026-03-22T16:17:22.999Z</time></trkpt><trkpt lat="43.449666470380876" lon="1.9085681318269145"><ele>220.33333333333331</ele><time>2026-03-22T16:17:23.999Z</time></trkpt><trkpt lat="43.44968399623164" lon="1.9082706642087994"><ele>222.0</ele><time>2026-03-22T16:17:24.999Z</time></trkpt><trkpt lat="43.44971719955782" lon="1.9079618484194585"><ele>223.0</ele><time>2026-03-22T16:17:25.999Z</time></trkpt><trkpt lat="43.44974740080436" lon="1.907663397671662"><ele>224.0</ele><time>2026-03-22T16:17:26.999Z</time></trkpt><trkpt lat="43.44977295891469" lon="1.9073749685290178"><ele>225.0</ele><time>2026-03-22T16:17:27.999Z</time></trkpt><trkpt lat="43.44981123743044" lon="1.907103163998777"><ele>226.0</ele><time>2026-03-22T16:17:28.999Z</time></trkpt><trkpt lat="43.44982781534175" lon="1.9068342041671609"><ele>227.0</ele><time>2026-03-22T16:17:29.999Z</time></trkpt><trkpt lat="43.44985491747952" lon="1.906574084862656"><ele>228.0</ele><time>2026-03-22T16:17:30.999Z</time></trkpt><trkpt lat="43.44987596124012" lon="1.9063160064539189"><ele>228.33333333333331</ele><time>2026-03-22T16:17:31.999Z</time></trkpt><trkpt lat="43.449900702236" lon="1.906054727808983"><ele>228.66666666666666</ele><time>2026-03-22T16:17:32.999Z</time></trkpt><trkpt lat="43.449925735507506" lon="1.9057992759601174"><ele>229.0</ele><time>2026-03-22T16:17:33.999Z</time></trkpt><trkpt lat="43.44995157594578" lon="1.905543278866862"><ele>229.33333333333331</ele><time>2026-03-22T16:17:34.999Z</time></trkpt><trkpt lat="43.44997337803573" lon="1.9052916644874305"><ele>229.66666666666669</ele><time>2026-03-22T16:17:35.999Z</time></trkpt><trkpt lat="43.44999741762878" lon="1.9050469422247802"><ele>230.0</ele><time>2026-03-22T16:17:36.999Z</time></trkpt><trkpt lat="43.4500228228552" lon="1.9048050934046392"><ele>230.0</ele><time>2026-03-22T16:17:37.999Z</time></trkpt><trkpt lat="43.45002092583138" lon="1.9045619702316012"><ele>230.0</ele><time>2026-03-22T16:17:38.999Z</time></trkpt><trkpt lat="43.45005781259616" lon="1.9043609610994328"><ele>230.0</ele><time>2026-03-22T16:17:39.999Z</time></trkpt><trkpt lat="43.45010158128749" lon="1.9041191924550176"><ele>230.0</ele><time>2026-03-22T16:17:40.999Z</time></trkpt><trkpt lat="43.45011939194769" lon="1.9039074675398364"><ele>230.0</ele><time>2026-03-22T16:17:41.999Z</time></trkpt><trkpt lat="43.45012531400844" lon="1.9037074808451557"><ele>230.0</ele><time>2026-03-22T16:17:42.999Z</time></trkpt><trkpt lat="43.45014443007584" lon="1.9034785357542559"><ele>231.66666666666669</ele><time>2026-03-22T16:17:43.999Z</time></trkpt><trkpt lat="43.450162881174734" lon="1.9032362966829677"><ele>233.33333333333331</ele><time>2026-03-22T16:17:44.999Z</time></trkpt><trkpt lat="43.45016850219231" lon="1.9029890701959387"><ele>235.0</ele><time>2026-03-22T16:17:45.999Z</time></trkpt><trkpt lat="43.45016216242099" lon="1.9027238437805472"><ele>236.66666666666666</ele><time>2026-03-22T16:17:46.999Z</time></trkpt><trkpt lat="43.45015261525642" lon="1.9024682795744357"><ele>238.33333333333331</ele><time>2026-03-22T16:17:47.999Z</time></trkpt><trkpt lat="43.450144104408444" lon="1.902214932473308"><ele>240.0</ele><time>2026-03-22T16:17:48.999Z</time></trkpt><trkpt lat="43.4501273756707" lon="1.901966375916999"><ele>242.0</ele><time>2026-03-22T16:17:49.999Z</time></trkpt><trkpt lat="43.45011484234235" lon="1.901715985451424"><ele>244.0</ele><time>2026-03-22T16:17:50.999Z</time></trkpt><trkpt lat="43.45010438277493" lon="1.901469376609756"><ele>246.0</ele><time>2026-03-22T16:17:51.999Z</time></trkpt><trkpt lat="43.450093434452555" lon="1.9012458808852075"><ele>246.0</ele><time>2026-03-22T16:17:52.999Z</time></trkpt><trkpt lat="43.45008052615982" lon="1.9010138308907332"><ele>246.0</ele><time>2026-03-22T16:17:54Z</time></trkpt><trkpt lat="43.45007031341211" lon="1.9007807653907953"><ele>246.0</ele><time>2026-03-22T16:17:55Z</time></trkpt><trkpt lat="43.4500587329973" lon="1.9005442697730204"><ele>246.66666666666669</ele><time>2026-03-22T16:17:56Z</time></trkpt><trkpt lat="43.45004660538117" lon="1.9003102729674517"><ele>247.33333333333334</ele><time>2026-03-22T16:17:57Z</time></trkpt><trkpt lat="43.45003357277513" lon="1.900074793923432"><ele>248.0</ele><time>2026-03-22T16:17:58Z</time></trkpt><trkpt lat="43.45002183342945" lon="1.8998352941778514"><ele>248.66666666666669</ele><time>2026-03-22T16:17:59Z</time></trkpt><trkpt lat="43.45000886799308" lon="1.899586229078711"><ele>249.33333333333331</ele><time>2026-03-22T16:18:00Z</time></trkpt><trkpt lat="43.44999630148391" lon="1.8993250054929218"><ele>250.0</ele><time>2026-03-22T16:18:01Z</time></trkpt><trkpt lat="43.44998367817232" lon="1.8990789549951779"><ele>252.0</ele><time>2026-03-22T16:18:02Z</time></trkpt><trkpt lat="43.44997328728836" lon="1.8988470272483522"><ele>254.0</ele><time>2026-03-22T16:18:03Z</time></trkpt><trkpt lat="43.44995936723908" lon="1.898614671905104"><ele>256.0</ele><time>2026-03-22T16:18:04Z</time></trkpt><trkpt lat="43.44994019912212" lon="1.8983844215945904"><ele>257.66666666666663</ele><time>2026-03-22T16:18:05Z</time></trkpt><trkpt lat="43.44991014284442" lon="1.8981499110730613"><ele>259.3333333333333</ele><time>2026-03-22T16:18:06Z</time></trkpt><trkpt lat="43.44986267904882" lon="1.897905917233588"><ele>261.0</ele><time>2026-03-22T16:18:07Z</time></trkpt><trkpt lat="43.44979756196523" lon="1.8976568879121978"><ele>263.0</ele><time>2026-03-22T16:18:08Z</time></trkpt><trkpt lat="43.4497269237861" lon="1.8974206333493404"><ele>265.0</ele><time>2026-03-22T16:18:09Z</time></trkpt><trkpt lat="43.44965780375143" lon="1.8971859567145863"><ele>267.0</ele><time>2026-03-22T16:18:10Z</time></trkpt><trkpt lat="43.44958984000303" lon="1.8969614463478068"><ele>269.0</ele><time>2026-03-22T16:18:11Z</time></trkpt><trkpt lat="43.449524601142684" lon="1.896723227079477"><ele>271.0</ele><time>2026-03-22T16:18:12Z</time></trkpt><trkpt lat="43.44946835307906" lon="1.8964817069778137"><ele>273.0</ele><time>2026-03-22T16:18:13Z</time></trkpt><trkpt lat="43.44942272803344" lon="1.8962333217886658"><ele>273.0</ele><time>2026-03-22T16:18:14Z</time></trkpt><trkpt lat="43.44938804402267" lon="1.8959850216879994"><ele>273.0</ele><time>2026-03-22T16:18:15Z</time></trkpt><trkpt lat="43.44937296440815" lon="1.8957352409913735"><ele>273.0</ele><time>2026-03-22T16:18:16Z</time></trkpt><trkpt lat="43.44936802855104" lon="1.8954701369391118"><ele>274.0</ele><time>2026-03-22T16:18:17Z</time></trkpt><trkpt lat="43.449377303025365" lon="1.8951825587390339"><ele>275.0</ele><time>2026-03-22T16:18:18Z</time></trkpt><trkpt lat="43.449401668057455" lon="1.8948999131768616"><ele>276.0</ele><time>2026-03-22T16:18:19Z</time></trkpt><trkpt lat="43.4494318904754" lon="1.8946249416084044"><ele>278.0</ele><time>2026-03-22T16:18:20Z</time></trkpt><trkpt lat="43.44945983164557" lon="1.8943571871103417"><ele>280.0</ele><time>2026-03-22T16:18:21Z</time></trkpt><trkpt lat="43.4494897964877" lon="1.8940932628987195"><ele>282.0</ele><time>2026-03-22T16:18:22Z</time></trkpt><trkpt lat="43.44951385005967" lon="1.8938238156041258"><ele>283.6666666666667</ele><time>2026-03-22T16:18:23Z</time></trkpt><trkpt lat="43.449523218807116" lon="1.8935678394778157"><ele>285.33333333333337</ele><time>2026-03-22T16:18:24Z</time></trkpt><trkpt lat="43.449524404091314" lon="1.8933384049051738"><ele>287.0</ele><time>2026-03-22T16:18:25Z</time></trkpt><trkpt lat="43.449522223615766" lon="1.8931297813576786"><ele>288.0</ele><time>2026-03-22T16:18:26Z</time></trkpt><trkpt lat="43.44952205563169" lon="1.8929261147319636"><ele>289.0</ele><time>2026-03-22T16:18:27Z</time></trkpt><trkpt lat="43.44951945916015" lon="1.8927303469860501"><ele>290.0</ele><time>2026-03-22T16:18:28Z</time></trkpt><trkpt lat="43.449513583467315" lon="1.8925438611260714"><ele>291.0</ele><time>2026-03-22T16:18:29Z</time></trkpt><trkpt lat="43.449501085985005" lon="1.8923649809395267"><ele>291.5</ele><time>2026-03-22T16:18:30Z</time></trkpt><trkpt lat="43.449468782367475" lon="1.8921937101666542"><ele>292.0</ele><time>2026-03-22T16:18:31Z</time></trkpt><trkpt lat="43.44941643276163" lon="1.89203227005642"><ele>292.5</ele><time>2026-03-22T16:18:32Z</time></trkpt><trkpt lat="43.449331664264854" lon="1.8918949160911316"><ele>293.0</ele><time>2026-03-22T16:18:33Z</time></trkpt><trkpt lat="43.4492117270964" lon="1.891780177167606"><ele>292.33333333333337</ele><time>2026-03-22T16:18:34Z</time></trkpt><trkpt lat="43.44906267147633" lon="1.8916948224899703"><ele>291.6666666666667</ele><time>2026-03-22T16:18:35Z</time></trkpt><trkpt lat="43.448877799346306" lon="1.8916301374810356"><ele>291.0</ele><time>2026-03-22T16:18:36Z</time></trkpt><trkpt lat="43.44870196350217" lon="1.8915570452594141"><ele>291.0</ele><time>2026-03-22T16:18:37Z</time></trkpt><trkpt lat="43.44854972983724" lon="1.8914867793275574"><ele>291.0</ele><time>2026-03-22T16:18:38Z</time></trkpt><trkpt lat="43.448398512662756" lon="1.8914283855035907"><ele>291.0</ele><time>2026-03-22T16:18:39Z</time></trkpt><trkpt lat="43.448266948828056" lon="1.8913363674921086"><ele>291.0</ele><time>2026-03-22T16:18:40Z</time></trkpt><trkpt lat="43.44813750202888" lon="1.8912383209270072"><ele>291.0</ele><time>2026-03-22T16:18:41Z</time></trkpt><trkpt lat="43.44802178346423" lon="1.8910794911816475"><ele>291.0</ele><time>2026-03-22T16:18:42Z</time></trkpt><trkpt lat="43.44792594357599" lon="1.8908915261069899"><ele>292.3333333333333</ele><time>2026-03-22T16:18:43Z</time></trkpt><trkpt lat="43.44783181793467" lon="1.8906916381973227"><ele>293.66666666666663</ele><time>2026-03-22T16:18:44Z</time></trkpt><trkpt lat="43.44772542474842" lon="1.890519131869396"><ele>295.0</ele><time>2026-03-22T16:18:45Z</time></trkpt><trkpt lat="43.44760877634362" lon="1.890406842523287"><ele>295.0</ele><time>2026-03-22T16:18:46Z</time></trkpt><trkpt lat="43.44747386950525" lon="1.890333231421354"><ele>295.0</ele><time>2026-03-22T16:18:47Z</time></trkpt><trkpt lat="43.447343569283014" lon="1.8902734142294462"><ele>295.0</ele><time>2026-03-22T16:18:48Z</time></trkpt><trkpt lat="43.44722957577036" lon="1.8902141313975087"><ele>295.0</ele><time>2026-03-22T16:18:49Z</time></trkpt><trkpt lat="43.44712890662299" lon="1.8901406650607337"><ele>296.2</ele><time>2026-03-22T16:18:50Z</time></trkpt><trkpt lat="43.447042111552584" lon="1.890032994994853"><ele>297.4</ele><time>2026-03-22T16:18:51Z</time></trkpt><trkpt lat="43.446984134884445" lon="1.8899136562791934"><ele>298.6</ele><time>2026-03-22T16:18:52Z</time></trkpt><trkpt lat="43.446937586365294" lon="1.8897780746150044"><ele>299.8</ele><time>2026-03-22T16:18:53Z</time></trkpt><trkpt lat="43.4469173937324" lon="1.88963007745641"><ele>301.0</ele><time>2026-03-22T16:18:54Z</time></trkpt><trkpt lat="43.446918005035585" lon="1.889468528885298"><ele>301.0</ele><time>2026-03-22T16:18:55Z</time></trkpt><trkpt lat="43.44692909034745" lon="1.8892952114696773"><ele>301.0</ele><time>2026-03-22T16:18:56Z</time></trkpt><trkpt lat="43.446949355315226" lon="1.889108362530929"><ele>301.0</ele><time>2026-03-22T16:18:57Z</time></trkpt><trkpt lat="43.44699673800024" lon="1.8889323902545438"><ele>301.0</ele><time>2026-03-22T16:18:58Z</time></trkpt><trkpt lat="43.44707579525891" lon="1.88875384041557"><ele>306.0</ele><time>2026-03-22T16:18:59Z</time></trkpt><trkpt lat="43.447191664072605" lon="1.8885823398062749"><ele>311.0</ele><time>2026-03-22T16:19:00Z</time></trkpt><trkpt lat="43.44731078220454" lon="1.8884194018349232"><ele>316.0</ele><time>2026-03-22T16:19:01Z</time></trkpt><trkpt lat="43.447404701039055" lon="1.8882672497349045"><ele>316.0</ele><time>2026-03-22T16:19:02Z</time></trkpt><trkpt lat="43.44749081601186" lon="1.8881306436602823"><ele>316.0</ele><time>2026-03-22T16:19:03Z</time></trkpt><trkpt lat="43.447568005709435" lon="1.8880127842804968"><ele>316.0</ele><time>2026-03-22T16:19:04Z</time></trkpt><trkpt lat="43.447635863550836" lon="1.8879040993868603"><ele>316.0</ele><time>2026-03-22T16:19:05Z</time></trkpt><trkpt lat="43.447698780519566" lon="1.8878108686613566"><ele>316.0</ele><time>2026-03-22T16:19:06Z</time></trkpt><trkpt lat="43.44776268077818" lon="1.8877340637902478"><ele>316.0</ele><time>2026-03-22T16:19:07Z</time></trkpt><trkpt lat="43.44784257998933" lon="1.8876555759743618"><ele>316.0</ele><time>2026-03-22T16:19:08Z</time></trkpt><trkpt lat="43.44792850387492" lon="1.8875885263691563"><ele>316.0</ele><time>2026-03-22T16:19:09Z</time></trkpt><trkpt lat="43.447994826460885" lon="1.887536840707955"><ele>316.0</ele><time>2026-03-22T16:19:10Z</time></trkpt><trkpt lat="43.44805155417811" lon="1.887488859680063"><ele>316.0</ele><time>2026-03-22T16:19:11Z</time></trkpt><trkpt lat="43.44815860840458" lon="1.8873885584563785"><ele>318.25</ele><time>2026-03-22T16:19:13Z</time></trkpt><trkpt lat="43.44823042948122" lon="1.887320076339764"><ele>320.5</ele><time>2026-03-22T16:19:14Z</time></trkpt><trkpt lat="43.448287670411936" lon="1.8872114742440134"><ele>322.75</ele><time>2026-03-22T16:19:15Z</time></trkpt><trkpt lat="43.44834975115189" lon="1.8870532349352478"><ele>325.0</ele><time>2026-03-22T16:19:16Z</time></trkpt><trkpt lat="43.448407242545684" lon="1.8868645812453875"><ele>322.5</ele><time>2026-03-22T16:19:17Z</time></trkpt><trkpt lat="43.44846291891115" lon="1.8866766760036053"><ele>320.0</ele><time>2026-03-22T16:19:18Z</time></trkpt><trkpt lat="43.4485202871961" lon="1.8865068752445389"><ele>317.5</ele><time>2026-03-22T16:19:18.999Z</time></trkpt><trkpt lat="43.448568575550084" lon="1.8863650337088889"><ele>315.0</ele><time>2026-03-22T16:19:19.999Z</time></trkpt><trkpt lat="43.448613546414656" lon="1.8862473279026528"><ele>315.0</ele><time>2026-03-22T16:19:20.999Z</time></trkpt><trkpt lat="43.448659166997345" lon="1.8861100955535608"><ele>315.0</ele><time>2026-03-22T16:19:21.999Z</time></trkpt><trkpt lat="43.448723733326496" lon="1.88597064512161"><ele>315.0</ele><time>2026-03-22T16:19:22.999Z</time></trkpt><trkpt lat="43.44882384615213" lon="1.885849564762342"><ele>315.0</ele><time>2026-03-22T16:19:23.999Z</time></trkpt><trkpt lat="43.44893940341871" lon="1.8857317905815216"><ele>317.4</ele><time>2026-03-22T16:19:24.999Z</time></trkpt><trkpt lat="43.44903092765253" lon="1.8856359463942405"><ele>319.8</ele><time>2026-03-22T16:19:25.999Z</time></trkpt><trkpt lat="43.44911312997749" lon="1.8855539562798833"><ele>322.20000000000005</ele><time>2026-03-22T16:19:26.999Z</time></trkpt><trkpt lat="43.44918491635013" lon="1.8854958259551216"><ele>324.6</ele><time>2026-03-22T16:19:27.999Z</time></trkpt><trkpt lat="43.44926644601536" lon="1.8854233955529152"><ele>327.0</ele><time>2026-03-22T16:19:28.999Z</time></trkpt><trkpt lat="43.449357454087306" lon="1.8853522944179355"><ele>327.0</ele><time>2026-03-22T16:19:29.999Z</time></trkpt><trkpt lat="43.449452889145014" lon="1.8852854992099195"><ele>327.0</ele><time>2026-03-22T16:19:30.999Z</time></trkpt><trkpt lat="43.44953472109745" lon="1.8852281950716878"><ele>327.0</ele><time>2026-03-22T16:19:31.999Z</time></trkpt><trkpt lat="43.449612029113275" lon="1.8851726223992258"><ele>327.0</ele><time>2026-03-22T16:19:32.999Z</time></trkpt><trkpt lat="43.44968436324508" lon="1.885079867668005"><ele>327.0</ele><time>2026-03-22T16:19:33.999Z</time></trkpt><trkpt lat="43.44973370762035" lon="1.8849605744950746"><ele>325.6</ele><time>2026-03-22T16:19:34.999Z</time></trkpt><trkpt lat="43.44977028596264" lon="1.8848312574583475"><ele>324.20000000000005</ele><time>2026-03-22T16:19:35.999Z</time></trkpt><trkpt lat="43.44981069197655" lon="1.8847069826628275"><ele>322.8</ele><time>2026-03-22T16:19:36.999Z</time></trkpt><trkpt lat="43.44984806803253" lon="1.8846068297420524"><ele>321.4</ele><time>2026-03-22T16:19:37.999Z</time></trkpt><trkpt lat="43.449888843604754" lon="1.884501351251792"><ele>320.0</ele><time>2026-03-22T16:19:38.999Z</time></trkpt><trkpt lat="43.44992955751478" lon="1.884392931659263"><ele>320.0</ele><time>2026-03-22T16:19:39.999Z</time></trkpt><trkpt lat="43.44997269119484" lon="1.8842955578662202"><ele>320.0</ele><time>2026-03-22T16:19:40.999Z</time></trkpt><trkpt lat="43.45001003937723" lon="1.884207769523413"><ele>320.0</ele><time>2026-03-22T16:19:41.999Z</time></trkpt><trkpt lat="43.450050209227335" lon="1.8841052189003433"><ele>320.0</ele><time>2026-03-22T16:19:42.999Z</time></trkpt><trkpt lat="43.45009147610012" lon="1.8840034113026074"><ele>320.0</ele><time>2026-03-22T16:19:43.999Z</time></trkpt><trkpt lat="43.450128486543804" lon="1.8839169776286737"><ele>320.0</ele><time>2026-03-22T16:19:44.999Z</time></trkpt><trkpt lat="43.450171147767605" lon="1.8838166513294363"><ele>320.2</ele><time>2026-03-22T16:19:45.999Z</time></trkpt><trkpt lat="43.45021475486948" lon="1.8837157996391403"><ele>320.4</ele><time>2026-03-22T16:19:46.999Z</time></trkpt><trkpt lat="43.45026166903453" lon="1.8836056900205869"><ele>320.6</ele><time>2026-03-22T16:19:47.999Z</time></trkpt><trkpt lat="43.45031220123445" lon="1.8834833994484914"><ele>320.8</ele><time>2026-03-22T16:19:48.999Z</time></trkpt><trkpt lat="43.45036158324657" lon="1.8833576806385237"><ele>321.0</ele><time>2026-03-22T16:19:49.999Z</time></trkpt><trkpt lat="43.45041425847395" lon="1.883225656453275"><ele>320.0</ele><time>2026-03-22T16:19:50.999Z</time></trkpt><trkpt lat="43.45046835798572" lon="1.883091683690355"><ele>319.0</ele><time>2026-03-22T16:19:51.999Z</time></trkpt><trkpt lat="43.45052356688405" lon="1.882958289741619"><ele>318.0</ele><time>2026-03-22T16:19:52.999Z</time></trkpt><trkpt lat="43.45058493574532" lon="1.882808642884486"><ele>317.0</ele><time>2026-03-22T16:19:53.999Z</time></trkpt><trkpt lat="43.45065198774339" lon="1.8826414037355186"><ele>317.25</ele><time>2026-03-22T16:19:54.999Z</time></trkpt><trkpt lat="43.45073378972665" lon="1.8824468903883769"><ele>317.5</ele><time>2026-03-22T16:19:55.999Z</time></trkpt><trkpt lat="43.45080458964585" lon="1.8822736100789772"><ele>317.75</ele><time>2026-03-22T16:19:56.999Z</time></trkpt><trkpt lat="43.45087034055329" lon="1.8821172998809397"><ele>318.0</ele><time>2026-03-22T16:19:57.999Z</time></trkpt><trkpt lat="43.45093451873138" lon="1.8819692900401217"><ele>318.0</ele><time>2026-03-22T16:19:58.999Z</time></trkpt><trkpt lat="43.45099169906449" lon="1.8818337626010821"><ele>318.0</ele><time>2026-03-22T16:20:00Z</time></trkpt><trkpt lat="43.45104822415891" lon="1.8816941598378274"><ele>318.0</ele><time>2026-03-22T16:20:01Z</time></trkpt><trkpt lat="43.45110797300432" lon="1.881545796304212"><ele>318.0</ele><time>2026-03-22T16:20:02Z</time></trkpt><trkpt lat="43.451164533562554" lon="1.8814131447769487"><ele>318.25</ele><time>2026-03-22T16:20:03Z</time></trkpt><trkpt lat="43.45121852609869" lon="1.8812844329558005"><ele>318.5</ele><time>2026-03-22T16:20:04Z</time></trkpt><trkpt lat="43.451276752454866" lon="1.8811496931510605"><ele>318.75</ele><time>2026-03-22T16:20:05Z</time></trkpt><trkpt lat="43.45133779149725" lon="1.8810068454809363"><ele>319.0</ele><time>2026-03-22T16:20:06Z</time></trkpt><trkpt lat="43.45139776103815" lon="1.8808625707670856"><ele>318.25</ele><time>2026-03-22T16:20:07Z</time></trkpt><trkpt lat="43.45146001600234" lon="1.880720508832597"><ele>317.5</ele><time>2026-03-22T16:20:08Z</time></trkpt><trkpt lat="43.45151971687715" lon="1.8805802688573638"><ele>316.75</ele><time>2026-03-22T16:20:09Z</time></trkpt><trkpt lat="43.4515787918842" lon="1.8804424363049348"><ele>316.0</ele><time>2026-03-22T16:20:10Z</time></trkpt><trkpt lat="43.45163973483204" lon="1.8803156857769634"><ele>316.0</ele><time>2026-03-22T16:20:11Z</time></trkpt><trkpt lat="43.45170068718069" lon="1.8802006200123453"><ele>316.0</ele><time>2026-03-22T16:20:12Z</time></trkpt><trkpt lat="43.451757142963494" lon="1.880095994787872"><ele>316.0</ele><time>2026-03-22T16:20:13Z</time></trkpt><trkpt lat="43.4518068453292" lon="1.8800015392834255"><ele>316.0</ele><time>2026-03-22T16:20:14Z</time></trkpt><trkpt lat="43.4518556489047" lon="1.8799102683545574"><ele>316.0</ele><time>2026-03-22T16:20:15Z</time></trkpt><trkpt lat="43.451905620049374" lon="1.8798126984481625"><ele>315.8</ele><time>2026-03-22T16:20:16Z</time></trkpt><trkpt lat="43.451959780756795" lon="1.8797114790199225"><ele>315.6</ele><time>2026-03-22T16:20:17Z</time></trkpt><trkpt lat="43.45202118235253" lon="1.8795919893276336"><ele>315.4</ele><time>2026-03-22T16:20:18Z</time></trkpt><trkpt lat="43.452087625558455" lon="1.8794651986242308"><ele>315.2</ele><time>2026-03-22T16:20:19Z</time></trkpt><trkpt lat="43.45214826068524" lon="1.8793439843465916"><ele>315.0</ele><time>2026-03-22T16:20:20Z</time></trkpt><trkpt lat="43.4522043369081" lon="1.8792254154483945"><ele>314.0</ele><time>2026-03-22T16:20:21Z</time></trkpt><trkpt lat="43.45226034964891" lon="1.8790997041002988"><ele>313.0</ele><time>2026-03-22T16:20:22Z</time></trkpt><trkpt lat="43.45231841767461" lon="1.8789683370785712"><ele>312.0</ele><time>2026-03-22T16:20:23Z</time></trkpt><trkpt lat="43.4523744285952" lon="1.8788365964371028"><ele>311.0</ele><time>2026-03-22T16:20:24Z</time></trkpt><trkpt lat="43.452428926654484" lon="1.8786973423760227"><ele>310.0</ele><time>2026-03-22T16:20:25Z</time></trkpt><trkpt lat="43.452482672358926" lon="1.8785519804145645"><ele>310.0</ele><time>2026-03-22T16:20:26Z</time></trkpt><trkpt lat="43.452534426878856" lon="1.878404247685092"><ele>310.0</ele><time>2026-03-22T16:20:27Z</time></trkpt><trkpt lat="43.452586284267454" lon="1.8782496851185824"><ele>310.0</ele><time>2026-03-22T16:20:28Z</time></trkpt><trkpt lat="43.45263800939942" lon="1.8780785495136185"><ele>310.0</ele><time>2026-03-22T16:20:29Z</time></trkpt><trkpt lat="43.452698330415494" lon="1.8778891621623255"><ele>310.0</ele><time>2026-03-22T16:20:30Z</time></trkpt><trkpt lat="43.452763957363494" lon="1.8776810902000272"><ele>310.0</ele><time>2026-03-22T16:20:31Z</time></trkpt><trkpt lat="43.45282899190067" lon="1.8774716945483823"><ele>310.0</ele><time>2026-03-22T16:20:32Z</time></trkpt><trkpt lat="43.45290421255859" lon="1.8772300217928077"><ele>310.0</ele><time>2026-03-22T16:20:33Z</time></trkpt><trkpt lat="43.45297611517458" lon="1.876985843296223"><ele>310.0</ele><time>2026-03-22T16:20:34Z</time></trkpt><trkpt lat="43.453046093348696" lon="1.8767652511892248"><ele>310.0</ele><time>2026-03-22T16:20:35Z</time></trkpt><trkpt lat="43.45311997915711" lon="1.8765322766914843"><ele>310.0</ele><time>2026-03-22T16:20:36Z</time></trkpt><trkpt lat="43.45319433539591" lon="1.876299922188961"><ele>310.0</ele><time>2026-03-22T16:20:37Z</time></trkpt><trkpt lat="43.453267274233916" lon="1.876057981635051"><ele>310.0</ele><time>2026-03-22T16:20:38Z</time></trkpt><trkpt lat="43.453350540713004" lon="1.8757974348775168"><ele>309.3333333333333</ele><time>2026-03-22T16:20:39Z</time></trkpt><trkpt lat="43.45344787564521" lon="1.8755137421345869"><ele>308.6666666666667</ele><time>2026-03-22T16:20:40Z</time></trkpt><trkpt lat="43.45354514268593" lon="1.8752500859991255"><ele>308.0</ele><time>2026-03-22T16:20:41Z</time></trkpt><trkpt lat="43.45357863069377" lon="1.875069354701987"><ele>306.6666666666667</ele><time>2026-03-22T16:20:42Z</time></trkpt><trkpt lat="43.45363844614631" lon="1.8748716034674018"><ele>305.3333333333333</ele><time>2026-03-22T16:20:43Z</time></trkpt><trkpt lat="43.45369785422747" lon="1.8746650349305773"><ele>304.0</ele><time>2026-03-22T16:20:44Z</time></trkpt><trkpt lat="43.45375989350478" lon="1.8744528706950159"><ele>304.66666666666663</ele><time>2026-03-22T16:20:45Z</time></trkpt><trkpt lat="43.45381623328552" lon="1.8742465973758564"><ele>305.3333333333333</ele><time>2026-03-22T16:20:46Z</time></trkpt><trkpt lat="43.45387129052636" lon="1.8740329566982026"><ele>306.0</ele><time>2026-03-22T16:20:47Z</time></trkpt><trkpt lat="43.453923796692365" lon="1.8738069958353458"><ele>306.0</ele><time>2026-03-22T16:20:48Z</time></trkpt><trkpt lat="43.45397858815701" lon="1.8735827793773314"><ele>306.0</ele><time>2026-03-22T16:20:49Z</time></trkpt><trkpt lat="43.45403359610913" lon="1.8733558308042184"><ele>306.0</ele><time>2026-03-22T16:20:50Z</time></trkpt><trkpt lat="43.45409346528011" lon="1.8731273628568874"><ele>304.6666666666667</ele><time>2026-03-22T16:20:51Z</time></trkpt><trkpt lat="43.45415736963451" lon="1.8728962062973598"><ele>303.33333333333337</ele><time>2026-03-22T16:20:52Z</time></trkpt><trkpt lat="43.45422199259626" lon="1.8726691015836034"><ele>302.0</ele><time>2026-03-22T16:20:53Z</time></trkpt><trkpt lat="43.45428893191066" lon="1.8724404116120699"><ele>302.0</ele><time>2026-03-22T16:20:54Z</time></trkpt><trkpt lat="43.45435581621005" lon="1.8722075555653772"><ele>302.0</ele><time>2026-03-22T16:20:55Z</time></trkpt><trkpt lat="43.45442418727119" lon="1.8719786355363937"><ele>302.0</ele><time>2026-03-22T16:20:56Z</time></trkpt><trkpt lat="43.45449091676698" lon="1.8717507225200125"><ele>301.6666666666667</ele><time>2026-03-22T16:20:57Z</time></trkpt><trkpt lat="43.454559762355984" lon="1.8715309646556926"><ele>301.3333333333333</ele><time>2026-03-22T16:20:58Z</time></trkpt><trkpt lat="43.45463303869571" lon="1.871319720508861"><ele>301.0</ele><time>2026-03-22T16:20:59Z</time></trkpt><trkpt lat="43.45469694265878" lon="1.8711179021128166"><ele>301.0</ele><time>2026-03-22T16:21:00Z</time></trkpt><trkpt lat="43.45475135433471" lon="1.8709268878620704"><ele>301.0</ele><time>2026-03-22T16:21:01Z</time></trkpt><trkpt lat="43.4547998453806" lon="1.8707335908364964"><ele>301.0</ele><time>2026-03-22T16:21:02Z</time></trkpt><trkpt lat="43.45484250857956" lon="1.8705344157799522"><ele>301.0</ele><time>2026-03-22T16:21:03Z</time></trkpt><trkpt lat="43.454882560518975" lon="1.870331834423038"><ele>299.66666666666663</ele><time>2026-03-22T16:21:04Z</time></trkpt><trkpt lat="43.454922996125404" lon="1.8701052104574312"><ele>298.3333333333333</ele><time>2026-03-22T16:21:05Z</time></trkpt><trkpt lat="43.454954094947055" lon="1.869847841532559"><ele>297.0</ele><time>2026-03-22T16:21:06Z</time></trkpt><trkpt lat="43.45498252131959" lon="1.8696148679525206"><ele>297.0</ele><time>2026-03-22T16:21:07Z</time></trkpt><trkpt lat="43.455010903508224" lon="1.869392188669537"><ele>297.0</ele><time>2026-03-22T16:21:08Z</time></trkpt><trkpt lat="43.45503684176148" lon="1.8691671647185832"><ele>297.0</ele><time>2026-03-22T16:21:09Z</time></trkpt><trkpt lat="43.455065501974445" lon="1.8689484609509204"><ele>295.0</ele><time>2026-03-22T16:21:10Z</time></trkpt><trkpt lat="43.455091197393855" lon="1.8687418103986593"><ele>293.0</ele><time>2026-03-22T16:21:11Z</time></trkpt><trkpt lat="43.4551159933685" lon="1.8685263033789234"><ele>291.0</ele><time>2026-03-22T16:21:12Z</time></trkpt><trkpt lat="43.4551434869482" lon="1.8683136615261096"><ele>289.3333333333333</ele><time>2026-03-22T16:21:13Z</time></trkpt><trkpt lat="43.4551679528189" lon="1.86810147743393"><ele>287.66666666666663</ele><time>2026-03-22T16:21:14Z</time></trkpt><trkpt lat="43.4551973411529" lon="1.8678832011382618"><ele>286.0</ele><time>2026-03-22T16:21:15Z</time></trkpt><trkpt lat="43.455225496001574" lon="1.8676747626403274"><ele>283.66666666666663</ele><time>2026-03-22T16:21:16Z</time></trkpt><trkpt lat="43.45525856096024" lon="1.8674609434812264"><ele>281.3333333333333</ele><time>2026-03-22T16:21:17Z</time></trkpt><trkpt lat="43.45529929673667" lon="1.86724394983881"><ele>279.0</ele><time>2026-03-22T16:21:18Z</time></trkpt><trkpt lat="43.45534903097766" lon="1.8670200766291636"><ele>279.0</ele><time>2026-03-22T16:21:19Z</time></trkpt><trkpt lat="43.45539987532457" lon="1.866794108408032"><ele>279.0</ele><time>2026-03-22T16:21:20Z</time></trkpt><trkpt lat="43.455454572846996" lon="1.8665742500038238"><ele>279.0</ele><time>2026-03-22T16:21:21Z</time></trkpt><trkpt lat="43.45550607853171" lon="1.8663661199399149"><ele>280.0</ele><time>2026-03-22T16:21:22Z</time></trkpt><trkpt lat="43.455569533822946" lon="1.8661403104407277"><ele>281.0</ele><time>2026-03-22T16:21:23Z</time></trkpt><trkpt lat="43.45564453010648" lon="1.8659030579365683"><ele>282.0</ele><time>2026-03-22T16:21:24Z</time></trkpt><trkpt lat="43.45573584578732" lon="1.8656722473043166"><ele>282.0</ele><time>2026-03-22T16:21:25Z</time></trkpt><trkpt lat="43.455837794093654" lon="1.8654638090292228"><ele>282.0</ele><time>2026-03-22T16:21:26Z</time></trkpt><trkpt lat="43.455944025465826" lon="1.8652608545562765"><ele>282.0</ele><time>2026-03-22T16:21:27Z</time></trkpt><trkpt lat="43.45605345320938" lon="1.8650511225653823"><ele>282.3333333333333</ele><time>2026-03-22T16:21:28Z</time></trkpt><trkpt lat="43.456164115072184" lon="1.8648468490509467"><ele>282.66666666666663</ele><time>2026-03-22T16:21:29Z</time></trkpt><trkpt lat="43.45627129085682" lon="1.8646669368627615"><ele>283.0</ele><time>2026-03-22T16:21:30Z</time></trkpt><trkpt lat="43.45637999922011" lon="1.864501871118436"><ele>283.0</ele><time>2026-03-22T16:21:30.999Z</time></trkpt><trkpt lat="43.45651015729307" lon="1.8643513104702278"><ele>283.0</ele><time>2026-03-22T16:21:31.999Z</time></trkpt><trkpt lat="43.45663906990153" lon="1.8642002831796964"><ele>283.0</ele><time>2026-03-22T16:21:32.999Z</time></trkpt><trkpt lat="43.456748424041386" lon="1.8640361986093044"><ele>279.66666666666663</ele><time>2026-03-22T16:21:33.999Z</time></trkpt><trkpt lat="43.456835029661846" lon="1.8638487619289015"><ele>276.3333333333333</ele><time>2026-03-22T16:21:34.999Z</time></trkpt><trkpt lat="43.456906253170196" lon="1.8636544306376543"><ele>273.0</ele><time>2026-03-22T16:21:35.999Z</time></trkpt><trkpt lat="43.45696516388291" lon="1.8634619879203767"><ele>275.6666666666667</ele><time>2026-03-22T16:21:36.999Z</time></trkpt><trkpt lat="43.45702958684389" lon="1.8632517420664427"><ele>278.33333333333337</ele><time>2026-03-22T16:21:37.999Z</time></trkpt><trkpt lat="43.4571021838368" lon="1.8630322647510835"><ele>281.0</ele><time>2026-03-22T16:21:38.999Z</time></trkpt><trkpt lat="43.45718200404502" lon="1.8628148724987152"><ele>277.33333333333337</ele><time>2026-03-22T16:21:39.999Z</time></trkpt><trkpt lat="43.4572691053532" lon="1.8626022037067222"><ele>273.6666666666667</ele><time>2026-03-22T16:21:40.999Z</time></trkpt><trkpt lat="43.45736470452979" lon="1.8623914239129506"><ele>270.0</ele><time>2026-03-22T16:21:41.999Z</time></trkpt><trkpt lat="43.457471203115944" lon="1.8621813588576854"><ele>270.0</ele><time>2026-03-22T16:21:42.999Z</time></trkpt><trkpt lat="43.45759385407745" lon="1.8619711577161808"><ele>270.0</ele><time>2026-03-22T16:21:43.999Z</time></trkpt><trkpt lat="43.457719245373546" lon="1.8617767898881454"><ele>270.0</ele><time>2026-03-22T16:21:44.999Z</time></trkpt><trkpt lat="43.457839036896296" lon="1.8615918489637449"><ele>270.3333333333333</ele><time>2026-03-22T16:21:45.999Z</time></trkpt><trkpt lat="43.45795816953706" lon="1.861410718981546"><ele>270.66666666666663</ele><time>2026-03-22T16:21:46.999Z</time></trkpt><trkpt lat="43.45805156411052" lon="1.8612525957211807"><ele>271.0</ele><time>2026-03-22T16:21:47.999Z</time></trkpt><trkpt lat="43.458135394906144" lon="1.86111171930422"><ele>271.0</ele><time>2026-03-22T16:21:48.999Z</time></trkpt><trkpt lat="43.45822704894131" lon="1.861004545334688"><ele>271.0</ele><time>2026-03-22T16:21:49.999Z</time></trkpt><trkpt lat="43.458311890743445" lon="1.8609055897465026"><ele>271.0</ele><time>2026-03-22T16:21:50.999Z</time></trkpt><trkpt lat="43.45838075643087" lon="1.8608248330300747"><ele>271.0</ele><time>2026-03-22T16:21:51.999Z</time></trkpt><trkpt lat="43.45878575905814" lon="1.8604501933620805"><ele>268.3333333333333</ele><time>2026-03-22T16:21:52.999Z</time></trkpt><trkpt lat="43.45895218050139" lon="1.8603243177501652"><ele>265.6666666666667</ele><time>2026-03-22T16:21:53.999Z</time></trkpt><trkpt lat="43.45913063160019" lon="1.860203892199897"><ele>263.0</ele><time>2026-03-22T16:21:54.999Z</time></trkpt><trkpt lat="43.45931348525259" lon="1.8600894366201375"><ele>260.33333333333337</ele><time>2026-03-22T16:21:55.999Z</time></trkpt><trkpt lat="43.45948365446703" lon="1.8599719842689355"><ele>257.6666666666667</ele><time>2026-03-22T16:21:56.999Z</time></trkpt><trkpt lat="43.459655087118136" lon="1.859858747712999"><ele>255.0</ele><time>2026-03-22T16:21:57.999Z</time></trkpt><trkpt lat="43.45982314251565" lon="1.8597451967288354"><ele>255.0</ele><time>2026-03-22T16:21:58.999Z</time></trkpt><trkpt lat="43.45998867920818" lon="1.8596232752594608"><ele>255.0</ele><time>2026-03-22T16:21:59.999Z</time></trkpt><trkpt lat="43.46016608090589" lon="1.859501380975879"><ele>255.0</ele><time>2026-03-22T16:22:00.999Z</time></trkpt><trkpt lat="43.460331888195434" lon="1.8593888634507656"><ele>251.33333333333331</ele><time>2026-03-22T16:22:01.999Z</time></trkpt><trkpt lat="43.460486158912886" lon="1.8592792236185753"><ele>247.66666666666666</ele><time>2026-03-22T16:22:02.999Z</time></trkpt><trkpt lat="43.460627960260645" lon="1.8591544840419347"><ele>244.0</ele><time>2026-03-22T16:22:03.999Z</time></trkpt><trkpt lat="43.46076476039389" lon="1.8590472123172188"><ele>244.0</ele><time>2026-03-22T16:22:04.999Z</time></trkpt><trkpt lat="43.4608993986106" lon="1.858943707321054"><ele>244.0</ele><time>2026-03-22T16:22:06Z</time></trkpt><trkpt lat="43.46103026027185" lon="1.8588306432268098"><ele>244.0</ele><time>2026-03-22T16:22:07Z</time></trkpt><trkpt lat="43.46115540910484" lon="1.8586753195467747"><ele>244.0</ele><time>2026-03-22T16:22:08Z</time></trkpt><trkpt lat="43.46126330350148" lon="1.858506990576873"><ele>244.0</ele><time>2026-03-22T16:22:09Z</time></trkpt><trkpt lat="43.461352945588324" lon="1.8583116392131376"><ele>244.0</ele><time>2026-03-22T16:22:10Z</time></trkpt><trkpt lat="43.461431640496315" lon="1.8580894671962727"><ele>242.0</ele><time>2026-03-22T16:22:11Z</time></trkpt><trkpt lat="43.461487278395445" lon="1.8578694031981944"><ele>240.0</ele><time>2026-03-22T16:22:12Z</time></trkpt><trkpt lat="43.461496873015705" lon="1.8576346959441923"><ele>238.0</ele><time>2026-03-22T16:22:13Z</time></trkpt><trkpt lat="43.46150365220133" lon="1.857401595108868"><ele>237.33333333333331</ele><time>2026-03-22T16:22:14Z</time></trkpt><trkpt lat="43.46147216759354" lon="1.8571115170978634"><ele>236.66666666666669</ele><time>2026-03-22T16:22:15Z</time></trkpt><trkpt lat="43.46143518300332" lon="1.8568033461508529"><ele>236.0</ele><time>2026-03-22T16:22:16Z</time></trkpt><trkpt lat="43.46138582371379" lon="1.8564721142349343"><ele>238.33333333333334</ele><time>2026-03-22T16:22:17Z</time></trkpt><trkpt lat="43.461345024781686" lon="1.856147476210342"><ele>240.66666666666669</ele><time>2026-03-22T16:22:18Z</time></trkpt><trkpt lat="43.461320482690624" lon="1.8558643100277443"><ele>243.0</ele><time>2026-03-22T16:22:19Z</time></trkpt><trkpt lat="43.461294164403995" lon="1.855620112058965"><ele>244.33333333333331</ele><time>2026-03-22T16:22:20Z</time></trkpt><trkpt lat="43.461260259708055" lon="1.8553873721717933"><ele>245.66666666666666</ele><time>2026-03-22T16:22:21Z</time></trkpt><trkpt lat="43.46122958864336" lon="1.8551678771951123"><ele>247.0</ele><time>2026-03-22T16:22:22Z</time></trkpt><trkpt lat="43.461202268222856" lon="1.854940182857235"><ele>248.0</ele><time>2026-03-22T16:22:23Z</time></trkpt><trkpt lat="43.461177847614906" lon="1.8547123996301043"><ele>249.0</ele><time>2026-03-22T16:22:24Z</time></trkpt><trkpt lat="43.461158573921495" lon="1.8544836478048101"><ele>250.0</ele><time>2026-03-22T16:22:25Z</time></trkpt><trkpt lat="43.461132087880586" lon="1.8542574088305281"><ele>250.66666666666666</ele><time>2026-03-22T16:22:26Z</time></trkpt><trkpt lat="43.46110427431588" lon="1.854029725903514"><ele>251.33333333333331</ele><time>2026-03-22T16:22:27Z</time></trkpt><trkpt lat="43.46107756375649" lon="1.8538061695151908"><ele>252.0</ele><time>2026-03-22T16:22:28Z</time></trkpt><trkpt lat="43.461056280546195" lon="1.8535902738056336"><ele>253.0</ele><time>2026-03-22T16:22:29Z</time></trkpt><trkpt lat="43.46103351481249" lon="1.8533829972225444"><ele>254.0</ele><time>2026-03-22T16:22:30Z</time></trkpt><trkpt lat="43.46099682255216" lon="1.8531821816604057"><ele>255.0</ele><time>2026-03-22T16:22:31Z</time></trkpt><trkpt lat="43.46094232007338" lon="1.8529722400656539"><ele>255.0</ele><time>2026-03-22T16:22:32Z</time></trkpt><trkpt lat="43.46086219780005" lon="1.8527549876500207"><ele>255.0</ele><time>2026-03-22T16:22:33Z</time></trkpt><trkpt lat="43.46077283713263" lon="1.8525435779939323"><ele>255.0</ele><time>2026-03-22T16:22:34Z</time></trkpt><trkpt lat="43.460676945272155" lon="1.8523464267533614"><ele>256.0</ele><time>2026-03-22T16:22:35Z</time></trkpt><trkpt lat="43.460585263324226" lon="1.8521610267037394"><ele>257.0</ele><time>2026-03-22T16:22:36Z</time></trkpt><trkpt lat="43.460492694273746" lon="1.8519798298426355"><ele>258.0</ele><time>2026-03-22T16:22:37Z</time></trkpt><trkpt lat="43.46040366540918" lon="1.8517980249483594"><ele>259.6666666666667</ele><time>2026-03-22T16:22:38Z</time></trkpt><trkpt lat="43.46032259624293" lon="1.851621724787389"><ele>261.33333333333337</ele><time>2026-03-22T16:22:39Z</time></trkpt><trkpt lat="43.46024632044852" lon="1.8514503625676026"><ele>263.0</ele><time>2026-03-22T16:22:40Z</time></trkpt><trkpt lat="43.46015966357717" lon="1.8512756984224326"><ele>263.0</ele><time>2026-03-22T16:22:41Z</time></trkpt><trkpt lat="43.46007133360661" lon="1.8510896833276784"><ele>263.0</ele><time>2026-03-22T16:22:42Z</time></trkpt><trkpt lat="43.460001130078716" lon="1.8509135135322499"><ele>263.0</ele><time>2026-03-22T16:22:43Z</time></trkpt><trkpt lat="43.45993639309628" lon="1.8507169991431738"><ele>264.0</ele><time>2026-03-22T16:22:44Z</time></trkpt><trkpt lat="43.45987997416132" lon="1.8505054090085356"><ele>265.0</ele><time>2026-03-22T16:22:45Z</time></trkpt><trkpt lat="43.459840043674426" lon="1.850281175068261"><ele>266.0</ele><time>2026-03-22T16:22:46Z</time></trkpt><trkpt lat="43.4598177808942" lon="1.8500295499788164"><ele>266.0</ele><time>2026-03-22T16:22:47Z</time></trkpt><trkpt lat="43.45981606695697" lon="1.8497535738532467"><ele>266.0</ele><time>2026-03-22T16:22:48Z</time></trkpt><trkpt lat="43.45985048110188" lon="1.849471841287841"><ele>266.0</ele><time>2026-03-22T16:22:49Z</time></trkpt><trkpt lat="43.45989513601297" lon="1.8491786859254435"><ele>266.0</ele><time>2026-03-22T16:22:50Z</time></trkpt><trkpt lat="43.459948116379614" lon="1.8489142272459171"><ele>266.0</ele><time>2026-03-22T16:22:51Z</time></trkpt><trkpt lat="43.46000366380539" lon="1.848648708127413"><ele>266.0</ele><time>2026-03-22T16:22:52Z</time></trkpt><trkpt lat="43.46005748054151" lon="1.8483899722170614"><ele>266.6666666666667</ele><time>2026-03-22T16:22:53Z</time></trkpt><trkpt lat="43.46010897390715" lon="1.8481226497039522"><ele>267.3333333333333</ele><time>2026-03-22T16:22:54Z</time></trkpt><trkpt lat="43.46016438122283" lon="1.8478580200008061"><ele>268.0</ele><time>2026-03-22T16:22:55Z</time></trkpt><trkpt lat="43.460216335807566" lon="1.8475914525504669"><ele>268.66666666666663</ele><time>2026-03-22T16:22:56Z</time></trkpt><trkpt lat="43.460272337116905" lon="1.8473290794271096"><ele>269.3333333333333</ele><time>2026-03-22T16:22:57Z</time></trkpt><trkpt lat="43.46032500911713" lon="1.847072457716754"><ele>270.0</ele><time>2026-03-22T16:22:58Z</time></trkpt><trkpt lat="43.46037847259877" lon="1.846816068762839"><ele>270.6666666666667</ele><time>2026-03-22T16:22:59Z</time></trkpt><trkpt lat="43.46043161619362" lon="1.8465605380107863"><ele>271.33333333333337</ele><time>2026-03-22T16:23:00Z</time></trkpt><trkpt lat="43.460484252512515" lon="1.8463108474660679"><ele>272.0</ele><time>2026-03-22T16:23:01Z</time></trkpt><trkpt lat="43.46053460243047" lon="1.8460589465638513"><ele>270.6666666666667</ele><time>2026-03-22T16:23:02Z</time></trkpt><trkpt lat="43.46058729500553" lon="1.8458101293123452"><ele>269.3333333333333</ele><time>2026-03-22T16:23:03Z</time></trkpt><trkpt lat="43.460640002759604" lon="1.8455609052323787"><ele>268.0</ele><time>2026-03-22T16:23:04Z</time></trkpt><trkpt lat="43.46069216668993" lon="1.84531419968124"><ele>269.0</ele><time>2026-03-22T16:23:05Z</time></trkpt><trkpt lat="43.46073865896109" lon="1.845084645801209"><ele>270.0</ele><time>2026-03-22T16:23:06Z</time></trkpt><trkpt lat="43.46078660563483" lon="1.8448533848703235"><ele>271.0</ele><time>2026-03-22T16:23:07Z</time></trkpt><trkpt lat="43.4608364574747" lon="1.844610250824143"><ele>271.0</ele><time>2026-03-22T16:23:08Z</time></trkpt><trkpt lat="43.46088850057998" lon="1.8443634561440216"><ele>271.0</ele><time>2026-03-22T16:23:09Z</time></trkpt><trkpt lat="43.46093917622965" lon="1.8441117336427835"><ele>271.0</ele><time>2026-03-22T16:23:10Z</time></trkpt><trkpt lat="43.46099183219925" lon="1.8438639297057584"><ele>271.0</ele><time>2026-03-22T16:23:11Z</time></trkpt><trkpt lat="43.461042898164465" lon="1.8436202418236698"><ele>271.0</ele><time>2026-03-22T16:23:12Z</time></trkpt><trkpt lat="43.46109545614067" lon="1.843377742108684"><ele>271.0</ele><time>2026-03-22T16:23:13Z</time></trkpt><trkpt lat="43.46114278763774" lon="1.8431485676214245"><ele>271.0</ele><time>2026-03-22T16:23:14Z</time></trkpt><trkpt lat="43.46118916502371" lon="1.8429199101729232"><ele>271.0</ele><time>2026-03-22T16:23:15Z</time></trkpt><trkpt lat="43.461240157259695" lon="1.8426833925235047"><ele>271.0</ele><time>2026-03-22T16:23:16Z</time></trkpt><trkpt lat="43.461295847941344" lon="1.8424190197354133"><ele>271.0</ele><time>2026-03-22T16:23:17Z</time></trkpt><trkpt lat="43.46135448917652" lon="1.8421263518892552"><ele>271.0</ele><time>2026-03-22T16:23:18Z</time></trkpt><trkpt lat="43.46140636249905" lon="1.8418567536837238"><ele>271.0</ele><time>2026-03-22T16:23:19Z</time></trkpt><trkpt lat="43.4614636254895" lon="1.8415798863173123"><ele>272.0</ele><time>2026-03-22T16:23:20Z</time></trkpt><trkpt lat="43.46152073123305" lon="1.8412955785569134"><ele>273.0</ele><time>2026-03-22T16:23:21Z</time></trkpt><trkpt lat="43.46156649155349" lon="1.8410333727412906"><ele>274.0</ele><time>2026-03-22T16:23:22Z</time></trkpt><trkpt lat="43.461600694629034" lon="1.8407887637956064"><ele>274.3333333333333</ele><time>2026-03-22T16:23:23Z</time></trkpt><trkpt lat="43.4616242431875" lon="1.8405439735492313"><ele>274.6666666666667</ele><time>2026-03-22T16:23:24Z</time></trkpt><trkpt lat="43.461631886414665" lon="1.8402898536538608"><ele>275.0</ele><time>2026-03-22T16:23:25Z</time></trkpt><trkpt lat="43.461626030532294" lon="1.840028672445072"><ele>275.6666666666667</ele><time>2026-03-22T16:23:26Z</time></trkpt><trkpt lat="43.46160545132212" lon="1.8397706012127026"><ele>276.3333333333333</ele><time>2026-03-22T16:23:27Z</time></trkpt><trkpt lat="43.46157642625517" lon="1.8395366010759975"><ele>277.0</ele><time>2026-03-22T16:23:28Z</time></trkpt><trkpt lat="43.461539307902434" lon="1.8393058159539433"><ele>277.3333333333333</ele><time>2026-03-22T16:23:29Z</time></trkpt><trkpt lat="43.46149433817767" lon="1.8390776929880313"><ele>277.6666666666667</ele><time>2026-03-22T16:23:30Z</time></trkpt><trkpt lat="43.46143615119095" lon="1.8388516718769015"><ele>278.0</ele><time>2026-03-22T16:23:31Z</time></trkpt><trkpt lat="43.461374876078146" lon="1.838631238432396"><ele>278.33333333333337</ele><time>2026-03-22T16:23:32Z</time></trkpt><trkpt lat="43.46132105527271" lon="1.838417971469606"><ele>278.6666666666667</ele><time>2026-03-22T16:23:33Z</time></trkpt><trkpt lat="43.4612735503446" lon="1.8381969977437767"><ele>279.0</ele><time>2026-03-22T16:23:34Z</time></trkpt><trkpt lat="43.46124073898728" lon="1.8379780614340708"><ele>278.3333333333333</ele><time>2026-03-22T16:23:34.999Z</time></trkpt><trkpt lat="43.46122196012964" lon="1.8377596177330375"><ele>277.66666666666663</ele><time>2026-03-22T16:23:35.999Z</time></trkpt><trkpt lat="43.461212735339814" lon="1.8375301359146607"><ele>277.0</ele><time>2026-03-22T16:23:36.999Z</time></trkpt><trkpt lat="43.46120637800368" lon="1.8372924416036174"><ele>277.0</ele><time>2026-03-22T16:23:37.999Z</time></trkpt><trkpt lat="43.46120887271061" lon="1.8370560615893174"><ele>277.0</ele><time>2026-03-22T16:23:38.999Z</time></trkpt><trkpt lat="43.46122142161894" lon="1.8368062874157693"><ele>277.0</ele><time>2026-03-22T16:23:39.999Z</time></trkpt><trkpt lat="43.46125564800766" lon="1.8365263906224176"><ele>276.3333333333333</ele><time>2026-03-22T16:23:40.999Z</time></trkpt><trkpt lat="43.4612911710066" lon="1.836257815402506"><ele>275.6666666666667</ele><time>2026-03-22T16:23:41.999Z</time></trkpt><trkpt lat="43.461328465141" lon="1.8359875147615443"><ele>275.0</ele><time>2026-03-22T16:23:42.999Z</time></trkpt><trkpt lat="43.46136545738637" lon="1.8357180388631573"><ele>274.6666666666667</ele><time>2026-03-22T16:23:43.999Z</time></trkpt><trkpt lat="43.461401036287434" lon="1.8354304155264494"><ele>274.3333333333333</ele><time>2026-03-22T16:23:44.999Z</time></trkpt><trkpt lat="43.46143367146471" lon="1.835167693944095"><ele>274.0</ele><time>2026-03-22T16:23:45.999Z</time></trkpt><trkpt lat="43.46146507460125" lon="1.8349487162218676"><ele>274.0</ele><time>2026-03-22T16:23:46.999Z</time></trkpt><trkpt lat="43.46149051454347" lon="1.83474114810039"><ele>274.0</ele><time>2026-03-22T16:23:47.999Z</time></trkpt><trkpt lat="43.461517472861864" lon="1.834518591286152"><ele>274.0</ele><time>2026-03-22T16:23:48.999Z</time></trkpt><trkpt lat="43.46154516720367" lon="1.8342895459132131"><ele>275.0</ele><time>2026-03-22T16:23:49.999Z</time></trkpt><trkpt lat="43.46157495951869" lon="1.8340536102448803"><ele>276.0</ele><time>2026-03-22T16:23:50.999Z</time></trkpt><trkpt lat="43.46160429288694" lon="1.8338135446907426"><ele>277.0</ele><time>2026-03-22T16:23:51.999Z</time></trkpt><trkpt lat="43.46163081922926" lon="1.8335715471750897"><ele>277.66666666666663</ele><time>2026-03-22T16:23:52.999Z</time></trkpt><trkpt lat="43.46166021838827" lon="1.8333276204855762"><ele>278.3333333333333</ele><time>2026-03-22T16:23:53.999Z</time></trkpt><trkpt lat="43.46168863981765" lon="1.8330832760964302"><ele>279.0</ele><time>2026-03-22T16:23:54.999Z</time></trkpt><trkpt lat="43.46171841858853" lon="1.8328365455094513"><ele>278.3333333333333</ele><time>2026-03-22T16:23:55.999Z</time></trkpt><trkpt lat="43.461749684509606" lon="1.8325931258510597"><ele>277.66666666666663</ele><time>2026-03-22T16:23:56.999Z</time></trkpt><trkpt lat="43.461777724894" lon="1.8323579803597034"><ele>277.0</ele><time>2026-03-22T16:23:57.999Z</time></trkpt><trkpt lat="43.4618022054933" lon="1.8321304870571344"><ele>277.0</ele><time>2026-03-22T16:23:58.999Z</time></trkpt><trkpt lat="43.46181919509987" lon="1.83190944051703"><ele>277.0</ele><time>2026-03-22T16:23:59.999Z</time></trkpt><trkpt lat="43.461839461466134" lon="1.831678110142299"><ele>277.0</ele><time>2026-03-22T16:24:00.999Z</time></trkpt><trkpt lat="43.461850770938725" lon="1.8314607651793704"><ele>276.0</ele><time>2026-03-22T16:24:01.999Z</time></trkpt><trkpt lat="43.461875247792776" lon="1.8312467529859502"><ele>275.0</ele><time>2026-03-22T16:24:02.999Z</time></trkpt><trkpt lat="43.461897978512845" lon="1.8310349334028424"><ele>274.0</ele><time>2026-03-22T16:24:03.999Z</time></trkpt><trkpt lat="43.461922380017214" lon="1.8308407695051305"><ele>274.0</ele><time>2026-03-22T16:24:04.999Z</time></trkpt><trkpt lat="43.461945636588595" lon="1.8306495291573983"><ele>274.0</ele><time>2026-03-22T16:24:05.999Z</time></trkpt><trkpt lat="43.46196326484085" lon="1.8304515133627939"><ele>274.0</ele><time>2026-03-22T16:24:06.999Z</time></trkpt><trkpt lat="43.46197702489978" lon="1.830238250027857"><ele>274.0</ele><time>2026-03-22T16:24:07.999Z</time></trkpt><trkpt lat="43.46198622813173" lon="1.8300088334413322"><ele>274.0</ele><time>2026-03-22T16:24:08.999Z</time></trkpt><trkpt lat="43.46198638489223" lon="1.8297501768302562"><ele>274.0</ele><time>2026-03-22T16:24:09.999Z</time></trkpt><trkpt lat="43.461978703108755" lon="1.8294824730156394"><ele>274.0</ele><time>2026-03-22T16:24:10.999Z</time></trkpt><trkpt lat="43.461979963668355" lon="1.8292222196455854"><ele>273.3333333333333</ele><time>2026-03-22T16:24:12Z</time></trkpt><trkpt lat="43.46197188058335" lon="1.8289421736351688"><ele>272.6666666666667</ele><time>2026-03-22T16:24:13Z</time></trkpt><trkpt lat="43.46196863965394" lon="1.8286354383555663"><ele>272.0</ele><time>2026-03-22T16:24:14Z</time></trkpt><trkpt lat="43.46196263854722" lon="1.8283106128377438"><ele>271.5</ele><time>2026-03-22T16:24:15Z</time></trkpt><trkpt lat="43.46195444278564" lon="1.8279486612702767"><ele>271.0</ele><time>2026-03-22T16:24:16Z</time></trkpt><trkpt lat="43.461947340864455" lon="1.8275685583345336"><ele>271.0</ele><time>2026-03-22T16:24:17Z</time></trkpt><trkpt lat="43.46194428537345" lon="1.8271725867047712"><ele>271.0</ele><time>2026-03-22T16:24:18Z</time></trkpt><trkpt lat="43.46193768152636" lon="1.8267939817415495"><ele>270.0</ele><time>2026-03-22T16:24:19Z</time></trkpt><trkpt lat="43.461932250232195" lon="1.8264427972136208"><ele>269.0</ele><time>2026-03-22T16:24:20Z</time></trkpt><trkpt lat="43.46192586319443" lon="1.8261007595898606"><ele>268.5</ele><time>2026-03-22T16:24:21Z</time></trkpt><trkpt lat="43.46191913842954" lon="1.8257501217168632"><ele>268.0</ele><time>2026-03-22T16:24:22Z</time></trkpt><trkpt lat="43.46191253055324" lon="1.8253850957104139"><ele>268.0</ele><time>2026-03-22T16:24:23Z</time></trkpt><trkpt lat="43.461905311675906" lon="1.8250095969292177"><ele>268.0</ele><time>2026-03-22T16:24:24Z</time></trkpt><trkpt lat="43.461898151600984" lon="1.824663334142445"><ele>268.0</ele><time>2026-03-22T16:24:25Z</time></trkpt><trkpt lat="43.461895249348196" lon="1.8243481353400688"><ele>268.0</ele><time>2026-03-22T16:24:26Z</time></trkpt><trkpt lat="43.461893519010104" lon="1.8240379682415473"><ele>268.0</ele><time>2026-03-22T16:24:27Z</time></trkpt><trkpt lat="43.46188956136532" lon="1.8237249158194462"><ele>268.0</ele><time>2026-03-22T16:24:28Z</time></trkpt><trkpt lat="43.461883747221094" lon="1.8234099598856264"><ele>269.0</ele><time>2026-03-22T16:24:29Z</time></trkpt><trkpt lat="43.461877687944146" lon="1.8230858298344024"><ele>270.0</ele><time>2026-03-22T16:24:30Z</time></trkpt><trkpt lat="43.461872420236375" lon="1.8227535280968332"><ele>270.0</ele><time>2026-03-22T16:24:31Z</time></trkpt><trkpt lat="43.46186652891366" lon="1.8223990075556833"><ele>270.0</ele><time>2026-03-22T16:24:32Z</time></trkpt><trkpt lat="43.461863043193766" lon="1.8220408157747743"><ele>268.0</ele><time>2026-03-22T16:24:33Z</time></trkpt><trkpt lat="43.46185492025053" lon="1.8216546468523973"><ele>266.0</ele><time>2026-03-22T16:24:34Z</time></trkpt><trkpt lat="43.46185326922044" lon="1.8212718868606106"><ele>264.5</ele><time>2026-03-22T16:24:35Z</time></trkpt><trkpt lat="43.46184900772305" lon="1.8209219780033379"><ele>263.0</ele><time>2026-03-22T16:24:36Z</time></trkpt><trkpt lat="43.461844859169275" lon="1.8205683903562304"><ele>263.0</ele><time>2026-03-22T16:24:37Z</time></trkpt><trkpt lat="43.461840852761625" lon="1.8202241722441665"><ele>263.0</ele><time>2026-03-22T16:24:38Z</time></trkpt><trkpt lat="43.46183641590437" lon="1.8198788701907038"><ele>263.0</ele><time>2026-03-22T16:24:39Z</time></trkpt><trkpt lat="43.46183626559451" lon="1.8195448049462395"><ele>263.0</ele><time>2026-03-22T16:24:40Z</time></trkpt><trkpt lat="43.46184153251455" lon="1.8192148333327212"><ele>263.0</ele><time>2026-03-22T16:24:41Z</time></trkpt><trkpt lat="43.461854604437306" lon="1.8189021584413825"><ele>263.0</ele><time>2026-03-22T16:24:42Z</time></trkpt><trkpt lat="43.461896585790974" lon="1.8185899093131879"><ele>264.5</ele><time>2026-03-22T16:24:43Z</time></trkpt><trkpt lat="43.46196648216926" lon="1.8182367436589912"><ele>266.0</ele><time>2026-03-22T16:24:44Z</time></trkpt><trkpt lat="43.46204884064267" lon="1.8178778263207342"><ele>264.5</ele><time>2026-03-22T16:24:45Z</time></trkpt><trkpt lat="43.462143156903494" lon="1.8175163783204802"><ele>263.0</ele><time>2026-03-22T16:24:46Z</time></trkpt><trkpt lat="43.462244557926226" lon="1.8171938568463608"><ele>263.0</ele><time>2026-03-22T16:24:47Z</time></trkpt><trkpt lat="43.462370911503434" lon="1.8168735668464684"><ele>263.0</ele><time>2026-03-22T16:24:48Z</time></trkpt><trkpt lat="43.462516354760034" lon="1.816556162932483"><ele>264.5</ele><time>2026-03-22T16:24:49Z</time></trkpt><trkpt lat="43.46266815458826" lon="1.8162270566254486"><ele>266.0</ele><time>2026-03-22T16:24:50Z</time></trkpt><trkpt lat="43.462817071747516" lon="1.8158902148454572"><ele>264.5</ele><time>2026-03-22T16:24:51Z</time></trkpt><trkpt lat="43.46295728301714" lon="1.8155554253256747"><ele>263.0</ele><time>2026-03-22T16:24:52Z</time></trkpt><trkpt lat="43.463094251951816" lon="1.8152336906288389"><ele>263.0</ele><time>2026-03-22T16:24:53Z</time></trkpt><trkpt lat="43.463228472708664" lon="1.8149236993581719"><ele>263.0</ele><time>2026-03-22T16:24:54Z</time></trkpt><trkpt lat="43.46336531583497" lon="1.814607999742092"><ele>263.5</ele><time>2026-03-22T16:24:55Z</time></trkpt><trkpt lat="43.463491150153814" lon="1.8143051238473202"><ele>264.0</ele><time>2026-03-22T16:24:56Z</time></trkpt><trkpt lat="43.46362171887012" lon="1.8140095580028872"><ele>264.0</ele><time>2026-03-22T16:24:57Z</time></trkpt><trkpt lat="43.46374503099584" lon="1.8137295425295255"><ele>264.0</ele><time>2026-03-22T16:24:58Z</time></trkpt><trkpt lat="43.46386538081581" lon="1.8134542825291304"><ele>263.3333333333333</ele><time>2026-03-22T16:24:59Z</time></trkpt><trkpt lat="43.46397682984277" lon="1.8131892557114608"><ele>262.66666666666663</ele><time>2026-03-22T16:25:00Z</time></trkpt><trkpt lat="43.46407575051525" lon="1.8129322702784658"><ele>262.0</ele><time>2026-03-22T16:25:01Z</time></trkpt><trkpt lat="43.46417149962568" lon="1.8126468571479883"><ele>262.0</ele><time>2026-03-22T16:25:02Z</time></trkpt><trkpt lat="43.4642648362618" lon="1.8123359259781504"><ele>262.0</ele><time>2026-03-22T16:25:03Z</time></trkpt><trkpt lat="43.46435781060716" lon="1.8120227054875027"><ele>261.0</ele><time>2026-03-22T16:25:04Z</time></trkpt><trkpt lat="43.46445639489499" lon="1.8117045290404838"><ele>260.0</ele><time>2026-03-22T16:25:05Z</time></trkpt><trkpt lat="43.46455358810758" lon="1.8113810177715484"><ele>259.0</ele><time>2026-03-22T16:25:06Z</time></trkpt><trkpt lat="43.46465150909812" lon="1.8110509591087032"><ele>258.0</ele><time>2026-03-22T16:25:07Z</time></trkpt><trkpt lat="43.46474863472946" lon="1.8107214211788651"><ele>258.0</ele><time>2026-03-22T16:25:08Z</time></trkpt><trkpt lat="43.464844090407865" lon="1.8103914007021273"><ele>258.0</ele><time>2026-03-22T16:25:09Z</time></trkpt><trkpt lat="43.46493868753584" lon="1.8100598884336778"><ele>258.0</ele><time>2026-03-22T16:25:10Z</time></trkpt><trkpt lat="43.46503538048058" lon="1.8097336716496149"><ele>258.0</ele><time>2026-03-22T16:25:11Z</time></trkpt><trkpt lat="43.4651341167563" lon="1.8094172306093734"><ele>258.5</ele><time>2026-03-22T16:25:12Z</time></trkpt><trkpt lat="43.46523817372125" lon="1.8090844667909678"><ele>259.0</ele><time>2026-03-22T16:25:13Z</time></trkpt><trkpt lat="43.465342816797076" lon="1.808732892667457"><ele>258.5</ele><time>2026-03-22T16:25:14Z</time></trkpt><trkpt lat="43.465439668592346" lon="1.808414386138265"><ele>258.0</ele><time>2026-03-22T16:25:15Z</time></trkpt><trkpt lat="43.46553730772985" lon="1.8080921320468923"><ele>256.0</ele><time>2026-03-22T16:25:16Z</time></trkpt><trkpt lat="43.46564069064903" lon="1.8077528979891349"><ele>254.0</ele><time>2026-03-22T16:25:17Z</time></trkpt><trkpt lat="43.46574537097385" lon="1.807401564893817"><ele>254.0</ele><time>2026-03-22T16:25:18Z</time></trkpt><trkpt lat="43.46585214165714" lon="1.8070513929098615"><ele>254.0</ele><time>2026-03-22T16:25:19Z</time></trkpt><trkpt lat="43.465944437048975" lon="1.8067238567642019"><ele>254.5</ele><time>2026-03-22T16:25:20Z</time></trkpt><trkpt lat="43.46604176740295" lon="1.8063938750207111"><ele>255.0</ele><time>2026-03-22T16:25:21Z</time></trkpt><trkpt lat="43.4661445994625" lon="1.8060698126406427"><ele>254.5</ele><time>2026-03-22T16:25:22Z</time></trkpt><trkpt lat="43.466244773154465" lon="1.8057450935712882"><ele>254.0</ele><time>2026-03-22T16:25:23Z</time></trkpt><trkpt lat="43.46634793321198" lon="1.8054105649624013"><ele>252.5</ele><time>2026-03-22T16:25:24Z</time></trkpt><trkpt lat="43.466455429809585" lon="1.8050612979090506"><ele>251.0</ele><time>2026-03-22T16:25:25Z</time></trkpt><trkpt lat="43.466565527410964" lon="1.8047007370328811"><ele>251.0</ele><time>2026-03-22T16:25:26Z</time></trkpt><trkpt lat="43.46666974720428" lon="1.8043545112471302"><ele>251.0</ele><time>2026-03-22T16:25:27Z</time></trkpt><trkpt lat="43.466767325842376" lon="1.8040267123488438"><ele>250.5</ele><time>2026-03-22T16:25:28Z</time></trkpt><trkpt lat="43.46686955878779" lon="1.8036985578443014"><ele>250.0</ele><time>2026-03-22T16:25:29Z</time></trkpt><trkpt lat="43.46696957437535" lon="1.803377223353401"><ele>250.0</ele><time>2026-03-22T16:25:30Z</time></trkpt><trkpt lat="43.46707076758541" lon="1.8030534670940552"><ele>250.0</ele><time>2026-03-22T16:25:31Z</time></trkpt><trkpt lat="43.4671669916777" lon="1.802731955388549"><ele>247.5</ele><time>2026-03-22T16:25:32Z</time></trkpt><trkpt lat="43.46726254616419" lon="1.8024144425602777"><ele>245.0</ele><time>2026-03-22T16:25:33Z</time></trkpt><trkpt lat="43.46734866628573" lon="1.8021176112036468"><ele>245.33333333333334</ele><time>2026-03-22T16:25:34Z</time></trkpt><trkpt lat="43.46743353887786" lon="1.8018297930799958"><ele>245.66666666666669</ele><time>2026-03-22T16:25:34.999Z</time></trkpt><trkpt lat="43.46751548810176" lon="1.8015476651860198"><ele>246.0</ele><time>2026-03-22T16:25:35.999Z</time></trkpt><trkpt lat="43.46759696683582" lon="1.8012672365136506"><ele>246.0</ele><time>2026-03-22T16:25:36.999Z</time></trkpt><trkpt lat="43.467675020660096" lon="1.8009672612315755"><ele>246.0</ele><time>2026-03-22T16:25:37.999Z</time></trkpt><trkpt lat="43.46773730578326" lon="1.8006327167446703"><ele>246.0</ele><time>2026-03-22T16:25:38.999Z</time></trkpt><trkpt lat="43.467785124192304" lon="1.8002741625336096"><ele>246.0</ele><time>2026-03-22T16:25:39.999Z</time></trkpt><trkpt lat="43.46783233117806" lon="1.7998903817823175"><ele>246.0</ele><time>2026-03-22T16:25:40.999Z</time></trkpt><trkpt lat="43.46788393824685" lon="1.7994917716167718"><ele>246.0</ele><time>2026-03-22T16:25:41.999Z</time></trkpt><trkpt lat="43.46793630697117" lon="1.7991156898803269"><ele>243.0</ele><time>2026-03-22T16:25:42.999Z</time></trkpt><trkpt lat="43.46798378169713" lon="1.7987706597084763"><ele>240.0</ele><time>2026-03-22T16:25:43.999Z</time></trkpt><trkpt lat="43.46802325403719" lon="1.7984540352321796"><ele>239.5</ele><time>2026-03-22T16:25:44.999Z</time></trkpt><trkpt lat="43.46805824046376" lon="1.7981504923045677"><ele>239.0</ele><time>2026-03-22T16:25:45.999Z</time></trkpt><trkpt lat="43.46809781141252" lon="1.7978416050314872"><ele>240.5</ele><time>2026-03-22T16:25:46.999Z</time></trkpt><trkpt lat="43.46814190397455" lon="1.7975337144319328"><ele>242.0</ele><time>2026-03-22T16:25:47.999Z</time></trkpt><trkpt lat="43.46818274549787" lon="1.797225937099857"><ele>242.0</ele><time>2026-03-22T16:25:48.999Z</time></trkpt><trkpt lat="43.468222993078015" lon="1.7969162516839132"><ele>242.0</ele><time>2026-03-22T16:25:49.999Z</time></trkpt><trkpt lat="43.468259936779866" lon="1.7966196754420536"><ele>242.0</ele><time>2026-03-22T16:25:50.999Z</time></trkpt><trkpt lat="43.46829707722378" lon="1.796319758142132"><ele>243.5</ele><time>2026-03-22T16:25:51.999Z</time></trkpt><trkpt lat="43.46833307596336" lon="1.7960125452567388"><ele>245.0</ele><time>2026-03-22T16:25:52.999Z</time></trkpt><trkpt lat="43.46839135352644" lon="1.7956725952705745"><ele>246.0</ele><time>2026-03-22T16:25:53.999Z</time></trkpt><trkpt lat="43.46844668054155" lon="1.7953045091264583"><ele>247.0</ele><time>2026-03-22T16:25:54.999Z</time></trkpt><trkpt lat="43.46849259128253" lon="1.7949096228222592"><ele>247.0</ele><time>2026-03-22T16:25:55.999Z</time></trkpt><trkpt lat="43.46855358504118" lon="1.7944999802630435"><ele>247.0</ele><time>2026-03-22T16:25:56.999Z</time></trkpt><trkpt lat="43.468610725635514" lon="1.794080899447631"><ele>246.0</ele><time>2026-03-22T16:25:57.999Z</time></trkpt><trkpt lat="43.468666721142625" lon="1.7936409851432085"><ele>245.0</ele><time>2026-03-22T16:25:58.999Z</time></trkpt><trkpt lat="43.46872351435133" lon="1.7931961608151537"><ele>243.5</ele><time>2026-03-22T16:25:59.999Z</time></trkpt><trkpt lat="43.4687795406869" lon="1.7927896779060237"><ele>242.0</ele><time>2026-03-22T16:26:00.999Z</time></trkpt><trkpt lat="43.468826786975896" lon="1.7924057229876202"><ele>241.5</ele><time>2026-03-22T16:26:01.999Z</time></trkpt><trkpt lat="43.46887287976129" lon="1.7920356995931455"><ele>241.0</ele><time>2026-03-22T16:26:02.999Z</time></trkpt><trkpt lat="43.46892546498763" lon="1.7916533252478761"><ele>242.5</ele><time>2026-03-22T16:26:03.999Z</time></trkpt><trkpt lat="43.46897344243273" lon="1.7912979843570143"><ele>244.0</ele><time>2026-03-22T16:26:04.999Z</time></trkpt><trkpt lat="43.46901766935677" lon="1.790961299290946"><ele>245.5</ele><time>2026-03-22T16:26:05.999Z</time></trkpt><trkpt lat="43.46906208566528" lon="1.7906237010361845"><ele>247.0</ele><time>2026-03-22T16:26:06.999Z</time></trkpt><trkpt lat="43.46910652554506" lon="1.79029643856942"><ele>249.0</ele><time>2026-03-22T16:26:07.999Z</time></trkpt><trkpt lat="43.46914679815788" lon="1.789999292557676"><ele>251.0</ele><time>2026-03-22T16:26:08.999Z</time></trkpt><trkpt lat="43.469183846967596" lon="1.7897013255902763"><ele>253.0</ele><time>2026-03-22T16:26:09.999Z</time></trkpt><trkpt lat="43.46922238384031" lon="1.7893821811929072"><ele>254.5</ele><time>2026-03-22T16:26:10.999Z</time></trkpt><trkpt lat="43.46926433485124" lon="1.7890616167319318"><ele>256.0</ele><time>2026-03-22T16:26:11.999Z</time></trkpt><trkpt lat="43.46930547070337" lon="1.7887425430565795"><ele>257.0</ele><time>2026-03-22T16:26:12.999Z</time></trkpt><trkpt lat="43.469346492286896" lon="1.7884284636231345"><ele>258.0</ele><time>2026-03-22T16:26:13.999Z</time></trkpt><trkpt lat="43.46939098347915" lon="1.7881153716617513"><ele>258.0</ele><time>2026-03-22T16:26:14.999Z</time></trkpt><trkpt lat="43.46943208686321" lon="1.787805055347195"><ele>258.0</ele><time>2026-03-22T16:26:15.999Z</time></trkpt><trkpt lat="43.46947567178325" lon="1.7875042264461753"><ele>258.0</ele><time>2026-03-22T16:26:16.999Z</time></trkpt><trkpt lat="43.46951557786867" lon="1.7871978071782781"><ele>258.0</ele><time>2026-03-22T16:26:18Z</time></trkpt><trkpt lat="43.46955694811478" lon="1.7868859086573117"><ele>256.5</ele><time>2026-03-22T16:26:19Z</time></trkpt><trkpt lat="43.46959858968916" lon="1.7865636034924917"><ele>255.0</ele><time>2026-03-22T16:26:20Z</time></trkpt><trkpt lat="43.46964104684597" lon="1.7862338412815735"><ele>256.5</ele><time>2026-03-22T16:26:21Z</time></trkpt><trkpt lat="43.46968639312402" lon="1.785887155034475"><ele>258.0</ele><time>2026-03-22T16:26:22Z</time></trkpt><trkpt lat="43.46973074549305" lon="1.7855380066711395"><ele>258.0</ele><time>2026-03-22T16:26:23Z</time></trkpt><trkpt lat="43.46977154386827" lon="1.7851863646729444"><ele>258.0</ele><time>2026-03-22T16:26:24Z</time></trkpt><trkpt lat="43.46980709199937" lon="1.7848331872341616"><ele>261.0</ele><time>2026-03-22T16:26:25Z</time></trkpt><trkpt lat="43.46983384316272" lon="1.7844803052977367"><ele>264.0</ele><time>2026-03-22T16:26:26Z</time></trkpt><trkpt lat="43.46985107713389" lon="1.7841013918884594"><ele>264.5</ele><time>2026-03-22T16:26:27Z</time></trkpt><trkpt lat="43.469863295923936" lon="1.783704086469934"><ele>265.0</ele><time>2026-03-22T16:26:28Z</time></trkpt><trkpt lat="43.46987230393167" lon="1.7832932515114988"><ele>265.0</ele><time>2026-03-22T16:26:29Z</time></trkpt><trkpt lat="43.469881035860475" lon="1.7828633747035416"><ele>265.0</ele><time>2026-03-22T16:26:30Z</time></trkpt><trkpt lat="43.46988699473908" lon="1.7824347221795558"><ele>265.0</ele><time>2026-03-22T16:26:31Z</time></trkpt><trkpt lat="43.46989360995048" lon="1.7820333776549173"><ele>265.0</ele><time>2026-03-22T16:26:32Z</time></trkpt><trkpt lat="43.46990508928158" lon="1.7816561950526602"><ele>264.5</ele><time>2026-03-22T16:26:33Z</time></trkpt><trkpt lat="43.4699120583509" lon="1.7812930082553855"><ele>264.0</ele><time>2026-03-22T16:26:34Z</time></trkpt><trkpt lat="43.469919722456886" lon="1.7809513938180894"><ele>263.5</ele><time>2026-03-22T16:26:35Z</time></trkpt><trkpt lat="43.469927419536205" lon="1.780608860549858"><ele>263.0</ele><time>2026-03-22T16:26:36Z</time></trkpt><trkpt lat="43.469936820523486" lon="1.7802668275105806"><ele>262.0</ele><time>2026-03-22T16:26:37Z</time></trkpt><trkpt lat="43.46994329583758" lon="1.779895606003953"><ele>261.0</ele><time>2026-03-22T16:26:38Z</time></trkpt><trkpt lat="43.46995798913533" lon="1.7795165716971886"><ele>261.5</ele><time>2026-03-22T16:26:39Z</time></trkpt><trkpt lat="43.469970983883286" lon="1.7791500157308833"><ele>262.0</ele><time>2026-03-22T16:26:40Z</time></trkpt><trkpt lat="43.469981592347885" lon="1.778808334978005"><ele>262.5</ele><time>2026-03-22T16:26:41Z</time></trkpt><trkpt lat="43.46998896942363" lon="1.7784844230513503"><ele>263.0</ele><time>2026-03-22T16:26:42Z</time></trkpt><trkpt lat="43.47000058199039" lon="1.7781588867088338"><ele>263.0</ele><time>2026-03-22T16:26:43Z</time></trkpt><trkpt lat="43.47001519155299" lon="1.7778335549374304"><ele>263.0</ele><time>2026-03-22T16:26:44Z</time></trkpt><trkpt lat="43.470030506910966" lon="1.777512105751934"><ele>262.5</ele><time>2026-03-22T16:26:45Z</time></trkpt><trkpt lat="43.470040116720305" lon="1.7771899421437698"><ele>262.0</ele><time>2026-03-22T16:26:46Z</time></trkpt><trkpt lat="43.470045832330385" lon="1.776872494676735"><ele>263.0</ele><time>2026-03-22T16:26:47Z</time></trkpt><trkpt lat="43.47002255881154" lon="1.776553202242675"><ele>264.0</ele><time>2026-03-22T16:26:48Z</time></trkpt><trkpt lat="43.46997446638078" lon="1.7762452385128864"><ele>266.0</ele><time>2026-03-22T16:26:49Z</time></trkpt><trkpt lat="43.46990367253693" lon="1.7759606641757857"><ele>268.0</ele><time>2026-03-22T16:26:50Z</time></trkpt><trkpt lat="43.469814382699965" lon="1.775718038250153"><ele>270.0</ele><time>2026-03-22T16:26:51Z</time></trkpt><trkpt lat="43.46971251524004" lon="1.775498234578923"><ele>273.3333333333333</ele><time>2026-03-22T16:26:52Z</time></trkpt><trkpt lat="43.469585608424374" lon="1.7752878499940759"><ele>276.66666666666663</ele><time>2026-03-22T16:26:53Z</time></trkpt><trkpt lat="43.46945027472535" lon="1.7751060140980577"><ele>280.0</ele><time>2026-03-22T16:26:54Z</time></trkpt><trkpt lat="43.469296635951444" lon="1.7749307914142498"><ele>280.0</ele><time>2026-03-22T16:26:55Z</time></trkpt><trkpt lat="43.46913395757536" lon="1.77478416842718"><ele>280.0</ele><time>2026-03-22T16:26:56Z</time></trkpt><trkpt lat="43.4689474402681" lon="1.7746595817921393"><ele>280.0</ele><time>2026-03-22T16:26:57Z</time></trkpt><trkpt lat="43.46874917657576" lon="1.7745457981496862"><ele>279.66666666666663</ele><time>2026-03-22T16:26:58Z</time></trkpt><trkpt lat="43.46856611664232" lon="1.77441585395981"><ele>279.3333333333333</ele><time>2026-03-22T16:26:59Z</time></trkpt><trkpt lat="43.468411919549034" lon="1.7742663738454116"><ele>279.0</ele><time>2026-03-22T16:27:00Z</time></trkpt><trkpt lat="43.4682666350377" lon="1.774094846178401"><ele>279.0</ele><time>2026-03-22T16:27:01Z</time></trkpt><trkpt lat="43.468138472410836" lon="1.7738997189316381"><ele>279.0</ele><time>2026-03-22T16:27:02Z</time></trkpt><trkpt lat="43.46802978842945" lon="1.773690873100027"><ele>279.0</ele><time>2026-03-22T16:27:03Z</time></trkpt><trkpt lat="43.46793577210061" lon="1.7734689336107914"><ele>277.0</ele><time>2026-03-22T16:27:04Z</time></trkpt><trkpt lat="43.46785979662324" lon="1.7732455780469039"><ele>275.0</ele><time>2026-03-22T16:27:05Z</time></trkpt><trkpt lat="43.4678014307234" lon="1.7730070567637006"><ele>273.0</ele><time>2026-03-22T16:27:06Z</time></trkpt><trkpt lat="43.46775294149197" lon="1.7727523166175057"><ele>273.0</ele><time>2026-03-22T16:27:07Z</time></trkpt><trkpt lat="43.467719757567735" lon="1.7724978488974343"><ele>273.0</ele><time>2026-03-22T16:27:08Z</time></trkpt><trkpt lat="43.46769738225632" lon="1.7722516989043762"><ele>273.0</ele><time>2026-03-22T16:27:09Z</time></trkpt><trkpt lat="43.46770019919646" lon="1.7720194697052678"><ele>272.3333333333333</ele><time>2026-03-22T16:27:10Z</time></trkpt><trkpt lat="43.46773199646916" lon="1.7717672854214974"><ele>271.66666666666663</ele><time>2026-03-22T16:27:11Z</time></trkpt><trkpt lat="43.46777216468658" lon="1.7714971420193772"><ele>271.0</ele><time>2026-03-22T16:27:12Z</time></trkpt><trkpt lat="43.46780549986465" lon="1.7712384653952742"><ele>269.66666666666663</ele><time>2026-03-22T16:27:13Z</time></trkpt><trkpt lat="43.46783901273902" lon="1.7709592481742866"><ele>268.3333333333333</ele><time>2026-03-22T16:27:14Z</time></trkpt><trkpt lat="43.467875365539726" lon="1.7706824350484833"><ele>267.0</ele><time>2026-03-22T16:27:15Z</time></trkpt><trkpt lat="43.467911852630714" lon="1.7704148677820273"><ele>267.6666666666667</ele><time>2026-03-22T16:27:16Z</time></trkpt><trkpt lat="43.46794560593591" lon="1.770136668177029"><ele>268.33333333333337</ele><time>2026-03-22T16:27:17Z</time></trkpt><trkpt lat="43.46797919970537" lon="1.769859080601406"><ele>269.0</ele><time>2026-03-22T16:27:18Z</time></trkpt><trkpt lat="43.468014113941294" lon="1.7695831309959664"><ele>267.33333333333337</ele><time>2026-03-22T16:27:19Z</time></trkpt><trkpt lat="43.46804689747338" lon="1.7693134288147196"><ele>265.6666666666667</ele><time>2026-03-22T16:27:20Z</time></trkpt><trkpt lat="43.468080878295545" lon="1.769040338567104"><ele>264.0</ele><time>2026-03-22T16:27:21Z</time></trkpt><trkpt lat="43.468111549753516" lon="1.7687774014072555"><ele>263.0</ele><time>2026-03-22T16:27:22Z</time></trkpt><trkpt lat="43.46814250465693" lon="1.7685142303153552"><ele>262.0</ele><time>2026-03-22T16:27:23Z</time></trkpt><trkpt lat="43.468172885933235" lon="1.7682506864337058"><ele>261.0</ele><time>2026-03-22T16:27:24Z</time></trkpt><trkpt lat="43.468207015615235" lon="1.7679857953287577"><ele>261.0</ele><time>2026-03-22T16:27:25Z</time></trkpt><trkpt lat="43.468241219284" lon="1.767714396403482"><ele>261.0</ele><time>2026-03-22T16:27:26Z</time></trkpt><trkpt lat="43.46827995127136" lon="1.7674152887035943"><ele>261.0</ele><time>2026-03-22T16:27:27Z</time></trkpt><trkpt lat="43.46831615770213" lon="1.767113450291604"><ele>260.0</ele><time>2026-03-22T16:27:28Z</time></trkpt><trkpt lat="43.468347881611436" lon="1.766832305070387"><ele>259.0</ele><time>2026-03-22T16:27:29Z</time></trkpt><trkpt lat="43.468379740712244" lon="1.766544544971193"><ele>258.0</ele><time>2026-03-22T16:27:30Z</time></trkpt><trkpt lat="43.468413519370365" lon="1.7662498087455134"><ele>256.5</ele><time>2026-03-22T16:27:31Z</time></trkpt><trkpt lat="43.46845168082072" lon="1.7659381807837498"><ele>255.0</ele><time>2026-03-22T16:27:32Z</time></trkpt><trkpt lat="43.46849120127921" lon="1.765623671725718"><ele>255.0</ele><time>2026-03-22T16:27:33Z</time></trkpt><trkpt lat="43.468526304811746" lon="1.7653129942525383"><ele>255.0</ele><time>2026-03-22T16:27:34Z</time></trkpt><trkpt lat="43.46856770974108" lon="1.7649825107663177"><ele>252.5</ele><time>2026-03-22T16:27:35Z</time></trkpt><trkpt lat="43.46861050567822" lon="1.7646692161783453"><ele>250.0</ele><time>2026-03-22T16:27:36Z</time></trkpt><trkpt lat="43.46864416256092" lon="1.7643714274360052"><ele>248.66666666666666</ele><time>2026-03-22T16:27:37Z</time></trkpt><trkpt lat="43.468682058706044" lon="1.7640713196224722"><ele>247.33333333333331</ele><time>2026-03-22T16:27:38Z</time></trkpt><trkpt lat="43.468706608911624" lon="1.7638098150981678"><ele>246.0</ele><time>2026-03-22T16:27:39Z</time></trkpt><trkpt lat="43.46874015169536" lon="1.7635324227901137"><ele>248.5</ele><time>2026-03-22T16:27:40Z</time></trkpt><trkpt lat="43.46878036400387" lon="1.763229338906841"><ele>251.0</ele><time>2026-03-22T16:27:41Z</time></trkpt><trkpt lat="43.468825303199374" lon="1.7629095856402566"><ele>250.33333333333334</ele><time>2026-03-22T16:27:41.999Z</time></trkpt><trkpt lat="43.46886983080566" lon="1.7626035247858107"><ele>249.66666666666669</ele><time>2026-03-22T16:27:42.999Z</time></trkpt><trkpt lat="43.46891378758908" lon="1.7623089198356736"><ele>249.0</ele><time>2026-03-22T16:27:43.999Z</time></trkpt><trkpt lat="43.46896221847877" lon="1.7620120439609903"><ele>248.0</ele><time>2026-03-22T16:27:44.999Z</time></trkpt><trkpt lat="43.4690023048999" lon="1.7617313358600912"><ele>247.0</ele><time>2026-03-22T16:27:45.999Z</time></trkpt><trkpt lat="43.469104275145995" lon="1.7613648634160506"><ele>247.0</ele><time>2026-03-22T16:27:46.999Z</time></trkpt><trkpt lat="43.469158952386685" lon="1.7610671603886305"><ele>247.0</ele><time>2026-03-22T16:27:47.999Z</time></trkpt><trkpt lat="43.469217040112056" lon="1.7607631744950407"><ele>246.33333333333331</ele><time>2026-03-22T16:27:48.999Z</time></trkpt><trkpt lat="43.46927012505704" lon="1.7604782791702238"><ele>245.66666666666669</ele><time>2026-03-22T16:27:49.999Z</time></trkpt><trkpt lat="43.46931839502264" lon="1.7601978751214025"><ele>245.0</ele><time>2026-03-22T16:27:50.999Z</time></trkpt><trkpt lat="43.46936620926976" lon="1.7599321473824696"><ele>244.33333333333334</ele><time>2026-03-22T16:27:51.999Z</time></trkpt><trkpt lat="43.46941024191592" lon="1.7596725012728074"><ele>243.66666666666669</ele><time>2026-03-22T16:27:52.999Z</time></trkpt><trkpt lat="43.46944748036111" lon="1.7594134738752918"><ele>243.0</ele><time>2026-03-22T16:27:53.999Z</time></trkpt><trkpt lat="43.46946742478199" lon="1.7591475023708834"><ele>241.66666666666669</ele><time>2026-03-22T16:27:54.999Z</time></trkpt><trkpt lat="43.46946890673267" lon="1.7588556074551263"><ele>240.33333333333334</ele><time>2026-03-22T16:27:55.999Z</time></trkpt><trkpt lat="43.46946382534139" lon="1.75853934479027"><ele>239.0</ele><time>2026-03-22T16:27:56.999Z</time></trkpt><trkpt lat="43.46945800603226" lon="1.7582190253430132"><ele>239.0</ele><time>2026-03-22T16:27:57.999Z</time></trkpt><trkpt lat="43.469455572703794" lon="1.7579000641548808"><ele>239.0</ele><time>2026-03-22T16:27:58.999Z</time></trkpt><trkpt lat="43.469450406089535" lon="1.7575726311881246"><ele>238.33333333333334</ele><time>2026-03-22T16:27:59.999Z</time></trkpt><trkpt lat="43.46944596425516" lon="1.7572586194086208"><ele>237.66666666666669</ele><time>2026-03-22T16:28:00.999Z</time></trkpt><trkpt lat="43.4694452135478" lon="1.7569618745824649"><ele>237.0</ele><time>2026-03-22T16:28:01.999Z</time></trkpt><trkpt lat="43.469439518302885" lon="1.7566801254816515"><ele>236.66666666666669</ele><time>2026-03-22T16:28:02.999Z</time></trkpt><trkpt lat="43.46943401798604" lon="1.7564076899419385"><ele>236.33333333333334</ele><time>2026-03-22T16:28:03.999Z</time></trkpt><trkpt lat="43.46942947127283" lon="1.7561254827568484"><ele>236.0</ele><time>2026-03-22T16:28:04.999Z</time></trkpt><trkpt lat="43.46942377018613" lon="1.7558221714864006"><ele>236.0</ele><time>2026-03-22T16:28:05.999Z</time></trkpt><trkpt lat="43.469418917171744" lon="1.7555051006840487"><ele>236.0</ele><time>2026-03-22T16:28:06.999Z</time></trkpt><trkpt lat="43.469411991152846" lon="1.7551870520051918"><ele>235.0</ele><time>2026-03-22T16:28:07.999Z</time></trkpt><trkpt lat="43.46940858664232" lon="1.754882804780566"><ele>234.0</ele><time>2026-03-22T16:28:08.999Z</time></trkpt><trkpt lat="43.46940189342172" lon="1.7545986438128034"><ele>233.0</ele><time>2026-03-22T16:28:09.999Z</time></trkpt><trkpt lat="43.469402207258774" lon="1.7543194993241122"><ele>233.0</ele><time>2026-03-22T16:28:10.999Z</time></trkpt><trkpt lat="43.469397215314395" lon="1.754045421192328"><ele>233.0</ele><time>2026-03-22T16:28:11.999Z</time></trkpt><trkpt lat="43.46939075426594" lon="1.7537591837273907"><ele>233.0</ele><time>2026-03-22T16:28:12.999Z</time></trkpt><trkpt lat="43.46938806155901" lon="1.753468186483421"><ele>232.33333333333334</ele><time>2026-03-22T16:28:13.999Z</time></trkpt><trkpt lat="43.46938751860226" lon="1.753179235440949"><ele>231.66666666666669</ele><time>2026-03-22T16:28:14.999Z</time></trkpt><trkpt lat="43.46938725851056" lon="1.7528883179944417"><ele>231.0</ele><time>2026-03-22T16:28:15.999Z</time></trkpt><trkpt lat="43.469386447206425" lon="1.7526012168287262"><ele>231.0</ele><time>2026-03-22T16:28:16.999Z</time></trkpt><trkpt lat="43.46937954299317" lon="1.7523257779497021"><ele>231.0</ele><time>2026-03-22T16:28:17.999Z</time></trkpt><trkpt lat="43.469377619331986" lon="1.752044297556478"><ele>231.0</ele><time>2026-03-22T16:28:18.999Z</time></trkpt><trkpt lat="43.46938548237953" lon="1.7517677216383332"><ele>231.33333333333331</ele><time>2026-03-22T16:28:19.999Z</time></trkpt><trkpt lat="43.46940982132448" lon="1.7514945543138765"><ele>231.66666666666666</ele><time>2026-03-22T16:28:20.999Z</time></trkpt><trkpt lat="43.4694471773775" lon="1.751227101616662"><ele>232.0</ele><time>2026-03-22T16:28:21.999Z</time></trkpt><trkpt lat="43.46950021403065" lon="1.7509783170819953"><ele>232.33333333333331</ele><time>2026-03-22T16:28:22.999Z</time></trkpt><trkpt lat="43.46954809349174" lon="1.750723173606649"><ele>232.66666666666669</ele><time>2026-03-22T16:28:24Z</time></trkpt><trkpt lat="43.46959730339763" lon="1.7504601888247275"><ele>233.0</ele><time>2026-03-22T16:28:25Z</time></trkpt><trkpt lat="43.469647150243695" lon="1.7502060953656076"><ele>231.33333333333334</ele><time>2026-03-22T16:28:26Z</time></trkpt><trkpt lat="43.469677003118996" lon="1.7499396082140188"><ele>229.66666666666669</ele><time>2026-03-22T16:28:27Z</time></trkpt><trkpt lat="43.46973160539688" lon="1.74968018285845"><ele>228.0</ele><time>2026-03-22T16:28:28Z</time></trkpt><trkpt lat="43.469760474763206" lon="1.7494094268836717"><ele>228.0</ele><time>2026-03-22T16:28:29Z</time></trkpt><trkpt lat="43.46980546369507" lon="1.7491236737153193"><ele>228.0</ele><time>2026-03-22T16:28:30Z</time></trkpt><trkpt lat="43.46984986310447" lon="1.7488416649855172"><ele>228.0</ele><time>2026-03-22T16:28:31Z</time></trkpt><trkpt lat="43.46989251462516" lon="1.7485707581025853"><ele>228.0</ele><time>2026-03-22T16:28:32Z</time></trkpt><trkpt lat="43.46993592577326" lon="1.7482945215897676"><ele>228.0</ele><time>2026-03-22T16:28:33Z</time></trkpt><trkpt lat="43.46998036857316" lon="1.7480116339271845"><ele>228.0</ele><time>2026-03-22T16:28:34Z</time></trkpt><trkpt lat="43.47002566266921" lon="1.7477233275473465"><ele>228.33333333333331</ele><time>2026-03-22T16:28:35Z</time></trkpt><trkpt lat="43.470082902791845" lon="1.7474323723052219"><ele>228.66666666666666</ele><time>2026-03-22T16:28:36Z</time></trkpt><trkpt lat="43.47012087033072" lon="1.7471296707626298"><ele>229.0</ele><time>2026-03-22T16:28:37Z</time></trkpt><trkpt lat="43.47016101467556" lon="1.7468137565701147"><ele>229.33333333333331</ele><time>2026-03-22T16:28:38Z</time></trkpt><trkpt lat="43.47020757285314" lon="1.746504394018063"><ele>229.66666666666669</ele><time>2026-03-22T16:28:39Z</time></trkpt><trkpt lat="43.47024679366138" lon="1.7462292214041693"><ele>230.0</ele><time>2026-03-22T16:28:40Z</time></trkpt><trkpt lat="43.470287108412904" lon="1.7459584981521619"><ele>230.66666666666669</ele><time>2026-03-22T16:28:41Z</time></trkpt><trkpt lat="43.47032999259105" lon="1.7456976494387677"><ele>231.33333333333331</ele><time>2026-03-22T16:28:42Z</time></trkpt><trkpt lat="43.47037201363905" lon="1.7454420759111886"><ele>232.0</ele><time>2026-03-22T16:28:43Z</time></trkpt><trkpt lat="43.47041546872522" lon="1.745174055870425"><ele>232.33333333333331</ele><time>2026-03-22T16:28:44Z</time></trkpt><trkpt lat="43.47045745618273" lon="1.7448907199650536"><ele>232.66666666666669</ele><time>2026-03-22T16:28:45Z</time></trkpt><trkpt lat="43.470503775612656" lon="1.7446137267738615"><ele>233.0</ele><time>2026-03-22T16:28:46Z</time></trkpt><trkpt lat="43.470547550536615" lon="1.744342611736959"><ele>234.33333333333334</ele><time>2026-03-22T16:28:47Z</time></trkpt><trkpt lat="43.470597073938535" lon="1.7440565605463791"><ele>235.66666666666669</ele><time>2026-03-22T16:28:48Z</time></trkpt><trkpt lat="43.47064404860514" lon="1.7437631281321606"><ele>237.0</ele><time>2026-03-22T16:28:49Z</time></trkpt><trkpt lat="43.47068673480589" lon="1.7434830638586405"><ele>237.0</ele><time>2026-03-22T16:28:50Z</time></trkpt><trkpt lat="43.470727182069176" lon="1.7432013959621904"><ele>237.0</ele><time>2026-03-22T16:28:51Z</time></trkpt><trkpt lat="43.47076954879804" lon="1.742913275223839"><ele>237.0</ele><time>2026-03-22T16:28:52Z</time></trkpt><trkpt lat="43.470815610412764" lon="1.7426180717910882"><ele>237.33333333333331</ele><time>2026-03-22T16:28:53Z</time></trkpt><trkpt lat="43.47086095758168" lon="1.7423176836511352"><ele>237.66666666666666</ele><time>2026-03-22T16:28:54Z</time></trkpt><trkpt lat="43.47090784648674" lon="1.742025418526662"><ele>238.0</ele><time>2026-03-22T16:28:55Z</time></trkpt><trkpt lat="43.47094640853036" lon="1.741749653992937"><ele>239.0</ele><time>2026-03-22T16:28:56Z</time></trkpt><trkpt lat="43.47098756863379" lon="1.7414762735135254"><ele>240.0</ele><time>2026-03-22T16:28:57Z</time></trkpt><trkpt lat="43.471034675802564" lon="1.741204857294301"><ele>241.0</ele><time>2026-03-22T16:28:58Z</time></trkpt><trkpt lat="43.47109575628721" lon="1.7409337224605481"><ele>243.0</ele><time>2026-03-22T16:28:59Z</time></trkpt><trkpt lat="43.471180624413805" lon="1.7406388638312076"><ele>245.0</ele><time>2026-03-22T16:29:00Z</time></trkpt><trkpt lat="43.47127671933048" lon="1.7403367741793316"><ele>243.66666666666669</ele><time>2026-03-22T16:29:01Z</time></trkpt><trkpt lat="43.4713616463817" lon="1.7400769045798457"><ele>242.33333333333331</ele><time>2026-03-22T16:29:02Z</time></trkpt><trkpt lat="43.4714361297562" lon="1.7398365229371993"><ele>241.0</ele><time>2026-03-22T16:29:03Z</time></trkpt><trkpt lat="43.47152099836089" lon="1.7395742928791147"><ele>244.0</ele><time>2026-03-22T16:29:04Z</time></trkpt><trkpt lat="43.471617028178585" lon="1.7393013167833662"><ele>247.0</ele><time>2026-03-22T16:29:05Z</time></trkpt><trkpt lat="43.47170329132014" lon="1.7390319935605263"><ele>250.0</ele><time>2026-03-22T16:29:06Z</time></trkpt><trkpt lat="43.47179033448208" lon="1.7387577047949905"><ele>252.33333333333331</ele><time>2026-03-22T16:29:07Z</time></trkpt><trkpt lat="43.471881954252744" lon="1.738483442666673"><ele>254.66666666666669</ele><time>2026-03-22T16:29:08Z</time></trkpt><trkpt lat="43.47197553366221" lon="1.738224593852594"><ele>257.0</ele><time>2026-03-22T16:29:09Z</time></trkpt><trkpt lat="43.472058631915004" lon="1.737965115896473"><ele>257.0</ele><time>2026-03-22T16:29:10Z</time></trkpt><trkpt lat="43.47212403902849" lon="1.7377002239912014"><ele>257.0</ele><time>2026-03-22T16:29:11Z</time></trkpt><trkpt lat="43.472188897019656" lon="1.737428611442471"><ele>257.0</ele><time>2026-03-22T16:29:12Z</time></trkpt><trkpt lat="43.47224871575325" lon="1.7371306908783581"><ele>258.5</ele><time>2026-03-22T16:29:13Z</time></trkpt><trkpt lat="43.47230899361482" lon="1.7368291633663737"><ele>260.0</ele><time>2026-03-22T16:29:14Z</time></trkpt><trkpt lat="43.472369792818924" lon="1.7365239149021707"><ele>260.0</ele><time>2026-03-22T16:29:15Z</time></trkpt><trkpt lat="43.47243183989638" lon="1.736218092367518"><ele>260.0</ele><time>2026-03-22T16:29:16Z</time></trkpt><trkpt lat="43.47249025988877" lon="1.735921694582471"><ele>260.0</ele><time>2026-03-22T16:29:17Z</time></trkpt><trkpt lat="43.472543836532815" lon="1.7356372648397258"><ele>260.0</ele><time>2026-03-22T16:29:18Z</time></trkpt><trkpt lat="43.47260397805824" lon="1.735363623062111"><ele>260.0</ele><time>2026-03-22T16:29:19Z</time></trkpt><trkpt lat="43.4726601550045" lon="1.7350825312090787"><ele>260.0</ele><time>2026-03-22T16:29:20Z</time></trkpt><trkpt lat="43.4727209496898" lon="1.7347960318726297"><ele>260.0</ele><time>2026-03-22T16:29:21Z</time></trkpt><trkpt lat="43.47278040058196" lon="1.7345054381228837"><ele>260.0</ele><time>2026-03-22T16:29:22Z</time></trkpt><trkpt lat="43.47284111327841" lon="1.7342163249013791"><ele>260.33333333333337</ele><time>2026-03-22T16:29:23Z</time></trkpt><trkpt lat="43.47290135691965" lon="1.733927522802159"><ele>260.6666666666667</ele><time>2026-03-22T16:29:24Z</time></trkpt><trkpt lat="43.47295022466764" lon="1.733662602115501"><ele>261.0</ele><time>2026-03-22T16:29:25Z</time></trkpt><trkpt lat="43.473012903862255" lon="1.733381038841801"><ele>259.0</ele><time>2026-03-22T16:29:26Z</time></trkpt><trkpt lat="43.473074967832524" lon="1.7331045347063845"><ele>257.0</ele><time>2026-03-22T16:29:27Z</time></trkpt><trkpt lat="43.473129739784376" lon="1.7328261361426216"><ele>255.0</ele><time>2026-03-22T16:29:28Z</time></trkpt><trkpt lat="43.47318998368184" lon="1.7325476494568888"><ele>255.0</ele><time>2026-03-22T16:29:29Z</time></trkpt><trkpt lat="43.47324810948074" lon="1.732268846412753"><ele>255.0</ele><time>2026-03-22T16:29:30Z</time></trkpt><trkpt lat="43.47330491701923" lon="1.7319947677556176"><ele>255.0</ele><time>2026-03-22T16:29:31Z</time></trkpt><trkpt lat="43.47336029616558" lon="1.7317159462000744"><ele>256.3333333333333</ele><time>2026-03-22T16:29:32Z</time></trkpt><trkpt lat="43.47340771551048" lon="1.7314455490626062"><ele>257.66666666666663</ele><time>2026-03-22T16:29:33Z</time></trkpt><trkpt lat="43.473464229965245" lon="1.7311741893937784"><ele>259.0</ele><time>2026-03-22T16:29:34Z</time></trkpt><trkpt lat="43.473523072675015" lon="1.7309002675698628"><ele>259.66666666666663</ele><time>2026-03-22T16:29:35Z</time></trkpt><trkpt lat="43.47358406823617" lon="1.7306236713441827"><ele>260.3333333333333</ele><time>2026-03-22T16:29:36Z</time></trkpt><trkpt lat="43.4736396301227" lon="1.7303602740527453"><ele>261.0</ele><time>2026-03-22T16:29:37Z</time></trkpt><trkpt lat="43.4736957542433" lon="1.7300888407760584"><ele>261.0</ele><time>2026-03-22T16:29:38Z</time></trkpt><trkpt lat="43.47375051938817" lon="1.7298189069067629"><ele>261.0</ele><time>2026-03-22T16:29:39Z</time></trkpt><trkpt lat="43.47380574322255" lon="1.7295468351163235"><ele>261.0</ele><time>2026-03-22T16:29:40Z</time></trkpt><trkpt lat="43.47384521020434" lon="1.729273074703764"><ele>260.0</ele><time>2026-03-22T16:29:41Z</time></trkpt><trkpt lat="43.473875663340706" lon="1.7289701839697915"><ele>259.0</ele><time>2026-03-22T16:29:42Z</time></trkpt><trkpt lat="43.47389963380163" lon="1.7286377985264845"><ele>259.5</ele><time>2026-03-22T16:29:43Z</time></trkpt><trkpt lat="43.4739225673401" lon="1.7283161609427076"><ele>260.0</ele><time>2026-03-22T16:29:44Z</time></trkpt><trkpt lat="43.47395067474181" lon="1.7279541298601468"><ele>261.0</ele><time>2026-03-22T16:29:44.999Z</time></trkpt><trkpt lat="43.4739756132797" lon="1.7276112367542646"><ele>262.0</ele><time>2026-03-22T16:29:45.999Z</time></trkpt><trkpt lat="43.473998744327034" lon="1.7273009084002129"><ele>262.0</ele><time>2026-03-22T16:29:46.999Z</time></trkpt><trkpt lat="43.47401573838147" lon="1.7270046307168854"><ele>262.0</ele><time>2026-03-22T16:29:47.999Z</time></trkpt><trkpt lat="43.474040418464384" lon="1.7267127329817307"><ele>262.0</ele><time>2026-03-22T16:29:48.999Z</time></trkpt><trkpt lat="43.47406035603463" lon="1.7264154618558367"><ele>262.0</ele><time>2026-03-22T16:29:49.999Z</time></trkpt><trkpt lat="43.47408301396354" lon="1.7261212791746692"><ele>262.0</ele><time>2026-03-22T16:29:50.999Z</time></trkpt><trkpt lat="43.4741055002516" lon="1.7258185659973997"><ele>262.0</ele><time>2026-03-22T16:29:51.999Z</time></trkpt><trkpt lat="43.474123633711706" lon="1.7255305036058153"><ele>262.0</ele><time>2026-03-22T16:29:52.999Z</time></trkpt><trkpt lat="43.47414216370054" lon="1.725244986243575"><ele>262.0</ele><time>2026-03-22T16:29:53.999Z</time></trkpt><trkpt lat="43.474162000412576" lon="1.7249454231944186"><ele>262.0</ele><time>2026-03-22T16:29:54.999Z</time></trkpt><trkpt lat="43.47418186141296" lon="1.724628304673405"><ele>259.5</ele><time>2026-03-22T16:29:55.999Z</time></trkpt><trkpt lat="43.47420723579374" lon="1.7243170427115495"><ele>257.0</ele><time>2026-03-22T16:29:56.999Z</time></trkpt><trkpt lat="43.47422671874323" lon="1.7240058527990811"><ele>257.0</ele><time>2026-03-22T16:29:57.999Z</time></trkpt><trkpt lat="43.474248700327685" lon="1.7236961313402481"><ele>257.0</ele><time>2026-03-22T16:29:58.999Z</time></trkpt><trkpt lat="43.47426963553853" lon="1.723386096907816"><ele>256.5</ele><time>2026-03-22T16:29:59.999Z</time></trkpt><trkpt lat="43.474292195163144" lon="1.7230810959735228"><ele>256.0</ele><time>2026-03-22T16:30:00.999Z</time></trkpt><trkpt lat="43.47431626920974" lon="1.722767729632535"><ele>256.5</ele><time>2026-03-22T16:30:01.999Z</time></trkpt><trkpt lat="43.47433637079968" lon="1.7224461739426038"><ele>257.0</ele><time>2026-03-22T16:30:02.999Z</time></trkpt><trkpt lat="43.47435416309165" lon="1.7221352587105467"><ele>257.5</ele><time>2026-03-22T16:30:03.999Z</time></trkpt><trkpt lat="43.47437393426544" lon="1.7218337917589024"><ele>258.0</ele><time>2026-03-22T16:30:04.999Z</time></trkpt><trkpt lat="43.47441681577036" lon="1.721514421627721"><ele>258.0</ele><time>2026-03-22T16:30:05.999Z</time></trkpt><trkpt lat="43.47442573482968" lon="1.7211821249537798"><ele>258.0</ele><time>2026-03-22T16:30:06.999Z</time></trkpt><trkpt lat="43.474434610028055" lon="1.7208484658438323"><ele>258.0</ele><time>2026-03-22T16:30:07.999Z</time></trkpt><trkpt lat="43.47444066421182" lon="1.7205241456801899"><ele>258.0</ele><time>2026-03-22T16:30:08.999Z</time></trkpt><trkpt lat="43.47448772865421" lon="1.720218390119599"><ele>259.0</ele><time>2026-03-22T16:30:09.999Z</time></trkpt><trkpt lat="43.474512149516194" lon="1.7198833929665553"><ele>260.0</ele><time>2026-03-22T16:30:10.999Z</time></trkpt><trkpt lat="43.47453235387537" lon="1.7195779254994903"><ele>261.6666666666667</ele><time>2026-03-22T16:30:11.999Z</time></trkpt><trkpt lat="43.474550655155326" lon="1.719275357645365"><ele>263.3333333333333</ele><time>2026-03-22T16:30:12.999Z</time></trkpt><trkpt lat="43.47457100496586" lon="1.7189780131786696"><ele>265.0</ele><time>2026-03-22T16:30:13.999Z</time></trkpt><trkpt lat="43.47459286038813" lon="1.7186946026387202"><ele>265.3333333333333</ele><time>2026-03-22T16:30:14.999Z</time></trkpt><trkpt lat="43.47460982370359" lon="1.718404299831309"><ele>265.6666666666667</ele><time>2026-03-22T16:30:15.999Z</time></trkpt><trkpt lat="43.474628716852315" lon="1.7181013680021318"><ele>266.0</ele><time>2026-03-22T16:30:16.999Z</time></trkpt><trkpt lat="43.47464991191257" lon="1.7177848319407978"><ele>265.0</ele><time>2026-03-22T16:30:17.999Z</time></trkpt><trkpt lat="43.474670752572735" lon="1.7174707619567937"><ele>264.0</ele><time>2026-03-22T16:30:18.999Z</time></trkpt><trkpt lat="43.47468938704771" lon="1.7171556216020352"><ele>262.5</ele><time>2026-03-22T16:30:19.999Z</time></trkpt><trkpt lat="43.47471289014686" lon="1.7168196201352568"><ele>261.0</ele><time>2026-03-22T16:30:20.999Z</time></trkpt><trkpt lat="43.47473331349069" lon="1.7165017942532144"><ele>261.0</ele><time>2026-03-22T16:30:21.999Z</time></trkpt><trkpt lat="43.47475153814234" lon="1.7162112578014082"><ele>261.0</ele><time>2026-03-22T16:30:22.999Z</time></trkpt><trkpt lat="43.47477086838672" lon="1.7159267012401778"><ele>261.0</ele><time>2026-03-22T16:30:23.999Z</time></trkpt><trkpt lat="43.47479281871568" lon="1.7156386106878643"><ele>261.3333333333333</ele><time>2026-03-22T16:30:24.999Z</time></trkpt><trkpt lat="43.474826572341144" lon="1.715355116878339"><ele>261.66666666666663</ele><time>2026-03-22T16:30:25.999Z</time></trkpt><trkpt lat="43.474884587350026" lon="1.7150584261697879"><ele>262.0</ele><time>2026-03-22T16:30:26.999Z</time></trkpt><trkpt lat="43.47495895803063" lon="1.7147344096869452"><ele>263.5</ele><time>2026-03-22T16:30:27.999Z</time></trkpt><trkpt lat="43.47503039680803" lon="1.7144357201556588"><ele>265.0</ele><time>2026-03-22T16:30:28.999Z</time></trkpt><trkpt lat="43.475107039510256" lon="1.7141064940270958"><ele>265.0</ele><time>2026-03-22T16:30:30Z</time></trkpt><trkpt lat="43.47517873766009" lon="1.7137944333965378"><ele>265.0</ele><time>2026-03-22T16:30:31Z</time></trkpt><trkpt lat="43.475246214471305" lon="1.7134997678871253"><ele>264.0</ele><time>2026-03-22T16:30:32Z</time></trkpt><trkpt lat="43.475319203925835" lon="1.7131916920331158"><ele>263.0</ele><time>2026-03-22T16:30:33Z</time></trkpt><trkpt lat="43.47539430531276" lon="1.7128708349417383"><ele>261.5</ele><time>2026-03-22T16:30:34Z</time></trkpt><trkpt lat="43.47546578246927" lon="1.7125673988182406"><ele>260.0</ele><time>2026-03-22T16:30:35Z</time></trkpt><trkpt lat="43.475532545624866" lon="1.7122770282093194"><ele>260.0</ele><time>2026-03-22T16:30:36Z</time></trkpt><trkpt lat="43.47560876262177" lon="1.711944224148212"><ele>260.0</ele><time>2026-03-22T16:30:37Z</time></trkpt><trkpt lat="43.47568138117813" lon="1.7116290632150668"><ele>259.0</ele><time>2026-03-22T16:30:38Z</time></trkpt><trkpt lat="43.475751140893635" lon="1.7113328486061465"><ele>258.0</ele><time>2026-03-22T16:30:39Z</time></trkpt><trkpt lat="43.47582510043632" lon="1.7110405591504498"><ele>257.0</ele><time>2026-03-22T16:30:40Z</time></trkpt><trkpt lat="43.475894688518544" lon="1.7107268859962874"><ele>256.0</ele><time>2026-03-22T16:30:41Z</time></trkpt><trkpt lat="43.47596604708508" lon="1.7104142627146854"><ele>258.5</ele><time>2026-03-22T16:30:42Z</time></trkpt><trkpt lat="43.47603747298354" lon="1.7101028816713493"><ele>261.0</ele><time>2026-03-22T16:30:43Z</time></trkpt><trkpt lat="43.47610064200955" lon="1.7098039947766617"><ele>261.0</ele><time>2026-03-22T16:30:44Z</time></trkpt><trkpt lat="43.476171091372635" lon="1.7094955804593885"><ele>261.0</ele><time>2026-03-22T16:30:45Z</time></trkpt><trkpt lat="43.47623840316388" lon="1.709180859864783"><ele>259.5</ele><time>2026-03-22T16:30:46Z</time></trkpt><trkpt lat="43.476307785119836" lon="1.7088770230172086"><ele>258.0</ele><time>2026-03-22T16:30:47Z</time></trkpt><trkpt lat="43.476381512752944" lon="1.7085799883642916"><ele>259.5</ele><time>2026-03-22T16:30:48Z</time></trkpt><trkpt lat="43.47644957070108" lon="1.7082853752312146"><ele>261.0</ele><time>2026-03-22T16:30:49Z</time></trkpt><trkpt lat="43.47651910154225" lon="1.7079868357558006"><ele>262.0</ele><time>2026-03-22T16:30:50Z</time></trkpt><trkpt lat="43.4765892275827" lon="1.707678353788062"><ele>263.0</ele><time>2026-03-22T16:30:51Z</time></trkpt><trkpt lat="43.47666256135118" lon="1.7073804946497935"><ele>263.0</ele><time>2026-03-22T16:30:52Z</time></trkpt><trkpt lat="43.47673165138958" lon="1.7070770417543149"><ele>263.0</ele><time>2026-03-22T16:30:53Z</time></trkpt><trkpt lat="43.47680099774181" lon="1.7067666897191562"><ele>263.5</ele><time>2026-03-22T16:30:54Z</time></trkpt><trkpt lat="43.4768682680639" lon="1.7064597610852643"><ele>264.0</ele><time>2026-03-22T16:30:55Z</time></trkpt><trkpt lat="43.476957937442684" lon="1.7061316426456146"><ele>265.5</ele><time>2026-03-22T16:30:56Z</time></trkpt><trkpt lat="43.477042837451215" lon="1.7057865611316838"><ele>267.0</ele><time>2026-03-22T16:30:57Z</time></trkpt><trkpt lat="43.47712234141204" lon="1.705481799245533"><ele>263.0</ele><time>2026-03-22T16:30:58Z</time></trkpt><trkpt lat="43.477195267198304" lon="1.7051694198896117"><ele>259.0</ele><time>2026-03-22T16:30:59Z</time></trkpt><trkpt lat="43.47727546246695" lon="1.7048350288960048"><ele>259.0</ele><time>2026-03-22T16:31:00Z</time></trkpt><trkpt lat="43.47734662130341" lon="1.7045304206660838"><ele>259.0</ele><time>2026-03-22T16:31:01Z</time></trkpt><trkpt lat="43.47742563281736" lon="1.7042405809984262"><ele>261.0</ele><time>2026-03-22T16:31:02Z</time></trkpt><trkpt lat="43.477506192654644" lon="1.7039434635827668"><ele>263.0</ele><time>2026-03-22T16:31:03Z</time></trkpt><trkpt lat="43.477581002102305" lon="1.7036457688679278"><ele>264.5</ele><time>2026-03-22T16:31:04Z</time></trkpt><trkpt lat="43.477662398136935" lon="1.7033407100785132"><ele>266.0</ele><time>2026-03-22T16:31:05Z</time></trkpt><trkpt lat="43.47774191554492" lon="1.703033536908404"><ele>267.5</ele><time>2026-03-22T16:31:06Z</time></trkpt><trkpt lat="43.477813876874244" lon="1.7027265257082276"><ele>269.0</ele><time>2026-03-22T16:31:07Z</time></trkpt><trkpt lat="43.47788837958013" lon="1.7024107282930723"><ele>266.0</ele><time>2026-03-22T16:31:08Z</time></trkpt><trkpt lat="43.477965248041826" lon="1.7021090543732054"><ele>263.0</ele><time>2026-03-22T16:31:09Z</time></trkpt><trkpt lat="43.478038163282655" lon="1.7018189424694408"><ele>263.0</ele><time>2026-03-22T16:31:10Z</time></trkpt><trkpt lat="43.47809774470327" lon="1.70153724341594"><ele>263.0</ele><time>2026-03-22T16:31:11Z</time></trkpt><trkpt lat="43.47814482029475" lon="1.7012404061972939"><ele>263.0</ele><time>2026-03-22T16:31:12Z</time></trkpt><trkpt lat="43.47821660456251" lon="1.7009399715947975"><ele>265.0</ele><time>2026-03-22T16:31:13Z</time></trkpt><trkpt lat="43.47831269657739" lon="1.7006403451195788"><ele>267.0</ele><time>2026-03-22T16:31:14Z</time></trkpt><trkpt lat="43.478399027191806" lon="1.7003469558261812"><ele>266.0</ele><time>2026-03-22T16:31:15Z</time></trkpt><trkpt lat="43.4784805730845" lon="1.7000486516160778"><ele>265.0</ele><time>2026-03-22T16:31:16Z</time></trkpt><trkpt lat="43.47854993535718" lon="1.699751134606579"><ele>265.0</ele><time>2026-03-22T16:31:17Z</time></trkpt><trkpt lat="43.478625091795415" lon="1.6994150993809616"><ele>265.0</ele><time>2026-03-22T16:31:18Z</time></trkpt><trkpt lat="43.478699060218744" lon="1.699118220872423"><ele>260.5</ele><time>2026-03-22T16:31:19Z</time></trkpt><trkpt lat="43.47877544031185" lon="1.6988293400006256"><ele>256.0</ele><time>2026-03-22T16:31:20Z</time></trkpt><trkpt lat="43.47884996913387" lon="1.6985320448105141"><ele>256.0</ele><time>2026-03-22T16:31:21Z</time></trkpt><trkpt lat="43.4789302685981" lon="1.6982131844396315"><ele>256.0</ele><time>2026-03-22T16:31:22Z</time></trkpt><trkpt lat="43.47901263974149" lon="1.6978736959179868"><ele>258.5</ele><time>2026-03-22T16:31:23Z</time></trkpt><trkpt lat="43.47909856427294" lon="1.6975374016058349"><ele>261.0</ele><time>2026-03-22T16:31:24Z</time></trkpt><trkpt lat="43.47918381555864" lon="1.697229831835889"><ele>261.0</ele><time>2026-03-22T16:31:25Z</time></trkpt><trkpt lat="43.47926388911079" lon="1.6969269261077902"><ele>261.0</ele><time>2026-03-22T16:31:26Z</time></trkpt><trkpt lat="43.4793338193724" lon="1.696639782211689"><ele>260.6666666666667</ele><time>2026-03-22T16:31:27Z</time></trkpt><trkpt lat="43.4793943585764" lon="1.6963716653675551"><ele>260.33333333333337</ele><time>2026-03-22T16:31:28Z</time></trkpt><trkpt lat="43.47944696261346" lon="1.6960966638845496"><ele>260.0</ele><time>2026-03-22T16:31:29Z</time></trkpt><trkpt lat="43.47948873387443" lon="1.6957799683127757"><ele>260.0</ele><time>2026-03-22T16:31:30Z</time></trkpt><trkpt lat="43.47954724268399" lon="1.6954727501130418"><ele>260.0</ele><time>2026-03-22T16:31:31Z</time></trkpt><trkpt lat="43.47959102554339" lon="1.6951731088743847"><ele>260.0</ele><time>2026-03-22T16:31:32Z</time></trkpt><trkpt lat="43.47963824456125" lon="1.6948843119552632"><ele>260.0</ele><time>2026-03-22T16:31:33Z</time></trkpt><trkpt lat="43.479684255275316" lon="1.6945777135924944"><ele>260.0</ele><time>2026-03-22T16:31:34Z</time></trkpt><trkpt lat="43.47973155989348" lon="1.6942587017402977"><ele>259.6666666666667</ele><time>2026-03-22T16:31:35Z</time></trkpt><trkpt lat="43.479776405494256" lon="1.6939538304489603"><ele>259.3333333333333</ele><time>2026-03-22T16:31:36Z</time></trkpt><trkpt lat="43.47982306614088" lon="1.6936571898085107"><ele>259.0</ele><time>2026-03-22T16:31:37Z</time></trkpt><trkpt lat="43.47986588424363" lon="1.693375687850909"><ele>259.0</ele><time>2026-03-22T16:31:38Z</time></trkpt><trkpt lat="43.479907721823835" lon="1.693103737992814"><ele>259.0</ele><time>2026-03-22T16:31:39Z</time></trkpt><trkpt lat="43.47994805646779" lon="1.6928322867757781"><ele>259.0</ele><time>2026-03-22T16:31:40Z</time></trkpt><trkpt lat="43.47998927578821" lon="1.6925647287612495"><ele>259.0</ele><time>2026-03-22T16:31:41Z</time></trkpt><trkpt lat="43.48003057168526" lon="1.6923089495957435"><ele>259.0</ele><time>2026-03-22T16:31:42Z</time></trkpt><trkpt lat="43.480068641209975" lon="1.6920694662906755"><ele>259.0</ele><time>2026-03-22T16:31:43Z</time></trkpt><trkpt lat="43.48010415841395" lon="1.6918488323977903"><ele>259.25</ele><time>2026-03-22T16:31:44Z</time></trkpt><trkpt lat="43.48013686740202" lon="1.6916406981804222"><ele>259.5</ele><time>2026-03-22T16:31:45Z</time></trkpt><trkpt lat="43.480165006293184" lon="1.691445127391816"><ele>259.75</ele><time>2026-03-22T16:31:46Z</time></trkpt><trkpt lat="43.48019553614563" lon="1.6912528978655312"><ele>260.0</ele><time>2026-03-22T16:31:46.999Z</time></trkpt><trkpt lat="43.48022842053103" lon="1.6910450700563129"><ele>260.0</ele><time>2026-03-22T16:31:47.999Z</time></trkpt><trkpt lat="43.48025905410754" lon="1.6908319980615145"><ele>260.0</ele><time>2026-03-22T16:31:48.999Z</time></trkpt><trkpt lat="43.48029919408923" lon="1.690602606773222"><ele>260.0</ele><time>2026-03-22T16:31:49.999Z</time></trkpt><trkpt lat="43.48033710348874" lon="1.690375160661151"><ele>259.6666666666667</ele><time>2026-03-22T16:31:50.999Z</time></trkpt><trkpt lat="43.480370016420224" lon="1.6901601024120867"><ele>259.3333333333333</ele><time>2026-03-22T16:31:51.999Z</time></trkpt><trkpt lat="43.480406597678005" lon="1.6899397004041514"><ele>259.0</ele><time>2026-03-22T16:31:52.999Z</time></trkpt><trkpt lat="43.48044224415569" lon="1.6897274412449206"><ele>259.0</ele><time>2026-03-22T16:31:53.999Z</time></trkpt><trkpt lat="43.480482446430806" lon="1.6895233484888288"><ele>259.0</ele><time>2026-03-22T16:31:54.999Z</time></trkpt><trkpt lat="43.480518700812524" lon="1.689302852168684"><ele>259.0</ele><time>2026-03-22T16:31:55.999Z</time></trkpt><trkpt lat="43.48055732431068" lon="1.689074147607656"><ele>259.0</ele><time>2026-03-22T16:31:56.999Z</time></trkpt><trkpt lat="43.48059663447482" lon="1.6888392366897145"><ele>259.0</ele><time>2026-03-22T16:31:57.999Z</time></trkpt><trkpt lat="43.48063942208385" lon="1.688621953840012"><ele>259.0</ele><time>2026-03-22T16:31:58.999Z</time></trkpt><trkpt lat="43.48067840325126" lon="1.6883872795636785"><ele>257.66666666666663</ele><time>2026-03-22T16:31:59.999Z</time></trkpt><trkpt lat="43.48072219943126" lon="1.6881381458670934"><ele>256.3333333333333</ele><time>2026-03-22T16:32:00.999Z</time></trkpt><trkpt lat="43.480768468825325" lon="1.6878823228119049"><ele>255.0</ele><time>2026-03-22T16:32:01.999Z</time></trkpt><trkpt lat="43.480811708633915" lon="1.6876164292422546"><ele>253.66666666666669</ele><time>2026-03-22T16:32:02.999Z</time></trkpt><trkpt lat="43.48086201523562" lon="1.6873564481669905"><ele>252.33333333333334</ele><time>2026-03-22T16:32:03.999Z</time></trkpt><trkpt lat="43.480912223848826" lon="1.687065612489754"><ele>251.0</ele><time>2026-03-22T16:32:04.999Z</time></trkpt><trkpt lat="43.48097396132806" lon="1.6868076532720748"><ele>249.33333333333334</ele><time>2026-03-22T16:32:05.999Z</time></trkpt><trkpt lat="43.48101821685145" lon="1.6865150598380063"><ele>247.66666666666669</ele><time>2026-03-22T16:32:06.999Z</time></trkpt><trkpt lat="43.48106792617807" lon="1.6862490769600469"><ele>246.0</ele><time>2026-03-22T16:32:07.999Z</time></trkpt><trkpt lat="43.48111281811556" lon="1.6859930636322304"><ele>245.0</ele><time>2026-03-22T16:32:08.999Z</time></trkpt><trkpt lat="43.48115925813972" lon="1.6857438074773323"><ele>244.0</ele><time>2026-03-22T16:32:09.999Z</time></trkpt><trkpt lat="43.48120317618846" lon="1.6855067622307207"><ele>243.0</ele><time>2026-03-22T16:32:10.999Z</time></trkpt><trkpt lat="43.48124930766853" lon="1.6852656424095356"><ele>243.33333333333331</ele><time>2026-03-22T16:32:11.999Z</time></trkpt><trkpt lat="43.481295925517514" lon="1.6850113353697505"><ele>243.66666666666666</ele><time>2026-03-22T16:32:12.999Z</time></trkpt><trkpt lat="43.48134011791672" lon="1.6847474328494523"><ele>244.0</ele><time>2026-03-22T16:32:13.999Z</time></trkpt><trkpt lat="43.481388268613514" lon="1.6844867729524566"><ele>243.33333333333331</ele><time>2026-03-22T16:32:14.999Z</time></trkpt><trkpt lat="43.481433418229315" lon="1.6842423575962673"><ele>242.66666666666669</ele><time>2026-03-22T16:32:15.999Z</time></trkpt><trkpt lat="43.481478581163856" lon="1.6839922998472743"><ele>242.0</ele><time>2026-03-22T16:32:16.999Z</time></trkpt><trkpt lat="43.48152620194752" lon="1.6837388882588766"><ele>242.33333333333334</ele><time>2026-03-22T16:32:17.999Z</time></trkpt><trkpt lat="43.48157475071791" lon="1.6834817190562401"><ele>242.66666666666669</ele><time>2026-03-22T16:32:18.999Z</time></trkpt><trkpt lat="43.48162148842983" lon="1.6832272098135435"><ele>243.0</ele><time>2026-03-22T16:32:19.999Z</time></trkpt><trkpt lat="43.48166817693312" lon="1.6829875835651933"><ele>243.66666666666669</ele><time>2026-03-22T16:32:20.999Z</time></trkpt><trkpt lat="43.48171154993765" lon="1.6827480140424105"><ele>244.33333333333334</ele><time>2026-03-22T16:32:21.999Z</time></trkpt><trkpt lat="43.48175549152382" lon="1.682507102740431"><ele>245.0</ele><time>2026-03-22T16:32:22.999Z</time></trkpt><trkpt lat="43.48179596513604" lon="1.6822721228032143"><ele>245.0</ele><time>2026-03-22T16:32:23.999Z</time></trkpt><trkpt lat="43.48183195381909" lon="1.6820388985009855"><ele>245.0</ele><time>2026-03-22T16:32:24.999Z</time></trkpt><trkpt lat="43.48186269495198" lon="1.6817997458071872"><ele>245.0</ele><time>2026-03-22T16:32:25.999Z</time></trkpt><trkpt lat="43.48187989796693" lon="1.681543652555036"><ele>246.0</ele><time>2026-03-22T16:32:26.999Z</time></trkpt><trkpt lat="43.48188902208551" lon="1.681252694075239"><ele>247.0</ele><time>2026-03-22T16:32:27.999Z</time></trkpt><trkpt lat="43.48189432317393" lon="1.6809688966790717"><ele>248.0</ele><time>2026-03-22T16:32:28.999Z</time></trkpt><trkpt lat="43.481894379598835" lon="1.6807027137070758"><ele>249.33333333333334</ele><time>2026-03-22T16:32:29.999Z</time></trkpt><trkpt lat="43.48189315271002" lon="1.6804448488024373"><ele>250.66666666666669</ele><time>2026-03-22T16:32:30.999Z</time></trkpt><trkpt lat="43.481894363001906" lon="1.680183874465907"><ele>252.0</ele><time>2026-03-22T16:32:31.999Z</time></trkpt><trkpt lat="43.48189641768624" lon="1.679916032814012"><ele>252.66666666666669</ele><time>2026-03-22T16:32:32.999Z</time></trkpt><trkpt lat="43.48189513132829" lon="1.6796402831597461"><ele>253.33333333333334</ele><time>2026-03-22T16:32:33.999Z</time></trkpt><trkpt lat="43.48189278369613" lon="1.679366658705154"><ele>254.0</ele><time>2026-03-22T16:32:34.999Z</time></trkpt><trkpt lat="43.481886457400016" lon="1.6790929529791703"><ele>254.33333333333334</ele><time>2026-03-22T16:32:36Z</time></trkpt><trkpt lat="43.48188994987635" lon="1.6788330163600618"><ele>254.66666666666669</ele><time>2026-03-22T16:32:37Z</time></trkpt><trkpt lat="43.48189256048609" lon="1.6785884201814196"><ele>255.0</ele><time>2026-03-22T16:32:38Z</time></trkpt><trkpt lat="43.48189179300269" lon="1.6783240391572005"><ele>254.33333333333331</ele><time>2026-03-22T16:32:39Z</time></trkpt><trkpt lat="43.48189005670614" lon="1.6780666405416411"><ele>253.66666666666666</ele><time>2026-03-22T16:32:40Z</time></trkpt><trkpt lat="43.48188899364452" lon="1.6778017555004452"><ele>253.0</ele><time>2026-03-22T16:32:41Z</time></trkpt><trkpt lat="43.48188613031205" lon="1.6775272898277667"><ele>252.33333333333331</ele><time>2026-03-22T16:32:42Z</time></trkpt><trkpt lat="43.48188429995232" lon="1.677247743705173"><ele>251.66666666666669</ele><time>2026-03-22T16:32:43Z</time></trkpt><trkpt lat="43.481883857674966" lon="1.6769685672765293"><ele>251.0</ele><time>2026-03-22T16:32:44Z</time></trkpt><trkpt lat="43.481884288440234" lon="1.6766881859315739"><ele>250.33333333333334</ele><time>2026-03-22T16:32:45Z</time></trkpt><trkpt lat="43.4818824585248" lon="1.6764104137257119"><ele>249.66666666666669</ele><time>2026-03-22T16:32:46Z</time></trkpt><trkpt lat="43.481882138849144" lon="1.6761335699901385"><ele>249.0</ele><time>2026-03-22T16:32:47Z</time></trkpt><trkpt lat="43.48188057527818" lon="1.6758595274339532"><ele>248.0</ele><time>2026-03-22T16:32:48Z</time></trkpt><trkpt lat="43.48188097019999" lon="1.6755785818892155"><ele>247.0</ele><time>2026-03-22T16:32:49Z</time></trkpt><trkpt lat="43.48187824162227" lon="1.6752956095848752"><ele>246.0</ele><time>2026-03-22T16:32:50Z</time></trkpt><trkpt lat="43.48187991008384" lon="1.675025095426191"><ele>245.33333333333331</ele><time>2026-03-22T16:32:51Z</time></trkpt><trkpt lat="43.48188444871281" lon="1.6747699350137448"><ele>244.66666666666666</ele><time>2026-03-22T16:32:52Z</time></trkpt><trkpt lat="43.481883565776975" lon="1.6745061142484656"><ele>244.0</ele><time>2026-03-22T16:32:53Z</time></trkpt><trkpt lat="43.48187952672235" lon="1.674238835761368"><ele>244.0</ele><time>2026-03-22T16:32:54Z</time></trkpt><trkpt lat="43.4818775103281" lon="1.67397308846269"><ele>244.0</ele><time>2026-03-22T16:32:55Z</time></trkpt><trkpt lat="43.481881829537" lon="1.6737012203350148"><ele>244.0</ele><time>2026-03-22T16:32:56Z</time></trkpt><trkpt lat="43.481888345037476" lon="1.673441611145299"><ele>244.0</ele><time>2026-03-22T16:32:57Z</time></trkpt><trkpt lat="43.4818905363638" lon="1.6731923378421714"><ele>244.0</ele><time>2026-03-22T16:32:58Z</time></trkpt><trkpt lat="43.481885756473524" lon="1.6729373850740066"><ele>244.0</ele><time>2026-03-22T16:32:59Z</time></trkpt><trkpt lat="43.48188748480015" lon="1.6726815928954772"><ele>245.0</ele><time>2026-03-22T16:33:00Z</time></trkpt><trkpt lat="43.48188876602665" lon="1.6724255916250694"><ele>246.0</ele><time>2026-03-22T16:33:01Z</time></trkpt><trkpt lat="43.481888646744856" lon="1.6721759830625265"><ele>247.0</ele><time>2026-03-22T16:33:02Z</time></trkpt><trkpt lat="43.48188880675244" lon="1.671950853319933"><ele>247.33333333333331</ele><time>2026-03-22T16:33:03Z</time></trkpt><trkpt lat="43.48188446721698" lon="1.6717268112741062"><ele>247.66666666666669</ele><time>2026-03-22T16:33:04Z</time></trkpt><trkpt lat="43.4818752338894" lon="1.6714963233059477"><ele>248.0</ele><time>2026-03-22T16:33:05Z</time></trkpt><trkpt lat="43.48188665005924" lon="1.6712793733995772"><ele>248.75</ele><time>2026-03-22T16:33:06Z</time></trkpt><trkpt lat="43.48189188287204" lon="1.6710796762517428"><ele>249.5</ele><time>2026-03-22T16:33:07Z</time></trkpt><trkpt lat="43.481892445339895" lon="1.670877433440126"><ele>250.25</ele><time>2026-03-22T16:33:08Z</time></trkpt><trkpt lat="43.48189298242938" lon="1.6706712057633921"><ele>251.0</ele><time>2026-03-22T16:33:09Z</time></trkpt><trkpt lat="43.48189390555401" lon="1.6704635085543822"><ele>252.0</ele><time>2026-03-22T16:33:10Z</time></trkpt><trkpt lat="43.48189064527547" lon="1.670264763020232"><ele>253.0</ele><time>2026-03-22T16:33:11Z</time></trkpt><trkpt lat="43.481896354906965" lon="1.6700711899444503"><ele>254.0</ele><time>2026-03-22T16:33:12Z</time></trkpt><trkpt lat="43.48189623057696" lon="1.669880783048222"><ele>255.0</ele><time>2026-03-22T16:33:13Z</time></trkpt><trkpt lat="43.4818956876224" lon="1.6696743926739528"><ele>255.0</ele><time>2026-03-22T16:33:14Z</time></trkpt><trkpt lat="43.481896190492435" lon="1.669447281651666"><ele>255.0</ele><time>2026-03-22T16:33:15Z</time></trkpt><trkpt lat="43.48189393677422" lon="1.6692267142977177"><ele>255.0</ele><time>2026-03-22T16:33:16Z</time></trkpt><trkpt lat="43.481895444638475" lon="1.6690352245465494"><ele>255.75</ele><time>2026-03-22T16:33:17Z</time></trkpt><trkpt lat="43.481892305424815" lon="1.6688468482656065"><ele>256.5</ele><time>2026-03-22T16:33:18Z</time></trkpt><trkpt lat="43.481889367271584" lon="1.6686729553102426"><ele>257.25</ele><time>2026-03-22T16:33:19Z</time></trkpt><trkpt lat="43.48188862509923" lon="1.6685090260246584"><ele>258.0</ele><time>2026-03-22T16:33:20Z</time></trkpt><trkpt lat="43.4818932652328" lon="1.6683696169499598"><ele>258.6</ele><time>2026-03-22T16:33:21Z</time></trkpt><trkpt lat="43.48189445550938" lon="1.6682239799358396"><ele>259.20000000000005</ele><time>2026-03-22T16:33:22Z</time></trkpt><trkpt lat="43.48189256625093" lon="1.6680710591759653"><ele>259.8</ele><time>2026-03-22T16:33:23Z</time></trkpt><trkpt lat="43.48189511358547" lon="1.667917362726492"><ele>260.40000000000003</ele><time>2026-03-22T16:33:24Z</time></trkpt><trkpt lat="43.481893573996544" lon="1.6677733812104392"><ele>261.0</ele><time>2026-03-22T16:33:25Z</time></trkpt><trkpt lat="43.48189509950867" lon="1.6676555990839272"><ele>261.6666666666667</ele><time>2026-03-22T16:33:26Z</time></trkpt><trkpt lat="43.48189851218364" lon="1.6675428141707942"><ele>262.3333333333333</ele><time>2026-03-22T16:33:27Z</time></trkpt><trkpt lat="43.48188607542529" lon="1.6674501756038462"><ele>263.0</ele><time>2026-03-22T16:33:28Z</time></trkpt><trkpt lat="43.48188314642481" lon="1.667351307535471"><ele>263.66666666666663</ele><time>2026-03-22T16:33:29Z</time></trkpt><trkpt lat="43.48187948238428" lon="1.6672477151224065"><ele>264.3333333333333</ele><time>2026-03-22T16:33:30Z</time></trkpt><trkpt lat="43.481874082501214" lon="1.667141556100984"><ele>265.0</ele><time>2026-03-22T16:33:31Z</time></trkpt><trkpt lat="43.4818767152346" lon="1.667026848238857"><ele>265.0</ele><time>2026-03-22T16:33:32Z</time></trkpt><trkpt lat="43.48190191156413" lon="1.6669204607890808"><ele>265.0</ele><time>2026-03-22T16:33:33Z</time></trkpt><trkpt lat="43.48193092130388" lon="1.6668123522247718"><ele>265.0</ele><time>2026-03-22T16:33:34Z</time></trkpt><trkpt lat="43.481959041575955" lon="1.666706091800659"><ele>265.0</ele><time>2026-03-22T16:33:35Z</time></trkpt><trkpt lat="43.48198223549814" lon="1.6665984847311548"><ele>265.0</ele><time>2026-03-22T16:33:36Z</time></trkpt><trkpt lat="43.48200801318479" lon="1.6664796628471241"><ele>265.0</ele><time>2026-03-22T16:33:37Z</time></trkpt><trkpt lat="43.4820348871145" lon="1.6663555919160493"><ele>265.0</ele><time>2026-03-22T16:33:38Z</time></trkpt><trkpt lat="43.48206525514045" lon="1.666227479113768"><ele>265.0</ele><time>2026-03-22T16:33:39Z</time></trkpt><trkpt lat="43.48209947065928" lon="1.6660951059218572"><ele>265.0</ele><time>2026-03-22T16:33:40Z</time></trkpt><trkpt lat="43.48213254762368" lon="1.6659690006896173"><ele>265.0</ele><time>2026-03-22T16:33:41Z</time></trkpt><trkpt lat="43.48216405985403" lon="1.6658393972214576"><ele>265.0</ele><time>2026-03-22T16:33:42Z</time></trkpt><trkpt lat="43.482201849128046" lon="1.6657117644300408"><ele>264.0</ele><time>2026-03-22T16:33:43Z</time></trkpt><trkpt lat="43.4822443126652" lon="1.6655803581135913"><ele>263.0</ele><time>2026-03-22T16:33:44Z</time></trkpt><trkpt lat="43.48228574119408" lon="1.665433609783773"><ele>262.0</ele><time>2026-03-22T16:33:45Z</time></trkpt><trkpt lat="43.48233498687815" lon="1.6652932434759298"><ele>261.0</ele><time>2026-03-22T16:33:46Z</time></trkpt><trkpt lat="43.482379429061325" lon="1.665159026553051"><ele>260.0</ele><time>2026-03-22T16:33:47Z</time></trkpt><trkpt lat="43.482426284659894" lon="1.6650480118454738"><ele>260.0</ele><time>2026-03-22T16:33:48Z</time></trkpt><trkpt lat="43.48247081374725" lon="1.66494261996363"><ele>260.0</ele><time>2026-03-22T16:33:49Z</time></trkpt><trkpt lat="43.48251685297571" lon="1.6648192243998188"><ele>260.0</ele><time>2026-03-22T16:33:50Z</time></trkpt><trkpt lat="43.482566232220336" lon="1.6647034187153669"><ele>260.0</ele><time>2026-03-22T16:33:51Z</time></trkpt><trkpt lat="43.482611434594034" lon="1.6645771589141685"><ele>260.0</ele><time>2026-03-22T16:33:52Z</time></trkpt><trkpt lat="43.48267506954246" lon="1.6644259923984057"><ele>260.0</ele><time>2026-03-22T16:33:53Z</time></trkpt><trkpt lat="43.48274674999986" lon="1.6642521742287195"><ele>260.0</ele><time>2026-03-22T16:33:54Z</time></trkpt><trkpt lat="43.48281464845172" lon="1.664082874488195"><ele>260.0</ele><time>2026-03-22T16:33:55Z</time></trkpt><trkpt lat="43.48286921934251" lon="1.663925932267806"><ele>260.0</ele><time>2026-03-22T16:33:56Z</time></trkpt><trkpt lat="43.48292219918721" lon="1.6637816998215043"><ele>259.75</ele><time>2026-03-22T16:33:57Z</time></trkpt><trkpt lat="43.4829729255996" lon="1.663651953016141"><ele>259.5</ele><time>2026-03-22T16:33:58Z</time></trkpt><trkpt lat="43.483026118650834" lon="1.6635127326288814"><ele>259.25</ele><time>2026-03-22T16:33:59Z</time></trkpt><trkpt lat="43.48308264770691" lon="1.6633549005112502"><ele>259.0</ele><time>2026-03-22T16:34:00Z</time></trkpt><trkpt lat="43.48315011733458" lon="1.6631593052960194"><ele>258.75</ele><time>2026-03-22T16:34:01Z</time></trkpt><trkpt lat="43.48321662780834" lon="1.6629597718088098"><ele>258.5</ele><time>2026-03-22T16:34:02Z</time></trkpt><trkpt lat="43.48328467885067" lon="1.6627965935240796"><ele>258.25</ele><time>2026-03-22T16:34:03Z</time></trkpt><trkpt lat="43.48334975005576" lon="1.6626370140393332"><ele>258.0</ele><time>2026-03-22T16:34:04Z</time></trkpt><trkpt lat="43.48341362501253" lon="1.6625013498462413"><ele>256.3333333333333</ele><time>2026-03-22T16:34:04.999Z</time></trkpt><trkpt lat="43.48348814557682" lon="1.662320104130816"><ele>254.66666666666666</ele><time>2026-03-22T16:34:05.999Z</time></trkpt><trkpt lat="43.483577084592376" lon="1.662108736399659"><ele>253.0</ele><time>2026-03-22T16:34:06.999Z</time></trkpt><trkpt lat="43.48365606249952" lon="1.661898631543643"><ele>251.66666666666666</ele><time>2026-03-22T16:34:07.999Z</time></trkpt><trkpt lat="43.4837291533199" lon="1.6616924125589245"><ele>250.33333333333331</ele><time>2026-03-22T16:34:08.999Z</time></trkpt><trkpt lat="43.48381121443513" lon="1.6614730847673083"><ele>249.0</ele><time>2026-03-22T16:34:09.999Z</time></trkpt><trkpt lat="43.48388610804459" lon="1.66127426066099"><ele>248.33333333333331</ele><time>2026-03-22T16:34:10.999Z</time></trkpt><trkpt lat="43.48395560403101" lon="1.6610722303526848"><ele>247.66666666666666</ele><time>2026-03-22T16:34:11.999Z</time></trkpt><trkpt lat="43.48403300545756" lon="1.6608945850692982"><ele>247.0</ele><time>2026-03-22T16:34:12.999Z</time></trkpt><trkpt lat="43.484103437659186" lon="1.6607046380909463"><ele>247.0</ele><time>2026-03-22T16:34:13.999Z</time></trkpt><trkpt lat="43.484174283281845" lon="1.6605143434957983"><ele>247.0</ele><time>2026-03-22T16:34:14.999Z</time></trkpt><trkpt lat="43.48424801419602" lon="1.6603187441501324"><ele>247.0</ele><time>2026-03-22T16:34:15.999Z</time></trkpt><trkpt lat="43.484323374829316" lon="1.6601326199019788"><ele>247.0</ele><time>2026-03-22T16:34:16.999Z</time></trkpt><trkpt lat="43.48439392020141" lon="1.6599485916068157"><ele>247.0</ele><time>2026-03-22T16:34:17.999Z</time></trkpt><trkpt lat="43.48446861873466" lon="1.6597504643064465"><ele>247.0</ele><time>2026-03-22T16:34:18.999Z</time></trkpt><trkpt lat="43.48455248751531" lon="1.6595374294273642"><ele>247.0</ele><time>2026-03-22T16:34:19.999Z</time></trkpt><trkpt lat="43.484638926954375" lon="1.6593135433693422"><ele>247.0</ele><time>2026-03-22T16:34:20.999Z</time></trkpt><trkpt lat="43.484735767659686" lon="1.6590565970331403"><ele>247.0</ele><time>2026-03-22T16:34:21.999Z</time></trkpt><trkpt lat="43.48484448627528" lon="1.6587782284698942"><ele>247.0</ele><time>2026-03-22T16:34:22.999Z</time></trkpt><trkpt lat="43.48493672814287" lon="1.658528703484866"><ele>247.0</ele><time>2026-03-22T16:34:23.999Z</time></trkpt><trkpt lat="43.48502501256611" lon="1.6583021279230683"><ele>247.0</ele><time>2026-03-22T16:34:24.999Z</time></trkpt><trkpt lat="43.485124221356045" lon="1.65804355541652"><ele>247.0</ele><time>2026-03-22T16:34:25.999Z</time></trkpt><trkpt lat="43.48521982907245" lon="1.6577981654523282"><ele>247.0</ele><time>2026-03-22T16:34:26.999Z</time></trkpt><trkpt lat="43.485313738898085" lon="1.6575650162123923"><ele>247.0</ele><time>2026-03-22T16:34:27.999Z</time></trkpt><trkpt lat="43.48541047667252" lon="1.657312831166093"><ele>247.33333333333331</ele><time>2026-03-22T16:34:28.999Z</time></trkpt><trkpt lat="43.48550668006192" lon="1.6570658092087391"><ele>247.66666666666669</ele><time>2026-03-22T16:34:29.999Z</time></trkpt><trkpt lat="43.485593340910754" lon="1.6568394663911177"><ele>248.0</ele><time>2026-03-22T16:34:30.999Z</time></trkpt><trkpt lat="43.48568610879428" lon="1.6565909930174492"><ele>248.0</ele><time>2026-03-22T16:34:31.999Z</time></trkpt><trkpt lat="43.48577879983104" lon="1.656343762003941"><ele>248.0</ele><time>2026-03-22T16:34:32.999Z</time></trkpt><trkpt lat="43.485866276611816" lon="1.656113404916906"><ele>248.0</ele><time>2026-03-22T16:34:33.999Z</time></trkpt><trkpt lat="43.4859519642053" lon="1.655884862801565"><ele>247.66666666666669</ele><time>2026-03-22T16:34:34.999Z</time></trkpt><trkpt lat="43.486048223838594" lon="1.6556296233377656"><ele>247.33333333333331</ele><time>2026-03-22T16:34:35.999Z</time></trkpt><trkpt lat="43.48613715432168" lon="1.655390341786298"><ele>247.0</ele><time>2026-03-22T16:34:36.999Z</time></trkpt><trkpt lat="43.4862274529352" lon="1.655151075626061"><ele>246.33333333333331</ele><time>2026-03-22T16:34:37.999Z</time></trkpt><trkpt lat="43.48631888191438" lon="1.6549056731763576"><ele>245.66666666666669</ele><time>2026-03-22T16:34:38.999Z</time></trkpt><trkpt lat="43.48640856759376" lon="1.6546676966293774"><ele>245.0</ele><time>2026-03-22T16:34:39.999Z</time></trkpt><trkpt lat="43.48650150231188" lon="1.6544241822305368"><ele>245.0</ele><time>2026-03-22T16:34:40.999Z</time></trkpt><trkpt lat="43.48659559924422" lon="1.654172526832221"><ele>245.0</ele><time>2026-03-22T16:34:42Z</time></trkpt><trkpt lat="43.48668837907235" lon="1.6539244657136734"><ele>245.0</ele><time>2026-03-22T16:34:43Z</time></trkpt><trkpt lat="43.486790427124035" lon="1.653646139553326"><ele>244.0</ele><time>2026-03-22T16:34:44Z</time></trkpt><trkpt lat="43.48689577885412" lon="1.6533700354863243"><ele>243.0</ele><time>2026-03-22T16:34:45Z</time></trkpt><trkpt lat="43.487000267964284" lon="1.6530999634331318"><ele>242.0</ele><time>2026-03-22T16:34:46Z</time></trkpt><trkpt lat="43.48710554245854" lon="1.6528256568636377"><ele>241.33333333333334</ele><time>2026-03-22T16:34:47Z</time></trkpt><trkpt lat="43.48720442216593" lon="1.652574036188467"><ele>240.66666666666669</ele><time>2026-03-22T16:34:48Z</time></trkpt><trkpt lat="43.48730779888091" lon="1.6522869389463581"><ele>240.0</ele><time>2026-03-22T16:34:49Z</time></trkpt><trkpt lat="43.48741900771839" lon="1.6519906570484526"><ele>240.0</ele><time>2026-03-22T16:34:50Z</time></trkpt><trkpt lat="43.48751982359655" lon="1.651734674996172"><ele>240.0</ele><time>2026-03-22T16:34:51Z</time></trkpt><trkpt lat="43.487612248907745" lon="1.6514692321582172"><ele>240.0</ele><time>2026-03-22T16:34:52Z</time></trkpt><trkpt lat="43.48772852646038" lon="1.6511889818260117"><ele>240.5</ele><time>2026-03-22T16:34:53Z</time></trkpt><trkpt lat="43.48784314958949" lon="1.6508939134910101"><ele>241.0</ele><time>2026-03-22T16:34:54Z</time></trkpt><trkpt lat="43.48796101369657" lon="1.6506039901831204"><ele>240.0</ele><time>2026-03-22T16:34:55Z</time></trkpt><trkpt lat="43.488048196759635" lon="1.6503287726550733"><ele>239.0</ele><time>2026-03-22T16:34:56Z</time></trkpt><trkpt lat="43.4881628423104" lon="1.6500279462133525"><ele>239.0</ele><time>2026-03-22T16:34:57Z</time></trkpt><trkpt lat="43.48828185032063" lon="1.649713502551393"><ele>239.0</ele><time>2026-03-22T16:34:58Z</time></trkpt><trkpt lat="43.488381110495396" lon="1.6494367317427852"><ele>238.5</ele><time>2026-03-22T16:34:59Z</time></trkpt><trkpt lat="43.48848627391548" lon="1.6491518760567845"><ele>238.0</ele><time>2026-03-22T16:35:00Z</time></trkpt><trkpt lat="43.48859763260998" lon="1.6488610041310423"><ele>238.0</ele><time>2026-03-22T16:35:01Z</time></trkpt><trkpt lat="43.48870459318164" lon="1.648575832372284"><ele>238.0</ele><time>2026-03-22T16:35:02Z</time></trkpt><trkpt lat="43.488807722380784" lon="1.6482984610773188"><ele>238.0</ele><time>2026-03-22T16:35:03Z</time></trkpt><trkpt lat="43.48890962565491" lon="1.6480177779298255"><ele>238.0</ele><time>2026-03-22T16:35:04Z</time></trkpt><trkpt lat="43.48901271703567" lon="1.6477403994691788"><ele>238.66666666666666</ele><time>2026-03-22T16:35:05Z</time></trkpt><trkpt lat="43.489119343369545" lon="1.6474722838656064"><ele>239.33333333333331</ele><time>2026-03-22T16:35:06Z</time></trkpt><trkpt lat="43.48922321139823" lon="1.6472065290890254"><ele>240.0</ele><time>2026-03-22T16:35:07Z</time></trkpt><trkpt lat="43.489324437681" lon="1.6469450008134623"><ele>240.33333333333331</ele><time>2026-03-22T16:35:08Z</time></trkpt><trkpt lat="43.4894215750945" lon="1.6466950224962982"><ele>240.66666666666666</ele><time>2026-03-22T16:35:09Z</time></trkpt><trkpt lat="43.489512003863624" lon="1.6464513406232504"><ele>241.0</ele><time>2026-03-22T16:35:10Z</time></trkpt><trkpt lat="43.48960198539482" lon="1.6462041386374908"><ele>242.0</ele><time>2026-03-22T16:35:11Z</time></trkpt><trkpt lat="43.48968926064603" lon="1.6459703336816784"><ele>243.0</ele><time>2026-03-22T16:35:12Z</time></trkpt><trkpt lat="43.4897831492468" lon="1.6457263171360499"><ele>244.0</ele><time>2026-03-22T16:35:13Z</time></trkpt><trkpt lat="43.48987271420103" lon="1.6454848521336163"><ele>244.33333333333331</ele><time>2026-03-22T16:35:14Z</time></trkpt><trkpt lat="43.4899626955595" lon="1.6452400578091526"><ele>244.66666666666669</ele><time>2026-03-22T16:35:15Z</time></trkpt><trkpt lat="43.49005668571505" lon="1.6449918257717728"><ele>245.0</ele><time>2026-03-22T16:35:16Z</time></trkpt><trkpt lat="43.49015126377751" lon="1.6447440046378838"><ele>245.0</ele><time>2026-03-22T16:35:17Z</time></trkpt><trkpt lat="43.49024389207594" lon="1.6445032846366034"><ele>245.0</ele><time>2026-03-22T16:35:18Z</time></trkpt><trkpt lat="43.490324783709944" lon="1.6442718065702393"><ele>245.0</ele><time>2026-03-22T16:35:19Z</time></trkpt><trkpt lat="43.49040979934068" lon="1.6440426892807336"><ele>244.0</ele><time>2026-03-22T16:35:20Z</time></trkpt><trkpt lat="43.49049653811694" lon="1.6438083006301099"><ele>243.0</ele><time>2026-03-22T16:35:21Z</time></trkpt><trkpt lat="43.49058607870763" lon="1.6435730593689126"><ele>242.0</ele><time>2026-03-22T16:35:22Z</time></trkpt><trkpt lat="43.49067315060899" lon="1.6433363644923684"><ele>242.0</ele><time>2026-03-22T16:35:23Z</time></trkpt><trkpt lat="43.49075724377761" lon="1.6431104795594835"><ele>242.0</ele><time>2026-03-22T16:35:24Z</time></trkpt><trkpt lat="43.49083681721804" lon="1.6428889632343275"><ele>242.0</ele><time>2026-03-22T16:35:25Z</time></trkpt><trkpt lat="43.490918976364085" lon="1.6426668746926227"><ele>242.33333333333334</ele><time>2026-03-22T16:35:26Z</time></trkpt><trkpt lat="43.49099655646393" lon="1.6424531274888208"><ele>242.66666666666669</ele><time>2026-03-22T16:35:27Z</time></trkpt><trkpt lat="43.49108028455398" lon="1.6422417516449455"><ele>243.0</ele><time>2026-03-22T16:35:28Z</time></trkpt><trkpt lat="43.4911681829019" lon="1.6420180760732872"><ele>243.0</ele><time>2026-03-22T16:35:29Z</time></trkpt><trkpt lat="43.49124703198565" lon="1.6418049770890588"><ele>243.0</ele><time>2026-03-22T16:35:30Z</time></trkpt><trkpt lat="43.491327679032054" lon="1.6415820866616757"><ele>243.0</ele><time>2026-03-22T16:35:31Z</time></trkpt><trkpt lat="43.491415635680646" lon="1.6413433023888844"><ele>243.33333333333331</ele><time>2026-03-22T16:35:32Z</time></trkpt><trkpt lat="43.491503074661" lon="1.6411163432604274"><ele>243.66666666666666</ele><time>2026-03-22T16:35:33Z</time></trkpt><trkpt lat="43.491585760452224" lon="1.6408971239858394"><ele>244.0</ele><time>2026-03-22T16:35:34Z</time></trkpt><trkpt lat="43.49167056270972" lon="1.6406762168161393"><ele>244.0</ele><time>2026-03-22T16:35:35Z</time></trkpt><trkpt lat="43.491757937197185" lon="1.6404448379008651"><ele>244.0</ele><time>2026-03-22T16:35:36Z</time></trkpt><trkpt lat="43.49184861922838" lon="1.6402090169798966"><ele>244.0</ele><time>2026-03-22T16:35:37Z</time></trkpt><trkpt lat="43.491939185486466" lon="1.6399665316542624"><ele>243.33333333333331</ele><time>2026-03-22T16:35:38Z</time></trkpt><trkpt lat="43.4920274112939" lon="1.6397324191375717"><ele>242.66666666666669</ele><time>2026-03-22T16:35:39Z</time></trkpt><trkpt lat="43.49211198839178" lon="1.6395136834709363"><ele>242.0</ele><time>2026-03-22T16:35:40Z</time></trkpt><trkpt lat="43.492196913562545" lon="1.63928897098296"><ele>241.33333333333334</ele><time>2026-03-22T16:35:41Z</time></trkpt><trkpt lat="43.49228116463322" lon="1.6390610998618473"><ele>240.66666666666669</ele><time>2026-03-22T16:35:42Z</time></trkpt><trkpt lat="43.492369113394616" lon="1.638827961824125"><ele>240.0</ele><time>2026-03-22T16:35:43Z</time></trkpt><trkpt lat="43.492458013718995" lon="1.638590830835504"><ele>239.0</ele><time>2026-03-22T16:35:44Z</time></trkpt><trkpt lat="43.4925468272152" lon="1.6383533118544553"><ele>238.0</ele><time>2026-03-22T16:35:45Z</time></trkpt><trkpt lat="43.4926290864256" lon="1.6381279918041758"><ele>237.0</ele><time>2026-03-22T16:35:46Z</time></trkpt><trkpt lat="43.49271245140382" lon="1.6379005821605996"><ele>237.0</ele><time>2026-03-22T16:35:47Z</time></trkpt><trkpt lat="43.492799652608" lon="1.637670243649848"><ele>237.0</ele><time>2026-03-22T16:35:48Z</time></trkpt><trkpt lat="43.492886500171196" lon="1.6374451555337475"><ele>237.0</ele><time>2026-03-22T16:35:49Z</time></trkpt><trkpt lat="43.49297397400564" lon="1.6372168674441203"><ele>237.0</ele><time>2026-03-22T16:35:50Z</time></trkpt><trkpt lat="43.4930587599844" lon="1.6369883548485131"><ele>237.0</ele><time>2026-03-22T16:35:51Z</time></trkpt><trkpt lat="43.49314546262188" lon="1.6367582953149"><ele>237.0</ele><time>2026-03-22T16:35:52Z</time></trkpt><trkpt lat="43.493231891747364" lon="1.6365295109771878"><ele>237.33333333333331</ele><time>2026-03-22T16:35:53Z</time></trkpt><trkpt lat="43.49332183359659" lon="1.6362842850522086"><ele>237.66666666666666</ele><time>2026-03-22T16:35:54Z</time></trkpt><trkpt lat="43.49341117910658" lon="1.6360540232175789"><ele>238.0</ele><time>2026-03-22T16:35:55Z</time></trkpt><trkpt lat="43.49349474290122" lon="1.6358264965883635"><ele>237.66666666666666</ele><time>2026-03-22T16:35:56Z</time></trkpt><trkpt lat="43.493583864684894" lon="1.6355928859068867"><ele>237.33333333333331</ele><time>2026-03-22T16:35:57Z</time></trkpt><trkpt lat="43.493668855754166" lon="1.6353714985519736"><ele>237.0</ele><time>2026-03-22T16:35:58Z</time></trkpt><trkpt lat="43.49374935128969" lon="1.6351588836154003"><ele>238.66666666666669</ele><time>2026-03-22T16:35:59Z</time></trkpt><trkpt lat="43.49383151771698" lon="1.6349497072586754"><ele>240.33333333333334</ele><time>2026-03-22T16:35:59.999Z</time></trkpt><trkpt lat="43.49391870275527" lon="1.6347418611196078"><ele>242.0</ele><time>2026-03-22T16:36:00.999Z</time></trkpt><trkpt lat="43.49400460283733" lon="1.6345459221917455"><ele>242.33333333333334</ele><time>2026-03-22T16:36:01.999Z</time></trkpt><trkpt lat="43.494090408505514" lon="1.6343506407160642"><ele>242.66666666666669</ele><time>2026-03-22T16:36:02.999Z</time></trkpt><trkpt lat="43.4941737324261" lon="1.6341632541608357"><ele>243.0</ele><time>2026-03-22T16:36:03.999Z</time></trkpt><trkpt lat="43.49425878302699" lon="1.6339793560732434"><ele>243.0</ele><time>2026-03-22T16:36:04.999Z</time></trkpt><trkpt lat="43.4943400770948" lon="1.63379685696196"><ele>243.0</ele><time>2026-03-22T16:36:05.999Z</time></trkpt><trkpt lat="43.49441873054267" lon="1.6336187422784005"><ele>243.0</ele><time>2026-03-22T16:36:06.999Z</time></trkpt><trkpt lat="43.49449689176949" lon="1.633438301564862"><ele>243.33333333333331</ele><time>2026-03-22T16:36:07.999Z</time></trkpt><trkpt lat="43.494577105399785" lon="1.6332562447677128"><ele>243.66666666666666</ele><time>2026-03-22T16:36:08.999Z</time></trkpt><trkpt lat="43.49465635410257" lon="1.6330678626089115"><ele>244.0</ele><time>2026-03-22T16:36:09.999Z</time></trkpt><trkpt lat="43.49473752524443" lon="1.6328819864126527"><ele>245.0</ele><time>2026-03-22T16:36:10.999Z</time></trkpt><trkpt lat="43.4948203933408" lon="1.6326979326269424"><ele>246.0</ele><time>2026-03-22T16:36:11.999Z</time></trkpt><trkpt lat="43.49490181262831" lon="1.6325135888692692"><ele>247.0</ele><time>2026-03-22T16:36:12.999Z</time></trkpt><trkpt lat="43.49498111440194" lon="1.6323348850023074"><ele>247.0</ele><time>2026-03-22T16:36:13.999Z</time></trkpt><trkpt lat="43.49505829918281" lon="1.6321633364575783"><ele>247.0</ele><time>2026-03-22T16:36:14.999Z</time></trkpt><trkpt lat="43.49513900501545" lon="1.6319865048875675"><ele>247.0</ele><time>2026-03-22T16:36:15.999Z</time></trkpt><trkpt lat="43.49520811906585" lon="1.6318209149787353"><ele>247.0</ele><time>2026-03-22T16:36:16.999Z</time></trkpt><trkpt lat="43.49527392731403" lon="1.6316698596744268"><ele>247.0</ele><time>2026-03-22T16:36:17.999Z</time></trkpt><trkpt lat="43.4953396324711" lon="1.6315271995195375"><ele>247.0</ele><time>2026-03-22T16:36:18.999Z</time></trkpt><trkpt lat="43.49540044678341" lon="1.6313883011134356"><ele>247.0</ele><time>2026-03-22T16:36:19.999Z</time></trkpt><trkpt lat="43.49545848827221" lon="1.631256328997038"><ele>247.0</ele><time>2026-03-22T16:36:20.999Z</time></trkpt><trkpt lat="43.495520332025436" lon="1.6311145237882783"><ele>247.75</ele><time>2026-03-22T16:36:21.999Z</time></trkpt><trkpt lat="43.495586974755966" lon="1.6309622281937672"><ele>248.5</ele><time>2026-03-22T16:36:22.999Z</time></trkpt><trkpt lat="43.4956553957221" lon="1.630803170246919"><ele>249.25</ele><time>2026-03-22T16:36:23.999Z</time></trkpt><trkpt lat="43.49572283951296" lon="1.630652995521816"><ele>250.0</ele><time>2026-03-22T16:36:24.999Z</time></trkpt><trkpt lat="43.49578604385827" lon="1.6304938504846773"><ele>250.0</ele><time>2026-03-22T16:36:25.999Z</time></trkpt><trkpt lat="43.4958548864013" lon="1.6303464534065628"><ele>250.0</ele><time>2026-03-22T16:36:26.999Z</time></trkpt><trkpt lat="43.49592196264118" lon="1.6301945019316837"><ele>250.0</ele><time>2026-03-22T16:36:27.999Z</time></trkpt><trkpt lat="43.4959894704098" lon="1.6300455679899852"><ele>250.0</ele><time>2026-03-22T16:36:28.999Z</time></trkpt><trkpt lat="43.49605866842474" lon="1.6298921815094423"><ele>249.25</ele><time>2026-03-22T16:36:29.999Z</time></trkpt><trkpt lat="43.49612719233419" lon="1.629740808207478"><ele>248.5</ele><time>2026-03-22T16:36:30.999Z</time></trkpt><trkpt lat="43.49620150838876" lon="1.6295812918593549"><ele>247.75</ele><time>2026-03-22T16:36:31.999Z</time></trkpt><trkpt lat="43.4962703815174" lon="1.6294138092308275"><ele>247.0</ele><time>2026-03-22T16:36:32.999Z</time></trkpt><trkpt lat="43.49634172022147" lon="1.629250476974571"><ele>246.25</ele><time>2026-03-22T16:36:33.999Z</time></trkpt><trkpt lat="43.49641875203281" lon="1.6290901501628121"><ele>245.5</ele><time>2026-03-22T16:36:34.999Z</time></trkpt><trkpt lat="43.496507289790515" lon="1.6289235941717786"><ele>244.75</ele><time>2026-03-22T16:36:35.999Z</time></trkpt><trkpt lat="43.49657780662017" lon="1.6287410002691969"><ele>244.0</ele><time>2026-03-22T16:36:36.999Z</time></trkpt><trkpt lat="43.49665452490627" lon="1.6285554248815515"><ele>243.5</ele><time>2026-03-22T16:36:37.999Z</time></trkpt><trkpt lat="43.49673176366466" lon="1.6283968497164565"><ele>243.0</ele><time>2026-03-22T16:36:38.999Z</time></trkpt><trkpt lat="43.49680404930374" lon="1.6282307455007645"><ele>242.5</ele><time>2026-03-22T16:36:39.999Z</time></trkpt><trkpt lat="43.49688185226014" lon="1.6280577473176407"><ele>242.0</ele><time>2026-03-22T16:36:40.999Z</time></trkpt><trkpt lat="43.49695902239906" lon="1.6278582777673265"><ele>242.0</ele><time>2026-03-22T16:36:41.999Z</time></trkpt><trkpt lat="43.497041275651924" lon="1.6276734913288815"><ele>242.0</ele><time>2026-03-22T16:36:42.999Z</time></trkpt><trkpt lat="43.497120815653446" lon="1.6274786388460447"><ele>242.0</ele><time>2026-03-22T16:36:43.999Z</time></trkpt><trkpt lat="43.497200003965254" lon="1.6272969315419863"><ele>242.33333333333334</ele><time>2026-03-22T16:36:44.999Z</time></trkpt><trkpt lat="43.49727777866184" lon="1.6271063864394228"><ele>242.66666666666669</ele><time>2026-03-22T16:36:45.999Z</time></trkpt><trkpt lat="43.497354497640764" lon="1.6269133219006544"><ele>243.0</ele><time>2026-03-22T16:36:46.999Z</time></trkpt><trkpt lat="43.49742256914664" lon="1.6267041280545742"><ele>243.66666666666669</ele><time>2026-03-22T16:36:48Z</time></trkpt><trkpt lat="43.49749443372493" lon="1.6264863761527426"><ele>244.33333333333334</ele><time>2026-03-22T16:36:49Z</time></trkpt><trkpt lat="43.49756014803419" lon="1.626279560526496"><ele>245.0</ele><time>2026-03-22T16:36:50Z</time></trkpt><trkpt lat="43.49762424941232" lon="1.626070941503537"><ele>245.66666666666669</ele><time>2026-03-22T16:36:51Z</time></trkpt><trkpt lat="43.497689355373446" lon="1.6258623629477733"><ele>246.33333333333331</ele><time>2026-03-22T16:36:52Z</time></trkpt><trkpt lat="43.49774890674902" lon="1.6256572976363788"><ele>247.0</ele><time>2026-03-22T16:36:53Z</time></trkpt><trkpt lat="43.49781379385555" lon="1.6254549591191552"><ele>247.0</ele><time>2026-03-22T16:36:54Z</time></trkpt><trkpt lat="43.4978785294861" lon="1.6252401505633336"><ele>247.0</ele><time>2026-03-22T16:36:55Z</time></trkpt><trkpt lat="43.49794136490949" lon="1.625029490521492"><ele>247.0</ele><time>2026-03-22T16:36:56Z</time></trkpt><trkpt lat="43.49800474510122" lon="1.624832063385843"><ele>246.66666666666666</ele><time>2026-03-22T16:36:57Z</time></trkpt><trkpt lat="43.498064722947454" lon="1.6246319138448118"><ele>246.33333333333331</ele><time>2026-03-22T16:36:58Z</time></trkpt><trkpt lat="43.49812558802204" lon="1.624435357054352"><ele>246.0</ele><time>2026-03-22T16:36:59Z</time></trkpt><trkpt lat="43.498192065043675" lon="1.6242226584337325"><ele>246.0</ele><time>2026-03-22T16:37:00Z</time></trkpt><trkpt lat="43.49825826913181" lon="1.6240045458820869"><ele>246.0</ele><time>2026-03-22T16:37:01Z</time></trkpt><trkpt lat="43.49831826731884" lon="1.6238034715589906"><ele>246.0</ele><time>2026-03-22T16:37:02Z</time></trkpt><trkpt lat="43.49838804384244" lon="1.6235980370564014"><ele>246.33333333333331</ele><time>2026-03-22T16:37:03Z</time></trkpt><trkpt lat="43.49847368137209" lon="1.6233989282818224"><ele>246.66666666666666</ele><time>2026-03-22T16:37:04Z</time></trkpt><trkpt lat="43.49855389971563" lon="1.6232203132984306"><ele>247.0</ele><time>2026-03-22T16:37:05Z</time></trkpt><trkpt lat="43.49864116551106" lon="1.6230518159076168"><ele>247.0</ele><time>2026-03-22T16:37:06Z</time></trkpt><trkpt lat="43.49873570137455" lon="1.6228764004486964"><ele>247.0</ele><time>2026-03-22T16:37:07Z</time></trkpt><trkpt lat="43.49882663845246" lon="1.6227157583871212"><ele>247.0</ele><time>2026-03-22T16:37:08Z</time></trkpt><trkpt lat="43.498915302793996" lon="1.6225623842550005"><ele>247.0</ele><time>2026-03-22T16:37:09Z</time></trkpt><trkpt lat="43.49900112857868" lon="1.6224144336671018"><ele>246.25</ele><time>2026-03-22T16:37:10Z</time></trkpt><trkpt lat="43.49908362413289" lon="1.6222797037553534"><ele>245.5</ele><time>2026-03-22T16:37:11Z</time></trkpt><trkpt lat="43.49916307252056" lon="1.6221471142008916"><ele>244.75</ele><time>2026-03-22T16:37:12Z</time></trkpt><trkpt lat="43.49923923382651" lon="1.6219918407345009"><ele>244.0</ele><time>2026-03-22T16:37:13Z</time></trkpt><trkpt lat="43.49932681499625" lon="1.62185690451711"><ele>243.75</ele><time>2026-03-22T16:37:14Z</time></trkpt><trkpt lat="43.499411839629744" lon="1.6217140845198954"><ele>243.5</ele><time>2026-03-22T16:37:15Z</time></trkpt><trkpt lat="43.49949214418736" lon="1.6215839378852113"><ele>243.25</ele><time>2026-03-22T16:37:16Z</time></trkpt><trkpt lat="43.49957570669125" lon="1.6214406228559117"><ele>243.0</ele><time>2026-03-22T16:37:17Z</time></trkpt><trkpt lat="43.49966606740352" lon="1.621284564511242"><ele>242.75</ele><time>2026-03-22T16:37:18Z</time></trkpt><trkpt lat="43.49975907806579" lon="1.6211261856392218"><ele>242.5</ele><time>2026-03-22T16:37:19Z</time></trkpt><trkpt lat="43.49984099906031" lon="1.6209955734940735"><ele>242.25</ele><time>2026-03-22T16:37:20Z</time></trkpt><trkpt lat="43.49992225803914" lon="1.6208663222984843"><ele>242.0</ele><time>2026-03-22T16:37:21Z</time></trkpt><trkpt lat="43.50001329522743" lon="1.6207100998855866"><ele>242.0</ele><time>2026-03-22T16:37:22Z</time></trkpt><trkpt lat="43.50010378988873" lon="1.6205656843463048"><ele>242.0</ele><time>2026-03-22T16:37:23Z</time></trkpt><trkpt lat="43.50018601848146" lon="1.6204241481815764"><ele>242.0</ele><time>2026-03-22T16:37:24Z</time></trkpt><trkpt lat="43.5002700332841" lon="1.620284583869703"><ele>242.0</ele><time>2026-03-22T16:37:25Z</time></trkpt><trkpt lat="43.50035397050748" lon="1.6201384955371907"><ele>241.75</ele><time>2026-03-22T16:37:26Z</time></trkpt><trkpt lat="43.50044234920828" lon="1.619986637676016"><ele>241.5</ele><time>2026-03-22T16:37:27Z</time></trkpt><trkpt lat="43.50052006356704" lon="1.619851303261395"><ele>241.25</ele><time>2026-03-22T16:37:28Z</time></trkpt><trkpt lat="43.500594635183" lon="1.619694356056543"><ele>241.0</ele><time>2026-03-22T16:37:29Z</time></trkpt><trkpt lat="43.500683105821984" lon="1.6195462342224278"><ele>241.25</ele><time>2026-03-22T16:37:30Z</time></trkpt><trkpt lat="43.500767802856856" lon="1.6194222077121476"><ele>241.5</ele><time>2026-03-22T16:37:31Z</time></trkpt><trkpt lat="43.500843323650564" lon="1.6192896999455764"><ele>241.75</ele><time>2026-03-22T16:37:32Z</time></trkpt><trkpt lat="43.50092015622367" lon="1.6191585668090975"><ele>242.0</ele><time>2026-03-22T16:37:33Z</time></trkpt><trkpt lat="43.50098211810257" lon="1.6190295251196591"><ele>242.0</ele><time>2026-03-22T16:37:34Z</time></trkpt><trkpt lat="43.5010572926891" lon="1.6188978169772825"><ele>242.0</ele><time>2026-03-22T16:37:35Z</time></trkpt><trkpt lat="43.501118479877846" lon="1.6187701306565165"><ele>242.0</ele><time>2026-03-22T16:37:36Z</time></trkpt><trkpt lat="43.5011799956459" lon="1.618648860760383"><ele>242.0</ele><time>2026-03-22T16:37:37Z</time></trkpt><trkpt lat="43.501238720588574" lon="1.6185287693717796"><ele>242.0</ele><time>2026-03-22T16:37:38Z</time></trkpt><trkpt lat="43.50129808137985" lon="1.618409610082513"><ele>241.39999999999998</ele><time>2026-03-22T16:37:39Z</time></trkpt><trkpt lat="43.501353027328456" lon="1.6182991308295993"><ele>240.79999999999998</ele><time>2026-03-22T16:37:40Z</time></trkpt><trkpt lat="43.50140434018638" lon="1.618197132123655"><ele>240.2</ele><time>2026-03-22T16:37:41Z</time></trkpt><trkpt lat="43.501468002730284" lon="1.6180841556678847"><ele>239.6</ele><time>2026-03-22T16:37:42Z</time></trkpt><trkpt lat="43.501526016646395" lon="1.617975406290008"><ele>239.0</ele><time>2026-03-22T16:37:43Z</time></trkpt><trkpt lat="43.501584537980804" lon="1.6178648709078582"><ele>239.16666666666669</ele><time>2026-03-22T16:37:44Z</time></trkpt><trkpt lat="43.501635989791744" lon="1.617770495008751"><ele>239.33333333333334</ele><time>2026-03-22T16:37:45Z</time></trkpt><trkpt lat="43.501685857490585" lon="1.6176801822707256"><ele>239.5</ele><time>2026-03-22T16:37:46Z</time></trkpt><trkpt lat="43.50173157603185" lon="1.6175912804623336"><ele>239.66666666666669</ele><time>2026-03-22T16:37:47Z</time></trkpt><trkpt lat="43.50177241208557" lon="1.6175094447444776"><ele>239.83333333333334</ele><time>2026-03-22T16:37:48Z</time></trkpt><trkpt lat="43.50181408553439" lon="1.617430096484081"><ele>240.0</ele><time>2026-03-22T16:37:49Z</time></trkpt><trkpt lat="43.50185696900825" lon="1.6173579023906086"><ele>240.0</ele><time>2026-03-22T16:37:50Z</time></trkpt><trkpt lat="43.50190136326202" lon="1.6172848001099933"><ele>240.0</ele><time>2026-03-22T16:37:51Z</time></trkpt><trkpt lat="43.5019496791483" lon="1.6172055080883159"><ele>240.0</ele><time>2026-03-22T16:37:52Z</time></trkpt><trkpt lat="43.502003931477354" lon="1.6171155358677252"><ele>240.0</ele><time>2026-03-22T16:37:53Z</time></trkpt><trkpt lat="43.50205410473045" lon="1.6170274365087796"><ele>240.0</ele><time>2026-03-22T16:37:54Z</time></trkpt><trkpt lat="43.50210798610536" lon="1.6169322716842607"><ele>240.0</ele><time>2026-03-22T16:37:55Z</time></trkpt><trkpt lat="43.50216530245741" lon="1.6168128878906438"><ele>241.25</ele><time>2026-03-22T16:37:56Z</time></trkpt><trkpt lat="43.50222341122253" lon="1.6166822499879563"><ele>242.5</ele><time>2026-03-22T16:37:57Z</time></trkpt><trkpt lat="43.50228501401465" lon="1.6165457756219634"><ele>243.75</ele><time>2026-03-22T16:37:58Z</time></trkpt><trkpt lat="43.502362871257006" lon="1.6163865238281874"><ele>245.0</ele><time>2026-03-22T16:37:59Z</time></trkpt><trkpt lat="43.5024268995307" lon="1.6162528350886751"><ele>244.25</ele><time>2026-03-22T16:38:00Z</time></trkpt><trkpt lat="43.50248937311775" lon="1.616105712799394"><ele>243.5</ele><time>2026-03-22T16:38:01Z</time></trkpt><trkpt lat="43.502570133920955" lon="1.6159736869557262"><ele>242.75</ele><time>2026-03-22T16:38:02Z</time></trkpt><trkpt lat="43.502637826831986" lon="1.6158559536709216"><ele>242.0</ele><time>2026-03-22T16:38:03Z</time></trkpt><trkpt lat="43.50270204029616" lon="1.6157205798555458"><ele>242.0</ele><time>2026-03-22T16:38:04Z</time></trkpt><trkpt lat="43.50277219408595" lon="1.6155970218531546"><ele>242.0</ele><time>2026-03-22T16:38:05Z</time></trkpt><trkpt lat="43.50284044330844" lon="1.6154789793926507"><ele>242.0</ele><time>2026-03-22T16:38:06Z</time></trkpt><trkpt lat="43.50290845861513" lon="1.6153510262761328"><ele>242.0</ele><time>2026-03-22T16:38:07Z</time></trkpt><trkpt lat="43.50297418273332" lon="1.6152175296110542"><ele>241.0</ele><time>2026-03-22T16:38:08Z</time></trkpt><trkpt lat="43.503036844550074" lon="1.6150905330174659"><ele>240.0</ele><time>2026-03-22T16:38:09Z</time></trkpt><trkpt lat="43.50310665739466" lon="1.6149753023460895"><ele>239.0</ele><time>2026-03-22T16:38:10Z</time></trkpt><trkpt lat="43.50317093674779" lon="1.6148413252812572"><ele>238.0</ele><time>2026-03-22T16:38:11Z</time></trkpt><trkpt lat="43.503241174255834" lon="1.6147037646145548"><ele>238.0</ele><time>2026-03-22T16:38:12Z</time></trkpt><trkpt lat="43.50330033400117" lon="1.6145688668931562"><ele>238.0</ele><time>2026-03-22T16:38:13Z</time></trkpt><trkpt lat="43.50336716630065" lon="1.6144411349094898"><ele>238.0</ele><time>2026-03-22T16:38:13.999Z</time></trkpt><trkpt lat="43.50343474133272" lon="1.6142990381688995"><ele>238.0</ele><time>2026-03-22T16:38:14.999Z</time></trkpt><trkpt lat="43.50350549978597" lon="1.6141498698139252"><ele>238.25</ele><time>2026-03-22T16:38:15.999Z</time></trkpt><trkpt lat="43.503577123963375" lon="1.6140101504423419"><ele>238.5</ele><time>2026-03-22T16:38:16.999Z</time></trkpt><trkpt lat="43.503640976305526" lon="1.613886391163979"><ele>238.75</ele><time>2026-03-22T16:38:17.999Z</time></trkpt><trkpt lat="43.50371399449425" lon="1.6137607631175168"><ele>239.0</ele><time>2026-03-22T16:38:18.999Z</time></trkpt><trkpt lat="43.50379123912778" lon="1.6136182197633906"><ele>238.5</ele><time>2026-03-22T16:38:19.999Z</time></trkpt><trkpt lat="43.5038606644555" lon="1.6134849012237489"><ele>238.0</ele><time>2026-03-22T16:38:20.999Z</time></trkpt><trkpt lat="43.503930947745374" lon="1.6133537002375213"><ele>237.5</ele><time>2026-03-22T16:38:21.999Z</time></trkpt><trkpt lat="43.50400198897434" lon="1.613214890963971"><ele>237.0</ele><time>2026-03-22T16:38:22.999Z</time></trkpt><trkpt lat="43.50407132876912" lon="1.6130776335441892"><ele>237.0</ele><time>2026-03-22T16:38:23.999Z</time></trkpt><trkpt lat="43.50414162746198" lon="1.612934814819999"><ele>237.0</ele><time>2026-03-22T16:38:24.999Z</time></trkpt><trkpt lat="43.50421678587004" lon="1.6127879149848883"><ele>237.0</ele><time>2026-03-22T16:38:25.999Z</time></trkpt><trkpt lat="43.50429540489969" lon="1.6126360253057903"><ele>237.0</ele><time>2026-03-22T16:38:26.999Z</time></trkpt><trkpt lat="43.50437147857812" lon="1.6124911695504833"><ele>236.75</ele><time>2026-03-22T16:38:27.999Z</time></trkpt><trkpt lat="43.5044505750538" lon="1.6123381863319934"><ele>236.5</ele><time>2026-03-22T16:38:28.999Z</time></trkpt><trkpt lat="43.50452715055668" lon="1.61218233244783"><ele>236.25</ele><time>2026-03-22T16:38:29.999Z</time></trkpt><trkpt lat="43.50460671055654" lon="1.6120305274064213"><ele>236.0</ele><time>2026-03-22T16:38:30.999Z</time></trkpt><trkpt lat="43.504687336472244" lon="1.6118858227349349"><ele>236.5</ele><time>2026-03-22T16:38:31.999Z</time></trkpt><trkpt lat="43.504764344141314" lon="1.6117366186771374"><ele>237.0</ele><time>2026-03-22T16:38:32.999Z</time></trkpt><trkpt lat="43.504840319008615" lon="1.6115865032738625"><ele>237.5</ele><time>2026-03-22T16:38:33.999Z</time></trkpt><trkpt lat="43.504923961105824" lon="1.6114238181469172"><ele>238.0</ele><time>2026-03-22T16:38:34.999Z</time></trkpt><trkpt lat="43.5050022945662" lon="1.611280028361152"><ele>237.75</ele><time>2026-03-22T16:38:35.999Z</time></trkpt><trkpt lat="43.505074783408496" lon="1.6111377363849901"><ele>237.5</ele><time>2026-03-22T16:38:36.999Z</time></trkpt><trkpt lat="43.505155837983644" lon="1.610973634374433"><ele>237.25</ele><time>2026-03-22T16:38:37.999Z</time></trkpt><trkpt lat="43.505242697466024" lon="1.6108025200730696"><ele>237.0</ele><time>2026-03-22T16:38:38.999Z</time></trkpt><trkpt lat="43.50532765417896" lon="1.6106308196016188"><ele>237.33333333333331</ele><time>2026-03-22T16:38:39.999Z</time></trkpt><trkpt lat="43.50541579866798" lon="1.6104538957268455"><ele>237.66666666666666</ele><time>2026-03-22T16:38:40.999Z</time></trkpt><trkpt lat="43.50550482599423" lon="1.610274595807835"><ele>238.0</ele><time>2026-03-22T16:38:41.999Z</time></trkpt><trkpt lat="43.50559230514993" lon="1.6101055054613675"><ele>238.66666666666666</ele><time>2026-03-22T16:38:42.999Z</time></trkpt><trkpt lat="43.50567974895345" lon="1.6099455323145981"><ele>239.33333333333331</ele><time>2026-03-22T16:38:43.999Z</time></trkpt><trkpt lat="43.50577155598759" lon="1.609767814334944"><ele>240.0</ele><time>2026-03-22T16:38:44.999Z</time></trkpt><trkpt lat="43.50587072687245" lon="1.6095708066855277"><ele>239.33333333333331</ele><time>2026-03-22T16:38:45.999Z</time></trkpt><trkpt lat="43.50597321389884" lon="1.6093682606788753"><ele>238.66666666666666</ele><time>2026-03-22T16:38:46.999Z</time></trkpt><trkpt lat="43.50606912405684" lon="1.6091803746263929"><ele>238.0</ele><time>2026-03-22T16:38:47.999Z</time></trkpt><trkpt lat="43.506186550458324" lon="1.608953483182044"><ele>237.66666666666666</ele><time>2026-03-22T16:38:48.999Z</time></trkpt><trkpt lat="43.506307811087076" lon="1.6087286846209772"><ele>237.33333333333331</ele><time>2026-03-22T16:38:49.999Z</time></trkpt><trkpt lat="43.50642689471307" lon="1.6085011417990773"><ele>237.0</ele><time>2026-03-22T16:38:50.999Z</time></trkpt><trkpt lat="43.50653527307633" lon="1.6082892057542644"><ele>237.66666666666669</ele><time>2026-03-22T16:38:51.999Z</time></trkpt><trkpt lat="43.50663677629824" lon="1.6080857970316473"><ele>238.33333333333334</ele><time>2026-03-22T16:38:52.999Z</time></trkpt><trkpt lat="43.50673535659916" lon="1.607895676117415"><ele>239.0</ele><time>2026-03-22T16:38:54Z</time></trkpt><trkpt lat="43.5068272337996" lon="1.6077166487816608"><ele>239.0</ele><time>2026-03-22T16:38:55Z</time></trkpt><trkpt lat="43.506913216040225" lon="1.6075501522640265"><ele>239.0</ele><time>2026-03-22T16:38:56Z</time></trkpt><trkpt lat="43.50700432323762" lon="1.6073794116102862"><ele>239.0</ele><time>2026-03-22T16:38:57Z</time></trkpt><trkpt lat="43.50708808970852" lon="1.607220105087145"><ele>239.0</ele><time>2026-03-22T16:38:58Z</time></trkpt><trkpt lat="43.50716579992778" lon="1.6070778989107286"><ele>239.0</ele><time>2026-03-22T16:38:59Z</time></trkpt><trkpt lat="43.50722540280494" lon="1.6069609442883899"><ele>238.99999999999997</ele><time>2026-03-22T16:39:00Z</time></trkpt><trkpt lat="43.50728040526732" lon="1.606843828523789"><ele>238.99999999999997</ele><time>2026-03-22T16:39:01Z</time></trkpt><trkpt lat="43.50733576419132" lon="1.6067359618996149"><ele>239.0</ele><time>2026-03-22T16:39:02Z</time></trkpt><trkpt lat="43.50739513375585" lon="1.6066235181313449"><ele>239.0</ele><time>2026-03-22T16:39:03Z</time></trkpt><trkpt lat="43.50745742004905" lon="1.606499697467496"><ele>239.0</ele><time>2026-03-22T16:39:04Z</time></trkpt><trkpt lat="43.50752812893805" lon="1.6063493133439668"><ele>239.0</ele><time>2026-03-22T16:39:05Z</time></trkpt><trkpt lat="43.507610132294786" lon="1.6061842086731184"><ele>239.0</ele><time>2026-03-22T16:39:06Z</time></trkpt><trkpt lat="43.50768370203002" lon="1.6060325616450553"><ele>239.0</ele><time>2026-03-22T16:39:07Z</time></trkpt><trkpt lat="43.50778101236302" lon="1.6058571316668535"><ele>239.0</ele><time>2026-03-22T16:39:08Z</time></trkpt><trkpt lat="43.50788678166773" lon="1.6056578303671862"><ele>239.0</ele><time>2026-03-22T16:39:09Z</time></trkpt><trkpt lat="43.507980156113206" lon="1.605466235070603"><ele>239.0</ele><time>2026-03-22T16:39:10Z</time></trkpt><trkpt lat="43.508087738377284" lon="1.6052609158780777"><ele>239.0</ele><time>2026-03-22T16:39:11Z</time></trkpt><trkpt lat="43.50821242117906" lon="1.6050303628709948"><ele>239.0</ele><time>2026-03-22T16:39:12Z</time></trkpt><trkpt lat="43.50835478899533" lon="1.6047769690050662"><ele>239.0</ele><time>2026-03-22T16:39:13Z</time></trkpt><trkpt lat="43.50849796840437" lon="1.6045302950352789"><ele>239.0</ele><time>2026-03-22T16:39:14Z</time></trkpt><trkpt lat="43.50865656957705" lon="1.6043018864759024"><ele>239.0</ele><time>2026-03-22T16:39:15Z</time></trkpt><trkpt lat="43.50885252276279" lon="1.6040685241909336"><ele>239.0</ele><time>2026-03-22T16:39:16Z</time></trkpt><trkpt lat="43.50907378267189" lon="1.6038300502623957"><ele>239.0</ele><time>2026-03-22T16:39:17Z</time></trkpt><trkpt lat="43.50928698037564" lon="1.6035882046819652"><ele>240.0</ele><time>2026-03-22T16:39:18Z</time></trkpt><trkpt lat="43.50948679685833" lon="1.6033546344814986"><ele>241.0</ele><time>2026-03-22T16:39:19Z</time></trkpt><trkpt lat="43.50967485927229" lon="1.603139070969109"><ele>238.5</ele><time>2026-03-22T16:39:20Z</time></trkpt><trkpt lat="43.50988462107183" lon="1.6029044970953539"><ele>236.0</ele><time>2026-03-22T16:39:21Z</time></trkpt><trkpt lat="43.51007581457985" lon="1.6026815912908505"><ele>236.0</ele><time>2026-03-22T16:39:22Z</time></trkpt><trkpt lat="43.51026053593641" lon="1.6024734259913207"><ele>236.0</ele><time>2026-03-22T16:39:23Z</time></trkpt><trkpt lat="43.51044073929755" lon="1.6022713997045877"><ele>232.5</ele><time>2026-03-22T16:39:24Z</time></trkpt><trkpt lat="43.510666492290035" lon="1.6020410317638216"><ele>229.0</ele><time>2026-03-22T16:39:25Z</time></trkpt><trkpt lat="43.51089850562553" lon="1.6017861002355744"><ele>229.0</ele><time>2026-03-22T16:39:26Z</time></trkpt><trkpt lat="43.51111222534026" lon="1.6015594351743863"><ele>229.0</ele><time>2026-03-22T16:39:27Z</time></trkpt><trkpt lat="43.511302938487" lon="1.6013586313459205"><ele>226.0</ele><time>2026-03-22T16:39:28Z</time></trkpt><trkpt lat="43.51149964001991" lon="1.6011578021087844"><ele>223.0</ele><time>2026-03-22T16:39:29Z</time></trkpt><trkpt lat="43.51167488926743" lon="1.600951440720319"><ele>223.0</ele><time>2026-03-22T16:39:30Z</time></trkpt><trkpt lat="43.51183928076441" lon="1.6007380865002"><ele>223.0</ele><time>2026-03-22T16:39:31Z</time></trkpt><trkpt lat="43.51204006979295" lon="1.6005011138173681"><ele>221.5</ele><time>2026-03-22T16:39:32Z</time></trkpt><trkpt lat="43.51223198790716" lon="1.6002577035152592"><ele>220.0</ele><time>2026-03-22T16:39:33Z</time></trkpt><trkpt lat="43.512423185635434" lon="1.6000328240644623"><ele>220.0</ele><time>2026-03-22T16:39:34Z</time></trkpt><trkpt lat="43.51260910048621" lon="1.5998218432681317"><ele>220.0</ele><time>2026-03-22T16:39:35Z</time></trkpt><trkpt lat="43.51278380736244" lon="1.5996171787977387"><ele>220.0</ele><time>2026-03-22T16:39:36Z</time></trkpt><trkpt lat="43.512952291222355" lon="1.5994141041152166"><ele>220.0</ele><time>2026-03-22T16:39:37Z</time></trkpt><trkpt lat="43.51312760410483" lon="1.5992125949178857"><ele>220.0</ele><time>2026-03-22T16:39:38Z</time></trkpt><trkpt lat="43.51330221368937" lon="1.599018063678921"><ele>220.0</ele><time>2026-03-22T16:39:39Z</time></trkpt><trkpt lat="43.51346561062585" lon="1.5988240924477366"><ele>220.0</ele><time>2026-03-22T16:39:40Z</time></trkpt><trkpt lat="43.51364485725172" lon="1.5986183694615175"><ele>219.0</ele><time>2026-03-22T16:39:41Z</time></trkpt><trkpt lat="43.513848326677646" lon="1.5983933343255072"><ele>218.0</ele><time>2026-03-22T16:39:42Z</time></trkpt><trkpt lat="43.5140565832163" lon="1.5981524742007136"><ele>218.0</ele><time>2026-03-22T16:39:43Z</time></trkpt><trkpt lat="43.514273707391354" lon="1.5979041365565756"><ele>218.0</ele><time>2026-03-22T16:39:44Z</time></trkpt><trkpt lat="43.51448228350675" lon="1.5976608609608378"><ele>215.0</ele><time>2026-03-22T16:39:45Z</time></trkpt><trkpt lat="43.514675596264105" lon="1.5974369774545243"><ele>212.0</ele><time>2026-03-22T16:39:46Z</time></trkpt><trkpt lat="43.514880763267826" lon="1.59720032968592"><ele>211.5</ele><time>2026-03-22T16:39:47Z</time></trkpt><trkpt lat="43.515085096911356" lon="1.5969680004388582"><ele>211.0</ele><time>2026-03-22T16:39:48Z</time></trkpt><trkpt lat="43.51527503615679" lon="1.5967482318293762"><ele>212.0</ele><time>2026-03-22T16:39:49Z</time></trkpt><trkpt lat="43.515472635247036" lon="1.596519751760502"><ele>213.0</ele><time>2026-03-22T16:39:50Z</time></trkpt><trkpt lat="43.51566861287825" lon="1.5962847699252978"><ele>213.0</ele><time>2026-03-22T16:39:51Z</time></trkpt><trkpt lat="43.51587327684327" lon="1.5960501763960535"><ele>213.0</ele><time>2026-03-22T16:39:52Z</time></trkpt><trkpt lat="43.51606955550232" lon="1.5958271412737033"><ele>213.5</ele><time>2026-03-22T16:39:53Z</time></trkpt><trkpt lat="43.51626518065939" lon="1.5955992113503308"><ele>214.0</ele><time>2026-03-22T16:39:54Z</time></trkpt><trkpt lat="43.51646415488909" lon="1.595379422221966"><ele>213.0</ele><time>2026-03-22T16:39:55Z</time></trkpt><trkpt lat="43.516673878391146" lon="1.5951395954417937"><ele>212.0</ele><time>2026-03-22T16:39:56Z</time></trkpt><trkpt lat="43.51688119027787" lon="1.5949019087245633"><ele>214.0</ele><time>2026-03-22T16:39:57Z</time></trkpt><trkpt lat="43.51710246448598" lon="1.5946434745639884"><ele>216.0</ele><time>2026-03-22T16:39:58Z</time></trkpt><trkpt lat="43.51732790050175" lon="1.5943796466117004"><ele>216.0</ele><time>2026-03-22T16:39:59Z</time></trkpt><trkpt lat="43.517532923501165" lon="1.5941487128870429"><ele>216.0</ele><time>2026-03-22T16:40:00Z</time></trkpt><trkpt lat="43.51772551626985" lon="1.5939314144990748"><ele>218.5</ele><time>2026-03-22T16:40:01Z</time></trkpt><trkpt lat="43.5179168202903" lon="1.5937128641649585"><ele>221.0</ele><time>2026-03-22T16:40:02Z</time></trkpt><trkpt lat="43.5181108647495" lon="1.593485896619001"><ele>221.0</ele><time>2026-03-22T16:40:03Z</time></trkpt><trkpt lat="43.5183010663916" lon="1.5932675501139124"><ele>221.0</ele><time>2026-03-22T16:40:04Z</time></trkpt><trkpt lat="43.51848711585646" lon="1.5930526455898932"><ele>221.0</ele><time>2026-03-22T16:40:05Z</time></trkpt><trkpt lat="43.51866541300175" lon="1.5928527180043008"><ele>221.0</ele><time>2026-03-22T16:40:06Z</time></trkpt><trkpt lat="43.51883270825222" lon="1.592661085850012"><ele>221.0</ele><time>2026-03-22T16:40:07Z</time></trkpt><trkpt lat="43.51899779486752" lon="1.5924681569729933"><ele>220.66666666666669</ele><time>2026-03-22T16:40:08Z</time></trkpt><trkpt lat="43.519162170977744" lon="1.5922736593739877"><ele>220.33333333333331</ele><time>2026-03-22T16:40:09Z</time></trkpt><trkpt lat="43.5193333802641" lon="1.5920807378148756"><ele>220.0</ele><time>2026-03-22T16:40:10Z</time></trkpt><trkpt lat="43.5195002719046" lon="1.59188778717066"><ele>222.66666666666666</ele><time>2026-03-22T16:40:11Z</time></trkpt><trkpt lat="43.51967163246513" lon="1.591695702546024"><ele>225.33333333333331</ele><time>2026-03-22T16:40:12Z</time></trkpt><trkpt lat="43.519833546480854" lon="1.5915136465621162"><ele>228.0</ele><time>2026-03-22T16:40:13Z</time></trkpt><trkpt lat="43.51998584360706" lon="1.591339659388357"><ele>228.0</ele><time>2026-03-22T16:40:13.999Z</time></trkpt><trkpt lat="43.5201245142933" lon="1.591178617907906"><ele>228.0</ele><time>2026-03-22T16:40:14.999Z</time></trkpt><trkpt lat="43.5202639932857" lon="1.5910110378126474"><ele>228.0</ele><time>2026-03-22T16:40:15.999Z</time></trkpt><trkpt lat="43.52040730414499" lon="1.5908486177861911"><ele>229.0</ele><time>2026-03-22T16:40:16.999Z</time></trkpt><trkpt lat="43.52054911136466" lon="1.5906862350500555"><ele>230.0</ele><time>2026-03-22T16:40:17.999Z</time></trkpt><trkpt lat="43.52068764065466" lon="1.5905290815964435"><ele>231.0</ele><time>2026-03-22T16:40:18.999Z</time></trkpt><trkpt lat="43.52082148537311" lon="1.5903758720054297"><ele>230.0</ele><time>2026-03-22T16:40:19.999Z</time></trkpt><trkpt lat="43.52095146064355" lon="1.590220423503135"><ele>229.0</ele><time>2026-03-22T16:40:20.999Z</time></trkpt><trkpt lat="43.521074423988864" lon="1.5900776188047274"><ele>228.0</ele><time>2026-03-22T16:40:21.999Z</time></trkpt><trkpt lat="43.52119216170332" lon="1.5899528867256176"><ele>227.75</ele><time>2026-03-22T16:40:22.999Z</time></trkpt><trkpt lat="43.521299551190324" lon="1.589826011312495"><ele>227.5</ele><time>2026-03-22T16:40:23.999Z</time></trkpt><trkpt lat="43.521405455187676" lon="1.589704800053701"><ele>227.25</ele><time>2026-03-22T16:40:24.999Z</time></trkpt><trkpt lat="43.52151451650367" lon="1.58957490255948"><ele>227.0</ele><time>2026-03-22T16:40:25.999Z</time></trkpt><trkpt lat="43.52163716828557" lon="1.5894270736036398"><ele>227.0</ele><time>2026-03-22T16:40:26.999Z</time></trkpt><trkpt lat="43.52175461774066" lon="1.5893035218923646"><ele>227.0</ele><time>2026-03-22T16:40:27.999Z</time></trkpt><trkpt lat="43.52186372304291" lon="1.5891844969266609"><ele>227.0</ele><time>2026-03-22T16:40:28.999Z</time></trkpt><trkpt lat="43.521969746810434" lon="1.5890600676614568"><ele>227.0</ele><time>2026-03-22T16:40:29.999Z</time></trkpt><trkpt lat="43.52209064555275" lon="1.5889079418485437"><ele>228.0</ele><time>2026-03-22T16:40:30.999Z</time></trkpt><trkpt lat="43.52221031631771" lon="1.5887598672237004"><ele>229.0</ele><time>2026-03-22T16:40:31.999Z</time></trkpt><trkpt lat="43.522327340520455" lon="1.5886237224346513"><ele>230.0</ele><time>2026-03-22T16:40:32.999Z</time></trkpt><trkpt lat="43.52243471824398" lon="1.588493736711355"><ele>230.0</ele><time>2026-03-22T16:40:33.999Z</time></trkpt><trkpt lat="43.52254714781866" lon="1.5883657404208968"><ele>230.0</ele><time>2026-03-22T16:40:34.999Z</time></trkpt><trkpt lat="43.52266549779997" lon="1.5882293914182963"><ele>230.0</ele><time>2026-03-22T16:40:35.999Z</time></trkpt><trkpt lat="43.52278527772208" lon="1.5880863996690506"><ele>230.0</ele><time>2026-03-22T16:40:36.999Z</time></trkpt><trkpt lat="43.522907778467314" lon="1.5879516676023093"><ele>230.0</ele><time>2026-03-22T16:40:37.999Z</time></trkpt><trkpt lat="43.52302320413353" lon="1.5878072312726963"><ele>230.0</ele><time>2026-03-22T16:40:38.999Z</time></trkpt><trkpt lat="43.52315762993166" lon="1.5876586594712574"><ele>230.0</ele><time>2026-03-22T16:40:39.999Z</time></trkpt><trkpt lat="43.523301687876454" lon="1.5875026080895265"><ele>230.0</ele><time>2026-03-22T16:40:40.999Z</time></trkpt><trkpt lat="43.52341520631877" lon="1.5873515504176088"><ele>230.0</ele><time>2026-03-22T16:40:41.999Z</time></trkpt><trkpt lat="43.523529038848295" lon="1.5872232507797148"><ele>230.0</ele><time>2026-03-22T16:40:42.999Z</time></trkpt><trkpt lat="43.523638645159686" lon="1.5870964958357652"><ele>230.0</ele><time>2026-03-22T16:40:43.999Z</time></trkpt><trkpt lat="43.52374696330827" lon="1.586969489385389"><ele>230.0</ele><time>2026-03-22T16:40:44.999Z</time></trkpt><trkpt lat="43.52386249167981" lon="1.5868434871594885"><ele>230.0</ele><time>2026-03-22T16:40:45.999Z</time></trkpt><trkpt lat="43.5239771608203" lon="1.586714006599572"><ele>230.0</ele><time>2026-03-22T16:40:46.999Z</time></trkpt><trkpt lat="43.52409576275429" lon="1.5865806095105779"><ele>230.0</ele><time>2026-03-22T16:40:47.999Z</time></trkpt><trkpt lat="43.52421392945817" lon="1.5864424951927325"><ele>230.0</ele><time>2026-03-22T16:40:48.999Z</time></trkpt><trkpt lat="43.524334215192326" lon="1.5863026141259793"><ele>229.66666666666669</ele><time>2026-03-22T16:40:49.999Z</time></trkpt><trkpt lat="43.52446409526614" lon="1.5861466339581984"><ele>229.33333333333331</ele><time>2026-03-22T16:40:50.999Z</time></trkpt><trkpt lat="43.52461135916369" lon="1.585983352729848"><ele>229.0</ele><time>2026-03-22T16:40:51.999Z</time></trkpt><trkpt lat="43.524764016310655" lon="1.5858149015752563"><ele>229.33333333333331</ele><time>2026-03-22T16:40:52.999Z</time></trkpt><trkpt lat="43.52491975806992" lon="1.5856407999935136"><ele>229.66666666666669</ele><time>2026-03-22T16:40:53.999Z</time></trkpt><trkpt lat="43.52508145020148" lon="1.585462206324278"><ele>230.0</ele><time>2026-03-22T16:40:54.999Z</time></trkpt><trkpt lat="43.52524969529287" lon="1.5852654878651216"><ele>232.5</ele><time>2026-03-22T16:40:55.999Z</time></trkpt><trkpt lat="43.52543777688373" lon="1.5850379791942588"><ele>235.0</ele><time>2026-03-22T16:40:56.999Z</time></trkpt><trkpt lat="43.525634033601925" lon="1.584817349121701"><ele>235.0</ele><time>2026-03-22T16:40:57.999Z</time></trkpt><trkpt lat="43.525836974313464" lon="1.5845825632012867"><ele>235.0</ele><time>2026-03-22T16:40:58.999Z</time></trkpt><trkpt lat="43.526027669092684" lon="1.5843614338669858"><ele>234.0</ele><time>2026-03-22T16:41:00Z</time></trkpt><trkpt lat="43.52622428864999" lon="1.5841344794868282"><ele>233.0</ele><time>2026-03-22T16:41:01Z</time></trkpt><trkpt lat="43.52643119227868" lon="1.5838968595401965"><ele>231.5</ele><time>2026-03-22T16:41:02Z</time></trkpt><trkpt lat="43.52664517314307" lon="1.58364651949442"><ele>230.0</ele><time>2026-03-22T16:41:03Z</time></trkpt><trkpt lat="43.52684200973898" lon="1.5834200165468355"><ele>230.0</ele><time>2026-03-22T16:41:04Z</time></trkpt><trkpt lat="43.52704522171226" lon="1.5831981982096872"><ele>230.0</ele><time>2026-03-22T16:41:05Z</time></trkpt><trkpt lat="43.52724433026963" lon="1.5829772188092126"><ele>230.5</ele><time>2026-03-22T16:41:06Z</time></trkpt><trkpt lat="43.52743651270494" lon="1.5827521583751742"><ele>231.0</ele><time>2026-03-22T16:41:07Z</time></trkpt><trkpt lat="43.52762518275514" lon="1.5825453636924534"><ele>231.0</ele><time>2026-03-22T16:41:08Z</time></trkpt><trkpt lat="43.52781077268901" lon="1.582334429844176"><ele>231.0</ele><time>2026-03-22T16:41:09Z</time></trkpt><trkpt lat="43.52799689383689" lon="1.5821275585137287"><ele>232.0</ele><time>2026-03-22T16:41:10Z</time></trkpt><trkpt lat="43.52817583663553" lon="1.5819198206439795"><ele>233.0</ele><time>2026-03-22T16:41:11Z</time></trkpt><trkpt lat="43.528353926690905" lon="1.5817175983871217"><ele>233.0</ele><time>2026-03-22T16:41:12Z</time></trkpt><trkpt lat="43.52852627273238" lon="1.5815198651659805"><ele>233.0</ele><time>2026-03-22T16:41:13Z</time></trkpt><trkpt lat="43.528699620995425" lon="1.5813249654407306"><ele>233.0</ele><time>2026-03-22T16:41:14Z</time></trkpt><trkpt lat="43.528869024467916" lon="1.5811343592630147"><ele>233.0</ele><time>2026-03-22T16:41:15Z</time></trkpt><trkpt lat="43.529039677639396" lon="1.5809406211899601"><ele>233.0</ele><time>2026-03-22T16:41:16Z</time></trkpt><trkpt lat="43.52922124191328" lon="1.5807326918223439"><ele>233.0</ele><time>2026-03-22T16:41:17Z</time></trkpt><trkpt lat="43.529410109715116" lon="1.5805204243656288"><ele>233.0</ele><time>2026-03-22T16:41:18Z</time></trkpt><trkpt lat="43.52959029053127" lon="1.5803057528405366"><ele>232.33333333333334</ele><time>2026-03-22T16:41:19Z</time></trkpt><trkpt lat="43.529754308803625" lon="1.580102472765489"><ele>231.66666666666669</ele><time>2026-03-22T16:41:20Z</time></trkpt><trkpt lat="43.529898555924866" lon="1.5798994005761595"><ele>231.0</ele><time>2026-03-22T16:41:21Z</time></trkpt><trkpt lat="43.53003394402261" lon="1.5796547556640794"><ele>228.5</ele><time>2026-03-22T16:41:22Z</time></trkpt><trkpt lat="43.530174005273025" lon="1.5793581889265238"><ele>226.0</ele><time>2026-03-22T16:41:23Z</time></trkpt><trkpt lat="43.53031820790229" lon="1.579047563303248"><ele>227.0</ele><time>2026-03-22T16:41:24Z</time></trkpt><trkpt lat="43.53046562174824" lon="1.5787403413681695"><ele>228.0</ele><time>2026-03-22T16:41:25Z</time></trkpt><trkpt lat="43.530594788390296" lon="1.5784561898867526"><ele>228.0</ele><time>2026-03-22T16:41:26Z</time></trkpt><trkpt lat="43.530736360686824" lon="1.5781434145106101"><ele>228.0</ele><time>2026-03-22T16:41:27Z</time></trkpt><trkpt lat="43.53087412284756" lon="1.5778353923944288"><ele>227.0</ele><time>2026-03-22T16:41:28Z</time></trkpt><trkpt lat="43.53100760161105" lon="1.5775279017543182"><ele>226.0</ele><time>2026-03-22T16:41:29Z</time></trkpt><trkpt lat="43.53113477077398" lon="1.5772096846157204"><ele>226.0</ele><time>2026-03-22T16:41:30Z</time></trkpt><trkpt lat="43.53125650720435" lon="1.5768496612864054"><ele>226.0</ele><time>2026-03-22T16:41:31Z</time></trkpt><trkpt lat="43.53136877366899" lon="1.5764575804514551"><ele>224.5</ele><time>2026-03-22T16:41:32Z</time></trkpt><trkpt lat="43.53146941338039" lon="1.5760944385690792"><ele>223.0</ele><time>2026-03-22T16:41:33Z</time></trkpt><trkpt lat="43.53156937692001" lon="1.5757385393857897"><ele>223.0</ele><time>2026-03-22T16:41:34Z</time></trkpt><trkpt lat="43.53166803169991" lon="1.5753859251957283"><ele>223.0</ele><time>2026-03-22T16:41:35Z</time></trkpt><trkpt lat="43.53177007118781" lon="1.5750378588865945"><ele>221.5</ele><time>2026-03-22T16:41:36Z</time></trkpt><trkpt lat="43.53186828407013" lon="1.5746881685410201"><ele>220.0</ele><time>2026-03-22T16:41:37Z</time></trkpt><trkpt lat="43.531959280514364" lon="1.5743649617888933"><ele>220.0</ele><time>2026-03-22T16:41:38Z</time></trkpt><trkpt lat="43.53204675992347" lon="1.574060904088909"><ele>220.0</ele><time>2026-03-22T16:41:39Z</time></trkpt><trkpt lat="43.53212899911573" lon="1.5737741116789912"><ele>221.5</ele><time>2026-03-22T16:41:40Z</time></trkpt><trkpt lat="43.53220869717202" lon="1.573487988842698"><ele>223.0</ele><time>2026-03-22T16:41:41Z</time></trkpt><trkpt lat="43.532290032584015" lon="1.5731926218586716"><ele>223.0</ele><time>2026-03-22T16:41:42Z</time></trkpt><trkpt lat="43.532372598188395" lon="1.5728999679183495"><ele>223.0</ele><time>2026-03-22T16:41:43Z</time></trkpt><trkpt lat="43.53244939957153" lon="1.5725990938489987"><ele>222.5</ele><time>2026-03-22T16:41:44Z</time></trkpt><trkpt lat="43.53253115836472" lon="1.5722895421590797"><ele>222.0</ele><time>2026-03-22T16:41:45Z</time></trkpt><trkpt lat="43.53261569059396" lon="1.5719832778803795"><ele>221.0</ele><time>2026-03-22T16:41:46Z</time></trkpt><trkpt lat="43.53270317046927" lon="1.5716669441491788"><ele>220.0</ele><time>2026-03-22T16:41:47Z</time></trkpt><trkpt lat="43.53278896327336" lon="1.57135350447368"><ele>219.0</ele><time>2026-03-22T16:41:48Z</time></trkpt><trkpt lat="43.53286768741045" lon="1.5710436556405372"><ele>218.0</ele><time>2026-03-22T16:41:49Z</time></trkpt><trkpt lat="43.53295205763137" lon="1.570718476400304"><ele>218.0</ele><time>2026-03-22T16:41:50Z</time></trkpt><trkpt lat="43.533034596544454" lon="1.570415508218976"><ele>218.0</ele><time>2026-03-22T16:41:51Z</time></trkpt><trkpt lat="43.53310178737057" lon="1.5701559615074572"><ele>218.0</ele><time>2026-03-22T16:41:52Z</time></trkpt><trkpt lat="43.53317595046193" lon="1.5698955401589423"><ele>217.0</ele><time>2026-03-22T16:41:53Z</time></trkpt><trkpt lat="43.533260291869155" lon="1.569598929116156"><ele>216.0</ele><time>2026-03-22T16:41:54Z</time></trkpt><trkpt lat="43.53333736681893" lon="1.569313298427694"><ele>215.0</ele><time>2026-03-22T16:41:55Z</time></trkpt><trkpt lat="43.53342052932628" lon="1.5690520303675357"><ele>214.0</ele><time>2026-03-22T16:41:56Z</time></trkpt><trkpt lat="43.533495045779276" lon="1.5688134984253137"><ele>213.0</ele><time>2026-03-22T16:41:57Z</time></trkpt><trkpt lat="43.53356118611486" lon="1.5685891048511018"><ele>213.0</ele><time>2026-03-22T16:41:58Z</time></trkpt><trkpt lat="43.53361449397406" lon="1.5683858591474853"><ele>213.0</ele><time>2026-03-22T16:41:59Z</time></trkpt><trkpt lat="43.53366606329214" lon="1.5681945849664107"><ele>213.0</ele><time>2026-03-22T16:42:00Z</time></trkpt><trkpt lat="43.5337093856511" lon="1.5680197097394337"><ele>213.0</ele><time>2026-03-22T16:42:01Z</time></trkpt><trkpt lat="43.53375361398413" lon="1.5678498934070422"><ele>213.0</ele><time>2026-03-22T16:42:02Z</time></trkpt><trkpt lat="43.53379777895392" lon="1.567682176643866"><ele>213.0</ele><time>2026-03-22T16:42:03Z</time></trkpt><trkpt lat="43.533841470626115" lon="1.5675204194913646"><ele>213.0</ele><time>2026-03-22T16:42:04Z</time></trkpt><trkpt lat="43.533891006070085" lon="1.5673508106690635"><ele>213.0</ele><time>2026-03-22T16:42:05Z</time></trkpt><trkpt lat="43.53393566492298" lon="1.5671682839940888"><ele>213.0</ele><time>2026-03-22T16:42:06Z</time></trkpt><trkpt lat="43.53398919115937" lon="1.5669744079418422"><ele>213.0</ele><time>2026-03-22T16:42:07Z</time></trkpt><trkpt lat="43.53404607098166" lon="1.5667601270862417"><ele>213.0</ele><time>2026-03-22T16:42:08Z</time></trkpt><trkpt lat="43.53410429626122" lon="1.566548732118755"><ele>213.0</ele><time>2026-03-22T16:42:09Z</time></trkpt><trkpt lat="43.53417007582932" lon="1.5663080131009022"><ele>213.0</ele><time>2026-03-22T16:42:10Z</time></trkpt><trkpt lat="43.53423467438866" lon="1.5660701675769393"><ele>213.0</ele><time>2026-03-22T16:42:11Z</time></trkpt><trkpt lat="43.53430067201866" lon="1.5658278043742833"><ele>214.0</ele><time>2026-03-22T16:42:12Z</time></trkpt><trkpt lat="43.53436515929439" lon="1.5656013902449881"><ele>215.0</ele><time>2026-03-22T16:42:13Z</time></trkpt><trkpt lat="43.534422377715835" lon="1.5653896769650808"><ele>216.0</ele><time>2026-03-22T16:42:14Z</time></trkpt><trkpt lat="43.53447548991209" lon="1.5651723773006836"><ele>216.66666666666669</ele><time>2026-03-22T16:42:15Z</time></trkpt><trkpt lat="43.53453574989364" lon="1.5649601424440533"><ele>217.33333333333334</ele><time>2026-03-22T16:42:16Z</time></trkpt><trkpt lat="43.53458850318789" lon="1.5647581572689493"><ele>218.0</ele><time>2026-03-22T16:42:17Z</time></trkpt><trkpt lat="43.53464407116384" lon="1.564543724069117"><ele>215.33333333333334</ele><time>2026-03-22T16:42:18Z</time></trkpt><trkpt lat="43.53469679816783" lon="1.56433324101921"><ele>212.66666666666669</ele><time>2026-03-22T16:42:19Z</time></trkpt><trkpt lat="43.53475978603802" lon="1.5641208328508949"><ele>210.0</ele><time>2026-03-22T16:42:20Z</time></trkpt><trkpt lat="43.53481959472183" lon="1.5639016854298247"><ele>210.33333333333331</ele><time>2026-03-22T16:42:21Z</time></trkpt><trkpt lat="43.534878260436884" lon="1.5636848212854466"><ele>210.66666666666666</ele><time>2026-03-22T16:42:22Z</time></trkpt><trkpt lat="43.53493906362438" lon="1.5634664767454765"><ele>211.0</ele><time>2026-03-22T16:42:22.999Z</time></trkpt><trkpt lat="43.53499400456824" lon="1.5632562210564405"><ele>211.0</ele><time>2026-03-22T16:42:23.999Z</time></trkpt><trkpt lat="43.535054805149684" lon="1.5630427034512286"><ele>211.0</ele><time>2026-03-22T16:42:24.999Z</time></trkpt><trkpt lat="43.53511044961554" lon="1.5628319009969078"><ele>211.0</ele><time>2026-03-22T16:42:25.999Z</time></trkpt><trkpt lat="43.5351701811819" lon="1.5626085015282156"><ele>211.0</ele><time>2026-03-22T16:42:26.999Z</time></trkpt><trkpt lat="43.53523696641665" lon="1.562384813375029"><ele>211.0</ele><time>2026-03-22T16:42:27.999Z</time></trkpt><trkpt lat="43.53529567337868" lon="1.5621634609199675"><ele>211.0</ele><time>2026-03-22T16:42:28.999Z</time></trkpt><trkpt lat="43.53536270569449" lon="1.561935659312276"><ele>208.33333333333331</ele><time>2026-03-22T16:42:29.999Z</time></trkpt><trkpt lat="43.53542304863033" lon="1.5617056367011362"><ele>205.66666666666669</ele><time>2026-03-22T16:42:30.999Z</time></trkpt><trkpt lat="43.53549267846162" lon="1.5614694891004377"><ele>203.0</ele><time>2026-03-22T16:42:31.999Z</time></trkpt><trkpt lat="43.53555416259572" lon="1.5612489725149687"><ele>203.0</ele><time>2026-03-22T16:42:32.999Z</time></trkpt><trkpt lat="43.53561502295347" lon="1.5610453629013599"><ele>203.0</ele><time>2026-03-22T16:42:33.999Z</time></trkpt><trkpt lat="43.535679772158865" lon="1.5608245039122188"><ele>203.0</ele><time>2026-03-22T16:42:34.999Z</time></trkpt><trkpt lat="43.53574529010694" lon="1.56059759082815"><ele>203.0</ele><time>2026-03-22T16:42:35.999Z</time></trkpt><trkpt lat="43.53580726099962" lon="1.5603728578931844"><ele>203.0</ele><time>2026-03-22T16:42:36.999Z</time></trkpt><trkpt lat="43.53586965424849" lon="1.5601366330681161"><ele>203.0</ele><time>2026-03-22T16:42:37.999Z</time></trkpt><trkpt lat="43.53593211852141" lon="1.55990792249068"><ele>203.33333333333334</ele><time>2026-03-22T16:42:38.999Z</time></trkpt><trkpt lat="43.53599162824177" lon="1.5596957129668352"><ele>203.66666666666669</ele><time>2026-03-22T16:42:39.999Z</time></trkpt><trkpt lat="43.536051919578014" lon="1.5594858879344269"><ele>204.0</ele><time>2026-03-22T16:42:40.999Z</time></trkpt><trkpt lat="43.53610831793848" lon="1.5592931406349688"><ele>204.0</ele><time>2026-03-22T16:42:41.999Z</time></trkpt><trkpt lat="43.53616659442119" lon="1.5591160629855287"><ele>204.0</ele><time>2026-03-22T16:42:42.999Z</time></trkpt><trkpt lat="43.53621886606113" lon="1.5589486765222704"><ele>204.0</ele><time>2026-03-22T16:42:43.999Z</time></trkpt><trkpt lat="43.536267354894946" lon="1.5587891252889319"><ele>204.0</ele><time>2026-03-22T16:42:44.999Z</time></trkpt><trkpt lat="43.536301274341255" lon="1.5586449979363382"><ele>202.6</ele><time>2026-03-22T16:42:45.999Z</time></trkpt><trkpt lat="43.53632890109481" lon="1.5585234124841862"><ele>201.2</ele><time>2026-03-22T16:42:46.999Z</time></trkpt><trkpt lat="43.5363629380498" lon="1.55844298202403"><ele>199.79999999999998</ele><time>2026-03-22T16:42:47.999Z</time></trkpt><trkpt lat="43.536383405067646" lon="1.558358255073602"><ele>198.39999999999998</ele><time>2026-03-22T16:42:48.999Z</time></trkpt><trkpt lat="43.53656249296186" lon="1.558453274038353"><ele>197.0</ele><time>2026-03-22T16:42:50.999Z</time></trkpt><trkpt lat="43.53662455052022" lon="1.5585574340679582"><ele>197.0</ele><time>2026-03-22T16:42:51.999Z</time></trkpt><trkpt lat="43.53669001866774" lon="1.5587013731873676"><ele>197.0</ele><time>2026-03-22T16:42:52.999Z</time></trkpt><trkpt lat="43.53675016640805" lon="1.5588328597541938"><ele>197.0</ele><time>2026-03-22T16:42:53.999Z</time></trkpt><trkpt lat="43.53681567269296" lon="1.5589761838594958"><ele>197.0</ele><time>2026-03-22T16:42:54.999Z</time></trkpt><trkpt lat="43.53688511699951" lon="1.559121119833976"><ele>197.0</ele><time>2026-03-22T16:42:55.999Z</time></trkpt><trkpt lat="43.5369725344799" lon="1.5592926085295815"><ele>197.0</ele><time>2026-03-22T16:42:56.999Z</time></trkpt><trkpt lat="43.537091394460475" lon="1.5594673122392004"><ele>197.0</ele><time>2026-03-22T16:42:57.999Z</time></trkpt><trkpt lat="43.53723741595805" lon="1.5596234751237485"><ele>196.0</ele><time>2026-03-22T16:42:58.999Z</time></trkpt><trkpt lat="43.53739084120552" lon="1.5597716289563823"><ele>195.0</ele><time>2026-03-22T16:42:59.999Z</time></trkpt><trkpt lat="43.537543554631995" lon="1.5599361972477006"><ele>194.0</ele><time>2026-03-22T16:43:00.999Z</time></trkpt><trkpt lat="43.53768627514157" lon="1.56008780225747"><ele>194.0</ele><time>2026-03-22T16:43:01.999Z</time></trkpt><trkpt lat="43.537804191881925" lon="1.5602216129912865"><ele>194.0</ele><time>2026-03-22T16:43:02.999Z</time></trkpt><trkpt lat="43.537923830833286" lon="1.560351881781295"><ele>194.0</ele><time>2026-03-22T16:43:03.999Z</time></trkpt><trkpt lat="43.53802993721379" lon="1.5604663595136705"><ele>194.0</ele><time>2026-03-22T16:43:04.999Z</time></trkpt><trkpt lat="43.53812134217386" lon="1.5605733901538905"><ele>193.66666666666669</ele><time>2026-03-22T16:43:06Z</time></trkpt><trkpt lat="43.538183779830135" lon="1.5606946322800284"><ele>193.33333333333334</ele><time>2026-03-22T16:43:07Z</time></trkpt><trkpt lat="43.538245050611415" lon="1.5607966877577728"><ele>193.0</ele><time>2026-03-22T16:43:08Z</time></trkpt><trkpt lat="43.53830156039522" lon="1.560878688923058"><ele>192.66666666666669</ele><time>2026-03-22T16:43:09Z</time></trkpt><trkpt lat="43.538345297037594" lon="1.5609571600409649"><ele>192.33333333333334</ele><time>2026-03-22T16:43:10Z</time></trkpt><trkpt lat="43.538385482338036" lon="1.56103317332577"><ele>192.0</ele><time>2026-03-22T16:43:11Z</time></trkpt><trkpt lat="43.53842164739706" lon="1.5611163257348237"><ele>192.0</ele><time>2026-03-22T16:43:12Z</time></trkpt><trkpt lat="43.538475912653404" lon="1.5612000954574314"><ele>192.0</ele><time>2026-03-22T16:43:13Z</time></trkpt><trkpt lat="43.53852281379672" lon="1.561268701098043"><ele>192.0</ele><time>2026-03-22T16:43:14Z</time></trkpt><trkpt lat="43.53857360632908" lon="1.5613380507735577"><ele>192.0</ele><time>2026-03-22T16:43:15Z</time></trkpt><trkpt lat="43.53861852230624" lon="1.5614123876958172"><ele>192.0</ele><time>2026-03-22T16:43:16Z</time></trkpt><trkpt lat="43.53867925271567" lon="1.5615172301357645"><ele>192.0</ele><time>2026-03-22T16:43:17Z</time></trkpt><trkpt lat="43.53874319565396" lon="1.5616378338475045"><ele>192.0</ele><time>2026-03-22T16:43:18Z</time></trkpt><trkpt lat="43.538818945694274" lon="1.561783342047881"><ele>192.0</ele><time>2026-03-22T16:43:19Z</time></trkpt><trkpt lat="43.53890838647782" lon="1.5619362709308777"><ele>192.0</ele><time>2026-03-22T16:43:20Z</time></trkpt><trkpt lat="43.539010097718666" lon="1.562126744215096"><ele>192.0</ele><time>2026-03-22T16:43:21Z</time></trkpt><trkpt lat="43.53914262617701" lon="1.5623446563571777"><ele>192.0</ele><time>2026-03-22T16:43:22Z</time></trkpt><trkpt lat="43.53927887550469" lon="1.562566523841875"><ele>192.0</ele><time>2026-03-22T16:43:23Z</time></trkpt><trkpt lat="43.539395674077966" lon="1.5627672225517577"><ele>192.0</ele><time>2026-03-22T16:43:24Z</time></trkpt><trkpt lat="43.53950913959381" lon="1.562967000684024"><ele>191.66666666666666</ele><time>2026-03-22T16:43:25Z</time></trkpt><trkpt lat="43.539618167992636" lon="1.5631599773983085"><ele>191.33333333333331</ele><time>2026-03-22T16:43:26Z</time></trkpt><trkpt lat="43.53974358215817" lon="1.5633548971086833"><ele>191.0</ele><time>2026-03-22T16:43:27Z</time></trkpt><trkpt lat="43.53985393349745" lon="1.5635622303554533"><ele>191.33333333333331</ele><time>2026-03-22T16:43:28Z</time></trkpt><trkpt lat="43.53997310551452" lon="1.5637788256158252"><ele>191.66666666666666</ele><time>2026-03-22T16:43:29Z</time></trkpt><trkpt lat="43.540107763757085" lon="1.564005206394648"><ele>192.0</ele><time>2026-03-22T16:43:30Z</time></trkpt><trkpt lat="43.54022191271261" lon="1.5642366530533873"><ele>192.0</ele><time>2026-03-22T16:43:31Z</time></trkpt><trkpt lat="43.540328513142306" lon="1.564442048796556"><ele>192.0</ele><time>2026-03-22T16:43:32Z</time></trkpt><trkpt lat="43.54044254858671" lon="1.5646402467278056"><ele>192.0</ele><time>2026-03-22T16:43:33Z</time></trkpt><trkpt lat="43.54054246856041" lon="1.5648215783753092"><ele>192.0</ele><time>2026-03-22T16:43:34Z</time></trkpt><trkpt lat="43.54065114299755" lon="1.5649917060151233"><ele>192.0</ele><time>2026-03-22T16:43:35Z</time></trkpt><trkpt lat="43.54075332650858" lon="1.5651667493942203"><ele>192.0</ele><time>2026-03-22T16:43:36Z</time></trkpt><trkpt lat="43.5408640657228" lon="1.5653532565667847"><ele>193.25</ele><time>2026-03-22T16:43:37Z</time></trkpt><trkpt lat="43.540966962955245" lon="1.5655211564964295"><ele>194.5</ele><time>2026-03-22T16:43:38Z</time></trkpt><trkpt lat="43.541060653330256" lon="1.5656677355732191"><ele>195.75</ele><time>2026-03-22T16:43:39Z</time></trkpt><trkpt lat="43.54115011082408" lon="1.5657992504379956"><ele>197.0</ele><time>2026-03-22T16:43:40Z</time></trkpt><trkpt lat="43.541227028139076" lon="1.5659095946814863"><ele>197.6</ele><time>2026-03-22T16:43:41Z</time></trkpt><trkpt lat="43.54130161219992" lon="1.5660301979398594"><ele>198.2</ele><time>2026-03-22T16:43:42Z</time></trkpt><trkpt lat="43.54136409515549" lon="1.5661362228463003"><ele>198.8</ele><time>2026-03-22T16:43:43Z</time></trkpt><trkpt lat="43.541425527134685" lon="1.5662258696513593"><ele>199.4</ele><time>2026-03-22T16:43:44Z</time></trkpt><trkpt lat="43.54147541099634" lon="1.566288979353156"><ele>200.0</ele><time>2026-03-22T16:43:45Z</time></trkpt><trkpt lat="43.541573548128106" lon="1.5663794096343546"><ele>200.4</ele><time>2026-03-22T16:43:47Z</time></trkpt><trkpt lat="43.541661010755426" lon="1.5664149725971015"><ele>200.8</ele><time>2026-03-22T16:43:49Z</time></trkpt><trkpt lat="43.54176085720408" lon="1.5664468092919015"><ele>201.2</ele><time>2026-03-22T16:43:51Z</time></trkpt><trkpt lat="43.541872094344775" lon="1.5664604714702626"><ele>201.6</ele><time>2026-03-22T16:43:53Z</time></trkpt><trkpt lat="43.541999755625575" lon="1.5664972697817956"><ele>202.0</ele><time>2026-03-22T16:43:55Z</time></trkpt><trkpt lat="43.54209405516689" lon="1.5665254437195206"><ele>200.99999999999997</ele><time>2026-03-22T16:43:57Z</time></trkpt><trkpt lat="43.54219126034123" lon="1.5664796663369898"><ele>200.0</ele><time>2026-03-22T16:43:59Z</time></trkpt><trkpt lat="43.54222972655224" lon="1.5664074709097435"><ele>199.0</ele><time>2026-03-22T16:44:00Z</time></trkpt><trkpt lat="43.542259969295564" lon="1.566313006399106"><ele>198.0</ele><time>2026-03-22T16:44:01Z</time></trkpt><trkpt lat="43.54230196400757" lon="1.5662244994485042"><ele>196.99999999999997</ele><time>2026-03-22T16:44:02Z</time></trkpt><trkpt lat="43.54236618695889" lon="1.5661458472004446"><ele>196.0</ele><time>2026-03-22T16:44:03Z</time></trkpt><trkpt lat="43.54246718660477" lon="1.5660551868614976"><ele>196.0</ele><time>2026-03-22T16:44:04Z</time></trkpt><trkpt lat="43.54261548330595" lon="1.5659635725526302"><ele>196.0</ele><time>2026-03-22T16:44:05Z</time></trkpt><trkpt lat="43.542733580631385" lon="1.565889794826209"><ele>196.0</ele><time>2026-03-22T16:44:06Z</time></trkpt><trkpt lat="43.542832488849655" lon="1.5658303793937458"><ele>196.0</ele><time>2026-03-22T16:44:07Z</time></trkpt><trkpt lat="43.54291845873672" lon="1.5657753783012114"><ele>194.60000000000002</ele><time>2026-03-22T16:44:08Z</time></trkpt><trkpt lat="43.543012663997565" lon="1.565753749260164"><ele>193.2</ele><time>2026-03-22T16:44:09Z</time></trkpt><trkpt lat="43.5431198524299" lon="1.5657722929644715"><ele>191.8</ele><time>2026-03-22T16:44:10Z</time></trkpt><trkpt lat="43.543215570176116" lon="1.5658050893569015"><ele>190.39999999999998</ele><time>2026-03-22T16:44:11Z</time></trkpt><trkpt lat="43.54328843222463" lon="1.5658338180031548"><ele>189.0</ele><time>2026-03-22T16:44:12Z</time></trkpt><trkpt lat="43.54335808557259" lon="1.5658645616112914"><ele>189.0</ele><time>2026-03-22T16:44:13Z</time></trkpt><trkpt lat="43.54347253483696" lon="1.5659123486675512"><ele>189.0</ele><time>2026-03-22T16:44:15Z</time></trkpt><trkpt lat="43.54353833561848" lon="1.5659471582561477"><ele>189.0</ele><time>2026-03-22T16:44:16Z</time></trkpt><trkpt lat="43.54362565351327" lon="1.5659887225066087"><ele>189.0</ele><time>2026-03-22T16:44:17Z</time></trkpt><trkpt lat="43.543738944142824" lon="1.5660271620967643"><ele>189.0</ele><time>2026-03-22T16:44:18Z</time></trkpt><trkpt lat="43.54384177301397" lon="1.566059468608231"><ele>187.5</ele><time>2026-03-22T16:44:19Z</time></trkpt><trkpt lat="43.543968213997836" lon="1.5660961670682123"><ele>186.0</ele><time>2026-03-22T16:44:20Z</time></trkpt><trkpt lat="43.54410640319482" lon="1.5661207630805667"><ele>184.5</ele><time>2026-03-22T16:44:21Z</time></trkpt><trkpt lat="43.54426204284402" lon="1.5661337916175877"><ele>183.0</ele><time>2026-03-22T16:44:22Z</time></trkpt><trkpt lat="43.54440900253285" lon="1.5661146889845674"><ele>183.0</ele><time>2026-03-22T16:44:23Z</time></trkpt><trkpt lat="43.54454304443501" lon="1.5660732336948273"><ele>183.0</ele><time>2026-03-22T16:44:24Z</time></trkpt><trkpt lat="43.54465551870839" lon="1.566012173506617"><ele>183.0</ele><time>2026-03-22T16:44:25Z</time></trkpt><trkpt lat="43.544759904342584" lon="1.5659835167834457"><ele>183.0</ele><time>2026-03-22T16:44:26Z</time></trkpt><trkpt lat="43.544868220835546" lon="1.5660229865976434"><ele>181.0</ele><time>2026-03-22T16:44:27Z</time></trkpt><trkpt lat="43.54500168051101" lon="1.5661211038353862"><ele>179.0</ele><time>2026-03-22T16:44:28Z</time></trkpt><trkpt lat="43.54514365029782" lon="1.5662031859586742"><ele>177.0</ele><time>2026-03-22T16:44:29Z</time></trkpt><trkpt lat="43.545263995499965" lon="1.5662861079610346"><ele>175.0</ele><time>2026-03-22T16:44:30Z</time></trkpt><trkpt lat="43.54537899997672" lon="1.5663574697740485"><ele>173.2</ele><time>2026-03-22T16:44:31Z</time></trkpt><trkpt lat="43.54549009428771" lon="1.5664366900089783"><ele>171.4</ele><time>2026-03-22T16:44:32Z</time></trkpt><trkpt lat="43.545585589204734" lon="1.5665381346176321"><ele>169.60000000000002</ele><time>2026-03-22T16:44:33Z</time></trkpt><trkpt lat="43.545676621271696" lon="1.56661287546405"><ele>167.8</ele><time>2026-03-22T16:44:33.999Z</time></trkpt><trkpt lat="43.54576372556232" lon="1.5666726931246233"><ele>166.0</ele><time>2026-03-22T16:44:34.999Z</time></trkpt><trkpt lat="43.54583434134724" lon="1.5667368617465744"><ele>166.0</ele><time>2026-03-22T16:44:35.999Z</time></trkpt><trkpt lat="43.54588433595043" lon="1.5668007025429798"><ele>166.0</ele><time>2026-03-22T16:44:36.999Z</time></trkpt><trkpt lat="43.54595342912707" lon="1.566932444663233"><ele>166.0</ele><time>2026-03-22T16:44:38.999Z</time></trkpt><trkpt lat="43.54597559020279" lon="1.5670366029476275"><ele>166.0</ele><time>2026-03-22T16:44:39.999Z</time></trkpt><trkpt lat="43.546019025045695" lon="1.5671063442058344"><ele>166.0</ele><time>2026-03-22T16:44:40.999Z</time></trkpt><trkpt lat="43.54613439035173" lon="1.5670815078066311"><ele>166.0</ele><time>2026-03-22T16:44:42.999Z</time></trkpt><trkpt lat="43.546176182747615" lon="1.5670043212568832"><ele>166.0</ele><time>2026-03-22T16:44:43.999Z</time></trkpt><trkpt lat="43.54619065540191" lon="1.5668775533940122"><ele>166.0</ele><time>2026-03-22T16:44:44.999Z</time></trkpt><trkpt lat="43.546210157720175" lon="1.5667416142351582"><ele>166.0</ele><time>2026-03-22T16:44:45.999Z</time></trkpt><trkpt lat="43.546282159291685" lon="1.5666077231647353"><ele>166.0</ele><time>2026-03-22T16:44:46.999Z</time></trkpt><trkpt lat="43.54639586515269" lon="1.5664451874881558"><ele>164.33333333333334</ele><time>2026-03-22T16:44:47.999Z</time></trkpt><trkpt lat="43.54650874986508" lon="1.5662790057604372"><ele>162.66666666666666</ele><time>2026-03-22T16:44:48.999Z</time></trkpt><trkpt lat="43.54661245527211" lon="1.56612833593202"><ele>161.0</ele><time>2026-03-22T16:44:49.999Z</time></trkpt><trkpt lat="43.546712827775835" lon="1.5659786075018638"><ele>161.0</ele><time>2026-03-22T16:44:50.999Z</time></trkpt><trkpt lat="43.54680716851528" lon="1.5658331860199353"><ele>161.0</ele><time>2026-03-22T16:44:51.999Z</time></trkpt><trkpt lat="43.546925654884724" lon="1.5656529327062496"><ele>161.0</ele><time>2026-03-22T16:44:52.999Z</time></trkpt><trkpt lat="43.54705991413934" lon="1.565454562022168"><ele>161.0</ele><time>2026-03-22T16:44:53.999Z</time></trkpt><trkpt lat="43.54717245513948" lon="1.5652948146984353"><ele>161.0</ele><time>2026-03-22T16:44:54.999Z</time></trkpt><trkpt lat="43.54728251434439" lon="1.5651424788161825"><ele>161.0</ele><time>2026-03-22T16:44:55.999Z</time></trkpt><trkpt lat="43.547395938252095" lon="1.564991471638979"><ele>161.0</ele><time>2026-03-22T16:44:56.999Z</time></trkpt><trkpt lat="43.54750521116788" lon="1.564843854258581"><ele>161.0</ele><time>2026-03-22T16:44:57.999Z</time></trkpt><trkpt lat="43.54761451532062" lon="1.5647047417629512"><ele>161.0</ele><time>2026-03-22T16:44:58.999Z</time></trkpt><trkpt lat="43.5477135024607" lon="1.5645756092398617"><ele>161.0</ele><time>2026-03-22T16:44:59.999Z</time></trkpt><trkpt lat="43.54777808204949" lon="1.5644922724349188"><ele>161.16666666666666</ele><time>2026-03-22T16:45:00.999Z</time></trkpt><trkpt lat="43.547851093759334" lon="1.5643943583040696"><ele>161.33333333333331</ele><time>2026-03-22T16:45:01.999Z</time></trkpt><trkpt lat="43.547911845074914" lon="1.5643083856996325"><ele>161.5</ele><time>2026-03-22T16:45:02.999Z</time></trkpt><trkpt lat="43.547963752563064" lon="1.5642396182541318"><ele>161.66666666666666</ele><time>2026-03-22T16:45:03.999Z</time></trkpt><trkpt lat="43.54801922970125" lon="1.5641667703694564"><ele>161.83333333333334</ele><time>2026-03-22T16:45:04.999Z</time></trkpt><trkpt lat="43.54807936725026" lon="1.5640856263603191"><ele>162.0</ele><time>2026-03-22T16:45:05.999Z</time></trkpt><trkpt lat="43.5481552347456" lon="1.5639951459822314"><ele>161.0</ele><time>2026-03-22T16:45:06.999Z</time></trkpt><trkpt lat="43.54824398996736" lon="1.5638794553141646"><ele>160.0</ele><time>2026-03-22T16:45:07.999Z</time></trkpt><trkpt lat="43.548347149027435" lon="1.563737680855682"><ele>159.0</ele><time>2026-03-22T16:45:08.999Z</time></trkpt><trkpt lat="43.548476503105796" lon="1.5635497003280088"><ele>159.0</ele><time>2026-03-22T16:45:09.999Z</time></trkpt><trkpt lat="43.54858980484458" lon="1.563378545121958"><ele>159.0</ele><time>2026-03-22T16:45:10.999Z</time></trkpt><trkpt lat="43.548680044491924" lon="1.563224608472947"><ele>159.0</ele><time>2026-03-22T16:45:12Z</time></trkpt><trkpt lat="43.54879406925398" lon="1.5630146886033378"><ele>158.0</ele><time>2026-03-22T16:45:13Z</time></trkpt><trkpt lat="43.548929261465" lon="1.5627593075473074"><ele>157.0</ele><time>2026-03-22T16:45:14Z</time></trkpt><trkpt lat="43.5490543379778" lon="1.5625286289261853"><ele>156.0</ele><time>2026-03-22T16:45:15Z</time></trkpt><trkpt lat="43.549183457394314" lon="1.5622905710432686"><ele>156.0</ele><time>2026-03-22T16:45:16Z</time></trkpt><trkpt lat="43.549290647118745" lon="1.562094007309049"><ele>156.0</ele><time>2026-03-22T16:45:17Z</time></trkpt><trkpt lat="43.549385001081625" lon="1.561924403023418"><ele>156.0</ele><time>2026-03-22T16:45:18Z</time></trkpt><trkpt lat="43.549474043726356" lon="1.5617608514629995"><ele>155.33333333333334</ele><time>2026-03-22T16:45:19Z</time></trkpt><trkpt lat="43.54956903229289" lon="1.5615861439180474"><ele>154.66666666666669</ele><time>2026-03-22T16:45:20Z</time></trkpt><trkpt lat="43.54966540401865" lon="1.5614100230241053"><ele>154.0</ele><time>2026-03-22T16:45:21Z</time></trkpt><trkpt lat="43.549768121324654" lon="1.561211767374518"><ele>155.0</ele><time>2026-03-22T16:45:22Z</time></trkpt><trkpt lat="43.54988781457874" lon="1.5609914549409623"><ele>156.0</ele><time>2026-03-22T16:45:23Z</time></trkpt><trkpt lat="43.55001597365622" lon="1.5607568657861535"><ele>157.0</ele><time>2026-03-22T16:45:24Z</time></trkpt><trkpt lat="43.55014139125646" lon="1.5605365837188878"><ele>157.0</ele><time>2026-03-22T16:45:25Z</time></trkpt><trkpt lat="43.55029076002927" lon="1.5603150553154324"><ele>157.0</ele><time>2026-03-22T16:45:26Z</time></trkpt><trkpt lat="43.550439289187025" lon="1.5601002588543376"><ele>157.0</ele><time>2026-03-22T16:45:27Z</time></trkpt><trkpt lat="43.550563862454176" lon="1.559914816811175"><ele>156.33333333333334</ele><time>2026-03-22T16:45:28Z</time></trkpt><trkpt lat="43.550684972099404" lon="1.5597522676464501"><ele>155.66666666666666</ele><time>2026-03-22T16:45:29Z</time></trkpt><trkpt lat="43.55079988180303" lon="1.5595897786810045"><ele>155.0</ele><time>2026-03-22T16:45:30Z</time></trkpt><trkpt lat="43.55091768078224" lon="1.5594123005338973"><ele>155.0</ele><time>2026-03-22T16:45:31Z</time></trkpt><trkpt lat="43.55104031568277" lon="1.5592049554753251"><ele>155.0</ele><time>2026-03-22T16:45:32Z</time></trkpt><trkpt lat="43.55116344006443" lon="1.5589657963521664"><ele>155.0</ele><time>2026-03-22T16:45:33Z</time></trkpt><trkpt lat="43.55128494124693" lon="1.5586995419165013"><ele>155.5</ele><time>2026-03-22T16:45:34Z</time></trkpt><trkpt lat="43.551401575321" lon="1.5584331572935322"><ele>156.0</ele><time>2026-03-22T16:45:35Z</time></trkpt><trkpt lat="43.551533831911236" lon="1.558134471143495"><ele>156.0</ele><time>2026-03-22T16:45:36Z</time></trkpt><trkpt lat="43.551651576895765" lon="1.5578645581238262"><ele>156.0</ele><time>2026-03-22T16:45:37Z</time></trkpt><trkpt lat="43.55175435363745" lon="1.5576182102191456"><ele>156.0</ele><time>2026-03-22T16:45:38Z</time></trkpt><trkpt lat="43.551850793459835" lon="1.5573861939350493"><ele>156.0</ele><time>2026-03-22T16:45:39Z</time></trkpt><trkpt lat="43.55194866847811" lon="1.5571426541588267"><ele>156.0</ele><time>2026-03-22T16:45:40Z</time></trkpt><trkpt lat="43.55205037765303" lon="1.5568842941946235"><ele>156.0</ele><time>2026-03-22T16:45:41Z</time></trkpt><trkpt lat="43.552150691301485" lon="1.556637546927592"><ele>155.33333333333334</ele><time>2026-03-22T16:45:42Z</time></trkpt><trkpt lat="43.5522425796916" lon="1.5563937428913166"><ele>154.66666666666669</ele><time>2026-03-22T16:45:43Z</time></trkpt><trkpt lat="43.552347739519476" lon="1.5560825407260732"><ele>154.0</ele><time>2026-03-22T16:45:44Z</time></trkpt><trkpt lat="43.55242790755015" lon="1.5558556738274125"><ele>153.66666666666669</ele><time>2026-03-22T16:45:45Z</time></trkpt><trkpt lat="43.552520722162804" lon="1.5555805989405422"><ele>153.33333333333334</ele><time>2026-03-22T16:45:46Z</time></trkpt><trkpt lat="43.55260666104503" lon="1.5553164096964947"><ele>153.0</ele><time>2026-03-22T16:45:47Z</time></trkpt><trkpt lat="43.55268337760819" lon="1.555059633163396"><ele>153.0</ele><time>2026-03-22T16:45:48Z</time></trkpt><trkpt lat="43.552764668906725" lon="1.5548063495451077"><ele>153.0</ele><time>2026-03-22T16:45:49Z</time></trkpt><trkpt lat="43.55284156023116" lon="1.5545660333360727"><ele>153.0</ele><time>2026-03-22T16:45:50Z</time></trkpt><trkpt lat="43.55291398942715" lon="1.5543427701879116"><ele>153.0</ele><time>2026-03-22T16:45:51Z</time></trkpt><trkpt lat="43.55297571799233" lon="1.554130223854816"><ele>153.0</ele><time>2026-03-22T16:45:52Z</time></trkpt><trkpt lat="43.553048336668624" lon="1.55391412121736"><ele>153.0</ele><time>2026-03-22T16:45:53Z</time></trkpt><trkpt lat="43.553114161121954" lon="1.5537137914428125"><ele>153.0</ele><time>2026-03-22T16:45:54Z</time></trkpt><trkpt lat="43.55317504526634" lon="1.5535216260728533"><ele>153.0</ele><time>2026-03-22T16:45:55Z</time></trkpt><trkpt lat="43.55323302628541" lon="1.5533305943341824"><ele>153.0</ele><time>2026-03-22T16:45:56Z</time></trkpt><trkpt lat="43.55329111747816" lon="1.5531513317209809"><ele>153.0</ele><time>2026-03-22T16:45:57Z</time></trkpt><trkpt lat="43.553346637954434" lon="1.5529642469188065"><ele>153.0</ele><time>2026-03-22T16:45:58Z</time></trkpt><trkpt lat="43.55340155174542" lon="1.5527906730731467"><ele>153.0</ele><time>2026-03-22T16:45:59Z</time></trkpt><trkpt lat="43.553451025797465" lon="1.5526329099567813"><ele>153.0</ele><time>2026-03-22T16:46:00Z</time></trkpt><trkpt lat="43.553493461137535" lon="1.5525006656042442"><ele>153.0</ele><time>2026-03-22T16:46:01Z</time></trkpt><trkpt lat="43.55352812140422" lon="1.5523873147045109"><ele>153.0</ele><time>2026-03-22T16:46:02Z</time></trkpt><trkpt lat="43.55356151978083" lon="1.552283949351424"><ele>153.0</ele><time>2026-03-22T16:46:03Z</time></trkpt><trkpt lat="43.55359208648694" lon="1.5521875950022632"><ele>153.0</ele><time>2026-03-22T16:46:04Z</time></trkpt><trkpt lat="43.55362319348379" lon="1.5520984475773973"><ele>153.0</ele><time>2026-03-22T16:46:05Z</time></trkpt><trkpt lat="43.553652895353984" lon="1.5520080983568025"><ele>153.0</ele><time>2026-03-22T16:46:06Z</time></trkpt><trkpt lat="43.55368999444786" lon="1.5518981795560851"><ele>153.0</ele><time>2026-03-22T16:46:07Z</time></trkpt><trkpt lat="43.55373714266784" lon="1.5517670231631764"><ele>153.0</ele><time>2026-03-22T16:46:08Z</time></trkpt><trkpt lat="43.55378082423482" lon="1.5516318271726064"><ele>153.0</ele><time>2026-03-22T16:46:09Z</time></trkpt><trkpt lat="43.55383333429494" lon="1.5514804053864184"><ele>153.0</ele><time>2026-03-22T16:46:10Z</time></trkpt><trkpt lat="43.5538813918697" lon="1.5513349440281545"><ele>153.0</ele><time>2026-03-22T16:46:11Z</time></trkpt><trkpt lat="43.553926650493764" lon="1.5512021735099446"><ele>153.0</ele><time>2026-03-22T16:46:12Z</time></trkpt><trkpt lat="43.553976437990464" lon="1.5510768472118905"><ele>153.0</ele><time>2026-03-22T16:46:13Z</time></trkpt><trkpt lat="43.55402537183115" lon="1.5509522996755662"><ele>153.0</ele><time>2026-03-22T16:46:14Z</time></trkpt><trkpt lat="43.55407385222493" lon="1.550831181442482"><ele>153.0</ele><time>2026-03-22T16:46:15Z</time></trkpt><trkpt lat="43.55411988944116" lon="1.5507135617914873"><ele>153.0</ele><time>2026-03-22T16:46:16Z</time></trkpt><trkpt lat="43.554164910633396" lon="1.5506047895796853"><ele>153.0</ele><time>2026-03-22T16:46:17Z</time></trkpt><trkpt lat="43.55420387228986" lon="1.5505076834938307"><ele>153.0</ele><time>2026-03-22T16:46:18Z</time></trkpt><trkpt lat="43.554238311408284" lon="1.5504263727915975"><ele>153.0</ele><time>2026-03-22T16:46:19Z</time></trkpt><trkpt lat="43.554303501429644" lon="1.5502770482604697"><ele>153.0</ele><time>2026-03-22T16:46:21Z</time></trkpt><trkpt lat="43.55434616245941" lon="1.550178981751687"><ele>153.0</ele><time>2026-03-22T16:46:22Z</time></trkpt><trkpt lat="43.55439306665194" lon="1.550069311199116"><ele>153.0</ele><time>2026-03-22T16:46:23Z</time></trkpt><trkpt lat="43.55443852259796" lon="1.5499621172125353"><ele>153.0</ele><time>2026-03-22T16:46:24Z</time></trkpt><trkpt lat="43.55448267995562" lon="1.5498628658196039"><ele>153.0</ele><time>2026-03-22T16:46:25Z</time></trkpt><trkpt lat="43.55452153479975" lon="1.5497750042367116"><ele>153.0</ele><time>2026-03-22T16:46:26Z</time></trkpt><trkpt lat="43.55456365955445" lon="1.5496927590685408"><ele>153.0</ele><time>2026-03-22T16:46:27Z</time></trkpt><trkpt lat="43.554619316249244" lon="1.5495879310687806"><ele>153.0</ele><time>2026-03-22T16:46:28Z</time></trkpt><trkpt lat="43.55468445061562" lon="1.549466292572088"><ele>153.0</ele><time>2026-03-22T16:46:29Z</time></trkpt><trkpt lat="43.55475381326976" lon="1.5493307717118208"><ele>153.0</ele><time>2026-03-22T16:46:30Z</time></trkpt><trkpt lat="43.55483950042453" lon="1.5491680900239118"><ele>153.0</ele><time>2026-03-22T16:46:31Z</time></trkpt><trkpt lat="43.55494346953232" lon="1.5489693186687068"><ele>153.0</ele><time>2026-03-22T16:46:32Z</time></trkpt><trkpt lat="43.55504665976631" lon="1.548767599789713"><ele>153.33333333333334</ele><time>2026-03-22T16:46:33Z</time></trkpt><trkpt lat="43.55514385615299" lon="1.5485767171659806"><ele>153.66666666666669</ele><time>2026-03-22T16:46:34Z</time></trkpt><trkpt lat="43.55524617331472" lon="1.5483728577588376"><ele>154.0</ele><time>2026-03-22T16:46:35Z</time></trkpt><trkpt lat="43.55535261756097" lon="1.54815768397325"><ele>153.66666666666669</ele><time>2026-03-22T16:46:36Z</time></trkpt><trkpt lat="43.55545030507331" lon="1.547928405467825"><ele>153.33333333333334</ele><time>2026-03-22T16:46:37Z</time></trkpt><trkpt lat="43.55554207685899" lon="1.547683898132163"><ele>153.0</ele><time>2026-03-22T16:46:38Z</time></trkpt><trkpt lat="43.555628687003555" lon="1.5474373398099757"><ele>153.0</ele><time>2026-03-22T16:46:39Z</time></trkpt><trkpt lat="43.555707058126615" lon="1.547183106550966"><ele>153.0</ele><time>2026-03-22T16:46:40Z</time></trkpt><trkpt lat="43.55578115098321" lon="1.5469273510739783"><ele>153.0</ele><time>2026-03-22T16:46:41Z</time></trkpt><trkpt lat="43.555851473880686" lon="1.5466922066712068"><ele>153.0</ele><time>2026-03-22T16:46:42Z</time></trkpt><trkpt lat="43.555921061992564" lon="1.5464749916691183"><ele>153.0</ele><time>2026-03-22T16:46:42.999Z</time></trkpt><trkpt lat="43.555988516604906" lon="1.5462755642015704"><ele>153.0</ele><time>2026-03-22T16:46:43.999Z</time></trkpt><trkpt lat="43.556051738547204" lon="1.5460867069722875"><ele>152.66666666666666</ele><time>2026-03-22T16:46:44.999Z</time></trkpt><trkpt lat="43.55612074399964" lon="1.5459003963273406"><ele>152.33333333333331</ele><time>2026-03-22T16:46:45.999Z</time></trkpt><trkpt lat="43.5561946264" lon="1.545713146881193"><ele>152.0</ele><time>2026-03-22T16:46:46.999Z</time></trkpt><trkpt lat="43.55626653748821" lon="1.5455306868927015"><ele>152.25</ele><time>2026-03-22T16:46:47.999Z</time></trkpt><trkpt lat="43.556334904609635" lon="1.5453520638569318"><ele>152.5</ele><time>2026-03-22T16:46:48.999Z</time></trkpt><trkpt lat="43.55640002592329" lon="1.5451775010267685"><ele>152.75</ele><time>2026-03-22T16:46:49.999Z</time></trkpt><trkpt lat="43.55646960972849" lon="1.5449979591968064"><ele>153.0</ele><time>2026-03-22T16:46:50.999Z</time></trkpt><trkpt lat="43.55652880227809" lon="1.5448331005577784"><ele>153.0</ele><time>2026-03-22T16:46:51.999Z</time></trkpt><trkpt lat="43.55658942635683" lon="1.5446800630459092"><ele>153.0</ele><time>2026-03-22T16:46:52.999Z</time></trkpt><trkpt lat="43.55664388247362" lon="1.5445484359384345"><ele>153.0</ele><time>2026-03-22T16:46:53.999Z</time></trkpt><trkpt lat="43.556691396548366" lon="1.5444341378856097"><ele>153.0</ele><time>2026-03-22T16:46:54.999Z</time></trkpt><trkpt lat="43.55673098639039" lon="1.5443314485626103"><ele>153.0</ele><time>2026-03-22T16:46:55.999Z</time></trkpt><trkpt lat="43.5567720855206" lon="1.5442362829630498"><ele>153.4</ele><time>2026-03-22T16:46:56.999Z</time></trkpt><trkpt lat="43.55683645246219" lon="1.544165294614108"><ele>153.8</ele><time>2026-03-22T16:46:57.999Z</time></trkpt><trkpt lat="43.55693098024735" lon="1.5441289905755249"><ele>154.2</ele><time>2026-03-22T16:46:58.999Z</time></trkpt><trkpt lat="43.55702474891639" lon="1.5441457241525496"><ele>154.6</ele><time>2026-03-22T16:46:59.999Z</time></trkpt><trkpt lat="43.55713239083093" lon="1.5441955676652512"><ele>155.0</ele><time>2026-03-22T16:47:00.999Z</time></trkpt><trkpt lat="43.55723061943855" lon="1.544263671655901"><ele>155.0</ele><time>2026-03-22T16:47:01.999Z</time></trkpt><trkpt lat="43.55732886938496" lon="1.5443321740300362"><ele>155.0</ele><time>2026-03-22T16:47:02.999Z</time></trkpt><trkpt lat="43.55743947220659" lon="1.5444019442994514"><ele>155.0</ele><time>2026-03-22T16:47:03.999Z</time></trkpt><trkpt lat="43.55756284102525" lon="1.5444747834465884"><ele>155.0</ele><time>2026-03-22T16:47:04.999Z</time></trkpt><trkpt lat="43.55765915587359" lon="1.544548564111143"><ele>154.25</ele><time>2026-03-22T16:47:05.999Z</time></trkpt><trkpt lat="43.557771607293866" lon="1.54455169274429"><ele>153.5</ele><time>2026-03-22T16:47:06.999Z</time></trkpt><trkpt lat="43.557892994193544" lon="1.5445453253114327"><ele>152.75</ele><time>2026-03-22T16:47:07.999Z</time></trkpt><trkpt lat="43.55800625333843" lon="1.54454494657672"><ele>152.0</ele><time>2026-03-22T16:47:08.999Z</time></trkpt><trkpt lat="43.558121100099356" lon="1.5445506791803165"><ele>152.0</ele><time>2026-03-22T16:47:09.999Z</time></trkpt><trkpt lat="43.55821046331216" lon="1.5445592427980301"><ele>152.0</ele><time>2026-03-22T16:47:10.999Z</time></trkpt><trkpt lat="43.55828966656911" lon="1.5445805789941087"><ele>152.0</ele><time>2026-03-22T16:47:11.999Z</time></trkpt><trkpt lat="43.5583604073324" lon="1.544604938598782"><ele>152.0</ele><time>2026-03-22T16:47:12.999Z</time></trkpt><trkpt lat="43.55844337998419" lon="1.5446277471442316"><ele>152.0</ele><time>2026-03-22T16:47:13.999Z</time></trkpt><trkpt lat="43.558528528963" lon="1.5446823286017852"><ele>152.0</ele><time>2026-03-22T16:47:14.999Z</time></trkpt><trkpt lat="43.55864759963342" lon="1.5447676375206298"><ele>151.75</ele><time>2026-03-22T16:47:15.999Z</time></trkpt><trkpt lat="43.55878563935625" lon="1.5448542561572178"><ele>151.5</ele><time>2026-03-22T16:47:16.999Z</time></trkpt><trkpt lat="43.55889123399977" lon="1.544925367653224"><ele>151.25</ele><time>2026-03-22T16:47:18Z</time></trkpt><trkpt lat="43.55900613505775" lon="1.5449683086061896"><ele>151.0</ele><time>2026-03-22T16:47:19Z</time></trkpt><trkpt lat="43.55912531200198" lon="1.544969052050647"><ele>151.0</ele><time>2026-03-22T16:47:20Z</time></trkpt><trkpt lat="43.55927361768441" lon="1.544919004328582"><ele>151.0</ele><time>2026-03-22T16:47:21Z</time></trkpt><trkpt lat="43.559438412373744" lon="1.5448341652636233"><ele>151.0</ele><time>2026-03-22T16:47:22Z</time></trkpt><trkpt lat="43.55960107726341" lon="1.544737879548898"><ele>151.0</ele><time>2026-03-22T16:47:23Z</time></trkpt><trkpt lat="43.55978583193999" lon="1.5446416909533138"><ele>151.0</ele><time>2026-03-22T16:47:24Z</time></trkpt><trkpt lat="43.55995849432663" lon="1.5445476048671225"><ele>151.0</ele><time>2026-03-22T16:47:25Z</time></trkpt><trkpt lat="43.560117865156684" lon="1.5444645364031298"><ele>151.0</ele><time>2026-03-22T16:47:26Z</time></trkpt><trkpt lat="43.5602891910789" lon="1.5443748391063132"><ele>151.0</ele><time>2026-03-22T16:47:27Z</time></trkpt><trkpt lat="43.56049283230562" lon="1.5442680553471642"><ele>151.0</ele><time>2026-03-22T16:47:28Z</time></trkpt><trkpt lat="43.56069915487583" lon="1.5441537442848712"><ele>153.33333333333334</ele><time>2026-03-22T16:47:29Z</time></trkpt><trkpt lat="43.56088139875914" lon="1.5440472424932723"><ele>155.66666666666666</ele><time>2026-03-22T16:47:30Z</time></trkpt><trkpt lat="43.56106561525386" lon="1.5439383013634569"><ele>158.0</ele><time>2026-03-22T16:47:31Z</time></trkpt><trkpt lat="43.56124794557337" lon="1.5438169084006124"><ele>159.0</ele><time>2026-03-22T16:47:32Z</time></trkpt><trkpt lat="43.56144643590297" lon="1.543676351682236"><ele>160.0</ele><time>2026-03-22T16:47:33Z</time></trkpt><trkpt lat="43.56164135405017" lon="1.5435339323796466"><ele>161.0</ele><time>2026-03-22T16:47:34Z</time></trkpt><trkpt lat="43.56182292186844" lon="1.5434034027056305"><ele>161.0</ele><time>2026-03-22T16:47:35Z</time></trkpt><trkpt lat="43.562002876105645" lon="1.5432822279331728"><ele>161.0</ele><time>2026-03-22T16:47:36Z</time></trkpt><trkpt lat="43.56216518917255" lon="1.5431800741629282"><ele>161.0</ele><time>2026-03-22T16:47:37Z</time></trkpt><trkpt lat="43.562308139071675" lon="1.5430757285604602"><ele>163.0</ele><time>2026-03-22T16:47:38Z</time></trkpt><trkpt lat="43.562448930752176" lon="1.5429549013448776"><ele>165.0</ele><time>2026-03-22T16:47:39Z</time></trkpt><trkpt lat="43.562556512937306" lon="1.542803112659538"><ele>167.0</ele><time>2026-03-22T16:47:40Z</time></trkpt><trkpt lat="43.56266081139002" lon="1.5426038236718902"><ele>167.0</ele><time>2026-03-22T16:47:41Z</time></trkpt><trkpt lat="43.56275490674148" lon="1.5424282807376068"><ele>167.0</ele><time>2026-03-22T16:47:42Z</time></trkpt><trkpt lat="43.56284710550991" lon="1.5422991022775843"><ele>167.0</ele><time>2026-03-22T16:47:43Z</time></trkpt><trkpt lat="43.562958642925175" lon="1.5422004058978607"><ele>167.0</ele><time>2026-03-22T16:47:44Z</time></trkpt><trkpt lat="43.56309759760962" lon="1.542095667672972"><ele>168.33333333333331</ele><time>2026-03-22T16:47:45Z</time></trkpt><trkpt lat="43.56324866767143" lon="1.5419679173104188"><ele>169.66666666666666</ele><time>2026-03-22T16:47:46Z</time></trkpt><trkpt lat="43.56338999697111" lon="1.5418006907239732"><ele>171.0</ele><time>2026-03-22T16:47:47Z</time></trkpt><trkpt lat="43.56350461503524" lon="1.541626629485582"><ele>171.0</ele><time>2026-03-22T16:47:48Z</time></trkpt><trkpt lat="43.563617868572585" lon="1.541415487593635"><ele>171.0</ele><time>2026-03-22T16:47:49Z</time></trkpt><trkpt lat="43.56374973485054" lon="1.5411708076027488"><ele>171.0</ele><time>2026-03-22T16:47:50Z</time></trkpt><trkpt lat="43.56387763347133" lon="1.540944248667179"><ele>170.66666666666666</ele><time>2026-03-22T16:47:51Z</time></trkpt><trkpt lat="43.563987533903195" lon="1.5407456780304"><ele>170.33333333333331</ele><time>2026-03-22T16:47:52Z</time></trkpt><trkpt lat="43.564091468915535" lon="1.5405509004741884"><ele>170.0</ele><time>2026-03-22T16:47:53Z</time></trkpt><trkpt lat="43.56420073954036" lon="1.54035348959644"><ele>170.0</ele><time>2026-03-22T16:47:54Z</time></trkpt><trkpt lat="43.56430221771527" lon="1.5401864601910893"><ele>170.0</ele><time>2026-03-22T16:47:55Z</time></trkpt><trkpt lat="43.56438605158616" lon="1.5400359276755433"><ele>170.0</ele><time>2026-03-22T16:47:56Z</time></trkpt><trkpt lat="43.56446426439287" lon="1.5398949400121964"><ele>170.0</ele><time>2026-03-22T16:47:57Z</time></trkpt><trkpt lat="43.56453749455868" lon="1.5397718815259964"><ele>170.2</ele><time>2026-03-22T16:47:58Z</time></trkpt><trkpt lat="43.56460931010098" lon="1.5396647896671953"><ele>170.4</ele><time>2026-03-22T16:47:59Z</time></trkpt><trkpt lat="43.564697533948355" lon="1.5395800528248673"><ele>170.60000000000002</ele><time>2026-03-22T16:48:00Z</time></trkpt><trkpt lat="43.564796651004464" lon="1.5395364043247617"><ele>170.8</ele><time>2026-03-22T16:48:01Z</time></trkpt><trkpt lat="43.56490415935072" lon="1.5395677584755436"><ele>171.0</ele><time>2026-03-22T16:48:02Z</time></trkpt><trkpt lat="43.56500021630811" lon="1.53961933678223"><ele>172.0</ele><time>2026-03-22T16:48:03Z</time></trkpt><trkpt lat="43.565090069617085" lon="1.5397036657589045"><ele>173.0</ele><time>2026-03-22T16:48:04Z</time></trkpt><trkpt lat="43.56516726551835" lon="1.539821067186468"><ele>174.0</ele><time>2026-03-22T16:48:05Z</time></trkpt><trkpt lat="43.565239185264645" lon="1.5399691881107327"><ele>175.0</ele><time>2026-03-22T16:48:06Z</time></trkpt><trkpt lat="43.565311930891184" lon="1.5401229128068992"><ele>175.16666666666669</ele><time>2026-03-22T16:48:07Z</time></trkpt><trkpt lat="43.56537349868753" lon="1.54025301800374"><ele>175.33333333333334</ele><time>2026-03-22T16:48:08Z</time></trkpt><trkpt lat="43.56542603524609" lon="1.5403620514675422"><ele>175.5</ele><time>2026-03-22T16:48:09Z</time></trkpt><trkpt lat="43.56546615335787" lon="1.5404397492106818"><ele>175.66666666666666</ele><time>2026-03-22T16:48:10Z</time></trkpt><trkpt lat="43.565504387533" lon="1.5405088713552342"><ele>175.83333333333331</ele><time>2026-03-22T16:48:11Z</time></trkpt><trkpt lat="43.565585822053244" lon="1.540594090281206"><ele>176.0</ele><time>2026-03-22T16:48:13Z</time></trkpt><trkpt lat="43.56563102228879" lon="1.5406748193197686"><ele>176.0</ele><time>2026-03-22T16:48:15Z</time></trkpt><trkpt lat="43.56571649225182" lon="1.5406857007097166"><ele>176.0</ele><time>2026-03-22T16:48:17Z</time></trkpt><trkpt lat="43.56581964810769" lon="1.5405748558329466"><ele>176.0</ele><time>2026-03-22T16:48:19Z</time></trkpt><trkpt lat="43.56589843376369" lon="1.5405112846104883"><ele>176.0</ele><time>2026-03-22T16:48:20Z</time></trkpt><trkpt lat="43.56598450613585" lon="1.5404343392818887"><ele>176.0</ele><time>2026-03-22T16:48:21Z</time></trkpt><trkpt lat="43.566087475178215" lon="1.540347859611363"><ele>176.0</ele><time>2026-03-22T16:48:22Z</time></trkpt><trkpt lat="43.56617935489197" lon="1.5402732164565585"><ele>176.0</ele><time>2026-03-22T16:48:23Z</time></trkpt><trkpt lat="43.566275431539516" lon="1.5401816719467785"><ele>176.0</ele><time>2026-03-22T16:48:24Z</time></trkpt><trkpt lat="43.566382816596146" lon="1.5400760952229007"><ele>176.0</ele><time>2026-03-22T16:48:25Z</time></trkpt><trkpt lat="43.56650405914694" lon="1.5399279908867738"><ele>176.60000000000002</ele><time>2026-03-22T16:48:26Z</time></trkpt><trkpt lat="43.566617988120356" lon="1.5397875091921134"><ele>177.2</ele><time>2026-03-22T16:48:27Z</time></trkpt><trkpt lat="43.566705186735724" lon="1.5396931238944904"><ele>177.8</ele><time>2026-03-22T16:48:28Z</time></trkpt><trkpt lat="43.5667763560838" lon="1.5396085369775334"><ele>178.39999999999998</ele><time>2026-03-22T16:48:29Z</time></trkpt><trkpt lat="43.566835866007374" lon="1.5395217462041475"><ele>179.0</ele><time>2026-03-22T16:48:30Z</time></trkpt><trkpt lat="43.56688014946097" lon="1.5394460444189784"><ele>179.0</ele><time>2026-03-22T16:48:31Z</time></trkpt><trkpt lat="43.56692174844953" lon="1.5393707677139339"><ele>179.0</ele><time>2026-03-22T16:48:32Z</time></trkpt><trkpt lat="43.56694936099894" lon="1.5392562106919314"><ele>179.0</ele><time>2026-03-22T16:48:33Z</time></trkpt><trkpt lat="43.56697797515184" lon="1.5391426834339426"><ele>179.0</ele><time>2026-03-22T16:48:34Z</time></trkpt><trkpt lat="43.56702836621184" lon="1.5390062868468237"><ele>179.0</ele><time>2026-03-22T16:48:36Z</time></trkpt><trkpt lat="43.5670660513202" lon="1.5389354499597463"><ele>179.0</ele><time>2026-03-22T16:48:37Z</time></trkpt><trkpt lat="43.56706749967862" lon="1.5387974117302052"><ele>178.0</ele><time>2026-03-22T16:48:38.999Z</time></trkpt><trkpt lat="43.56699374883532" lon="1.5386671012453335"><ele>177.0</ele><time>2026-03-22T16:48:39.999Z</time></trkpt><trkpt lat="43.56696870288823" lon="1.5385344111453831"><ele>176.0</ele><time>2026-03-22T16:48:40.999Z</time></trkpt><trkpt lat="43.566964258896284" lon="1.5383856450892681"><ele>175.0</ele><time>2026-03-22T16:48:41.999Z</time></trkpt><trkpt lat="43.56694516449002" lon="1.538191639307371"><ele>175.0</ele><time>2026-03-22T16:48:42.999Z</time></trkpt><trkpt lat="43.56692054453763" lon="1.5379539075147344"><ele>175.0</ele><time>2026-03-22T16:48:43.999Z</time></trkpt><trkpt lat="43.566894526975815" lon="1.5377261520994656"><ele>175.0</ele><time>2026-03-22T16:48:44.999Z</time></trkpt><trkpt lat="43.56688274833955" lon="1.5374918010902305"><ele>175.66666666666669</ele><time>2026-03-22T16:48:45.999Z</time></trkpt><trkpt lat="43.56687505442169" lon="1.5372493111570078"><ele>176.33333333333334</ele><time>2026-03-22T16:48:46.999Z</time></trkpt><trkpt lat="43.56687158008434" lon="1.5370267610361354"><ele>177.0</ele><time>2026-03-22T16:48:47.999Z</time></trkpt><trkpt lat="43.5668619047283" lon="1.5368025431045873"><ele>177.0</ele><time>2026-03-22T16:48:48.999Z</time></trkpt><trkpt lat="43.56685239409154" lon="1.5365714199019067"><ele>177.0</ele><time>2026-03-22T16:48:49.999Z</time></trkpt><trkpt lat="43.56684783258316" lon="1.536362059163259"><ele>177.0</ele><time>2026-03-22T16:48:50.999Z</time></trkpt><trkpt lat="43.56685159591965" lon="1.536157066401327"><ele>177.0</ele><time>2026-03-22T16:48:51.999Z</time></trkpt><trkpt lat="43.566863164305765" lon="1.5359387447013853"><ele>177.0</ele><time>2026-03-22T16:48:52.999Z</time></trkpt><trkpt lat="43.56688863633725" lon="1.5357135005475193"><ele>177.0</ele><time>2026-03-22T16:48:53.999Z</time></trkpt><trkpt lat="43.56694107790442" lon="1.5355056472341089"><ele>176.0</ele><time>2026-03-22T16:48:54.999Z</time></trkpt><trkpt lat="43.56697291359102" lon="1.5353114291441896"><ele>175.0</ele><time>2026-03-22T16:48:55.999Z</time></trkpt><trkpt lat="43.56698611239742" lon="1.5351311650700896"><ele>174.0</ele><time>2026-03-22T16:48:56.999Z</time></trkpt><trkpt lat="43.5669838620416" lon="1.534940628926505"><ele>173.0</ele><time>2026-03-22T16:48:57.999Z</time></trkpt><trkpt lat="43.56698216061099" lon="1.5347364088197326"><ele>171.75</ele><time>2026-03-22T16:48:58.999Z</time></trkpt><trkpt lat="43.56699155782226" lon="1.5345389481664913"><ele>170.5</ele><time>2026-03-22T16:48:59.999Z</time></trkpt><trkpt lat="43.56701689493608" lon="1.5343347426989342"><ele>169.25</ele><time>2026-03-22T16:49:00.999Z</time></trkpt><trkpt lat="43.567047985116375" lon="1.5341338425795712"><ele>168.0</ele><time>2026-03-22T16:49:01.999Z</time></trkpt><trkpt lat="43.567068749178716" lon="1.5339582849590367"><ele>168.25</ele><time>2026-03-22T16:49:02.999Z</time></trkpt><trkpt lat="43.56705004068409" lon="1.533759805140715"><ele>168.5</ele><time>2026-03-22T16:49:03.999Z</time></trkpt><trkpt lat="43.56699147834799" lon="1.533554959894137"><ele>168.75</ele><time>2026-03-22T16:49:04.999Z</time></trkpt><trkpt lat="43.56692601774445" lon="1.5333857311101327"><ele>169.0</ele><time>2026-03-22T16:49:05.999Z</time></trkpt><trkpt lat="43.566880168929934" lon="1.5332091790646623"><ele>169.0</ele><time>2026-03-22T16:49:06.999Z</time></trkpt><trkpt lat="43.5668347967171" lon="1.5330317948858028"><ele>169.0</ele><time>2026-03-22T16:49:07.999Z</time></trkpt><trkpt lat="43.56681955590975" lon="1.5328245512369105"><ele>169.0</ele><time>2026-03-22T16:49:08.999Z</time></trkpt><trkpt lat="43.56684533345717" lon="1.5325938760318996"><ele>167.33333333333334</ele><time>2026-03-22T16:49:09.999Z</time></trkpt><trkpt lat="43.566884841817135" lon="1.532381925412395"><ele>165.66666666666666</ele><time>2026-03-22T16:49:10.999Z</time></trkpt><trkpt lat="43.56694956965501" lon="1.53215648125244"><ele>164.0</ele><time>2026-03-22T16:49:11.999Z</time></trkpt><trkpt lat="43.567017803866875" lon="1.5319380001364105"><ele>166.0</ele><time>2026-03-22T16:49:12.999Z</time></trkpt><trkpt lat="43.56708583595689" lon="1.5317065243857126"><ele>168.0</ele><time>2026-03-22T16:49:13.999Z</time></trkpt><trkpt lat="43.56715795354591" lon="1.5314826843079334"><ele>170.0</ele><time>2026-03-22T16:49:14.999Z</time></trkpt><trkpt lat="43.567227894748136" lon="1.5312687495482933"><ele>168.66666666666666</ele><time>2026-03-22T16:49:15.999Z</time></trkpt><trkpt lat="43.56730326163605" lon="1.5310618517665875"><ele>167.33333333333334</ele><time>2026-03-22T16:49:16.999Z</time></trkpt><trkpt lat="43.56737976069445" lon="1.5308528573408855"><ele>166.0</ele><time>2026-03-22T16:49:17.999Z</time></trkpt><trkpt lat="43.56745741300448" lon="1.530634909520914"><ele>166.0</ele><time>2026-03-22T16:49:18.999Z</time></trkpt><trkpt lat="43.567528121620015" lon="1.5304042113735985"><ele>166.0</ele><time>2026-03-22T16:49:19.999Z</time></trkpt><trkpt lat="43.56756582800892" lon="1.530158990774946"><ele>166.0</ele><time>2026-03-22T16:49:20.999Z</time></trkpt><trkpt lat="43.567572289629624" lon="1.5298531443748578"><ele>163.0</ele><time>2026-03-22T16:49:21.999Z</time></trkpt><trkpt lat="43.567576199578774" lon="1.52951892973868"><ele>160.0</ele><time>2026-03-22T16:49:22.999Z</time></trkpt><trkpt lat="43.567574442787574" lon="1.5292262927913842"><ele>160.0</ele><time>2026-03-22T16:49:24Z</time></trkpt><trkpt lat="43.567580822411905" lon="1.5289423746112583"><ele>160.0</ele><time>2026-03-22T16:49:25Z</time></trkpt><trkpt lat="43.56757720428588" lon="1.528664761592452"><ele>160.0</ele><time>2026-03-22T16:49:26Z</time></trkpt><trkpt lat="43.56757269875736" lon="1.5284054867751247"><ele>158.66666666666669</ele><time>2026-03-22T16:49:27Z</time></trkpt><trkpt lat="43.567579648103106" lon="1.5281599817934288"><ele>157.33333333333334</ele><time>2026-03-22T16:49:28Z</time></trkpt><trkpt lat="43.567595278709256" lon="1.5279428684909417"><ele>156.0</ele><time>2026-03-22T16:49:29Z</time></trkpt><trkpt lat="43.56763020380791" lon="1.5277061133096292"><ele>155.33333333333334</ele><time>2026-03-22T16:49:30Z</time></trkpt><trkpt lat="43.56769986622945" lon="1.527418863339123"><ele>154.66666666666669</ele><time>2026-03-22T16:49:31Z</time></trkpt><trkpt lat="43.56776341080814" lon="1.5271596940053878"><ele>154.0</ele><time>2026-03-22T16:49:32Z</time></trkpt><trkpt lat="43.56781215409598" lon="1.526940557946627"><ele>153.75</ele><time>2026-03-22T16:49:33Z</time></trkpt><trkpt lat="43.567857200146705" lon="1.5267452470251357"><ele>153.5</ele><time>2026-03-22T16:49:34Z</time></trkpt><trkpt lat="43.56789454222634" lon="1.5265571535054223"><ele>153.25</ele><time>2026-03-22T16:49:35Z</time></trkpt><trkpt lat="43.56791830275331" lon="1.5263884747804808"><ele>153.0</ele><time>2026-03-22T16:49:36Z</time></trkpt><trkpt lat="43.56792711614019" lon="1.526189262110455"><ele>154.25</ele><time>2026-03-22T16:49:37Z</time></trkpt><trkpt lat="43.5679263261031" lon="1.5259794344186215"><ele>155.5</ele><time>2026-03-22T16:49:38Z</time></trkpt><trkpt lat="43.567908716821066" lon="1.525789619161685"><ele>156.75</ele><time>2026-03-22T16:49:39Z</time></trkpt><trkpt lat="43.567889675460265" lon="1.5256075776489297"><ele>158.0</ele><time>2026-03-22T16:49:40Z</time></trkpt><trkpt lat="43.56787877418874" lon="1.5254266761868573"><ele>158.0</ele><time>2026-03-22T16:49:41Z</time></trkpt><trkpt lat="43.56786802288793" lon="1.5252323039921172"><ele>158.0</ele><time>2026-03-22T16:49:42Z</time></trkpt><trkpt lat="43.56787504538149" lon="1.5250350416373195"><ele>158.0</ele><time>2026-03-22T16:49:43Z</time></trkpt><trkpt lat="43.56788822997215" lon="1.524843318999932"><ele>158.0</ele><time>2026-03-22T16:49:44Z</time></trkpt><trkpt lat="43.567902904447664" lon="1.5246558415488778"><ele>157.0</ele><time>2026-03-22T16:49:45Z</time></trkpt><trkpt lat="43.5679360296825" lon="1.524479582628097"><ele>156.0</ele><time>2026-03-22T16:49:46Z</time></trkpt><trkpt lat="43.56796234305167" lon="1.524303505908486"><ele>155.0</ele><time>2026-03-22T16:49:47Z</time></trkpt><trkpt lat="43.56800426129802" lon="1.524100752635667"><ele>154.0</ele><time>2026-03-22T16:49:48Z</time></trkpt><trkpt lat="43.56806509643763" lon="1.5238901925695831"><ele>153.33333333333334</ele><time>2026-03-22T16:49:49Z</time></trkpt><trkpt lat="43.56812055751844" lon="1.5236848316998508"><ele>152.66666666666666</ele><time>2026-03-22T16:49:50Z</time></trkpt><trkpt lat="43.568161465724046" lon="1.5234553108116484"><ele>152.0</ele><time>2026-03-22T16:49:51Z</time></trkpt><trkpt lat="43.56820963038188" lon="1.5232244129909076"><ele>152.0</ele><time>2026-03-22T16:49:52Z</time></trkpt><trkpt lat="43.56823393230265" lon="1.523026072001656"><ele>152.0</ele><time>2026-03-22T16:49:53Z</time></trkpt><trkpt lat="43.56828253057712" lon="1.522818206022825"><ele>152.0</ele><time>2026-03-22T16:49:54Z</time></trkpt><trkpt lat="43.568304611033206" lon="1.522590604091287"><ele>151.25</ele><time>2026-03-22T16:49:55Z</time></trkpt><trkpt lat="43.568318476043004" lon="1.5223921157453164"><ele>150.5</ele><time>2026-03-22T16:49:56Z</time></trkpt><trkpt lat="43.568340666808346" lon="1.5222110812686"><ele>149.75</ele><time>2026-03-22T16:49:57Z</time></trkpt><trkpt lat="43.568382712305976" lon="1.5220016039120894"><ele>149.0</ele><time>2026-03-22T16:49:58Z</time></trkpt><trkpt lat="43.568408645913735" lon="1.5218421778086817"><ele>149.0</ele><time>2026-03-22T16:49:59Z</time></trkpt><trkpt lat="43.568439409432486" lon="1.5217026141164223"><ele>149.0</ele><time>2026-03-22T16:50:00Z</time></trkpt><trkpt lat="43.56846017486387" lon="1.5215713302599962"><ele>149.0</ele><time>2026-03-22T16:50:01Z</time></trkpt><trkpt lat="43.56847969829036" lon="1.5214595272390417"><ele>149.0</ele><time>2026-03-22T16:50:02Z</time></trkpt><trkpt lat="43.56849416918483" lon="1.5213725014085802"><ele>149.0</ele><time>2026-03-22T16:50:03Z</time></trkpt><trkpt lat="43.56852003593129" lon="1.5212181272316818"><ele>148.83333333333331</ele><time>2026-03-22T16:50:05Z</time></trkpt><trkpt lat="43.568551346040465" lon="1.5210929890745646"><ele>148.66666666666666</ele><time>2026-03-22T16:50:07Z</time></trkpt><trkpt lat="43.568588857492244" lon="1.5210047651743404"><ele>148.5</ele><time>2026-03-22T16:50:09Z</time></trkpt><trkpt lat="43.56867435997945" lon="1.5208772467146934"><ele>148.33333333333334</ele><time>2026-03-22T16:50:11Z</time></trkpt><trkpt lat="43.5686991987503" lon="1.5207797104573042"><ele>148.16666666666669</ele><time>2026-03-22T16:50:12Z</time></trkpt><trkpt lat="43.568680860477166" lon="1.5206936451351858"><ele>148.0</ele><time>2026-03-22T16:50:13Z</time></trkpt><trkpt lat="43.56863291317568" lon="1.5206287154672486"><ele>148.0</ele><time>2026-03-22T16:50:14Z</time></trkpt><trkpt lat="43.5684966877529" lon="1.5206455214263042"><ele>148.0</ele><time>2026-03-22T16:50:16Z</time></trkpt><trkpt lat="43.568397781030164" lon="1.5206996918813906"><ele>148.0</ele><time>2026-03-22T16:50:17Z</time></trkpt><trkpt lat="43.56826860415628" lon="1.5206948435268437"><ele>148.0</ele><time>2026-03-22T16:50:18Z</time></trkpt><trkpt lat="43.56811354362069" lon="1.5206539884347032"><ele>148.0</ele><time>2026-03-22T16:50:19Z</time></trkpt><trkpt lat="43.56797653531018" lon="1.52059527866834"><ele>148.0</ele><time>2026-03-22T16:50:20Z</time></trkpt><trkpt lat="43.567818721833284" lon="1.5205221004791063"><ele>148.0</ele><time>2026-03-22T16:50:21Z</time></trkpt><trkpt lat="43.56769703764457" lon="1.520450726526811"><ele>148.0</ele><time>2026-03-22T16:50:22Z</time></trkpt><trkpt lat="43.56758601099116" lon="1.5203911622890156"><ele>147.6</ele><time>2026-03-22T16:50:23Z</time></trkpt><trkpt lat="43.56749024032732" lon="1.5203438542071246"><ele>147.20000000000002</ele><time>2026-03-22T16:50:24Z</time></trkpt><trkpt lat="43.5674044243376" lon="1.520305878549235"><ele>146.8</ele><time>2026-03-22T16:50:25Z</time></trkpt><trkpt lat="43.56732738747166" lon="1.5202741926051078"><ele>146.4</ele><time>2026-03-22T16:50:26Z</time></trkpt><trkpt lat="43.56722014658716" lon="1.520230106376167"><ele>146.0</ele><time>2026-03-22T16:50:27Z</time></trkpt><trkpt lat="43.56709129719845" lon="1.5201768781234815"><ele>146.5</ele><time>2026-03-22T16:50:28Z</time></trkpt><trkpt lat="43.56694450190909" lon="1.5200975273688748"><ele>147.0</ele><time>2026-03-22T16:50:29Z</time></trkpt><trkpt lat="43.56682500904855" lon="1.5200375212390733"><ele>147.5</ele><time>2026-03-22T16:50:30Z</time></trkpt><trkpt lat="43.56672519843694" lon="1.5199884179156837"><ele>148.0</ele><time>2026-03-22T16:50:31Z</time></trkpt><trkpt lat="43.56663167290565" lon="1.5199440762361984"><ele>148.0</ele><time>2026-03-22T16:50:32Z</time></trkpt><trkpt lat="43.566518647034854" lon="1.5198890307751818"><ele>148.0</ele><time>2026-03-22T16:50:33Z</time></trkpt><trkpt lat="43.56636978266869" lon="1.5198194172594903"><ele>148.0</ele><time>2026-03-22T16:50:34Z</time></trkpt><trkpt lat="43.5662417729535" lon="1.5197610366620433"><ele>148.0</ele><time>2026-03-22T16:50:35Z</time></trkpt><trkpt lat="43.56614972756394" lon="1.5197178496518409"><ele>148.0</ele><time>2026-03-22T16:50:36Z</time></trkpt><trkpt lat="43.566059173464" lon="1.5196752714701924"><ele>148.0</ele><time>2026-03-22T16:50:37Z</time></trkpt><trkpt lat="43.56597181663493" lon="1.519632542125993"><ele>148.0</ele><time>2026-03-22T16:50:38Z</time></trkpt><trkpt lat="43.565860701619734" lon="1.5195833323190961"><ele>148.0</ele><time>2026-03-22T16:50:39Z</time></trkpt><trkpt lat="43.565744542899" lon="1.5195142838371714"><ele>148.0</ele><time>2026-03-22T16:50:40Z</time></trkpt><trkpt lat="43.565664979274736" lon="1.5194692688975746"><ele>148.0</ele><time>2026-03-22T16:50:41Z</time></trkpt><trkpt lat="43.56559753700728" lon="1.5194311329108787"><ele>148.0</ele><time>2026-03-22T16:50:42Z</time></trkpt><trkpt lat="43.565541926211296" lon="1.5193619751086676"><ele>148.0</ele><time>2026-03-22T16:50:43Z</time></trkpt><trkpt lat="43.56548560494347" lon="1.5192542388601111"><ele>148.0</ele><time>2026-03-22T16:50:44Z</time></trkpt><trkpt lat="43.5654681055969" lon="1.5191488502644512"><ele>148.0</ele><time>2026-03-22T16:50:45Z</time></trkpt><trkpt lat="43.5654132582684" lon="1.5190998548110597"><ele>148.0</ele><time>2026-03-22T16:50:46Z</time></trkpt><trkpt lat="43.565331213303125" lon="1.5191101454761073"><ele>148.16666666666669</ele><time>2026-03-22T16:50:47Z</time></trkpt><trkpt lat="43.565246633536184" lon="1.5191739034530438"><ele>148.33333333333334</ele><time>2026-03-22T16:50:48Z</time></trkpt><trkpt lat="43.565207482380735" lon="1.519250195240446"><ele>148.5</ele><time>2026-03-22T16:50:49Z</time></trkpt><trkpt lat="43.565189458261614" lon="1.5193683529155089"><ele>148.66666666666666</ele><time>2026-03-22T16:50:50Z</time></trkpt><trkpt lat="43.56520956049748" lon="1.5194924218028218"><ele>148.83333333333331</ele><time>2026-03-22T16:50:51Z</time></trkpt><trkpt lat="43.56524621775053" lon="1.5196116490949123"><ele>149.0</ele><time>2026-03-22T16:50:52Z</time></trkpt><trkpt lat="43.565255182709926" lon="1.5197491273320216"><ele>149.16666666666666</ele><time>2026-03-22T16:50:53Z</time></trkpt><trkpt lat="43.565227465897905" lon="1.5198571492096136"><ele>149.33333333333331</ele><time>2026-03-22T16:50:54Z</time></trkpt><trkpt lat="43.565194058803776" lon="1.5199926132078676"><ele>149.5</ele><time>2026-03-22T16:50:55Z</time></trkpt><trkpt lat="43.565161150287196" lon="1.520122245453763"><ele>149.66666666666666</ele><time>2026-03-22T16:50:56Z</time></trkpt><trkpt lat="43.565130999655686" lon="1.5202153542315635"><ele>149.83333333333334</ele><time>2026-03-22T16:50:56.999Z</time></trkpt><trkpt lat="43.56508240744335" lon="1.5203098242702215"><ele>150.0</ele><time>2026-03-22T16:50:57.999Z</time></trkpt><trkpt lat="43.56505366191187" lon="1.5203901484078055"><ele>150.25</ele><time>2026-03-22T16:50:58.999Z</time></trkpt><trkpt lat="43.564998110763945" lon="1.520552016266292"><ele>150.5</ele><time>2026-03-22T16:51:00.999Z</time></trkpt><trkpt lat="43.564944391772556" lon="1.5207090802906047"><ele>150.75</ele><time>2026-03-22T16:51:01.999Z</time></trkpt><trkpt lat="43.56489872402335" lon="1.520841892211379"><ele>151.0</ele><time>2026-03-22T16:51:02.999Z</time></trkpt><trkpt lat="43.56485997367738" lon="1.5209548273511424"><ele>151.0</ele><time>2026-03-22T16:51:04.999Z</time></trkpt><trkpt lat="43.565015437057866" lon="1.52105487079654"><ele>151.0</ele><time>2026-03-22T16:51:06.999Z</time></trkpt><trkpt lat="43.56510693294387" lon="1.5209281546700169"><ele>151.0</ele><time>2026-03-22T16:51:09.999Z</time></trkpt><trkpt lat="43.56514686148579" lon="1.5208518508473892"><ele>151.0</ele><time>2026-03-22T16:51:12.999Z</time></trkpt><trkpt lat="43.56518485162298" lon="1.5207613701710248"><ele>151.0</ele><time>2026-03-22T16:51:17.999Z</time></trkpt><trkpt lat="43.56523396325851" lon="1.520628591696884"><ele>151.0</ele><time>2026-03-22T16:51:20.999Z</time></trkpt><trkpt lat="43.56526365479902" lon="1.5205198332856773"><ele>151.0</ele><time>2026-03-22T16:51:22.999Z</time></trkpt><trkpt lat="43.56529483323055" lon="1.52038787219059"><ele>151.0</ele><time>2026-03-22T16:51:24.999Z</time></trkpt><trkpt lat="43.56521532896977" lon="1.5203431568767685"><ele>151.0</ele><time>2026-03-22T16:51:26.999Z</time></trkpt><trkpt lat="43.565169995905244" lon="1.520428112530053"><ele>151.0</ele><time>2026-03-22T16:51:29Z</time></trkpt><trkpt lat="43.56517240204091" lon="1.520524768767185"><ele>151.0</ele><time>2026-03-22T16:51:37Z</time></trkpt><trkpt lat="43.565229958575884" lon="1.5205716625110735"><ele>151.0</ele><time>2026-03-22T16:55:34.999Z</time></trkpt><trkpt lat="43.565218074226564" lon="1.5206675549941873"><ele>151.0</ele><time>2026-03-22T16:55:37.999Z</time></trkpt><trkpt lat="43.56515495597071" lon="1.5207205449841492"><ele>151.0</ele><time>2026-03-22T16:55:39.999Z</time></trkpt><trkpt lat="43.56507793591617" lon="1.520666682727927"><ele>151.0</ele><time>2026-03-22T16:55:42Z</time></trkpt><trkpt lat="43.56504797345523" lon="1.5205851502829208"><ele>151.0</ele><time>2026-03-22T16:55:43Z</time></trkpt><trkpt lat="43.565065293226084" lon="1.5204877100051106"><ele>151.0</ele><time>2026-03-22T16:55:44Z</time></trkpt><trkpt lat="43.56511759353246" lon="1.52036717251104"><ele>150.8</ele><time>2026-03-22T16:55:45Z</time></trkpt><trkpt lat="43.56515890990903" lon="1.5202523447448626"><ele>150.6</ele><time>2026-03-22T16:55:46Z</time></trkpt><trkpt lat="43.565213363806336" lon="1.5201107137492316"><ele>150.4</ele><time>2026-03-22T16:55:47Z</time></trkpt><trkpt lat="43.56525265747101" lon="1.5199598222419284"><ele>150.2</ele><time>2026-03-22T16:55:48Z</time></trkpt><trkpt lat="43.565275179764356" lon="1.5198115367332754"><ele>150.0</ele><time>2026-03-22T16:55:49Z</time></trkpt><trkpt lat="43.5653208265381" lon="1.5197088765999638"><ele>149.66666666666666</ele><time>2026-03-22T16:55:50Z</time></trkpt><trkpt lat="43.56536410065795" lon="1.5196280241589386"><ele>149.33333333333334</ele><time>2026-03-22T16:55:51Z</time></trkpt><trkpt lat="43.56544306646982" lon="1.5195813327232626"><ele>149.0</ele><time>2026-03-22T16:55:52Z</time></trkpt><trkpt lat="43.565504753253435" lon="1.5194897689680493"><ele>148.66666666666669</ele><time>2026-03-22T16:55:53Z</time></trkpt><trkpt lat="43.56553680983023" lon="1.5193951883560286"><ele>148.33333333333334</ele><time>2026-03-22T16:55:54Z</time></trkpt><trkpt lat="43.56553809485963" lon="1.5192992511910015"><ele>148.0</ele><time>2026-03-22T16:55:55Z</time></trkpt><trkpt lat="43.565506750630554" lon="1.5192202529699417"><ele>148.0</ele><time>2026-03-22T16:55:56Z</time></trkpt><trkpt lat="43.56544848010931" lon="1.51914618035865"><ele>148.0</ele><time>2026-03-22T16:55:57Z</time></trkpt><trkpt lat="43.56537544478321" lon="1.5191180267805635"><ele>148.0</ele><time>2026-03-22T16:55:58Z</time></trkpt><trkpt lat="43.565296734713655" lon="1.5191310109451104"><ele>148.0</ele><time>2026-03-22T16:55:59Z</time></trkpt><trkpt lat="43.56522747573638" lon="1.5191780495433376"><ele>148.0</ele><time>2026-03-22T16:56:00Z</time></trkpt><trkpt lat="43.5651318419814" lon="1.5192272152993642"><ele>148.0</ele><time>2026-03-22T16:56:01Z</time></trkpt><trkpt lat="43.56502091791135" lon="1.519226629102433"><ele>148.33333333333334</ele><time>2026-03-22T16:56:02Z</time></trkpt><trkpt lat="43.56490607067399" lon="1.5191787149435527"><ele>148.66666666666666</ele><time>2026-03-22T16:56:03Z</time></trkpt><trkpt lat="43.56475335465148" lon="1.5190911143809194"><ele>149.0</ele><time>2026-03-22T16:56:04Z</time></trkpt><trkpt lat="43.564595602859534" lon="1.5190095875736043"><ele>150.0</ele><time>2026-03-22T16:56:05Z</time></trkpt><trkpt lat="43.56445693655309" lon="1.5189211110288183"><ele>151.0</ele><time>2026-03-22T16:56:06Z</time></trkpt><trkpt lat="43.56431535837601" lon="1.5188144981386276"><ele>152.0</ele><time>2026-03-22T16:56:07Z</time></trkpt><trkpt lat="43.56418726664465" lon="1.5187373043790104"><ele>152.0</ele><time>2026-03-22T16:56:08Z</time></trkpt><trkpt lat="43.5640782394698" lon="1.5186777348504243"><ele>152.0</ele><time>2026-03-22T16:56:09Z</time></trkpt><trkpt lat="43.56398863384084" lon="1.5186383221769093"><ele>152.0</ele><time>2026-03-22T16:56:10Z</time></trkpt><trkpt lat="43.56391656061339" lon="1.5186067889996655"><ele>152.0</ele><time>2026-03-22T16:56:11Z</time></trkpt><trkpt lat="43.56384768526054" lon="1.51857029748385"><ele>152.0</ele><time>2026-03-22T16:56:12Z</time></trkpt><trkpt lat="43.56378336098171" lon="1.518532099684756"><ele>152.0</ele><time>2026-03-22T16:56:13Z</time></trkpt><trkpt lat="43.56371462804044" lon="1.51849399494407"><ele>152.16666666666666</ele><time>2026-03-22T16:56:14Z</time></trkpt><trkpt lat="43.56365581983434" lon="1.5184320056776368"><ele>152.33333333333331</ele><time>2026-03-22T16:56:15Z</time></trkpt><trkpt lat="43.56359383830847" lon="1.5183748399856005"><ele>152.5</ele><time>2026-03-22T16:56:16Z</time></trkpt><trkpt lat="43.5635399713137" lon="1.5183142639321232"><ele>152.66666666666666</ele><time>2026-03-22T16:56:17Z</time></trkpt><trkpt lat="43.56347229483169" lon="1.5182864604191701"><ele>152.83333333333334</ele><time>2026-03-22T16:56:18Z</time></trkpt><trkpt lat="43.56339188366891" lon="1.5181604438022067"><ele>153.0</ele><time>2026-03-22T16:56:20Z</time></trkpt><trkpt lat="43.56333058687519" lon="1.5180436645456516"><ele>153.0</ele><time>2026-03-22T16:56:22Z</time></trkpt><trkpt lat="43.56324724305336" lon="1.5179356128532964"><ele>153.0</ele><time>2026-03-22T16:56:24Z</time></trkpt><trkpt lat="43.56324452163697" lon="1.5178126355754604"><ele>153.0</ele><time>2026-03-22T16:56:25Z</time></trkpt><trkpt lat="43.56321522144924" lon="1.517712689726473"><ele>153.0</ele><time>2026-03-22T16:56:26Z</time></trkpt><trkpt lat="43.56328347132981" lon="1.5175630950183607"><ele>153.0</ele><time>2026-03-22T16:56:27Z</time></trkpt><trkpt lat="43.56336409588701" lon="1.517377110584171"><ele>153.0</ele><time>2026-03-22T16:56:28Z</time></trkpt><trkpt lat="43.563452560802304" lon="1.5171502617683275"><ele>153.0</ele><time>2026-03-22T16:56:29Z</time></trkpt><trkpt lat="43.563566177600876" lon="1.5168850942198797"><ele>153.0</ele><time>2026-03-22T16:56:30Z</time></trkpt><trkpt lat="43.56369124845015" lon="1.5166202370424713"><ele>152.5</ele><time>2026-03-22T16:56:31Z</time></trkpt><trkpt lat="43.563813143266735" lon="1.5163398220909534"><ele>152.0</ele><time>2026-03-22T16:56:32Z</time></trkpt><trkpt lat="43.563925045647025" lon="1.51607562600043"><ele>152.0</ele><time>2026-03-22T16:56:33Z</time></trkpt><trkpt lat="43.56402366949114" lon="1.5158342287820503"><ele>152.0</ele><time>2026-03-22T16:56:34Z</time></trkpt><trkpt lat="43.56411090111496" lon="1.515617360988756"><ele>152.0</ele><time>2026-03-22T16:56:35Z</time></trkpt><trkpt lat="43.56420411024511" lon="1.5153914646649633"><ele>152.0</ele><time>2026-03-22T16:56:36Z</time></trkpt><trkpt lat="43.564298628272034" lon="1.5151489125538484"><ele>152.0</ele><time>2026-03-22T16:56:37Z</time></trkpt><trkpt lat="43.56442412387997" lon="1.5148978469512882"><ele>152.0</ele><time>2026-03-22T16:56:38Z</time></trkpt><trkpt lat="43.56451954340091" lon="1.514687259548819"><ele>151.75</ele><time>2026-03-22T16:56:39Z</time></trkpt><trkpt lat="43.56460647661415" lon="1.5145205711134893"><ele>151.5</ele><time>2026-03-22T16:56:40Z</time></trkpt><trkpt lat="43.56468319456949" lon="1.5143523729992414"><ele>151.25</ele><time>2026-03-22T16:56:41Z</time></trkpt><trkpt lat="43.564753558511576" lon="1.514189530249889"><ele>151.0</ele><time>2026-03-22T16:56:42Z</time></trkpt><trkpt lat="43.56484522480206" lon="1.514036817608424"><ele>151.0</ele><time>2026-03-22T16:56:43Z</time></trkpt><trkpt lat="43.56491913453316" lon="1.513923124274575"><ele>151.0</ele><time>2026-03-22T16:56:44Z</time></trkpt><trkpt lat="43.56498520312308" lon="1.5138412827227117"><ele>151.0</ele><time>2026-03-22T16:56:45Z</time></trkpt><trkpt lat="43.56504071257886" lon="1.513781345682293"><ele>151.0</ele><time>2026-03-22T16:56:46Z</time></trkpt><trkpt lat="43.5651072392356" lon="1.5137621657611333"><ele>151.0</ele><time>2026-03-22T16:56:47Z</time></trkpt><trkpt lat="43.565164683538676" lon="1.5137189912778677"><ele>151.0</ele><time>2026-03-22T16:56:48Z</time></trkpt><trkpt lat="43.56522517554385" lon="1.5136820496761403"><ele>151.0</ele><time>2026-03-22T16:56:49Z</time></trkpt><trkpt lat="43.56529460884408" lon="1.5136654143525095"><ele>151.0</ele><time>2026-03-22T16:56:50Z</time></trkpt><trkpt lat="43.56537383707996" lon="1.5136044810278524"><ele>151.0</ele><time>2026-03-22T16:56:51Z</time></trkpt><trkpt lat="43.56540568714921" lon="1.5135092308948297"><ele>151.0</ele><time>2026-03-22T16:56:52Z</time></trkpt><trkpt lat="43.565416050003954" lon="1.5134174744579323"><ele>151.0</ele><time>2026-03-22T16:56:53Z</time></trkpt><trkpt lat="43.56540053489885" lon="1.5133154889877425"><ele>151.0</ele><time>2026-03-22T16:56:54Z</time></trkpt><trkpt lat="43.565362465545775" lon="1.5132263968844564"><ele>151.0</ele><time>2026-03-22T16:56:55Z</time></trkpt><trkpt lat="43.56530390598468" lon="1.5131485884783433"><ele>151.0</ele><time>2026-03-22T16:56:56Z</time></trkpt><trkpt lat="43.56530873768264" lon="1.5129901114941013"><ele>151.0</ele><time>2026-03-22T16:56:57Z</time></trkpt><trkpt lat="43.565297882775965" lon="1.512875629336786"><ele>151.0</ele><time>2026-03-22T16:56:58Z</time></trkpt><trkpt lat="43.56535329631567" lon="1.5127277952648448"><ele>151.0</ele><time>2026-03-22T16:56:59Z</time></trkpt><trkpt lat="43.565417606369124" lon="1.512565956624373"><ele>149.75</ele><time>2026-03-22T16:57:00Z</time></trkpt><trkpt lat="43.56548094602186" lon="1.512417797220465"><ele>148.5</ele><time>2026-03-22T16:57:01Z</time></trkpt><trkpt lat="43.56555035441391" lon="1.5122558247655704"><ele>147.25</ele><time>2026-03-22T16:57:02Z</time></trkpt><trkpt lat="43.56561236788732" lon="1.512105159245771"><ele>146.0</ele><time>2026-03-22T16:57:03Z</time></trkpt><trkpt lat="43.56566967682693" lon="1.5119648150893943"><ele>146.0</ele><time>2026-03-22T16:57:04Z</time></trkpt><trkpt lat="43.56572045182232" lon="1.5118153873101179"><ele>146.0</ele><time>2026-03-22T16:57:05Z</time></trkpt><trkpt lat="43.565784874516666" lon="1.511641435185293"><ele>146.0</ele><time>2026-03-22T16:57:06Z</time></trkpt><trkpt lat="43.56584011799491" lon="1.5114757867816717"><ele>146.0</ele><time>2026-03-22T16:57:07Z</time></trkpt><trkpt lat="43.56590638289556" lon="1.5113198949240678"><ele>146.75</ele><time>2026-03-22T16:57:08Z</time></trkpt><trkpt lat="43.56595852048055" lon="1.5111578897526818"><ele>147.5</ele><time>2026-03-22T16:57:09Z</time></trkpt><trkpt lat="43.56601275541359" lon="1.5109979479354643"><ele>148.25</ele><time>2026-03-22T16:57:09.999Z</time></trkpt><trkpt lat="43.5660612606011" lon="1.5108433757149524"><ele>149.0</ele><time>2026-03-22T16:57:10.999Z</time></trkpt><trkpt lat="43.566112000386916" lon="1.5106973469860485"><ele>149.0</ele><time>2026-03-22T16:57:11.999Z</time></trkpt><trkpt lat="43.56616573491897" lon="1.5105373642252915"><ele>149.0</ele><time>2026-03-22T16:57:12.999Z</time></trkpt><trkpt lat="43.56620247717111" lon="1.5104150091370183"><ele>149.0</ele><time>2026-03-22T16:57:13.999Z</time></trkpt><trkpt lat="43.566235023884346" lon="1.5103232797276358"><ele>149.0</ele><time>2026-03-22T16:57:14.999Z</time></trkpt><trkpt lat="43.5662761378931" lon="1.5101914849735012"><ele>149.0</ele><time>2026-03-22T16:57:15.999Z</time></trkpt><trkpt lat="43.56631056842064" lon="1.510069778855523"><ele>148.8</ele><time>2026-03-22T16:57:16.999Z</time></trkpt><trkpt lat="43.56635486521579" lon="1.509944338104756"><ele>148.60000000000002</ele><time>2026-03-22T16:57:17.999Z</time></trkpt><trkpt lat="43.566398118918045" lon="1.5098206499373692"><ele>148.4</ele><time>2026-03-22T16:57:18.999Z</time></trkpt><trkpt lat="43.5664389367092" lon="1.5097001842717968"><ele>148.20000000000002</ele><time>2026-03-22T16:57:19.999Z</time></trkpt><trkpt lat="43.56647752935868" lon="1.5095746949553894"><ele>148.0</ele><time>2026-03-22T16:57:20.999Z</time></trkpt><trkpt lat="43.56650643098914" lon="1.5094794135476934"><ele>148.0</ele><time>2026-03-22T16:57:21.999Z</time></trkpt><trkpt lat="43.5665330960301" lon="1.509393360241694"><ele>148.0</ele><time>2026-03-22T16:57:22.999Z</time></trkpt><trkpt lat="43.56658242292538" lon="1.50924801827244"><ele>148.0</ele><time>2026-03-22T16:57:24.999Z</time></trkpt><trkpt lat="43.566635129098344" lon="1.5091445209718386"><ele>148.0</ele><time>2026-03-22T16:57:26.999Z</time></trkpt><trkpt lat="43.56670565355959" lon="1.509028072261232"><ele>148.0</ele><time>2026-03-22T16:57:28.999Z</time></trkpt><trkpt lat="43.56675789982712" lon="1.5089649757297348"><ele>148.0</ele><time>2026-03-22T16:57:29.999Z</time></trkpt><trkpt lat="43.56681063607826" lon="1.5088843670783"><ele>148.0</ele><time>2026-03-22T16:57:30.999Z</time></trkpt><trkpt lat="43.56682588177176" lon="1.5087777488493606"><ele>148.0</ele><time>2026-03-22T16:57:31.999Z</time></trkpt><trkpt lat="43.56681961131785" lon="1.5086697761404142"><ele>148.0</ele><time>2026-03-22T16:57:32.999Z</time></trkpt><trkpt lat="43.56681800306864" lon="1.5085476580103805"><ele>148.0</ele><time>2026-03-22T16:57:33.999Z</time></trkpt><trkpt lat="43.566833388889144" lon="1.5084252187134022"><ele>148.0</ele><time>2026-03-22T16:57:34.999Z</time></trkpt><trkpt lat="43.5668692728032" lon="1.5083066200704724"><ele>148.0</ele><time>2026-03-22T16:57:35.999Z</time></trkpt><trkpt lat="43.566915680286485" lon="1.508183074753413"><ele>148.0</ele><time>2026-03-22T16:57:36.999Z</time></trkpt><trkpt lat="43.56695355362857" lon="1.50808223951185"><ele>148.0</ele><time>2026-03-22T16:57:37.999Z</time></trkpt><trkpt lat="43.566990667211684" lon="1.5079915742766419"><ele>148.0</ele><time>2026-03-22T16:57:38.999Z</time></trkpt><trkpt lat="43.567021488935396" lon="1.5079102858467728"><ele>148.0</ele><time>2026-03-22T16:57:39.999Z</time></trkpt><trkpt lat="43.56708594191539" lon="1.5077640965138466"><ele>148.0</ele><time>2026-03-22T16:57:41.999Z</time></trkpt><trkpt lat="43.56713510388721" lon="1.5076947589014587"><ele>147.6</ele><time>2026-03-22T16:57:42.999Z</time></trkpt><trkpt lat="43.56715112734109" lon="1.5075972628020256"><ele>147.20000000000002</ele><time>2026-03-22T16:57:43.999Z</time></trkpt><trkpt lat="43.56720886849848" lon="1.5074420669989987"><ele>146.8</ele><time>2026-03-22T16:57:45.999Z</time></trkpt><trkpt lat="43.56723977138304" lon="1.5073576467191145"><ele>146.4</ele><time>2026-03-22T16:57:47Z</time></trkpt><trkpt lat="43.56729851641617" lon="1.507211684029711"><ele>146.0</ele><time>2026-03-22T16:57:49Z</time></trkpt><trkpt lat="43.56734131168889" lon="1.5071323385966804"><ele>146.5</ele><time>2026-03-22T16:57:50Z</time></trkpt><trkpt lat="43.56739709600365" lon="1.507056655403086"><ele>147.0</ele><time>2026-03-22T16:57:51Z</time></trkpt><trkpt lat="43.567460515920175" lon="1.5069660710932682"><ele>147.5</ele><time>2026-03-22T16:57:52Z</time></trkpt><trkpt lat="43.567522275199295" lon="1.506894713567275"><ele>148.0</ele><time>2026-03-22T16:57:53Z</time></trkpt><trkpt lat="43.56757060535102" lon="1.506805518666765"><ele>148.5</ele><time>2026-03-22T16:57:54Z</time></trkpt><trkpt lat="43.56760381234904" lon="1.5066955978791439"><ele>149.0</ele><time>2026-03-22T16:57:55Z</time></trkpt><trkpt lat="43.56762066182954" lon="1.5065747669377076"><ele>149.0</ele><time>2026-03-22T16:57:56Z</time></trkpt><trkpt lat="43.56763202283079" lon="1.5064603648657495"><ele>149.0</ele><time>2026-03-22T16:57:57Z</time></trkpt><trkpt lat="43.56764167221376" lon="1.5063483458917657"><ele>149.0</ele><time>2026-03-22T16:57:58Z</time></trkpt><trkpt lat="43.56765613858186" lon="1.506229351174998"><ele>149.0</ele><time>2026-03-22T16:57:59Z</time></trkpt><trkpt lat="43.567680656467665" lon="1.5061355831400751"><ele>149.0</ele><time>2026-03-22T16:58:00Z</time></trkpt><trkpt lat="43.56772381586646" lon="1.5060578789435681"><ele>149.0</ele><time>2026-03-22T16:58:01Z</time></trkpt><trkpt lat="43.56777291899481" lon="1.505959089973056"><ele>149.0</ele><time>2026-03-22T16:58:02Z</time></trkpt><trkpt lat="43.56780784105591" lon="1.5058635994159835"><ele>149.0</ele><time>2026-03-22T16:58:03Z</time></trkpt><trkpt lat="43.56784191635349" lon="1.5057719929490083"><ele>149.0</ele><time>2026-03-22T16:58:04Z</time></trkpt><trkpt lat="43.567878567108615" lon="1.5056717333050904"><ele>149.0</ele><time>2026-03-22T16:58:05Z</time></trkpt><trkpt lat="43.56791541762607" lon="1.5055865643756428"><ele>149.0</ele><time>2026-03-22T16:58:06Z</time></trkpt><trkpt lat="43.56795057253294" lon="1.5055098141507914"><ele>149.0</ele><time>2026-03-22T16:58:07Z</time></trkpt><trkpt lat="43.56800397152539" lon="1.5054318186928413"><ele>149.0</ele><time>2026-03-22T16:58:08Z</time></trkpt><trkpt lat="43.56804056483157" lon="1.5053505331423378"><ele>149.0</ele><time>2026-03-22T16:58:09Z</time></trkpt><trkpt lat="43.56809551481587" lon="1.5052673282646976"><ele>149.0</ele><time>2026-03-22T16:58:10Z</time></trkpt><trkpt lat="43.56814113857987" lon="1.5051682961934099"><ele>149.0</ele><time>2026-03-22T16:58:11Z</time></trkpt><trkpt lat="43.5681918589804" lon="1.5051020588739823"><ele>149.0</ele><time>2026-03-22T16:58:12Z</time></trkpt><trkpt lat="43.568296799605" lon="1.5049376342321426"><ele>149.0</ele><time>2026-03-22T16:58:14Z</time></trkpt><trkpt lat="43.56834573932857" lon="1.5048460778380919"><ele>149.0</ele><time>2026-03-22T16:58:15Z</time></trkpt><trkpt lat="43.568386447572394" lon="1.5047571224182141"><ele>149.0</ele><time>2026-03-22T16:58:16Z</time></trkpt><trkpt lat="43.56843508793179" lon="1.504612269428087"><ele>149.0</ele><time>2026-03-22T16:58:18Z</time></trkpt><trkpt lat="43.56848601981528" lon="1.5044922001867906"><ele>149.0</ele><time>2026-03-22T16:58:20Z</time></trkpt><trkpt lat="43.56853441244804" lon="1.5044118559133663"><ele>149.0</ele><time>2026-03-22T16:58:29Z</time></trkpt><trkpt lat="43.56859849793336" lon="1.5042905178601103"><ele>149.0</ele><time>2026-03-22T16:58:31Z</time></trkpt><trkpt lat="43.568637810479814" lon="1.504206190021998"><ele>149.0</ele><time>2026-03-22T16:58:32Z</time></trkpt><trkpt lat="43.56868764654079" lon="1.5041196980252125"><ele>149.0</ele><time>2026-03-22T16:58:33Z</time></trkpt><trkpt lat="43.56872971363646" lon="1.5040307081598747"><ele>149.0</ele><time>2026-03-22T16:58:34Z</time></trkpt><trkpt lat="43.56877184887395" lon="1.503926766049299"><ele>149.0</ele><time>2026-03-22T16:58:35Z</time></trkpt><trkpt lat="43.568819215147734" lon="1.5038359901478373"><ele>149.0</ele><time>2026-03-22T16:58:36Z</time></trkpt><trkpt lat="43.56886634867311" lon="1.503747006476788"><ele>149.0</ele><time>2026-03-22T16:58:37Z</time></trkpt><trkpt lat="43.56890134053189" lon="1.5036487581336662"><ele>149.0</ele><time>2026-03-22T16:58:38Z</time></trkpt><trkpt lat="43.56895048081507" lon="1.5035656450653696"><ele>149.0</ele><time>2026-03-22T16:58:39Z</time></trkpt><trkpt lat="43.568993535463186" lon="1.5034869854529311"><ele>149.0</ele><time>2026-03-22T16:58:40Z</time></trkpt><trkpt lat="43.56904371939102" lon="1.5033810684845288"><ele>149.0</ele><time>2026-03-22T16:58:41Z</time></trkpt><trkpt lat="43.56909461441969" lon="1.5032686357932865"><ele>149.0</ele><time>2026-03-22T16:58:42Z</time></trkpt><trkpt lat="43.56913805988769" lon="1.5031709539750826"><ele>149.0</ele><time>2026-03-22T16:58:43Z</time></trkpt><trkpt lat="43.5691745878416" lon="1.5030932792356695"><ele>149.0</ele><time>2026-03-22T16:58:44Z</time></trkpt><trkpt lat="43.56921883185517" lon="1.5029909381794089"><ele>149.0</ele><time>2026-03-22T16:58:45Z</time></trkpt><trkpt lat="43.569271187417066" lon="1.5028782604396003"><ele>149.0</ele><time>2026-03-22T16:58:46Z</time></trkpt><trkpt lat="43.569315255897635" lon="1.502771150812969"><ele>149.0</ele><time>2026-03-22T16:58:47Z</time></trkpt><trkpt lat="43.56936274038585" lon="1.5026622143294035"><ele>149.0</ele><time>2026-03-22T16:58:48Z</time></trkpt><trkpt lat="43.56940826676616" lon="1.502547097580682"><ele>148.8</ele><time>2026-03-22T16:58:49Z</time></trkpt><trkpt lat="43.569461130188536" lon="1.5024288237393177"><ele>148.60000000000002</ele><time>2026-03-22T16:58:50Z</time></trkpt><trkpt lat="43.56952358699055" lon="1.5023055867674875"><ele>148.4</ele><time>2026-03-22T16:58:51Z</time></trkpt><trkpt lat="43.56958186586509" lon="1.5021847404350679"><ele>148.20000000000002</ele><time>2026-03-22T16:58:52Z</time></trkpt><trkpt lat="43.56963166314682" lon="1.502079935210044"><ele>148.0</ele><time>2026-03-22T16:58:53Z</time></trkpt><trkpt lat="43.569682035360586" lon="1.5019684373969917"><ele>148.0</ele><time>2026-03-22T16:58:54Z</time></trkpt><trkpt lat="43.56972495551477" lon="1.5018652953353904"><ele>148.0</ele><time>2026-03-22T16:58:55Z</time></trkpt><trkpt lat="43.56977368253955" lon="1.5017536100509128"><ele>148.0</ele><time>2026-03-22T16:58:56Z</time></trkpt><trkpt lat="43.569812695771894" lon="1.5016613527849458"><ele>148.0</ele><time>2026-03-22T16:58:57Z</time></trkpt><trkpt lat="43.56984902811938" lon="1.5015813092249282"><ele>148.0</ele><time>2026-03-22T16:58:58Z</time></trkpt><trkpt lat="43.569887664193566" lon="1.5014956160573865"><ele>148.0</ele><time>2026-03-22T16:58:59Z</time></trkpt><trkpt lat="43.569921464102485" lon="1.5014145330119464"><ele>148.0</ele><time>2026-03-22T16:59:00Z</time></trkpt><trkpt lat="43.569940444624585" lon="1.501329535988905"><ele>148.0</ele><time>2026-03-22T16:59:01Z</time></trkpt><trkpt lat="43.56997340826619" lon="1.5012388903643146"><ele>148.0</ele><time>2026-03-22T16:59:02Z</time></trkpt><trkpt lat="43.57001610436879" lon="1.5011524581253912"><ele>148.0</ele><time>2026-03-22T16:59:03Z</time></trkpt><trkpt lat="43.570057681536156" lon="1.5010627969007557"><ele>148.0</ele><time>2026-03-22T16:59:04Z</time></trkpt><trkpt lat="43.57010343658444" lon="1.5009600840377673"><ele>148.0</ele><time>2026-03-22T16:59:05Z</time></trkpt><trkpt lat="43.570148474275584" lon="1.5008527663267814"><ele>148.20000000000002</ele><time>2026-03-22T16:59:06Z</time></trkpt><trkpt lat="43.57021308904341" lon="1.5007461333340164"><ele>148.4</ele><time>2026-03-22T16:59:07Z</time></trkpt><trkpt lat="43.570274708623025" lon="1.5006180077375797"><ele>148.60000000000002</ele><time>2026-03-22T16:59:08Z</time></trkpt><trkpt lat="43.570333668355204" lon="1.5004803170474355"><ele>148.8</ele><time>2026-03-22T16:59:09Z</time></trkpt><trkpt lat="43.57038564668084" lon="1.5003447273902546"><ele>149.0</ele><time>2026-03-22T16:59:10Z</time></trkpt><trkpt lat="43.5704420514869" lon="1.5002115294601852"><ele>148.2</ele><time>2026-03-22T16:59:11Z</time></trkpt><trkpt lat="43.57049405120637" lon="1.5000875624889642"><ele>147.4</ele><time>2026-03-22T16:59:12Z</time></trkpt><trkpt lat="43.57054126065378" lon="1.4999716751176058"><ele>146.6</ele><time>2026-03-22T16:59:12.999Z</time></trkpt><trkpt lat="43.57058398794288" lon="1.4998709171462077"><ele>145.8</ele><time>2026-03-22T16:59:13.999Z</time></trkpt><trkpt lat="43.57062405991117" lon="1.499781068211723"><ele>145.0</ele><time>2026-03-22T16:59:14.999Z</time></trkpt><trkpt lat="43.57070699993241" lon="1.4996352813625753"><ele>145.4</ele><time>2026-03-22T16:59:16.999Z</time></trkpt><trkpt lat="43.570779385721174" lon="1.4994995061899952"><ele>145.8</ele><time>2026-03-22T16:59:17.999Z</time></trkpt><trkpt lat="43.57083763453771" lon="1.499346568358632"><ele>146.2</ele><time>2026-03-22T16:59:18.999Z</time></trkpt><trkpt lat="43.57089828850876" lon="1.4992302792669945"><ele>146.6</ele><time>2026-03-22T16:59:19.999Z</time></trkpt><trkpt lat="43.57094557452288" lon="1.4991205405213606"><ele>147.0</ele><time>2026-03-22T16:59:20.999Z</time></trkpt><trkpt lat="43.57099030545544" lon="1.4990205329024162"><ele>147.0</ele><time>2026-03-22T16:59:21.999Z</time></trkpt><trkpt lat="43.57103333504268" lon="1.4989315128020169"><ele>147.0</ele><time>2026-03-22T16:59:22.999Z</time></trkpt><trkpt lat="43.57108585364181" lon="1.4988483260265124"><ele>147.0</ele><time>2026-03-22T16:59:23.999Z</time></trkpt><trkpt lat="43.571132880855465" lon="1.4987802491537023"><ele>147.0</ele><time>2026-03-22T16:59:24.999Z</time></trkpt><trkpt lat="43.5711826466539" lon="1.498721420536749"><ele>147.0</ele><time>2026-03-22T16:59:25.999Z</time></trkpt><trkpt lat="43.571255993379864" lon="1.4986218383495191"><ele>147.0</ele><time>2026-03-22T16:59:27.999Z</time></trkpt><trkpt lat="43.57129158798264" lon="1.4985316722225843"><ele>146.79999999999998</ele><time>2026-03-22T16:59:28.999Z</time></trkpt><trkpt lat="43.571316485251785" lon="1.4983996263943415"><ele>146.6</ele><time>2026-03-22T16:59:29.999Z</time></trkpt><trkpt lat="43.57137359150438" lon="1.4982616884512259"><ele>146.39999999999998</ele><time>2026-03-22T16:59:30.999Z</time></trkpt><trkpt lat="43.57142897939098" lon="1.49813253082442"><ele>146.2</ele><time>2026-03-22T16:59:31.999Z</time></trkpt><trkpt lat="43.571481105013675" lon="1.4979929683575217"><ele>146.0</ele><time>2026-03-22T16:59:32.999Z</time></trkpt><trkpt lat="43.57156015196465" lon="1.4977958715662478"><ele>146.0</ele><time>2026-03-22T16:59:33.999Z</time></trkpt><trkpt lat="43.5716631264004" lon="1.4975684677421202"><ele>146.0</ele><time>2026-03-22T16:59:34.999Z</time></trkpt><trkpt lat="43.57176070080664" lon="1.4973238823889947"><ele>146.0</ele><time>2026-03-22T16:59:35.999Z</time></trkpt><trkpt lat="43.57183870418283" lon="1.4971171256348283"><ele>146.25</ele><time>2026-03-22T16:59:36.999Z</time></trkpt><trkpt lat="43.571903718789876" lon="1.4969398619041223"><ele>146.5</ele><time>2026-03-22T16:59:37.999Z</time></trkpt><trkpt lat="43.57196669259836" lon="1.4967836647087638"><ele>146.75</ele><time>2026-03-22T16:59:38.999Z</time></trkpt><trkpt lat="43.57201810049301" lon="1.4966388260647085"><ele>147.0</ele><time>2026-03-22T16:59:39.999Z</time></trkpt><trkpt lat="43.57206432561215" lon="1.4965094628468065"><ele>146.6</ele><time>2026-03-22T16:59:40.999Z</time></trkpt><trkpt lat="43.57210065324772" lon="1.4963906307729566"><ele>146.2</ele><time>2026-03-22T16:59:41.999Z</time></trkpt><trkpt lat="43.57213702042554" lon="1.4962776877497126"><ele>145.8</ele><time>2026-03-22T16:59:42.999Z</time></trkpt><trkpt lat="43.57217666739178" lon="1.4961667618534888"><ele>145.4</ele><time>2026-03-22T16:59:43.999Z</time></trkpt><trkpt lat="43.57222930083208" lon="1.49602893664149"><ele>145.0</ele><time>2026-03-22T16:59:44.999Z</time></trkpt><trkpt lat="43.57227130608394" lon="1.4959206942883139"><ele>144.83333333333334</ele><time>2026-03-22T16:59:45.999Z</time></trkpt><trkpt lat="43.57230837456661" lon="1.4958257446360919"><ele>144.66666666666669</ele><time>2026-03-22T16:59:46.999Z</time></trkpt><trkpt lat="43.57234237413685" lon="1.4957339614232565"><ele>144.5</ele><time>2026-03-22T16:59:47.999Z</time></trkpt><trkpt lat="43.57238910882339" lon="1.4956530368543064"><ele>144.33333333333334</ele><time>2026-03-22T16:59:48.999Z</time></trkpt><trkpt lat="43.57245535304263" lon="1.4956028191764856"><ele>144.16666666666666</ele><time>2026-03-22T16:59:49.999Z</time></trkpt><trkpt lat="43.572541307816664" lon="1.4955811158195211"><ele>144.0</ele><time>2026-03-22T16:59:50.999Z</time></trkpt><trkpt lat="43.572662098781784" lon="1.4955954264446205"><ele>144.0</ele><time>2026-03-22T16:59:51.999Z</time></trkpt><trkpt lat="43.57281983118807" lon="1.4956445344731195"><ele>144.0</ele><time>2026-03-22T16:59:52.999Z</time></trkpt><trkpt lat="43.57301794687762" lon="1.4957336194453854"><ele>144.0</ele><time>2026-03-22T16:59:53.999Z</time></trkpt><trkpt lat="43.573223832662315" lon="1.495815349530229"><ele>144.0</ele><time>2026-03-22T16:59:54.999Z</time></trkpt><trkpt lat="43.57343852038673" lon="1.495891300789148"><ele>144.0</ele><time>2026-03-22T16:59:55.999Z</time></trkpt><trkpt lat="43.57362792793409" lon="1.4959619874861578"><ele>144.0</ele><time>2026-03-22T16:59:56.999Z</time></trkpt><trkpt lat="43.57379538535771" lon="1.4960295183782886"><ele>144.0</ele><time>2026-03-22T16:59:57.999Z</time></trkpt><trkpt lat="43.573965793562266" lon="1.49610134326499"><ele>144.0</ele><time>2026-03-22T16:59:58.999Z</time></trkpt><trkpt lat="43.5741323076846" lon="1.4961687028394721"><ele>144.0</ele><time>2026-03-22T16:59:59.999Z</time></trkpt><trkpt lat="43.57429277775251" lon="1.4962430275245933"><ele>143.66666666666666</ele><time>2026-03-22T17:00:00.999Z</time></trkpt><trkpt lat="43.574439413580436" lon="1.496323979359714"><ele>143.33333333333331</ele><time>2026-03-22T17:00:01.999Z</time></trkpt><trkpt lat="43.57459543573993" lon="1.496413089479318"><ele>143.0</ele><time>2026-03-22T17:00:02.999Z</time></trkpt><trkpt lat="43.574769976203584" lon="1.4965087816411624"><ele>143.0</ele><time>2026-03-22T17:00:03.999Z</time></trkpt><trkpt lat="43.57494010394934" lon="1.4966123204258615"><ele>143.0</ele><time>2026-03-22T17:00:04.999Z</time></trkpt><trkpt lat="43.575112195287055" lon="1.4967224344364023"><ele>143.0</ele><time>2026-03-22T17:00:05.999Z</time></trkpt><trkpt lat="43.57528711236701" lon="1.4968348271331873"><ele>143.66666666666666</ele><time>2026-03-22T17:00:06.999Z</time></trkpt><trkpt lat="43.575468110643335" lon="1.496949871557318"><ele>144.33333333333334</ele><time>2026-03-22T17:00:07.999Z</time></trkpt><trkpt lat="43.57567169257521" lon="1.497055754582381"><ele>145.0</ele><time>2026-03-22T17:00:09Z</time></trkpt><trkpt lat="43.57587022616519" lon="1.497163337848462"><ele>145.0</ele><time>2026-03-22T17:00:10Z</time></trkpt><trkpt lat="43.576074004918986" lon="1.4972720551747518"><ele>145.0</ele><time>2026-03-22T17:00:11Z</time></trkpt><trkpt lat="43.57627161195829" lon="1.4973793824562711"><ele>145.0</ele><time>2026-03-22T17:00:12Z</time></trkpt><trkpt lat="43.57645739147072" lon="1.4974768184459333"><ele>144.0</ele><time>2026-03-22T17:00:13Z</time></trkpt><trkpt lat="43.57667792422305" lon="1.4975720441641664"><ele>143.0</ele><time>2026-03-22T17:00:14Z</time></trkpt><trkpt lat="43.57691663449528" lon="1.497677416864054"><ele>143.5</ele><time>2026-03-22T17:00:15Z</time></trkpt><trkpt lat="43.57717698145269" lon="1.4977916220271097"><ele>144.0</ele><time>2026-03-22T17:00:16Z</time></trkpt><trkpt lat="43.577439121357884" lon="1.497906773807389"><ele>143.5</ele><time>2026-03-22T17:00:17Z</time></trkpt><trkpt lat="43.577688171534014" lon="1.498001824798606"><ele>143.0</ele><time>2026-03-22T17:00:18Z</time></trkpt><trkpt lat="43.577938462142164" lon="1.498080089528768"><ele>142.5</ele><time>2026-03-22T17:00:19Z</time></trkpt><trkpt lat="43.57819133635406" lon="1.4981481283735543"><ele>142.0</ele><time>2026-03-22T17:00:20Z</time></trkpt><trkpt lat="43.57846197906996" lon="1.498207693464535"><ele>142.5</ele><time>2026-03-22T17:00:21Z</time></trkpt><trkpt lat="43.57874315251175" lon="1.498257173507017"><ele>143.0</ele><time>2026-03-22T17:00:22Z</time></trkpt><trkpt lat="43.57902939347207" lon="1.4982918156332465"><ele>143.0</ele><time>2026-03-22T17:00:23Z</time></trkpt><trkpt lat="43.57931180490753" lon="1.4983155209024193"><ele>143.0</ele><time>2026-03-22T17:00:24Z</time></trkpt><trkpt lat="43.5795768122078" lon="1.4983269841704328"><ele>144.0</ele><time>2026-03-22T17:00:25Z</time></trkpt><trkpt lat="43.57984903754601" lon="1.4983238521024638"><ele>145.0</ele><time>2026-03-22T17:00:26Z</time></trkpt><trkpt lat="43.58012513185076" lon="1.4983054681429209"><ele>144.0</ele><time>2026-03-22T17:00:27Z</time></trkpt><trkpt lat="43.58039286741567" lon="1.498277365809853"><ele>143.0</ele><time>2026-03-22T17:00:28Z</time></trkpt><trkpt lat="43.58065971606239" lon="1.4982377764242383"><ele>143.0</ele><time>2026-03-22T17:00:29Z</time></trkpt><trkpt lat="43.58092577725552" lon="1.4981872090466672"><ele>143.0</ele><time>2026-03-22T17:00:30Z</time></trkpt><trkpt lat="43.58118558444501" lon="1.4981228248067253"><ele>142.5</ele><time>2026-03-22T17:00:31Z</time></trkpt><trkpt lat="43.58143751991698" lon="1.4980506014182657"><ele>142.0</ele><time>2026-03-22T17:00:32Z</time></trkpt><trkpt lat="43.581684995832575" lon="1.4979731552185498"><ele>142.5</ele><time>2026-03-22T17:00:33Z</time></trkpt><trkpt lat="43.581918103292445" lon="1.497890191549277"><ele>143.0</ele><time>2026-03-22T17:00:34Z</time></trkpt><trkpt lat="43.582144798659705" lon="1.4977983678638818"><ele>143.0</ele><time>2026-03-22T17:00:35Z</time></trkpt><trkpt lat="43.58237275375257" lon="1.4977005153713927"><ele>143.0</ele><time>2026-03-22T17:00:36Z</time></trkpt><trkpt lat="43.58259527722092" lon="1.4976052186189721"><ele>143.0</ele><time>2026-03-22T17:00:37Z</time></trkpt><trkpt lat="43.58280850795837" lon="1.497510426033229"><ele>143.0</ele><time>2026-03-22T17:00:38Z</time></trkpt><trkpt lat="43.583015195869145" lon="1.4974181744389123"><ele>143.0</ele><time>2026-03-22T17:00:39Z</time></trkpt><trkpt lat="43.583238114031566" lon="1.4973159444056332"><ele>142.66666666666666</ele><time>2026-03-22T17:00:40Z</time></trkpt><trkpt lat="43.58345398450454" lon="1.4972232536521253"><ele>142.33333333333334</ele><time>2026-03-22T17:00:41Z</time></trkpt><trkpt lat="43.583665493433564" lon="1.497130514688795"><ele>142.0</ele><time>2026-03-22T17:00:42Z</time></trkpt><trkpt lat="43.58389636058401" lon="1.4970384016208484"><ele>141.66666666666669</ele><time>2026-03-22T17:00:43Z</time></trkpt><trkpt lat="43.584118738880264" lon="1.4969546295105576"><ele>141.33333333333334</ele><time>2026-03-22T17:00:44Z</time></trkpt><trkpt lat="43.58430287135321" lon="1.4968693644210513"><ele>141.0</ele><time>2026-03-22T17:00:45Z</time></trkpt><trkpt lat="43.584489358640404" lon="1.4967964854907057"><ele>140.66666666666666</ele><time>2026-03-22T17:00:46Z</time></trkpt><trkpt lat="43.58467865779518" lon="1.4967216545442228"><ele>140.33333333333331</ele><time>2026-03-22T17:00:47Z</time></trkpt><trkpt lat="43.58487473818119" lon="1.496633607606615"><ele>140.0</ele><time>2026-03-22T17:00:48Z</time></trkpt><trkpt lat="43.5850322761029" lon="1.496543110758216"><ele>140.0</ele><time>2026-03-22T17:00:49Z</time></trkpt><trkpt lat="43.58523167997451" lon="1.4964550397846903"><ele>140.0</ele><time>2026-03-22T17:00:50Z</time></trkpt><trkpt lat="43.585424185577835" lon="1.4963595584793996"><ele>140.0</ele><time>2026-03-22T17:00:51Z</time></trkpt><trkpt lat="43.58566043783962" lon="1.4962586112319505"><ele>140.5</ele><time>2026-03-22T17:00:52Z</time></trkpt><trkpt lat="43.585910022372595" lon="1.4961435176853373"><ele>141.0</ele><time>2026-03-22T17:00:53Z</time></trkpt><trkpt lat="43.58615069276478" lon="1.496038155222165"><ele>140.5</ele><time>2026-03-22T17:00:54Z</time></trkpt><trkpt lat="43.586371319220355" lon="1.4959367258024698"><ele>140.0</ele><time>2026-03-22T17:00:55Z</time></trkpt><trkpt lat="43.5866082720493" lon="1.4958333544750113"><ele>140.0</ele><time>2026-03-22T17:00:56Z</time></trkpt><trkpt lat="43.58684181873386" lon="1.4957347068853293"><ele>140.0</ele><time>2026-03-22T17:00:57Z</time></trkpt><trkpt lat="43.58709098922533" lon="1.4956382247013653"><ele>140.5</ele><time>2026-03-22T17:00:58Z</time></trkpt><trkpt lat="43.5873349921663" lon="1.4955362578823752"><ele>141.0</ele><time>2026-03-22T17:00:59Z</time></trkpt><trkpt lat="43.58757714221798" lon="1.495433359717501"><ele>141.0</ele><time>2026-03-22T17:01:00Z</time></trkpt><trkpt lat="43.58780256505558" lon="1.4953306834749027"><ele>141.0</ele><time>2026-03-22T17:01:01Z</time></trkpt><trkpt lat="43.5880399739854" lon="1.4952239329672572"><ele>141.0</ele><time>2026-03-22T17:01:02Z</time></trkpt><trkpt lat="43.58827904047768" lon="1.4951260802828048"><ele>141.0</ele><time>2026-03-22T17:01:02.999Z</time></trkpt><trkpt lat="43.58850039809975" lon="1.4950294325874995"><ele>140.5</ele><time>2026-03-22T17:01:03.999Z</time></trkpt><trkpt lat="43.58872408497894" lon="1.4949391794003395"><ele>140.0</ele><time>2026-03-22T17:01:04.999Z</time></trkpt><trkpt lat="43.58894841801216" lon="1.49484904704247"><ele>140.0</ele><time>2026-03-22T17:01:05.999Z</time></trkpt><trkpt lat="43.58918104137408" lon="1.4947576473475688"><ele>140.0</ele><time>2026-03-22T17:01:06.999Z</time></trkpt><trkpt lat="43.58942380205018" lon="1.4946738709608913"><ele>140.5</ele><time>2026-03-22T17:01:07.999Z</time></trkpt><trkpt lat="43.58966823323426" lon="1.4945886381913027"><ele>141.0</ele><time>2026-03-22T17:01:08.999Z</time></trkpt><trkpt lat="43.58992195699205" lon="1.4945088229130101"><ele>141.5</ele><time>2026-03-22T17:01:09.999Z</time></trkpt><trkpt lat="43.59020207409193" lon="1.4944188070358255"><ele>142.0</ele><time>2026-03-22T17:01:10.999Z</time></trkpt><trkpt lat="43.5905036617833" lon="1.4943382377158034"><ele>143.0</ele><time>2026-03-22T17:01:11.999Z</time></trkpt><trkpt lat="43.59081403648366" lon="1.4942556781945904"><ele>144.0</ele><time>2026-03-22T17:01:12.999Z</time></trkpt><trkpt lat="43.59111480308417" lon="1.4941701960394662"><ele>143.0</ele><time>2026-03-22T17:01:13.999Z</time></trkpt><trkpt lat="43.5913907413247" lon="1.494094569975004"><ele>142.0</ele><time>2026-03-22T17:01:14.999Z</time></trkpt><trkpt lat="43.59166154088136" lon="1.494030926499241"><ele>142.0</ele><time>2026-03-22T17:01:15.999Z</time></trkpt><trkpt lat="43.59192395187379" lon="1.4939646057221525"><ele>142.0</ele><time>2026-03-22T17:01:16.999Z</time></trkpt><trkpt lat="43.59218938796155" lon="1.4939082285639425"><ele>142.0</ele><time>2026-03-22T17:01:17.999Z</time></trkpt><trkpt lat="43.59244835746416" lon="1.493862450623032"><ele>142.0</ele><time>2026-03-22T17:01:18.999Z</time></trkpt><trkpt lat="43.59270459327948" lon="1.4938178253128649"><ele>142.0</ele><time>2026-03-22T17:01:19.999Z</time></trkpt><trkpt lat="43.592963293222176" lon="1.4937672821929788"><ele>142.0</ele><time>2026-03-22T17:01:20.999Z</time></trkpt><trkpt lat="43.59321724618912" lon="1.4937219926370788"><ele>142.0</ele><time>2026-03-22T17:01:21.999Z</time></trkpt><trkpt lat="43.593469761128624" lon="1.4936819017547975"><ele>142.0</ele><time>2026-03-22T17:01:22.999Z</time></trkpt><trkpt lat="43.59371954412697" lon="1.4936454668779897"><ele>141.0</ele><time>2026-03-22T17:01:23.999Z</time></trkpt><trkpt lat="43.593972085730215" lon="1.4936099477507967"><ele>140.0</ele><time>2026-03-22T17:01:24.999Z</time></trkpt><trkpt lat="43.59423097761395" lon="1.4935689446772271"><ele>140.0</ele><time>2026-03-22T17:01:25.999Z</time></trkpt><trkpt lat="43.59447838126833" lon="1.4935342084884993"><ele>140.0</ele><time>2026-03-22T17:01:26.999Z</time></trkpt><trkpt lat="43.59471702190827" lon="1.4935008425611846"><ele>140.0</ele><time>2026-03-22T17:01:27.999Z</time></trkpt><trkpt lat="43.59496697035968" lon="1.4934670160564787"><ele>140.0</ele><time>2026-03-22T17:01:28.999Z</time></trkpt><trkpt lat="43.595209360889015" lon="1.4934338209396918"><ele>141.0</ele><time>2026-03-22T17:01:29.999Z</time></trkpt><trkpt lat="43.59545154815288" lon="1.4933919660012727"><ele>142.0</ele><time>2026-03-22T17:01:30.999Z</time></trkpt><trkpt lat="43.5956911557851" lon="1.4933396345908798"><ele>142.0</ele><time>2026-03-22T17:01:31.999Z</time></trkpt><trkpt lat="43.595932837953626" lon="1.493287593451799"><ele>142.0</ele><time>2026-03-22T17:01:32.999Z</time></trkpt><trkpt lat="43.59618591639925" lon="1.4932201289874498"><ele>140.0</ele><time>2026-03-22T17:01:33.999Z</time></trkpt><trkpt lat="43.59645438333789" lon="1.4931335606985263"><ele>138.0</ele><time>2026-03-22T17:01:34.999Z</time></trkpt><trkpt lat="43.59672733382742" lon="1.4930276087171923"><ele>138.5</ele><time>2026-03-22T17:01:35.999Z</time></trkpt><trkpt lat="43.59701094143107" lon="1.4929068384467663"><ele>139.0</ele><time>2026-03-22T17:01:36.999Z</time></trkpt><trkpt lat="43.59729742895232" lon="1.4927741484628612"><ele>139.0</ele><time>2026-03-22T17:01:37.999Z</time></trkpt><trkpt lat="43.59758341509924" lon="1.4926237002952172"><ele>139.0</ele><time>2026-03-22T17:01:38.999Z</time></trkpt><trkpt lat="43.597861456781054" lon="1.4924626440116227"><ele>139.0</ele><time>2026-03-22T17:01:39.999Z</time></trkpt><trkpt lat="43.59812950123066" lon="1.4922871580522787"><ele>139.0</ele><time>2026-03-22T17:01:40.999Z</time></trkpt><trkpt lat="43.59840051426595" lon="1.4920914538907235"><ele>139.0</ele><time>2026-03-22T17:01:41.999Z</time></trkpt><trkpt lat="43.59865504389908" lon="1.4918881215839845"><ele>139.0</ele><time>2026-03-22T17:01:42.999Z</time></trkpt><trkpt lat="43.598906135578524" lon="1.4916740659498084"><ele>139.0</ele><time>2026-03-22T17:01:43.999Z</time></trkpt><trkpt lat="43.59915958619279" lon="1.4914478554943007"><ele>139.0</ele><time>2026-03-22T17:01:44.999Z</time></trkpt><trkpt lat="43.599399808280474" lon="1.4912120437832468"><ele>138.0</ele><time>2026-03-22T17:01:45.999Z</time></trkpt><trkpt lat="43.599629980150254" lon="1.490965817762952"><ele>137.0</ele><time>2026-03-22T17:01:46.999Z</time></trkpt><trkpt lat="43.59985380564929" lon="1.490709475640155"><ele>137.0</ele><time>2026-03-22T17:01:47.999Z</time></trkpt><trkpt lat="43.600077067632334" lon="1.4904291691080034"><ele>137.0</ele><time>2026-03-22T17:01:48.999Z</time></trkpt><trkpt lat="43.60030001209135" lon="1.4901301882798026"><ele>137.0</ele><time>2026-03-22T17:01:49.999Z</time></trkpt><trkpt lat="43.60050380204439" lon="1.4898394031131577"><ele>137.0</ele><time>2026-03-22T17:01:50.999Z</time></trkpt><trkpt lat="43.60071212794139" lon="1.4895257614232664"><ele>137.0</ele><time>2026-03-22T17:01:51.999Z</time></trkpt><trkpt lat="43.60092143301819" lon="1.489188388024177"><ele>137.0</ele><time>2026-03-22T17:01:52.999Z</time></trkpt><trkpt lat="43.60113737576436" lon="1.488835444118402"><ele>137.0</ele><time>2026-03-22T17:01:53.999Z</time></trkpt><trkpt lat="43.601344450791856" lon="1.488502598270519"><ele>137.0</ele><time>2026-03-22T17:01:54.999Z</time></trkpt><trkpt lat="43.60153946846037" lon="1.4882053539782818"><ele>137.0</ele><time>2026-03-22T17:01:55.999Z</time></trkpt><trkpt lat="43.60173037064343" lon="1.487930981416644"><ele>137.0</ele><time>2026-03-22T17:01:56.999Z</time></trkpt><trkpt lat="43.601930340154446" lon="1.4876651030936214"><ele>137.0</ele><time>2026-03-22T17:01:57.999Z</time></trkpt><trkpt lat="43.602140985885335" lon="1.4873984834280916"><ele>137.0</ele><time>2026-03-22T17:01:59Z</time></trkpt><trkpt lat="43.60236809992153" lon="1.4871324414423586"><ele>137.0</ele><time>2026-03-22T17:02:00Z</time></trkpt><trkpt lat="43.60260637533603" lon="1.486873288975723"><ele>137.0</ele><time>2026-03-22T17:02:01Z</time></trkpt><trkpt lat="43.60285159515728" lon="1.4866289732159916"><ele>138.0</ele><time>2026-03-22T17:02:02Z</time></trkpt><trkpt lat="43.603089107385514" lon="1.4864132313637268"><ele>139.0</ele><time>2026-03-22T17:02:03Z</time></trkpt><trkpt lat="43.60333090629059" lon="1.4862171818098668"><ele>139.5</ele><time>2026-03-22T17:02:04Z</time></trkpt><trkpt lat="43.603583838383535" lon="1.4860260428111172"><ele>140.0</ele><time>2026-03-22T17:02:05Z</time></trkpt><trkpt lat="43.60383238542024" lon="1.4858521182488948"><ele>140.0</ele><time>2026-03-22T17:02:06Z</time></trkpt><trkpt lat="43.60408150818536" lon="1.4856880299196575"><ele>140.0</ele><time>2026-03-22T17:02:07Z</time></trkpt><trkpt lat="43.604331366829584" lon="1.4855391090630894"><ele>140.5</ele><time>2026-03-22T17:02:08Z</time></trkpt><trkpt lat="43.60458873728616" lon="1.485406379654397"><ele>141.0</ele><time>2026-03-22T17:02:09Z</time></trkpt><trkpt lat="43.60484790951785" lon="1.4852864325259352"><ele>141.0</ele><time>2026-03-22T17:02:10Z</time></trkpt><trkpt lat="43.6051115020608" lon="1.4851783864026782"><ele>141.0</ele><time>2026-03-22T17:02:11Z</time></trkpt><trkpt lat="43.605372463956456" lon="1.4850823734580487"><ele>141.0</ele><time>2026-03-22T17:02:12Z</time></trkpt><trkpt lat="43.60563143020981" lon="1.484997478461451"><ele>141.0</ele><time>2026-03-22T17:02:13Z</time></trkpt><trkpt lat="43.60588794421609" lon="1.4849280731975762"><ele>141.0</ele><time>2026-03-22T17:02:14Z</time></trkpt><trkpt lat="43.60614251522096" lon="1.4848742517442173"><ele>141.0</ele><time>2026-03-22T17:02:15Z</time></trkpt><trkpt lat="43.606401224388584" lon="1.4848353718885563"><ele>142.0</ele><time>2026-03-22T17:02:16Z</time></trkpt><trkpt lat="43.606670189862776" lon="1.484804455622287"><ele>143.0</ele><time>2026-03-22T17:02:17Z</time></trkpt><trkpt lat="43.60695485157968" lon="1.484783784929896"><ele>141.5</ele><time>2026-03-22T17:02:18Z</time></trkpt><trkpt lat="43.60724433011061" lon="1.48477368186686"><ele>140.0</ele><time>2026-03-22T17:02:19Z</time></trkpt><trkpt lat="43.60752131487179" lon="1.484771882018603"><ele>140.0</ele><time>2026-03-22T17:02:20Z</time></trkpt><trkpt lat="43.607798802723515" lon="1.4847694884089417"><ele>140.0</ele><time>2026-03-22T17:02:21Z</time></trkpt><trkpt lat="43.60808411598512" lon="1.4847688807978279"><ele>139.5</ele><time>2026-03-22T17:02:22Z</time></trkpt><trkpt lat="43.60837108864263" lon="1.4847700183258108"><ele>139.0</ele><time>2026-03-22T17:02:23Z</time></trkpt><trkpt lat="43.608660567841824" lon="1.4847716325504055"><ele>138.0</ele><time>2026-03-22T17:02:24Z</time></trkpt><trkpt lat="43.60895136981291" lon="1.4847675080702236"><ele>137.0</ele><time>2026-03-22T17:02:25Z</time></trkpt><trkpt lat="43.60924639389931" lon="1.484761450236807"><ele>138.5</ele><time>2026-03-22T17:02:26Z</time></trkpt><trkpt lat="43.60954813213315" lon="1.4847492817873458"><ele>140.0</ele><time>2026-03-22T17:02:27Z</time></trkpt><trkpt lat="43.609847585070526" lon="1.4847288347808694"><ele>140.0</ele><time>2026-03-22T17:02:28Z</time></trkpt><trkpt lat="43.610148566839385" lon="1.4847075162977887"><ele>140.0</ele><time>2026-03-22T17:02:29Z</time></trkpt><trkpt lat="43.61045323173064" lon="1.4846766450635647"><ele>138.5</ele><time>2026-03-22T17:02:30Z</time></trkpt><trkpt lat="43.6107580841773" lon="1.4846347984294823"><ele>137.0</ele><time>2026-03-22T17:02:31Z</time></trkpt><trkpt lat="43.611060225025305" lon="1.4846075386991597"><ele>139.5</ele><time>2026-03-22T17:02:32Z</time></trkpt><trkpt lat="43.61136628019196" lon="1.484571079514938"><ele>142.0</ele><time>2026-03-22T17:02:33Z</time></trkpt><trkpt lat="43.61166156155664" lon="1.484445569104248"><ele>142.0</ele><time>2026-03-22T17:02:34Z</time></trkpt><trkpt lat="43.61196408654831" lon="1.4843665509077557"><ele>142.0</ele><time>2026-03-22T17:02:35Z</time></trkpt><trkpt lat="43.61226525514338" lon="1.4842822372926656"><ele>141.0</ele><time>2026-03-22T17:02:36Z</time></trkpt><trkpt lat="43.61256105936009" lon="1.4841948339910578"><ele>140.0</ele><time>2026-03-22T17:02:37Z</time></trkpt><trkpt lat="43.612855919270565" lon="1.4841046425511062"><ele>139.5</ele><time>2026-03-22T17:02:38Z</time></trkpt><trkpt lat="43.613146505823906" lon="1.4840127353669648"><ele>139.0</ele><time>2026-03-22T17:02:39Z</time></trkpt><trkpt lat="43.61342085682331" lon="1.4839280445234118"><ele>138.5</ele><time>2026-03-22T17:02:40Z</time></trkpt><trkpt lat="43.61368999107583" lon="1.4838473602728506"><ele>138.0</ele><time>2026-03-22T17:02:41Z</time></trkpt><trkpt lat="43.613956274173205" lon="1.4837659895119746"><ele>138.0</ele><time>2026-03-22T17:02:42Z</time></trkpt><trkpt lat="43.61422362141341" lon="1.4836794786574223"><ele>138.0</ele><time>2026-03-22T17:02:43Z</time></trkpt><trkpt lat="43.6144920668728" lon="1.4835890850236386"><ele>138.0</ele><time>2026-03-22T17:02:44Z</time></trkpt><trkpt lat="43.614774924171996" lon="1.483502688077091"><ele>138.0</ele><time>2026-03-22T17:02:45Z</time></trkpt><trkpt lat="43.61508098193954" lon="1.4834109992536204"><ele>137.5</ele><time>2026-03-22T17:02:46Z</time></trkpt><trkpt lat="43.61539326218714" lon="1.483310524133417"><ele>137.0</ele><time>2026-03-22T17:02:47Z</time></trkpt><trkpt lat="43.615717298523805" lon="1.483210848783855"><ele>137.0</ele><time>2026-03-22T17:02:48Z</time></trkpt><trkpt lat="43.61605315411621" lon="1.48310858137792"><ele>137.0</ele><time>2026-03-22T17:02:49Z</time></trkpt><trkpt lat="43.616369307510325" lon="1.4830109172369694"><ele>135.5</ele><time>2026-03-22T17:02:50Z</time></trkpt><trkpt lat="43.61669453688522" lon="1.4829294149614407"><ele>134.0</ele><time>2026-03-22T17:02:51Z</time></trkpt><trkpt lat="43.61697269324076" lon="1.4828277555175955"><ele>135.0</ele><time>2026-03-22T17:02:52Z</time></trkpt><trkpt lat="43.61724848754937" lon="1.4827340753278306"><ele>136.0</ele><time>2026-03-22T17:02:53Z</time></trkpt><trkpt lat="43.6175194896304" lon="1.4826477500302215"><ele>136.0</ele><time>2026-03-22T17:02:54Z</time></trkpt><trkpt lat="43.61779562652498" lon="1.4825561302758075"><ele>136.0</ele><time>2026-03-22T17:02:55Z</time></trkpt><trkpt lat="43.6180776123985" lon="1.4824654934652768"><ele>135.5</ele><time>2026-03-22T17:02:56Z</time></trkpt><trkpt lat="43.61836168013188" lon="1.48237321107458"><ele>135.0</ele><time>2026-03-22T17:02:57Z</time></trkpt><trkpt lat="43.61864961723303" lon="1.482285044023435"><ele>134.0</ele><time>2026-03-22T17:02:58Z</time></trkpt><trkpt lat="43.61894055589456" lon="1.4821932664200665"><ele>133.0</ele><time>2026-03-22T17:02:59Z</time></trkpt><trkpt lat="43.619241339492135" lon="1.4821046547005248"><ele>134.5</ele><time>2026-03-22T17:03:00Z</time></trkpt><trkpt lat="43.61954607127346" lon="1.4820094495532095"><ele>136.0</ele><time>2026-03-22T17:03:01Z</time></trkpt><trkpt lat="43.61986538619067" lon="1.481909539797073"><ele>136.0</ele><time>2026-03-22T17:03:02Z</time></trkpt><trkpt lat="43.62019567340729" lon="1.481804406238162"><ele>136.0</ele><time>2026-03-22T17:03:03Z</time></trkpt><trkpt lat="43.62053207643799" lon="1.4816974273167955"><ele>135.5</ele><time>2026-03-22T17:03:04Z</time></trkpt><trkpt lat="43.62084589359717" lon="1.481598570105823"><ele>135.0</ele><time>2026-03-22T17:03:05Z</time></trkpt><trkpt lat="43.62117536242299" lon="1.4815055647701665"><ele>135.0</ele><time>2026-03-22T17:03:06Z</time></trkpt><trkpt lat="43.62150780753387" lon="1.4814039798218444"><ele>135.0</ele><time>2026-03-22T17:03:07Z</time></trkpt><trkpt lat="43.62184085307312" lon="1.4812920990121783"><ele>135.0</ele><time>2026-03-22T17:03:08Z</time></trkpt><trkpt lat="43.62216674915524" lon="1.4811760039154676"><ele>135.0</ele><time>2026-03-22T17:03:09Z</time></trkpt><trkpt lat="43.62248055372514" lon="1.4810634921540484"><ele>135.0</ele><time>2026-03-22T17:03:10Z</time></trkpt><trkpt lat="43.6228096481559" lon="1.4809366703307316"><ele>135.0</ele><time>2026-03-22T17:03:11Z</time></trkpt><trkpt lat="43.62311908426811" lon="1.480811122328258"><ele>135.0</ele><time>2026-03-22T17:03:12Z</time></trkpt><trkpt lat="43.62341443077588" lon="1.48068740379895"><ele>135.0</ele><time>2026-03-22T17:03:13Z</time></trkpt><trkpt lat="43.62372540677149" lon="1.4805546226897885"><ele>135.5</ele><time>2026-03-22T17:03:14Z</time></trkpt><trkpt lat="43.62404825180406" lon="1.4804122759010505"><ele>136.0</ele><time>2026-03-22T17:03:15Z</time></trkpt><trkpt lat="43.62437471863673" lon="1.4802674398902225"><ele>137.0</ele><time>2026-03-22T17:03:16Z</time></trkpt><trkpt lat="43.62468567014212" lon="1.4801401807026384"><ele>138.0</ele><time>2026-03-22T17:03:17Z</time></trkpt><trkpt lat="43.62498213711342" lon="1.4800211418742992"><ele>138.0</ele><time>2026-03-22T17:03:18Z</time></trkpt><trkpt lat="43.62527466813343" lon="1.4799045651669256"><ele>138.0</ele><time>2026-03-22T17:03:19Z</time></trkpt><trkpt lat="43.62556838247808" lon="1.4797891862281143"><ele>138.0</ele><time>2026-03-22T17:03:20Z</time></trkpt><trkpt lat="43.625835434907906" lon="1.4796824547693033"><ele>138.0</ele><time>2026-03-22T17:03:21Z</time></trkpt><trkpt lat="43.62611854823967" lon="1.4795813029555005"><ele>138.0</ele><time>2026-03-22T17:03:22Z</time></trkpt><trkpt lat="43.62638732798641" lon="1.4794753863065533"><ele>138.0</ele><time>2026-03-22T17:03:23Z</time></trkpt><trkpt lat="43.6266553567572" lon="1.4793741110451548"><ele>138.0</ele><time>2026-03-22T17:03:24Z</time></trkpt><trkpt lat="43.62692215656538" lon="1.4792753918850685"><ele>138.0</ele><time>2026-03-22T17:03:25Z</time></trkpt><trkpt lat="43.62719212728241" lon="1.4791853703528766"><ele>138.5</ele><time>2026-03-22T17:03:26Z</time></trkpt><trkpt lat="43.62744767772458" lon="1.4791018004279084"><ele>139.0</ele><time>2026-03-22T17:03:27Z</time></trkpt><trkpt lat="43.627709485657384" lon="1.4790304372499927"><ele>138.0</ele><time>2026-03-22T17:03:28Z</time></trkpt><trkpt lat="43.627968800024526" lon="1.4789607996264098"><ele>137.0</ele><time>2026-03-22T17:03:29Z</time></trkpt><trkpt lat="43.62822669938754" lon="1.4788975956359474"><ele>137.0</ele><time>2026-03-22T17:03:30Z</time></trkpt><trkpt lat="43.62848842827301" lon="1.4788425378120218"><ele>137.0</ele><time>2026-03-22T17:03:31Z</time></trkpt><trkpt lat="43.62874157373437" lon="1.4787860729832578"><ele>136.5</ele><time>2026-03-22T17:03:32Z</time></trkpt><trkpt lat="43.628998510304804" lon="1.4787334830840775"><ele>136.0</ele><time>2026-03-22T17:03:33Z</time></trkpt><trkpt lat="43.62925439777184" lon="1.478687324487701"><ele>136.0</ele><time>2026-03-22T17:03:34Z</time></trkpt><trkpt lat="43.62950970414174" lon="1.4786470290833458"><ele>136.0</ele><time>2026-03-22T17:03:35Z</time></trkpt><trkpt lat="43.62976664502001" lon="1.4786070650840266"><ele>136.0</ele><time>2026-03-22T17:03:36Z</time></trkpt><trkpt lat="43.63002325159203" lon="1.4785695351525658"><ele>136.0</ele><time>2026-03-22T17:03:37Z</time></trkpt><trkpt lat="43.63028033005116" lon="1.4785333497028281"><ele>136.0</ele><time>2026-03-22T17:03:38Z</time></trkpt><trkpt lat="43.63054820766096" lon="1.478497452189541"><ele>136.0</ele><time>2026-03-22T17:03:39Z</time></trkpt><trkpt lat="43.63083319100749" lon="1.478457276981989"><ele>136.0</ele><time>2026-03-22T17:03:40Z</time></trkpt><trkpt lat="43.63111320432137" lon="1.4784190444800014"><ele>136.0</ele><time>2026-03-22T17:03:41Z</time></trkpt><trkpt lat="43.631398994653466" lon="1.4783803401288"><ele>135.5</ele><time>2026-03-22T17:03:42Z</time></trkpt><trkpt lat="43.63170153759579" lon="1.4783420146932247"><ele>135.0</ele><time>2026-03-22T17:03:43Z</time></trkpt><trkpt lat="43.63201628272576" lon="1.4783065556267245"><ele>135.0</ele><time>2026-03-22T17:03:44Z</time></trkpt><trkpt lat="43.63233998719456" lon="1.4782693842585213"><ele>135.0</ele><time>2026-03-22T17:03:45Z</time></trkpt><trkpt lat="43.63267554398235" lon="1.4782238584800094"><ele>134.5</ele><time>2026-03-22T17:03:46Z</time></trkpt><trkpt lat="43.63300484660194" lon="1.478183341206034"><ele>134.0</ele><time>2026-03-22T17:03:47Z</time></trkpt><trkpt lat="43.63333332766702" lon="1.4781379309874485"><ele>134.0</ele><time>2026-03-22T17:03:48Z</time></trkpt><trkpt lat="43.63364465056865" lon="1.4780908698631283"><ele>134.0</ele><time>2026-03-22T17:03:49Z</time></trkpt><trkpt lat="43.63397584188495" lon="1.478043274207518"><ele>134.0</ele><time>2026-03-22T17:03:50Z</time></trkpt><trkpt lat="43.63429753958344" lon="1.4779887028929304"><ele>134.0</ele><time>2026-03-22T17:03:51Z</time></trkpt><trkpt lat="43.63462080471841" lon="1.4779346926411312"><ele>134.5</ele><time>2026-03-22T17:03:52Z</time></trkpt><trkpt lat="43.634946627718" lon="1.4778750772257305"><ele>135.0</ele><time>2026-03-22T17:03:53Z</time></trkpt><trkpt lat="43.63526212287747" lon="1.4778110634085935"><ele>134.5</ele><time>2026-03-22T17:03:54Z</time></trkpt><trkpt lat="43.63556599194938" lon="1.4777311100469162"><ele>134.0</ele><time>2026-03-22T17:03:55Z</time></trkpt><trkpt lat="43.635867874482216" lon="1.4776568565398334"><ele>134.0</ele><time>2026-03-22T17:03:55.999Z</time></trkpt><trkpt lat="43.636175305463546" lon="1.4775616805589735"><ele>134.0</ele><time>2026-03-22T17:03:56.999Z</time></trkpt><trkpt lat="43.63649283534065" lon="1.477466372482813"><ele>134.0</ele><time>2026-03-22T17:03:57.999Z</time></trkpt><trkpt lat="43.63680795273602" lon="1.4773568489811109"><ele>134.0</ele><time>2026-03-22T17:03:58.999Z</time></trkpt><trkpt lat="43.63712904266475" lon="1.4772375690505761"><ele>133.0</ele><time>2026-03-22T17:03:59.999Z</time></trkpt><trkpt lat="43.63743535999583" lon="1.4771050062876165"><ele>132.0</ele><time>2026-03-22T17:04:00.999Z</time></trkpt><trkpt lat="43.637740633334836" lon="1.4769621118542284"><ele>134.5</ele><time>2026-03-22T17:04:01.999Z</time></trkpt><trkpt lat="43.63804631620749" lon="1.4768117189978025"><ele>137.0</ele><time>2026-03-22T17:04:02.999Z</time></trkpt><trkpt lat="43.638343540269716" lon="1.4766494782003003"><ele>136.5</ele><time>2026-03-22T17:04:03.999Z</time></trkpt><trkpt lat="43.63864232600645" lon="1.476484794427935"><ele>136.0</ele><time>2026-03-22T17:04:05Z</time></trkpt><trkpt lat="43.63893045139081" lon="1.4763133343831196"><ele>136.0</ele><time>2026-03-22T17:04:06Z</time></trkpt><trkpt lat="43.63922385642903" lon="1.4761227041746718"><ele>136.0</ele><time>2026-03-22T17:04:07Z</time></trkpt><trkpt lat="43.63951000173419" lon="1.475931070112973"><ele>137.5</ele><time>2026-03-22T17:04:08Z</time></trkpt><trkpt lat="43.63979181755025" lon="1.4757184258011602"><ele>139.0</ele><time>2026-03-22T17:04:09Z</time></trkpt><trkpt lat="43.64006279403042" lon="1.4755080722556337"><ele>138.5</ele><time>2026-03-22T17:04:10Z</time></trkpt><trkpt lat="43.64033438089433" lon="1.475294149925695"><ele>138.0</ele><time>2026-03-22T17:04:11Z</time></trkpt><trkpt lat="43.64059646934292" lon="1.4750718127592426"><ele>138.0</ele><time>2026-03-22T17:04:12Z</time></trkpt><trkpt lat="43.64085464262975" lon="1.474834252272365"><ele>138.0</ele><time>2026-03-22T17:04:13Z</time></trkpt><trkpt lat="43.641125330640214" lon="1.474577630486813"><ele>137.5</ele><time>2026-03-22T17:04:14Z</time></trkpt><trkpt lat="43.641396344515385" lon="1.474309926938029"><ele>137.0</ele><time>2026-03-22T17:04:15Z</time></trkpt><trkpt lat="43.64163309944611" lon="1.474051231152532"><ele>137.0</ele><time>2026-03-22T17:04:16Z</time></trkpt><trkpt lat="43.64184947200673" lon="1.4738118415113468"><ele>137.0</ele><time>2026-03-22T17:04:17Z</time></trkpt><trkpt lat="43.64205312389498" lon="1.4735756866576266"><ele>137.0</ele><time>2026-03-22T17:04:18Z</time></trkpt><trkpt lat="43.6422476978745" lon="1.4733406933987694"><ele>137.0</ele><time>2026-03-22T17:04:19Z</time></trkpt><trkpt lat="43.642433930794276" lon="1.4731120588089373"><ele>137.0</ele><time>2026-03-22T17:04:20Z</time></trkpt><trkpt lat="43.64263467669745" lon="1.4728571546450555"><ele>137.0</ele><time>2026-03-22T17:04:21Z</time></trkpt><trkpt lat="43.6428443396284" lon="1.472579085314307"><ele>136.5</ele><time>2026-03-22T17:04:22Z</time></trkpt><trkpt lat="43.64305822062102" lon="1.4722793034488735"><ele>136.0</ele><time>2026-03-22T17:04:23Z</time></trkpt><trkpt lat="43.64326279615965" lon="1.4719795417680333"><ele>135.0</ele><time>2026-03-22T17:04:24Z</time></trkpt><trkpt lat="43.643450118089994" lon="1.4716991474158618"><ele>134.0</ele><time>2026-03-22T17:04:25Z</time></trkpt><trkpt lat="43.64364702583297" lon="1.4713877858625128"><ele>134.0</ele><time>2026-03-22T17:04:26Z</time></trkpt><trkpt lat="43.64382738329554" lon="1.4710777474646706"><ele>134.0</ele><time>2026-03-22T17:04:27Z</time></trkpt><trkpt lat="43.64400318752136" lon="1.470765914144619"><ele>134.0</ele><time>2026-03-22T17:04:28Z</time></trkpt><trkpt lat="43.644181246892515" lon="1.4704437305650775"><ele>134.0</ele><time>2026-03-22T17:04:29Z</time></trkpt><trkpt lat="43.644356565691524" lon="1.4701089958293054"><ele>134.5</ele><time>2026-03-22T17:04:30Z</time></trkpt><trkpt lat="43.64451985241011" lon="1.469771923046257"><ele>135.0</ele><time>2026-03-22T17:04:31Z</time></trkpt><trkpt lat="43.644677011399345" lon="1.4694348685967056"><ele>136.0</ele><time>2026-03-22T17:04:32Z</time></trkpt><trkpt lat="43.64482839502172" lon="1.469105243618403"><ele>137.0</ele><time>2026-03-22T17:04:33Z</time></trkpt><trkpt lat="43.644977933809734" lon="1.4687782364590853"><ele>135.0</ele><time>2026-03-22T17:04:34Z</time></trkpt><trkpt lat="43.64512373567722" lon="1.468446193844006"><ele>133.0</ele><time>2026-03-22T17:04:35Z</time></trkpt><trkpt lat="43.645245116511944" lon="1.4681090915974377"><ele>134.5</ele><time>2026-03-22T17:04:36Z</time></trkpt><trkpt lat="43.645373124918166" lon="1.4677492875952567"><ele>136.0</ele><time>2026-03-22T17:04:37Z</time></trkpt><trkpt lat="43.64550664126557" lon="1.4673699482484073"><ele>136.0</ele><time>2026-03-22T17:04:38Z</time></trkpt><trkpt lat="43.64562873567736" lon="1.4670010291225923"><ele>136.0</ele><time>2026-03-22T17:04:39Z</time></trkpt><trkpt lat="43.64574214215427" lon="1.4666302956544404"><ele>135.5</ele><time>2026-03-22T17:04:40Z</time></trkpt><trkpt lat="43.645856816479956" lon="1.4662438706947616"><ele>135.0</ele><time>2026-03-22T17:04:41Z</time></trkpt><trkpt lat="43.64596342541504" lon="1.4658450811454355"><ele>135.0</ele><time>2026-03-22T17:04:42Z</time></trkpt><trkpt lat="43.64606831387008" lon="1.4654231904426642"><ele>135.0</ele><time>2026-03-22T17:04:43Z</time></trkpt><trkpt lat="43.646163929561844" lon="1.4649908973899033"><ele>136.5</ele><time>2026-03-22T17:04:44Z</time></trkpt><trkpt lat="43.646250313674805" lon="1.4645662218222983"><ele>138.0</ele><time>2026-03-22T17:04:45Z</time></trkpt><trkpt lat="43.646331532533594" lon="1.4641492385121029"><ele>136.5</ele><time>2026-03-22T17:04:46Z</time></trkpt><trkpt lat="43.64640537727919" lon="1.463754268258811"><ele>135.0</ele><time>2026-03-22T17:04:47Z</time></trkpt><trkpt lat="43.64646456471584" lon="1.463365249733449"><ele>134.5</ele><time>2026-03-22T17:04:48Z</time></trkpt><trkpt lat="43.64652627096854" lon="1.4629443338614088"><ele>134.0</ele><time>2026-03-22T17:04:49Z</time></trkpt><trkpt lat="43.64658166802216" lon="1.4625302318464202"><ele>134.0</ele><time>2026-03-22T17:04:50Z</time></trkpt><trkpt lat="43.64662506403202" lon="1.4621297680789453"><ele>134.0</ele><time>2026-03-22T17:04:51Z</time></trkpt><trkpt lat="43.64666727195507" lon="1.4617143591654045"><ele>134.0</ele><time>2026-03-22T17:04:52Z</time></trkpt><trkpt lat="43.64670920497552" lon="1.4613879541208517"><ele>134.0</ele><time>2026-03-22T17:04:53Z</time></trkpt><trkpt lat="43.646745776753676" lon="1.4610078275841007"><ele>134.5</ele><time>2026-03-22T17:04:54Z</time></trkpt><trkpt lat="43.6467752634797" lon="1.4606528174611912"><ele>135.0</ele><time>2026-03-22T17:04:55Z</time></trkpt><trkpt lat="43.646796626890556" lon="1.4603086161524172"><ele>135.0</ele><time>2026-03-22T17:04:56Z</time></trkpt><trkpt lat="43.64682035160311" lon="1.4599710405972501"><ele>135.0</ele><time>2026-03-22T17:04:57Z</time></trkpt><trkpt lat="43.646830134218376" lon="1.4596574296118525"><ele>135.33333333333334</ele><time>2026-03-22T17:04:58Z</time></trkpt><trkpt lat="43.646848099365634" lon="1.4593510294281224"><ele>135.66666666666669</ele><time>2026-03-22T17:04:59Z</time></trkpt><trkpt lat="43.646856895719296" lon="1.4590507620148148"><ele>136.0</ele><time>2026-03-22T17:05:00Z</time></trkpt><trkpt lat="43.646866186102315" lon="1.458742231682929"><ele>135.66666666666669</ele><time>2026-03-22T17:05:01Z</time></trkpt><trkpt lat="43.646875561317465" lon="1.4584370216916336"><ele>135.33333333333334</ele><time>2026-03-22T17:05:02Z</time></trkpt><trkpt lat="43.64688535875057" lon="1.4581356819193314"><ele>135.0</ele><time>2026-03-22T17:05:03Z</time></trkpt><trkpt lat="43.64689242706684" lon="1.4578397704782102"><ele>135.0</ele><time>2026-03-22T17:05:04Z</time></trkpt><trkpt lat="43.64687326185772" lon="1.4575471065265855"><ele>135.0</ele><time>2026-03-22T17:05:05Z</time></trkpt><trkpt lat="43.6468938657367" lon="1.4572051845908505"><ele>135.5</ele><time>2026-03-22T17:05:06Z</time></trkpt><trkpt lat="43.64689988645851" lon="1.4568761932328365"><ele>136.0</ele><time>2026-03-22T17:05:07Z</time></trkpt><trkpt lat="43.64691352929767" lon="1.456531692549974"><ele>135.66666666666669</ele><time>2026-03-22T17:05:08Z</time></trkpt><trkpt lat="43.646921531459846" lon="1.4562115419412958"><ele>135.33333333333334</ele><time>2026-03-22T17:05:09Z</time></trkpt><trkpt lat="43.64692345781822" lon="1.455913380061912"><ele>135.0</ele><time>2026-03-22T17:05:10Z</time></trkpt><trkpt lat="43.646924117336894" lon="1.455647448981705"><ele>134.33333333333334</ele><time>2026-03-22T17:05:11Z</time></trkpt><trkpt lat="43.646922722425856" lon="1.4553921084212713"><ele>133.66666666666669</ele><time>2026-03-22T17:05:12Z</time></trkpt><trkpt lat="43.64691823126347" lon="1.4551047136579833"><ele>133.0</ele><time>2026-03-22T17:05:13Z</time></trkpt><trkpt lat="43.646912573149145" lon="1.454811852242273"><ele>133.33333333333334</ele><time>2026-03-22T17:05:14Z</time></trkpt><trkpt lat="43.64690670456764" lon="1.4545700303133773"><ele>133.66666666666666</ele><time>2026-03-22T17:05:15Z</time></trkpt><trkpt lat="43.64689586867808" lon="1.4542838801458768"><ele>134.0</ele><time>2026-03-22T17:05:16Z</time></trkpt><trkpt lat="43.64690098739365" lon="1.4539697733502006"><ele>133.5</ele><time>2026-03-22T17:05:17Z</time></trkpt><trkpt lat="43.64689870928681" lon="1.4536707076806792"><ele>133.0</ele><time>2026-03-22T17:05:18Z</time></trkpt><trkpt lat="43.646902174211576" lon="1.4533356563443454"><ele>133.0</ele><time>2026-03-22T17:05:19Z</time></trkpt><trkpt lat="43.64689234050407" lon="1.4529727926536673"><ele>133.0</ele><time>2026-03-22T17:05:20Z</time></trkpt><trkpt lat="43.6468782668324" lon="1.4525779133459706"><ele>133.0</ele><time>2026-03-22T17:05:21Z</time></trkpt><trkpt lat="43.64686994016185" lon="1.4522297994858542"><ele>133.0</ele><time>2026-03-22T17:05:22Z</time></trkpt><trkpt lat="43.64685998827362" lon="1.4518919042274692"><ele>133.0</ele><time>2026-03-22T17:05:23Z</time></trkpt><trkpt lat="43.64684812243488" lon="1.451529335443464"><ele>133.0</ele><time>2026-03-22T17:05:24Z</time></trkpt><trkpt lat="43.64683684659011" lon="1.4511844040444446"><ele>133.0</ele><time>2026-03-22T17:05:25Z</time></trkpt><trkpt lat="43.64682224135911" lon="1.4508569953934072"><ele>133.0</ele><time>2026-03-22T17:05:26Z</time></trkpt><trkpt lat="43.64680787464775" lon="1.4505250050417842"><ele>132.5</ele><time>2026-03-22T17:05:27Z</time></trkpt><trkpt lat="43.64675999681771" lon="1.450144760325684"><ele>132.0</ele><time>2026-03-22T17:05:28Z</time></trkpt><trkpt lat="43.64674573224685" lon="1.44981288653341"><ele>133.0</ele><time>2026-03-22T17:05:29Z</time></trkpt><trkpt lat="43.64676174412589" lon="1.4494653070748094"><ele>134.0</ele><time>2026-03-22T17:05:30Z</time></trkpt><trkpt lat="43.64675557101294" lon="1.44912474332027"><ele>134.0</ele><time>2026-03-22T17:05:31Z</time></trkpt><trkpt lat="43.64674852054746" lon="1.4487951165678896"><ele>134.0</ele><time>2026-03-22T17:05:32Z</time></trkpt><trkpt lat="43.646741915417664" lon="1.4484813282341988"><ele>134.0</ele><time>2026-03-22T17:05:33Z</time></trkpt><trkpt lat="43.64673799533118" lon="1.4481758633202377"><ele>134.0</ele><time>2026-03-22T17:05:34Z</time></trkpt><trkpt lat="43.64673774779196" lon="1.4478520091287643"><ele>134.5</ele><time>2026-03-22T17:05:35Z</time></trkpt><trkpt lat="43.64674038724344" lon="1.4475400914986507"><ele>135.0</ele><time>2026-03-22T17:05:36Z</time></trkpt><trkpt lat="43.64674693481989" lon="1.4472269848663555"><ele>134.66666666666666</ele><time>2026-03-22T17:05:37Z</time></trkpt><trkpt lat="43.64675383490461" lon="1.4469191355147606"><ele>134.33333333333331</ele><time>2026-03-22T17:05:38Z</time></trkpt><trkpt lat="43.64676795654128" lon="1.4466298274692346"><ele>134.0</ele><time>2026-03-22T17:05:39Z</time></trkpt><trkpt lat="43.64677948496467" lon="1.4463416205395814"><ele>134.0</ele><time>2026-03-22T17:05:40Z</time></trkpt><trkpt lat="43.64679405181894" lon="1.4460381033249625"><ele>134.0</ele><time>2026-03-22T17:05:41Z</time></trkpt><trkpt lat="43.64680818812958" lon="1.4457417189761237"><ele>134.0</ele><time>2026-03-22T17:05:42Z</time></trkpt><trkpt lat="43.646828520303615" lon="1.4454454316682674"><ele>133.66666666666666</ele><time>2026-03-22T17:05:43Z</time></trkpt><trkpt lat="43.64684931595959" lon="1.4451421811628233"><ele>133.33333333333334</ele><time>2026-03-22T17:05:44Z</time></trkpt><trkpt lat="43.64687415275834" lon="1.4448422011456725"><ele>133.0</ele><time>2026-03-22T17:05:45Z</time></trkpt><trkpt lat="43.64689973815038" lon="1.4445456068230897"><ele>133.0</ele><time>2026-03-22T17:05:46Z</time></trkpt><trkpt lat="43.64693092827144" lon="1.4442546979166375"><ele>133.0</ele><time>2026-03-22T17:05:47Z</time></trkpt><trkpt lat="43.64696607215663" lon="1.4439629985721811"><ele>133.0</ele><time>2026-03-22T17:05:48Z</time></trkpt><trkpt lat="43.647006169910966" lon="1.4436739737635478"><ele>133.66666666666669</ele><time>2026-03-22T17:05:49Z</time></trkpt><trkpt lat="43.64703631566362" lon="1.443405905160399"><ele>134.33333333333334</ele><time>2026-03-22T17:05:50Z</time></trkpt><trkpt lat="43.647086995950716" lon="1.4431428449004897"><ele>135.0</ele><time>2026-03-22T17:05:51Z</time></trkpt><trkpt lat="43.64711776889216" lon="1.442862084087356"><ele>135.0</ele><time>2026-03-22T17:05:52Z</time></trkpt><trkpt lat="43.647156111502234" lon="1.4426060226240975"><ele>135.0</ele><time>2026-03-22T17:05:53Z</time></trkpt><trkpt lat="43.647190094739514" lon="1.44237185451646"><ele>135.0</ele><time>2026-03-22T17:05:54Z</time></trkpt><trkpt lat="43.6472335853981" lon="1.442145504493024"><ele>134.5</ele><time>2026-03-22T17:05:55Z</time></trkpt><trkpt lat="43.64727636452896" lon="1.4419290389626132"><ele>134.0</ele><time>2026-03-22T17:05:56Z</time></trkpt><trkpt lat="43.6473190217295" lon="1.4417358969489324"><ele>133.5</ele><time>2026-03-22T17:05:57Z</time></trkpt><trkpt lat="43.64736234405769" lon="1.4415510002637981"><ele>133.0</ele><time>2026-03-22T17:05:58Z</time></trkpt><trkpt lat="43.64740811891004" lon="1.4413641670128363"><ele>133.66666666666669</ele><time>2026-03-22T17:05:59Z</time></trkpt><trkpt lat="43.64746791165832" lon="1.4411607008846798"><ele>134.33333333333334</ele><time>2026-03-22T17:06:00Z</time></trkpt><trkpt lat="43.64753036641486" lon="1.4409884267155553"><ele>135.0</ele><time>2026-03-22T17:06:01Z</time></trkpt><trkpt lat="43.647608988358826" lon="1.440750576967738"><ele>135.0</ele><time>2026-03-22T17:06:02Z</time></trkpt><trkpt lat="43.64770062663573" lon="1.4405083277006845"><ele>135.0</ele><time>2026-03-22T17:06:03Z</time></trkpt><trkpt lat="43.6478444777938" lon="1.4402612294742907"><ele>135.0</ele><time>2026-03-22T17:06:04Z</time></trkpt><trkpt lat="43.647949293794674" lon="1.4400083140906728"><ele>135.0</ele><time>2026-03-22T17:06:05Z</time></trkpt><trkpt lat="43.64803551329004" lon="1.439783610451578"><ele>135.0</ele><time>2026-03-22T17:06:06Z</time></trkpt><trkpt lat="43.64809125949091" lon="1.439602710109332"><ele>135.0</ele><time>2026-03-22T17:06:07Z</time></trkpt><trkpt lat="43.64812563215855" lon="1.4394369479884233"><ele>134.83333333333334</ele><time>2026-03-22T17:06:08Z</time></trkpt><trkpt lat="43.64814923321338" lon="1.4392826572296225"><ele>134.66666666666666</ele><time>2026-03-22T17:06:09Z</time></trkpt><trkpt lat="43.64815617398268" lon="1.439158017066775"><ele>134.5</ele><time>2026-03-22T17:06:10Z</time></trkpt><trkpt lat="43.64815194827025" lon="1.439068145401012"><ele>134.33333333333331</ele><time>2026-03-22T17:06:11Z</time></trkpt><trkpt lat="43.64812546507936" lon="1.4389828186895761"><ele>134.16666666666666</ele><time>2026-03-22T17:06:12Z</time></trkpt><trkpt lat="43.64807234728781" lon="1.438897716135838"><ele>134.0</ele><time>2026-03-22T17:06:13Z</time></trkpt><trkpt lat="43.64792773819286" lon="1.438931622504301"><ele>134.0</ele><time>2026-03-22T17:06:14Z</time></trkpt><trkpt lat="43.64781742668931" lon="1.4389410976316401"><ele>134.0</ele><time>2026-03-22T17:06:15Z</time></trkpt><trkpt lat="43.647722989848255" lon="1.438963538138122"><ele>134.0</ele><time>2026-03-22T17:06:16Z</time></trkpt><trkpt lat="43.64764934383006" lon="1.4389718036934875"><ele>134.0</ele><time>2026-03-22T17:06:17Z</time></trkpt><trkpt lat="43.64757564112997" lon="1.438975795625013"><ele>134.0</ele><time>2026-03-22T17:06:18Z</time></trkpt><trkpt lat="43.64750549037368" lon="1.4390052777286877"><ele>134.0</ele><time>2026-03-22T17:06:19Z</time></trkpt><trkpt lat="43.6474377578079" lon="1.4390140041176118"><ele>134.0</ele><time>2026-03-22T17:06:20Z</time></trkpt><trkpt lat="43.647381436146674" lon="1.4388091338352285"><ele>134.0</ele><time>2026-03-22T17:06:21Z</time></trkpt><trkpt lat="43.64735472095596" lon="1.4386912383012385"><ele>134.0</ele><time>2026-03-22T17:06:22Z</time></trkpt><trkpt lat="43.64734977464115" lon="1.438551333603257"><ele>134.0</ele><time>2026-03-22T17:06:23Z</time></trkpt><trkpt lat="43.64740032385217" lon="1.438401052429122"><ele>134.0</ele><time>2026-03-22T17:06:24Z</time></trkpt><trkpt lat="43.647430359112825" lon="1.4381994555850641"><ele>134.0</ele><time>2026-03-22T17:06:25Z</time></trkpt><trkpt lat="43.64751747655415" lon="1.4379564202185713"><ele>134.0</ele><time>2026-03-22T17:06:26Z</time></trkpt><trkpt lat="43.647632275695706" lon="1.4376925403102008"><ele>134.0</ele><time>2026-03-22T17:06:27Z</time></trkpt><trkpt lat="43.64772433751679" lon="1.4373910691465228"><ele>134.0</ele><time>2026-03-22T17:06:28Z</time></trkpt><trkpt lat="43.64782003041669" lon="1.4370582883061294"><ele>134.0</ele><time>2026-03-22T17:06:29Z</time></trkpt><trkpt lat="43.647922153964046" lon="1.43670603838824"><ele>134.0</ele><time>2026-03-22T17:06:30Z</time></trkpt><trkpt lat="43.64801871001549" lon="1.4363305366893417"><ele>134.5</ele><time>2026-03-22T17:06:31Z</time></trkpt><trkpt lat="43.64811287304408" lon="1.4359808406238606"><ele>135.0</ele><time>2026-03-22T17:06:32Z</time></trkpt><trkpt lat="43.64819723423827" lon="1.4356657699569122"><ele>135.0</ele><time>2026-03-22T17:06:33Z</time></trkpt><trkpt lat="43.648274068207115" lon="1.4353764026730824"><ele>135.0</ele><time>2026-03-22T17:06:34Z</time></trkpt><trkpt lat="43.648351419437994" lon="1.4351056931525301"><ele>135.0</ele><time>2026-03-22T17:06:35Z</time></trkpt><trkpt lat="43.64842058862745" lon="1.434856293647865"><ele>135.0</ele><time>2026-03-22T17:06:36Z</time></trkpt><trkpt lat="43.648485745207694" lon="1.4346185436506793"><ele>135.0</ele><time>2026-03-22T17:06:37Z</time></trkpt><trkpt lat="43.648544410823234" lon="1.4343980764130606"><ele>135.0</ele><time>2026-03-22T17:06:38Z</time></trkpt><trkpt lat="43.648601773279054" lon="1.4342058485381768"><ele>134.75</ele><time>2026-03-22T17:06:39Z</time></trkpt><trkpt lat="43.64865457564769" lon="1.4340496361365374"><ele>134.5</ele><time>2026-03-22T17:06:40Z</time></trkpt><trkpt lat="43.64870600952043" lon="1.433901911558426"><ele>134.25</ele><time>2026-03-22T17:06:41Z</time></trkpt><trkpt lat="43.648755881894736" lon="1.4337620837961866"><ele>134.0</ele><time>2026-03-22T17:06:42Z</time></trkpt><trkpt lat="43.648800138035654" lon="1.4336399198997427"><ele>133.83333333333331</ele><time>2026-03-22T17:06:43Z</time></trkpt><trkpt lat="43.64883731019843" lon="1.4335365066358003"><ele>133.66666666666666</ele><time>2026-03-22T17:06:44Z</time></trkpt><trkpt lat="43.64889053261742" lon="1.433406891108542"><ele>133.5</ele><time>2026-03-22T17:06:46Z</time></trkpt><trkpt lat="43.648946031140525" lon="1.433318411687917"><ele>133.33333333333334</ele><time>2026-03-22T17:06:50Z</time></trkpt><trkpt lat="43.648987175621684" lon="1.4332415435688095"><ele>133.16666666666669</ele><time>2026-03-22T17:06:51Z</time></trkpt><trkpt lat="43.649007836232116" lon="1.4331544736766642"><ele>133.0</ele><time>2026-03-22T17:06:52Z</time></trkpt><trkpt lat="43.64907821458645" lon="1.4331004822814775"><ele>133.0</ele><time>2026-03-22T17:06:53Z</time></trkpt><trkpt lat="43.6491284453135" lon="1.433014690800208"><ele>133.0</ele><time>2026-03-22T17:06:54Z</time></trkpt><trkpt lat="43.64916047506361" lon="1.4329064480446108"><ele>133.0</ele><time>2026-03-22T17:06:55Z</time></trkpt><trkpt lat="43.64914928362091" lon="1.4327854554946782"><ele>133.0</ele><time>2026-03-22T17:06:56Z</time></trkpt><trkpt lat="43.649144769112205" lon="1.4325927523982558"><ele>133.0</ele><time>2026-03-22T17:06:57Z</time></trkpt><trkpt lat="43.64916053772542" lon="1.432401251388247"><ele>133.33333333333334</ele><time>2026-03-22T17:06:58Z</time></trkpt><trkpt lat="43.64918364470761" lon="1.432180043971221"><ele>133.66666666666666</ele><time>2026-03-22T17:06:59Z</time></trkpt><trkpt lat="43.649286107535914" lon="1.4319152663769055"><ele>134.0</ele><time>2026-03-22T17:07:00Z</time></trkpt><trkpt lat="43.649377071814484" lon="1.4316262400653517"><ele>134.0</ele><time>2026-03-22T17:07:01Z</time></trkpt><trkpt lat="43.649468012727745" lon="1.4313433316920419"><ele>134.0</ele><time>2026-03-22T17:07:02Z</time></trkpt><trkpt lat="43.64953384434552" lon="1.4311026644037415"><ele>134.0</ele><time>2026-03-22T17:07:03Z</time></trkpt><trkpt lat="43.649595700853375" lon="1.430876999957335"><ele>134.33333333333331</ele><time>2026-03-22T17:07:04Z</time></trkpt><trkpt lat="43.649661784566575" lon="1.430656690138302"><ele>134.66666666666666</ele><time>2026-03-22T17:07:05Z</time></trkpt><trkpt lat="43.6497324810807" lon="1.4304197389557094"><ele>135.0</ele><time>2026-03-22T17:07:06Z</time></trkpt><trkpt lat="43.64980599099685" lon="1.4301833312368293"><ele>134.33333333333334</ele><time>2026-03-22T17:07:07Z</time></trkpt><trkpt lat="43.64988985294711" lon="1.4299174801469552"><ele>133.66666666666669</ele><time>2026-03-22T17:07:08Z</time></trkpt><trkpt lat="43.6499808473607" lon="1.4296256164208487"><ele>133.0</ele><time>2026-03-22T17:07:09Z</time></trkpt><trkpt lat="43.65008014639477" lon="1.4293022068003223"><ele>132.5</ele><time>2026-03-22T17:07:10Z</time></trkpt><trkpt lat="43.650197153295295" lon="1.4289644520449538"><ele>132.0</ele><time>2026-03-22T17:07:11Z</time></trkpt><trkpt lat="43.65032771285809" lon="1.4286373907373666"><ele>132.0</ele><time>2026-03-22T17:07:12Z</time></trkpt><trkpt lat="43.650448708302115" lon="1.4283393629134502"><ele>132.0</ele><time>2026-03-22T17:07:13Z</time></trkpt><trkpt lat="43.65055573755941" lon="1.42807730651615"><ele>132.33333333333334</ele><time>2026-03-22T17:07:14Z</time></trkpt><trkpt lat="43.65066275791446" lon="1.4278292592161774"><ele>132.66666666666669</ele><time>2026-03-22T17:07:15Z</time></trkpt><trkpt lat="43.65076787047617" lon="1.427599404267695"><ele>133.0</ele><time>2026-03-22T17:07:16Z</time></trkpt><trkpt lat="43.65087797985375" lon="1.4273657370462178"><ele>133.0</ele><time>2026-03-22T17:07:17Z</time></trkpt><trkpt lat="43.65100192896443" lon="1.4271158310817729"><ele>133.0</ele><time>2026-03-22T17:07:18Z</time></trkpt><trkpt lat="43.651122301201895" lon="1.426890428076383"><ele>133.0</ele><time>2026-03-22T17:07:19Z</time></trkpt><trkpt lat="43.65124530666021" lon="1.4266714520756474"><ele>133.0</ele><time>2026-03-22T17:07:20Z</time></trkpt><trkpt lat="43.65135500575393" lon="1.4264697324875757"><ele>133.0</ele><time>2026-03-22T17:07:21Z</time></trkpt><trkpt lat="43.65146115077037" lon="1.4262961089396686"><ele>133.0</ele><time>2026-03-22T17:07:22Z</time></trkpt><trkpt lat="43.6515618787869" lon="1.4261357574183493"><ele>133.0</ele><time>2026-03-22T17:07:23Z</time></trkpt><trkpt lat="43.651659700401275" lon="1.4259832043667038"><ele>133.0</ele><time>2026-03-22T17:07:24Z</time></trkpt><trkpt lat="43.65175124435833" lon="1.4258492866195691"><ele>133.0</ele><time>2026-03-22T17:07:25Z</time></trkpt><trkpt lat="43.65183245673858" lon="1.4257206798234712"><ele>133.0</ele><time>2026-03-22T17:07:26Z</time></trkpt><trkpt lat="43.65192257371312" lon="1.4256117148247631"><ele>132.75</ele><time>2026-03-22T17:07:27Z</time></trkpt><trkpt lat="43.65202147310578" lon="1.4254840558113762"><ele>132.5</ele><time>2026-03-22T17:07:28Z</time></trkpt><trkpt lat="43.652118659029206" lon="1.4253529539650795"><ele>132.25</ele><time>2026-03-22T17:07:29Z</time></trkpt><trkpt lat="43.65222979514543" lon="1.4252074219698738"><ele>132.0</ele><time>2026-03-22T17:07:30Z</time></trkpt><trkpt lat="43.65232389475539" lon="1.4250878128165951"><ele>132.4</ele><time>2026-03-22T17:07:31Z</time></trkpt><trkpt lat="43.652396322683096" lon="1.4249958173242792"><ele>132.79999999999998</ele><time>2026-03-22T17:07:32Z</time></trkpt><trkpt lat="43.652453698223795" lon="1.4249122204796916"><ele>133.2</ele><time>2026-03-22T17:07:33Z</time></trkpt><trkpt lat="43.65251534433496" lon="1.4248420502220382"><ele>133.6</ele><time>2026-03-22T17:07:34Z</time></trkpt><trkpt lat="43.652609887869204" lon="1.4247724792478567"><ele>134.0</ele><time>2026-03-22T17:07:35Z</time></trkpt><trkpt lat="43.652755905213226" lon="1.4246983934350574"><ele>133.75</ele><time>2026-03-22T17:07:36Z</time></trkpt><trkpt lat="43.65289229442864" lon="1.4246163278229906"><ele>133.5</ele><time>2026-03-22T17:07:37Z</time></trkpt><trkpt lat="43.65299357840116" lon="1.4245424154882367"><ele>133.25</ele><time>2026-03-22T17:07:38Z</time></trkpt><trkpt lat="43.6530635742377" lon="1.4244548027810628"><ele>133.0</ele><time>2026-03-22T17:07:39Z</time></trkpt><trkpt lat="43.65311991740617" lon="1.4242684156877061"><ele>133.0</ele><time>2026-03-22T17:07:41Z</time></trkpt><trkpt lat="43.653148505214666" lon="1.4241177648887289"><ele>133.0</ele><time>2026-03-22T17:07:42Z</time></trkpt><trkpt lat="43.65320477077576" lon="1.424005409234016"><ele>133.0</ele><time>2026-03-22T17:07:43Z</time></trkpt><trkpt lat="43.65332243998607" lon="1.4239308498795051"><ele>133.0</ele><time>2026-03-22T17:07:44Z</time></trkpt><trkpt lat="43.65348192128543" lon="1.4238124775513357"><ele>132.66666666666669</ele><time>2026-03-22T17:07:45Z</time></trkpt><trkpt lat="43.65366236417089" lon="1.423668979128808"><ele>132.33333333333334</ele><time>2026-03-22T17:07:46Z</time></trkpt><trkpt lat="43.65381659980385" lon="1.4235333424302818"><ele>132.0</ele><time>2026-03-22T17:07:47Z</time></trkpt><trkpt lat="43.65396520047867" lon="1.4234010748983288"><ele>132.0</ele><time>2026-03-22T17:07:48Z</time></trkpt><trkpt lat="43.65409474034826" lon="1.423290078524594"><ele>132.0</ele><time>2026-03-22T17:07:49Z</time></trkpt><trkpt lat="43.65419702633438" lon="1.4231934270953535"><ele>132.0</ele><time>2026-03-22T17:07:50Z</time></trkpt><trkpt lat="43.65429962701598" lon="1.423093802019347"><ele>132.0</ele><time>2026-03-22T17:07:51Z</time></trkpt><trkpt lat="43.654410815634485" lon="1.42298691384779"><ele>131.75</ele><time>2026-03-22T17:07:52Z</time></trkpt><trkpt lat="43.65452269129523" lon="1.4228788366197371"><ele>131.5</ele><time>2026-03-22T17:07:53Z</time></trkpt><trkpt lat="43.65463320716996" lon="1.422782072523345"><ele>131.25</ele><time>2026-03-22T17:07:54Z</time></trkpt><trkpt lat="43.65474579363068" lon="1.4226842491930733"><ele>131.0</ele><time>2026-03-22T17:07:55Z</time></trkpt><trkpt lat="43.654870167142214" lon="1.422579263970675"><ele>131.0</ele><time>2026-03-22T17:07:56Z</time></trkpt><trkpt lat="43.6550226456" lon="1.4224446233406"><ele>131.0</ele><time>2026-03-22T17:07:57Z</time></trkpt><trkpt lat="43.655215996651464" lon="1.4222829252547604"><ele>131.0</ele><time>2026-03-22T17:07:58Z</time></trkpt><trkpt lat="43.655446677715" lon="1.4220698372641298"><ele>132.0</ele><time>2026-03-22T17:07:59Z</time></trkpt><trkpt lat="43.65562652419901" lon="1.4218577558958032"><ele>133.0</ele><time>2026-03-22T17:08:00Z</time></trkpt><trkpt lat="43.65578527999191" lon="1.4217385163683294"><ele>134.0</ele><time>2026-03-22T17:08:01Z</time></trkpt><trkpt lat="43.65593945734521" lon="1.4216289071720807"><ele>134.0</ele><time>2026-03-22T17:08:02Z</time></trkpt><trkpt lat="43.6560890383496" lon="1.421518271701253"><ele>134.0</ele><time>2026-03-22T17:08:03Z</time></trkpt><trkpt lat="43.65622761295845" lon="1.4213815997178283"><ele>134.0</ele><time>2026-03-22T17:08:04Z</time></trkpt><trkpt lat="43.656361665337826" lon="1.4212612647523561"><ele>133.66666666666666</ele><time>2026-03-22T17:08:05Z</time></trkpt><trkpt lat="43.65649370552251" lon="1.4211464702275831"><ele>133.33333333333334</ele><time>2026-03-22T17:08:06Z</time></trkpt><trkpt lat="43.65664057418958" lon="1.4210267143307231"><ele>133.0</ele><time>2026-03-22T17:08:07Z</time></trkpt><trkpt lat="43.656757862650764" lon="1.420915490500192"><ele>133.0</ele><time>2026-03-22T17:08:08Z</time></trkpt><trkpt lat="43.65688636547443" lon="1.420797023068567"><ele>133.0</ele><time>2026-03-22T17:08:09Z</time></trkpt><trkpt lat="43.65701467305832" lon="1.4206854559314113"><ele>133.0</ele><time>2026-03-22T17:08:10Z</time></trkpt><trkpt lat="43.65715261088318" lon="1.4205359637022563"><ele>132.0</ele><time>2026-03-22T17:08:11Z</time></trkpt><trkpt lat="43.65728997071561" lon="1.4204041481817635"><ele>131.0</ele><time>2026-03-22T17:08:12Z</time></trkpt><trkpt lat="43.65742966299801" lon="1.420280520333728"><ele>130.0</ele><time>2026-03-22T17:08:13Z</time></trkpt><trkpt lat="43.65755138060624" lon="1.4201707832231554"><ele>130.0</ele><time>2026-03-22T17:08:14Z</time></trkpt><trkpt lat="43.657663578808766" lon="1.4200827458273841"><ele>130.0</ele><time>2026-03-22T17:08:15Z</time></trkpt><trkpt lat="43.65777020083368" lon="1.4200025114277457"><ele>130.0</ele><time>2026-03-22T17:08:16Z</time></trkpt><trkpt lat="43.657882770566594" lon="1.4199363658000896"><ele>130.0</ele><time>2026-03-22T17:08:17Z</time></trkpt><trkpt lat="43.65798547741919" lon="1.4198719384902754"><ele>130.0</ele><time>2026-03-22T17:08:18Z</time></trkpt><trkpt lat="43.65804996701955" lon="1.4198171810884888"><ele>130.0</ele><time>2026-03-22T17:08:19Z</time></trkpt><trkpt lat="43.65811080864976" lon="1.419780815203107"><ele>130.0</ele><time>2026-03-22T17:08:20Z</time></trkpt><trkpt lat="43.65820815440257" lon="1.4195867391936527"><ele>130.0</ele><time>2026-03-22T17:08:21Z</time></trkpt><trkpt lat="43.65829573354406" lon="1.4195056427129473"><ele>130.0</ele><time>2026-03-22T17:08:22Z</time></trkpt><trkpt lat="43.65837189174571" lon="1.4194432757734081"><ele>129.66666666666669</ele><time>2026-03-22T17:08:23Z</time></trkpt><trkpt lat="43.65844126897877" lon="1.419347968956142"><ele>129.33333333333334</ele><time>2026-03-22T17:08:24Z</time></trkpt><trkpt lat="43.65854097365193" lon="1.4192742322528236"><ele>129.0</ele><time>2026-03-22T17:08:26Z</time></trkpt><trkpt lat="43.65860889424934" lon="1.4192400329593906"><ele>128.66666666666666</ele><time>2026-03-22T17:08:31Z</time></trkpt><trkpt lat="43.65867139344667" lon="1.4192125284944024"><ele>128.33333333333331</ele><time>2026-03-22T17:08:34Z</time></trkpt><trkpt lat="43.65872773237307" lon="1.419170434907495"><ele>128.0</ele><time>2026-03-22T17:08:36Z</time></trkpt><trkpt lat="43.65876329122669" lon="1.419097023218516"><ele>128.0</ele><time>2026-03-22T17:09:00Z</time></trkpt><trkpt lat="43.65885803476252" lon="1.4190336199892524"><ele>128.0</ele><time>2026-03-22T17:09:01Z</time></trkpt><trkpt lat="43.6589561971212" lon="1.418953590204921"><ele>128.0</ele><time>2026-03-22T17:09:02Z</time></trkpt><trkpt lat="43.659117312361175" lon="1.418787184902404"><ele>128.0</ele><time>2026-03-22T17:09:03Z</time></trkpt><trkpt lat="43.65926038376218" lon="1.4186476976080047"><ele>128.0</ele><time>2026-03-22T17:09:04Z</time></trkpt><trkpt lat="43.65940928380527" lon="1.4185188603109746"><ele>128.0</ele><time>2026-03-22T17:09:05Z</time></trkpt><trkpt lat="43.659572061725115" lon="1.4183613719565278"><ele>128.0</ele><time>2026-03-22T17:09:06Z</time></trkpt><trkpt lat="43.65974046852046" lon="1.4181844203748415"><ele>128.0</ele><time>2026-03-22T17:09:07Z</time></trkpt><trkpt lat="43.6599415591276" lon="1.418016036899384"><ele>128.0</ele><time>2026-03-22T17:09:08Z</time></trkpt><trkpt lat="43.66016098210754" lon="1.4178405014320299"><ele>128.33333333333331</ele><time>2026-03-22T17:09:09Z</time></trkpt><trkpt lat="43.66035660196422" lon="1.4176660246254305"><ele>128.66666666666666</ele><time>2026-03-22T17:09:10Z</time></trkpt><trkpt lat="43.6605307671692" lon="1.417523044835691"><ele>129.0</ele><time>2026-03-22T17:09:11Z</time></trkpt><trkpt lat="43.66067842533537" lon="1.4173924921342553"><ele>129.0</ele><time>2026-03-22T17:09:12Z</time></trkpt><trkpt lat="43.6608209668056" lon="1.417267027965146"><ele>129.0</ele><time>2026-03-22T17:09:13Z</time></trkpt><trkpt lat="43.6609701044881" lon="1.417171015708503"><ele>129.0</ele><time>2026-03-22T17:09:14Z</time></trkpt><trkpt lat="43.66108750072769" lon="1.4170476107087033"><ele>128.5</ele><time>2026-03-22T17:09:15Z</time></trkpt><trkpt lat="43.6612005155336" lon="1.4169400652628066"><ele>128.0</ele><time>2026-03-22T17:09:16Z</time></trkpt><trkpt lat="43.661317237871856" lon="1.4168397607450918"><ele>127.5</ele><time>2026-03-22T17:09:17Z</time></trkpt><trkpt lat="43.66142189487916" lon="1.4167372161243859"><ele>127.0</ele><time>2026-03-22T17:09:18Z</time></trkpt><trkpt lat="43.66151052097662" lon="1.416672666369344"><ele>127.00000000000001</ele><time>2026-03-22T17:09:19Z</time></trkpt><trkpt lat="43.661592299078876" lon="1.4166447672233506"><ele>127.0</ele><time>2026-03-22T17:09:20Z</time></trkpt><trkpt lat="43.66168684841379" lon="1.416672574821609"><ele>127.0</ele><time>2026-03-22T17:09:21Z</time></trkpt><trkpt lat="43.66179080860853" lon="1.4167366050636954"><ele>127.0</ele><time>2026-03-22T17:09:22Z</time></trkpt><trkpt lat="43.661851352076866" lon="1.4166842100549049"><ele>127.00000000000001</ele><time>2026-03-22T17:09:23Z</time></trkpt><trkpt lat="43.66190558964867" lon="1.4165981906478793"><ele>127.0</ele><time>2026-03-22T17:09:24Z</time></trkpt><trkpt lat="43.661944884005855" lon="1.4164764562967533"><ele>127.5</ele><time>2026-03-22T17:09:25Z</time></trkpt><trkpt lat="43.66198155589109" lon="1.4163228304005797"><ele>128.0</ele><time>2026-03-22T17:09:26Z</time></trkpt><trkpt lat="43.662058515295875" lon="1.4161922276142327"><ele>128.5</ele><time>2026-03-22T17:09:27Z</time></trkpt><trkpt lat="43.66218034634089" lon="1.4160494325219648"><ele>129.0</ele><time>2026-03-22T17:09:28Z</time></trkpt><trkpt lat="43.662346275262735" lon="1.4158696726938562"><ele>129.0</ele><time>2026-03-22T17:09:29Z</time></trkpt><trkpt lat="43.66254054552495" lon="1.4157005243336125"><ele>129.0</ele><time>2026-03-22T17:09:30Z</time></trkpt><trkpt lat="43.66273596928724" lon="1.41551287938032"><ele>129.0</ele><time>2026-03-22T17:09:31Z</time></trkpt><trkpt lat="43.66294394276679" lon="1.4153554071098724"><ele>129.0</ele><time>2026-03-22T17:09:32Z</time></trkpt><trkpt lat="43.6631185728752" lon="1.4151979409473512"><ele>129.0</ele><time>2026-03-22T17:09:33Z</time></trkpt><trkpt lat="43.66327005602379" lon="1.4150701393588647"><ele>129.0</ele><time>2026-03-22T17:09:34Z</time></trkpt><trkpt lat="43.66341438828088" lon="1.414941492403252"><ele>129.0</ele><time>2026-03-22T17:09:35Z</time></trkpt><trkpt lat="43.66355177924667" lon="1.41481334450924"><ele>129.0</ele><time>2026-03-22T17:09:36Z</time></trkpt><trkpt lat="43.663682363616864" lon="1.414694110735466"><ele>129.0</ele><time>2026-03-22T17:09:37Z</time></trkpt><trkpt lat="43.66380368231138" lon="1.4145868022280188"><ele>129.0</ele><time>2026-03-22T17:09:38Z</time></trkpt><trkpt lat="43.66394306344868" lon="1.4144739224703038"><ele>129.0</ele><time>2026-03-22T17:09:39Z</time></trkpt><trkpt lat="43.66407187137454" lon="1.4143649829565448"><ele>129.0</ele><time>2026-03-22T17:09:40Z</time></trkpt><trkpt lat="43.66418558517959" lon="1.4142482901038806"><ele>129.0</ele><time>2026-03-22T17:09:41Z</time></trkpt><trkpt lat="43.664306300758255" lon="1.4141297686440115"><ele>129.0</ele><time>2026-03-22T17:09:42Z</time></trkpt><trkpt lat="43.6644284482044" lon="1.4140253547630255"><ele>129.0</ele><time>2026-03-22T17:09:43Z</time></trkpt><trkpt lat="43.664580590130576" lon="1.4138791719730197"><ele>128.66666666666666</ele><time>2026-03-22T17:09:44Z</time></trkpt><trkpt lat="43.66476559061704" lon="1.4137090018438994"><ele>128.33333333333331</ele><time>2026-03-22T17:09:45Z</time></trkpt><trkpt lat="43.6649329168459" lon="1.4135639557113986"><ele>128.0</ele><time>2026-03-22T17:09:46Z</time></trkpt><trkpt lat="43.665072312555395" lon="1.4134412543240722"><ele>128.0</ele><time>2026-03-22T17:09:47Z</time></trkpt><trkpt lat="43.66518528238649" lon="1.4133305205211903"><ele>128.0</ele><time>2026-03-22T17:09:48Z</time></trkpt><trkpt lat="43.66534324011708" lon="1.4132054481776937"><ele>128.0</ele><time>2026-03-22T17:09:49Z</time></trkpt><trkpt lat="43.665484243772326" lon="1.4130792128799623"><ele>128.66666666666666</ele><time>2026-03-22T17:09:50Z</time></trkpt><trkpt lat="43.665623537361" lon="1.4129424399904171"><ele>129.33333333333334</ele><time>2026-03-22T17:09:51Z</time></trkpt><trkpt lat="43.66575226943414" lon="1.4128231119178662"><ele>130.0</ele><time>2026-03-22T17:09:52Z</time></trkpt><trkpt lat="43.66586546993787" lon="1.4127276134731088"><ele>130.0</ele><time>2026-03-22T17:09:53Z</time></trkpt><trkpt lat="43.665966658896004" lon="1.412641891363845"><ele>130.0</ele><time>2026-03-22T17:09:54Z</time></trkpt><trkpt lat="43.666056068119275" lon="1.4125646276731127"><ele>130.0</ele><time>2026-03-22T17:09:55Z</time></trkpt><trkpt lat="43.66616276263929" lon="1.4124750209014332"><ele>130.0</ele><time>2026-03-22T17:09:56Z</time></trkpt><trkpt lat="43.66628858137414" lon="1.412354233564351"><ele>130.0</ele><time>2026-03-22T17:09:57Z</time></trkpt><trkpt lat="43.66642360026434" lon="1.4122311672845045"><ele>130.0</ele><time>2026-03-22T17:09:58Z</time></trkpt><trkpt lat="43.66653394781792" lon="1.4121300617281418"><ele>130.0</ele><time>2026-03-22T17:09:59Z</time></trkpt><trkpt lat="43.666663275002044" lon="1.4120254669730652"><ele>130.0</ele><time>2026-03-22T17:10:00Z</time></trkpt><trkpt lat="43.66680501675669" lon="1.4119075401097232"><ele>130.0</ele><time>2026-03-22T17:10:01Z</time></trkpt><trkpt lat="43.66692672694607" lon="1.4118173793045725"><ele>130.0</ele><time>2026-03-22T17:10:02Z</time></trkpt><trkpt lat="43.66704202598039" lon="1.4117454150299085"><ele>130.0</ele><time>2026-03-22T17:10:03Z</time></trkpt><trkpt lat="43.66714306916295" lon="1.4116832866186158"><ele>130.0</ele><time>2026-03-22T17:10:04Z</time></trkpt><trkpt lat="43.667253332448155" lon="1.4116260015420143"><ele>130.4</ele><time>2026-03-22T17:10:05Z</time></trkpt><trkpt lat="43.66735160232707" lon="1.411582048674238"><ele>130.8</ele><time>2026-03-22T17:10:06Z</time></trkpt><trkpt lat="43.6674517025569" lon="1.4115413105349073"><ele>131.2</ele><time>2026-03-22T17:10:07Z</time></trkpt><trkpt lat="43.66754546569958" lon="1.411506792163639"><ele>131.6</ele><time>2026-03-22T17:10:08Z</time></trkpt><trkpt lat="43.66762938715177" lon="1.411478797198126"><ele>132.0</ele><time>2026-03-22T17:10:09Z</time></trkpt><trkpt lat="43.66770242273845" lon="1.411451360428789"><ele>132.0</ele><time>2026-03-22T17:10:10Z</time></trkpt><trkpt lat="43.667773578725374" lon="1.4114278637888096"><ele>132.0</ele><time>2026-03-22T17:10:11Z</time></trkpt><trkpt lat="43.667845283902714" lon="1.4114081060488644"><ele>132.0</ele><time>2026-03-22T17:10:12Z</time></trkpt><trkpt lat="43.66793264045683" lon="1.4113930412612405"><ele>132.0</ele><time>2026-03-22T17:10:13Z</time></trkpt><trkpt lat="43.66801731948841" lon="1.4113882853705781"><ele>132.0</ele><time>2026-03-22T17:10:14Z</time></trkpt><trkpt lat="43.66808676813494" lon="1.4113961869832115"><ele>132.0</ele><time>2026-03-22T17:10:15Z</time></trkpt><trkpt lat="43.66816537780174" lon="1.411415164931376"><ele>131.66666666666666</ele><time>2026-03-22T17:10:16Z</time></trkpt><trkpt lat="43.668250334304176" lon="1.4114351147337882"><ele>131.33333333333334</ele><time>2026-03-22T17:10:17Z</time></trkpt><trkpt lat="43.66833546088544" lon="1.4114646234033312"><ele>131.0</ele><time>2026-03-22T17:10:18Z</time></trkpt><trkpt lat="43.66841936882548" lon="1.4115078106410721"><ele>130.66666666666669</ele><time>2026-03-22T17:10:19Z</time></trkpt><trkpt lat="43.668493439630886" lon="1.4115258714743772"><ele>130.33333333333334</ele><time>2026-03-22T17:10:20Z</time></trkpt><trkpt lat="43.66855774317495" lon="1.411486510890673"><ele>130.0</ele><time>2026-03-22T17:10:21Z</time></trkpt><trkpt lat="43.668609111406255" lon="1.4113881101139607"><ele>130.4</ele><time>2026-03-22T17:10:22Z</time></trkpt><trkpt lat="43.66864980248249" lon="1.411292198497504"><ele>130.8</ele><time>2026-03-22T17:10:23Z</time></trkpt><trkpt lat="43.668699120390805" lon="1.411208383728396"><ele>131.2</ele><time>2026-03-22T17:10:24Z</time></trkpt><trkpt lat="43.66878410535076" lon="1.4111428873315173"><ele>131.6</ele><time>2026-03-22T17:10:25Z</time></trkpt><trkpt lat="43.668879285320926" lon="1.4110881805131537"><ele>132.0</ele><time>2026-03-22T17:10:26Z</time></trkpt><trkpt lat="43.66900613181589" lon="1.4110560853951468"><ele>132.0</ele><time>2026-03-22T17:10:27Z</time></trkpt><trkpt lat="43.66912855025525" lon="1.4109838327260817"><ele>132.0</ele><time>2026-03-22T17:10:28Z</time></trkpt><trkpt lat="43.66928062139004" lon="1.410962123046124"><ele>132.0</ele><time>2026-03-22T17:10:29Z</time></trkpt><trkpt lat="43.66946900252412" lon="1.4108836452767162"><ele>131.33333333333334</ele><time>2026-03-22T17:10:30Z</time></trkpt><trkpt lat="43.66968529459652" lon="1.4108192076002286"><ele>130.66666666666669</ele><time>2026-03-22T17:10:31Z</time></trkpt><trkpt lat="43.66987498641624" lon="1.4107675169950136"><ele>130.0</ele><time>2026-03-22T17:10:32Z</time></trkpt><trkpt lat="43.67003641165229" lon="1.4107182493022636"><ele>130.0</ele><time>2026-03-22T17:10:33Z</time></trkpt><trkpt lat="43.670184565448714" lon="1.4106690835579816"><ele>130.0</ele><time>2026-03-22T17:10:34Z</time></trkpt><trkpt lat="43.67033466852639" lon="1.4106167031552557"><ele>130.0</ele><time>2026-03-22T17:10:35Z</time></trkpt><trkpt lat="43.67051240779631" lon="1.4105771429046698"><ele>129.66666666666669</ele><time>2026-03-22T17:10:36Z</time></trkpt><trkpt lat="43.67070360231764" lon="1.4105150569334366"><ele>129.33333333333334</ele><time>2026-03-22T17:10:37Z</time></trkpt><trkpt lat="43.67091277462449" lon="1.4104497730562289"><ele>129.0</ele><time>2026-03-22T17:10:38Z</time></trkpt><trkpt lat="43.671125006389765" lon="1.4103837883140604"><ele>129.0</ele><time>2026-03-22T17:10:39Z</time></trkpt><trkpt lat="43.67134298778252" lon="1.4103165143425398"><ele>129.0</ele><time>2026-03-22T17:10:40Z</time></trkpt><trkpt lat="43.67155894668741" lon="1.4102485524828798"><ele>129.0</ele><time>2026-03-22T17:10:41Z</time></trkpt><trkpt lat="43.67174693144678" lon="1.4101683996227143"><ele>129.0</ele><time>2026-03-22T17:10:42Z</time></trkpt><trkpt lat="43.67192150944045" lon="1.4101173565728509"><ele>129.0</ele><time>2026-03-22T17:10:43Z</time></trkpt><trkpt lat="43.67208606369532" lon="1.4100666782514442"><ele>129.0</ele><time>2026-03-22T17:10:44Z</time></trkpt><trkpt lat="43.672270879411144" lon="1.4100237679641976"><ele>129.0</ele><time>2026-03-22T17:10:45Z</time></trkpt><trkpt lat="43.67246275835713" lon="1.409942473730289"><ele>129.0</ele><time>2026-03-22T17:10:46Z</time></trkpt><trkpt lat="43.672662923760754" lon="1.4098840530932122"><ele>129.0</ele><time>2026-03-22T17:10:47Z</time></trkpt><trkpt lat="43.67286201184879" lon="1.409825851309209"><ele>129.0</ele><time>2026-03-22T17:10:48Z</time></trkpt><trkpt lat="43.67308895017245" lon="1.4097635083007307"><ele>129.0</ele><time>2026-03-22T17:10:49Z</time></trkpt><trkpt lat="43.673279105267746" lon="1.409693426993482"><ele>129.0</ele><time>2026-03-22T17:10:50Z</time></trkpt><trkpt lat="43.67348105726739" lon="1.409647758427226"><ele>129.0</ele><time>2026-03-22T17:10:51Z</time></trkpt><trkpt lat="43.67365158717587" lon="1.4095710826867875"><ele>129.0</ele><time>2026-03-22T17:10:52Z</time></trkpt><trkpt lat="43.67384051647028" lon="1.409534826657866"><ele>129.0</ele><time>2026-03-22T17:10:53Z</time></trkpt><trkpt lat="43.67403072335584" lon="1.4094703253450835"><ele>129.0</ele><time>2026-03-22T17:10:54Z</time></trkpt><trkpt lat="43.67419432303698" lon="1.4094177073283525"><ele>129.0</ele><time>2026-03-22T17:10:55Z</time></trkpt><trkpt lat="43.6743606351655" lon="1.4093663143925683"><ele>129.0</ele><time>2026-03-22T17:10:56Z</time></trkpt><trkpt lat="43.674515828170755" lon="1.4093230642413423"><ele>129.66666666666666</ele><time>2026-03-22T17:10:57Z</time></trkpt><trkpt lat="43.67465454393377" lon="1.4092851562261532"><ele>130.33333333333331</ele><time>2026-03-22T17:10:58Z</time></trkpt><trkpt lat="43.67479707970602" lon="1.4092177023681103"><ele>131.0</ele><time>2026-03-22T17:10:59Z</time></trkpt><trkpt lat="43.674959832973464" lon="1.409176805819216"><ele>131.0</ele><time>2026-03-22T17:11:00Z</time></trkpt><trkpt lat="43.67512597580628" lon="1.4091291277903883"><ele>131.0</ele><time>2026-03-22T17:11:01Z</time></trkpt><trkpt lat="43.67531932957461" lon="1.4090549547972986"><ele>131.0</ele><time>2026-03-22T17:11:02Z</time></trkpt><trkpt lat="43.675477503506855" lon="1.4090078054722524"><ele>130.33333333333331</ele><time>2026-03-22T17:11:03Z</time></trkpt><trkpt lat="43.67562909721337" lon="1.4089681836436425"><ele>129.66666666666666</ele><time>2026-03-22T17:11:04Z</time></trkpt><trkpt lat="43.67577224056248" lon="1.4089300956330353"><ele>129.0</ele><time>2026-03-22T17:11:05Z</time></trkpt><trkpt lat="43.67592493197594" lon="1.408883692425923"><ele>129.0</ele><time>2026-03-22T17:11:06Z</time></trkpt><trkpt lat="43.67606486144361" lon="1.4088320378897214"><ele>129.0</ele><time>2026-03-22T17:11:07Z</time></trkpt><trkpt lat="43.676189147434684" lon="1.4087902803722656"><ele>129.0</ele><time>2026-03-22T17:11:08Z</time></trkpt><trkpt lat="43.6763008714365" lon="1.4087534762536984"><ele>129.0</ele><time>2026-03-22T17:11:09Z</time></trkpt><trkpt lat="43.6764059141971" lon="1.4087246588702997"><ele>129.4</ele><time>2026-03-22T17:11:10Z</time></trkpt><trkpt lat="43.676515429078556" lon="1.408700331564214"><ele>129.8</ele><time>2026-03-22T17:11:11Z</time></trkpt><trkpt lat="43.67663180952492" lon="1.4086759940464135"><ele>130.2</ele><time>2026-03-22T17:11:12Z</time></trkpt><trkpt lat="43.67672108545945" lon="1.408645327167521"><ele>130.6</ele><time>2026-03-22T17:11:13Z</time></trkpt><trkpt lat="43.67678937220481" lon="1.408625291427919"><ele>131.0</ele><time>2026-03-22T17:11:14Z</time></trkpt><trkpt lat="43.676856493819145" lon="1.4086137625963344"><ele>130.8</ele><time>2026-03-22T17:11:15Z</time></trkpt><trkpt lat="43.67694288330495" lon="1.408612983783341"><ele>130.6</ele><time>2026-03-22T17:11:16Z</time></trkpt><trkpt lat="43.67703428194268" lon="1.408651050609497"><ele>130.4</ele><time>2026-03-22T17:11:17Z</time></trkpt><trkpt lat="43.67711759025668" lon="1.4086525064637965"><ele>130.2</ele><time>2026-03-22T17:11:18Z</time></trkpt><trkpt lat="43.677204628810955" lon="1.4086052801349687"><ele>130.0</ele><time>2026-03-22T17:11:19Z</time></trkpt><trkpt lat="43.67730487657494" lon="1.4085021559750766"><ele>130.0</ele><time>2026-03-22T17:11:20Z</time></trkpt><trkpt lat="43.67743529087451" lon="1.4084010034085703"><ele>130.0</ele><time>2026-03-22T17:11:21Z</time></trkpt><trkpt lat="43.677597913209546" lon="1.4083563774923906"><ele>130.0</ele><time>2026-03-22T17:11:22Z</time></trkpt><trkpt lat="43.677792209784045" lon="1.4083165739620207"><ele>129.33333333333334</ele><time>2026-03-22T17:11:23Z</time></trkpt><trkpt lat="43.677995396297966" lon="1.4082531964395215"><ele>128.66666666666666</ele><time>2026-03-22T17:11:24Z</time></trkpt><trkpt lat="43.67817980367747" lon="1.4081968228535235"><ele>128.0</ele><time>2026-03-22T17:11:25Z</time></trkpt><trkpt lat="43.67834534926266" lon="1.4081468192939577"><ele>128.0</ele><time>2026-03-22T17:11:26Z</time></trkpt><trkpt lat="43.678499299954865" lon="1.4080983092806418"><ele>128.0</ele><time>2026-03-22T17:11:27Z</time></trkpt><trkpt lat="43.6786617922053" lon="1.4080399555706404"><ele>128.0</ele><time>2026-03-22T17:11:28Z</time></trkpt><trkpt lat="43.67884039448087" lon="1.4079724680581451"><ele>128.5</ele><time>2026-03-22T17:11:29Z</time></trkpt><trkpt lat="43.67905871013903" lon="1.4078872157598004"><ele>129.0</ele><time>2026-03-22T17:11:30Z</time></trkpt><trkpt lat="43.679312312147005" lon="1.4078123795177009"><ele>129.0</ele><time>2026-03-22T17:11:31Z</time></trkpt><trkpt lat="43.67956996819965" lon="1.4077468211691289"><ele>129.0</ele><time>2026-03-22T17:11:32Z</time></trkpt><trkpt lat="43.679799858025746" lon="1.4076770625489996"><ele>129.0</ele><time>2026-03-22T17:11:33Z</time></trkpt><trkpt lat="43.67999363387935" lon="1.4076211054910492"><ele>129.0</ele><time>2026-03-22T17:11:34Z</time></trkpt><trkpt lat="43.68018706798063" lon="1.407567840247057"><ele>129.0</ele><time>2026-03-22T17:11:35Z</time></trkpt><trkpt lat="43.68036093672921" lon="1.4075147223646998"><ele>128.66666666666666</ele><time>2026-03-22T17:11:36Z</time></trkpt><trkpt lat="43.68052838175544" lon="1.4074624406082603"><ele>128.33333333333331</ele><time>2026-03-22T17:11:37Z</time></trkpt><trkpt lat="43.680699130981786" lon="1.4074116170800886"><ele>128.0</ele><time>2026-03-22T17:11:38Z</time></trkpt><trkpt lat="43.68087685902468" lon="1.4073552662227011"><ele>128.0</ele><time>2026-03-22T17:11:39Z</time></trkpt><trkpt lat="43.68106428436926" lon="1.407297379065932"><ele>128.0</ele><time>2026-03-22T17:11:40Z</time></trkpt><trkpt lat="43.68125210623189" lon="1.407230591386245"><ele>128.0</ele><time>2026-03-22T17:11:41Z</time></trkpt><trkpt lat="43.68144167624294" lon="1.4071688945017944"><ele>128.0</ele><time>2026-03-22T17:11:42Z</time></trkpt><trkpt lat="43.68161376290716" lon="1.4071169207920307"><ele>128.0</ele><time>2026-03-22T17:11:43Z</time></trkpt><trkpt lat="43.68178210197063" lon="1.4070659625368265"><ele>128.0</ele><time>2026-03-22T17:11:44Z</time></trkpt><trkpt lat="43.68195582584717" lon="1.4070084427815044"><ele>128.33333333333331</ele><time>2026-03-22T17:11:45Z</time></trkpt><trkpt lat="43.68213887894545" lon="1.406946430071863"><ele>128.66666666666666</ele><time>2026-03-22T17:11:46Z</time></trkpt><trkpt lat="43.68233232902027" lon="1.4068867537825622"><ele>129.0</ele><time>2026-03-22T17:11:47Z</time></trkpt><trkpt lat="43.682527634653134" lon="1.4068277621876448"><ele>129.0</ele><time>2026-03-22T17:11:48Z</time></trkpt><trkpt lat="43.682718423074135" lon="1.406766670937582"><ele>129.0</ele><time>2026-03-22T17:11:49Z</time></trkpt><trkpt lat="43.68290173062975" lon="1.4067027641373528"><ele>129.0</ele><time>2026-03-22T17:11:50Z</time></trkpt><trkpt lat="43.68311078538111" lon="1.406638157789565"><ele>129.0</ele><time>2026-03-22T17:11:51Z</time></trkpt><trkpt lat="43.68330059553091" lon="1.4065735545974898"><ele>129.0</ele><time>2026-03-22T17:11:52Z</time></trkpt><trkpt lat="43.6834993178394" lon="1.4065136131384843"><ele>129.0</ele><time>2026-03-22T17:11:53Z</time></trkpt><trkpt lat="43.683719566122804" lon="1.406433451010549"><ele>128.66666666666666</ele><time>2026-03-22T17:11:54Z</time></trkpt><trkpt lat="43.683935352156425" lon="1.4063879130250232"><ele>128.33333333333331</ele><time>2026-03-22T17:11:55Z</time></trkpt><trkpt lat="43.684153185844" lon="1.406302829843709"><ele>128.0</ele><time>2026-03-22T17:11:56Z</time></trkpt><trkpt lat="43.68439200179311" lon="1.4062442553068637"><ele>127.66666666666666</ele><time>2026-03-22T17:11:57Z</time></trkpt><trkpt lat="43.68460842923163" lon="1.406177677456639"><ele>127.33333333333334</ele><time>2026-03-22T17:11:58Z</time></trkpt><trkpt lat="43.68480490006714" lon="1.4061186747891319"><ele>127.0</ele><time>2026-03-22T17:11:59Z</time></trkpt><trkpt lat="43.684982296684886" lon="1.406063259397956"><ele>127.0</ele><time>2026-03-22T17:12:00Z</time></trkpt><trkpt lat="43.68515469726092" lon="1.4060090341854432"><ele>127.0</ele><time>2026-03-22T17:12:01Z</time></trkpt><trkpt lat="43.68531793502307" lon="1.405948765496168"><ele>127.0</ele><time>2026-03-22T17:12:02Z</time></trkpt><trkpt lat="43.68547353864983" lon="1.4058957313976956"><ele>127.33333333333334</ele><time>2026-03-22T17:12:03Z</time></trkpt><trkpt lat="43.685623575947055" lon="1.4058467371972938"><ele>127.66666666666666</ele><time>2026-03-22T17:12:04Z</time></trkpt><trkpt lat="43.68577791344935" lon="1.4057950652146338"><ele>128.0</ele><time>2026-03-22T17:12:05Z</time></trkpt><trkpt lat="43.68592506787635" lon="1.4057414231506404"><ele>128.0</ele><time>2026-03-22T17:12:06Z</time></trkpt><trkpt lat="43.68606525680772" lon="1.4056926288484983"><ele>128.0</ele><time>2026-03-22T17:12:07Z</time></trkpt><trkpt lat="43.6862150826402" lon="1.4056509343465555"><ele>128.0</ele><time>2026-03-22T17:12:08Z</time></trkpt><trkpt lat="43.68637493549837" lon="1.405605735074376"><ele>128.0</ele><time>2026-03-22T17:12:09Z</time></trkpt><trkpt lat="43.68651709629417" lon="1.405574994385762"><ele>128.0</ele><time>2026-03-22T17:12:10Z</time></trkpt><trkpt lat="43.686636022410035" lon="1.4055133407234268"><ele>128.0</ele><time>2026-03-22T17:12:11Z</time></trkpt><trkpt lat="43.686761826715276" lon="1.4054688481788946"><ele>128.0</ele><time>2026-03-22T17:12:12Z</time></trkpt><trkpt lat="43.68689356503126" lon="1.4054247807075952"><ele>127.83333333333333</ele><time>2026-03-22T17:12:13Z</time></trkpt><trkpt lat="43.68699441425566" lon="1.4054054068878394"><ele>127.66666666666666</ele><time>2026-03-22T17:12:14Z</time></trkpt><trkpt lat="43.687093441922606" lon="1.4053824423797918"><ele>127.5</ele><time>2026-03-22T17:12:15Z</time></trkpt><trkpt lat="43.687164425828904" lon="1.405359217235115"><ele>127.33333333333334</ele><time>2026-03-22T17:12:16Z</time></trkpt><trkpt lat="43.687234256190756" lon="1.4053353478293265"><ele>127.16666666666667</ele><time>2026-03-22T17:12:17Z</time></trkpt><trkpt lat="43.68732727206129" lon="1.4053008092468902"><ele>127.0</ele><time>2026-03-22T17:12:19Z</time></trkpt><trkpt lat="43.68743140304568" lon="1.4052963441133646"><ele>127.0</ele><time>2026-03-22T17:12:21Z</time></trkpt><trkpt lat="43.68750073514872" lon="1.4052666916495216"><ele>126.99999999999999</ele><time>2026-03-22T17:12:23Z</time></trkpt><trkpt lat="43.68759999422576" lon="1.405283225397642"><ele>126.99999999999999</ele><time>2026-03-22T17:12:24Z</time></trkpt><trkpt lat="43.68770338807451" lon="1.4053189686698844"><ele>127.0</ele><time>2026-03-22T17:12:25Z</time></trkpt><trkpt lat="43.6877799121549" lon="1.40529824391985"><ele>127.0</ele><time>2026-03-22T17:12:26Z</time></trkpt><trkpt lat="43.6878823466578" lon="1.405221713892674"><ele>127.25</ele><time>2026-03-22T17:12:27Z</time></trkpt><trkpt lat="43.68800300462028" lon="1.4051041616183662"><ele>127.5</ele><time>2026-03-22T17:12:28Z</time></trkpt><trkpt lat="43.688113794620826" lon="1.4050397083150743"><ele>127.75</ele><time>2026-03-22T17:12:29Z</time></trkpt><trkpt lat="43.688234193726665" lon="1.4050077684149818"><ele>128.0</ele><time>2026-03-22T17:12:30Z</time></trkpt><trkpt lat="43.68838727908751" lon="1.4049447242354238"><ele>128.0</ele><time>2026-03-22T17:12:31Z</time></trkpt><trkpt lat="43.68852337398615" lon="1.404874681080849"><ele>128.0</ele><time>2026-03-22T17:12:32Z</time></trkpt><trkpt lat="43.6886536454796" lon="1.4048074454306607"><ele>128.0</ele><time>2026-03-22T17:12:33Z</time></trkpt><trkpt lat="43.6887978281789" lon="1.4047439552615522"><ele>128.0</ele><time>2026-03-22T17:12:34Z</time></trkpt><trkpt lat="43.68895179497181" lon="1.404666428991163"><ele>128.33333333333331</ele><time>2026-03-22T17:12:35Z</time></trkpt><trkpt lat="43.68910675317814" lon="1.4045830050161376"><ele>128.66666666666666</ele><time>2026-03-22T17:12:36Z</time></trkpt><trkpt lat="43.68926016448925" lon="1.404501460921648"><ele>129.0</ele><time>2026-03-22T17:12:37Z</time></trkpt><trkpt lat="43.68943838601946" lon="1.4043805928285826"><ele>130.0</ele><time>2026-03-22T17:12:38Z</time></trkpt><trkpt lat="43.689648383955586" lon="1.4042487822661083"><ele>131.0</ele><time>2026-03-22T17:12:39Z</time></trkpt><trkpt lat="43.68988758600037" lon="1.4041154969032248"><ele>131.0</ele><time>2026-03-22T17:12:40Z</time></trkpt><trkpt lat="43.69012261009541" lon="1.403982585842254"><ele>131.0</ele><time>2026-03-22T17:12:41Z</time></trkpt><trkpt lat="43.69031482209818" lon="1.4038640268574665"><ele>131.0</ele><time>2026-03-22T17:12:42Z</time></trkpt><trkpt lat="43.69050114020308" lon="1.4037349151300134"><ele>131.0</ele><time>2026-03-22T17:12:43Z</time></trkpt><trkpt lat="43.69068572612146" lon="1.4036070652836825"><ele>131.0</ele><time>2026-03-22T17:12:44Z</time></trkpt><trkpt lat="43.69087320960575" lon="1.4034847477889234"><ele>131.0</ele><time>2026-03-22T17:12:45Z</time></trkpt><trkpt lat="43.691057735244165" lon="1.4033520289526864"><ele>131.0</ele><time>2026-03-22T17:12:46Z</time></trkpt><trkpt lat="43.69125201719001" lon="1.4032447182353367"><ele>131.0</ele><time>2026-03-22T17:12:47Z</time></trkpt><trkpt lat="43.691451744267624" lon="1.4031131193317457"><ele>130.0</ele><time>2026-03-22T17:12:48Z</time></trkpt><trkpt lat="43.691640259981625" lon="1.4029901975315273"><ele>129.0</ele><time>2026-03-22T17:12:49Z</time></trkpt><trkpt lat="43.6918112756313" lon="1.4028965434095053"><ele>128.0</ele><time>2026-03-22T17:12:50Z</time></trkpt><trkpt lat="43.69197331870228" lon="1.402778649919275"><ele>128.0</ele><time>2026-03-22T17:12:51Z</time></trkpt><trkpt lat="43.69214009617607" lon="1.402696465634344"><ele>128.0</ele><time>2026-03-22T17:12:52Z</time></trkpt><trkpt lat="43.69229405743096" lon="1.4025852495791922"><ele>128.0</ele><time>2026-03-22T17:12:53Z</time></trkpt><trkpt lat="43.69245091116863" lon="1.4024788683120033"><ele>128.0</ele><time>2026-03-22T17:12:54Z</time></trkpt><trkpt lat="43.692593854273184" lon="1.402384308661677"><ele>128.0</ele><time>2026-03-22T17:12:55Z</time></trkpt><trkpt lat="43.692728063947456" lon="1.4022985935367904"><ele>128.0</ele><time>2026-03-22T17:12:56Z</time></trkpt><trkpt lat="43.692863108464614" lon="1.4021945519897414"><ele>128.0</ele><time>2026-03-22T17:12:57Z</time></trkpt><trkpt lat="43.69299270614591" lon="1.4021036710693926"><ele>128.0</ele><time>2026-03-22T17:12:58Z</time></trkpt><trkpt lat="43.69310796110912" lon="1.402027598800437"><ele>128.0</ele><time>2026-03-22T17:12:59Z</time></trkpt><trkpt lat="43.69323236106843" lon="1.4019481060653596"><ele>128.0</ele><time>2026-03-22T17:13:00Z</time></trkpt><trkpt lat="43.693344791247426" lon="1.40187696607507"><ele>128.0</ele><time>2026-03-22T17:13:01Z</time></trkpt><trkpt lat="43.69344909308933" lon="1.4018208368408869"><ele>128.0</ele><time>2026-03-22T17:13:02Z</time></trkpt><trkpt lat="43.69356387141814" lon="1.4017751323213505"><ele>128.0</ele><time>2026-03-22T17:13:03Z</time></trkpt><trkpt lat="43.69367990598618" lon="1.4016806648145366"><ele>128.0</ele><time>2026-03-22T17:13:04Z</time></trkpt><trkpt lat="43.69379625579469" lon="1.401609327378438"><ele>127.75</ele><time>2026-03-22T17:13:05Z</time></trkpt><trkpt lat="43.6939164468283" lon="1.4015395040732228"><ele>127.5</ele><time>2026-03-22T17:13:06Z</time></trkpt><trkpt lat="43.694030267208845" lon="1.4014695585838197"><ele>127.25</ele><time>2026-03-22T17:13:07Z</time></trkpt><trkpt lat="43.69414157304625" lon="1.4013928057990486"><ele>127.0</ele><time>2026-03-22T17:13:08Z</time></trkpt><trkpt lat="43.69426104016984" lon="1.401312148859797"><ele>126.8</ele><time>2026-03-22T17:13:09Z</time></trkpt><trkpt lat="43.694366888877646" lon="1.401248474202597"><ele>126.6</ele><time>2026-03-22T17:13:10Z</time></trkpt><trkpt lat="43.6944696287326" lon="1.4011864117053827"><ele>126.39999999999999</ele><time>2026-03-22T17:13:11Z</time></trkpt><trkpt lat="43.694557945086395" lon="1.4011142891315866"><ele>126.19999999999999</ele><time>2026-03-22T17:13:12Z</time></trkpt><trkpt lat="43.69465256987457" lon="1.4010443925866158"><ele>126.0</ele><time>2026-03-22T17:13:13Z</time></trkpt><trkpt lat="43.69474399731958" lon="1.4009729663252684"><ele>126.0</ele><time>2026-03-22T17:13:14Z</time></trkpt></trkseg></trk></gpx>